<?xml version="1.0" encoding="UTF-8" standalone="no" ?><gpx xmlns="http://www.topografix.com/GPX/1/1" xmlns:gpxx="http://www.garmin.com/xmlschemas/GpxExtensions/v3" xmlns:wptx1="http://www.garmin.com/xmlschemas/WaypointExtension/v1" xmlns:gpxtpx="http://www.garmin.com/xmlschemas/TrackPointExtension/v1" creator="Alpha 100 EMEA/APAC" version="1.1" xmlns:xsi="http://www.w3.org/2001/XMLSchema-instance" xsi:schemaLocation="http://www.topografix.com/GPX/1/1 http://www.topografix.com/GPX/1/1/gpx.xsd http://www.garmin.com/xmlschemas/GpxExtensions/v3 http://www8.garmin.com/xmlschemas/GpxExtensionsv3.xsd http://www.garmin.com/xmlschemas/WaypointExtension/v1 http://www8.garmin.com/xmlschemas/WaypointExtensionv1.xsd http://www.garmin.com/xmlschemas/TrackPointExtension/v1 http://www.garmin.com/xmlschemas/TrackPointExtensionv1.xsd"><metadata><link href="http://www.garmin.com"><text>Garmin International</text></link><time>2026-04-25T21:21:06Z</time></metadata><trk><name>Бе26-04-25 15:20:47</name><extensions><gpxx:TrackExtension><gpxx:DisplayColor>Red</gpxx:DisplayColor></gpxx:TrackExtension></extensions><trkseg><trkpt lat="59.0635728836" lon="30.0308489799"><time>2026-04-25T15:55:10Z</time></trkpt><trkpt lat="59.0635728836" lon="30.0308489799"><time>2026-04-25T15:55:07Z</time></trkpt><trkpt lat="59.0635728836" lon="30.0308489799"><time>2026-04-25T15:55:12Z</time></trkpt><trkpt lat="59.0635728836" lon="30.0308275223"><time>2026-04-25T15:55:15Z</time></trkpt><trkpt lat="59.0635728836" lon="30.0308275223"><time>2026-04-25T15:55:17Z</time></trkpt><trkpt lat="59.0635728836" lon="30.0308275223"><time>2026-04-25T15:55:20Z</time></trkpt><trkpt lat="59.0635943413" lon="30.0308275223"><time>2026-04-25T15:55:22Z</time></trkpt><trkpt lat="59.0636157990" lon="30.0308060646"><time>2026-04-25T15:55:25Z</time></trkpt><trkpt lat="59.0636372566" lon="30.0307846069"><time>2026-04-25T15:55:27Z</time></trkpt><trkpt lat="59.0636372566" lon="30.0307631493"><time>2026-04-25T15:55:30Z</time></trkpt><trkpt lat="59.0636372566" lon="30.0307631493"><time>2026-04-25T15:55:32Z</time></trkpt><trkpt lat="59.0636587143" lon="30.0307631493"><time>2026-04-25T15:55:35Z</time></trkpt><trkpt lat="59.0636587143" lon="30.0307631493"><time>2026-04-25T15:55:37Z</time></trkpt><trkpt lat="59.0636801720" lon="30.0307631493"><time>2026-04-25T15:55:40Z</time></trkpt><trkpt lat="59.0637016296" lon="30.0307416916"><time>2026-04-25T15:55:42Z</time></trkpt><trkpt lat="59.0637016296" lon="30.0307202339"><time>2026-04-25T15:55:45Z</time></trkpt><trkpt lat="59.0637016296" lon="30.0306987762"><time>2026-04-25T15:55:47Z</time></trkpt><trkpt lat="59.0637016296" lon="30.0306987762"><time>2026-04-25T15:55:50Z</time></trkpt><trkpt lat="59.0637230873" lon="30.0306987762"><time>2026-04-25T15:55:52Z</time></trkpt><trkpt lat="59.0637445450" lon="30.0306558609"><time>2026-04-25T15:55:55Z</time></trkpt><trkpt lat="59.0637445450" lon="30.0306558609"><time>2026-04-25T15:55:57Z</time></trkpt><trkpt lat="59.0637445450" lon="30.0306344032"><time>2026-04-25T15:56:00Z</time></trkpt><trkpt lat="59.0637445450" lon="30.0306129456"><time>2026-04-25T15:56:02Z</time></trkpt><trkpt lat="59.0637660027" lon="30.0305914879"><time>2026-04-25T15:56:05Z</time></trkpt><trkpt lat="59.0637660027" lon="30.0305700302"><time>2026-04-25T15:56:07Z</time></trkpt><trkpt lat="59.0638089180" lon="30.0305485725"><time>2026-04-25T15:56:10Z</time></trkpt><trkpt lat="59.0638089180" lon="30.0305271149"><time>2026-04-25T15:56:12Z</time></trkpt><trkpt lat="59.0638089180" lon="30.0305271149"><time>2026-04-25T15:56:15Z</time></trkpt><trkpt lat="59.0638303757" lon="30.0305056572"><time>2026-04-25T15:56:17Z</time></trkpt><trkpt lat="59.0638732910" lon="30.0304841995"><time>2026-04-25T15:56:20Z</time></trkpt><trkpt lat="59.0638732910" lon="30.0304412842"><time>2026-04-25T15:56:22Z</time></trkpt><trkpt lat="59.0638947487" lon="30.0304627419"><time>2026-04-25T15:56:25Z</time></trkpt><trkpt lat="59.0638947487" lon="30.0304841995"><time>2026-04-25T15:56:27Z</time></trkpt><trkpt lat="59.0639162064" lon="30.0305485725"><time>2026-04-25T15:56:30Z</time></trkpt><trkpt lat="59.0639376640" lon="30.0305914879"><time>2026-04-25T15:56:32Z</time></trkpt><trkpt lat="59.0639376640" lon="30.0305914879"><time>2026-04-25T15:56:35Z</time></trkpt><trkpt lat="59.0639591217" lon="30.0305914879"><time>2026-04-25T15:56:37Z</time></trkpt><trkpt lat="59.0639591217" lon="30.0306344032"><time>2026-04-25T15:56:40Z</time></trkpt><trkpt lat="59.0639591217" lon="30.0306558609"><time>2026-04-25T15:56:42Z</time></trkpt><trkpt lat="59.0639591217" lon="30.0306558609"><time>2026-04-25T15:56:45Z</time></trkpt><trkpt lat="59.0639591217" lon="30.0306773186"><time>2026-04-25T15:56:47Z</time></trkpt><trkpt lat="59.0639805794" lon="30.0306773186"><time>2026-04-25T15:56:50Z</time></trkpt><trkpt lat="59.0640020370" lon="30.0306558609"><time>2026-04-25T15:56:52Z</time></trkpt><trkpt lat="59.0640234947" lon="30.0306129456"><time>2026-04-25T15:56:55Z</time></trkpt><trkpt lat="59.0640449524" lon="30.0306129456"><time>2026-04-25T15:56:57Z</time></trkpt><trkpt lat="59.0640664101" lon="30.0306344032"><time>2026-04-25T15:57:00Z</time></trkpt><trkpt lat="59.0640664101" lon="30.0306558609"><time>2026-04-25T15:57:02Z</time></trkpt><trkpt lat="59.0640664101" lon="30.0306773186"><time>2026-04-25T15:57:05Z</time></trkpt><trkpt lat="59.0640449524" lon="30.0306987762"><time>2026-04-25T15:57:07Z</time></trkpt><trkpt lat="59.0640449524" lon="30.0306987762"><time>2026-04-25T15:57:10Z</time></trkpt><trkpt lat="59.0640878677" lon="30.0306987762"><time>2026-04-25T15:57:12Z</time></trkpt><trkpt lat="59.0641522408" lon="30.0306773186"><time>2026-04-25T15:57:15Z</time></trkpt><trkpt lat="59.0641736984" lon="30.0306344032"><time>2026-04-25T15:57:17Z</time></trkpt><trkpt lat="59.0642166138" lon="30.0306344032"><time>2026-04-25T15:57:20Z</time></trkpt><trkpt lat="59.0642380714" lon="30.0306344032"><time>2026-04-25T15:57:22Z</time></trkpt><trkpt lat="59.0642809868" lon="30.0306344032"><time>2026-04-25T15:57:25Z</time></trkpt><trkpt lat="59.0643024445" lon="30.0306344032"><time>2026-04-25T15:57:27Z</time></trkpt><trkpt lat="59.0643239021" lon="30.0306344032"><time>2026-04-25T15:57:30Z</time></trkpt><trkpt lat="59.0643239021" lon="30.0306129456"><time>2026-04-25T15:57:32Z</time></trkpt><trkpt lat="59.0643668175" lon="30.0305485725"><time>2026-04-25T15:57:35Z</time></trkpt><trkpt lat="59.0643882751" lon="30.0305271149"><time>2026-04-25T15:57:37Z</time></trkpt><trkpt lat="59.0644311905" lon="30.0305056572"><time>2026-04-25T15:57:40Z</time></trkpt><trkpt lat="59.0644526482" lon="30.0304841995"><time>2026-04-25T15:57:42Z</time></trkpt><trkpt lat="59.0644741058" lon="30.0304841995"><time>2026-04-25T15:57:45Z</time></trkpt><trkpt lat="59.0644955635" lon="30.0304841995"><time>2026-04-25T15:57:47Z</time></trkpt><trkpt lat="59.0644955635" lon="30.0305056572"><time>2026-04-25T15:57:50Z</time></trkpt><trkpt lat="59.0645170212" lon="30.0304841995"><time>2026-04-25T15:57:52Z</time></trkpt><trkpt lat="59.0645599365" lon="30.0304627419"><time>2026-04-25T15:57:55Z</time></trkpt><trkpt lat="59.0645813942" lon="30.0304198265"><time>2026-04-25T15:57:57Z</time></trkpt><trkpt lat="59.0646243095" lon="30.0304198265"><time>2026-04-25T15:58:00Z</time></trkpt><trkpt lat="59.0646243095" lon="30.0304412842"><time>2026-04-25T15:58:02Z</time></trkpt><trkpt lat="59.0646243095" lon="30.0304627419"><time>2026-04-25T15:58:05Z</time></trkpt><trkpt lat="59.0646028519" lon="30.0304627419"><time>2026-04-25T15:58:07Z</time></trkpt><trkpt lat="59.0646028519" lon="30.0304627419"><time>2026-04-25T15:58:10Z</time></trkpt><trkpt lat="59.0646028519" lon="30.0304627419"><time>2026-04-25T15:58:12Z</time></trkpt><trkpt lat="59.0646028519" lon="30.0304627419"><time>2026-04-25T15:58:15Z</time></trkpt><trkpt lat="59.0646028519" lon="30.0304627419"><time>2026-04-25T15:58:17Z</time></trkpt><trkpt lat="59.0646028519" lon="30.0304627419"><time>2026-04-25T15:58:20Z</time></trkpt><trkpt lat="59.0646028519" lon="30.0304627419"><time>2026-04-25T15:58:22Z</time></trkpt><trkpt lat="59.0646028519" lon="30.0304627419"><time>2026-04-25T15:58:25Z</time></trkpt><trkpt lat="59.0646028519" lon="30.0304627419"><time>2026-04-25T15:58:27Z</time></trkpt><trkpt lat="59.0646028519" lon="30.0304627419"><time>2026-04-25T15:58:30Z</time></trkpt><trkpt lat="59.0646243095" lon="30.0304627419"><time>2026-04-25T15:58:32Z</time></trkpt><trkpt lat="59.0646243095" lon="30.0304412842"><time>2026-04-25T15:58:35Z</time></trkpt><trkpt lat="59.0646457672" lon="30.0304412842"><time>2026-04-25T15:58:37Z</time></trkpt><trkpt lat="59.0646672249" lon="30.0304412842"><time>2026-04-25T15:58:40Z</time></trkpt><trkpt lat="59.0646672249" lon="30.0304627419"><time>2026-04-25T15:58:42Z</time></trkpt><trkpt lat="59.0646672249" lon="30.0304627419"><time>2026-04-25T15:58:45Z</time></trkpt><trkpt lat="59.0646672249" lon="30.0304627419"><time>2026-04-25T15:58:47Z</time></trkpt><trkpt lat="59.0646672249" lon="30.0304627419"><time>2026-04-25T15:58:50Z</time></trkpt><trkpt lat="59.0646672249" lon="30.0304627419"><time>2026-04-25T15:58:52Z</time></trkpt><trkpt lat="59.0646672249" lon="30.0304627419"><time>2026-04-25T15:58:55Z</time></trkpt><trkpt lat="59.0646672249" lon="30.0304627419"><time>2026-04-25T15:58:57Z</time></trkpt><trkpt lat="59.0646672249" lon="30.0304627419"><time>2026-04-25T15:59:00Z</time></trkpt><trkpt lat="59.0646886826" lon="30.0304412842"><time>2026-04-25T15:59:02Z</time></trkpt><trkpt lat="59.0648174286" lon="30.0304412842"><time>2026-04-25T15:59:05Z</time></trkpt><trkpt lat="59.0649032593" lon="30.0304198265"><time>2026-04-25T15:59:07Z</time></trkpt><trkpt lat="59.0649890900" lon="30.0303983688"><time>2026-04-25T15:59:10Z</time></trkpt><trkpt lat="59.0650105476" lon="30.0303769112"><time>2026-04-25T15:59:12Z</time></trkpt><trkpt lat="59.0650320053" lon="30.0303983688"><time>2026-04-25T15:59:15Z</time></trkpt><trkpt lat="59.0650320053" lon="30.0303983688"><time>2026-04-25T15:59:17Z</time></trkpt><trkpt lat="59.0650534630" lon="30.0303769112"><time>2026-04-25T15:59:20Z</time></trkpt><trkpt lat="59.0651178360" lon="30.0303339958"><time>2026-04-25T15:59:22Z</time></trkpt><trkpt lat="59.0651607513" lon="30.0303125381"><time>2026-04-25T15:59:25Z</time></trkpt><trkpt lat="59.0652036667" lon="30.0302696228"><time>2026-04-25T15:59:27Z</time></trkpt><trkpt lat="59.0652251244" lon="30.0302910805"><time>2026-04-25T15:59:30Z</time></trkpt><trkpt lat="59.0652680397" lon="30.0302696228"><time>2026-04-25T15:59:32Z</time></trkpt><trkpt lat="59.0652894974" lon="30.0302696228"><time>2026-04-25T15:59:35Z</time></trkpt><trkpt lat="59.0653324127" lon="30.0302910805"><time>2026-04-25T15:59:37Z</time></trkpt><trkpt lat="59.0653753281" lon="30.0302910805"><time>2026-04-25T15:59:40Z</time></trkpt><trkpt lat="59.0653967857" lon="30.0302910805"><time>2026-04-25T15:59:42Z</time></trkpt><trkpt lat="59.0653753281" lon="30.0302696228"><time>2026-04-25T15:59:45Z</time></trkpt><trkpt lat="59.0653753281" lon="30.0302696228"><time>2026-04-25T15:59:47Z</time></trkpt><trkpt lat="59.0653538704" lon="30.0302696228"><time>2026-04-25T15:59:50Z</time></trkpt><trkpt lat="59.0653538704" lon="30.0302696228"><time>2026-04-25T15:59:52Z</time></trkpt><trkpt lat="59.0653753281" lon="30.0303125381"><time>2026-04-25T15:59:55Z</time></trkpt><trkpt lat="59.0653753281" lon="30.0303125381"><time>2026-04-25T15:59:57Z</time></trkpt><trkpt lat="59.0653753281" lon="30.0302910805"><time>2026-04-25T16:00:00Z</time></trkpt><trkpt lat="59.0653753281" lon="30.0302910805"><time>2026-04-25T16:00:02Z</time></trkpt><trkpt lat="59.0653753281" lon="30.0302910805"><time>2026-04-25T16:00:05Z</time></trkpt><trkpt lat="59.0653753281" lon="30.0302910805"><time>2026-04-25T16:00:07Z</time></trkpt><trkpt lat="59.0653753281" lon="30.0302910805"><time>2026-04-25T16:00:10Z</time></trkpt><trkpt lat="59.0653753281" lon="30.0302910805"><time>2026-04-25T16:00:12Z</time></trkpt><trkpt lat="59.0653753281" lon="30.0302910805"><time>2026-04-25T16:00:15Z</time></trkpt><trkpt lat="59.0653753281" lon="30.0302910805"><time>2026-04-25T16:00:17Z</time></trkpt><trkpt lat="59.0653753281" lon="30.0302910805"><time>2026-04-25T16:00:20Z</time></trkpt><trkpt lat="59.0653753281" lon="30.0302910805"><time>2026-04-25T16:00:22Z</time></trkpt><trkpt lat="59.0653753281" lon="30.0302910805"><time>2026-04-25T16:00:25Z</time></trkpt><trkpt lat="59.0653753281" lon="30.0302910805"><time>2026-04-25T16:00:27Z</time></trkpt><trkpt lat="59.0653753281" lon="30.0302910805"><time>2026-04-25T16:00:30Z</time></trkpt><trkpt lat="59.0653753281" lon="30.0302910805"><time>2026-04-25T16:00:32Z</time></trkpt><trkpt lat="59.0653753281" lon="30.0302910805"><time>2026-04-25T16:00:35Z</time></trkpt><trkpt lat="59.0653753281" lon="30.0302910805"><time>2026-04-25T16:00:37Z</time></trkpt><trkpt lat="59.0653753281" lon="30.0302910805"><time>2026-04-25T16:00:40Z</time></trkpt><trkpt lat="59.0653753281" lon="30.0302910805"><time>2026-04-25T16:00:42Z</time></trkpt><trkpt lat="59.0653753281" lon="30.0302910805"><time>2026-04-25T16:00:45Z</time></trkpt><trkpt lat="59.0653753281" lon="30.0302910805"><time>2026-04-25T16:00:47Z</time></trkpt><trkpt lat="59.0653753281" lon="30.0302910805"><time>2026-04-25T16:00:50Z</time></trkpt><trkpt lat="59.0653753281" lon="30.0302910805"><time>2026-04-25T16:00:52Z</time></trkpt><trkpt lat="59.0653753281" lon="30.0302910805"><time>2026-04-25T16:00:55Z</time></trkpt><trkpt lat="59.0653753281" lon="30.0302910805"><time>2026-04-25T16:00:57Z</time></trkpt><trkpt lat="59.0653753281" lon="30.0302910805"><time>2026-04-25T16:01:00Z</time></trkpt><trkpt lat="59.0653753281" lon="30.0302910805"><time>2026-04-25T16:01:02Z</time></trkpt><trkpt lat="59.0653753281" lon="30.0302910805"><time>2026-04-25T16:01:05Z</time></trkpt><trkpt lat="59.0653753281" lon="30.0302696228"><time>2026-04-25T16:01:07Z</time></trkpt><trkpt lat="59.0653967857" lon="30.0302267075"><time>2026-04-25T16:01:10Z</time></trkpt><trkpt lat="59.0654182434" lon="30.0302052498"><time>2026-04-25T16:01:12Z</time></trkpt><trkpt lat="59.0654611588" lon="30.0301623344"><time>2026-04-25T16:01:15Z</time></trkpt><trkpt lat="59.0654826164" lon="30.0301408768"><time>2026-04-25T16:01:17Z</time></trkpt><trkpt lat="59.0655040741" lon="30.0301408768"><time>2026-04-25T16:01:20Z</time></trkpt><trkpt lat="59.0655255318" lon="30.0301408768"><time>2026-04-25T16:01:22Z</time></trkpt><trkpt lat="59.0655255318" lon="30.0301408768"><time>2026-04-25T16:01:25Z</time></trkpt><trkpt lat="59.0655255318" lon="30.0301408768"><time>2026-04-25T16:01:27Z</time></trkpt><trkpt lat="59.0655255318" lon="30.0301408768"><time>2026-04-25T16:01:30Z</time></trkpt><trkpt lat="59.0655255318" lon="30.0301408768"><time>2026-04-25T16:01:32Z</time></trkpt><trkpt lat="59.0655255318" lon="30.0301408768"><time>2026-04-25T16:01:35Z</time></trkpt><trkpt lat="59.0655469894" lon="30.0301623344"><time>2026-04-25T16:01:37Z</time></trkpt><trkpt lat="59.0655899048" lon="30.0302052498"><time>2026-04-25T16:01:40Z</time></trkpt><trkpt lat="59.0656328201" lon="30.0302052498"><time>2026-04-25T16:01:42Z</time></trkpt><trkpt lat="59.0656328201" lon="30.0301837921"><time>2026-04-25T16:01:45Z</time></trkpt><trkpt lat="59.0656542778" lon="30.0301623344"><time>2026-04-25T16:01:47Z</time></trkpt><trkpt lat="59.0656757355" lon="30.0301194191"><time>2026-04-25T16:01:50Z</time></trkpt><trkpt lat="59.0656757355" lon="30.0301194191"><time>2026-04-25T16:01:52Z</time></trkpt><trkpt lat="59.0656757355" lon="30.0301623344"><time>2026-04-25T16:01:55Z</time></trkpt><trkpt lat="59.0656971931" lon="30.0301837921"><time>2026-04-25T16:01:57Z</time></trkpt><trkpt lat="59.0657186508" lon="30.0302481651"><time>2026-04-25T16:02:00Z</time></trkpt><trkpt lat="59.0657401085" lon="30.0302481651"><time>2026-04-25T16:02:02Z</time></trkpt><trkpt lat="59.0657401085" lon="30.0302481651"><time>2026-04-25T16:02:05Z</time></trkpt><trkpt lat="59.0657401085" lon="30.0302481651"><time>2026-04-25T16:02:07Z</time></trkpt><trkpt lat="59.0657401085" lon="30.0302481651"><time>2026-04-25T16:02:10Z</time></trkpt><trkpt lat="59.0657401085" lon="30.0302481651"><time>2026-04-25T16:02:12Z</time></trkpt><trkpt lat="59.0657615662" lon="30.0302052498"><time>2026-04-25T16:02:15Z</time></trkpt><trkpt lat="59.0658044815" lon="30.0302052498"><time>2026-04-25T16:02:17Z</time></trkpt><trkpt lat="59.0658259392" lon="30.0301623344"><time>2026-04-25T16:02:20Z</time></trkpt><trkpt lat="59.0658473969" lon="30.0301623344"><time>2026-04-25T16:02:22Z</time></trkpt><trkpt lat="59.0658903122" lon="30.0301408768"><time>2026-04-25T16:02:25Z</time></trkpt><trkpt lat="59.0658903122" lon="30.0301194191"><time>2026-04-25T16:02:27Z</time></trkpt><trkpt lat="59.0659117699" lon="30.0300979614"><time>2026-04-25T16:02:30Z</time></trkpt><trkpt lat="59.0659332275" lon="30.0300765038"><time>2026-04-25T16:02:32Z</time></trkpt><trkpt lat="59.0659332275" lon="30.0300335884"><time>2026-04-25T16:02:35Z</time></trkpt><trkpt lat="59.0659332275" lon="30.0300121307"><time>2026-04-25T16:02:37Z</time></trkpt><trkpt lat="59.0659117699" lon="30.0299906731"><time>2026-04-25T16:02:40Z</time></trkpt><trkpt lat="59.0659117699" lon="30.0299906731"><time>2026-04-25T16:02:42Z</time></trkpt><trkpt lat="59.0659117699" lon="30.0300121307"><time>2026-04-25T16:02:45Z</time></trkpt><trkpt lat="59.0659761429" lon="30.0299692154"><time>2026-04-25T16:02:47Z</time></trkpt><trkpt lat="59.0660190582" lon="30.0300121307"><time>2026-04-25T16:02:50Z</time></trkpt><trkpt lat="59.0660619736" lon="30.0300121307"><time>2026-04-25T16:02:52Z</time></trkpt><trkpt lat="59.0661048889" lon="30.0299692154"><time>2026-04-25T16:02:55Z</time></trkpt><trkpt lat="59.0661263466" lon="30.0299477577"><time>2026-04-25T16:02:57Z</time></trkpt><trkpt lat="59.0661263466" lon="30.0299263000"><time>2026-04-25T16:03:00Z</time></trkpt><trkpt lat="59.0661263466" lon="30.0299048424"><time>2026-04-25T16:03:02Z</time></trkpt><trkpt lat="59.0661263466" lon="30.0299048424"><time>2026-04-25T16:03:05Z</time></trkpt><trkpt lat="59.0661263466" lon="30.0299048424"><time>2026-04-25T16:03:07Z</time></trkpt><trkpt lat="59.0661263466" lon="30.0299048424"><time>2026-04-25T16:03:10Z</time></trkpt><trkpt lat="59.0661263466" lon="30.0299048424"><time>2026-04-25T16:03:12Z</time></trkpt><trkpt lat="59.0661478043" lon="30.0299048424"><time>2026-04-25T16:03:15Z</time></trkpt><trkpt lat="59.0661692619" lon="30.0298404694"><time>2026-04-25T16:03:17Z</time></trkpt><trkpt lat="59.0661478043" lon="30.0298404694"><time>2026-04-25T16:03:20Z</time></trkpt><trkpt lat="59.0661692619" lon="30.0298619270"><time>2026-04-25T16:03:22Z</time></trkpt><trkpt lat="59.0662121773" lon="30.0299048424"><time>2026-04-25T16:03:25Z</time></trkpt><trkpt lat="59.0662336349" lon="30.0298833847"><time>2026-04-25T16:03:27Z</time></trkpt><trkpt lat="59.0662550926" lon="30.0299048424"><time>2026-04-25T16:03:30Z</time></trkpt><trkpt lat="59.0662765503" lon="30.0299048424"><time>2026-04-25T16:03:32Z</time></trkpt><trkpt lat="59.0662765503" lon="30.0298190117"><time>2026-04-25T16:03:35Z</time></trkpt><trkpt lat="59.0662980080" lon="30.0297760963"><time>2026-04-25T16:03:37Z</time></trkpt><trkpt lat="59.0662980080" lon="30.0296902657"><time>2026-04-25T16:03:40Z</time></trkpt><trkpt lat="59.0663409233" lon="30.0296258926"><time>2026-04-25T16:03:42Z</time></trkpt><trkpt lat="59.0663838387" lon="30.0297117233"><time>2026-04-25T16:03:45Z</time></trkpt><trkpt lat="59.0664052963" lon="30.0297760963"><time>2026-04-25T16:03:47Z</time></trkpt><trkpt lat="59.0664052963" lon="30.0297975540"><time>2026-04-25T16:03:50Z</time></trkpt><trkpt lat="59.0664267540" lon="30.0298404694"><time>2026-04-25T16:03:52Z</time></trkpt><trkpt lat="59.0664482117" lon="30.0298619270"><time>2026-04-25T16:03:55Z</time></trkpt><trkpt lat="59.0664696693" lon="30.0298619270"><time>2026-04-25T16:03:57Z</time></trkpt><trkpt lat="59.0664911270" lon="30.0298404694"><time>2026-04-25T16:04:00Z</time></trkpt><trkpt lat="59.0665125847" lon="30.0298190117"><time>2026-04-25T16:04:02Z</time></trkpt><trkpt lat="59.0664911270" lon="30.0297331810"><time>2026-04-25T16:04:05Z</time></trkpt><trkpt lat="59.0665340424" lon="30.0296688080"><time>2026-04-25T16:04:07Z</time></trkpt><trkpt lat="59.0665555000" lon="30.0296258926"><time>2026-04-25T16:04:10Z</time></trkpt><trkpt lat="59.0665769577" lon="30.0296044350"><time>2026-04-25T16:04:12Z</time></trkpt><trkpt lat="59.0665769577" lon="30.0296044350"><time>2026-04-25T16:04:15Z</time></trkpt><trkpt lat="59.0665555000" lon="30.0296688080"><time>2026-04-25T16:04:17Z</time></trkpt><trkpt lat="59.0665769577" lon="30.0297760963"><time>2026-04-25T16:04:20Z</time></trkpt><trkpt lat="59.0665984154" lon="30.0298190117"><time>2026-04-25T16:04:22Z</time></trkpt><trkpt lat="59.0666413307" lon="30.0298190117"><time>2026-04-25T16:04:25Z</time></trkpt><trkpt lat="59.0666627884" lon="30.0298619270"><time>2026-04-25T16:04:27Z</time></trkpt><trkpt lat="59.0666842461" lon="30.0298404694"><time>2026-04-25T16:04:30Z</time></trkpt><trkpt lat="59.0667271614" lon="30.0297975540"><time>2026-04-25T16:04:32Z</time></trkpt><trkpt lat="59.0667271614" lon="30.0297331810"><time>2026-04-25T16:04:35Z</time></trkpt><trkpt lat="59.0667271614" lon="30.0296902657"><time>2026-04-25T16:04:37Z</time></trkpt><trkpt lat="59.0667486191" lon="30.0297117233"><time>2026-04-25T16:04:40Z</time></trkpt><trkpt lat="59.0667700768" lon="30.0296902657"><time>2026-04-25T16:04:42Z</time></trkpt><trkpt lat="59.0668129921" lon="30.0297117233"><time>2026-04-25T16:04:45Z</time></trkpt><trkpt lat="59.0668129921" lon="30.0296902657"><time>2026-04-25T16:04:47Z</time></trkpt><trkpt lat="59.0668559074" lon="30.0296902657"><time>2026-04-25T16:04:50Z</time></trkpt><trkpt lat="59.0668773651" lon="30.0296688080"><time>2026-04-25T16:04:52Z</time></trkpt><trkpt lat="59.0668988228" lon="30.0296044350"><time>2026-04-25T16:04:55Z</time></trkpt><trkpt lat="59.0668988228" lon="30.0295829773"><time>2026-04-25T16:04:57Z</time></trkpt><trkpt lat="59.0669202805" lon="30.0296473503"><time>2026-04-25T16:05:00Z</time></trkpt><trkpt lat="59.0669417381" lon="30.0296473503"><time>2026-04-25T16:05:02Z</time></trkpt><trkpt lat="59.0669631958" lon="30.0296473503"><time>2026-04-25T16:05:05Z</time></trkpt><trkpt lat="59.0669846535" lon="30.0296473503"><time>2026-04-25T16:05:07Z</time></trkpt><trkpt lat="59.0670061111" lon="30.0296258926"><time>2026-04-25T16:05:10Z</time></trkpt><trkpt lat="59.0670490265" lon="30.0296258926"><time>2026-04-25T16:05:12Z</time></trkpt><trkpt lat="59.0670704842" lon="30.0296258926"><time>2026-04-25T16:05:15Z</time></trkpt><trkpt lat="59.0671133995" lon="30.0296688080"><time>2026-04-25T16:05:17Z</time></trkpt><trkpt lat="59.0671348572" lon="30.0296473503"><time>2026-04-25T16:05:20Z</time></trkpt><trkpt lat="59.0671563148" lon="30.0296473503"><time>2026-04-25T16:05:22Z</time></trkpt><trkpt lat="59.0671777725" lon="30.0296258926"><time>2026-04-25T16:05:25Z</time></trkpt><trkpt lat="59.0671777725" lon="30.0296258926"><time>2026-04-25T16:05:27Z</time></trkpt><trkpt lat="59.0671992302" lon="30.0295829773"><time>2026-04-25T16:05:30Z</time></trkpt><trkpt lat="59.0672206879" lon="30.0295829773"><time>2026-04-25T16:05:32Z</time></trkpt><trkpt lat="59.0672421455" lon="30.0295829773"><time>2026-04-25T16:05:35Z</time></trkpt><trkpt lat="59.0672636032" lon="30.0295829773"><time>2026-04-25T16:05:37Z</time></trkpt><trkpt lat="59.0672850609" lon="30.0295615196"><time>2026-04-25T16:05:40Z</time></trkpt><trkpt lat="59.0673065186" lon="30.0295615196"><time>2026-04-25T16:05:42Z</time></trkpt><trkpt lat="59.0673494339" lon="30.0295400620"><time>2026-04-25T16:05:45Z</time></trkpt><trkpt lat="59.0673708916" lon="30.0295615196"><time>2026-04-25T16:05:47Z</time></trkpt><trkpt lat="59.0673923492" lon="30.0295615196"><time>2026-04-25T16:05:50Z</time></trkpt><trkpt lat="59.0674138069" lon="30.0295615196"><time>2026-04-25T16:05:52Z</time></trkpt><trkpt lat="59.0674352646" lon="30.0295186043"><time>2026-04-25T16:05:55Z</time></trkpt><trkpt lat="59.0674567223" lon="30.0294971466"><time>2026-04-25T16:05:57Z</time></trkpt><trkpt lat="59.0674781799" lon="30.0294756889"><time>2026-04-25T16:06:00Z</time></trkpt><trkpt lat="59.0674996376" lon="30.0294542313"><time>2026-04-25T16:06:02Z</time></trkpt><trkpt lat="59.0675425529" lon="30.0294542313"><time>2026-04-25T16:06:05Z</time></trkpt><trkpt lat="59.0675640106" lon="30.0294542313"><time>2026-04-25T16:06:07Z</time></trkpt><trkpt lat="59.0676069260" lon="30.0294327736"><time>2026-04-25T16:06:10Z</time></trkpt><trkpt lat="59.0676069260" lon="30.0294327736"><time>2026-04-25T16:06:12Z</time></trkpt><trkpt lat="59.0676283836" lon="30.0293898582"><time>2026-04-25T16:06:15Z</time></trkpt><trkpt lat="59.0676498413" lon="30.0293898582"><time>2026-04-25T16:06:17Z</time></trkpt><trkpt lat="59.0676712990" lon="30.0293684006"><time>2026-04-25T16:06:20Z</time></trkpt><trkpt lat="59.0676712990" lon="30.0293684006"><time>2026-04-25T16:06:22Z</time></trkpt><trkpt lat="59.0676927567" lon="30.0293684006"><time>2026-04-25T16:06:25Z</time></trkpt><trkpt lat="59.0677356720" lon="30.0293898582"><time>2026-04-25T16:06:27Z</time></trkpt><trkpt lat="59.0677785873" lon="30.0293684006"><time>2026-04-25T16:06:30Z</time></trkpt><trkpt lat="59.0678000450" lon="30.0293684006"><time>2026-04-25T16:06:32Z</time></trkpt><trkpt lat="59.0678429604" lon="30.0293684006"><time>2026-04-25T16:06:35Z</time></trkpt><trkpt lat="59.0678644180" lon="30.0293898582"><time>2026-04-25T16:06:37Z</time></trkpt><trkpt lat="59.0678858757" lon="30.0293684006"><time>2026-04-25T16:06:40Z</time></trkpt><trkpt lat="59.0679073334" lon="30.0293684006"><time>2026-04-25T16:06:42Z</time></trkpt><trkpt lat="59.0679287910" lon="30.0293684006"><time>2026-04-25T16:06:45Z</time></trkpt><trkpt lat="59.0679502487" lon="30.0293684006"><time>2026-04-25T16:06:47Z</time></trkpt><trkpt lat="59.0679502487" lon="30.0293684006"><time>2026-04-25T16:06:50Z</time></trkpt><trkpt lat="59.0679502487" lon="30.0293684006"><time>2026-04-25T16:06:52Z</time></trkpt><trkpt lat="59.0680146217" lon="30.0293469429"><time>2026-04-25T16:06:55Z</time></trkpt><trkpt lat="59.0680575371" lon="30.0293254852"><time>2026-04-25T16:06:57Z</time></trkpt><trkpt lat="59.0681219101" lon="30.0293040276"><time>2026-04-25T16:07:00Z</time></trkpt><trkpt lat="59.0681433678" lon="30.0292825699"><time>2026-04-25T16:07:02Z</time></trkpt><trkpt lat="59.0681648254" lon="30.0292611122"><time>2026-04-25T16:07:05Z</time></trkpt><trkpt lat="59.0681862831" lon="30.0292611122"><time>2026-04-25T16:07:07Z</time></trkpt><trkpt lat="59.0682291985" lon="30.0292396545"><time>2026-04-25T16:07:10Z</time></trkpt><trkpt lat="59.0682506561" lon="30.0292396545"><time>2026-04-25T16:07:12Z</time></trkpt><trkpt lat="59.0682721138" lon="30.0291967392"><time>2026-04-25T16:07:15Z</time></trkpt><trkpt lat="59.0682935715" lon="30.0291967392"><time>2026-04-25T16:07:17Z</time></trkpt><trkpt lat="59.0683364868" lon="30.0291752815"><time>2026-04-25T16:07:20Z</time></trkpt><trkpt lat="59.0683364868" lon="30.0291752815"><time>2026-04-25T16:07:22Z</time></trkpt><trkpt lat="59.0683579445" lon="30.0291752815"><time>2026-04-25T16:07:25Z</time></trkpt><trkpt lat="59.0683794022" lon="30.0291752815"><time>2026-04-25T16:07:27Z</time></trkpt><trkpt lat="59.0684437752" lon="30.0291538239"><time>2026-04-25T16:07:30Z</time></trkpt><trkpt lat="59.0684652328" lon="30.0291538239"><time>2026-04-25T16:07:32Z</time></trkpt><trkpt lat="59.0684866905" lon="30.0291109085"><time>2026-04-25T16:07:35Z</time></trkpt><trkpt lat="59.0685081482" lon="30.0290894508"><time>2026-04-25T16:07:37Z</time></trkpt><trkpt lat="59.0685296059" lon="30.0290679932"><time>2026-04-25T16:07:40Z</time></trkpt><trkpt lat="59.0685725212" lon="30.0290679932"><time>2026-04-25T16:07:42Z</time></trkpt><trkpt lat="59.0685939789" lon="30.0290679932"><time>2026-04-25T16:07:45Z</time></trkpt><trkpt lat="59.0686154366" lon="30.0290465355"><time>2026-04-25T16:07:47Z</time></trkpt><trkpt lat="59.0686583519" lon="30.0290250778"><time>2026-04-25T16:07:50Z</time></trkpt><trkpt lat="59.0686798096" lon="30.0290250778"><time>2026-04-25T16:07:52Z</time></trkpt><trkpt lat="59.0687227249" lon="30.0290250778"><time>2026-04-25T16:07:55Z</time></trkpt><trkpt lat="59.0687441826" lon="30.0290036201"><time>2026-04-25T16:07:57Z</time></trkpt><trkpt lat="59.0687870979" lon="30.0289821625"><time>2026-04-25T16:08:00Z</time></trkpt><trkpt lat="59.0688085556" lon="30.0289821625"><time>2026-04-25T16:08:02Z</time></trkpt><trkpt lat="59.0688514709" lon="30.0289392471"><time>2026-04-25T16:08:05Z</time></trkpt><trkpt lat="59.0689158440" lon="30.0289177895"><time>2026-04-25T16:08:10Z</time></trkpt><trkpt lat="59.0689373016" lon="30.0289392471"><time>2026-04-25T16:08:12Z</time></trkpt><trkpt lat="59.0689587593" lon="30.0289392471"><time>2026-04-25T16:08:15Z</time></trkpt><trkpt lat="59.0689802170" lon="30.0289177895"><time>2026-04-25T16:08:17Z</time></trkpt><trkpt lat="59.0689802170" lon="30.0289177895"><time>2026-04-25T16:08:20Z</time></trkpt><trkpt lat="59.0690016747" lon="30.0289177895"><time>2026-04-25T16:08:22Z</time></trkpt><trkpt lat="59.0690445900" lon="30.0288963318"><time>2026-04-25T16:08:25Z</time></trkpt><trkpt lat="59.0690660477" lon="30.0288963318"><time>2026-04-25T16:08:27Z</time></trkpt><trkpt lat="59.0691089630" lon="30.0288963318"><time>2026-04-25T16:08:30Z</time></trkpt><trkpt lat="59.0691518784" lon="30.0289177895"><time>2026-04-25T16:08:32Z</time></trkpt><trkpt lat="59.0691947937" lon="30.0289177895"><time>2026-04-25T16:08:35Z</time></trkpt><trkpt lat="59.0691947937" lon="30.0288963318"><time>2026-04-25T16:08:37Z</time></trkpt><trkpt lat="59.0691947937" lon="30.0288963318"><time>2026-04-25T16:08:40Z</time></trkpt><trkpt lat="59.0691947937" lon="30.0288963318"><time>2026-04-25T16:08:42Z</time></trkpt><trkpt lat="59.0691947937" lon="30.0288963318"><time>2026-04-25T16:08:45Z</time></trkpt><trkpt lat="59.0691947937" lon="30.0288963318"><time>2026-04-25T16:08:47Z</time></trkpt><trkpt lat="59.0692377090" lon="30.0288963318"><time>2026-04-25T16:08:50Z</time></trkpt><trkpt lat="59.0693235397" lon="30.0288748741"><time>2026-04-25T16:08:52Z</time></trkpt><trkpt lat="59.0693879128" lon="30.0288105011"><time>2026-04-25T16:08:55Z</time></trkpt><trkpt lat="59.0694308281" lon="30.0287890434"><time>2026-04-25T16:08:57Z</time></trkpt><trkpt lat="59.0694737434" lon="30.0287890434"><time>2026-04-25T16:09:00Z</time></trkpt><trkpt lat="59.0694737434" lon="30.0287890434"><time>2026-04-25T16:09:02Z</time></trkpt><trkpt lat="59.0695166588" lon="30.0287890434"><time>2026-04-25T16:09:05Z</time></trkpt><trkpt lat="59.0695381165" lon="30.0287890434"><time>2026-04-25T16:09:07Z</time></trkpt><trkpt lat="59.0695595741" lon="30.0287675858"><time>2026-04-25T16:09:10Z</time></trkpt><trkpt lat="59.0696024895" lon="30.0287675858"><time>2026-04-25T16:09:12Z</time></trkpt><trkpt lat="59.0696454048" lon="30.0287461281"><time>2026-04-25T16:09:15Z</time></trkpt><trkpt lat="59.0696454048" lon="30.0287461281"><time>2026-04-25T16:09:17Z</time></trkpt><trkpt lat="59.0696883202" lon="30.0287032127"><time>2026-04-25T16:09:20Z</time></trkpt><trkpt lat="59.0697097778" lon="30.0286817551"><time>2026-04-25T16:09:22Z</time></trkpt><trkpt lat="59.0697312355" lon="30.0286602974"><time>2026-04-25T16:09:25Z</time></trkpt><trkpt lat="59.0697741508" lon="30.0286388397"><time>2026-04-25T16:09:27Z</time></trkpt><trkpt lat="59.0697741508" lon="30.0286388397"><time>2026-04-25T16:09:30Z</time></trkpt><trkpt lat="59.0697956085" lon="30.0286602974"><time>2026-04-25T16:09:32Z</time></trkpt><trkpt lat="59.0697956085" lon="30.0286388397"><time>2026-04-25T16:09:35Z</time></trkpt><trkpt lat="59.0697956085" lon="30.0286388397"><time>2026-04-25T16:09:37Z</time></trkpt><trkpt lat="59.0698170662" lon="30.0286602974"><time>2026-04-25T16:09:40Z</time></trkpt><trkpt lat="59.0698385239" lon="30.0286602974"><time>2026-04-25T16:09:42Z</time></trkpt><trkpt lat="59.0698599815" lon="30.0286602974"><time>2026-04-25T16:09:45Z</time></trkpt><trkpt lat="59.0698814392" lon="30.0286602974"><time>2026-04-25T16:09:47Z</time></trkpt><trkpt lat="59.0699243546" lon="30.0286388397"><time>2026-04-25T16:09:50Z</time></trkpt><trkpt lat="59.0699458122" lon="30.0286388397"><time>2026-04-25T16:09:52Z</time></trkpt><trkpt lat="59.0699887276" lon="30.0286173820"><time>2026-04-25T16:09:55Z</time></trkpt><trkpt lat="59.0700101852" lon="30.0286173820"><time>2026-04-25T16:09:57Z</time></trkpt><trkpt lat="59.0700531006" lon="30.0285959244"><time>2026-04-25T16:10:00Z</time></trkpt><trkpt lat="59.0700531006" lon="30.0285959244"><time>2026-04-25T16:10:02Z</time></trkpt><trkpt lat="59.0701174736" lon="30.0285530090"><time>2026-04-25T16:10:05Z</time></trkpt><trkpt lat="59.0701389313" lon="30.0285315514"><time>2026-04-25T16:10:07Z</time></trkpt><trkpt lat="59.0701818466" lon="30.0285315514"><time>2026-04-25T16:10:10Z</time></trkpt><trkpt lat="59.0702033043" lon="30.0285100937"><time>2026-04-25T16:10:12Z</time></trkpt><trkpt lat="59.0702247620" lon="30.0285100937"><time>2026-04-25T16:10:15Z</time></trkpt><trkpt lat="59.0702462196" lon="30.0284886360"><time>2026-04-25T16:10:17Z</time></trkpt><trkpt lat="59.0702891350" lon="30.0284886360"><time>2026-04-25T16:10:20Z</time></trkpt><trkpt lat="59.0703105927" lon="30.0284886360"><time>2026-04-25T16:10:22Z</time></trkpt><trkpt lat="59.0703535080" lon="30.0284886360"><time>2026-04-25T16:10:25Z</time></trkpt><trkpt lat="59.0703749657" lon="30.0284671783"><time>2026-04-25T16:10:27Z</time></trkpt><trkpt lat="59.0704178810" lon="30.0284671783"><time>2026-04-25T16:10:30Z</time></trkpt><trkpt lat="59.0704393387" lon="30.0284457207"><time>2026-04-25T16:10:32Z</time></trkpt><trkpt lat="59.0704822540" lon="30.0284457207"><time>2026-04-25T16:10:35Z</time></trkpt><trkpt lat="59.0704822540" lon="30.0284671783"><time>2026-04-25T16:10:37Z</time></trkpt><trkpt lat="59.0705251694" lon="30.0284671783"><time>2026-04-25T16:10:40Z</time></trkpt><trkpt lat="59.0705680847" lon="30.0284671783"><time>2026-04-25T16:10:42Z</time></trkpt><trkpt lat="59.0705895424" lon="30.0284457207"><time>2026-04-25T16:10:45Z</time></trkpt><trkpt lat="59.0705895424" lon="30.0284457207"><time>2026-04-25T16:10:47Z</time></trkpt><trkpt lat="59.0706324577" lon="30.0284242630"><time>2026-04-25T16:10:50Z</time></trkpt><trkpt lat="59.0706539154" lon="30.0284028053"><time>2026-04-25T16:10:52Z</time></trkpt><trkpt lat="59.0706753731" lon="30.0283813477"><time>2026-04-25T16:10:55Z</time></trkpt><trkpt lat="59.0707182884" lon="30.0283813477"><time>2026-04-25T16:10:57Z</time></trkpt><trkpt lat="59.0707397461" lon="30.0283813477"><time>2026-04-25T16:11:00Z</time></trkpt><trkpt lat="59.0707612038" lon="30.0283598900"><time>2026-04-25T16:11:02Z</time></trkpt><trkpt lat="59.0708041191" lon="30.0283598900"><time>2026-04-25T16:11:05Z</time></trkpt><trkpt lat="59.0708255768" lon="30.0283384323"><time>2026-04-25T16:11:07Z</time></trkpt><trkpt lat="59.0708684921" lon="30.0283384323"><time>2026-04-25T16:11:10Z</time></trkpt><trkpt lat="59.0708899498" lon="30.0283169746"><time>2026-04-25T16:11:12Z</time></trkpt><trkpt lat="59.0709328651" lon="30.0282526016"><time>2026-04-25T16:11:15Z</time></trkpt><trkpt lat="59.0709543228" lon="30.0282526016"><time>2026-04-25T16:11:17Z</time></trkpt><trkpt lat="59.0710186958" lon="30.0282526016"><time>2026-04-25T16:11:20Z</time></trkpt><trkpt lat="59.0710401535" lon="30.0282526016"><time>2026-04-25T16:11:22Z</time></trkpt><trkpt lat="59.0710616112" lon="30.0282311440"><time>2026-04-25T16:11:25Z</time></trkpt><trkpt lat="59.0711045265" lon="30.0282096863"><time>2026-04-25T16:11:27Z</time></trkpt><trkpt lat="59.0711259842" lon="30.0281882286"><time>2026-04-25T16:11:30Z</time></trkpt><trkpt lat="59.0711474419" lon="30.0281882286"><time>2026-04-25T16:11:32Z</time></trkpt><trkpt lat="59.0711903572" lon="30.0281667709"><time>2026-04-25T16:11:35Z</time></trkpt><trkpt lat="59.0712118149" lon="30.0281667709"><time>2026-04-25T16:11:37Z</time></trkpt><trkpt lat="59.0712547302" lon="30.0281667709"><time>2026-04-25T16:11:40Z</time></trkpt><trkpt lat="59.0712761879" lon="30.0281667709"><time>2026-04-25T16:11:42Z</time></trkpt><trkpt lat="59.0712976456" lon="30.0281238556"><time>2026-04-25T16:11:45Z</time></trkpt><trkpt lat="59.0713191032" lon="30.0281453133"><time>2026-04-25T16:11:47Z</time></trkpt><trkpt lat="59.0713620186" lon="30.0281453133"><time>2026-04-25T16:11:50Z</time></trkpt><trkpt lat="59.0713834763" lon="30.0281238556"><time>2026-04-25T16:11:52Z</time></trkpt><trkpt lat="59.0714049339" lon="30.0281667709"><time>2026-04-25T16:11:55Z</time></trkpt><trkpt lat="59.0714263916" lon="30.0281453133"><time>2026-04-25T16:11:57Z</time></trkpt><trkpt lat="59.0714478493" lon="30.0281667709"><time>2026-04-25T16:12:00Z</time></trkpt><trkpt lat="59.0714907646" lon="30.0281667709"><time>2026-04-25T16:12:02Z</time></trkpt><trkpt lat="59.0715336800" lon="30.0281453133"><time>2026-04-25T16:12:05Z</time></trkpt><trkpt lat="59.0715551376" lon="30.0281453133"><time>2026-04-25T16:12:07Z</time></trkpt><trkpt lat="59.0715765953" lon="30.0281453133"><time>2026-04-25T16:12:10Z</time></trkpt><trkpt lat="59.0715980530" lon="30.0281238556"><time>2026-04-25T16:12:12Z</time></trkpt><trkpt lat="59.0716409683" lon="30.0281023979"><time>2026-04-25T16:12:15Z</time></trkpt><trkpt lat="59.0716409683" lon="30.0281238556"><time>2026-04-25T16:12:17Z</time></trkpt><trkpt lat="59.0716838837" lon="30.0280809402"><time>2026-04-25T16:12:20Z</time></trkpt><trkpt lat="59.0717053413" lon="30.0280809402"><time>2026-04-25T16:12:22Z</time></trkpt><trkpt lat="59.0717267990" lon="30.0280594826"><time>2026-04-25T16:12:25Z</time></trkpt><trkpt lat="59.0717482567" lon="30.0280594826"><time>2026-04-25T16:12:27Z</time></trkpt><trkpt lat="59.0717482567" lon="30.0280594826"><time>2026-04-25T16:12:30Z</time></trkpt><trkpt lat="59.0717911720" lon="30.0280594826"><time>2026-04-25T16:12:32Z</time></trkpt><trkpt lat="59.0718126297" lon="30.0280594826"><time>2026-04-25T16:12:35Z</time></trkpt><trkpt lat="59.0718340874" lon="30.0280380249"><time>2026-04-25T16:12:37Z</time></trkpt><trkpt lat="59.0718770027" lon="30.0280380249"><time>2026-04-25T16:12:40Z</time></trkpt><trkpt lat="59.0718984604" lon="30.0280165672"><time>2026-04-25T16:12:42Z</time></trkpt><trkpt lat="59.0719199181" lon="30.0279951096"><time>2026-04-25T16:12:45Z</time></trkpt><trkpt lat="59.0719413757" lon="30.0279951096"><time>2026-04-25T16:12:47Z</time></trkpt><trkpt lat="59.0720057487" lon="30.0279736519"><time>2026-04-25T16:12:50Z</time></trkpt><trkpt lat="59.0720272064" lon="30.0279736519"><time>2026-04-25T16:12:52Z</time></trkpt><trkpt lat="59.0720486641" lon="30.0279951096"><time>2026-04-25T16:12:55Z</time></trkpt><trkpt lat="59.0720486641" lon="30.0279951096"><time>2026-04-25T16:12:57Z</time></trkpt><trkpt lat="59.0720486641" lon="30.0279951096"><time>2026-04-25T16:13:00Z</time></trkpt><trkpt lat="59.0720701218" lon="30.0279736519"><time>2026-04-25T16:13:02Z</time></trkpt><trkpt lat="59.0721130371" lon="30.0279521942"><time>2026-04-25T16:13:05Z</time></trkpt><trkpt lat="59.0721130371" lon="30.0279521942"><time>2026-04-25T16:13:07Z</time></trkpt><trkpt lat="59.0721130371" lon="30.0279521942"><time>2026-04-25T16:13:10Z</time></trkpt><trkpt lat="59.0721344948" lon="30.0279736519"><time>2026-04-25T16:13:12Z</time></trkpt><trkpt lat="59.0721774101" lon="30.0279736519"><time>2026-04-25T16:13:15Z</time></trkpt><trkpt lat="59.0721988678" lon="30.0279736519"><time>2026-04-25T16:13:17Z</time></trkpt><trkpt lat="59.0722203255" lon="30.0279521942"><time>2026-04-25T16:13:20Z</time></trkpt><trkpt lat="59.0722417831" lon="30.0279092789"><time>2026-04-25T16:13:22Z</time></trkpt><trkpt lat="59.0722417831" lon="30.0279092789"><time>2026-04-25T16:13:25Z</time></trkpt><trkpt lat="59.0722846985" lon="30.0279092789"><time>2026-04-25T16:13:27Z</time></trkpt><trkpt lat="59.0723061562" lon="30.0278878212"><time>2026-04-25T16:13:30Z</time></trkpt><trkpt lat="59.0723276138" lon="30.0278663635"><time>2026-04-25T16:13:32Z</time></trkpt><trkpt lat="59.0723705292" lon="30.0278663635"><time>2026-04-25T16:13:35Z</time></trkpt><trkpt lat="59.0723919868" lon="30.0278449059"><time>2026-04-25T16:13:37Z</time></trkpt><trkpt lat="59.0724134445" lon="30.0278449059"><time>2026-04-25T16:13:40Z</time></trkpt><trkpt lat="59.0724134445" lon="30.0278449059"><time>2026-04-25T16:13:42Z</time></trkpt><trkpt lat="59.0724134445" lon="30.0278449059"><time>2026-04-25T16:13:45Z</time></trkpt><trkpt lat="59.0724349022" lon="30.0278234482"><time>2026-04-25T16:13:47Z</time></trkpt><trkpt lat="59.0724778175" lon="30.0278019905"><time>2026-04-25T16:13:50Z</time></trkpt><trkpt lat="59.0725207329" lon="30.0277805328"><time>2026-04-25T16:13:52Z</time></trkpt><trkpt lat="59.0725851059" lon="30.0277805328"><time>2026-04-25T16:13:55Z</time></trkpt><trkpt lat="59.0726065636" lon="30.0277805328"><time>2026-04-25T16:13:57Z</time></trkpt><trkpt lat="59.0726494789" lon="30.0278019905"><time>2026-04-25T16:14:00Z</time></trkpt><trkpt lat="59.0726709366" lon="30.0278234482"><time>2026-04-25T16:14:02Z</time></trkpt><trkpt lat="59.0727138519" lon="30.0278663635"><time>2026-04-25T16:14:05Z</time></trkpt><trkpt lat="59.0727138519" lon="30.0278663635"><time>2026-04-25T16:14:07Z</time></trkpt><trkpt lat="59.0727138519" lon="30.0278234482"><time>2026-04-25T16:14:10Z</time></trkpt><trkpt lat="59.0727567673" lon="30.0277590752"><time>2026-04-25T16:14:12Z</time></trkpt><trkpt lat="59.0728425980" lon="30.0277161598"><time>2026-04-25T16:14:15Z</time></trkpt><trkpt lat="59.0728640556" lon="30.0276947021"><time>2026-04-25T16:14:17Z</time></trkpt><trkpt lat="59.0729069710" lon="30.0276517868"><time>2026-04-25T16:14:20Z</time></trkpt><trkpt lat="59.0729498863" lon="30.0276088715"><time>2026-04-25T16:14:22Z</time></trkpt><trkpt lat="59.0729713440" lon="30.0276088715"><time>2026-04-25T16:14:25Z</time></trkpt><trkpt lat="59.0729928017" lon="30.0276303291"><time>2026-04-25T16:14:27Z</time></trkpt><trkpt lat="59.0729713440" lon="30.0276303291"><time>2026-04-25T16:14:30Z</time></trkpt><trkpt lat="59.0729713440" lon="30.0276303291"><time>2026-04-25T16:14:32Z</time></trkpt><trkpt lat="59.0730142593" lon="30.0275659561"><time>2026-04-25T16:14:35Z</time></trkpt><trkpt lat="59.0730357170" lon="30.0275015831"><time>2026-04-25T16:14:37Z</time></trkpt><trkpt lat="59.0730357170" lon="30.0274157524"><time>2026-04-25T16:14:40Z</time></trkpt><trkpt lat="59.0730357170" lon="30.0273942947"><time>2026-04-25T16:14:42Z</time></trkpt><trkpt lat="59.0730786324" lon="30.0275015831"><time>2026-04-25T16:14:45Z</time></trkpt><trkpt lat="59.0730786324" lon="30.0275659561"><time>2026-04-25T16:14:47Z</time></trkpt><trkpt lat="59.0730571747" lon="30.0275659561"><time>2026-04-25T16:14:50Z</time></trkpt><trkpt lat="59.0730571747" lon="30.0275659561"><time>2026-04-25T16:14:52Z</time></trkpt><trkpt lat="59.0730571747" lon="30.0275659561"><time>2026-04-25T16:14:55Z</time></trkpt><trkpt lat="59.0730786324" lon="30.0275874138"><time>2026-04-25T16:14:57Z</time></trkpt><trkpt lat="59.0730571747" lon="30.0275015831"><time>2026-04-25T16:15:00Z</time></trkpt><trkpt lat="59.0730571747" lon="30.0273728371"><time>2026-04-25T16:15:02Z</time></trkpt><trkpt lat="59.0730357170" lon="30.0272440910"><time>2026-04-25T16:15:05Z</time></trkpt><trkpt lat="59.0730357170" lon="30.0271797180"><time>2026-04-25T16:15:07Z</time></trkpt><trkpt lat="59.0730357170" lon="30.0271797180"><time>2026-04-25T16:15:10Z</time></trkpt><trkpt lat="59.0730142593" lon="30.0271153450"><time>2026-04-25T16:15:12Z</time></trkpt><trkpt lat="59.0729928017" lon="30.0270080566"><time>2026-04-25T16:15:15Z</time></trkpt><trkpt lat="59.0729928017" lon="30.0269436836"><time>2026-04-25T16:15:17Z</time></trkpt><trkpt lat="59.0729713440" lon="30.0268363953"><time>2026-04-25T16:15:20Z</time></trkpt><trkpt lat="59.0729713440" lon="30.0267934799"><time>2026-04-25T16:15:22Z</time></trkpt><trkpt lat="59.0729713440" lon="30.0267076492"><time>2026-04-25T16:15:25Z</time></trkpt><trkpt lat="59.0729498863" lon="30.0266861916"><time>2026-04-25T16:15:27Z</time></trkpt><trkpt lat="59.0729498863" lon="30.0266218185"><time>2026-04-25T16:15:30Z</time></trkpt><trkpt lat="59.0729498863" lon="30.0265574455"><time>2026-04-25T16:15:32Z</time></trkpt><trkpt lat="59.0729498863" lon="30.0264716148"><time>2026-04-25T16:15:35Z</time></trkpt><trkpt lat="59.0729284286" lon="30.0264286995"><time>2026-04-25T16:15:37Z</time></trkpt><trkpt lat="59.0729069710" lon="30.0263857841"><time>2026-04-25T16:15:40Z</time></trkpt><trkpt lat="59.0729069710" lon="30.0263428688"><time>2026-04-25T16:15:42Z</time></trkpt><trkpt lat="59.0729069710" lon="30.0262570381"><time>2026-04-25T16:15:45Z</time></trkpt><trkpt lat="59.0729069710" lon="30.0262141228"><time>2026-04-25T16:15:47Z</time></trkpt><trkpt lat="59.0728855133" lon="30.0261282921"><time>2026-04-25T16:15:50Z</time></trkpt><trkpt lat="59.0728855133" lon="30.0260639191"><time>2026-04-25T16:15:52Z</time></trkpt><trkpt lat="59.0728855133" lon="30.0259995461"><time>2026-04-25T16:15:55Z</time></trkpt><trkpt lat="59.0728640556" lon="30.0259566307"><time>2026-04-25T16:15:57Z</time></trkpt><trkpt lat="59.0728425980" lon="30.0259351730"><time>2026-04-25T16:16:00Z</time></trkpt><trkpt lat="59.0728640556" lon="30.0259351730"><time>2026-04-25T16:16:02Z</time></trkpt><trkpt lat="59.0728640556" lon="30.0258922577"><time>2026-04-25T16:16:05Z</time></trkpt><trkpt lat="59.0728425980" lon="30.0258278847"><time>2026-04-25T16:16:07Z</time></trkpt><trkpt lat="59.0728425980" lon="30.0257635117"><time>2026-04-25T16:16:10Z</time></trkpt><trkpt lat="59.0728211403" lon="30.0256991386"><time>2026-04-25T16:16:12Z</time></trkpt><trkpt lat="59.0728211403" lon="30.0256347656"><time>2026-04-25T16:16:15Z</time></trkpt><trkpt lat="59.0728211403" lon="30.0255703926"><time>2026-04-25T16:16:17Z</time></trkpt><trkpt lat="59.0727996826" lon="30.0255060196"><time>2026-04-25T16:16:20Z</time></trkpt><trkpt lat="59.0727996826" lon="30.0254631042"><time>2026-04-25T16:16:22Z</time></trkpt><trkpt lat="59.0727996826" lon="30.0254201889"><time>2026-04-25T16:16:25Z</time></trkpt><trkpt lat="59.0727996826" lon="30.0253772736"><time>2026-04-25T16:16:27Z</time></trkpt><trkpt lat="59.0727996826" lon="30.0252914429"><time>2026-04-25T16:16:30Z</time></trkpt><trkpt lat="59.0727782249" lon="30.0252485275"><time>2026-04-25T16:16:32Z</time></trkpt><trkpt lat="59.0727567673" lon="30.0251841545"><time>2026-04-25T16:16:35Z</time></trkpt><trkpt lat="59.0727353096" lon="30.0251412392"><time>2026-04-25T16:16:37Z</time></trkpt><trkpt lat="59.0727138519" lon="30.0250768661"><time>2026-04-25T16:16:40Z</time></trkpt><trkpt lat="59.0727138519" lon="30.0250339508"><time>2026-04-25T16:16:42Z</time></trkpt><trkpt lat="59.0726923943" lon="30.0249695778"><time>2026-04-25T16:16:45Z</time></trkpt><trkpt lat="59.0726923943" lon="30.0249266624"><time>2026-04-25T16:16:47Z</time></trkpt><trkpt lat="59.0726923943" lon="30.0248408318"><time>2026-04-25T16:16:50Z</time></trkpt><trkpt lat="59.0726923943" lon="30.0247764587"><time>2026-04-25T16:16:52Z</time></trkpt><trkpt lat="59.0726709366" lon="30.0247120857"><time>2026-04-25T16:16:55Z</time></trkpt><trkpt lat="59.0726709366" lon="30.0246906281"><time>2026-04-25T16:16:57Z</time></trkpt><trkpt lat="59.0726709366" lon="30.0246262550"><time>2026-04-25T16:17:00Z</time></trkpt><trkpt lat="59.0726709366" lon="30.0245833397"><time>2026-04-25T16:17:02Z</time></trkpt><trkpt lat="59.0726709366" lon="30.0245404243"><time>2026-04-25T16:17:05Z</time></trkpt><trkpt lat="59.0726709366" lon="30.0244760513"><time>2026-04-25T16:17:07Z</time></trkpt><trkpt lat="59.0726709366" lon="30.0244116783"><time>2026-04-25T16:17:10Z</time></trkpt><trkpt lat="59.0726494789" lon="30.0243902206"><time>2026-04-25T16:17:12Z</time></trkpt><trkpt lat="59.0726494789" lon="30.0243043900"><time>2026-04-25T16:17:15Z</time></trkpt><trkpt lat="59.0726494789" lon="30.0242614746"><time>2026-04-25T16:17:17Z</time></trkpt><trkpt lat="59.0726494789" lon="30.0241971016"><time>2026-04-25T16:17:20Z</time></trkpt><trkpt lat="59.0726280212" lon="30.0241541862"><time>2026-04-25T16:17:22Z</time></trkpt><trkpt lat="59.0726280212" lon="30.0240898132"><time>2026-04-25T16:17:25Z</time></trkpt><trkpt lat="59.0726280212" lon="30.0240468979"><time>2026-04-25T16:17:27Z</time></trkpt><trkpt lat="59.0726065636" lon="30.0239610672"><time>2026-04-25T16:17:30Z</time></trkpt><trkpt lat="59.0726065636" lon="30.0239181519"><time>2026-04-25T16:17:32Z</time></trkpt><trkpt lat="59.0726065636" lon="30.0238537788"><time>2026-04-25T16:17:35Z</time></trkpt><trkpt lat="59.0726065636" lon="30.0238108635"><time>2026-04-25T16:17:37Z</time></trkpt><trkpt lat="59.0726065636" lon="30.0237894058"><time>2026-04-25T16:17:40Z</time></trkpt><trkpt lat="59.0726065636" lon="30.0237894058"><time>2026-04-25T16:17:42Z</time></trkpt><trkpt lat="59.0726065636" lon="30.0237894058"><time>2026-04-25T16:17:45Z</time></trkpt><trkpt lat="59.0726065636" lon="30.0237894058"><time>2026-04-25T16:17:47Z</time></trkpt><trkpt lat="59.0726065636" lon="30.0237894058"><time>2026-04-25T16:17:50Z</time></trkpt><trkpt lat="59.0726065636" lon="30.0237894058"><time>2026-04-25T16:17:52Z</time></trkpt><trkpt lat="59.0726065636" lon="30.0237894058"><time>2026-04-25T16:17:55Z</time></trkpt><trkpt lat="59.0726065636" lon="30.0237679482"><time>2026-04-25T16:17:57Z</time></trkpt><trkpt lat="59.0726065636" lon="30.0237679482"><time>2026-04-25T16:18:00Z</time></trkpt><trkpt lat="59.0726065636" lon="30.0237464905"><time>2026-04-25T16:18:02Z</time></trkpt><trkpt lat="59.0726065636" lon="30.0237250328"><time>2026-04-25T16:18:05Z</time></trkpt><trkpt lat="59.0726065636" lon="30.0237250328"><time>2026-04-25T16:18:07Z</time></trkpt><trkpt lat="59.0726280212" lon="30.0237250328"><time>2026-04-25T16:18:10Z</time></trkpt><trkpt lat="59.0726280212" lon="30.0237250328"><time>2026-04-25T16:18:12Z</time></trkpt><trkpt lat="59.0726280212" lon="30.0237250328"><time>2026-04-25T16:18:15Z</time></trkpt><trkpt lat="59.0726280212" lon="30.0237250328"><time>2026-04-25T16:18:17Z</time></trkpt><trkpt lat="59.0726280212" lon="30.0237250328"><time>2026-04-25T16:18:20Z</time></trkpt><trkpt lat="59.0726280212" lon="30.0237250328"><time>2026-04-25T16:18:22Z</time></trkpt><trkpt lat="59.0726280212" lon="30.0237250328"><time>2026-04-25T16:18:25Z</time></trkpt><trkpt lat="59.0726280212" lon="30.0237250328"><time>2026-04-25T16:18:27Z</time></trkpt><trkpt lat="59.0726280212" lon="30.0237250328"><time>2026-04-25T16:18:30Z</time></trkpt><trkpt lat="59.0726280212" lon="30.0237250328"><time>2026-04-25T16:18:32Z</time></trkpt><trkpt lat="59.0726280212" lon="30.0237250328"><time>2026-04-25T16:18:35Z</time></trkpt><trkpt lat="59.0726280212" lon="30.0237250328"><time>2026-04-25T16:18:37Z</time></trkpt><trkpt lat="59.0726280212" lon="30.0237250328"><time>2026-04-25T16:18:40Z</time></trkpt><trkpt lat="59.0726280212" lon="30.0237250328"><time>2026-04-25T16:18:42Z</time></trkpt><trkpt lat="59.0726280212" lon="30.0237250328"><time>2026-04-25T16:18:45Z</time></trkpt><trkpt lat="59.0726280212" lon="30.0237250328"><time>2026-04-25T16:18:47Z</time></trkpt><trkpt lat="59.0726280212" lon="30.0237250328"><time>2026-04-25T16:18:50Z</time></trkpt><trkpt lat="59.0726280212" lon="30.0237250328"><time>2026-04-25T16:18:52Z</time></trkpt><trkpt lat="59.0726280212" lon="30.0237250328"><time>2026-04-25T16:18:55Z</time></trkpt><trkpt lat="59.0726280212" lon="30.0237250328"><time>2026-04-25T16:18:57Z</time></trkpt><trkpt lat="59.0726280212" lon="30.0237250328"><time>2026-04-25T16:19:00Z</time></trkpt><trkpt lat="59.0726280212" lon="30.0237250328"><time>2026-04-25T16:19:02Z</time></trkpt><trkpt lat="59.0726280212" lon="30.0237250328"><time>2026-04-25T16:19:05Z</time></trkpt><trkpt lat="59.0726280212" lon="30.0237250328"><time>2026-04-25T16:19:07Z</time></trkpt><trkpt lat="59.0726280212" lon="30.0237035751"><time>2026-04-25T16:19:10Z</time></trkpt><trkpt lat="59.0726280212" lon="30.0236606598"><time>2026-04-25T16:19:12Z</time></trkpt><trkpt lat="59.0726709366" lon="30.0236606598"><time>2026-04-25T16:19:15Z</time></trkpt><trkpt lat="59.0726709366" lon="30.0236606598"><time>2026-04-25T16:19:17Z</time></trkpt><trkpt lat="59.0726923943" lon="30.0236392021"><time>2026-04-25T16:19:20Z</time></trkpt><trkpt lat="59.0727138519" lon="30.0236177444"><time>2026-04-25T16:19:22Z</time></trkpt><trkpt lat="59.0727138519" lon="30.0235962868"><time>2026-04-25T16:19:25Z</time></trkpt><trkpt lat="59.0727138519" lon="30.0235962868"><time>2026-04-25T16:19:27Z</time></trkpt><trkpt lat="59.0727353096" lon="30.0235962868"><time>2026-04-25T16:19:30Z</time></trkpt><trkpt lat="59.0727567673" lon="30.0235962868"><time>2026-04-25T16:19:32Z</time></trkpt><trkpt lat="59.0727782249" lon="30.0235748291"><time>2026-04-25T16:19:35Z</time></trkpt><trkpt lat="59.0727996826" lon="30.0235748291"><time>2026-04-25T16:19:37Z</time></trkpt><trkpt lat="59.0728211403" lon="30.0235962868"><time>2026-04-25T16:19:40Z</time></trkpt><trkpt lat="59.0728425980" lon="30.0235962868"><time>2026-04-25T16:19:42Z</time></trkpt><trkpt lat="59.0728425980" lon="30.0235962868"><time>2026-04-25T16:19:45Z</time></trkpt><trkpt lat="59.0728425980" lon="30.0235962868"><time>2026-04-25T16:19:47Z</time></trkpt><trkpt lat="59.0728211403" lon="30.0235748291"><time>2026-04-25T16:19:50Z</time></trkpt><trkpt lat="59.0728211403" lon="30.0235748291"><time>2026-04-25T16:19:52Z</time></trkpt><trkpt lat="59.0728211403" lon="30.0235748291"><time>2026-04-25T16:19:55Z</time></trkpt><trkpt lat="59.0728211403" lon="30.0235748291"><time>2026-04-25T16:19:57Z</time></trkpt><trkpt lat="59.0728211403" lon="30.0235748291"><time>2026-04-25T16:20:00Z</time></trkpt><trkpt lat="59.0728211403" lon="30.0235748291"><time>2026-04-25T16:20:02Z</time></trkpt><trkpt lat="59.0728211403" lon="30.0235748291"><time>2026-04-25T16:20:05Z</time></trkpt><trkpt lat="59.0728211403" lon="30.0235533714"><time>2026-04-25T16:20:07Z</time></trkpt><trkpt lat="59.0728425980" lon="30.0235533714"><time>2026-04-25T16:20:10Z</time></trkpt><trkpt lat="59.0728640556" lon="30.0235533714"><time>2026-04-25T16:20:12Z</time></trkpt><trkpt lat="59.0728855133" lon="30.0235319138"><time>2026-04-25T16:20:15Z</time></trkpt><trkpt lat="59.0728855133" lon="30.0235319138"><time>2026-04-25T16:20:17Z</time></trkpt><trkpt lat="59.0728855133" lon="30.0235319138"><time>2026-04-25T16:20:20Z</time></trkpt><trkpt lat="59.0728855133" lon="30.0235319138"><time>2026-04-25T16:20:22Z</time></trkpt><trkpt lat="59.0728855133" lon="30.0235319138"><time>2026-04-25T16:20:25Z</time></trkpt><trkpt lat="59.0728855133" lon="30.0235319138"><time>2026-04-25T16:20:27Z</time></trkpt><trkpt lat="59.0728855133" lon="30.0235319138"><time>2026-04-25T16:20:30Z</time></trkpt><trkpt lat="59.0728855133" lon="30.0235319138"><time>2026-04-25T16:20:32Z</time></trkpt><trkpt lat="59.0728855133" lon="30.0235319138"><time>2026-04-25T16:20:35Z</time></trkpt><trkpt lat="59.0728855133" lon="30.0235319138"><time>2026-04-25T16:20:37Z</time></trkpt><trkpt lat="59.0728855133" lon="30.0235319138"><time>2026-04-25T16:20:40Z</time></trkpt><trkpt lat="59.0729069710" lon="30.0235104561"><time>2026-04-25T16:20:42Z</time></trkpt><trkpt lat="59.0729498863" lon="30.0235104561"><time>2026-04-25T16:20:45Z</time></trkpt><trkpt lat="59.0729713440" lon="30.0235104561"><time>2026-04-25T16:20:47Z</time></trkpt><trkpt lat="59.0729928017" lon="30.0234889984"><time>2026-04-25T16:20:50Z</time></trkpt><trkpt lat="59.0729928017" lon="30.0234889984"><time>2026-04-25T16:20:52Z</time></trkpt><trkpt lat="59.0730142593" lon="30.0234460831"><time>2026-04-25T16:20:55Z</time></trkpt><trkpt lat="59.0730357170" lon="30.0234460831"><time>2026-04-25T16:20:57Z</time></trkpt><trkpt lat="59.0730571747" lon="30.0234460831"><time>2026-04-25T16:21:00Z</time></trkpt><trkpt lat="59.0730786324" lon="30.0234460831"><time>2026-04-25T16:21:02Z</time></trkpt><trkpt lat="59.0731000900" lon="30.0234460831"><time>2026-04-25T16:21:05Z</time></trkpt><trkpt lat="59.0731215477" lon="30.0234460831"><time>2026-04-25T16:21:07Z</time></trkpt><trkpt lat="59.0731430054" lon="30.0234246254"><time>2026-04-25T16:21:10Z</time></trkpt><trkpt lat="59.0731644630" lon="30.0234246254"><time>2026-04-25T16:21:12Z</time></trkpt><trkpt lat="59.0731859207" lon="30.0234031677"><time>2026-04-25T16:21:15Z</time></trkpt><trkpt lat="59.0731859207" lon="30.0233602524"><time>2026-04-25T16:21:17Z</time></trkpt><trkpt lat="59.0732073784" lon="30.0233817101"><time>2026-04-25T16:21:20Z</time></trkpt><trkpt lat="59.0732288361" lon="30.0233817101"><time>2026-04-25T16:21:22Z</time></trkpt><trkpt lat="59.0732717514" lon="30.0233602524"><time>2026-04-25T16:21:25Z</time></trkpt><trkpt lat="59.0732717514" lon="30.0233602524"><time>2026-04-25T16:21:27Z</time></trkpt><trkpt lat="59.0732717514" lon="30.0233602524"><time>2026-04-25T16:21:30Z</time></trkpt><trkpt lat="59.0732717514" lon="30.0233602524"><time>2026-04-25T16:21:32Z</time></trkpt><trkpt lat="59.0733146667" lon="30.0233173370"><time>2026-04-25T16:21:35Z</time></trkpt><trkpt lat="59.0733361244" lon="30.0233173370"><time>2026-04-25T16:21:37Z</time></trkpt><trkpt lat="59.0733790398" lon="30.0232958794"><time>2026-04-25T16:21:40Z</time></trkpt><trkpt lat="59.0734004974" lon="30.0232958794"><time>2026-04-25T16:21:42Z</time></trkpt><trkpt lat="59.0734004974" lon="30.0232958794"><time>2026-04-25T16:21:45Z</time></trkpt><trkpt lat="59.0734004974" lon="30.0232958794"><time>2026-04-25T16:21:47Z</time></trkpt><trkpt lat="59.0734004974" lon="30.0232958794"><time>2026-04-25T16:21:50Z</time></trkpt><trkpt lat="59.0734004974" lon="30.0232958794"><time>2026-04-25T16:21:52Z</time></trkpt><trkpt lat="59.0734004974" lon="30.0232958794"><time>2026-04-25T16:21:55Z</time></trkpt><trkpt lat="59.0734004974" lon="30.0232958794"><time>2026-04-25T16:21:57Z</time></trkpt><trkpt lat="59.0734004974" lon="30.0232958794"><time>2026-04-25T16:22:00Z</time></trkpt><trkpt lat="59.0734219551" lon="30.0232744217"><time>2026-04-25T16:22:02Z</time></trkpt><trkpt lat="59.0734219551" lon="30.0232529640"><time>2026-04-25T16:22:05Z</time></trkpt><trkpt lat="59.0734434128" lon="30.0232529640"><time>2026-04-25T16:22:07Z</time></trkpt><trkpt lat="59.0734648705" lon="30.0232315063"><time>2026-04-25T16:22:10Z</time></trkpt><trkpt lat="59.0734648705" lon="30.0232100487"><time>2026-04-25T16:22:12Z</time></trkpt><trkpt lat="59.0734863281" lon="30.0231885910"><time>2026-04-25T16:22:15Z</time></trkpt><trkpt lat="59.0735077858" lon="30.0231671333"><time>2026-04-25T16:22:17Z</time></trkpt><trkpt lat="59.0735077858" lon="30.0231885910"><time>2026-04-25T16:22:20Z</time></trkpt><trkpt lat="59.0735077858" lon="30.0231885910"><time>2026-04-25T16:22:22Z</time></trkpt><trkpt lat="59.0735077858" lon="30.0231885910"><time>2026-04-25T16:22:25Z</time></trkpt><trkpt lat="59.0735077858" lon="30.0231885910"><time>2026-04-25T16:22:27Z</time></trkpt><trkpt lat="59.0735077858" lon="30.0231885910"><time>2026-04-25T16:22:30Z</time></trkpt><trkpt lat="59.0735077858" lon="30.0231885910"><time>2026-04-25T16:22:32Z</time></trkpt><trkpt lat="59.0735077858" lon="30.0231885910"><time>2026-04-25T16:22:35Z</time></trkpt><trkpt lat="59.0735077858" lon="30.0231885910"><time>2026-04-25T16:22:37Z</time></trkpt><trkpt lat="59.0735077858" lon="30.0231885910"><time>2026-04-25T16:22:40Z</time></trkpt><trkpt lat="59.0735077858" lon="30.0231885910"><time>2026-04-25T16:22:42Z</time></trkpt><trkpt lat="59.0735077858" lon="30.0231885910"><time>2026-04-25T16:22:45Z</time></trkpt><trkpt lat="59.0735077858" lon="30.0231885910"><time>2026-04-25T16:22:47Z</time></trkpt><trkpt lat="59.0735077858" lon="30.0231885910"><time>2026-04-25T16:22:50Z</time></trkpt><trkpt lat="59.0735077858" lon="30.0231885910"><time>2026-04-25T16:22:52Z</time></trkpt><trkpt lat="59.0735077858" lon="30.0231885910"><time>2026-04-25T16:22:55Z</time></trkpt><trkpt lat="59.0735077858" lon="30.0231885910"><time>2026-04-25T16:22:57Z</time></trkpt><trkpt lat="59.0735077858" lon="30.0231885910"><time>2026-04-25T16:23:00Z</time></trkpt><trkpt lat="59.0735077858" lon="30.0231885910"><time>2026-04-25T16:23:02Z</time></trkpt><trkpt lat="59.0735077858" lon="30.0231885910"><time>2026-04-25T16:23:05Z</time></trkpt><trkpt lat="59.0735077858" lon="30.0231885910"><time>2026-04-25T16:23:07Z</time></trkpt><trkpt lat="59.0735077858" lon="30.0231885910"><time>2026-04-25T16:23:10Z</time></trkpt><trkpt lat="59.0735077858" lon="30.0231885910"><time>2026-04-25T16:23:12Z</time></trkpt><trkpt lat="59.0735077858" lon="30.0231885910"><time>2026-04-25T16:23:15Z</time></trkpt><trkpt lat="59.0735077858" lon="30.0231885910"><time>2026-04-25T16:23:17Z</time></trkpt><trkpt lat="59.0735077858" lon="30.0231885910"><time>2026-04-25T16:23:20Z</time></trkpt><trkpt lat="59.0735077858" lon="30.0231885910"><time>2026-04-25T16:23:22Z</time></trkpt><trkpt lat="59.0735292435" lon="30.0231885910"><time>2026-04-25T16:23:25Z</time></trkpt><trkpt lat="59.0735507011" lon="30.0231885910"><time>2026-04-25T16:23:27Z</time></trkpt><trkpt lat="59.0735721588" lon="30.0231885910"><time>2026-04-25T16:23:30Z</time></trkpt><trkpt lat="59.0735936165" lon="30.0231671333"><time>2026-04-25T16:23:32Z</time></trkpt><trkpt lat="59.0736150742" lon="30.0231671333"><time>2026-04-25T16:23:35Z</time></trkpt><trkpt lat="59.0736150742" lon="30.0231671333"><time>2026-04-25T16:23:37Z</time></trkpt><trkpt lat="59.0736365318" lon="30.0231456757"><time>2026-04-25T16:23:40Z</time></trkpt><trkpt lat="59.0736579895" lon="30.0231242180"><time>2026-04-25T16:23:42Z</time></trkpt><trkpt lat="59.0737009048" lon="30.0231242180"><time>2026-04-25T16:23:45Z</time></trkpt><trkpt lat="59.0737009048" lon="30.0231242180"><time>2026-04-25T16:23:47Z</time></trkpt><trkpt lat="59.0737438202" lon="30.0231242180"><time>2026-04-25T16:23:50Z</time></trkpt><trkpt lat="59.0737652779" lon="30.0230813026"><time>2026-04-25T16:23:52Z</time></trkpt><trkpt lat="59.0737867355" lon="30.0230383873"><time>2026-04-25T16:23:55Z</time></trkpt><trkpt lat="59.0737867355" lon="30.0230169296"><time>2026-04-25T16:23:57Z</time></trkpt><trkpt lat="59.0737867355" lon="30.0230383873"><time>2026-04-25T16:24:00Z</time></trkpt><trkpt lat="59.0737867355" lon="30.0230383873"><time>2026-04-25T16:24:02Z</time></trkpt><trkpt lat="59.0738081932" lon="30.0230598450"><time>2026-04-25T16:24:05Z</time></trkpt><trkpt lat="59.0738081932" lon="30.0230598450"><time>2026-04-25T16:24:07Z</time></trkpt><trkpt lat="59.0738081932" lon="30.0230598450"><time>2026-04-25T16:24:10Z</time></trkpt><trkpt lat="59.0738081932" lon="30.0230383873"><time>2026-04-25T16:24:12Z</time></trkpt><trkpt lat="59.0738081932" lon="30.0230383873"><time>2026-04-25T16:24:15Z</time></trkpt><trkpt lat="59.0738081932" lon="30.0230383873"><time>2026-04-25T16:24:17Z</time></trkpt><trkpt lat="59.0738081932" lon="30.0230383873"><time>2026-04-25T16:24:20Z</time></trkpt><trkpt lat="59.0738081932" lon="30.0230383873"><time>2026-04-25T16:24:22Z</time></trkpt><trkpt lat="59.0738081932" lon="30.0230383873"><time>2026-04-25T16:24:25Z</time></trkpt><trkpt lat="59.0738081932" lon="30.0230383873"><time>2026-04-25T16:24:27Z</time></trkpt><trkpt lat="59.0738081932" lon="30.0230383873"><time>2026-04-25T16:24:30Z</time></trkpt><trkpt lat="59.0738081932" lon="30.0230383873"><time>2026-04-25T16:24:32Z</time></trkpt><trkpt lat="59.0738081932" lon="30.0230169296"><time>2026-04-25T16:24:35Z</time></trkpt><trkpt lat="59.0738296509" lon="30.0229954720"><time>2026-04-25T16:24:37Z</time></trkpt><trkpt lat="59.0738511086" lon="30.0229525566"><time>2026-04-25T16:24:40Z</time></trkpt><trkpt lat="59.0738940239" lon="30.0229525566"><time>2026-04-25T16:24:42Z</time></trkpt><trkpt lat="59.0739154816" lon="30.0229740143"><time>2026-04-25T16:24:45Z</time></trkpt><trkpt lat="59.0739154816" lon="30.0229525566"><time>2026-04-25T16:24:47Z</time></trkpt><trkpt lat="59.0739369392" lon="30.0229525566"><time>2026-04-25T16:24:50Z</time></trkpt><trkpt lat="59.0739583969" lon="30.0229740143"><time>2026-04-25T16:24:52Z</time></trkpt><trkpt lat="59.0739583969" lon="30.0229740143"><time>2026-04-25T16:24:55Z</time></trkpt><trkpt lat="59.0739798546" lon="30.0229525566"><time>2026-04-25T16:24:57Z</time></trkpt><trkpt lat="59.0740013123" lon="30.0229096413"><time>2026-04-25T16:25:00Z</time></trkpt><trkpt lat="59.0740227699" lon="30.0229310989"><time>2026-04-25T16:25:02Z</time></trkpt><trkpt lat="59.0740227699" lon="30.0229096413"><time>2026-04-25T16:25:05Z</time></trkpt><trkpt lat="59.0740442276" lon="30.0228881836"><time>2026-04-25T16:25:07Z</time></trkpt><trkpt lat="59.0740442276" lon="30.0228881836"><time>2026-04-25T16:25:10Z</time></trkpt><trkpt lat="59.0740656853" lon="30.0228881836"><time>2026-04-25T16:25:12Z</time></trkpt><trkpt lat="59.0740871429" lon="30.0228881836"><time>2026-04-25T16:25:15Z</time></trkpt><trkpt lat="59.0741086006" lon="30.0228667259"><time>2026-04-25T16:25:17Z</time></trkpt><trkpt lat="59.0741086006" lon="30.0228667259"><time>2026-04-25T16:25:20Z</time></trkpt><trkpt lat="59.0741300583" lon="30.0229096413"><time>2026-04-25T16:25:22Z</time></trkpt><trkpt lat="59.0741515160" lon="30.0229096413"><time>2026-04-25T16:25:25Z</time></trkpt><trkpt lat="59.0741515160" lon="30.0228667259"><time>2026-04-25T16:25:27Z</time></trkpt><trkpt lat="59.0741515160" lon="30.0228238106"><time>2026-04-25T16:25:30Z</time></trkpt><trkpt lat="59.0741515160" lon="30.0228023529"><time>2026-04-25T16:25:32Z</time></trkpt><trkpt lat="59.0741729736" lon="30.0227594376"><time>2026-04-25T16:25:35Z</time></trkpt><trkpt lat="59.0741944313" lon="30.0227594376"><time>2026-04-25T16:25:37Z</time></trkpt><trkpt lat="59.0742158890" lon="30.0227808952"><time>2026-04-25T16:25:40Z</time></trkpt><trkpt lat="59.0742158890" lon="30.0227808952"><time>2026-04-25T16:25:42Z</time></trkpt><trkpt lat="59.0742373466" lon="30.0227594376"><time>2026-04-25T16:25:45Z</time></trkpt><trkpt lat="59.0742588043" lon="30.0227165222"><time>2026-04-25T16:25:47Z</time></trkpt><trkpt lat="59.0742802620" lon="30.0226521492"><time>2026-04-25T16:25:50Z</time></trkpt><trkpt lat="59.0743017197" lon="30.0226521492"><time>2026-04-25T16:25:52Z</time></trkpt><trkpt lat="59.0743231773" lon="30.0226306915"><time>2026-04-25T16:25:55Z</time></trkpt><trkpt lat="59.0743446350" lon="30.0226092339"><time>2026-04-25T16:25:57Z</time></trkpt><trkpt lat="59.0743875504" lon="30.0226306915"><time>2026-04-25T16:26:00Z</time></trkpt><trkpt lat="59.0743875504" lon="30.0226306915"><time>2026-04-25T16:26:02Z</time></trkpt><trkpt lat="59.0744304657" lon="30.0226521492"><time>2026-04-25T16:26:05Z</time></trkpt><trkpt lat="59.0744519234" lon="30.0226306915"><time>2026-04-25T16:26:07Z</time></trkpt><trkpt lat="59.0744733810" lon="30.0226306915"><time>2026-04-25T16:26:10Z</time></trkpt><trkpt lat="59.0744948387" lon="30.0226306915"><time>2026-04-25T16:26:12Z</time></trkpt><trkpt lat="59.0745377541" lon="30.0226092339"><time>2026-04-25T16:26:15Z</time></trkpt><trkpt lat="59.0745377541" lon="30.0226092339"><time>2026-04-25T16:26:17Z</time></trkpt><trkpt lat="59.0745377541" lon="30.0226092339"><time>2026-04-25T16:26:20Z</time></trkpt><trkpt lat="59.0745592117" lon="30.0225877762"><time>2026-04-25T16:26:22Z</time></trkpt><trkpt lat="59.0745806694" lon="30.0225663185"><time>2026-04-25T16:26:25Z</time></trkpt><trkpt lat="59.0746021271" lon="30.0225448608"><time>2026-04-25T16:26:27Z</time></trkpt><trkpt lat="59.0746235847" lon="30.0225234032"><time>2026-04-25T16:26:30Z</time></trkpt><trkpt lat="59.0746235847" lon="30.0225448608"><time>2026-04-25T16:26:32Z</time></trkpt><trkpt lat="59.0746235847" lon="30.0225448608"><time>2026-04-25T16:26:35Z</time></trkpt><trkpt lat="59.0746665001" lon="30.0225448608"><time>2026-04-25T16:26:37Z</time></trkpt><trkpt lat="59.0747094154" lon="30.0225019455"><time>2026-04-25T16:26:40Z</time></trkpt><trkpt lat="59.0747094154" lon="30.0224804878"><time>2026-04-25T16:26:42Z</time></trkpt><trkpt lat="59.0747523308" lon="30.0224804878"><time>2026-04-25T16:26:45Z</time></trkpt><trkpt lat="59.0747523308" lon="30.0225019455"><time>2026-04-25T16:26:47Z</time></trkpt><trkpt lat="59.0747952461" lon="30.0225019455"><time>2026-04-25T16:26:50Z</time></trkpt><trkpt lat="59.0747952461" lon="30.0225019455"><time>2026-04-25T16:26:52Z</time></trkpt><trkpt lat="59.0747952461" lon="30.0225019455"><time>2026-04-25T16:26:55Z</time></trkpt><trkpt lat="59.0748167038" lon="30.0224804878"><time>2026-04-25T16:26:57Z</time></trkpt><trkpt lat="59.0748167038" lon="30.0224804878"><time>2026-04-25T16:27:00Z</time></trkpt><trkpt lat="59.0748167038" lon="30.0224590302"><time>2026-04-25T16:27:02Z</time></trkpt><trkpt lat="59.0748381615" lon="30.0224161148"><time>2026-04-25T16:27:05Z</time></trkpt><trkpt lat="59.0748381615" lon="30.0223946571"><time>2026-04-25T16:27:07Z</time></trkpt><trkpt lat="59.0748810768" lon="30.0223731995"><time>2026-04-25T16:27:10Z</time></trkpt><trkpt lat="59.0749025345" lon="30.0223946571"><time>2026-04-25T16:27:12Z</time></trkpt><trkpt lat="59.0749454498" lon="30.0224161148"><time>2026-04-25T16:27:15Z</time></trkpt><trkpt lat="59.0749454498" lon="30.0224161148"><time>2026-04-25T16:27:17Z</time></trkpt><trkpt lat="59.0749883652" lon="30.0223946571"><time>2026-04-25T16:27:20Z</time></trkpt><trkpt lat="59.0750098228" lon="30.0223731995"><time>2026-04-25T16:27:22Z</time></trkpt><trkpt lat="59.0750312805" lon="30.0223517418"><time>2026-04-25T16:27:25Z</time></trkpt><trkpt lat="59.0750312805" lon="30.0223302841"><time>2026-04-25T16:27:27Z</time></trkpt><trkpt lat="59.0750527382" lon="30.0223088264"><time>2026-04-25T16:27:30Z</time></trkpt><trkpt lat="59.0750741959" lon="30.0223088264"><time>2026-04-25T16:27:32Z</time></trkpt><trkpt lat="59.0750741959" lon="30.0223517418"><time>2026-04-25T16:27:35Z</time></trkpt><trkpt lat="59.0750741959" lon="30.0223517418"><time>2026-04-25T16:27:37Z</time></trkpt><trkpt lat="59.0750527382" lon="30.0223517418"><time>2026-04-25T16:27:40Z</time></trkpt><trkpt lat="59.0750312805" lon="30.0223731995"><time>2026-04-25T16:27:42Z</time></trkpt><trkpt lat="59.0750098228" lon="30.0223731995"><time>2026-04-25T16:27:45Z</time></trkpt><trkpt lat="59.0750098228" lon="30.0223731995"><time>2026-04-25T16:27:47Z</time></trkpt><trkpt lat="59.0750098228" lon="30.0223731995"><time>2026-04-25T16:27:50Z</time></trkpt><trkpt lat="59.0750098228" lon="30.0223731995"><time>2026-04-25T16:27:52Z</time></trkpt><trkpt lat="59.0750098228" lon="30.0223731995"><time>2026-04-25T16:27:55Z</time></trkpt><trkpt lat="59.0750098228" lon="30.0223731995"><time>2026-04-25T16:27:57Z</time></trkpt><trkpt lat="59.0750098228" lon="30.0223731995"><time>2026-04-25T16:28:00Z</time></trkpt><trkpt lat="59.0750098228" lon="30.0223731995"><time>2026-04-25T16:28:02Z</time></trkpt><trkpt lat="59.0750098228" lon="30.0223731995"><time>2026-04-25T16:28:05Z</time></trkpt><trkpt lat="59.0750098228" lon="30.0223731995"><time>2026-04-25T16:28:07Z</time></trkpt><trkpt lat="59.0750098228" lon="30.0223731995"><time>2026-04-25T16:28:10Z</time></trkpt><trkpt lat="59.0750098228" lon="30.0223731995"><time>2026-04-25T16:28:12Z</time></trkpt><trkpt lat="59.0750098228" lon="30.0223731995"><time>2026-04-25T16:28:15Z</time></trkpt><trkpt lat="59.0750312805" lon="30.0223517418"><time>2026-04-25T16:28:17Z</time></trkpt><trkpt lat="59.0750527382" lon="30.0223302841"><time>2026-04-25T16:28:20Z</time></trkpt><trkpt lat="59.0750741959" lon="30.0223302841"><time>2026-04-25T16:28:22Z</time></trkpt><trkpt lat="59.0750956535" lon="30.0223302841"><time>2026-04-25T16:28:25Z</time></trkpt><trkpt lat="59.0750956535" lon="30.0223517418"><time>2026-04-25T16:28:27Z</time></trkpt><trkpt lat="59.0751385689" lon="30.0223731995"><time>2026-04-25T16:28:30Z</time></trkpt><trkpt lat="59.0751385689" lon="30.0223731995"><time>2026-04-25T16:28:32Z</time></trkpt><trkpt lat="59.0751600266" lon="30.0223731995"><time>2026-04-25T16:28:35Z</time></trkpt><trkpt lat="59.0751814842" lon="30.0223731995"><time>2026-04-25T16:28:37Z</time></trkpt><trkpt lat="59.0752029419" lon="30.0223517418"><time>2026-04-25T16:28:40Z</time></trkpt><trkpt lat="59.0752243996" lon="30.0223517418"><time>2026-04-25T16:28:42Z</time></trkpt><trkpt lat="59.0752458572" lon="30.0223517418"><time>2026-04-25T16:28:45Z</time></trkpt><trkpt lat="59.0752673149" lon="30.0223517418"><time>2026-04-25T16:28:47Z</time></trkpt><trkpt lat="59.0752887726" lon="30.0223731995"><time>2026-04-25T16:28:50Z</time></trkpt><trkpt lat="59.0753102303" lon="30.0223731995"><time>2026-04-25T16:28:52Z</time></trkpt><trkpt lat="59.0753316879" lon="30.0223517418"><time>2026-04-25T16:28:55Z</time></trkpt><trkpt lat="59.0753531456" lon="30.0223517418"><time>2026-04-25T16:28:57Z</time></trkpt><trkpt lat="59.0753960609" lon="30.0223302841"><time>2026-04-25T16:29:00Z</time></trkpt><trkpt lat="59.0754175186" lon="30.0223302841"><time>2026-04-25T16:29:02Z</time></trkpt><trkpt lat="59.0754389763" lon="30.0223302841"><time>2026-04-25T16:29:05Z</time></trkpt><trkpt lat="59.0754389763" lon="30.0223302841"><time>2026-04-25T16:29:07Z</time></trkpt><trkpt lat="59.0754818916" lon="30.0223088264"><time>2026-04-25T16:29:10Z</time></trkpt><trkpt lat="59.0755033493" lon="30.0222873688"><time>2026-04-25T16:29:12Z</time></trkpt><trkpt lat="59.0755248070" lon="30.0223088264"><time>2026-04-25T16:29:15Z</time></trkpt><trkpt lat="59.0755462646" lon="30.0223088264"><time>2026-04-25T16:29:17Z</time></trkpt><trkpt lat="59.0755677223" lon="30.0222659111"><time>2026-04-25T16:29:20Z</time></trkpt><trkpt lat="59.0755891800" lon="30.0222659111"><time>2026-04-25T16:29:22Z</time></trkpt><trkpt lat="59.0756106377" lon="30.0222229958"><time>2026-04-25T16:29:25Z</time></trkpt><trkpt lat="59.0756320953" lon="30.0222229958"><time>2026-04-25T16:29:27Z</time></trkpt><trkpt lat="59.0756320953" lon="30.0222015381"><time>2026-04-25T16:29:30Z</time></trkpt><trkpt lat="59.0756535530" lon="30.0222015381"><time>2026-04-25T16:29:32Z</time></trkpt><trkpt lat="59.0756964684" lon="30.0222015381"><time>2026-04-25T16:29:35Z</time></trkpt><trkpt lat="59.0756964684" lon="30.0221800804"><time>2026-04-25T16:29:37Z</time></trkpt><trkpt lat="59.0757179260" lon="30.0221371651"><time>2026-04-25T16:29:40Z</time></trkpt><trkpt lat="59.0757393837" lon="30.0221157074"><time>2026-04-25T16:29:42Z</time></trkpt><trkpt lat="59.0757608414" lon="30.0221157074"><time>2026-04-25T16:29:45Z</time></trkpt><trkpt lat="59.0757608414" lon="30.0221157074"><time>2026-04-25T16:29:47Z</time></trkpt><trkpt lat="59.0757822990" lon="30.0221157074"><time>2026-04-25T16:29:50Z</time></trkpt><trkpt lat="59.0758037567" lon="30.0221157074"><time>2026-04-25T16:29:52Z</time></trkpt><trkpt lat="59.0758252144" lon="30.0220942497"><time>2026-04-25T16:29:55Z</time></trkpt><trkpt lat="59.0758466721" lon="30.0220942497"><time>2026-04-25T16:29:57Z</time></trkpt><trkpt lat="59.0758681297" lon="30.0220298767"><time>2026-04-25T16:30:00Z</time></trkpt><trkpt lat="59.0758895874" lon="30.0219869614"><time>2026-04-25T16:30:02Z</time></trkpt><trkpt lat="59.0759325027" lon="30.0219440460"><time>2026-04-25T16:30:05Z</time></trkpt><trkpt lat="59.0759754181" lon="30.0219225883"><time>2026-04-25T16:30:07Z</time></trkpt><trkpt lat="59.0759968758" lon="30.0219225883"><time>2026-04-25T16:30:10Z</time></trkpt><trkpt lat="59.0759968758" lon="30.0219655037"><time>2026-04-25T16:30:12Z</time></trkpt><trkpt lat="59.0759968758" lon="30.0219655037"><time>2026-04-25T16:30:15Z</time></trkpt><trkpt lat="59.0760183334" lon="30.0219655037"><time>2026-04-25T16:30:17Z</time></trkpt><trkpt lat="59.0760397911" lon="30.0219440460"><time>2026-04-25T16:30:20Z</time></trkpt><trkpt lat="59.0760612488" lon="30.0219440460"><time>2026-04-25T16:30:22Z</time></trkpt><trkpt lat="59.0760827065" lon="30.0220084190"><time>2026-04-25T16:30:25Z</time></trkpt><trkpt lat="59.0761041641" lon="30.0220513344"><time>2026-04-25T16:30:27Z</time></trkpt><trkpt lat="59.0761256218" lon="30.0220942497"><time>2026-04-25T16:30:30Z</time></trkpt><trkpt lat="59.0761470795" lon="30.0220942497"><time>2026-04-25T16:30:32Z</time></trkpt><trkpt lat="59.0761685371" lon="30.0220942497"><time>2026-04-25T16:30:35Z</time></trkpt><trkpt lat="59.0761685371" lon="30.0220727921"><time>2026-04-25T16:30:37Z</time></trkpt><trkpt lat="59.0762114525" lon="30.0220727921"><time>2026-04-25T16:30:40Z</time></trkpt><trkpt lat="59.0762114525" lon="30.0220727921"><time>2026-04-25T16:30:42Z</time></trkpt><trkpt lat="59.0762329102" lon="30.0220513344"><time>2026-04-25T16:30:45Z</time></trkpt><trkpt lat="59.0762543678" lon="30.0220298767"><time>2026-04-25T16:30:47Z</time></trkpt><trkpt lat="59.0762758255" lon="30.0219869614"><time>2026-04-25T16:30:50Z</time></trkpt><trkpt lat="59.0762758255" lon="30.0219869614"><time>2026-04-25T16:30:52Z</time></trkpt><trkpt lat="59.0762758255" lon="30.0219869614"><time>2026-04-25T16:30:55Z</time></trkpt><trkpt lat="59.0762758255" lon="30.0219655037"><time>2026-04-25T16:30:57Z</time></trkpt><trkpt lat="59.0762758255" lon="30.0219869614"><time>2026-04-25T16:31:00Z</time></trkpt><trkpt lat="59.0762972832" lon="30.0219869614"><time>2026-04-25T16:31:02Z</time></trkpt><trkpt lat="59.0762972832" lon="30.0219869614"><time>2026-04-25T16:31:05Z</time></trkpt><trkpt lat="59.0762972832" lon="30.0219869614"><time>2026-04-25T16:31:07Z</time></trkpt><trkpt lat="59.0762972832" lon="30.0219869614"><time>2026-04-25T16:31:10Z</time></trkpt><trkpt lat="59.0762972832" lon="30.0219869614"><time>2026-04-25T16:31:12Z</time></trkpt><trkpt lat="59.0763187408" lon="30.0219869614"><time>2026-04-25T16:31:15Z</time></trkpt><trkpt lat="59.0763401985" lon="30.0219440460"><time>2026-04-25T16:31:17Z</time></trkpt><trkpt lat="59.0763616562" lon="30.0219440460"><time>2026-04-25T16:31:20Z</time></trkpt><trkpt lat="59.0763831139" lon="30.0219440460"><time>2026-04-25T16:31:22Z</time></trkpt><trkpt lat="59.0764260292" lon="30.0219440460"><time>2026-04-25T16:31:25Z</time></trkpt><trkpt lat="59.0764474869" lon="30.0219225883"><time>2026-04-25T16:31:27Z</time></trkpt><trkpt lat="59.0764904022" lon="30.0219225883"><time>2026-04-25T16:31:30Z</time></trkpt><trkpt lat="59.0765118599" lon="30.0219011307"><time>2026-04-25T16:31:32Z</time></trkpt><trkpt lat="59.0765118599" lon="30.0219011307"><time>2026-04-25T16:31:35Z</time></trkpt><trkpt lat="59.0765118599" lon="30.0219011307"><time>2026-04-25T16:31:37Z</time></trkpt><trkpt lat="59.0765118599" lon="30.0219011307"><time>2026-04-25T16:31:40Z</time></trkpt><trkpt lat="59.0765118599" lon="30.0219011307"><time>2026-04-25T16:31:42Z</time></trkpt><trkpt lat="59.0765118599" lon="30.0219011307"><time>2026-04-25T16:31:45Z</time></trkpt><trkpt lat="59.0765118599" lon="30.0219011307"><time>2026-04-25T16:31:47Z</time></trkpt><trkpt lat="59.0765118599" lon="30.0219011307"><time>2026-04-25T16:31:50Z</time></trkpt><trkpt lat="59.0765118599" lon="30.0218796730"><time>2026-04-25T16:31:52Z</time></trkpt><trkpt lat="59.0765333176" lon="30.0218582153"><time>2026-04-25T16:31:55Z</time></trkpt><trkpt lat="59.0765333176" lon="30.0218582153"><time>2026-04-25T16:31:57Z</time></trkpt><trkpt lat="59.0765333176" lon="30.0218796730"><time>2026-04-25T16:32:00Z</time></trkpt><trkpt lat="59.0765333176" lon="30.0218796730"><time>2026-04-25T16:32:02Z</time></trkpt><trkpt lat="59.0765333176" lon="30.0218796730"><time>2026-04-25T16:32:05Z</time></trkpt><trkpt lat="59.0765333176" lon="30.0218582153"><time>2026-04-25T16:32:07Z</time></trkpt><trkpt lat="59.0765333176" lon="30.0218367577"><time>2026-04-25T16:32:10Z</time></trkpt><trkpt lat="59.0765333176" lon="30.0218153000"><time>2026-04-25T16:32:12Z</time></trkpt><trkpt lat="59.0765333176" lon="30.0217723846"><time>2026-04-25T16:32:15Z</time></trkpt><trkpt lat="59.0765118599" lon="30.0217723846"><time>2026-04-25T16:32:17Z</time></trkpt><trkpt lat="59.0765118599" lon="30.0217509270"><time>2026-04-25T16:32:20Z</time></trkpt><trkpt lat="59.0764904022" lon="30.0217080116"><time>2026-04-25T16:32:22Z</time></trkpt><trkpt lat="59.0764904022" lon="30.0216650963"><time>2026-04-25T16:32:25Z</time></trkpt><trkpt lat="59.0764689445" lon="30.0216221809"><time>2026-04-25T16:32:27Z</time></trkpt><trkpt lat="59.0764904022" lon="30.0215578079"><time>2026-04-25T16:32:30Z</time></trkpt><trkpt lat="59.0764904022" lon="30.0215148926"><time>2026-04-25T16:32:32Z</time></trkpt><trkpt lat="59.0764689445" lon="30.0214719772"><time>2026-04-25T16:32:35Z</time></trkpt><trkpt lat="59.0764689445" lon="30.0214505196"><time>2026-04-25T16:32:37Z</time></trkpt><trkpt lat="59.0764689445" lon="30.0214505196"><time>2026-04-25T16:32:40Z</time></trkpt><trkpt lat="59.0764689445" lon="30.0214505196"><time>2026-04-25T16:32:42Z</time></trkpt><trkpt lat="59.0764689445" lon="30.0214076042"><time>2026-04-25T16:32:45Z</time></trkpt><trkpt lat="59.0764474869" lon="30.0213861465"><time>2026-04-25T16:32:47Z</time></trkpt><trkpt lat="59.0764260292" lon="30.0213217735"><time>2026-04-25T16:32:50Z</time></trkpt><trkpt lat="59.0764474869" lon="30.0212788582"><time>2026-04-25T16:32:52Z</time></trkpt><trkpt lat="59.0764260292" lon="30.0212359428"><time>2026-04-25T16:32:55Z</time></trkpt><trkpt lat="59.0764260292" lon="30.0212359428"><time>2026-04-25T16:32:57Z</time></trkpt><trkpt lat="59.0764474869" lon="30.0212144852"><time>2026-04-25T16:33:00Z</time></trkpt><trkpt lat="59.0764260292" lon="30.0211715698"><time>2026-04-25T16:33:02Z</time></trkpt><trkpt lat="59.0764260292" lon="30.0211286545"><time>2026-04-25T16:33:05Z</time></trkpt><trkpt lat="59.0764260292" lon="30.0211071968"><time>2026-04-25T16:33:07Z</time></trkpt><trkpt lat="59.0764260292" lon="30.0210642815"><time>2026-04-25T16:33:10Z</time></trkpt><trkpt lat="59.0764260292" lon="30.0210213661"><time>2026-04-25T16:33:12Z</time></trkpt><trkpt lat="59.0764260292" lon="30.0210213661"><time>2026-04-25T16:33:15Z</time></trkpt><trkpt lat="59.0764260292" lon="30.0209999084"><time>2026-04-25T16:33:17Z</time></trkpt><trkpt lat="59.0764474869" lon="30.0209784508"><time>2026-04-25T16:33:20Z</time></trkpt><trkpt lat="59.0764474869" lon="30.0209569931"><time>2026-04-25T16:33:22Z</time></trkpt><trkpt lat="59.0764474869" lon="30.0209140778"><time>2026-04-25T16:33:25Z</time></trkpt><trkpt lat="59.0764474869" lon="30.0208926201"><time>2026-04-25T16:33:27Z</time></trkpt><trkpt lat="59.0764260292" lon="30.0208926201"><time>2026-04-25T16:33:30Z</time></trkpt><trkpt lat="59.0764045715" lon="30.0208711624"><time>2026-04-25T16:33:32Z</time></trkpt><trkpt lat="59.0764045715" lon="30.0208497047"><time>2026-04-25T16:33:35Z</time></trkpt><trkpt lat="59.0764045715" lon="30.0208711624"><time>2026-04-25T16:33:37Z</time></trkpt><trkpt lat="59.0764045715" lon="30.0208926201"><time>2026-04-25T16:33:40Z</time></trkpt><trkpt lat="59.0764045715" lon="30.0208711624"><time>2026-04-25T16:33:42Z</time></trkpt><trkpt lat="59.0764045715" lon="30.0208497047"><time>2026-04-25T16:33:45Z</time></trkpt><trkpt lat="59.0764260292" lon="30.0208282471"><time>2026-04-25T16:33:47Z</time></trkpt><trkpt lat="59.0764260292" lon="30.0208067894"><time>2026-04-25T16:33:50Z</time></trkpt><trkpt lat="59.0764045715" lon="30.0207853317"><time>2026-04-25T16:33:52Z</time></trkpt><trkpt lat="59.0764045715" lon="30.0207424164"><time>2026-04-25T16:33:55Z</time></trkpt><trkpt lat="59.0764045715" lon="30.0207209587"><time>2026-04-25T16:33:57Z</time></trkpt><trkpt lat="59.0764045715" lon="30.0207209587"><time>2026-04-25T16:34:00Z</time></trkpt><trkpt lat="59.0764045715" lon="30.0207209587"><time>2026-04-25T16:34:02Z</time></trkpt><trkpt lat="59.0764045715" lon="30.0207209587"><time>2026-04-25T16:34:05Z</time></trkpt><trkpt lat="59.0764045715" lon="30.0207209587"><time>2026-04-25T16:34:07Z</time></trkpt><trkpt lat="59.0764045715" lon="30.0207424164"><time>2026-04-25T16:34:10Z</time></trkpt><trkpt lat="59.0764045715" lon="30.0207638741"><time>2026-04-25T16:34:12Z</time></trkpt><trkpt lat="59.0764045715" lon="30.0207638741"><time>2026-04-25T16:34:15Z</time></trkpt><trkpt lat="59.0764260292" lon="30.0207638741"><time>2026-04-25T16:34:17Z</time></trkpt><trkpt lat="59.0764045715" lon="30.0207638741"><time>2026-04-25T16:34:20Z</time></trkpt><trkpt lat="59.0764045715" lon="30.0207638741"><time>2026-04-25T16:34:22Z</time></trkpt><trkpt lat="59.0764045715" lon="30.0207638741"><time>2026-04-25T16:34:25Z</time></trkpt><trkpt lat="59.0763831139" lon="30.0207424164"><time>2026-04-25T16:34:27Z</time></trkpt><trkpt lat="59.0764045715" lon="30.0207424164"><time>2026-04-25T16:34:30Z</time></trkpt><trkpt lat="59.0764045715" lon="30.0207209587"><time>2026-04-25T16:34:32Z</time></trkpt><trkpt lat="59.0764045715" lon="30.0206780434"><time>2026-04-25T16:34:35Z</time></trkpt><trkpt lat="59.0764045715" lon="30.0206565857"><time>2026-04-25T16:34:37Z</time></trkpt><trkpt lat="59.0764260292" lon="30.0206136703"><time>2026-04-25T16:34:40Z</time></trkpt><trkpt lat="59.0764260292" lon="30.0206136703"><time>2026-04-25T16:34:42Z</time></trkpt><trkpt lat="59.0764045715" lon="30.0205922127"><time>2026-04-25T16:34:45Z</time></trkpt><trkpt lat="59.0764260292" lon="30.0205707550"><time>2026-04-25T16:34:47Z</time></trkpt><trkpt lat="59.0764260292" lon="30.0205063820"><time>2026-04-25T16:34:50Z</time></trkpt><trkpt lat="59.0764260292" lon="30.0204849243"><time>2026-04-25T16:34:52Z</time></trkpt><trkpt lat="59.0764045715" lon="30.0204849243"><time>2026-04-25T16:34:55Z</time></trkpt><trkpt lat="59.0764045715" lon="30.0204634666"><time>2026-04-25T16:34:57Z</time></trkpt><trkpt lat="59.0764045715" lon="30.0204634666"><time>2026-04-25T16:35:00Z</time></trkpt><trkpt lat="59.0764045715" lon="30.0204420090"><time>2026-04-25T16:35:02Z</time></trkpt><trkpt lat="59.0764045715" lon="30.0204420090"><time>2026-04-25T16:35:05Z</time></trkpt><trkpt lat="59.0764045715" lon="30.0204420090"><time>2026-04-25T16:35:07Z</time></trkpt><trkpt lat="59.0763831139" lon="30.0204205513"><time>2026-04-25T16:35:10Z</time></trkpt><trkpt lat="59.0763831139" lon="30.0203990936"><time>2026-04-25T16:35:12Z</time></trkpt><trkpt lat="59.0763616562" lon="30.0203776360"><time>2026-04-25T16:35:15Z</time></trkpt><trkpt lat="59.0763616562" lon="30.0203347206"><time>2026-04-25T16:35:17Z</time></trkpt><trkpt lat="59.0763616562" lon="30.0202703476"><time>2026-04-25T16:35:20Z</time></trkpt><trkpt lat="59.0763616562" lon="30.0202488899"><time>2026-04-25T16:35:22Z</time></trkpt><trkpt lat="59.0763616562" lon="30.0202274323"><time>2026-04-25T16:35:25Z</time></trkpt><trkpt lat="59.0763616562" lon="30.0202274323"><time>2026-04-25T16:35:27Z</time></trkpt><trkpt lat="59.0763616562" lon="30.0202274323"><time>2026-04-25T16:35:30Z</time></trkpt><trkpt lat="59.0763616562" lon="30.0202059746"><time>2026-04-25T16:35:32Z</time></trkpt><trkpt lat="59.0763401985" lon="30.0201845169"><time>2026-04-25T16:35:35Z</time></trkpt><trkpt lat="59.0763401985" lon="30.0201630592"><time>2026-04-25T16:35:37Z</time></trkpt><trkpt lat="59.0763401985" lon="30.0201630592"><time>2026-04-25T16:35:40Z</time></trkpt><trkpt lat="59.0763401985" lon="30.0201201439"><time>2026-04-25T16:35:42Z</time></trkpt><trkpt lat="59.0763401985" lon="30.0201201439"><time>2026-04-25T16:35:45Z</time></trkpt><trkpt lat="59.0763187408" lon="30.0200986862"><time>2026-04-25T16:35:47Z</time></trkpt><trkpt lat="59.0762972832" lon="30.0200557709"><time>2026-04-25T16:35:50Z</time></trkpt><trkpt lat="59.0762758255" lon="30.0200128555"><time>2026-04-25T16:35:52Z</time></trkpt><trkpt lat="59.0762972832" lon="30.0199484825"><time>2026-04-25T16:35:55Z</time></trkpt><trkpt lat="59.0762972832" lon="30.0199270248"><time>2026-04-25T16:35:57Z</time></trkpt><trkpt lat="59.0762972832" lon="30.0199270248"><time>2026-04-25T16:36:00Z</time></trkpt><trkpt lat="59.0762972832" lon="30.0199055672"><time>2026-04-25T16:36:02Z</time></trkpt><trkpt lat="59.0762972832" lon="30.0198626518"><time>2026-04-25T16:36:05Z</time></trkpt><trkpt lat="59.0763187408" lon="30.0198411942"><time>2026-04-25T16:36:07Z</time></trkpt><trkpt lat="59.0763187408" lon="30.0197768211"><time>2026-04-25T16:36:10Z</time></trkpt><trkpt lat="59.0763187408" lon="30.0197982788"><time>2026-04-25T16:36:12Z</time></trkpt><trkpt lat="59.0762972832" lon="30.0198197365"><time>2026-04-25T16:36:15Z</time></trkpt><trkpt lat="59.0762758255" lon="30.0198411942"><time>2026-04-25T16:36:17Z</time></trkpt><trkpt lat="59.0762543678" lon="30.0198197365"><time>2026-04-25T16:36:20Z</time></trkpt><trkpt lat="59.0762543678" lon="30.0197982788"><time>2026-04-25T16:36:22Z</time></trkpt><trkpt lat="59.0762329102" lon="30.0197768211"><time>2026-04-25T16:36:25Z</time></trkpt><trkpt lat="59.0762543678" lon="30.0197553635"><time>2026-04-25T16:36:27Z</time></trkpt><trkpt lat="59.0762543678" lon="30.0197553635"><time>2026-04-25T16:36:30Z</time></trkpt><trkpt lat="59.0762543678" lon="30.0197339058"><time>2026-04-25T16:36:32Z</time></trkpt><trkpt lat="59.0762329102" lon="30.0196909904"><time>2026-04-25T16:36:35Z</time></trkpt><trkpt lat="59.0762114525" lon="30.0196909904"><time>2026-04-25T16:36:37Z</time></trkpt><trkpt lat="59.0762114525" lon="30.0196695328"><time>2026-04-25T16:36:40Z</time></trkpt><trkpt lat="59.0762329102" lon="30.0196695328"><time>2026-04-25T16:36:42Z</time></trkpt><trkpt lat="59.0762329102" lon="30.0196695328"><time>2026-04-25T16:36:45Z</time></trkpt><trkpt lat="59.0762329102" lon="30.0196695328"><time>2026-04-25T16:36:47Z</time></trkpt><trkpt lat="59.0762114525" lon="30.0196266174"><time>2026-04-25T16:36:50Z</time></trkpt><trkpt lat="59.0761899948" lon="30.0196051598"><time>2026-04-25T16:36:52Z</time></trkpt><trkpt lat="59.0762114525" lon="30.0195622444"><time>2026-04-25T16:36:55Z</time></trkpt><trkpt lat="59.0762114525" lon="30.0195193291"><time>2026-04-25T16:36:57Z</time></trkpt><trkpt lat="59.0761899948" lon="30.0194764137"><time>2026-04-25T16:37:00Z</time></trkpt><trkpt lat="59.0761899948" lon="30.0194764137"><time>2026-04-25T16:37:02Z</time></trkpt><trkpt lat="59.0762114525" lon="30.0194549561"><time>2026-04-25T16:37:05Z</time></trkpt><trkpt lat="59.0762114525" lon="30.0194549561"><time>2026-04-25T16:37:07Z</time></trkpt><trkpt lat="59.0762114525" lon="30.0194549561"><time>2026-04-25T16:37:10Z</time></trkpt><trkpt lat="59.0762114525" lon="30.0194764137"><time>2026-04-25T16:37:12Z</time></trkpt><trkpt lat="59.0762114525" lon="30.0194549561"><time>2026-04-25T16:37:15Z</time></trkpt><trkpt lat="59.0762114525" lon="30.0194549561"><time>2026-04-25T16:37:17Z</time></trkpt><trkpt lat="59.0762114525" lon="30.0194120407"><time>2026-04-25T16:37:20Z</time></trkpt><trkpt lat="59.0762329102" lon="30.0193905830"><time>2026-04-25T16:37:22Z</time></trkpt><trkpt lat="59.0762329102" lon="30.0193905830"><time>2026-04-25T16:37:25Z</time></trkpt><trkpt lat="59.0762114525" lon="30.0193905830"><time>2026-04-25T16:37:27Z</time></trkpt><trkpt lat="59.0761899948" lon="30.0194120407"><time>2026-04-25T16:37:30Z</time></trkpt><trkpt lat="59.0761899948" lon="30.0193905830"><time>2026-04-25T16:37:32Z</time></trkpt><trkpt lat="59.0762114525" lon="30.0193691254"><time>2026-04-25T16:37:35Z</time></trkpt><trkpt lat="59.0762114525" lon="30.0193691254"><time>2026-04-25T16:37:37Z</time></trkpt><trkpt lat="59.0762114525" lon="30.0193691254"><time>2026-04-25T16:37:40Z</time></trkpt><trkpt lat="59.0762114525" lon="30.0193691254"><time>2026-04-25T16:37:42Z</time></trkpt><trkpt lat="59.0762114525" lon="30.0193691254"><time>2026-04-25T16:37:45Z</time></trkpt><trkpt lat="59.0762114525" lon="30.0193691254"><time>2026-04-25T16:37:47Z</time></trkpt><trkpt lat="59.0762114525" lon="30.0193691254"><time>2026-04-25T16:37:50Z</time></trkpt><trkpt lat="59.0762114525" lon="30.0193691254"><time>2026-04-25T16:37:52Z</time></trkpt><trkpt lat="59.0762114525" lon="30.0193691254"><time>2026-04-25T16:37:55Z</time></trkpt><trkpt lat="59.0762114525" lon="30.0193691254"><time>2026-04-25T16:37:57Z</time></trkpt><trkpt lat="59.0762114525" lon="30.0193691254"><time>2026-04-25T16:38:00Z</time></trkpt><trkpt lat="59.0762114525" lon="30.0193691254"><time>2026-04-25T16:38:02Z</time></trkpt><trkpt lat="59.0762114525" lon="30.0193691254"><time>2026-04-25T16:38:05Z</time></trkpt><trkpt lat="59.0762114525" lon="30.0193691254"><time>2026-04-25T16:38:07Z</time></trkpt><trkpt lat="59.0762114525" lon="30.0193691254"><time>2026-04-25T16:38:10Z</time></trkpt><trkpt lat="59.0762114525" lon="30.0193691254"><time>2026-04-25T16:38:12Z</time></trkpt><trkpt lat="59.0761899948" lon="30.0193691254"><time>2026-04-25T16:38:15Z</time></trkpt><trkpt lat="59.0761899948" lon="30.0193691254"><time>2026-04-25T16:38:17Z</time></trkpt><trkpt lat="59.0761899948" lon="30.0193691254"><time>2026-04-25T16:38:20Z</time></trkpt><trkpt lat="59.0761899948" lon="30.0193691254"><time>2026-04-25T16:38:22Z</time></trkpt><trkpt lat="59.0761899948" lon="30.0193691254"><time>2026-04-25T16:38:25Z</time></trkpt><trkpt lat="59.0761899948" lon="30.0193691254"><time>2026-04-25T16:38:27Z</time></trkpt><trkpt lat="59.0761899948" lon="30.0193691254"><time>2026-04-25T16:38:30Z</time></trkpt><trkpt lat="59.0761899948" lon="30.0193691254"><time>2026-04-25T16:38:32Z</time></trkpt><trkpt lat="59.0761899948" lon="30.0193691254"><time>2026-04-25T16:38:35Z</time></trkpt><trkpt lat="59.0761899948" lon="30.0193691254"><time>2026-04-25T16:38:37Z</time></trkpt><trkpt lat="59.0761899948" lon="30.0193691254"><time>2026-04-25T16:38:40Z</time></trkpt><trkpt lat="59.0761899948" lon="30.0193691254"><time>2026-04-25T16:38:42Z</time></trkpt><trkpt lat="59.0761899948" lon="30.0193691254"><time>2026-04-25T16:38:45Z</time></trkpt><trkpt lat="59.0761899948" lon="30.0193691254"><time>2026-04-25T16:38:47Z</time></trkpt><trkpt lat="59.0761899948" lon="30.0193691254"><time>2026-04-25T16:38:50Z</time></trkpt><trkpt lat="59.0761899948" lon="30.0193691254"><time>2026-04-25T16:38:52Z</time></trkpt><trkpt lat="59.0761899948" lon="30.0193691254"><time>2026-04-25T16:38:55Z</time></trkpt><trkpt lat="59.0761899948" lon="30.0193691254"><time>2026-04-25T16:38:57Z</time></trkpt><trkpt lat="59.0761899948" lon="30.0193691254"><time>2026-04-25T16:39:00Z</time></trkpt><trkpt lat="59.0761899948" lon="30.0193691254"><time>2026-04-25T16:39:02Z</time></trkpt><trkpt lat="59.0761899948" lon="30.0193691254"><time>2026-04-25T16:39:05Z</time></trkpt><trkpt lat="59.0761899948" lon="30.0193691254"><time>2026-04-25T16:39:07Z</time></trkpt><trkpt lat="59.0761899948" lon="30.0193691254"><time>2026-04-25T16:39:10Z</time></trkpt><trkpt lat="59.0761899948" lon="30.0193691254"><time>2026-04-25T16:39:12Z</time></trkpt><trkpt lat="59.0761899948" lon="30.0193905830"><time>2026-04-25T16:39:15Z</time></trkpt><trkpt lat="59.0761685371" lon="30.0194120407"><time>2026-04-25T16:39:17Z</time></trkpt><trkpt lat="59.0761470795" lon="30.0194334984"><time>2026-04-25T16:39:20Z</time></trkpt><trkpt lat="59.0761470795" lon="30.0194334984"><time>2026-04-25T16:39:22Z</time></trkpt><trkpt lat="59.0761470795" lon="30.0194549561"><time>2026-04-25T16:39:25Z</time></trkpt><trkpt lat="59.0761470795" lon="30.0194549561"><time>2026-04-25T16:39:27Z</time></trkpt><trkpt lat="59.0761470795" lon="30.0194334984"><time>2026-04-25T16:39:30Z</time></trkpt><trkpt lat="59.0761470795" lon="30.0194334984"><time>2026-04-25T16:39:32Z</time></trkpt><trkpt lat="59.0761470795" lon="30.0194120407"><time>2026-04-25T16:39:35Z</time></trkpt><trkpt lat="59.0761470795" lon="30.0194120407"><time>2026-04-25T16:39:37Z</time></trkpt><trkpt lat="59.0761470795" lon="30.0194120407"><time>2026-04-25T16:39:40Z</time></trkpt><trkpt lat="59.0761470795" lon="30.0194120407"><time>2026-04-25T16:39:42Z</time></trkpt><trkpt lat="59.0761470795" lon="30.0194120407"><time>2026-04-25T16:39:45Z</time></trkpt><trkpt lat="59.0761470795" lon="30.0194120407"><time>2026-04-25T16:39:47Z</time></trkpt><trkpt lat="59.0761470795" lon="30.0194120407"><time>2026-04-25T16:39:50Z</time></trkpt><trkpt lat="59.0761470795" lon="30.0194120407"><time>2026-04-25T16:39:52Z</time></trkpt><trkpt lat="59.0761470795" lon="30.0194120407"><time>2026-04-25T16:39:55Z</time></trkpt><trkpt lat="59.0761470795" lon="30.0194120407"><time>2026-04-25T16:39:57Z</time></trkpt><trkpt lat="59.0761470795" lon="30.0194120407"><time>2026-04-25T16:40:00Z</time></trkpt><trkpt lat="59.0761470795" lon="30.0194120407"><time>2026-04-25T16:40:02Z</time></trkpt><trkpt lat="59.0761470795" lon="30.0194120407"><time>2026-04-25T16:40:05Z</time></trkpt><trkpt lat="59.0761470795" lon="30.0194120407"><time>2026-04-25T16:40:07Z</time></trkpt><trkpt lat="59.0761256218" lon="30.0194334984"><time>2026-04-25T16:40:10Z</time></trkpt><trkpt lat="59.0761256218" lon="30.0194334984"><time>2026-04-25T16:40:12Z</time></trkpt><trkpt lat="59.0761470795" lon="30.0194120407"><time>2026-04-25T16:40:15Z</time></trkpt><trkpt lat="59.0761470795" lon="30.0194120407"><time>2026-04-25T16:40:17Z</time></trkpt><trkpt lat="59.0761470795" lon="30.0194334984"><time>2026-04-25T16:40:20Z</time></trkpt><trkpt lat="59.0761256218" lon="30.0194334984"><time>2026-04-25T16:40:22Z</time></trkpt><trkpt lat="59.0761041641" lon="30.0194764137"><time>2026-04-25T16:40:25Z</time></trkpt><trkpt lat="59.0760827065" lon="30.0194764137"><time>2026-04-25T16:40:27Z</time></trkpt><trkpt lat="59.0760612488" lon="30.0194978714"><time>2026-04-25T16:40:30Z</time></trkpt><trkpt lat="59.0760612488" lon="30.0195193291"><time>2026-04-25T16:40:32Z</time></trkpt><trkpt lat="59.0760397911" lon="30.0195193291"><time>2026-04-25T16:40:35Z</time></trkpt><trkpt lat="59.0760397911" lon="30.0195193291"><time>2026-04-25T16:40:37Z</time></trkpt><trkpt lat="59.0760183334" lon="30.0195193291"><time>2026-04-25T16:40:40Z</time></trkpt><trkpt lat="59.0760183334" lon="30.0194978714"><time>2026-04-25T16:40:42Z</time></trkpt><trkpt lat="59.0760183334" lon="30.0194764137"><time>2026-04-25T16:40:45Z</time></trkpt><trkpt lat="59.0759968758" lon="30.0194549561"><time>2026-04-25T16:40:47Z</time></trkpt><trkpt lat="59.0759539604" lon="30.0194334984"><time>2026-04-25T16:40:50Z</time></trkpt><trkpt lat="59.0759325027" lon="30.0194549561"><time>2026-04-25T16:40:52Z</time></trkpt><trkpt lat="59.0758895874" lon="30.0194764137"><time>2026-04-25T16:40:55Z</time></trkpt><trkpt lat="59.0758681297" lon="30.0194549561"><time>2026-04-25T16:40:57Z</time></trkpt><trkpt lat="59.0758252144" lon="30.0194120407"><time>2026-04-25T16:41:00Z</time></trkpt><trkpt lat="59.0758466721" lon="30.0193905830"><time>2026-04-25T16:41:02Z</time></trkpt><trkpt lat="59.0758252144" lon="30.0193476677"><time>2026-04-25T16:41:05Z</time></trkpt><trkpt lat="59.0758466721" lon="30.0193905830"><time>2026-04-25T16:41:07Z</time></trkpt><trkpt lat="59.0758466721" lon="30.0193905830"><time>2026-04-25T16:41:10Z</time></trkpt><trkpt lat="59.0758466721" lon="30.0193905830"><time>2026-04-25T16:41:12Z</time></trkpt><trkpt lat="59.0758466721" lon="30.0193691254"><time>2026-04-25T16:41:15Z</time></trkpt><trkpt lat="59.0758466721" lon="30.0193691254"><time>2026-04-25T16:41:17Z</time></trkpt><trkpt lat="59.0758466721" lon="30.0193691254"><time>2026-04-25T16:41:20Z</time></trkpt><trkpt lat="59.0758466721" lon="30.0193905830"><time>2026-04-25T16:41:22Z</time></trkpt><trkpt lat="59.0758466721" lon="30.0194549561"><time>2026-04-25T16:41:25Z</time></trkpt><trkpt lat="59.0758466721" lon="30.0194549561"><time>2026-04-25T16:41:27Z</time></trkpt><trkpt lat="59.0758466721" lon="30.0194549561"><time>2026-04-25T16:41:30Z</time></trkpt><trkpt lat="59.0758252144" lon="30.0195193291"><time>2026-04-25T16:41:32Z</time></trkpt><trkpt lat="59.0758037567" lon="30.0195407867"><time>2026-04-25T16:41:35Z</time></trkpt><trkpt lat="59.0757822990" lon="30.0195622444"><time>2026-04-25T16:41:37Z</time></trkpt><trkpt lat="59.0757608414" lon="30.0195837021"><time>2026-04-25T16:41:40Z</time></trkpt><trkpt lat="59.0757608414" lon="30.0195837021"><time>2026-04-25T16:41:42Z</time></trkpt><trkpt lat="59.0757608414" lon="30.0195837021"><time>2026-04-25T16:41:45Z</time></trkpt><trkpt lat="59.0757608414" lon="30.0195837021"><time>2026-04-25T16:41:47Z</time></trkpt><trkpt lat="59.0757608414" lon="30.0195837021"><time>2026-04-25T16:41:50Z</time></trkpt><trkpt lat="59.0757608414" lon="30.0195837021"><time>2026-04-25T16:41:52Z</time></trkpt><trkpt lat="59.0757608414" lon="30.0195837021"><time>2026-04-25T16:41:55Z</time></trkpt><trkpt lat="59.0757608414" lon="30.0195837021"><time>2026-04-25T16:41:57Z</time></trkpt><trkpt lat="59.0757608414" lon="30.0195837021"><time>2026-04-25T16:42:00Z</time></trkpt><trkpt lat="59.0757608414" lon="30.0195837021"><time>2026-04-25T16:42:02Z</time></trkpt><trkpt lat="59.0757608414" lon="30.0195837021"><time>2026-04-25T16:42:05Z</time></trkpt><trkpt lat="59.0757608414" lon="30.0195837021"><time>2026-04-25T16:42:07Z</time></trkpt><trkpt lat="59.0757608414" lon="30.0195837021"><time>2026-04-25T16:42:10Z</time></trkpt><trkpt lat="59.0757608414" lon="30.0195837021"><time>2026-04-25T16:42:12Z</time></trkpt><trkpt lat="59.0757608414" lon="30.0196266174"><time>2026-04-25T16:42:15Z</time></trkpt><trkpt lat="59.0757608414" lon="30.0196480751"><time>2026-04-25T16:42:17Z</time></trkpt><trkpt lat="59.0757608414" lon="30.0196909904"><time>2026-04-25T16:42:20Z</time></trkpt><trkpt lat="59.0757608414" lon="30.0197339058"><time>2026-04-25T16:42:22Z</time></trkpt><trkpt lat="59.0757393837" lon="30.0197768211"><time>2026-04-25T16:42:25Z</time></trkpt><trkpt lat="59.0757393837" lon="30.0197982788"><time>2026-04-25T16:42:27Z</time></trkpt><trkpt lat="59.0757393837" lon="30.0198626518"><time>2026-04-25T16:42:30Z</time></trkpt><trkpt lat="59.0757393837" lon="30.0199055672"><time>2026-04-25T16:42:32Z</time></trkpt><trkpt lat="59.0757608414" lon="30.0199484825"><time>2026-04-25T16:42:35Z</time></trkpt><trkpt lat="59.0757608414" lon="30.0199699402"><time>2026-04-25T16:42:37Z</time></trkpt><trkpt lat="59.0757608414" lon="30.0200343132"><time>2026-04-25T16:42:40Z</time></trkpt><trkpt lat="59.0757608414" lon="30.0200557709"><time>2026-04-25T16:42:42Z</time></trkpt><trkpt lat="59.0757608414" lon="30.0201201439"><time>2026-04-25T16:42:45Z</time></trkpt><trkpt lat="59.0757608414" lon="30.0201416016"><time>2026-04-25T16:42:47Z</time></trkpt><trkpt lat="59.0757608414" lon="30.0201845169"><time>2026-04-25T16:42:50Z</time></trkpt><trkpt lat="59.0757608414" lon="30.0202274323"><time>2026-04-25T16:42:52Z</time></trkpt><trkpt lat="59.0757608414" lon="30.0202703476"><time>2026-04-25T16:42:55Z</time></trkpt><trkpt lat="59.0757822990" lon="30.0203132629"><time>2026-04-25T16:42:57Z</time></trkpt><trkpt lat="59.0757822990" lon="30.0203776360"><time>2026-04-25T16:43:00Z</time></trkpt><trkpt lat="59.0757822990" lon="30.0203990936"><time>2026-04-25T16:43:02Z</time></trkpt><trkpt lat="59.0757822990" lon="30.0204849243"><time>2026-04-25T16:43:05Z</time></trkpt><trkpt lat="59.0757822990" lon="30.0205063820"><time>2026-04-25T16:43:07Z</time></trkpt><trkpt lat="59.0757822990" lon="30.0205492973"><time>2026-04-25T16:43:10Z</time></trkpt><trkpt lat="59.0757822990" lon="30.0205922127"><time>2026-04-25T16:43:12Z</time></trkpt><trkpt lat="59.0757822990" lon="30.0206565857"><time>2026-04-25T16:43:15Z</time></trkpt><trkpt lat="59.0757822990" lon="30.0206995010"><time>2026-04-25T16:43:17Z</time></trkpt><trkpt lat="59.0757822990" lon="30.0206995010"><time>2026-04-25T16:43:20Z</time></trkpt><trkpt lat="59.0758037567" lon="30.0207424164"><time>2026-04-25T16:43:22Z</time></trkpt><trkpt lat="59.0758037567" lon="30.0207853317"><time>2026-04-25T16:43:25Z</time></trkpt><trkpt lat="59.0757822990" lon="30.0207853317"><time>2026-04-25T16:43:27Z</time></trkpt><trkpt lat="59.0757822990" lon="30.0207853317"><time>2026-04-25T16:43:30Z</time></trkpt><trkpt lat="59.0757822990" lon="30.0207853317"><time>2026-04-25T16:43:32Z</time></trkpt><trkpt lat="59.0757822990" lon="30.0207638741"><time>2026-04-25T16:43:35Z</time></trkpt><trkpt lat="59.0757822990" lon="30.0207638741"><time>2026-04-25T16:43:37Z</time></trkpt><trkpt lat="59.0757822990" lon="30.0207638741"><time>2026-04-25T16:43:40Z</time></trkpt><trkpt lat="59.0757822990" lon="30.0207424164"><time>2026-04-25T16:43:42Z</time></trkpt><trkpt lat="59.0757822990" lon="30.0207638741"><time>2026-04-25T16:43:45Z</time></trkpt><trkpt lat="59.0757822990" lon="30.0207638741"><time>2026-04-25T16:43:47Z</time></trkpt><trkpt lat="59.0757822990" lon="30.0207638741"><time>2026-04-25T16:43:50Z</time></trkpt><trkpt lat="59.0757822990" lon="30.0207638741"><time>2026-04-25T16:43:52Z</time></trkpt><trkpt lat="59.0757822990" lon="30.0207638741"><time>2026-04-25T16:43:55Z</time></trkpt><trkpt lat="59.0757822990" lon="30.0207638741"><time>2026-04-25T16:43:57Z</time></trkpt><trkpt lat="59.0758037567" lon="30.0208067894"><time>2026-04-25T16:44:00Z</time></trkpt><trkpt lat="59.0758037567" lon="30.0208282471"><time>2026-04-25T16:44:02Z</time></trkpt><trkpt lat="59.0758037567" lon="30.0208711624"><time>2026-04-25T16:44:05Z</time></trkpt><trkpt lat="59.0758037567" lon="30.0209140778"><time>2026-04-25T16:44:07Z</time></trkpt><trkpt lat="59.0758037567" lon="30.0209569931"><time>2026-04-25T16:44:10Z</time></trkpt><trkpt lat="59.0758037567" lon="30.0209999084"><time>2026-04-25T16:44:12Z</time></trkpt><trkpt lat="59.0758037567" lon="30.0210428238"><time>2026-04-25T16:44:15Z</time></trkpt><trkpt lat="59.0758037567" lon="30.0210642815"><time>2026-04-25T16:44:17Z</time></trkpt><trkpt lat="59.0758037567" lon="30.0211071968"><time>2026-04-25T16:44:20Z</time></trkpt><trkpt lat="59.0758037567" lon="30.0211501122"><time>2026-04-25T16:44:22Z</time></trkpt><trkpt lat="59.0758252144" lon="30.0211715698"><time>2026-04-25T16:44:25Z</time></trkpt><trkpt lat="59.0758252144" lon="30.0212144852"><time>2026-04-25T16:44:27Z</time></trkpt><trkpt lat="59.0758466721" lon="30.0212574005"><time>2026-04-25T16:44:30Z</time></trkpt><trkpt lat="59.0758466721" lon="30.0212788582"><time>2026-04-25T16:44:32Z</time></trkpt><trkpt lat="59.0758466721" lon="30.0213217735"><time>2026-04-25T16:44:35Z</time></trkpt><trkpt lat="59.0758466721" lon="30.0213646889"><time>2026-04-25T16:44:37Z</time></trkpt><trkpt lat="59.0758681297" lon="30.0213861465"><time>2026-04-25T16:44:40Z</time></trkpt><trkpt lat="59.0758895874" lon="30.0214076042"><time>2026-04-25T16:44:42Z</time></trkpt><trkpt lat="59.0758681297" lon="30.0214505196"><time>2026-04-25T16:44:45Z</time></trkpt><trkpt lat="59.0758681297" lon="30.0215148926"><time>2026-04-25T16:44:47Z</time></trkpt><trkpt lat="59.0758681297" lon="30.0215363503"><time>2026-04-25T16:44:50Z</time></trkpt><trkpt lat="59.0758681297" lon="30.0215363503"><time>2026-04-25T16:44:52Z</time></trkpt><trkpt lat="59.0758681297" lon="30.0216007233"><time>2026-04-25T16:44:55Z</time></trkpt><trkpt lat="59.0758895874" lon="30.0216221809"><time>2026-04-25T16:44:57Z</time></trkpt><trkpt lat="59.0759110451" lon="30.0216650963"><time>2026-04-25T16:45:00Z</time></trkpt><trkpt lat="59.0759110451" lon="30.0216865540"><time>2026-04-25T16:45:02Z</time></trkpt><trkpt lat="59.0759110451" lon="30.0216865540"><time>2026-04-25T16:45:05Z</time></trkpt><trkpt lat="59.0759110451" lon="30.0216865540"><time>2026-04-25T16:45:07Z</time></trkpt><trkpt lat="59.0759110451" lon="30.0216865540"><time>2026-04-25T16:45:10Z</time></trkpt><trkpt lat="59.0759110451" lon="30.0216865540"><time>2026-04-25T16:45:12Z</time></trkpt><trkpt lat="59.0759110451" lon="30.0216865540"><time>2026-04-25T16:45:15Z</time></trkpt><trkpt lat="59.0759110451" lon="30.0217294693"><time>2026-04-25T16:45:17Z</time></trkpt><trkpt lat="59.0758895874" lon="30.0217723846"><time>2026-04-25T16:45:20Z</time></trkpt><trkpt lat="59.0758681297" lon="30.0217938423"><time>2026-04-25T16:45:22Z</time></trkpt><trkpt lat="59.0758466721" lon="30.0217723846"><time>2026-04-25T16:45:25Z</time></trkpt><trkpt lat="59.0758252144" lon="30.0217509270"><time>2026-04-25T16:45:27Z</time></trkpt><trkpt lat="59.0758037567" lon="30.0217080116"><time>2026-04-25T16:45:30Z</time></trkpt><trkpt lat="59.0758037567" lon="30.0216865540"><time>2026-04-25T16:45:32Z</time></trkpt><trkpt lat="59.0757608414" lon="30.0216650963"><time>2026-04-25T16:45:35Z</time></trkpt><trkpt lat="59.0757393837" lon="30.0217080116"><time>2026-04-25T16:45:37Z</time></trkpt><trkpt lat="59.0757179260" lon="30.0217294693"><time>2026-04-25T16:45:40Z</time></trkpt><trkpt lat="59.0757179260" lon="30.0217294693"><time>2026-04-25T16:45:42Z</time></trkpt><trkpt lat="59.0756964684" lon="30.0217509270"><time>2026-04-25T16:45:45Z</time></trkpt><trkpt lat="59.0756750107" lon="30.0217509270"><time>2026-04-25T16:45:47Z</time></trkpt><trkpt lat="59.0756535530" lon="30.0217723846"><time>2026-04-25T16:45:50Z</time></trkpt><trkpt lat="59.0756320953" lon="30.0217723846"><time>2026-04-25T16:45:52Z</time></trkpt><trkpt lat="59.0756320953" lon="30.0217723846"><time>2026-04-25T16:45:55Z</time></trkpt><trkpt lat="59.0756106377" lon="30.0217938423"><time>2026-04-25T16:45:57Z</time></trkpt><trkpt lat="59.0755891800" lon="30.0217938423"><time>2026-04-25T16:46:00Z</time></trkpt><trkpt lat="59.0755677223" lon="30.0217938423"><time>2026-04-25T16:46:02Z</time></trkpt><trkpt lat="59.0755248070" lon="30.0217938423"><time>2026-04-25T16:46:05Z</time></trkpt><trkpt lat="59.0755033493" lon="30.0217723846"><time>2026-04-25T16:46:07Z</time></trkpt><trkpt lat="59.0754818916" lon="30.0217938423"><time>2026-04-25T16:46:10Z</time></trkpt><trkpt lat="59.0754818916" lon="30.0218153000"><time>2026-04-25T16:46:12Z</time></trkpt><trkpt lat="59.0754604340" lon="30.0218153000"><time>2026-04-25T16:46:15Z</time></trkpt><trkpt lat="59.0754604340" lon="30.0218153000"><time>2026-04-25T16:46:17Z</time></trkpt><trkpt lat="59.0754389763" lon="30.0218153000"><time>2026-04-25T16:46:20Z</time></trkpt><trkpt lat="59.0754389763" lon="30.0218153000"><time>2026-04-25T16:46:22Z</time></trkpt><trkpt lat="59.0754389763" lon="30.0218153000"><time>2026-04-25T16:46:25Z</time></trkpt><trkpt lat="59.0754389763" lon="30.0218153000"><time>2026-04-25T16:46:27Z</time></trkpt><trkpt lat="59.0754389763" lon="30.0218153000"><time>2026-04-25T16:46:30Z</time></trkpt><trkpt lat="59.0754389763" lon="30.0218153000"><time>2026-04-25T16:46:32Z</time></trkpt><trkpt lat="59.0754389763" lon="30.0217938423"><time>2026-04-25T16:46:35Z</time></trkpt><trkpt lat="59.0754175186" lon="30.0217294693"><time>2026-04-25T16:46:37Z</time></trkpt><trkpt lat="59.0754175186" lon="30.0216650963"><time>2026-04-25T16:46:40Z</time></trkpt><trkpt lat="59.0753960609" lon="30.0216436386"><time>2026-04-25T16:46:42Z</time></trkpt><trkpt lat="59.0753960609" lon="30.0216007233"><time>2026-04-25T16:46:45Z</time></trkpt><trkpt lat="59.0753960609" lon="30.0215578079"><time>2026-04-25T16:46:47Z</time></trkpt><trkpt lat="59.0753746033" lon="30.0215148926"><time>2026-04-25T16:46:50Z</time></trkpt><trkpt lat="59.0753746033" lon="30.0214934349"><time>2026-04-25T16:46:52Z</time></trkpt><trkpt lat="59.0753531456" lon="30.0214505196"><time>2026-04-25T16:46:55Z</time></trkpt><trkpt lat="59.0753531456" lon="30.0214076042"><time>2026-04-25T16:46:57Z</time></trkpt><trkpt lat="59.0753316879" lon="30.0213646889"><time>2026-04-25T16:47:00Z</time></trkpt><trkpt lat="59.0753316879" lon="30.0213217735"><time>2026-04-25T16:47:02Z</time></trkpt><trkpt lat="59.0753102303" lon="30.0212788582"><time>2026-04-25T16:47:05Z</time></trkpt><trkpt lat="59.0753102303" lon="30.0212359428"><time>2026-04-25T16:47:07Z</time></trkpt><trkpt lat="59.0753102303" lon="30.0212144852"><time>2026-04-25T16:47:10Z</time></trkpt><trkpt lat="59.0753102303" lon="30.0212144852"><time>2026-04-25T16:47:12Z</time></trkpt><trkpt lat="59.0753102303" lon="30.0212144852"><time>2026-04-25T16:47:15Z</time></trkpt><trkpt lat="59.0753102303" lon="30.0212144852"><time>2026-04-25T16:47:17Z</time></trkpt><trkpt lat="59.0753102303" lon="30.0211501122"><time>2026-04-25T16:47:20Z</time></trkpt><trkpt lat="59.0753102303" lon="30.0211286545"><time>2026-04-25T16:47:22Z</time></trkpt><trkpt lat="59.0753102303" lon="30.0210857391"><time>2026-04-25T16:47:25Z</time></trkpt><trkpt lat="59.0753102303" lon="30.0210642815"><time>2026-04-25T16:47:27Z</time></trkpt><trkpt lat="59.0752887726" lon="30.0210213661"><time>2026-04-25T16:47:30Z</time></trkpt><trkpt lat="59.0752887726" lon="30.0210213661"><time>2026-04-25T16:47:32Z</time></trkpt><trkpt lat="59.0752673149" lon="30.0209999084"><time>2026-04-25T16:47:35Z</time></trkpt><trkpt lat="59.0752673149" lon="30.0209784508"><time>2026-04-25T16:47:37Z</time></trkpt><trkpt lat="59.0752458572" lon="30.0209355354"><time>2026-04-25T16:47:40Z</time></trkpt><trkpt lat="59.0752458572" lon="30.0209140778"><time>2026-04-25T16:47:42Z</time></trkpt><trkpt lat="59.0752243996" lon="30.0208926201"><time>2026-04-25T16:47:45Z</time></trkpt><trkpt lat="59.0752029419" lon="30.0208497047"><time>2026-04-25T16:47:47Z</time></trkpt><trkpt lat="59.0752243996" lon="30.0207853317"><time>2026-04-25T16:47:50Z</time></trkpt><trkpt lat="59.0752243996" lon="30.0207638741"><time>2026-04-25T16:47:52Z</time></trkpt><trkpt lat="59.0752243996" lon="30.0207209587"><time>2026-04-25T16:47:55Z</time></trkpt><trkpt lat="59.0752243996" lon="30.0206995010"><time>2026-04-25T16:47:57Z</time></trkpt><trkpt lat="59.0752243996" lon="30.0206351280"><time>2026-04-25T16:48:00Z</time></trkpt><trkpt lat="59.0752243996" lon="30.0206136703"><time>2026-04-25T16:48:02Z</time></trkpt><trkpt lat="59.0752243996" lon="30.0205922127"><time>2026-04-25T16:48:05Z</time></trkpt><trkpt lat="59.0752243996" lon="30.0205922127"><time>2026-04-25T16:48:07Z</time></trkpt><trkpt lat="59.0752029419" lon="30.0205492973"><time>2026-04-25T16:48:10Z</time></trkpt><trkpt lat="59.0752029419" lon="30.0205278397"><time>2026-04-25T16:48:12Z</time></trkpt><trkpt lat="59.0751814842" lon="30.0204634666"><time>2026-04-25T16:48:15Z</time></trkpt><trkpt lat="59.0751814842" lon="30.0204420090"><time>2026-04-25T16:48:17Z</time></trkpt><trkpt lat="59.0751814842" lon="30.0203990936"><time>2026-04-25T16:48:20Z</time></trkpt><trkpt lat="59.0751814842" lon="30.0203776360"><time>2026-04-25T16:48:22Z</time></trkpt><trkpt lat="59.0751600266" lon="30.0203347206"><time>2026-04-25T16:48:25Z</time></trkpt><trkpt lat="59.0751600266" lon="30.0203132629"><time>2026-04-25T16:48:27Z</time></trkpt><trkpt lat="59.0751814842" lon="30.0202703476"><time>2026-04-25T16:48:30Z</time></trkpt><trkpt lat="59.0751600266" lon="30.0202488899"><time>2026-04-25T16:48:32Z</time></trkpt><trkpt lat="59.0751600266" lon="30.0202059746"><time>2026-04-25T16:48:35Z</time></trkpt><trkpt lat="59.0751385689" lon="30.0201845169"><time>2026-04-25T16:48:37Z</time></trkpt><trkpt lat="59.0751171112" lon="30.0201416016"><time>2026-04-25T16:48:40Z</time></trkpt><trkpt lat="59.0751171112" lon="30.0200986862"><time>2026-04-25T16:48:42Z</time></trkpt><trkpt lat="59.0751385689" lon="30.0200343132"><time>2026-04-25T16:48:45Z</time></trkpt><trkpt lat="59.0751171112" lon="30.0200128555"><time>2026-04-25T16:48:47Z</time></trkpt><trkpt lat="59.0750956535" lon="30.0199699402"><time>2026-04-25T16:48:50Z</time></trkpt><trkpt lat="59.0750956535" lon="30.0199484825"><time>2026-04-25T16:48:52Z</time></trkpt><trkpt lat="59.0750741959" lon="30.0199484825"><time>2026-04-25T16:48:55Z</time></trkpt><trkpt lat="59.0750741959" lon="30.0199484825"><time>2026-04-25T16:48:57Z</time></trkpt><trkpt lat="59.0750741959" lon="30.0199484825"><time>2026-04-25T16:49:00Z</time></trkpt><trkpt lat="59.0750741959" lon="30.0199484825"><time>2026-04-25T16:49:02Z</time></trkpt><trkpt lat="59.0750741959" lon="30.0199484825"><time>2026-04-25T16:49:05Z</time></trkpt><trkpt lat="59.0750741959" lon="30.0199484825"><time>2026-04-25T16:49:07Z</time></trkpt><trkpt lat="59.0750741959" lon="30.0199484825"><time>2026-04-25T16:49:10Z</time></trkpt><trkpt lat="59.0750527382" lon="30.0199484825"><time>2026-04-25T16:49:12Z</time></trkpt><trkpt lat="59.0750527382" lon="30.0199055672"><time>2026-04-25T16:49:15Z</time></trkpt><trkpt lat="59.0750312805" lon="30.0199055672"><time>2026-04-25T16:49:17Z</time></trkpt><trkpt lat="59.0750312805" lon="30.0199484825"><time>2026-04-25T16:49:20Z</time></trkpt><trkpt lat="59.0750312805" lon="30.0199484825"><time>2026-04-25T16:49:22Z</time></trkpt><trkpt lat="59.0750098228" lon="30.0199913979"><time>2026-04-25T16:49:25Z</time></trkpt><trkpt lat="59.0750098228" lon="30.0199913979"><time>2026-04-25T16:49:27Z</time></trkpt><trkpt lat="59.0749883652" lon="30.0199913979"><time>2026-04-25T16:49:30Z</time></trkpt><trkpt lat="59.0749669075" lon="30.0200128555"><time>2026-04-25T16:49:32Z</time></trkpt><trkpt lat="59.0749454498" lon="30.0200128555"><time>2026-04-25T16:49:35Z</time></trkpt><trkpt lat="59.0749239922" lon="30.0200128555"><time>2026-04-25T16:49:37Z</time></trkpt><trkpt lat="59.0749025345" lon="30.0199913979"><time>2026-04-25T16:49:40Z</time></trkpt><trkpt lat="59.0748810768" lon="30.0199913979"><time>2026-04-25T16:49:42Z</time></trkpt><trkpt lat="59.0748596191" lon="30.0200128555"><time>2026-04-25T16:49:45Z</time></trkpt><trkpt lat="59.0748381615" lon="30.0200343132"><time>2026-04-25T16:49:47Z</time></trkpt><trkpt lat="59.0748167038" lon="30.0200343132"><time>2026-04-25T16:49:50Z</time></trkpt><trkpt lat="59.0748167038" lon="30.0200557709"><time>2026-04-25T16:49:52Z</time></trkpt><trkpt lat="59.0747952461" lon="30.0200772285"><time>2026-04-25T16:49:55Z</time></trkpt><trkpt lat="59.0747737885" lon="30.0200986862"><time>2026-04-25T16:49:57Z</time></trkpt><trkpt lat="59.0747523308" lon="30.0201416016"><time>2026-04-25T16:50:00Z</time></trkpt><trkpt lat="59.0747308731" lon="30.0201630592"><time>2026-04-25T16:50:02Z</time></trkpt><trkpt lat="59.0747308731" lon="30.0201845169"><time>2026-04-25T16:50:05Z</time></trkpt><trkpt lat="59.0747094154" lon="30.0202059746"><time>2026-04-25T16:50:07Z</time></trkpt><trkpt lat="59.0747094154" lon="30.0202488899"><time>2026-04-25T16:50:10Z</time></trkpt><trkpt lat="59.0746879578" lon="30.0202703476"><time>2026-04-25T16:50:12Z</time></trkpt><trkpt lat="59.0746665001" lon="30.0202703476"><time>2026-04-25T16:50:15Z</time></trkpt><trkpt lat="59.0746665001" lon="30.0202703476"><time>2026-04-25T16:50:17Z</time></trkpt><trkpt lat="59.0746665001" lon="30.0202918053"><time>2026-04-25T16:50:20Z</time></trkpt><trkpt lat="59.0746665001" lon="30.0202918053"><time>2026-04-25T16:50:22Z</time></trkpt><trkpt lat="59.0746665001" lon="30.0202918053"><time>2026-04-25T16:50:25Z</time></trkpt><trkpt lat="59.0746665001" lon="30.0202918053"><time>2026-04-25T16:50:27Z</time></trkpt><trkpt lat="59.0746665001" lon="30.0202918053"><time>2026-04-25T16:50:30Z</time></trkpt><trkpt lat="59.0746665001" lon="30.0202918053"><time>2026-04-25T16:50:32Z</time></trkpt><trkpt lat="59.0746665001" lon="30.0202918053"><time>2026-04-25T16:50:35Z</time></trkpt><trkpt lat="59.0746665001" lon="30.0202918053"><time>2026-04-25T16:50:37Z</time></trkpt><trkpt lat="59.0746665001" lon="30.0202918053"><time>2026-04-25T16:50:40Z</time></trkpt><trkpt lat="59.0746665001" lon="30.0202918053"><time>2026-04-25T16:50:42Z</time></trkpt><trkpt lat="59.0746665001" lon="30.0202918053"><time>2026-04-25T16:50:45Z</time></trkpt><trkpt lat="59.0746665001" lon="30.0202918053"><time>2026-04-25T16:50:47Z</time></trkpt><trkpt lat="59.0746665001" lon="30.0202918053"><time>2026-04-25T16:50:50Z</time></trkpt><trkpt lat="59.0746665001" lon="30.0202918053"><time>2026-04-25T16:50:52Z</time></trkpt><trkpt lat="59.0746665001" lon="30.0202918053"><time>2026-04-25T16:50:55Z</time></trkpt><trkpt lat="59.0746665001" lon="30.0202918053"><time>2026-04-25T16:50:57Z</time></trkpt><trkpt lat="59.0746665001" lon="30.0202918053"><time>2026-04-25T16:51:00Z</time></trkpt><trkpt lat="59.0746665001" lon="30.0202918053"><time>2026-04-25T16:51:02Z</time></trkpt><trkpt lat="59.0746665001" lon="30.0202918053"><time>2026-04-25T16:51:05Z</time></trkpt><trkpt lat="59.0746665001" lon="30.0202918053"><time>2026-04-25T16:51:07Z</time></trkpt><trkpt lat="59.0746665001" lon="30.0202918053"><time>2026-04-25T16:51:10Z</time></trkpt><trkpt lat="59.0746665001" lon="30.0202918053"><time>2026-04-25T16:51:12Z</time></trkpt><trkpt lat="59.0746665001" lon="30.0202918053"><time>2026-04-25T16:51:15Z</time></trkpt><trkpt lat="59.0746665001" lon="30.0202918053"><time>2026-04-25T16:51:17Z</time></trkpt><trkpt lat="59.0746665001" lon="30.0202703476"><time>2026-04-25T16:51:20Z</time></trkpt><trkpt lat="59.0746665001" lon="30.0202703476"><time>2026-04-25T16:51:22Z</time></trkpt><trkpt lat="59.0746879578" lon="30.0203347206"><time>2026-04-25T16:51:25Z</time></trkpt><trkpt lat="59.0746879578" lon="30.0203776360"><time>2026-04-25T16:51:27Z</time></trkpt><trkpt lat="59.0746879578" lon="30.0203990936"><time>2026-04-25T16:51:30Z</time></trkpt><trkpt lat="59.0746879578" lon="30.0203990936"><time>2026-04-25T16:51:32Z</time></trkpt><trkpt lat="59.0746879578" lon="30.0203990936"><time>2026-04-25T16:51:35Z</time></trkpt><trkpt lat="59.0746879578" lon="30.0203990936"><time>2026-04-25T16:51:37Z</time></trkpt><trkpt lat="59.0746879578" lon="30.0203990936"><time>2026-04-25T16:51:40Z</time></trkpt><trkpt lat="59.0746879578" lon="30.0203990936"><time>2026-04-25T16:51:42Z</time></trkpt><trkpt lat="59.0747094154" lon="30.0204634666"><time>2026-04-25T16:51:45Z</time></trkpt><trkpt lat="59.0747308731" lon="30.0205278397"><time>2026-04-25T16:51:47Z</time></trkpt><trkpt lat="59.0747308731" lon="30.0205707550"><time>2026-04-25T16:51:50Z</time></trkpt><trkpt lat="59.0747308731" lon="30.0206136703"><time>2026-04-25T16:51:52Z</time></trkpt><trkpt lat="59.0747308731" lon="30.0206565857"><time>2026-04-25T16:51:55Z</time></trkpt><trkpt lat="59.0747308731" lon="30.0206995010"><time>2026-04-25T16:51:57Z</time></trkpt><trkpt lat="59.0747523308" lon="30.0207853317"><time>2026-04-25T16:52:00Z</time></trkpt><trkpt lat="59.0747523308" lon="30.0208282471"><time>2026-04-25T16:52:02Z</time></trkpt><trkpt lat="59.0747737885" lon="30.0208711624"><time>2026-04-25T16:52:05Z</time></trkpt><trkpt lat="59.0747737885" lon="30.0209140778"><time>2026-04-25T16:52:07Z</time></trkpt><trkpt lat="59.0747952461" lon="30.0209569931"><time>2026-04-25T16:52:10Z</time></trkpt><trkpt lat="59.0747952461" lon="30.0209784508"><time>2026-04-25T16:52:12Z</time></trkpt><trkpt lat="59.0748167038" lon="30.0209999084"><time>2026-04-25T16:52:15Z</time></trkpt><trkpt lat="59.0748167038" lon="30.0210213661"><time>2026-04-25T16:52:17Z</time></trkpt><trkpt lat="59.0748167038" lon="30.0210642815"><time>2026-04-25T16:52:20Z</time></trkpt><trkpt lat="59.0748167038" lon="30.0211071968"><time>2026-04-25T16:52:22Z</time></trkpt><trkpt lat="59.0748167038" lon="30.0211501122"><time>2026-04-25T16:52:25Z</time></trkpt><trkpt lat="59.0748167038" lon="30.0211715698"><time>2026-04-25T16:52:27Z</time></trkpt><trkpt lat="59.0748167038" lon="30.0212144852"><time>2026-04-25T16:52:30Z</time></trkpt><trkpt lat="59.0748167038" lon="30.0212359428"><time>2026-04-25T16:52:32Z</time></trkpt><trkpt lat="59.0748381615" lon="30.0213003159"><time>2026-04-25T16:52:35Z</time></trkpt><trkpt lat="59.0748381615" lon="30.0213217735"><time>2026-04-25T16:52:37Z</time></trkpt><trkpt lat="59.0748596191" lon="30.0213646889"><time>2026-04-25T16:52:40Z</time></trkpt><trkpt lat="59.0748596191" lon="30.0214076042"><time>2026-04-25T16:52:42Z</time></trkpt><trkpt lat="59.0748596191" lon="30.0214505196"><time>2026-04-25T16:52:45Z</time></trkpt><trkpt lat="59.0748596191" lon="30.0214719772"><time>2026-04-25T16:52:47Z</time></trkpt><trkpt lat="59.0748810768" lon="30.0214934349"><time>2026-04-25T16:52:50Z</time></trkpt><trkpt lat="59.0748810768" lon="30.0215363503"><time>2026-04-25T16:52:52Z</time></trkpt><trkpt lat="59.0748810768" lon="30.0215792656"><time>2026-04-25T16:52:55Z</time></trkpt><trkpt lat="59.0748596191" lon="30.0216221809"><time>2026-04-25T16:52:57Z</time></trkpt><trkpt lat="59.0748810768" lon="30.0216650963"><time>2026-04-25T16:53:00Z</time></trkpt><trkpt lat="59.0748810768" lon="30.0217080116"><time>2026-04-25T16:53:02Z</time></trkpt><trkpt lat="59.0748810768" lon="30.0217723846"><time>2026-04-25T16:53:05Z</time></trkpt><trkpt lat="59.0748810768" lon="30.0218153000"><time>2026-04-25T16:53:07Z</time></trkpt><trkpt lat="59.0748810768" lon="30.0218367577"><time>2026-04-25T16:53:10Z</time></trkpt><trkpt lat="59.0748810768" lon="30.0218582153"><time>2026-04-25T16:53:12Z</time></trkpt><trkpt lat="59.0748810768" lon="30.0218796730"><time>2026-04-25T16:53:15Z</time></trkpt><trkpt lat="59.0748810768" lon="30.0218796730"><time>2026-04-25T16:53:17Z</time></trkpt><trkpt lat="59.0748810768" lon="30.0218796730"><time>2026-04-25T16:53:20Z</time></trkpt><trkpt lat="59.0748810768" lon="30.0218796730"><time>2026-04-25T16:53:22Z</time></trkpt><trkpt lat="59.0748810768" lon="30.0218796730"><time>2026-04-25T16:53:25Z</time></trkpt><trkpt lat="59.0748810768" lon="30.0218796730"><time>2026-04-25T16:53:27Z</time></trkpt><trkpt lat="59.0748810768" lon="30.0218796730"><time>2026-04-25T16:53:30Z</time></trkpt><trkpt lat="59.0748810768" lon="30.0218796730"><time>2026-04-25T16:53:32Z</time></trkpt><trkpt lat="59.0748810768" lon="30.0218796730"><time>2026-04-25T16:53:35Z</time></trkpt><trkpt lat="59.0748810768" lon="30.0218796730"><time>2026-04-25T16:53:37Z</time></trkpt><trkpt lat="59.0748810768" lon="30.0219225883"><time>2026-04-25T16:53:40Z</time></trkpt><trkpt lat="59.0748810768" lon="30.0219440460"><time>2026-04-25T16:53:42Z</time></trkpt><trkpt lat="59.0748810768" lon="30.0220084190"><time>2026-04-25T16:53:45Z</time></trkpt><trkpt lat="59.0748596191" lon="30.0220084190"><time>2026-04-25T16:53:47Z</time></trkpt><trkpt lat="59.0748167038" lon="30.0220298767"><time>2026-04-25T16:53:50Z</time></trkpt><trkpt lat="59.0747952461" lon="30.0220298767"><time>2026-04-25T16:53:52Z</time></trkpt><trkpt lat="59.0747737885" lon="30.0220298767"><time>2026-04-25T16:53:55Z</time></trkpt><trkpt lat="59.0747737885" lon="30.0220513344"><time>2026-04-25T16:53:57Z</time></trkpt><trkpt lat="59.0747523308" lon="30.0220942497"><time>2026-04-25T16:54:00Z</time></trkpt><trkpt lat="59.0747523308" lon="30.0221157074"><time>2026-04-25T16:54:02Z</time></trkpt><trkpt lat="59.0747308731" lon="30.0221157074"><time>2026-04-25T16:54:05Z</time></trkpt><trkpt lat="59.0747094154" lon="30.0221371651"><time>2026-04-25T16:54:07Z</time></trkpt><trkpt lat="59.0746879578" lon="30.0221371651"><time>2026-04-25T16:54:10Z</time></trkpt><trkpt lat="59.0746879578" lon="30.0221371651"><time>2026-04-25T16:54:12Z</time></trkpt><trkpt lat="59.0746665001" lon="30.0220942497"><time>2026-04-25T16:54:15Z</time></trkpt><trkpt lat="59.0746450424" lon="30.0221157074"><time>2026-04-25T16:54:17Z</time></trkpt><trkpt lat="59.0746021271" lon="30.0221157074"><time>2026-04-25T16:54:20Z</time></trkpt><trkpt lat="59.0746021271" lon="30.0221371651"><time>2026-04-25T16:54:22Z</time></trkpt><trkpt lat="59.0746021271" lon="30.0222015381"><time>2026-04-25T16:54:25Z</time></trkpt><trkpt lat="59.0745806694" lon="30.0222015381"><time>2026-04-25T16:54:27Z</time></trkpt><trkpt lat="59.0745377541" lon="30.0222015381"><time>2026-04-25T16:54:30Z</time></trkpt><trkpt lat="59.0745377541" lon="30.0222229958"><time>2026-04-25T16:54:32Z</time></trkpt><trkpt lat="59.0745162964" lon="30.0222444534"><time>2026-04-25T16:54:35Z</time></trkpt><trkpt lat="59.0744948387" lon="30.0222873688"><time>2026-04-25T16:54:37Z</time></trkpt><trkpt lat="59.0744733810" lon="30.0223088264"><time>2026-04-25T16:54:40Z</time></trkpt><trkpt lat="59.0744519234" lon="30.0223088264"><time>2026-04-25T16:54:42Z</time></trkpt><trkpt lat="59.0744304657" lon="30.0223088264"><time>2026-04-25T16:54:45Z</time></trkpt><trkpt lat="59.0744304657" lon="30.0223088264"><time>2026-04-25T16:54:47Z</time></trkpt><trkpt lat="59.0744304657" lon="30.0223088264"><time>2026-04-25T16:54:50Z</time></trkpt><trkpt lat="59.0744090080" lon="30.0223088264"><time>2026-04-25T16:54:52Z</time></trkpt><trkpt lat="59.0744090080" lon="30.0223088264"><time>2026-04-25T16:54:55Z</time></trkpt><trkpt lat="59.0744090080" lon="30.0223088264"><time>2026-04-25T16:54:57Z</time></trkpt><trkpt lat="59.0743875504" lon="30.0223302841"><time>2026-04-25T16:55:00Z</time></trkpt><trkpt lat="59.0743660927" lon="30.0223088264"><time>2026-04-25T16:55:02Z</time></trkpt><trkpt lat="59.0743446350" lon="30.0223517418"><time>2026-04-25T16:55:05Z</time></trkpt><trkpt lat="59.0743231773" lon="30.0223731995"><time>2026-04-25T16:55:07Z</time></trkpt><trkpt lat="59.0743017197" lon="30.0223946571"><time>2026-04-25T16:55:10Z</time></trkpt><trkpt lat="59.0742802620" lon="30.0223946571"><time>2026-04-25T16:55:12Z</time></trkpt><trkpt lat="59.0742588043" lon="30.0223731995"><time>2026-04-25T16:55:15Z</time></trkpt><trkpt lat="59.0742373466" lon="30.0223731995"><time>2026-04-25T16:55:17Z</time></trkpt><trkpt lat="59.0742373466" lon="30.0223731995"><time>2026-04-25T16:55:20Z</time></trkpt><trkpt lat="59.0742373466" lon="30.0223731995"><time>2026-04-25T16:55:22Z</time></trkpt><trkpt lat="59.0742373466" lon="30.0223731995"><time>2026-04-25T16:55:25Z</time></trkpt><trkpt lat="59.0742373466" lon="30.0223731995"><time>2026-04-25T16:55:27Z</time></trkpt><trkpt lat="59.0742373466" lon="30.0223731995"><time>2026-04-25T16:55:30Z</time></trkpt><trkpt lat="59.0742158890" lon="30.0223302841"><time>2026-04-25T16:55:32Z</time></trkpt><trkpt lat="59.0742158890" lon="30.0223088264"><time>2026-04-25T16:55:35Z</time></trkpt><trkpt lat="59.0742158890" lon="30.0222873688"><time>2026-04-25T16:55:37Z</time></trkpt><trkpt lat="59.0741944313" lon="30.0222444534"><time>2026-04-25T16:55:40Z</time></trkpt><trkpt lat="59.0741944313" lon="30.0222015381"><time>2026-04-25T16:55:42Z</time></trkpt><trkpt lat="59.0741729736" lon="30.0221371651"><time>2026-04-25T16:55:45Z</time></trkpt><trkpt lat="59.0741729736" lon="30.0221157074"><time>2026-04-25T16:55:47Z</time></trkpt><trkpt lat="59.0741515160" lon="30.0221157074"><time>2026-04-25T16:55:50Z</time></trkpt><trkpt lat="59.0741515160" lon="30.0221157074"><time>2026-04-25T16:55:52Z</time></trkpt><trkpt lat="59.0741944313" lon="30.0221157074"><time>2026-04-25T16:55:55Z</time></trkpt><trkpt lat="59.0742158890" lon="30.0220942497"><time>2026-04-25T16:55:57Z</time></trkpt><trkpt lat="59.0742373466" lon="30.0220513344"><time>2026-04-25T16:56:00Z</time></trkpt><trkpt lat="59.0742373466" lon="30.0220513344"><time>2026-04-25T16:56:02Z</time></trkpt><trkpt lat="59.0742373466" lon="30.0219869614"><time>2026-04-25T16:56:05Z</time></trkpt><trkpt lat="59.0742373466" lon="30.0219440460"><time>2026-04-25T16:56:07Z</time></trkpt><trkpt lat="59.0742373466" lon="30.0219225883"><time>2026-04-25T16:56:10Z</time></trkpt><trkpt lat="59.0742373466" lon="30.0218796730"><time>2026-04-25T16:56:12Z</time></trkpt><trkpt lat="59.0742373466" lon="30.0218367577"><time>2026-04-25T16:56:15Z</time></trkpt><trkpt lat="59.0742373466" lon="30.0217938423"><time>2026-04-25T16:56:17Z</time></trkpt><trkpt lat="59.0742373466" lon="30.0217509270"><time>2026-04-25T16:56:20Z</time></trkpt><trkpt lat="59.0742373466" lon="30.0217080116"><time>2026-04-25T16:56:22Z</time></trkpt><trkpt lat="59.0742373466" lon="30.0216436386"><time>2026-04-25T16:56:25Z</time></trkpt><trkpt lat="59.0742373466" lon="30.0216221809"><time>2026-04-25T16:56:27Z</time></trkpt><trkpt lat="59.0742158890" lon="30.0215792656"><time>2026-04-25T16:56:30Z</time></trkpt><trkpt lat="59.0741944313" lon="30.0215578079"><time>2026-04-25T16:56:32Z</time></trkpt><trkpt lat="59.0741944313" lon="30.0215148926"><time>2026-04-25T16:56:35Z</time></trkpt><trkpt lat="59.0741729736" lon="30.0214934349"><time>2026-04-25T16:56:37Z</time></trkpt><trkpt lat="59.0741944313" lon="30.0214505196"><time>2026-04-25T16:56:40Z</time></trkpt><trkpt lat="59.0741944313" lon="30.0214505196"><time>2026-04-25T16:56:42Z</time></trkpt><trkpt lat="59.0742158890" lon="30.0214505196"><time>2026-04-25T16:56:45Z</time></trkpt><trkpt lat="59.0742158890" lon="30.0214076042"><time>2026-04-25T16:56:47Z</time></trkpt><trkpt lat="59.0741944313" lon="30.0213646889"><time>2026-04-25T16:56:50Z</time></trkpt><trkpt lat="59.0741944313" lon="30.0213217735"><time>2026-04-25T16:56:52Z</time></trkpt><trkpt lat="59.0741944313" lon="30.0212574005"><time>2026-04-25T16:56:55Z</time></trkpt><trkpt lat="59.0742158890" lon="30.0212144852"><time>2026-04-25T16:56:57Z</time></trkpt><trkpt lat="59.0741944313" lon="30.0211715698"><time>2026-04-25T16:57:00Z</time></trkpt><trkpt lat="59.0741944313" lon="30.0211071968"><time>2026-04-25T16:57:02Z</time></trkpt><trkpt lat="59.0741944313" lon="30.0210428238"><time>2026-04-25T16:57:05Z</time></trkpt><trkpt lat="59.0741944313" lon="30.0210213661"><time>2026-04-25T16:57:07Z</time></trkpt><trkpt lat="59.0742158890" lon="30.0209784508"><time>2026-04-25T16:57:10Z</time></trkpt><trkpt lat="59.0741944313" lon="30.0209355354"><time>2026-04-25T16:57:12Z</time></trkpt><trkpt lat="59.0742158890" lon="30.0208711624"><time>2026-04-25T16:57:15Z</time></trkpt><trkpt lat="59.0742158890" lon="30.0208497047"><time>2026-04-25T16:57:17Z</time></trkpt><trkpt lat="59.0742373466" lon="30.0208067894"><time>2026-04-25T16:57:20Z</time></trkpt><trkpt lat="59.0742373466" lon="30.0207638741"><time>2026-04-25T16:57:22Z</time></trkpt><trkpt lat="59.0742373466" lon="30.0206995010"><time>2026-04-25T16:57:25Z</time></trkpt><trkpt lat="59.0742373466" lon="30.0206995010"><time>2026-04-25T16:57:27Z</time></trkpt><trkpt lat="59.0742373466" lon="30.0206995010"><time>2026-04-25T16:57:30Z</time></trkpt><trkpt lat="59.0742373466" lon="30.0206995010"><time>2026-04-25T16:57:32Z</time></trkpt><trkpt lat="59.0742158890" lon="30.0206565857"><time>2026-04-25T16:57:35Z</time></trkpt><trkpt lat="59.0742158890" lon="30.0206351280"><time>2026-04-25T16:57:37Z</time></trkpt><trkpt lat="59.0742158890" lon="30.0205922127"><time>2026-04-25T16:57:40Z</time></trkpt><trkpt lat="59.0741944313" lon="30.0205492973"><time>2026-04-25T16:57:42Z</time></trkpt><trkpt lat="59.0741729736" lon="30.0205278397"><time>2026-04-25T16:57:45Z</time></trkpt><trkpt lat="59.0741515160" lon="30.0205063820"><time>2026-04-25T16:57:47Z</time></trkpt><trkpt lat="59.0741300583" lon="30.0204634666"><time>2026-04-25T16:57:50Z</time></trkpt><trkpt lat="59.0741300583" lon="30.0204420090"><time>2026-04-25T16:57:52Z</time></trkpt><trkpt lat="59.0741086006" lon="30.0204205513"><time>2026-04-25T16:57:55Z</time></trkpt><trkpt lat="59.0741086006" lon="30.0203776360"><time>2026-04-25T16:57:57Z</time></trkpt><trkpt lat="59.0741086006" lon="30.0203776360"><time>2026-04-25T16:58:00Z</time></trkpt><trkpt lat="59.0741086006" lon="30.0203776360"><time>2026-04-25T16:58:02Z</time></trkpt><trkpt lat="59.0741086006" lon="30.0203561783"><time>2026-04-25T16:58:05Z</time></trkpt><trkpt lat="59.0740871429" lon="30.0203347206"><time>2026-04-25T16:58:07Z</time></trkpt><trkpt lat="59.0740656853" lon="30.0203561783"><time>2026-04-25T16:58:10Z</time></trkpt><trkpt lat="59.0740442276" lon="30.0203776360"><time>2026-04-25T16:58:12Z</time></trkpt><trkpt lat="59.0740227699" lon="30.0203990936"><time>2026-04-25T16:58:15Z</time></trkpt><trkpt lat="59.0740227699" lon="30.0203990936"><time>2026-04-25T16:58:17Z</time></trkpt><trkpt lat="59.0739798546" lon="30.0204205513"><time>2026-04-25T16:58:20Z</time></trkpt><trkpt lat="59.0739583969" lon="30.0204205513"><time>2026-04-25T16:58:22Z</time></trkpt><trkpt lat="59.0739583969" lon="30.0204205513"><time>2026-04-25T16:58:25Z</time></trkpt><trkpt lat="59.0739583969" lon="30.0204205513"><time>2026-04-25T16:58:27Z</time></trkpt><trkpt lat="59.0739583969" lon="30.0204205513"><time>2026-04-25T16:58:30Z</time></trkpt><trkpt lat="59.0739583969" lon="30.0204205513"><time>2026-04-25T16:58:32Z</time></trkpt><trkpt lat="59.0739369392" lon="30.0204420090"><time>2026-04-25T16:58:35Z</time></trkpt><trkpt lat="59.0739369392" lon="30.0204420090"><time>2026-04-25T16:58:37Z</time></trkpt><trkpt lat="59.0739369392" lon="30.0204420090"><time>2026-04-25T16:58:40Z</time></trkpt><trkpt lat="59.0739154816" lon="30.0204634666"><time>2026-04-25T16:58:42Z</time></trkpt><trkpt lat="59.0738940239" lon="30.0205063820"><time>2026-04-25T16:58:45Z</time></trkpt><trkpt lat="59.0738725662" lon="30.0205063820"><time>2026-04-25T16:58:47Z</time></trkpt><trkpt lat="59.0738511086" lon="30.0205278397"><time>2026-04-25T16:58:50Z</time></trkpt><trkpt lat="59.0738296509" lon="30.0205492973"><time>2026-04-25T16:58:52Z</time></trkpt><trkpt lat="59.0738081932" lon="30.0205707550"><time>2026-04-25T16:58:55Z</time></trkpt><trkpt lat="59.0737867355" lon="30.0205922127"><time>2026-04-25T16:58:57Z</time></trkpt><trkpt lat="59.0737652779" lon="30.0205922127"><time>2026-04-25T16:59:00Z</time></trkpt><trkpt lat="59.0737438202" lon="30.0206136703"><time>2026-04-25T16:59:02Z</time></trkpt><trkpt lat="59.0737223625" lon="30.0206565857"><time>2026-04-25T16:59:05Z</time></trkpt><trkpt lat="59.0737009048" lon="30.0206780434"><time>2026-04-25T16:59:07Z</time></trkpt><trkpt lat="59.0737009048" lon="30.0206780434"><time>2026-04-25T16:59:10Z</time></trkpt><trkpt lat="59.0737009048" lon="30.0206780434"><time>2026-04-25T16:59:12Z</time></trkpt><trkpt lat="59.0736794472" lon="30.0206780434"><time>2026-04-25T16:59:15Z</time></trkpt><trkpt lat="59.0736579895" lon="30.0206780434"><time>2026-04-25T16:59:17Z</time></trkpt><trkpt lat="59.0736150742" lon="30.0206995010"><time>2026-04-25T16:59:20Z</time></trkpt><trkpt lat="59.0736150742" lon="30.0207209587"><time>2026-04-25T16:59:22Z</time></trkpt><trkpt lat="59.0735936165" lon="30.0207638741"><time>2026-04-25T16:59:25Z</time></trkpt><trkpt lat="59.0735721588" lon="30.0207853317"><time>2026-04-25T16:59:27Z</time></trkpt><trkpt lat="59.0735507011" lon="30.0207853317"><time>2026-04-25T16:59:30Z</time></trkpt><trkpt lat="59.0735507011" lon="30.0207853317"><time>2026-04-25T16:59:32Z</time></trkpt><trkpt lat="59.0735507011" lon="30.0207853317"><time>2026-04-25T16:59:35Z</time></trkpt><trkpt lat="59.0735507011" lon="30.0207853317"><time>2026-04-25T16:59:37Z</time></trkpt><trkpt lat="59.0735507011" lon="30.0207853317"><time>2026-04-25T16:59:40Z</time></trkpt><trkpt lat="59.0735507011" lon="30.0207853317"><time>2026-04-25T16:59:42Z</time></trkpt><trkpt lat="59.0735721588" lon="30.0208282471"><time>2026-04-25T16:59:45Z</time></trkpt><trkpt lat="59.0735936165" lon="30.0208497047"><time>2026-04-25T16:59:47Z</time></trkpt><trkpt lat="59.0736150742" lon="30.0208711624"><time>2026-04-25T16:59:50Z</time></trkpt><trkpt lat="59.0736150742" lon="30.0208926201"><time>2026-04-25T16:59:52Z</time></trkpt><trkpt lat="59.0735936165" lon="30.0209569931"><time>2026-04-25T16:59:55Z</time></trkpt><trkpt lat="59.0735936165" lon="30.0209999084"><time>2026-04-25T16:59:57Z</time></trkpt><trkpt lat="59.0735936165" lon="30.0210213661"><time>2026-04-25T17:00:00Z</time></trkpt><trkpt lat="59.0735936165" lon="30.0210642815"><time>2026-04-25T17:00:02Z</time></trkpt><trkpt lat="59.0735936165" lon="30.0210857391"><time>2026-04-25T17:00:05Z</time></trkpt><trkpt lat="59.0735936165" lon="30.0210857391"><time>2026-04-25T17:00:07Z</time></trkpt><trkpt lat="59.0735936165" lon="30.0210857391"><time>2026-04-25T17:00:10Z</time></trkpt><trkpt lat="59.0735936165" lon="30.0210857391"><time>2026-04-25T17:00:12Z</time></trkpt><trkpt lat="59.0735936165" lon="30.0211071968"><time>2026-04-25T17:00:15Z</time></trkpt><trkpt lat="59.0735936165" lon="30.0211501122"><time>2026-04-25T17:00:17Z</time></trkpt><trkpt lat="59.0736150742" lon="30.0211715698"><time>2026-04-25T17:00:20Z</time></trkpt><trkpt lat="59.0736365318" lon="30.0212144852"><time>2026-04-25T17:00:22Z</time></trkpt><trkpt lat="59.0736365318" lon="30.0212144852"><time>2026-04-25T17:00:25Z</time></trkpt><trkpt lat="59.0736365318" lon="30.0212144852"><time>2026-04-25T17:00:27Z</time></trkpt><trkpt lat="59.0736365318" lon="30.0212144852"><time>2026-04-25T17:00:30Z</time></trkpt><trkpt lat="59.0736365318" lon="30.0212144852"><time>2026-04-25T17:00:32Z</time></trkpt><trkpt lat="59.0736150742" lon="30.0212359428"><time>2026-04-25T17:00:35Z</time></trkpt><trkpt lat="59.0736150742" lon="30.0212359428"><time>2026-04-25T17:00:37Z</time></trkpt><trkpt lat="59.0736150742" lon="30.0212359428"><time>2026-04-25T17:00:40Z</time></trkpt><trkpt lat="59.0736150742" lon="30.0212359428"><time>2026-04-25T17:00:42Z</time></trkpt><trkpt lat="59.0736150742" lon="30.0212359428"><time>2026-04-25T17:00:45Z</time></trkpt><trkpt lat="59.0736150742" lon="30.0212359428"><time>2026-04-25T17:00:47Z</time></trkpt><trkpt lat="59.0736150742" lon="30.0212359428"><time>2026-04-25T17:00:50Z</time></trkpt><trkpt lat="59.0736150742" lon="30.0212574005"><time>2026-04-25T17:00:52Z</time></trkpt><trkpt lat="59.0735936165" lon="30.0212788582"><time>2026-04-25T17:00:55Z</time></trkpt><trkpt lat="59.0735721588" lon="30.0212574005"><time>2026-04-25T17:00:57Z</time></trkpt><trkpt lat="59.0735936165" lon="30.0212788582"><time>2026-04-25T17:01:00Z</time></trkpt><trkpt lat="59.0735936165" lon="30.0212788582"><time>2026-04-25T17:01:02Z</time></trkpt><trkpt lat="59.0735936165" lon="30.0213003159"><time>2026-04-25T17:01:05Z</time></trkpt><trkpt lat="59.0735936165" lon="30.0213217735"><time>2026-04-25T17:01:07Z</time></trkpt><trkpt lat="59.0735936165" lon="30.0213861465"><time>2026-04-25T17:01:10Z</time></trkpt><trkpt lat="59.0736150742" lon="30.0214076042"><time>2026-04-25T17:01:12Z</time></trkpt><trkpt lat="59.0735936165" lon="30.0214505196"><time>2026-04-25T17:01:15Z</time></trkpt><trkpt lat="59.0735936165" lon="30.0214719772"><time>2026-04-25T17:01:17Z</time></trkpt><trkpt lat="59.0736150742" lon="30.0214719772"><time>2026-04-25T17:01:20Z</time></trkpt><trkpt lat="59.0736150742" lon="30.0214934349"><time>2026-04-25T17:01:22Z</time></trkpt><trkpt lat="59.0736150742" lon="30.0215363503"><time>2026-04-25T17:01:25Z</time></trkpt><trkpt lat="59.0736150742" lon="30.0215578079"><time>2026-04-25T17:01:27Z</time></trkpt><trkpt lat="59.0736365318" lon="30.0215792656"><time>2026-04-25T17:01:30Z</time></trkpt><trkpt lat="59.0736365318" lon="30.0216007233"><time>2026-04-25T17:01:32Z</time></trkpt><trkpt lat="59.0736579895" lon="30.0216436386"><time>2026-04-25T17:01:35Z</time></trkpt><trkpt lat="59.0736579895" lon="30.0216865540"><time>2026-04-25T17:01:37Z</time></trkpt><trkpt lat="59.0736365318" lon="30.0217294693"><time>2026-04-25T17:01:40Z</time></trkpt><trkpt lat="59.0736365318" lon="30.0217723846"><time>2026-04-25T17:01:42Z</time></trkpt><trkpt lat="59.0736150742" lon="30.0218153000"><time>2026-04-25T17:01:45Z</time></trkpt><trkpt lat="59.0736365318" lon="30.0218367577"><time>2026-04-25T17:01:47Z</time></trkpt><trkpt lat="59.0736365318" lon="30.0219011307"><time>2026-04-25T17:01:50Z</time></trkpt><trkpt lat="59.0736365318" lon="30.0219225883"><time>2026-04-25T17:01:52Z</time></trkpt><trkpt lat="59.0736365318" lon="30.0219655037"><time>2026-04-25T17:01:55Z</time></trkpt><trkpt lat="59.0736365318" lon="30.0220084190"><time>2026-04-25T17:01:57Z</time></trkpt><trkpt lat="59.0736365318" lon="30.0220513344"><time>2026-04-25T17:02:00Z</time></trkpt><trkpt lat="59.0736365318" lon="30.0220727921"><time>2026-04-25T17:02:02Z</time></trkpt><trkpt lat="59.0736365318" lon="30.0220727921"><time>2026-04-25T17:02:05Z</time></trkpt><trkpt lat="59.0736579895" lon="30.0221157074"><time>2026-04-25T17:02:07Z</time></trkpt><trkpt lat="59.0736579895" lon="30.0221371651"><time>2026-04-25T17:02:10Z</time></trkpt><trkpt lat="59.0736579895" lon="30.0221800804"><time>2026-04-25T17:02:12Z</time></trkpt><trkpt lat="59.0736579895" lon="30.0222015381"><time>2026-04-25T17:02:15Z</time></trkpt><trkpt lat="59.0736579895" lon="30.0222229958"><time>2026-04-25T17:02:17Z</time></trkpt><trkpt lat="59.0736794472" lon="30.0222873688"><time>2026-04-25T17:02:20Z</time></trkpt><trkpt lat="59.0736579895" lon="30.0223088264"><time>2026-04-25T17:02:22Z</time></trkpt><trkpt lat="59.0736794472" lon="30.0223517418"><time>2026-04-25T17:02:25Z</time></trkpt><trkpt lat="59.0737009048" lon="30.0223731995"><time>2026-04-25T17:02:27Z</time></trkpt><trkpt lat="59.0737009048" lon="30.0224161148"><time>2026-04-25T17:02:30Z</time></trkpt><trkpt lat="59.0737009048" lon="30.0224161148"><time>2026-04-25T17:02:32Z</time></trkpt><trkpt lat="59.0737009048" lon="30.0224161148"><time>2026-04-25T17:02:35Z</time></trkpt><trkpt lat="59.0737009048" lon="30.0224161148"><time>2026-04-25T17:02:37Z</time></trkpt><trkpt lat="59.0737009048" lon="30.0224161148"><time>2026-04-25T17:02:40Z</time></trkpt><trkpt lat="59.0737009048" lon="30.0224161148"><time>2026-04-25T17:02:42Z</time></trkpt><trkpt lat="59.0737009048" lon="30.0224161148"><time>2026-04-25T17:02:45Z</time></trkpt><trkpt lat="59.0736794472" lon="30.0224375725"><time>2026-04-25T17:02:47Z</time></trkpt><trkpt lat="59.0736579895" lon="30.0224590302"><time>2026-04-25T17:02:50Z</time></trkpt><trkpt lat="59.0736365318" lon="30.0224590302"><time>2026-04-25T17:02:52Z</time></trkpt><trkpt lat="59.0736150742" lon="30.0224590302"><time>2026-04-25T17:02:55Z</time></trkpt><trkpt lat="59.0735936165" lon="30.0224804878"><time>2026-04-25T17:02:57Z</time></trkpt><trkpt lat="59.0735721588" lon="30.0224804878"><time>2026-04-25T17:03:00Z</time></trkpt><trkpt lat="59.0735507011" lon="30.0225019455"><time>2026-04-25T17:03:02Z</time></trkpt><trkpt lat="59.0735292435" lon="30.0224804878"><time>2026-04-25T17:03:05Z</time></trkpt><trkpt lat="59.0735077858" lon="30.0224804878"><time>2026-04-25T17:03:07Z</time></trkpt><trkpt lat="59.0734863281" lon="30.0224590302"><time>2026-04-25T17:03:10Z</time></trkpt><trkpt lat="59.0734863281" lon="30.0224590302"><time>2026-04-25T17:03:12Z</time></trkpt><trkpt lat="59.0734648705" lon="30.0224590302"><time>2026-04-25T17:03:15Z</time></trkpt><trkpt lat="59.0734648705" lon="30.0224590302"><time>2026-04-25T17:03:17Z</time></trkpt><trkpt lat="59.0734219551" lon="30.0224590302"><time>2026-04-25T17:03:20Z</time></trkpt><trkpt lat="59.0734219551" lon="30.0224804878"><time>2026-04-25T17:03:22Z</time></trkpt><trkpt lat="59.0733790398" lon="30.0225234032"><time>2026-04-25T17:03:25Z</time></trkpt><trkpt lat="59.0733790398" lon="30.0225448608"><time>2026-04-25T17:03:27Z</time></trkpt><trkpt lat="59.0733575821" lon="30.0225877762"><time>2026-04-25T17:03:30Z</time></trkpt><trkpt lat="59.0733575821" lon="30.0226092339"><time>2026-04-25T17:03:32Z</time></trkpt><trkpt lat="59.0733361244" lon="30.0226521492"><time>2026-04-25T17:03:35Z</time></trkpt><trkpt lat="59.0733146667" lon="30.0226521492"><time>2026-04-25T17:03:37Z</time></trkpt><trkpt lat="59.0732932091" lon="30.0226521492"><time>2026-04-25T17:03:40Z</time></trkpt><trkpt lat="59.0732717514" lon="30.0226736069"><time>2026-04-25T17:03:42Z</time></trkpt><trkpt lat="59.0732502937" lon="30.0226736069"><time>2026-04-25T17:03:45Z</time></trkpt><trkpt lat="59.0732502937" lon="30.0226736069"><time>2026-04-25T17:03:47Z</time></trkpt><trkpt lat="59.0732502937" lon="30.0226736069"><time>2026-04-25T17:03:50Z</time></trkpt><trkpt lat="59.0732502937" lon="30.0226736069"><time>2026-04-25T17:03:52Z</time></trkpt><trkpt lat="59.0732288361" lon="30.0226950645"><time>2026-04-25T17:03:55Z</time></trkpt><trkpt lat="59.0732288361" lon="30.0226950645"><time>2026-04-25T17:03:57Z</time></trkpt><trkpt lat="59.0732288361" lon="30.0226950645"><time>2026-04-25T17:04:00Z</time></trkpt><trkpt lat="59.0732288361" lon="30.0226950645"><time>2026-04-25T17:04:02Z</time></trkpt><trkpt lat="59.0732073784" lon="30.0227165222"><time>2026-04-25T17:04:05Z</time></trkpt><trkpt lat="59.0732073784" lon="30.0227165222"><time>2026-04-25T17:04:07Z</time></trkpt><trkpt lat="59.0731859207" lon="30.0227379799"><time>2026-04-25T17:04:10Z</time></trkpt><trkpt lat="59.0731859207" lon="30.0227379799"><time>2026-04-25T17:04:12Z</time></trkpt><trkpt lat="59.0731859207" lon="30.0227379799"><time>2026-04-25T17:04:15Z</time></trkpt><trkpt lat="59.0731859207" lon="30.0227379799"><time>2026-04-25T17:04:17Z</time></trkpt><trkpt lat="59.0731430054" lon="30.0227379799"><time>2026-04-25T17:04:20Z</time></trkpt><trkpt lat="59.0731430054" lon="30.0227379799"><time>2026-04-25T17:04:22Z</time></trkpt><trkpt lat="59.0731430054" lon="30.0227379799"><time>2026-04-25T17:04:25Z</time></trkpt><trkpt lat="59.0731430054" lon="30.0227379799"><time>2026-04-25T17:04:27Z</time></trkpt><trkpt lat="59.0731430054" lon="30.0227379799"><time>2026-04-25T17:04:30Z</time></trkpt><trkpt lat="59.0731430054" lon="30.0227379799"><time>2026-04-25T17:04:32Z</time></trkpt><trkpt lat="59.0731430054" lon="30.0227379799"><time>2026-04-25T17:04:35Z</time></trkpt><trkpt lat="59.0731430054" lon="30.0226950645"><time>2026-04-25T17:04:37Z</time></trkpt><trkpt lat="59.0731215477" lon="30.0226521492"><time>2026-04-25T17:04:40Z</time></trkpt><trkpt lat="59.0731215477" lon="30.0226092339"><time>2026-04-25T17:04:42Z</time></trkpt><trkpt lat="59.0731000900" lon="30.0225877762"><time>2026-04-25T17:04:45Z</time></trkpt><trkpt lat="59.0731000900" lon="30.0225448608"><time>2026-04-25T17:04:47Z</time></trkpt><trkpt lat="59.0731000900" lon="30.0225019455"><time>2026-04-25T17:04:50Z</time></trkpt><trkpt lat="59.0731000900" lon="30.0224590302"><time>2026-04-25T17:04:52Z</time></trkpt><trkpt lat="59.0731000900" lon="30.0224161148"><time>2026-04-25T17:04:55Z</time></trkpt><trkpt lat="59.0731000900" lon="30.0223731995"><time>2026-04-25T17:04:57Z</time></trkpt><trkpt lat="59.0730786324" lon="30.0223302841"><time>2026-04-25T17:05:00Z</time></trkpt><trkpt lat="59.0730786324" lon="30.0223088264"><time>2026-04-25T17:05:02Z</time></trkpt><trkpt lat="59.0730571747" lon="30.0222659111"><time>2026-04-25T17:05:05Z</time></trkpt><trkpt lat="59.0730571747" lon="30.0222229958"><time>2026-04-25T17:05:07Z</time></trkpt><trkpt lat="59.0730571747" lon="30.0221800804"><time>2026-04-25T17:05:10Z</time></trkpt><trkpt lat="59.0730571747" lon="30.0221371651"><time>2026-04-25T17:05:12Z</time></trkpt><trkpt lat="59.0730571747" lon="30.0220942497"><time>2026-04-25T17:05:15Z</time></trkpt><trkpt lat="59.0730571747" lon="30.0220727921"><time>2026-04-25T17:05:17Z</time></trkpt><trkpt lat="59.0730786324" lon="30.0220298767"><time>2026-04-25T17:05:20Z</time></trkpt><trkpt lat="59.0730786324" lon="30.0219869614"><time>2026-04-25T17:05:22Z</time></trkpt><trkpt lat="59.0730786324" lon="30.0219440460"><time>2026-04-25T17:05:25Z</time></trkpt><trkpt lat="59.0730786324" lon="30.0219225883"><time>2026-04-25T17:05:27Z</time></trkpt><trkpt lat="59.0730571747" lon="30.0219011307"><time>2026-04-25T17:05:30Z</time></trkpt><trkpt lat="59.0730357170" lon="30.0218796730"><time>2026-04-25T17:05:32Z</time></trkpt><trkpt lat="59.0730357170" lon="30.0218153000"><time>2026-04-25T17:05:35Z</time></trkpt><trkpt lat="59.0730142593" lon="30.0217723846"><time>2026-04-25T17:05:37Z</time></trkpt><trkpt lat="59.0730142593" lon="30.0217294693"><time>2026-04-25T17:05:40Z</time></trkpt><trkpt lat="59.0730142593" lon="30.0216865540"><time>2026-04-25T17:05:42Z</time></trkpt><trkpt lat="59.0730357170" lon="30.0216436386"><time>2026-04-25T17:05:45Z</time></trkpt><trkpt lat="59.0730142593" lon="30.0216007233"><time>2026-04-25T17:05:47Z</time></trkpt><trkpt lat="59.0730142593" lon="30.0215578079"><time>2026-04-25T17:05:50Z</time></trkpt><trkpt lat="59.0730142593" lon="30.0215148926"><time>2026-04-25T17:05:52Z</time></trkpt><trkpt lat="59.0730142593" lon="30.0214719772"><time>2026-04-25T17:05:55Z</time></trkpt><trkpt lat="59.0730142593" lon="30.0214290619"><time>2026-04-25T17:05:57Z</time></trkpt><trkpt lat="59.0730142593" lon="30.0214076042"><time>2026-04-25T17:06:00Z</time></trkpt><trkpt lat="59.0730142593" lon="30.0213861465"><time>2026-04-25T17:06:02Z</time></trkpt><trkpt lat="59.0729713440" lon="30.0213217735"><time>2026-04-25T17:06:05Z</time></trkpt><trkpt lat="59.0729713440" lon="30.0213003159"><time>2026-04-25T17:06:07Z</time></trkpt><trkpt lat="59.0729713440" lon="30.0212574005"><time>2026-04-25T17:06:10Z</time></trkpt><trkpt lat="59.0729498863" lon="30.0212144852"><time>2026-04-25T17:06:12Z</time></trkpt><trkpt lat="59.0729498863" lon="30.0211930275"><time>2026-04-25T17:06:15Z</time></trkpt><trkpt lat="59.0729498863" lon="30.0211715698"><time>2026-04-25T17:06:17Z</time></trkpt><trkpt lat="59.0729284286" lon="30.0211286545"><time>2026-04-25T17:06:20Z</time></trkpt><trkpt lat="59.0729284286" lon="30.0210857391"><time>2026-04-25T17:06:22Z</time></trkpt><trkpt lat="59.0729069710" lon="30.0210428238"><time>2026-04-25T17:06:25Z</time></trkpt><trkpt lat="59.0729069710" lon="30.0209999084"><time>2026-04-25T17:06:27Z</time></trkpt><trkpt lat="59.0729069710" lon="30.0209569931"><time>2026-04-25T17:06:30Z</time></trkpt><trkpt lat="59.0728855133" lon="30.0209355354"><time>2026-04-25T17:06:32Z</time></trkpt><trkpt lat="59.0728855133" lon="30.0208926201"><time>2026-04-25T17:06:35Z</time></trkpt><trkpt lat="59.0728855133" lon="30.0208711624"><time>2026-04-25T17:06:37Z</time></trkpt><trkpt lat="59.0728640556" lon="30.0208711624"><time>2026-04-25T17:06:40Z</time></trkpt><trkpt lat="59.0728640556" lon="30.0208926201"><time>2026-04-25T17:06:42Z</time></trkpt><trkpt lat="59.0728425980" lon="30.0209140778"><time>2026-04-25T17:06:45Z</time></trkpt><trkpt lat="59.0728211403" lon="30.0209355354"><time>2026-04-25T17:06:47Z</time></trkpt><trkpt lat="59.0727996826" lon="30.0209140778"><time>2026-04-25T17:06:50Z</time></trkpt><trkpt lat="59.0727782249" lon="30.0209140778"><time>2026-04-25T17:06:52Z</time></trkpt><trkpt lat="59.0727567673" lon="30.0209140778"><time>2026-04-25T17:06:55Z</time></trkpt><trkpt lat="59.0727353096" lon="30.0209355354"><time>2026-04-25T17:06:57Z</time></trkpt><trkpt lat="59.0727138519" lon="30.0209355354"><time>2026-04-25T17:07:00Z</time></trkpt><trkpt lat="59.0726923943" lon="30.0209140778"><time>2026-04-25T17:07:02Z</time></trkpt><trkpt lat="59.0726494789" lon="30.0209569931"><time>2026-04-25T17:07:07Z</time></trkpt><trkpt lat="59.0726065636" lon="30.0209784508"><time>2026-04-25T17:07:10Z</time></trkpt><trkpt lat="59.0725851059" lon="30.0209784508"><time>2026-04-25T17:07:12Z</time></trkpt><trkpt lat="59.0726065636" lon="30.0209569931"><time>2026-04-25T17:07:15Z</time></trkpt><trkpt lat="59.0726065636" lon="30.0209140778"><time>2026-04-25T17:07:17Z</time></trkpt><trkpt lat="59.0726065636" lon="30.0208497047"><time>2026-04-25T17:07:20Z</time></trkpt><trkpt lat="59.0726065636" lon="30.0208282471"><time>2026-04-25T17:07:22Z</time></trkpt><trkpt lat="59.0726065636" lon="30.0208282471"><time>2026-04-25T17:07:25Z</time></trkpt><trkpt lat="59.0726065636" lon="30.0208282471"><time>2026-04-25T17:07:27Z</time></trkpt><trkpt lat="59.0726065636" lon="30.0208711624"><time>2026-04-25T17:07:30Z</time></trkpt><trkpt lat="59.0726065636" lon="30.0209140778"><time>2026-04-25T17:07:32Z</time></trkpt><trkpt lat="59.0726065636" lon="30.0209355354"><time>2026-04-25T17:07:35Z</time></trkpt><trkpt lat="59.0726065636" lon="30.0208926201"><time>2026-04-25T17:07:37Z</time></trkpt><trkpt lat="59.0726065636" lon="30.0208711624"><time>2026-04-25T17:07:40Z</time></trkpt><trkpt lat="59.0726065636" lon="30.0208711624"><time>2026-04-25T17:07:42Z</time></trkpt><trkpt lat="59.0726065636" lon="30.0208711624"><time>2026-04-25T17:07:45Z</time></trkpt><trkpt lat="59.0726065636" lon="30.0208711624"><time>2026-04-25T17:07:47Z</time></trkpt><trkpt lat="59.0726065636" lon="30.0208711624"><time>2026-04-25T17:07:50Z</time></trkpt><trkpt lat="59.0726065636" lon="30.0208711624"><time>2026-04-25T17:07:52Z</time></trkpt><trkpt lat="59.0726065636" lon="30.0208711624"><time>2026-04-25T17:07:55Z</time></trkpt><trkpt lat="59.0726065636" lon="30.0208711624"><time>2026-04-25T17:07:57Z</time></trkpt><trkpt lat="59.0726065636" lon="30.0208711624"><time>2026-04-25T17:08:00Z</time></trkpt><trkpt lat="59.0726065636" lon="30.0208711624"><time>2026-04-25T17:08:02Z</time></trkpt><trkpt lat="59.0726065636" lon="30.0208711624"><time>2026-04-25T17:08:05Z</time></trkpt><trkpt lat="59.0726065636" lon="30.0208711624"><time>2026-04-25T17:08:07Z</time></trkpt><trkpt lat="59.0726065636" lon="30.0208711624"><time>2026-04-25T17:08:10Z</time></trkpt><trkpt lat="59.0726065636" lon="30.0208711624"><time>2026-04-25T17:08:12Z</time></trkpt><trkpt lat="59.0726065636" lon="30.0208711624"><time>2026-04-25T17:08:15Z</time></trkpt><trkpt lat="59.0726065636" lon="30.0208711624"><time>2026-04-25T17:08:17Z</time></trkpt><trkpt lat="59.0726065636" lon="30.0208711624"><time>2026-04-25T17:08:20Z</time></trkpt><trkpt lat="59.0726065636" lon="30.0208711624"><time>2026-04-25T17:08:22Z</time></trkpt><trkpt lat="59.0726065636" lon="30.0208711624"><time>2026-04-25T17:08:25Z</time></trkpt><trkpt lat="59.0726065636" lon="30.0208711624"><time>2026-04-25T17:08:27Z</time></trkpt><trkpt lat="59.0726065636" lon="30.0208711624"><time>2026-04-25T17:08:30Z</time></trkpt><trkpt lat="59.0726065636" lon="30.0208711624"><time>2026-04-25T17:08:32Z</time></trkpt><trkpt lat="59.0726065636" lon="30.0208711624"><time>2026-04-25T17:08:35Z</time></trkpt><trkpt lat="59.0726065636" lon="30.0208711624"><time>2026-04-25T17:08:37Z</time></trkpt><trkpt lat="59.0726065636" lon="30.0208711624"><time>2026-04-25T17:08:40Z</time></trkpt><trkpt lat="59.0726065636" lon="30.0208711624"><time>2026-04-25T17:08:42Z</time></trkpt><trkpt lat="59.0726065636" lon="30.0208711624"><time>2026-04-25T17:08:45Z</time></trkpt><trkpt lat="59.0726065636" lon="30.0208711624"><time>2026-04-25T17:08:47Z</time></trkpt><trkpt lat="59.0726065636" lon="30.0208711624"><time>2026-04-25T17:08:50Z</time></trkpt><trkpt lat="59.0726065636" lon="30.0208711624"><time>2026-04-25T17:08:52Z</time></trkpt><trkpt lat="59.0726065636" lon="30.0208711624"><time>2026-04-25T17:08:55Z</time></trkpt><trkpt lat="59.0726065636" lon="30.0209140778"><time>2026-04-25T17:08:57Z</time></trkpt><trkpt lat="59.0726065636" lon="30.0209140778"><time>2026-04-25T17:09:00Z</time></trkpt><trkpt lat="59.0726065636" lon="30.0208926201"><time>2026-04-25T17:09:02Z</time></trkpt><trkpt lat="59.0726065636" lon="30.0208926201"><time>2026-04-25T17:09:05Z</time></trkpt><trkpt lat="59.0726065636" lon="30.0208926201"><time>2026-04-25T17:09:07Z</time></trkpt><trkpt lat="59.0726065636" lon="30.0208926201"><time>2026-04-25T17:09:10Z</time></trkpt><trkpt lat="59.0726065636" lon="30.0208926201"><time>2026-04-25T17:09:12Z</time></trkpt><trkpt lat="59.0726065636" lon="30.0208711624"><time>2026-04-25T17:09:15Z</time></trkpt><trkpt lat="59.0726065636" lon="30.0208926201"><time>2026-04-25T17:09:17Z</time></trkpt><trkpt lat="59.0726065636" lon="30.0208926201"><time>2026-04-25T17:09:20Z</time></trkpt><trkpt lat="59.0726065636" lon="30.0208926201"><time>2026-04-25T17:09:22Z</time></trkpt><trkpt lat="59.0726065636" lon="30.0208926201"><time>2026-04-25T17:09:25Z</time></trkpt><trkpt lat="59.0726065636" lon="30.0208926201"><time>2026-04-25T17:09:27Z</time></trkpt><trkpt lat="59.0726065636" lon="30.0208926201"><time>2026-04-25T17:09:30Z</time></trkpt><trkpt lat="59.0726065636" lon="30.0208926201"><time>2026-04-25T17:09:32Z</time></trkpt><trkpt lat="59.0726065636" lon="30.0208711624"><time>2026-04-25T17:09:35Z</time></trkpt><trkpt lat="59.0726065636" lon="30.0208711624"><time>2026-04-25T17:09:37Z</time></trkpt><trkpt lat="59.0726065636" lon="30.0208711624"><time>2026-04-25T17:09:40Z</time></trkpt><trkpt lat="59.0726065636" lon="30.0208711624"><time>2026-04-25T17:09:42Z</time></trkpt><trkpt lat="59.0726065636" lon="30.0208711624"><time>2026-04-25T17:09:45Z</time></trkpt><trkpt lat="59.0726065636" lon="30.0208711624"><time>2026-04-25T17:09:47Z</time></trkpt><trkpt lat="59.0726065636" lon="30.0208711624"><time>2026-04-25T17:09:50Z</time></trkpt><trkpt lat="59.0726065636" lon="30.0208282471"><time>2026-04-25T17:09:52Z</time></trkpt><trkpt lat="59.0726065636" lon="30.0207638741"><time>2026-04-25T17:09:55Z</time></trkpt><trkpt lat="59.0726065636" lon="30.0207424164"><time>2026-04-25T17:09:57Z</time></trkpt><trkpt lat="59.0725851059" lon="30.0206780434"><time>2026-04-25T17:10:00Z</time></trkpt><trkpt lat="59.0725851059" lon="30.0206351280"><time>2026-04-25T17:10:02Z</time></trkpt><trkpt lat="59.0725851059" lon="30.0206136703"><time>2026-04-25T17:10:05Z</time></trkpt><trkpt lat="59.0725636482" lon="30.0205707550"><time>2026-04-25T17:10:07Z</time></trkpt><trkpt lat="59.0725636482" lon="30.0205063820"><time>2026-04-25T17:10:10Z</time></trkpt><trkpt lat="59.0725636482" lon="30.0204634666"><time>2026-04-25T17:10:12Z</time></trkpt><trkpt lat="59.0725421906" lon="30.0203990936"><time>2026-04-25T17:10:15Z</time></trkpt><trkpt lat="59.0725421906" lon="30.0203561783"><time>2026-04-25T17:10:17Z</time></trkpt><trkpt lat="59.0725421906" lon="30.0203132629"><time>2026-04-25T17:10:20Z</time></trkpt><trkpt lat="59.0725421906" lon="30.0202703476"><time>2026-04-25T17:10:22Z</time></trkpt><trkpt lat="59.0725207329" lon="30.0202059746"><time>2026-04-25T17:10:25Z</time></trkpt><trkpt lat="59.0725207329" lon="30.0201845169"><time>2026-04-25T17:10:27Z</time></trkpt><trkpt lat="59.0725207329" lon="30.0201201439"><time>2026-04-25T17:10:30Z</time></trkpt><trkpt lat="59.0724992752" lon="30.0200772285"><time>2026-04-25T17:10:32Z</time></trkpt><trkpt lat="59.0724992752" lon="30.0200128555"><time>2026-04-25T17:10:35Z</time></trkpt><trkpt lat="59.0724992752" lon="30.0199484825"><time>2026-04-25T17:10:37Z</time></trkpt><trkpt lat="59.0724778175" lon="30.0198626518"><time>2026-04-25T17:10:40Z</time></trkpt><trkpt lat="59.0724778175" lon="30.0198197365"><time>2026-04-25T17:10:42Z</time></trkpt><trkpt lat="59.0724563599" lon="30.0197982788"><time>2026-04-25T17:10:45Z</time></trkpt><trkpt lat="59.0724563599" lon="30.0197768211"><time>2026-04-25T17:10:47Z</time></trkpt><trkpt lat="59.0724349022" lon="30.0196909904"><time>2026-04-25T17:10:50Z</time></trkpt><trkpt lat="59.0724349022" lon="30.0196480751"><time>2026-04-25T17:10:52Z</time></trkpt><trkpt lat="59.0724134445" lon="30.0195837021"><time>2026-04-25T17:10:55Z</time></trkpt><trkpt lat="59.0724134445" lon="30.0195622444"><time>2026-04-25T17:10:57Z</time></trkpt><trkpt lat="59.0723919868" lon="30.0194978714"><time>2026-04-25T17:11:00Z</time></trkpt><trkpt lat="59.0723919868" lon="30.0194549561"><time>2026-04-25T17:11:02Z</time></trkpt><trkpt lat="59.0723705292" lon="30.0193905830"><time>2026-04-25T17:11:05Z</time></trkpt><trkpt lat="59.0723490715" lon="30.0193691254"><time>2026-04-25T17:11:07Z</time></trkpt><trkpt lat="59.0723490715" lon="30.0193262100"><time>2026-04-25T17:11:10Z</time></trkpt><trkpt lat="59.0723276138" lon="30.0192832947"><time>2026-04-25T17:11:12Z</time></trkpt><trkpt lat="59.0723276138" lon="30.0192189217"><time>2026-04-25T17:11:15Z</time></trkpt><trkpt lat="59.0723276138" lon="30.0191760063"><time>2026-04-25T17:11:17Z</time></trkpt><trkpt lat="59.0723061562" lon="30.0191330910"><time>2026-04-25T17:11:20Z</time></trkpt><trkpt lat="59.0722846985" lon="30.0191116333"><time>2026-04-25T17:11:22Z</time></trkpt><trkpt lat="59.0722846985" lon="30.0190901756"><time>2026-04-25T17:11:25Z</time></trkpt><trkpt lat="59.0722846985" lon="30.0190472603"><time>2026-04-25T17:11:27Z</time></trkpt><trkpt lat="59.0722417831" lon="30.0189828873"><time>2026-04-25T17:11:30Z</time></trkpt><trkpt lat="59.0722417831" lon="30.0189399719"><time>2026-04-25T17:11:32Z</time></trkpt><trkpt lat="59.0722203255" lon="30.0188755989"><time>2026-04-25T17:11:35Z</time></trkpt><trkpt lat="59.0722203255" lon="30.0188326836"><time>2026-04-25T17:11:37Z</time></trkpt><trkpt lat="59.0721988678" lon="30.0187683105"><time>2026-04-25T17:11:40Z</time></trkpt><trkpt lat="59.0721988678" lon="30.0187468529"><time>2026-04-25T17:11:42Z</time></trkpt><trkpt lat="59.0721988678" lon="30.0186824799"><time>2026-04-25T17:11:45Z</time></trkpt><trkpt lat="59.0721988678" lon="30.0186610222"><time>2026-04-25T17:11:47Z</time></trkpt><trkpt lat="59.0721774101" lon="30.0185966492"><time>2026-04-25T17:11:50Z</time></trkpt><trkpt lat="59.0721774101" lon="30.0185537338"><time>2026-04-25T17:11:52Z</time></trkpt><trkpt lat="59.0721559525" lon="30.0184679031"><time>2026-04-25T17:11:55Z</time></trkpt><trkpt lat="59.0721559525" lon="30.0184249878"><time>2026-04-25T17:11:57Z</time></trkpt><trkpt lat="59.0721559525" lon="30.0183606148"><time>2026-04-25T17:12:00Z</time></trkpt><trkpt lat="59.0721559525" lon="30.0183391571"><time>2026-04-25T17:12:02Z</time></trkpt><trkpt lat="59.0721344948" lon="30.0182747841"><time>2026-04-25T17:12:05Z</time></trkpt><trkpt lat="59.0721344948" lon="30.0182318687"><time>2026-04-25T17:12:07Z</time></trkpt><trkpt lat="59.0721344948" lon="30.0182104111"><time>2026-04-25T17:12:10Z</time></trkpt><trkpt lat="59.0721344948" lon="30.0181674957"><time>2026-04-25T17:12:12Z</time></trkpt><trkpt lat="59.0721344948" lon="30.0181674957"><time>2026-04-25T17:12:15Z</time></trkpt><trkpt lat="59.0721344948" lon="30.0181674957"><time>2026-04-25T17:12:17Z</time></trkpt><trkpt lat="59.0721344948" lon="30.0181674957"><time>2026-04-25T17:12:20Z</time></trkpt><trkpt lat="59.0721344948" lon="30.0181674957"><time>2026-04-25T17:12:22Z</time></trkpt><trkpt lat="59.0721344948" lon="30.0181245804"><time>2026-04-25T17:12:25Z</time></trkpt><trkpt lat="59.0721344948" lon="30.0180602074"><time>2026-04-25T17:12:27Z</time></trkpt><trkpt lat="59.0721344948" lon="30.0179743767"><time>2026-04-25T17:12:30Z</time></trkpt><trkpt lat="59.0721344948" lon="30.0179314613"><time>2026-04-25T17:12:32Z</time></trkpt><trkpt lat="59.0721344948" lon="30.0178670883"><time>2026-04-25T17:12:35Z</time></trkpt><trkpt lat="59.0721130371" lon="30.0178241730"><time>2026-04-25T17:12:37Z</time></trkpt><trkpt lat="59.0721130371" lon="30.0177383423"><time>2026-04-25T17:12:40Z</time></trkpt><trkpt lat="59.0721130371" lon="30.0177168846"><time>2026-04-25T17:12:42Z</time></trkpt><trkpt lat="59.0721130371" lon="30.0176525116"><time>2026-04-25T17:12:45Z</time></trkpt><trkpt lat="59.0720915794" lon="30.0175881386"><time>2026-04-25T17:12:47Z</time></trkpt><trkpt lat="59.0720915794" lon="30.0175237656"><time>2026-04-25T17:12:50Z</time></trkpt><trkpt lat="59.0720915794" lon="30.0174808502"><time>2026-04-25T17:12:52Z</time></trkpt><trkpt lat="59.0720915794" lon="30.0173950195"><time>2026-04-25T17:12:55Z</time></trkpt><trkpt lat="59.0720915794" lon="30.0173306465"><time>2026-04-25T17:12:57Z</time></trkpt><trkpt lat="59.0720915794" lon="30.0172662735"><time>2026-04-25T17:13:00Z</time></trkpt><trkpt lat="59.0720915794" lon="30.0172448158"><time>2026-04-25T17:13:02Z</time></trkpt><trkpt lat="59.0720915794" lon="30.0172233582"><time>2026-04-25T17:13:05Z</time></trkpt><trkpt lat="59.0720915794" lon="30.0172233582"><time>2026-04-25T17:13:07Z</time></trkpt><trkpt lat="59.0720915794" lon="30.0171589851"><time>2026-04-25T17:13:10Z</time></trkpt><trkpt lat="59.0720915794" lon="30.0171375275"><time>2026-04-25T17:13:12Z</time></trkpt><trkpt lat="59.0720915794" lon="30.0171160698"><time>2026-04-25T17:13:15Z</time></trkpt><trkpt lat="59.0720915794" lon="30.0171160698"><time>2026-04-25T17:13:17Z</time></trkpt><trkpt lat="59.0720915794" lon="30.0171160698"><time>2026-04-25T17:13:20Z</time></trkpt><trkpt lat="59.0720915794" lon="30.0171160698"><time>2026-04-25T17:13:22Z</time></trkpt><trkpt lat="59.0720915794" lon="30.0171160698"><time>2026-04-25T17:13:25Z</time></trkpt><trkpt lat="59.0720915794" lon="30.0171375275"><time>2026-04-25T17:13:27Z</time></trkpt><trkpt lat="59.0721130371" lon="30.0171375275"><time>2026-04-25T17:13:30Z</time></trkpt><trkpt lat="59.0721130371" lon="30.0171375275"><time>2026-04-25T17:13:32Z</time></trkpt><trkpt lat="59.0721130371" lon="30.0171375275"><time>2026-04-25T17:13:35Z</time></trkpt><trkpt lat="59.0721130371" lon="30.0171160698"><time>2026-04-25T17:13:37Z</time></trkpt><trkpt lat="59.0721130371" lon="30.0171160698"><time>2026-04-25T17:13:40Z</time></trkpt><trkpt lat="59.0721130371" lon="30.0171160698"><time>2026-04-25T17:13:42Z</time></trkpt><trkpt lat="59.0721130371" lon="30.0171160698"><time>2026-04-25T17:13:45Z</time></trkpt><trkpt lat="59.0721130371" lon="30.0171160698"><time>2026-04-25T17:13:47Z</time></trkpt><trkpt lat="59.0721130371" lon="30.0171160698"><time>2026-04-25T17:13:50Z</time></trkpt><trkpt lat="59.0721559525" lon="30.0171589851"><time>2026-04-25T17:13:52Z</time></trkpt><trkpt lat="59.0721774101" lon="30.0171589851"><time>2026-04-25T17:13:55Z</time></trkpt><trkpt lat="59.0721988678" lon="30.0171375275"><time>2026-04-25T17:13:57Z</time></trkpt><trkpt lat="59.0722203255" lon="30.0171375275"><time>2026-04-25T17:14:00Z</time></trkpt><trkpt lat="59.0722632408" lon="30.0171375275"><time>2026-04-25T17:14:02Z</time></trkpt><trkpt lat="59.0722846985" lon="30.0171375275"><time>2026-04-25T17:14:05Z</time></trkpt><trkpt lat="59.0723061562" lon="30.0171375275"><time>2026-04-25T17:14:07Z</time></trkpt><trkpt lat="59.0723061562" lon="30.0171375275"><time>2026-04-25T17:14:10Z</time></trkpt><trkpt lat="59.0723061562" lon="30.0171375275"><time>2026-04-25T17:14:12Z</time></trkpt><trkpt lat="59.0723061562" lon="30.0171375275"><time>2026-04-25T17:14:15Z</time></trkpt><trkpt lat="59.0723061562" lon="30.0171375275"><time>2026-04-25T17:14:17Z</time></trkpt><trkpt lat="59.0723061562" lon="30.0171375275"><time>2026-04-25T17:14:20Z</time></trkpt><trkpt lat="59.0723061562" lon="30.0171375275"><time>2026-04-25T17:14:22Z</time></trkpt><trkpt lat="59.0723061562" lon="30.0171375275"><time>2026-04-25T17:14:25Z</time></trkpt><trkpt lat="59.0723061562" lon="30.0171375275"><time>2026-04-25T17:14:27Z</time></trkpt><trkpt lat="59.0723061562" lon="30.0171375275"><time>2026-04-25T17:14:30Z</time></trkpt><trkpt lat="59.0723276138" lon="30.0170946121"><time>2026-04-25T17:14:32Z</time></trkpt><trkpt lat="59.0723276138" lon="30.0170516968"><time>2026-04-25T17:14:35Z</time></trkpt><trkpt lat="59.0723061562" lon="30.0170302391"><time>2026-04-25T17:14:37Z</time></trkpt><trkpt lat="59.0723061562" lon="30.0169658661"><time>2026-04-25T17:14:40Z</time></trkpt><trkpt lat="59.0723061562" lon="30.0169229507"><time>2026-04-25T17:14:42Z</time></trkpt><trkpt lat="59.0723061562" lon="30.0168800354"><time>2026-04-25T17:14:45Z</time></trkpt><trkpt lat="59.0723061562" lon="30.0168585777"><time>2026-04-25T17:14:47Z</time></trkpt><trkpt lat="59.0723061562" lon="30.0168585777"><time>2026-04-25T17:14:50Z</time></trkpt><trkpt lat="59.0723061562" lon="30.0168585777"><time>2026-04-25T17:14:52Z</time></trkpt><trkpt lat="59.0723061562" lon="30.0168585777"><time>2026-04-25T17:14:55Z</time></trkpt><trkpt lat="59.0723061562" lon="30.0168585777"><time>2026-04-25T17:14:57Z</time></trkpt><trkpt lat="59.0723061562" lon="30.0168585777"><time>2026-04-25T17:15:00Z</time></trkpt><trkpt lat="59.0723061562" lon="30.0168585777"><time>2026-04-25T17:15:02Z</time></trkpt><trkpt lat="59.0723061562" lon="30.0168585777"><time>2026-04-25T17:15:05Z</time></trkpt><trkpt lat="59.0723061562" lon="30.0168585777"><time>2026-04-25T17:15:07Z</time></trkpt><trkpt lat="59.0723276138" lon="30.0168371201"><time>2026-04-25T17:15:10Z</time></trkpt><trkpt lat="59.0723276138" lon="30.0168371201"><time>2026-04-25T17:15:12Z</time></trkpt><trkpt lat="59.0723490715" lon="30.0168585777"><time>2026-04-25T17:15:15Z</time></trkpt><trkpt lat="59.0723705292" lon="30.0168585777"><time>2026-04-25T17:15:17Z</time></trkpt><trkpt lat="59.0723919868" lon="30.0168585777"><time>2026-04-25T17:15:20Z</time></trkpt><trkpt lat="59.0723919868" lon="30.0168585777"><time>2026-04-25T17:15:22Z</time></trkpt><trkpt lat="59.0724134445" lon="30.0168371201"><time>2026-04-25T17:15:25Z</time></trkpt><trkpt lat="59.0724349022" lon="30.0167942047"><time>2026-04-25T17:15:27Z</time></trkpt><trkpt lat="59.0724349022" lon="30.0167942047"><time>2026-04-25T17:15:30Z</time></trkpt><trkpt lat="59.0724778175" lon="30.0168156624"><time>2026-04-25T17:15:32Z</time></trkpt><trkpt lat="59.0725207329" lon="30.0167942047"><time>2026-04-25T17:15:35Z</time></trkpt><trkpt lat="59.0725421906" lon="30.0168156624"><time>2026-04-25T17:15:37Z</time></trkpt><trkpt lat="59.0725421906" lon="30.0168371201"><time>2026-04-25T17:15:40Z</time></trkpt><trkpt lat="59.0725421906" lon="30.0168371201"><time>2026-04-25T17:15:42Z</time></trkpt><trkpt lat="59.0725636482" lon="30.0168371201"><time>2026-04-25T17:15:45Z</time></trkpt><trkpt lat="59.0725851059" lon="30.0168156624"><time>2026-04-25T17:15:47Z</time></trkpt><trkpt lat="59.0726065636" lon="30.0167942047"><time>2026-04-25T17:15:50Z</time></trkpt><trkpt lat="59.0726065636" lon="30.0167942047"><time>2026-04-25T17:15:52Z</time></trkpt><trkpt lat="59.0726065636" lon="30.0167942047"><time>2026-04-25T17:15:55Z</time></trkpt><trkpt lat="59.0726065636" lon="30.0167942047"><time>2026-04-25T17:15:57Z</time></trkpt><trkpt lat="59.0726280212" lon="30.0167727470"><time>2026-04-25T17:16:00Z</time></trkpt><trkpt lat="59.0726494789" lon="30.0167727470"><time>2026-04-25T17:16:02Z</time></trkpt><trkpt lat="59.0726923943" lon="30.0167727470"><time>2026-04-25T17:16:05Z</time></trkpt><trkpt lat="59.0727138519" lon="30.0167727470"><time>2026-04-25T17:16:07Z</time></trkpt><trkpt lat="59.0727353096" lon="30.0167727470"><time>2026-04-25T17:16:10Z</time></trkpt><trkpt lat="59.0727567673" lon="30.0167942047"><time>2026-04-25T17:16:12Z</time></trkpt><trkpt lat="59.0727782249" lon="30.0167727470"><time>2026-04-25T17:16:15Z</time></trkpt><trkpt lat="59.0727996826" lon="30.0167512894"><time>2026-04-25T17:16:17Z</time></trkpt><trkpt lat="59.0728211403" lon="30.0167298317"><time>2026-04-25T17:16:20Z</time></trkpt><trkpt lat="59.0728425980" lon="30.0167298317"><time>2026-04-25T17:16:22Z</time></trkpt><trkpt lat="59.0728640556" lon="30.0167298317"><time>2026-04-25T17:16:25Z</time></trkpt><trkpt lat="59.0728855133" lon="30.0167083740"><time>2026-04-25T17:16:27Z</time></trkpt><trkpt lat="59.0729069710" lon="30.0167298317"><time>2026-04-25T17:16:30Z</time></trkpt><trkpt lat="59.0729284286" lon="30.0167298317"><time>2026-04-25T17:16:32Z</time></trkpt><trkpt lat="59.0729713440" lon="30.0167083740"><time>2026-04-25T17:16:35Z</time></trkpt><trkpt lat="59.0729713440" lon="30.0166869164"><time>2026-04-25T17:16:37Z</time></trkpt><trkpt lat="59.0730142593" lon="30.0167083740"><time>2026-04-25T17:16:40Z</time></trkpt><trkpt lat="59.0730142593" lon="30.0167083740"><time>2026-04-25T17:16:42Z</time></trkpt><trkpt lat="59.0730357170" lon="30.0167083740"><time>2026-04-25T17:16:45Z</time></trkpt><trkpt lat="59.0730571747" lon="30.0167083740"><time>2026-04-25T17:16:47Z</time></trkpt><trkpt lat="59.0730786324" lon="30.0167083740"><time>2026-04-25T17:16:50Z</time></trkpt><trkpt lat="59.0731000900" lon="30.0166869164"><time>2026-04-25T17:16:52Z</time></trkpt><trkpt lat="59.0731215477" lon="30.0167083740"><time>2026-04-25T17:16:55Z</time></trkpt><trkpt lat="59.0731430054" lon="30.0167083740"><time>2026-04-25T17:16:57Z</time></trkpt><trkpt lat="59.0731644630" lon="30.0166869164"><time>2026-04-25T17:17:00Z</time></trkpt><trkpt lat="59.0731644630" lon="30.0166869164"><time>2026-04-25T17:17:02Z</time></trkpt><trkpt lat="59.0732073784" lon="30.0166654587"><time>2026-04-25T17:17:05Z</time></trkpt><trkpt lat="59.0732288361" lon="30.0166440010"><time>2026-04-25T17:17:07Z</time></trkpt><trkpt lat="59.0732502937" lon="30.0166225433"><time>2026-04-25T17:17:10Z</time></trkpt><trkpt lat="59.0732717514" lon="30.0166225433"><time>2026-04-25T17:17:12Z</time></trkpt><trkpt lat="59.0732932091" lon="30.0166225433"><time>2026-04-25T17:17:15Z</time></trkpt><trkpt lat="59.0733146667" lon="30.0165796280"><time>2026-04-25T17:17:17Z</time></trkpt><trkpt lat="59.0733146667" lon="30.0165367126"><time>2026-04-25T17:17:20Z</time></trkpt><trkpt lat="59.0733361244" lon="30.0165152550"><time>2026-04-25T17:17:22Z</time></trkpt><trkpt lat="59.0733575821" lon="30.0165152550"><time>2026-04-25T17:17:25Z</time></trkpt><trkpt lat="59.0733790398" lon="30.0165152550"><time>2026-04-25T17:17:27Z</time></trkpt><trkpt lat="59.0734219551" lon="30.0165367126"><time>2026-04-25T17:17:30Z</time></trkpt><trkpt lat="59.0734219551" lon="30.0165367126"><time>2026-04-25T17:17:32Z</time></trkpt><trkpt lat="59.0734648705" lon="30.0165367126"><time>2026-04-25T17:17:35Z</time></trkpt><trkpt lat="59.0734863281" lon="30.0165581703"><time>2026-04-25T17:17:37Z</time></trkpt><trkpt lat="59.0735077858" lon="30.0165796280"><time>2026-04-25T17:17:40Z</time></trkpt><trkpt lat="59.0735077858" lon="30.0165796280"><time>2026-04-25T17:17:42Z</time></trkpt><trkpt lat="59.0735077858" lon="30.0165796280"><time>2026-04-25T17:17:45Z</time></trkpt><trkpt lat="59.0735077858" lon="30.0165796280"><time>2026-04-25T17:17:47Z</time></trkpt><trkpt lat="59.0735292435" lon="30.0165367126"><time>2026-04-25T17:17:50Z</time></trkpt><trkpt lat="59.0735507011" lon="30.0165152550"><time>2026-04-25T17:17:52Z</time></trkpt><trkpt lat="59.0735721588" lon="30.0164508820"><time>2026-04-25T17:17:55Z</time></trkpt><trkpt lat="59.0735936165" lon="30.0164294243"><time>2026-04-25T17:17:57Z</time></trkpt><trkpt lat="59.0736365318" lon="30.0164294243"><time>2026-04-25T17:18:00Z</time></trkpt><trkpt lat="59.0736365318" lon="30.0164294243"><time>2026-04-25T17:18:02Z</time></trkpt><trkpt lat="59.0736794472" lon="30.0164294243"><time>2026-04-25T17:18:05Z</time></trkpt><trkpt lat="59.0737009048" lon="30.0164294243"><time>2026-04-25T17:18:07Z</time></trkpt><trkpt lat="59.0737223625" lon="30.0164294243"><time>2026-04-25T17:18:10Z</time></trkpt><trkpt lat="59.0737438202" lon="30.0164294243"><time>2026-04-25T17:18:12Z</time></trkpt><trkpt lat="59.0737652779" lon="30.0164294243"><time>2026-04-25T17:18:15Z</time></trkpt><trkpt lat="59.0737652779" lon="30.0164079666"><time>2026-04-25T17:18:17Z</time></trkpt><trkpt lat="59.0738081932" lon="30.0163865089"><time>2026-04-25T17:18:20Z</time></trkpt><trkpt lat="59.0738081932" lon="30.0163865089"><time>2026-04-25T17:18:22Z</time></trkpt><trkpt lat="59.0738296509" lon="30.0163865089"><time>2026-04-25T17:18:25Z</time></trkpt><trkpt lat="59.0738511086" lon="30.0163865089"><time>2026-04-25T17:18:27Z</time></trkpt><trkpt lat="59.0738725662" lon="30.0163865089"><time>2026-04-25T17:18:30Z</time></trkpt><trkpt lat="59.0738940239" lon="30.0163865089"><time>2026-04-25T17:18:32Z</time></trkpt><trkpt lat="59.0739154816" lon="30.0163650513"><time>2026-04-25T17:18:35Z</time></trkpt><trkpt lat="59.0739154816" lon="30.0163650513"><time>2026-04-25T17:18:37Z</time></trkpt><trkpt lat="59.0739154816" lon="30.0163650513"><time>2026-04-25T17:18:40Z</time></trkpt><trkpt lat="59.0739369392" lon="30.0163650513"><time>2026-04-25T17:18:42Z</time></trkpt><trkpt lat="59.0739369392" lon="30.0163435936"><time>2026-04-25T17:18:45Z</time></trkpt><trkpt lat="59.0739583969" lon="30.0163221359"><time>2026-04-25T17:18:47Z</time></trkpt><trkpt lat="59.0739798546" lon="30.0162792206"><time>2026-04-25T17:18:50Z</time></trkpt><trkpt lat="59.0740013123" lon="30.0162792206"><time>2026-04-25T17:18:52Z</time></trkpt><trkpt lat="59.0740227699" lon="30.0162577629"><time>2026-04-25T17:18:55Z</time></trkpt><trkpt lat="59.0740227699" lon="30.0162363052"><time>2026-04-25T17:18:57Z</time></trkpt><trkpt lat="59.0740442276" lon="30.0162363052"><time>2026-04-25T17:19:00Z</time></trkpt><trkpt lat="59.0740656853" lon="30.0162148476"><time>2026-04-25T17:19:02Z</time></trkpt><trkpt lat="59.0740871429" lon="30.0162148476"><time>2026-04-25T17:19:05Z</time></trkpt><trkpt lat="59.0741086006" lon="30.0162363052"><time>2026-04-25T17:19:07Z</time></trkpt><trkpt lat="59.0741086006" lon="30.0162577629"><time>2026-04-25T17:19:10Z</time></trkpt><trkpt lat="59.0741300583" lon="30.0162577629"><time>2026-04-25T17:19:12Z</time></trkpt><trkpt lat="59.0741515160" lon="30.0162363052"><time>2026-04-25T17:19:15Z</time></trkpt><trkpt lat="59.0741515160" lon="30.0162148476"><time>2026-04-25T17:19:17Z</time></trkpt><trkpt lat="59.0741944313" lon="30.0162148476"><time>2026-04-25T17:19:20Z</time></trkpt><trkpt lat="59.0741944313" lon="30.0162148476"><time>2026-04-25T17:19:22Z</time></trkpt><trkpt lat="59.0742158890" lon="30.0162363052"><time>2026-04-25T17:19:25Z</time></trkpt><trkpt lat="59.0742373466" lon="30.0162363052"><time>2026-04-25T17:19:27Z</time></trkpt><trkpt lat="59.0742588043" lon="30.0162363052"><time>2026-04-25T17:19:30Z</time></trkpt><trkpt lat="59.0742802620" lon="30.0162148476"><time>2026-04-25T17:19:32Z</time></trkpt><trkpt lat="59.0743017197" lon="30.0162148476"><time>2026-04-25T17:19:35Z</time></trkpt><trkpt lat="59.0743231773" lon="30.0162148476"><time>2026-04-25T17:19:37Z</time></trkpt><trkpt lat="59.0743231773" lon="30.0162363052"><time>2026-04-25T17:19:40Z</time></trkpt><trkpt lat="59.0743446350" lon="30.0162363052"><time>2026-04-25T17:19:42Z</time></trkpt><trkpt lat="59.0743660927" lon="30.0162148476"><time>2026-04-25T17:19:45Z</time></trkpt><trkpt lat="59.0743660927" lon="30.0162148476"><time>2026-04-25T17:19:47Z</time></trkpt><trkpt lat="59.0743660927" lon="30.0162148476"><time>2026-04-25T17:19:50Z</time></trkpt><trkpt lat="59.0743875504" lon="30.0162148476"><time>2026-04-25T17:19:52Z</time></trkpt><trkpt lat="59.0744090080" lon="30.0162148476"><time>2026-04-25T17:19:55Z</time></trkpt><trkpt lat="59.0744304657" lon="30.0162148476"><time>2026-04-25T17:19:57Z</time></trkpt><trkpt lat="59.0744519234" lon="30.0161933899"><time>2026-04-25T17:20:00Z</time></trkpt><trkpt lat="59.0744733810" lon="30.0161933899"><time>2026-04-25T17:20:02Z</time></trkpt><trkpt lat="59.0744948387" lon="30.0161504745"><time>2026-04-25T17:20:05Z</time></trkpt><trkpt lat="59.0745162964" lon="30.0161504745"><time>2026-04-25T17:20:07Z</time></trkpt><trkpt lat="59.0745592117" lon="30.0161504745"><time>2026-04-25T17:20:10Z</time></trkpt><trkpt lat="59.0745592117" lon="30.0161719322"><time>2026-04-25T17:20:12Z</time></trkpt><trkpt lat="59.0746021271" lon="30.0161719322"><time>2026-04-25T17:20:15Z</time></trkpt><trkpt lat="59.0746235847" lon="30.0161719322"><time>2026-04-25T17:20:17Z</time></trkpt><trkpt lat="59.0746235847" lon="30.0161719322"><time>2026-04-25T17:20:20Z</time></trkpt><trkpt lat="59.0746235847" lon="30.0161719322"><time>2026-04-25T17:20:22Z</time></trkpt><trkpt lat="59.0746450424" lon="30.0161504745"><time>2026-04-25T17:20:25Z</time></trkpt><trkpt lat="59.0746665001" lon="30.0161719322"><time>2026-04-25T17:20:27Z</time></trkpt><trkpt lat="59.0746879578" lon="30.0161504745"><time>2026-04-25T17:20:30Z</time></trkpt><trkpt lat="59.0746879578" lon="30.0161504745"><time>2026-04-25T17:20:32Z</time></trkpt><trkpt lat="59.0747094154" lon="30.0161290169"><time>2026-04-25T17:20:35Z</time></trkpt><trkpt lat="59.0747094154" lon="30.0161290169"><time>2026-04-25T17:20:37Z</time></trkpt><trkpt lat="59.0747094154" lon="30.0161290169"><time>2026-04-25T17:20:40Z</time></trkpt><trkpt lat="59.0747094154" lon="30.0161290169"><time>2026-04-25T17:20:42Z</time></trkpt><trkpt lat="59.0747094154" lon="30.0161290169"><time>2026-04-25T17:20:45Z</time></trkpt><trkpt lat="59.0747094154" lon="30.0161290169"><time>2026-04-25T17:20:47Z</time></trkpt><trkpt lat="59.0747094154" lon="30.0161290169"><time>2026-04-25T17:20:50Z</time></trkpt><trkpt lat="59.0747094154" lon="30.0161290169"><time>2026-04-25T17:20:52Z</time></trkpt><trkpt lat="59.0747094154" lon="30.0161290169"><time>2026-04-25T17:20:55Z</time></trkpt><trkpt lat="59.0747094154" lon="30.0161290169"><time>2026-04-25T17:20:57Z</time></trkpt><trkpt lat="59.0747094154" lon="30.0161290169"><time>2026-04-25T17:21:00Z</time></trkpt><trkpt lat="59.0747094154" lon="30.0161290169"><time>2026-04-25T17:21:02Z</time></trkpt><trkpt lat="59.0747094154" lon="30.0161290169"><time>2026-04-25T17:21:05Z</time></trkpt><trkpt lat="59.0747094154" lon="30.0161290169"><time>2026-04-25T17:21:07Z</time></trkpt><trkpt lat="59.0747094154" lon="30.0161290169"><time>2026-04-25T17:21:10Z</time></trkpt><trkpt lat="59.0747094154" lon="30.0161290169"><time>2026-04-25T17:21:12Z</time></trkpt><trkpt lat="59.0747094154" lon="30.0161290169"><time>2026-04-25T17:21:15Z</time></trkpt><trkpt lat="59.0747094154" lon="30.0161290169"><time>2026-04-25T17:21:17Z</time></trkpt><trkpt lat="59.0747094154" lon="30.0161290169"><time>2026-04-25T17:21:20Z</time></trkpt><trkpt lat="59.0747094154" lon="30.0161290169"><time>2026-04-25T17:21:22Z</time></trkpt><trkpt lat="59.0747094154" lon="30.0161290169"><time>2026-04-25T17:21:25Z</time></trkpt><trkpt lat="59.0747094154" lon="30.0161290169"><time>2026-04-25T17:21:27Z</time></trkpt><trkpt lat="59.0747094154" lon="30.0161290169"><time>2026-04-25T17:21:30Z</time></trkpt><trkpt lat="59.0747094154" lon="30.0161290169"><time>2026-04-25T17:21:32Z</time></trkpt><trkpt lat="59.0747094154" lon="30.0161290169"><time>2026-04-25T17:21:35Z</time></trkpt><trkpt lat="59.0747094154" lon="30.0161290169"><time>2026-04-25T17:21:37Z</time></trkpt><trkpt lat="59.0747094154" lon="30.0161290169"><time>2026-04-25T17:21:40Z</time></trkpt><trkpt lat="59.0747094154" lon="30.0161290169"><time>2026-04-25T17:21:42Z</time></trkpt><trkpt lat="59.0747094154" lon="30.0161290169"><time>2026-04-25T17:21:45Z</time></trkpt><trkpt lat="59.0747094154" lon="30.0161290169"><time>2026-04-25T17:21:47Z</time></trkpt><trkpt lat="59.0747094154" lon="30.0161290169"><time>2026-04-25T17:21:50Z</time></trkpt><trkpt lat="59.0747094154" lon="30.0161290169"><time>2026-04-25T17:21:52Z</time></trkpt><trkpt lat="59.0747094154" lon="30.0161290169"><time>2026-04-25T17:21:55Z</time></trkpt><trkpt lat="59.0747094154" lon="30.0161290169"><time>2026-04-25T17:21:57Z</time></trkpt><trkpt lat="59.0747094154" lon="30.0161290169"><time>2026-04-25T17:22:00Z</time></trkpt><trkpt lat="59.0747094154" lon="30.0161290169"><time>2026-04-25T17:22:02Z</time></trkpt><trkpt lat="59.0747094154" lon="30.0161290169"><time>2026-04-25T17:22:05Z</time></trkpt><trkpt lat="59.0747094154" lon="30.0161290169"><time>2026-04-25T17:22:07Z</time></trkpt><trkpt lat="59.0747094154" lon="30.0161504745"><time>2026-04-25T17:22:10Z</time></trkpt><trkpt lat="59.0747094154" lon="30.0161504745"><time>2026-04-25T17:22:12Z</time></trkpt><trkpt lat="59.0747094154" lon="30.0161504745"><time>2026-04-25T17:22:15Z</time></trkpt><trkpt lat="59.0747094154" lon="30.0161504745"><time>2026-04-25T17:22:17Z</time></trkpt><trkpt lat="59.0747094154" lon="30.0161504745"><time>2026-04-25T17:22:20Z</time></trkpt><trkpt lat="59.0747094154" lon="30.0161504745"><time>2026-04-25T17:22:22Z</time></trkpt><trkpt lat="59.0747094154" lon="30.0161504745"><time>2026-04-25T17:22:25Z</time></trkpt><trkpt lat="59.0747094154" lon="30.0161504745"><time>2026-04-25T17:22:27Z</time></trkpt><trkpt lat="59.0747094154" lon="30.0161504745"><time>2026-04-25T17:22:30Z</time></trkpt><trkpt lat="59.0747094154" lon="30.0161504745"><time>2026-04-25T17:22:32Z</time></trkpt><trkpt lat="59.0747094154" lon="30.0161504745"><time>2026-04-25T17:22:35Z</time></trkpt><trkpt lat="59.0747094154" lon="30.0161504745"><time>2026-04-25T17:22:37Z</time></trkpt><trkpt lat="59.0747094154" lon="30.0161504745"><time>2026-04-25T17:22:40Z</time></trkpt><trkpt lat="59.0747094154" lon="30.0161504745"><time>2026-04-25T17:22:42Z</time></trkpt><trkpt lat="59.0747094154" lon="30.0161504745"><time>2026-04-25T17:22:45Z</time></trkpt><trkpt lat="59.0747094154" lon="30.0161504745"><time>2026-04-25T17:22:47Z</time></trkpt><trkpt lat="59.0747094154" lon="30.0161504745"><time>2026-04-25T17:22:50Z</time></trkpt><trkpt lat="59.0747094154" lon="30.0161504745"><time>2026-04-25T17:22:52Z</time></trkpt><trkpt lat="59.0747094154" lon="30.0161504745"><time>2026-04-25T17:22:55Z</time></trkpt><trkpt lat="59.0747094154" lon="30.0161504745"><time>2026-04-25T17:22:57Z</time></trkpt><trkpt lat="59.0747094154" lon="30.0161504745"><time>2026-04-25T17:23:00Z</time></trkpt><trkpt lat="59.0747094154" lon="30.0161504745"><time>2026-04-25T17:23:02Z</time></trkpt><trkpt lat="59.0747094154" lon="30.0161504745"><time>2026-04-25T17:23:05Z</time></trkpt><trkpt lat="59.0747094154" lon="30.0161504745"><time>2026-04-25T17:23:07Z</time></trkpt><trkpt lat="59.0747094154" lon="30.0161504745"><time>2026-04-25T17:23:10Z</time></trkpt><trkpt lat="59.0747094154" lon="30.0161504745"><time>2026-04-25T17:23:12Z</time></trkpt><trkpt lat="59.0747094154" lon="30.0161504745"><time>2026-04-25T17:23:15Z</time></trkpt><trkpt lat="59.0747094154" lon="30.0161504745"><time>2026-04-25T17:23:17Z</time></trkpt><trkpt lat="59.0747094154" lon="30.0161504745"><time>2026-04-25T17:23:20Z</time></trkpt><trkpt lat="59.0747094154" lon="30.0161504745"><time>2026-04-25T17:23:22Z</time></trkpt><trkpt lat="59.0747094154" lon="30.0161504745"><time>2026-04-25T17:23:25Z</time></trkpt><trkpt lat="59.0747094154" lon="30.0161504745"><time>2026-04-25T17:23:27Z</time></trkpt><trkpt lat="59.0747094154" lon="30.0161504745"><time>2026-04-25T17:23:30Z</time></trkpt><trkpt lat="59.0747094154" lon="30.0161504745"><time>2026-04-25T17:23:32Z</time></trkpt><trkpt lat="59.0747094154" lon="30.0161504745"><time>2026-04-25T17:23:35Z</time></trkpt><trkpt lat="59.0747094154" lon="30.0161504745"><time>2026-04-25T17:23:37Z</time></trkpt><trkpt lat="59.0747094154" lon="30.0161504745"><time>2026-04-25T17:23:40Z</time></trkpt><trkpt lat="59.0747094154" lon="30.0161504745"><time>2026-04-25T17:23:42Z</time></trkpt><trkpt lat="59.0747094154" lon="30.0161504745"><time>2026-04-25T17:23:45Z</time></trkpt><trkpt lat="59.0747094154" lon="30.0161504745"><time>2026-04-25T17:23:47Z</time></trkpt><trkpt lat="59.0747094154" lon="30.0161504745"><time>2026-04-25T17:23:50Z</time></trkpt><trkpt lat="59.0747094154" lon="30.0161504745"><time>2026-04-25T17:23:52Z</time></trkpt><trkpt lat="59.0747094154" lon="30.0161504745"><time>2026-04-25T17:23:55Z</time></trkpt><trkpt lat="59.0747094154" lon="30.0161504745"><time>2026-04-25T17:23:57Z</time></trkpt><trkpt lat="59.0747094154" lon="30.0161504745"><time>2026-04-25T17:24:00Z</time></trkpt><trkpt lat="59.0747094154" lon="30.0161504745"><time>2026-04-25T17:24:02Z</time></trkpt><trkpt lat="59.0747094154" lon="30.0161504745"><time>2026-04-25T17:24:05Z</time></trkpt><trkpt lat="59.0747094154" lon="30.0161290169"><time>2026-04-25T17:24:07Z</time></trkpt><trkpt lat="59.0747094154" lon="30.0161504745"><time>2026-04-25T17:24:10Z</time></trkpt><trkpt lat="59.0747094154" lon="30.0161504745"><time>2026-04-25T17:24:12Z</time></trkpt><trkpt lat="59.0747094154" lon="30.0161504745"><time>2026-04-25T17:24:15Z</time></trkpt><trkpt lat="59.0747094154" lon="30.0161504745"><time>2026-04-25T17:24:17Z</time></trkpt><trkpt lat="59.0747094154" lon="30.0161504745"><time>2026-04-25T17:24:20Z</time></trkpt><trkpt lat="59.0747094154" lon="30.0161504745"><time>2026-04-25T17:24:22Z</time></trkpt><trkpt lat="59.0747094154" lon="30.0161504745"><time>2026-04-25T17:24:25Z</time></trkpt><trkpt lat="59.0747094154" lon="30.0161504745"><time>2026-04-25T17:24:27Z</time></trkpt><trkpt lat="59.0747094154" lon="30.0161504745"><time>2026-04-25T17:24:30Z</time></trkpt><trkpt lat="59.0747094154" lon="30.0161504745"><time>2026-04-25T17:24:32Z</time></trkpt><trkpt lat="59.0747094154" lon="30.0161504745"><time>2026-04-25T17:24:35Z</time></trkpt><trkpt lat="59.0747094154" lon="30.0161504745"><time>2026-04-25T17:24:37Z</time></trkpt><trkpt lat="59.0747094154" lon="30.0161504745"><time>2026-04-25T17:24:40Z</time></trkpt><trkpt lat="59.0747094154" lon="30.0161504745"><time>2026-04-25T17:24:42Z</time></trkpt><trkpt lat="59.0747094154" lon="30.0161504745"><time>2026-04-25T17:24:45Z</time></trkpt><trkpt lat="59.0747094154" lon="30.0161504745"><time>2026-04-25T17:24:47Z</time></trkpt><trkpt lat="59.0747094154" lon="30.0161504745"><time>2026-04-25T17:24:50Z</time></trkpt><trkpt lat="59.0747094154" lon="30.0161504745"><time>2026-04-25T17:24:52Z</time></trkpt><trkpt lat="59.0747094154" lon="30.0161504745"><time>2026-04-25T17:24:55Z</time></trkpt><trkpt lat="59.0747094154" lon="30.0161504745"><time>2026-04-25T17:24:57Z</time></trkpt><trkpt lat="59.0747094154" lon="30.0161504745"><time>2026-04-25T17:25:00Z</time></trkpt><trkpt lat="59.0747094154" lon="30.0161504745"><time>2026-04-25T17:25:02Z</time></trkpt><trkpt lat="59.0747094154" lon="30.0161504745"><time>2026-04-25T17:25:05Z</time></trkpt><trkpt lat="59.0747094154" lon="30.0161504745"><time>2026-04-25T17:25:07Z</time></trkpt><trkpt lat="59.0747094154" lon="30.0161504745"><time>2026-04-25T17:25:10Z</time></trkpt><trkpt lat="59.0747094154" lon="30.0161504745"><time>2026-04-25T17:25:12Z</time></trkpt><trkpt lat="59.0747094154" lon="30.0161504745"><time>2026-04-25T17:25:15Z</time></trkpt><trkpt lat="59.0747094154" lon="30.0161504745"><time>2026-04-25T17:25:17Z</time></trkpt><trkpt lat="59.0747094154" lon="30.0161504745"><time>2026-04-25T17:25:20Z</time></trkpt><trkpt lat="59.0747094154" lon="30.0161504745"><time>2026-04-25T17:25:22Z</time></trkpt><trkpt lat="59.0747094154" lon="30.0161504745"><time>2026-04-25T17:25:25Z</time></trkpt><trkpt lat="59.0747094154" lon="30.0161504745"><time>2026-04-25T17:25:27Z</time></trkpt><trkpt lat="59.0747094154" lon="30.0161504745"><time>2026-04-25T17:25:30Z</time></trkpt><trkpt lat="59.0747094154" lon="30.0161504745"><time>2026-04-25T17:25:32Z</time></trkpt><trkpt lat="59.0747094154" lon="30.0161504745"><time>2026-04-25T17:25:35Z</time></trkpt><trkpt lat="59.0747094154" lon="30.0161504745"><time>2026-04-25T17:25:37Z</time></trkpt><trkpt lat="59.0747094154" lon="30.0161504745"><time>2026-04-25T17:25:40Z</time></trkpt><trkpt lat="59.0747094154" lon="30.0161504745"><time>2026-04-25T17:25:42Z</time></trkpt><trkpt lat="59.0747094154" lon="30.0161504745"><time>2026-04-25T17:25:45Z</time></trkpt><trkpt lat="59.0747094154" lon="30.0161504745"><time>2026-04-25T17:25:47Z</time></trkpt><trkpt lat="59.0747094154" lon="30.0161504745"><time>2026-04-25T17:25:50Z</time></trkpt><trkpt lat="59.0747094154" lon="30.0161504745"><time>2026-04-25T17:25:52Z</time></trkpt><trkpt lat="59.0747094154" lon="30.0161504745"><time>2026-04-25T17:25:55Z</time></trkpt><trkpt lat="59.0747094154" lon="30.0161504745"><time>2026-04-25T17:25:57Z</time></trkpt><trkpt lat="59.0747094154" lon="30.0161504745"><time>2026-04-25T17:26:00Z</time></trkpt><trkpt lat="59.0747094154" lon="30.0161504745"><time>2026-04-25T17:26:02Z</time></trkpt><trkpt lat="59.0747094154" lon="30.0161504745"><time>2026-04-25T17:26:05Z</time></trkpt><trkpt lat="59.0747094154" lon="30.0161504745"><time>2026-04-25T17:26:07Z</time></trkpt><trkpt lat="59.0747094154" lon="30.0161504745"><time>2026-04-25T17:26:10Z</time></trkpt><trkpt lat="59.0747094154" lon="30.0161504745"><time>2026-04-25T17:26:12Z</time></trkpt><trkpt lat="59.0747094154" lon="30.0161504745"><time>2026-04-25T17:26:15Z</time></trkpt><trkpt lat="59.0747094154" lon="30.0161504745"><time>2026-04-25T17:26:17Z</time></trkpt><trkpt lat="59.0747094154" lon="30.0161504745"><time>2026-04-25T17:26:20Z</time></trkpt><trkpt lat="59.0747094154" lon="30.0161504745"><time>2026-04-25T17:26:22Z</time></trkpt><trkpt lat="59.0747094154" lon="30.0161504745"><time>2026-04-25T17:26:25Z</time></trkpt><trkpt lat="59.0747094154" lon="30.0161290169"><time>2026-04-25T17:26:27Z</time></trkpt><trkpt lat="59.0747094154" lon="30.0161290169"><time>2026-04-25T17:26:30Z</time></trkpt><trkpt lat="59.0747094154" lon="30.0161290169"><time>2026-04-25T17:26:32Z</time></trkpt><trkpt lat="59.0747094154" lon="30.0161290169"><time>2026-04-25T17:26:35Z</time></trkpt><trkpt lat="59.0747094154" lon="30.0161290169"><time>2026-04-25T17:26:37Z</time></trkpt><trkpt lat="59.0747094154" lon="30.0161504745"><time>2026-04-25T17:26:40Z</time></trkpt><trkpt lat="59.0747094154" lon="30.0161504745"><time>2026-04-25T17:26:42Z</time></trkpt><trkpt lat="59.0747094154" lon="30.0161504745"><time>2026-04-25T17:26:45Z</time></trkpt><trkpt lat="59.0747094154" lon="30.0161504745"><time>2026-04-25T17:26:47Z</time></trkpt><trkpt lat="59.0747094154" lon="30.0161504745"><time>2026-04-25T17:26:50Z</time></trkpt><trkpt lat="59.0747094154" lon="30.0161290169"><time>2026-04-25T17:26:52Z</time></trkpt><trkpt lat="59.0747308731" lon="30.0161290169"><time>2026-04-25T17:26:55Z</time></trkpt><trkpt lat="59.0747308731" lon="30.0161290169"><time>2026-04-25T17:26:57Z</time></trkpt><trkpt lat="59.0747094154" lon="30.0161290169"><time>2026-04-25T17:27:00Z</time></trkpt><trkpt lat="59.0747094154" lon="30.0161290169"><time>2026-04-25T17:27:02Z</time></trkpt><trkpt lat="59.0747094154" lon="30.0161290169"><time>2026-04-25T17:27:05Z</time></trkpt><trkpt lat="59.0747094154" lon="30.0161290169"><time>2026-04-25T17:27:07Z</time></trkpt><trkpt lat="59.0747094154" lon="30.0161290169"><time>2026-04-25T17:27:10Z</time></trkpt><trkpt lat="59.0747094154" lon="30.0161290169"><time>2026-04-25T17:27:12Z</time></trkpt><trkpt lat="59.0747094154" lon="30.0161290169"><time>2026-04-25T17:27:15Z</time></trkpt><trkpt lat="59.0747094154" lon="30.0161290169"><time>2026-04-25T17:27:17Z</time></trkpt><trkpt lat="59.0747094154" lon="30.0161290169"><time>2026-04-25T17:27:20Z</time></trkpt><trkpt lat="59.0747094154" lon="30.0161290169"><time>2026-04-25T17:27:22Z</time></trkpt><trkpt lat="59.0747094154" lon="30.0161290169"><time>2026-04-25T17:27:25Z</time></trkpt><trkpt lat="59.0747094154" lon="30.0161290169"><time>2026-04-25T17:27:27Z</time></trkpt><trkpt lat="59.0747094154" lon="30.0161290169"><time>2026-04-25T17:27:30Z</time></trkpt><trkpt lat="59.0747094154" lon="30.0161290169"><time>2026-04-25T17:27:32Z</time></trkpt><trkpt lat="59.0747094154" lon="30.0161290169"><time>2026-04-25T17:27:35Z</time></trkpt><trkpt lat="59.0747094154" lon="30.0161290169"><time>2026-04-25T17:27:37Z</time></trkpt><trkpt lat="59.0747094154" lon="30.0161290169"><time>2026-04-25T17:27:40Z</time></trkpt><trkpt lat="59.0747094154" lon="30.0161290169"><time>2026-04-25T17:27:42Z</time></trkpt><trkpt lat="59.0747094154" lon="30.0161290169"><time>2026-04-25T17:27:45Z</time></trkpt><trkpt lat="59.0747094154" lon="30.0161290169"><time>2026-04-25T17:27:47Z</time></trkpt><trkpt lat="59.0747094154" lon="30.0161290169"><time>2026-04-25T17:27:50Z</time></trkpt><trkpt lat="59.0747094154" lon="30.0161290169"><time>2026-04-25T17:27:52Z</time></trkpt><trkpt lat="59.0747094154" lon="30.0161290169"><time>2026-04-25T17:27:55Z</time></trkpt><trkpt lat="59.0747094154" lon="30.0161290169"><time>2026-04-25T17:27:57Z</time></trkpt><trkpt lat="59.0747094154" lon="30.0161290169"><time>2026-04-25T17:28:00Z</time></trkpt><trkpt lat="59.0747094154" lon="30.0161290169"><time>2026-04-25T17:28:02Z</time></trkpt><trkpt lat="59.0747094154" lon="30.0161290169"><time>2026-04-25T17:28:05Z</time></trkpt><trkpt lat="59.0747094154" lon="30.0161290169"><time>2026-04-25T17:28:07Z</time></trkpt><trkpt lat="59.0747094154" lon="30.0161290169"><time>2026-04-25T17:28:10Z</time></trkpt><trkpt lat="59.0747094154" lon="30.0161290169"><time>2026-04-25T17:28:12Z</time></trkpt><trkpt lat="59.0747094154" lon="30.0161290169"><time>2026-04-25T17:28:15Z</time></trkpt><trkpt lat="59.0747094154" lon="30.0161290169"><time>2026-04-25T17:28:17Z</time></trkpt><trkpt lat="59.0747308731" lon="30.0161290169"><time>2026-04-25T17:28:20Z</time></trkpt><trkpt lat="59.0747308731" lon="30.0161290169"><time>2026-04-25T17:28:22Z</time></trkpt><trkpt lat="59.0747308731" lon="30.0161290169"><time>2026-04-25T17:28:25Z</time></trkpt><trkpt lat="59.0747308731" lon="30.0161290169"><time>2026-04-25T17:28:27Z</time></trkpt><trkpt lat="59.0747308731" lon="30.0161290169"><time>2026-04-25T17:28:30Z</time></trkpt><trkpt lat="59.0747308731" lon="30.0161290169"><time>2026-04-25T17:28:32Z</time></trkpt><trkpt lat="59.0747308731" lon="30.0161290169"><time>2026-04-25T17:28:35Z</time></trkpt><trkpt lat="59.0747308731" lon="30.0161290169"><time>2026-04-25T17:28:37Z</time></trkpt><trkpt lat="59.0747523308" lon="30.0161075592"><time>2026-04-25T17:28:40Z</time></trkpt><trkpt lat="59.0747737885" lon="30.0161075592"><time>2026-04-25T17:28:42Z</time></trkpt><trkpt lat="59.0748167038" lon="30.0160861015"><time>2026-04-25T17:28:45Z</time></trkpt><trkpt lat="59.0748381615" lon="30.0160861015"><time>2026-04-25T17:28:47Z</time></trkpt><trkpt lat="59.0748596191" lon="30.0160861015"><time>2026-04-25T17:28:50Z</time></trkpt><trkpt lat="59.0748810768" lon="30.0160861015"><time>2026-04-25T17:28:52Z</time></trkpt><trkpt lat="59.0749025345" lon="30.0160861015"><time>2026-04-25T17:28:55Z</time></trkpt><trkpt lat="59.0749239922" lon="30.0160861015"><time>2026-04-25T17:28:57Z</time></trkpt><trkpt lat="59.0749454498" lon="30.0161075592"><time>2026-04-25T17:29:00Z</time></trkpt><trkpt lat="59.0749669075" lon="30.0161075592"><time>2026-04-25T17:29:02Z</time></trkpt><trkpt lat="59.0749883652" lon="30.0161075592"><time>2026-04-25T17:29:05Z</time></trkpt><trkpt lat="59.0750098228" lon="30.0160861015"><time>2026-04-25T17:29:07Z</time></trkpt><trkpt lat="59.0750312805" lon="30.0160646439"><time>2026-04-25T17:29:10Z</time></trkpt><trkpt lat="59.0750312805" lon="30.0160646439"><time>2026-04-25T17:29:12Z</time></trkpt><trkpt lat="59.0750741959" lon="30.0160646439"><time>2026-04-25T17:29:15Z</time></trkpt><trkpt lat="59.0750956535" lon="30.0160646439"><time>2026-04-25T17:29:17Z</time></trkpt><trkpt lat="59.0751171112" lon="30.0160646439"><time>2026-04-25T17:29:20Z</time></trkpt><trkpt lat="59.0751385689" lon="30.0160861015"><time>2026-04-25T17:29:22Z</time></trkpt><trkpt lat="59.0751600266" lon="30.0160861015"><time>2026-04-25T17:29:25Z</time></trkpt><trkpt lat="59.0751814842" lon="30.0160861015"><time>2026-04-25T17:29:27Z</time></trkpt><trkpt lat="59.0752243996" lon="30.0160861015"><time>2026-04-25T17:29:30Z</time></trkpt><trkpt lat="59.0752243996" lon="30.0161075592"><time>2026-04-25T17:29:32Z</time></trkpt><trkpt lat="59.0752673149" lon="30.0161290169"><time>2026-04-25T17:29:35Z</time></trkpt><trkpt lat="59.0752887726" lon="30.0161075592"><time>2026-04-25T17:29:37Z</time></trkpt><trkpt lat="59.0753102303" lon="30.0161075592"><time>2026-04-25T17:29:40Z</time></trkpt><trkpt lat="59.0753316879" lon="30.0161075592"><time>2026-04-25T17:29:42Z</time></trkpt><trkpt lat="59.0753316879" lon="30.0161075592"><time>2026-04-25T17:29:45Z</time></trkpt><trkpt lat="59.0753531456" lon="30.0161075592"><time>2026-04-25T17:29:47Z</time></trkpt><trkpt lat="59.0753746033" lon="30.0161290169"><time>2026-04-25T17:29:50Z</time></trkpt><trkpt lat="59.0753746033" lon="30.0161290169"><time>2026-04-25T17:29:52Z</time></trkpt><trkpt lat="59.0753960609" lon="30.0161290169"><time>2026-04-25T17:29:55Z</time></trkpt><trkpt lat="59.0754175186" lon="30.0161504745"><time>2026-04-25T17:29:57Z</time></trkpt><trkpt lat="59.0754389763" lon="30.0161504745"><time>2026-04-25T17:30:00Z</time></trkpt><trkpt lat="59.0754604340" lon="30.0161504745"><time>2026-04-25T17:30:02Z</time></trkpt><trkpt lat="59.0754604340" lon="30.0161290169"><time>2026-04-25T17:30:05Z</time></trkpt><trkpt lat="59.0754818916" lon="30.0161075592"><time>2026-04-25T17:30:07Z</time></trkpt><trkpt lat="59.0755033493" lon="30.0160861015"><time>2026-04-25T17:30:10Z</time></trkpt><trkpt lat="59.0755248070" lon="30.0160861015"><time>2026-04-25T17:30:12Z</time></trkpt><trkpt lat="59.0755248070" lon="30.0160431862"><time>2026-04-25T17:30:15Z</time></trkpt><trkpt lat="59.0755462646" lon="30.0160217285"><time>2026-04-25T17:30:17Z</time></trkpt><trkpt lat="59.0755677223" lon="30.0160217285"><time>2026-04-25T17:30:20Z</time></trkpt><trkpt lat="59.0755891800" lon="30.0160217285"><time>2026-04-25T17:30:22Z</time></trkpt><trkpt lat="59.0756106377" lon="30.0160002708"><time>2026-04-25T17:30:25Z</time></trkpt><trkpt lat="59.0756106377" lon="30.0159788132"><time>2026-04-25T17:30:27Z</time></trkpt><trkpt lat="59.0756320953" lon="30.0159358978"><time>2026-04-25T17:30:30Z</time></trkpt><trkpt lat="59.0756320953" lon="30.0159144402"><time>2026-04-25T17:30:32Z</time></trkpt><trkpt lat="59.0756320953" lon="30.0158715248"><time>2026-04-25T17:30:35Z</time></trkpt><trkpt lat="59.0756320953" lon="30.0158286095"><time>2026-04-25T17:30:37Z</time></trkpt><trkpt lat="59.0756320953" lon="30.0158071518"><time>2026-04-25T17:30:40Z</time></trkpt><trkpt lat="59.0756320953" lon="30.0157642365"><time>2026-04-25T17:30:42Z</time></trkpt><trkpt lat="59.0756535530" lon="30.0157213211"><time>2026-04-25T17:30:45Z</time></trkpt><trkpt lat="59.0756535530" lon="30.0156998634"><time>2026-04-25T17:30:47Z</time></trkpt><trkpt lat="59.0756750107" lon="30.0156784058"><time>2026-04-25T17:30:50Z</time></trkpt><trkpt lat="59.0756964684" lon="30.0156569481"><time>2026-04-25T17:30:52Z</time></trkpt><trkpt lat="59.0756964684" lon="30.0156354904"><time>2026-04-25T17:30:55Z</time></trkpt><trkpt lat="59.0757179260" lon="30.0155925751"><time>2026-04-25T17:30:57Z</time></trkpt><trkpt lat="59.0757393837" lon="30.0155711174"><time>2026-04-25T17:31:00Z</time></trkpt><trkpt lat="59.0757393837" lon="30.0155496597"><time>2026-04-25T17:31:02Z</time></trkpt><trkpt lat="59.0757608414" lon="30.0155282021"><time>2026-04-25T17:31:05Z</time></trkpt><trkpt lat="59.0757822990" lon="30.0155282021"><time>2026-04-25T17:31:07Z</time></trkpt><trkpt lat="59.0757822990" lon="30.0155282021"><time>2026-04-25T17:31:10Z</time></trkpt><trkpt lat="59.0757822990" lon="30.0155282021"><time>2026-04-25T17:31:12Z</time></trkpt><trkpt lat="59.0758037567" lon="30.0155282021"><time>2026-04-25T17:31:15Z</time></trkpt><trkpt lat="59.0758037567" lon="30.0155282021"><time>2026-04-25T17:31:17Z</time></trkpt><trkpt lat="59.0758037567" lon="30.0155282021"><time>2026-04-25T17:31:20Z</time></trkpt><trkpt lat="59.0758037567" lon="30.0155282021"><time>2026-04-25T17:31:22Z</time></trkpt><trkpt lat="59.0758252144" lon="30.0155282021"><time>2026-04-25T17:31:25Z</time></trkpt><trkpt lat="59.0758252144" lon="30.0155282021"><time>2026-04-25T17:31:27Z</time></trkpt><trkpt lat="59.0758252144" lon="30.0155282021"><time>2026-04-25T17:31:30Z</time></trkpt><trkpt lat="59.0758252144" lon="30.0155282021"><time>2026-04-25T17:31:32Z</time></trkpt><trkpt lat="59.0758466721" lon="30.0155067444"><time>2026-04-25T17:31:35Z</time></trkpt><trkpt lat="59.0758466721" lon="30.0154852867"><time>2026-04-25T17:31:37Z</time></trkpt><trkpt lat="59.0758466721" lon="30.0154852867"><time>2026-04-25T17:31:40Z</time></trkpt><trkpt lat="59.0758466721" lon="30.0154852867"><time>2026-04-25T17:31:42Z</time></trkpt><trkpt lat="59.0758466721" lon="30.0154852867"><time>2026-04-25T17:31:45Z</time></trkpt><trkpt lat="59.0758466721" lon="30.0154852867"><time>2026-04-25T17:31:47Z</time></trkpt><trkpt lat="59.0758681297" lon="30.0154852867"><time>2026-04-25T17:31:50Z</time></trkpt><trkpt lat="59.0758895874" lon="30.0154852867"><time>2026-04-25T17:31:52Z</time></trkpt><trkpt lat="59.0758895874" lon="30.0154638290"><time>2026-04-25T17:31:55Z</time></trkpt><trkpt lat="59.0759110451" lon="30.0154638290"><time>2026-04-25T17:31:57Z</time></trkpt><trkpt lat="59.0759325027" lon="30.0154423714"><time>2026-04-25T17:32:00Z</time></trkpt><trkpt lat="59.0759325027" lon="30.0154209137"><time>2026-04-25T17:32:02Z</time></trkpt><trkpt lat="59.0759539604" lon="30.0154209137"><time>2026-04-25T17:32:05Z</time></trkpt><trkpt lat="59.0759754181" lon="30.0154209137"><time>2026-04-25T17:32:07Z</time></trkpt><trkpt lat="59.0759754181" lon="30.0154423714"><time>2026-04-25T17:32:10Z</time></trkpt><trkpt lat="59.0759968758" lon="30.0154423714"><time>2026-04-25T17:32:12Z</time></trkpt><trkpt lat="59.0759968758" lon="30.0154209137"><time>2026-04-25T17:32:15Z</time></trkpt><trkpt lat="59.0759968758" lon="30.0154209137"><time>2026-04-25T17:32:17Z</time></trkpt><trkpt lat="59.0759968758" lon="30.0154209137"><time>2026-04-25T17:32:20Z</time></trkpt><trkpt lat="59.0759968758" lon="30.0154209137"><time>2026-04-25T17:32:22Z</time></trkpt><trkpt lat="59.0759968758" lon="30.0154209137"><time>2026-04-25T17:32:25Z</time></trkpt><trkpt lat="59.0759968758" lon="30.0154209137"><time>2026-04-25T17:32:27Z</time></trkpt><trkpt lat="59.0760183334" lon="30.0154209137"><time>2026-04-25T17:32:30Z</time></trkpt><trkpt lat="59.0760183334" lon="30.0154209137"><time>2026-04-25T17:32:32Z</time></trkpt><trkpt lat="59.0760183334" lon="30.0154209137"><time>2026-04-25T17:32:35Z</time></trkpt><trkpt lat="59.0760183334" lon="30.0154209137"><time>2026-04-25T17:32:37Z</time></trkpt><trkpt lat="59.0760183334" lon="30.0154209137"><time>2026-04-25T17:32:40Z</time></trkpt><trkpt lat="59.0760183334" lon="30.0154209137"><time>2026-04-25T17:32:42Z</time></trkpt><trkpt lat="59.0760183334" lon="30.0154209137"><time>2026-04-25T17:32:45Z</time></trkpt><trkpt lat="59.0760183334" lon="30.0154209137"><time>2026-04-25T17:32:47Z</time></trkpt><trkpt lat="59.0760183334" lon="30.0154209137"><time>2026-04-25T17:32:50Z</time></trkpt><trkpt lat="59.0760397911" lon="30.0153994560"><time>2026-04-25T17:32:52Z</time></trkpt><trkpt lat="59.0760397911" lon="30.0153994560"><time>2026-04-25T17:32:55Z</time></trkpt><trkpt lat="59.0760397911" lon="30.0153994560"><time>2026-04-25T17:32:57Z</time></trkpt><trkpt lat="59.0760397911" lon="30.0153994560"><time>2026-04-25T17:33:00Z</time></trkpt><trkpt lat="59.0760612488" lon="30.0153994560"><time>2026-04-25T17:33:02Z</time></trkpt><trkpt lat="59.0760827065" lon="30.0153994560"><time>2026-04-25T17:33:05Z</time></trkpt><trkpt lat="59.0761041641" lon="30.0153779984"><time>2026-04-25T17:33:07Z</time></trkpt><trkpt lat="59.0761256218" lon="30.0153779984"><time>2026-04-25T17:33:10Z</time></trkpt><trkpt lat="59.0761470795" lon="30.0153565407"><time>2026-04-25T17:33:12Z</time></trkpt><trkpt lat="59.0761470795" lon="30.0153565407"><time>2026-04-25T17:33:15Z</time></trkpt><trkpt lat="59.0761685371" lon="30.0153350830"><time>2026-04-25T17:33:17Z</time></trkpt><trkpt lat="59.0761899948" lon="30.0153136253"><time>2026-04-25T17:33:20Z</time></trkpt><trkpt lat="59.0762114525" lon="30.0153136253"><time>2026-04-25T17:33:22Z</time></trkpt><trkpt lat="59.0762114525" lon="30.0153136253"><time>2026-04-25T17:33:25Z</time></trkpt><trkpt lat="59.0762114525" lon="30.0152921677"><time>2026-04-25T17:33:27Z</time></trkpt><trkpt lat="59.0762329102" lon="30.0152921677"><time>2026-04-25T17:33:30Z</time></trkpt><trkpt lat="59.0762329102" lon="30.0152921677"><time>2026-04-25T17:33:32Z</time></trkpt><trkpt lat="59.0762543678" lon="30.0152707100"><time>2026-04-25T17:33:35Z</time></trkpt><trkpt lat="59.0762758255" lon="30.0152707100"><time>2026-04-25T17:33:37Z</time></trkpt><trkpt lat="59.0762972832" lon="30.0152707100"><time>2026-04-25T17:33:40Z</time></trkpt><trkpt lat="59.0762972832" lon="30.0152492523"><time>2026-04-25T17:33:42Z</time></trkpt><trkpt lat="59.0762972832" lon="30.0152492523"><time>2026-04-25T17:33:45Z</time></trkpt><trkpt lat="59.0762972832" lon="30.0152492523"><time>2026-04-25T17:33:47Z</time></trkpt><trkpt lat="59.0762972832" lon="30.0152492523"><time>2026-04-25T17:33:50Z</time></trkpt><trkpt lat="59.0763187408" lon="30.0152707100"><time>2026-04-25T17:33:52Z</time></trkpt><trkpt lat="59.0763187408" lon="30.0152707100"><time>2026-04-25T17:33:55Z</time></trkpt><trkpt lat="59.0763187408" lon="30.0152707100"><time>2026-04-25T17:33:57Z</time></trkpt><trkpt lat="59.0763401985" lon="30.0152492523"><time>2026-04-25T17:34:00Z</time></trkpt><trkpt lat="59.0763401985" lon="30.0152492523"><time>2026-04-25T17:34:02Z</time></trkpt><trkpt lat="59.0763616562" lon="30.0152492523"><time>2026-04-25T17:34:05Z</time></trkpt><trkpt lat="59.0763616562" lon="30.0152492523"><time>2026-04-25T17:34:07Z</time></trkpt><trkpt lat="59.0763616562" lon="30.0152492523"><time>2026-04-25T17:34:10Z</time></trkpt><trkpt lat="59.0763616562" lon="30.0152492523"><time>2026-04-25T17:34:12Z</time></trkpt><trkpt lat="59.0763616562" lon="30.0152277946"><time>2026-04-25T17:34:15Z</time></trkpt><trkpt lat="59.0763831139" lon="30.0152063370"><time>2026-04-25T17:34:17Z</time></trkpt><trkpt lat="59.0764260292" lon="30.0152063370"><time>2026-04-25T17:34:20Z</time></trkpt><trkpt lat="59.0764260292" lon="30.0152063370"><time>2026-04-25T17:34:22Z</time></trkpt><trkpt lat="59.0764474869" lon="30.0152277946"><time>2026-04-25T17:34:25Z</time></trkpt><trkpt lat="59.0764474869" lon="30.0152277946"><time>2026-04-25T17:34:27Z</time></trkpt><trkpt lat="59.0764474869" lon="30.0152277946"><time>2026-04-25T17:34:30Z</time></trkpt><trkpt lat="59.0764689445" lon="30.0152277946"><time>2026-04-25T17:34:32Z</time></trkpt><trkpt lat="59.0764904022" lon="30.0151848793"><time>2026-04-25T17:34:35Z</time></trkpt><trkpt lat="59.0765118599" lon="30.0151848793"><time>2026-04-25T17:34:37Z</time></trkpt><trkpt lat="59.0765333176" lon="30.0151848793"><time>2026-04-25T17:34:40Z</time></trkpt><trkpt lat="59.0765547752" lon="30.0151634216"><time>2026-04-25T17:34:42Z</time></trkpt><trkpt lat="59.0765762329" lon="30.0151634216"><time>2026-04-25T17:34:45Z</time></trkpt><trkpt lat="59.0765762329" lon="30.0151634216"><time>2026-04-25T17:34:47Z</time></trkpt><trkpt lat="59.0765976906" lon="30.0151634216"><time>2026-04-25T17:34:50Z</time></trkpt><trkpt lat="59.0765976906" lon="30.0151634216"><time>2026-04-25T17:34:52Z</time></trkpt><trkpt lat="59.0765976906" lon="30.0151634216"><time>2026-04-25T17:34:55Z</time></trkpt><trkpt lat="59.0765976906" lon="30.0151419640"><time>2026-04-25T17:34:57Z</time></trkpt><trkpt lat="59.0766191483" lon="30.0151419640"><time>2026-04-25T17:35:00Z</time></trkpt><trkpt lat="59.0766191483" lon="30.0151205063"><time>2026-04-25T17:35:02Z</time></trkpt><trkpt lat="59.0766406059" lon="30.0151205063"><time>2026-04-25T17:35:05Z</time></trkpt><trkpt lat="59.0766620636" lon="30.0151205063"><time>2026-04-25T17:35:07Z</time></trkpt><trkpt lat="59.0766835213" lon="30.0151205063"><time>2026-04-25T17:35:10Z</time></trkpt><trkpt lat="59.0767049789" lon="30.0151205063"><time>2026-04-25T17:35:12Z</time></trkpt><trkpt lat="59.0767049789" lon="30.0151205063"><time>2026-04-25T17:35:15Z</time></trkpt><trkpt lat="59.0767049789" lon="30.0151205063"><time>2026-04-25T17:35:17Z</time></trkpt><trkpt lat="59.0767049789" lon="30.0150990486"><time>2026-04-25T17:35:20Z</time></trkpt><trkpt lat="59.0767049789" lon="30.0150990486"><time>2026-04-25T17:35:22Z</time></trkpt><trkpt lat="59.0767264366" lon="30.0150990486"><time>2026-04-25T17:35:25Z</time></trkpt><trkpt lat="59.0767478943" lon="30.0150775909"><time>2026-04-25T17:35:27Z</time></trkpt><trkpt lat="59.0767693520" lon="30.0150561333"><time>2026-04-25T17:35:30Z</time></trkpt><trkpt lat="59.0767693520" lon="30.0150561333"><time>2026-04-25T17:35:32Z</time></trkpt><trkpt lat="59.0767908096" lon="30.0150346756"><time>2026-04-25T17:35:35Z</time></trkpt><trkpt lat="59.0767908096" lon="30.0150346756"><time>2026-04-25T17:35:37Z</time></trkpt><trkpt lat="59.0768122673" lon="30.0150346756"><time>2026-04-25T17:35:40Z</time></trkpt><trkpt lat="59.0768337250" lon="30.0150132179"><time>2026-04-25T17:35:42Z</time></trkpt><trkpt lat="59.0768337250" lon="30.0150132179"><time>2026-04-25T17:35:45Z</time></trkpt><trkpt lat="59.0768337250" lon="30.0149917603"><time>2026-04-25T17:35:47Z</time></trkpt><trkpt lat="59.0768551826" lon="30.0149917603"><time>2026-04-25T17:35:50Z</time></trkpt><trkpt lat="59.0768551826" lon="30.0149917603"><time>2026-04-25T17:35:52Z</time></trkpt><trkpt lat="59.0768766403" lon="30.0149917603"><time>2026-04-25T17:35:55Z</time></trkpt><trkpt lat="59.0768766403" lon="30.0149917603"><time>2026-04-25T17:35:57Z</time></trkpt><trkpt lat="59.0768766403" lon="30.0149703026"><time>2026-04-25T17:36:00Z</time></trkpt><trkpt lat="59.0768980980" lon="30.0149703026"><time>2026-04-25T17:36:02Z</time></trkpt><trkpt lat="59.0769410133" lon="30.0149488449"><time>2026-04-25T17:36:05Z</time></trkpt><trkpt lat="59.0769624710" lon="30.0149703026"><time>2026-04-25T17:36:07Z</time></trkpt><trkpt lat="59.0769624710" lon="30.0149703026"><time>2026-04-25T17:36:10Z</time></trkpt><trkpt lat="59.0769624710" lon="30.0149703026"><time>2026-04-25T17:36:12Z</time></trkpt><trkpt lat="59.0769624710" lon="30.0149703026"><time>2026-04-25T17:36:15Z</time></trkpt><trkpt lat="59.0769624710" lon="30.0149703026"><time>2026-04-25T17:36:17Z</time></trkpt><trkpt lat="59.0769624710" lon="30.0149703026"><time>2026-04-25T17:36:20Z</time></trkpt><trkpt lat="59.0769624710" lon="30.0149917603"><time>2026-04-25T17:36:22Z</time></trkpt><trkpt lat="59.0769839287" lon="30.0150346756"><time>2026-04-25T17:36:25Z</time></trkpt><trkpt lat="59.0770053864" lon="30.0150561333"><time>2026-04-25T17:36:27Z</time></trkpt><trkpt lat="59.0770053864" lon="30.0150132179"><time>2026-04-25T17:36:30Z</time></trkpt><trkpt lat="59.0770053864" lon="30.0150132179"><time>2026-04-25T17:36:32Z</time></trkpt><trkpt lat="59.0770268440" lon="30.0150132179"><time>2026-04-25T17:36:35Z</time></trkpt><trkpt lat="59.0770268440" lon="30.0150132179"><time>2026-04-25T17:36:37Z</time></trkpt><trkpt lat="59.0770268440" lon="30.0150346756"><time>2026-04-25T17:36:40Z</time></trkpt><trkpt lat="59.0770268440" lon="30.0150561333"><time>2026-04-25T17:36:42Z</time></trkpt><trkpt lat="59.0770483017" lon="30.0150132179"><time>2026-04-25T17:36:45Z</time></trkpt><trkpt lat="59.0770697594" lon="30.0149703026"><time>2026-04-25T17:36:47Z</time></trkpt><trkpt lat="59.0770697594" lon="30.0149059296"><time>2026-04-25T17:36:50Z</time></trkpt><trkpt lat="59.0770912170" lon="30.0148844719"><time>2026-04-25T17:36:52Z</time></trkpt><trkpt lat="59.0770912170" lon="30.0148844719"><time>2026-04-25T17:36:55Z</time></trkpt><trkpt lat="59.0770912170" lon="30.0148844719"><time>2026-04-25T17:36:57Z</time></trkpt><trkpt lat="59.0771126747" lon="30.0148844719"><time>2026-04-25T17:37:00Z</time></trkpt><trkpt lat="59.0771341324" lon="30.0148844719"><time>2026-04-25T17:37:02Z</time></trkpt><trkpt lat="59.0771341324" lon="30.0148630142"><time>2026-04-25T17:37:05Z</time></trkpt><trkpt lat="59.0771555901" lon="30.0148415565"><time>2026-04-25T17:37:07Z</time></trkpt><trkpt lat="59.0771555901" lon="30.0148200989"><time>2026-04-25T17:37:10Z</time></trkpt><trkpt lat="59.0771555901" lon="30.0147986412"><time>2026-04-25T17:37:12Z</time></trkpt><trkpt lat="59.0771555901" lon="30.0148200989"><time>2026-04-25T17:37:15Z</time></trkpt><trkpt lat="59.0771555901" lon="30.0148200989"><time>2026-04-25T17:37:17Z</time></trkpt><trkpt lat="59.0771555901" lon="30.0148200989"><time>2026-04-25T17:37:20Z</time></trkpt><trkpt lat="59.0771555901" lon="30.0148200989"><time>2026-04-25T17:37:22Z</time></trkpt><trkpt lat="59.0771555901" lon="30.0148200989"><time>2026-04-25T17:37:25Z</time></trkpt><trkpt lat="59.0771555901" lon="30.0148200989"><time>2026-04-25T17:37:27Z</time></trkpt><trkpt lat="59.0771770477" lon="30.0148415565"><time>2026-04-25T17:37:30Z</time></trkpt><trkpt lat="59.0771770477" lon="30.0148415565"><time>2026-04-25T17:37:32Z</time></trkpt><trkpt lat="59.0771770477" lon="30.0148415565"><time>2026-04-25T17:37:35Z</time></trkpt><trkpt lat="59.0771770477" lon="30.0148415565"><time>2026-04-25T17:37:37Z</time></trkpt><trkpt lat="59.0771770477" lon="30.0148415565"><time>2026-04-25T17:37:40Z</time></trkpt><trkpt lat="59.0771770477" lon="30.0148415565"><time>2026-04-25T17:37:42Z</time></trkpt><trkpt lat="59.0771770477" lon="30.0148415565"><time>2026-04-25T17:37:45Z</time></trkpt><trkpt lat="59.0771770477" lon="30.0148415565"><time>2026-04-25T17:37:47Z</time></trkpt><trkpt lat="59.0771770477" lon="30.0148415565"><time>2026-04-25T17:37:50Z</time></trkpt><trkpt lat="59.0771770477" lon="30.0148415565"><time>2026-04-25T17:37:52Z</time></trkpt><trkpt lat="59.0771770477" lon="30.0148415565"><time>2026-04-25T17:37:55Z</time></trkpt><trkpt lat="59.0771770477" lon="30.0148415565"><time>2026-04-25T17:37:57Z</time></trkpt><trkpt lat="59.0771770477" lon="30.0148415565"><time>2026-04-25T17:38:00Z</time></trkpt><trkpt lat="59.0771770477" lon="30.0148415565"><time>2026-04-25T17:38:02Z</time></trkpt><trkpt lat="59.0771770477" lon="30.0148415565"><time>2026-04-25T17:38:05Z</time></trkpt><trkpt lat="59.0771770477" lon="30.0148415565"><time>2026-04-25T17:38:07Z</time></trkpt><trkpt lat="59.0771770477" lon="30.0148415565"><time>2026-04-25T17:38:10Z</time></trkpt><trkpt lat="59.0771770477" lon="30.0148415565"><time>2026-04-25T17:38:12Z</time></trkpt><trkpt lat="59.0771770477" lon="30.0148415565"><time>2026-04-25T17:38:15Z</time></trkpt><trkpt lat="59.0771770477" lon="30.0148415565"><time>2026-04-25T17:38:17Z</time></trkpt><trkpt lat="59.0771770477" lon="30.0148415565"><time>2026-04-25T17:38:20Z</time></trkpt><trkpt lat="59.0771770477" lon="30.0148415565"><time>2026-04-25T17:38:22Z</time></trkpt><trkpt lat="59.0771770477" lon="30.0148415565"><time>2026-04-25T17:38:25Z</time></trkpt><trkpt lat="59.0771770477" lon="30.0148415565"><time>2026-04-25T17:38:27Z</time></trkpt><trkpt lat="59.0771770477" lon="30.0148415565"><time>2026-04-25T17:38:30Z</time></trkpt><trkpt lat="59.0771770477" lon="30.0148415565"><time>2026-04-25T17:38:32Z</time></trkpt><trkpt lat="59.0771770477" lon="30.0148415565"><time>2026-04-25T17:38:35Z</time></trkpt><trkpt lat="59.0771770477" lon="30.0148415565"><time>2026-04-25T17:38:37Z</time></trkpt><trkpt lat="59.0771770477" lon="30.0148415565"><time>2026-04-25T17:38:40Z</time></trkpt><trkpt lat="59.0771770477" lon="30.0148415565"><time>2026-04-25T17:38:42Z</time></trkpt><trkpt lat="59.0771770477" lon="30.0148415565"><time>2026-04-25T17:38:45Z</time></trkpt><trkpt lat="59.0771770477" lon="30.0148415565"><time>2026-04-25T17:38:47Z</time></trkpt><trkpt lat="59.0771770477" lon="30.0148630142"><time>2026-04-25T17:38:50Z</time></trkpt><trkpt lat="59.0771770477" lon="30.0148630142"><time>2026-04-25T17:38:52Z</time></trkpt><trkpt lat="59.0771770477" lon="30.0148630142"><time>2026-04-25T17:38:55Z</time></trkpt><trkpt lat="59.0771770477" lon="30.0148630142"><time>2026-04-25T17:38:57Z</time></trkpt><trkpt lat="59.0771770477" lon="30.0148630142"><time>2026-04-25T17:39:00Z</time></trkpt><trkpt lat="59.0771555901" lon="30.0148630142"><time>2026-04-25T17:39:02Z</time></trkpt><trkpt lat="59.0771555901" lon="30.0148630142"><time>2026-04-25T17:39:05Z</time></trkpt><trkpt lat="59.0771555901" lon="30.0148630142"><time>2026-04-25T17:39:07Z</time></trkpt><trkpt lat="59.0771555901" lon="30.0148630142"><time>2026-04-25T17:39:10Z</time></trkpt><trkpt lat="59.0771555901" lon="30.0148630142"><time>2026-04-25T17:39:12Z</time></trkpt><trkpt lat="59.0771770477" lon="30.0148630142"><time>2026-04-25T17:39:15Z</time></trkpt><trkpt lat="59.0771770477" lon="30.0148630142"><time>2026-04-25T17:39:17Z</time></trkpt><trkpt lat="59.0771770477" lon="30.0148200989"><time>2026-04-25T17:39:20Z</time></trkpt><trkpt lat="59.0771555901" lon="30.0147986412"><time>2026-04-25T17:39:22Z</time></trkpt><trkpt lat="59.0771341324" lon="30.0147771835"><time>2026-04-25T17:39:27Z</time></trkpt><trkpt lat="59.0771341324" lon="30.0147771835"><time>2026-04-25T17:39:30Z</time></trkpt><trkpt lat="59.0771341324" lon="30.0147771835"><time>2026-04-25T17:39:32Z</time></trkpt><trkpt lat="59.0771341324" lon="30.0147771835"><time>2026-04-25T17:39:35Z</time></trkpt><trkpt lat="59.0771341324" lon="30.0147771835"><time>2026-04-25T17:39:37Z</time></trkpt><trkpt lat="59.0771341324" lon="30.0147771835"><time>2026-04-25T17:39:40Z</time></trkpt><trkpt lat="59.0771555901" lon="30.0147771835"><time>2026-04-25T17:39:42Z</time></trkpt><trkpt lat="59.0771555901" lon="30.0147771835"><time>2026-04-25T17:39:45Z</time></trkpt><trkpt lat="59.0771555901" lon="30.0147771835"><time>2026-04-25T17:39:47Z</time></trkpt><trkpt lat="59.0771555901" lon="30.0147771835"><time>2026-04-25T17:39:50Z</time></trkpt><trkpt lat="59.0771555901" lon="30.0147771835"><time>2026-04-25T17:39:52Z</time></trkpt><trkpt lat="59.0771555901" lon="30.0147771835"><time>2026-04-25T17:39:55Z</time></trkpt><trkpt lat="59.0771555901" lon="30.0147342682"><time>2026-04-25T17:39:57Z</time></trkpt><trkpt lat="59.0771555901" lon="30.0147342682"><time>2026-04-25T17:40:00Z</time></trkpt><trkpt lat="59.0771555901" lon="30.0147342682"><time>2026-04-25T17:40:02Z</time></trkpt><trkpt lat="59.0771555901" lon="30.0147342682"><time>2026-04-25T17:40:05Z</time></trkpt><trkpt lat="59.0771555901" lon="30.0147342682"><time>2026-04-25T17:40:07Z</time></trkpt><trkpt lat="59.0771555901" lon="30.0147342682"><time>2026-04-25T17:40:10Z</time></trkpt><trkpt lat="59.0771555901" lon="30.0147342682"><time>2026-04-25T17:40:12Z</time></trkpt><trkpt lat="59.0771555901" lon="30.0147342682"><time>2026-04-25T17:40:15Z</time></trkpt><trkpt lat="59.0771555901" lon="30.0147342682"><time>2026-04-25T17:40:17Z</time></trkpt><trkpt lat="59.0771555901" lon="30.0147342682"><time>2026-04-25T17:40:20Z</time></trkpt><trkpt lat="59.0771555901" lon="30.0147128105"><time>2026-04-25T17:40:22Z</time></trkpt><trkpt lat="59.0771555901" lon="30.0147128105"><time>2026-04-25T17:40:25Z</time></trkpt><trkpt lat="59.0771555901" lon="30.0147128105"><time>2026-04-25T17:40:27Z</time></trkpt><trkpt lat="59.0771555901" lon="30.0147128105"><time>2026-04-25T17:40:30Z</time></trkpt><trkpt lat="59.0771555901" lon="30.0147128105"><time>2026-04-25T17:40:32Z</time></trkpt><trkpt lat="59.0771555901" lon="30.0147128105"><time>2026-04-25T17:40:35Z</time></trkpt><trkpt lat="59.0771555901" lon="30.0147128105"><time>2026-04-25T17:40:37Z</time></trkpt><trkpt lat="59.0771555901" lon="30.0147128105"><time>2026-04-25T17:40:40Z</time></trkpt><trkpt lat="59.0771555901" lon="30.0147128105"><time>2026-04-25T17:40:42Z</time></trkpt><trkpt lat="59.0771555901" lon="30.0145840645"><time>2026-04-25T17:40:45Z</time></trkpt><trkpt lat="59.0771555901" lon="30.0145196915"><time>2026-04-25T17:40:47Z</time></trkpt><trkpt lat="59.0771555901" lon="30.0144124031"><time>2026-04-25T17:40:50Z</time></trkpt><trkpt lat="59.0771555901" lon="30.0143480301"><time>2026-04-25T17:40:52Z</time></trkpt><trkpt lat="59.0771341324" lon="30.0142836571"><time>2026-04-25T17:40:55Z</time></trkpt><trkpt lat="59.0771341324" lon="30.0142836571"><time>2026-04-25T17:40:57Z</time></trkpt><trkpt lat="59.0771341324" lon="30.0142192841"><time>2026-04-25T17:41:00Z</time></trkpt><trkpt lat="59.0771126747" lon="30.0141763687"><time>2026-04-25T17:41:02Z</time></trkpt><trkpt lat="59.0771126747" lon="30.0141334534"><time>2026-04-25T17:41:05Z</time></trkpt><trkpt lat="59.0771126747" lon="30.0141119957"><time>2026-04-25T17:41:10Z</time></trkpt><trkpt lat="59.0771341324" lon="30.0141334534"><time>2026-04-25T17:41:12Z</time></trkpt><trkpt lat="59.0771341324" lon="30.0140690804"><time>2026-04-25T17:41:15Z</time></trkpt><trkpt lat="59.0771555901" lon="30.0140690804"><time>2026-04-25T17:41:17Z</time></trkpt><trkpt lat="59.0771770477" lon="30.0140476227"><time>2026-04-25T17:41:20Z</time></trkpt><trkpt lat="59.0771770477" lon="30.0140261650"><time>2026-04-25T17:41:22Z</time></trkpt><trkpt lat="59.0771555901" lon="30.0140047073"><time>2026-04-25T17:41:25Z</time></trkpt><trkpt lat="59.0771555901" lon="30.0139617920"><time>2026-04-25T17:41:27Z</time></trkpt><trkpt lat="59.0771555901" lon="30.0139188766"><time>2026-04-25T17:41:30Z</time></trkpt><trkpt lat="59.0771555901" lon="30.0138759613"><time>2026-04-25T17:41:32Z</time></trkpt><trkpt lat="59.0771555901" lon="30.0138115883"><time>2026-04-25T17:41:35Z</time></trkpt><trkpt lat="59.0771770477" lon="30.0137901306"><time>2026-04-25T17:41:37Z</time></trkpt><trkpt lat="59.0771770477" lon="30.0137472153"><time>2026-04-25T17:41:40Z</time></trkpt><trkpt lat="59.0771770477" lon="30.0137257576"><time>2026-04-25T17:41:42Z</time></trkpt><trkpt lat="59.0771770477" lon="30.0136828423"><time>2026-04-25T17:41:45Z</time></trkpt><trkpt lat="59.0771770477" lon="30.0136828423"><time>2026-04-25T17:41:47Z</time></trkpt><trkpt lat="59.0771985054" lon="30.0137042999"><time>2026-04-25T17:41:50Z</time></trkpt><trkpt lat="59.0771985054" lon="30.0137042999"><time>2026-04-25T17:41:52Z</time></trkpt><trkpt lat="59.0771985054" lon="30.0137042999"><time>2026-04-25T17:41:55Z</time></trkpt><trkpt lat="59.0771985054" lon="30.0137042999"><time>2026-04-25T17:41:57Z</time></trkpt><trkpt lat="59.0771985054" lon="30.0137042999"><time>2026-04-25T17:42:00Z</time></trkpt><trkpt lat="59.0771985054" lon="30.0137042999"><time>2026-04-25T17:42:02Z</time></trkpt><trkpt lat="59.0771985054" lon="30.0137042999"><time>2026-04-25T17:42:05Z</time></trkpt><trkpt lat="59.0771985054" lon="30.0137042999"><time>2026-04-25T17:42:07Z</time></trkpt><trkpt lat="59.0771985054" lon="30.0137042999"><time>2026-04-25T17:42:10Z</time></trkpt><trkpt lat="59.0771985054" lon="30.0137686729"><time>2026-04-25T17:42:12Z</time></trkpt><trkpt lat="59.0771985054" lon="30.0137472153"><time>2026-04-25T17:42:15Z</time></trkpt><trkpt lat="59.0771770477" lon="30.0137257576"><time>2026-04-25T17:42:17Z</time></trkpt><trkpt lat="59.0771770477" lon="30.0136613846"><time>2026-04-25T17:42:20Z</time></trkpt><trkpt lat="59.0771555901" lon="30.0136399269"><time>2026-04-25T17:42:22Z</time></trkpt><trkpt lat="59.0771555901" lon="30.0135755539"><time>2026-04-25T17:42:25Z</time></trkpt><trkpt lat="59.0771341324" lon="30.0135755539"><time>2026-04-25T17:42:27Z</time></trkpt><trkpt lat="59.0771341324" lon="30.0135540962"><time>2026-04-25T17:42:30Z</time></trkpt><trkpt lat="59.0771126747" lon="30.0135326385"><time>2026-04-25T17:42:32Z</time></trkpt><trkpt lat="59.0771126747" lon="30.0135111809"><time>2026-04-25T17:42:35Z</time></trkpt><trkpt lat="59.0771126747" lon="30.0134682655"><time>2026-04-25T17:42:37Z</time></trkpt><trkpt lat="59.0770912170" lon="30.0134468079"><time>2026-04-25T17:42:40Z</time></trkpt><trkpt lat="59.0770912170" lon="30.0134253502"><time>2026-04-25T17:42:42Z</time></trkpt><trkpt lat="59.0770912170" lon="30.0133609772"><time>2026-04-25T17:42:45Z</time></trkpt><trkpt lat="59.0770912170" lon="30.0133395195"><time>2026-04-25T17:42:47Z</time></trkpt><trkpt lat="59.0770912170" lon="30.0132966042"><time>2026-04-25T17:42:50Z</time></trkpt><trkpt lat="59.0770912170" lon="30.0132751465"><time>2026-04-25T17:42:52Z</time></trkpt><trkpt lat="59.0771126747" lon="30.0132322311"><time>2026-04-25T17:42:55Z</time></trkpt><trkpt lat="59.0771126747" lon="30.0132107735"><time>2026-04-25T17:42:57Z</time></trkpt><trkpt lat="59.0771126747" lon="30.0132107735"><time>2026-04-25T17:43:00Z</time></trkpt><trkpt lat="59.0771126747" lon="30.0132107735"><time>2026-04-25T17:43:02Z</time></trkpt><trkpt lat="59.0770912170" lon="30.0131893158"><time>2026-04-25T17:43:05Z</time></trkpt><trkpt lat="59.0770912170" lon="30.0131893158"><time>2026-04-25T17:43:07Z</time></trkpt><trkpt lat="59.0771126747" lon="30.0131464005"><time>2026-04-25T17:43:10Z</time></trkpt><trkpt lat="59.0771126747" lon="30.0131464005"><time>2026-04-25T17:43:12Z</time></trkpt><trkpt lat="59.0771126747" lon="30.0131249428"><time>2026-04-25T17:43:15Z</time></trkpt><trkpt lat="59.0771126747" lon="30.0131249428"><time>2026-04-25T17:43:17Z</time></trkpt><trkpt lat="59.0770912170" lon="30.0131034851"><time>2026-04-25T17:43:20Z</time></trkpt><trkpt lat="59.0770912170" lon="30.0130820274"><time>2026-04-25T17:43:22Z</time></trkpt><trkpt lat="59.0770697594" lon="30.0130391121"><time>2026-04-25T17:43:25Z</time></trkpt><trkpt lat="59.0770697594" lon="30.0130391121"><time>2026-04-25T17:43:27Z</time></trkpt><trkpt lat="59.0770697594" lon="30.0129961967"><time>2026-04-25T17:43:30Z</time></trkpt><trkpt lat="59.0770483017" lon="30.0129747391"><time>2026-04-25T17:43:32Z</time></trkpt><trkpt lat="59.0770483017" lon="30.0129318237"><time>2026-04-25T17:43:35Z</time></trkpt><trkpt lat="59.0770483017" lon="30.0129103661"><time>2026-04-25T17:43:37Z</time></trkpt><trkpt lat="59.0770483017" lon="30.0128889084"><time>2026-04-25T17:43:40Z</time></trkpt><trkpt lat="59.0770483017" lon="30.0128459930"><time>2026-04-25T17:43:42Z</time></trkpt><trkpt lat="59.0770268440" lon="30.0128030777"><time>2026-04-25T17:43:45Z</time></trkpt><trkpt lat="59.0770483017" lon="30.0127816200"><time>2026-04-25T17:43:47Z</time></trkpt><trkpt lat="59.0770268440" lon="30.0127601624"><time>2026-04-25T17:43:50Z</time></trkpt><trkpt lat="59.0770053864" lon="30.0127172470"><time>2026-04-25T17:43:52Z</time></trkpt><trkpt lat="59.0770053864" lon="30.0126528740"><time>2026-04-25T17:43:55Z</time></trkpt><trkpt lat="59.0770053864" lon="30.0126314163"><time>2026-04-25T17:43:57Z</time></trkpt><trkpt lat="59.0770053864" lon="30.0126099586"><time>2026-04-25T17:44:00Z</time></trkpt><trkpt lat="59.0770053864" lon="30.0126099586"><time>2026-04-25T17:44:02Z</time></trkpt><trkpt lat="59.0769839287" lon="30.0125885010"><time>2026-04-25T17:44:05Z</time></trkpt><trkpt lat="59.0769839287" lon="30.0125670433"><time>2026-04-25T17:44:07Z</time></trkpt><trkpt lat="59.0769839287" lon="30.0125241280"><time>2026-04-25T17:44:10Z</time></trkpt><trkpt lat="59.0769839287" lon="30.0124812126"><time>2026-04-25T17:44:12Z</time></trkpt><trkpt lat="59.0769839287" lon="30.0124382973"><time>2026-04-25T17:44:15Z</time></trkpt><trkpt lat="59.0769839287" lon="30.0124168396"><time>2026-04-25T17:44:17Z</time></trkpt><trkpt lat="59.0769624710" lon="30.0123524666"><time>2026-04-25T17:44:20Z</time></trkpt><trkpt lat="59.0769624710" lon="30.0123524666"><time>2026-04-25T17:44:22Z</time></trkpt><trkpt lat="59.0769624710" lon="30.0123310089"><time>2026-04-25T17:44:25Z</time></trkpt><trkpt lat="59.0769410133" lon="30.0123310089"><time>2026-04-25T17:44:27Z</time></trkpt><trkpt lat="59.0769410133" lon="30.0123310089"><time>2026-04-25T17:44:30Z</time></trkpt><trkpt lat="59.0769195557" lon="30.0123310089"><time>2026-04-25T17:44:32Z</time></trkpt><trkpt lat="59.0768980980" lon="30.0122880936"><time>2026-04-25T17:44:35Z</time></trkpt><trkpt lat="59.0768766403" lon="30.0122666359"><time>2026-04-25T17:44:37Z</time></trkpt><trkpt lat="59.0768766403" lon="30.0122022629"><time>2026-04-25T17:44:40Z</time></trkpt><trkpt lat="59.0768980980" lon="30.0121808052"><time>2026-04-25T17:44:42Z</time></trkpt><trkpt lat="59.0768980980" lon="30.0121593475"><time>2026-04-25T17:44:45Z</time></trkpt><trkpt lat="59.0768766403" lon="30.0121378899"><time>2026-04-25T17:44:47Z</time></trkpt><trkpt lat="59.0768980980" lon="30.0121378899"><time>2026-04-25T17:44:50Z</time></trkpt><trkpt lat="59.0768980980" lon="30.0120949745"><time>2026-04-25T17:44:52Z</time></trkpt><trkpt lat="59.0768766403" lon="30.0120520592"><time>2026-04-25T17:44:55Z</time></trkpt><trkpt lat="59.0768980980" lon="30.0120306015"><time>2026-04-25T17:44:57Z</time></trkpt><trkpt lat="59.0768980980" lon="30.0120520592"><time>2026-04-25T17:45:00Z</time></trkpt><trkpt lat="59.0768980980" lon="30.0120306015"><time>2026-04-25T17:45:02Z</time></trkpt><trkpt lat="59.0768980980" lon="30.0119876862"><time>2026-04-25T17:45:05Z</time></trkpt><trkpt lat="59.0768980980" lon="30.0119662285"><time>2026-04-25T17:45:07Z</time></trkpt><trkpt lat="59.0768980980" lon="30.0119447708"><time>2026-04-25T17:45:10Z</time></trkpt><trkpt lat="59.0768766403" lon="30.0119233131"><time>2026-04-25T17:45:12Z</time></trkpt><trkpt lat="59.0768766403" lon="30.0119018555"><time>2026-04-25T17:45:15Z</time></trkpt><trkpt lat="59.0768766403" lon="30.0119018555"><time>2026-04-25T17:45:17Z</time></trkpt><trkpt lat="59.0768551826" lon="30.0118803978"><time>2026-04-25T17:45:20Z</time></trkpt><trkpt lat="59.0768551826" lon="30.0118803978"><time>2026-04-25T17:45:22Z</time></trkpt><trkpt lat="59.0768337250" lon="30.0118803978"><time>2026-04-25T17:45:25Z</time></trkpt><trkpt lat="59.0768122673" lon="30.0118803978"><time>2026-04-25T17:45:27Z</time></trkpt><trkpt lat="59.0767908096" lon="30.0118589401"><time>2026-04-25T17:45:30Z</time></trkpt><trkpt lat="59.0767908096" lon="30.0118589401"><time>2026-04-25T17:45:32Z</time></trkpt><trkpt lat="59.0767693520" lon="30.0118160248"><time>2026-04-25T17:45:35Z</time></trkpt><trkpt lat="59.0767693520" lon="30.0117731094"><time>2026-04-25T17:45:37Z</time></trkpt><trkpt lat="59.0767478943" lon="30.0117516518"><time>2026-04-25T17:45:40Z</time></trkpt><trkpt lat="59.0767478943" lon="30.0117301941"><time>2026-04-25T17:45:42Z</time></trkpt><trkpt lat="59.0767264366" lon="30.0116872787"><time>2026-04-25T17:45:45Z</time></trkpt><trkpt lat="59.0767264366" lon="30.0116658211"><time>2026-04-25T17:45:47Z</time></trkpt><trkpt lat="59.0767049789" lon="30.0116229057"><time>2026-04-25T17:45:50Z</time></trkpt><trkpt lat="59.0767049789" lon="30.0116014481"><time>2026-04-25T17:45:52Z</time></trkpt><trkpt lat="59.0767049789" lon="30.0116014481"><time>2026-04-25T17:45:55Z</time></trkpt><trkpt lat="59.0767264366" lon="30.0115799904"><time>2026-04-25T17:45:57Z</time></trkpt><trkpt lat="59.0767264366" lon="30.0115156174"><time>2026-04-25T17:46:00Z</time></trkpt><trkpt lat="59.0767478943" lon="30.0114941597"><time>2026-04-25T17:46:02Z</time></trkpt><trkpt lat="59.0767264366" lon="30.0114727020"><time>2026-04-25T17:46:05Z</time></trkpt><trkpt lat="59.0767264366" lon="30.0114297867"><time>2026-04-25T17:46:07Z</time></trkpt><trkpt lat="59.0767264366" lon="30.0113868713"><time>2026-04-25T17:46:10Z</time></trkpt><trkpt lat="59.0767049789" lon="30.0113654137"><time>2026-04-25T17:46:12Z</time></trkpt><trkpt lat="59.0766835213" lon="30.0113224983"><time>2026-04-25T17:46:15Z</time></trkpt><trkpt lat="59.0766835213" lon="30.0113010406"><time>2026-04-25T17:46:17Z</time></trkpt><trkpt lat="59.0766835213" lon="30.0112366676"><time>2026-04-25T17:46:20Z</time></trkpt><trkpt lat="59.0766835213" lon="30.0111937523"><time>2026-04-25T17:46:22Z</time></trkpt><trkpt lat="59.0766835213" lon="30.0111508369"><time>2026-04-25T17:46:25Z</time></trkpt><trkpt lat="59.0766835213" lon="30.0111293793"><time>2026-04-25T17:46:27Z</time></trkpt><trkpt lat="59.0766835213" lon="30.0110650063"><time>2026-04-25T17:46:30Z</time></trkpt><trkpt lat="59.0766835213" lon="30.0110220909"><time>2026-04-25T17:46:32Z</time></trkpt><trkpt lat="59.0766620636" lon="30.0109791756"><time>2026-04-25T17:46:35Z</time></trkpt><trkpt lat="59.0766620636" lon="30.0109577179"><time>2026-04-25T17:46:37Z</time></trkpt><trkpt lat="59.0766620636" lon="30.0109148026"><time>2026-04-25T17:46:40Z</time></trkpt><trkpt lat="59.0766620636" lon="30.0108933449"><time>2026-04-25T17:46:42Z</time></trkpt><trkpt lat="59.0766620636" lon="30.0108504295"><time>2026-04-25T17:46:45Z</time></trkpt><trkpt lat="59.0766620636" lon="30.0108289719"><time>2026-04-25T17:46:47Z</time></trkpt><trkpt lat="59.0766406059" lon="30.0107860565"><time>2026-04-25T17:46:50Z</time></trkpt><trkpt lat="59.0766406059" lon="30.0107431412"><time>2026-04-25T17:46:52Z</time></trkpt><trkpt lat="59.0766406059" lon="30.0107002258"><time>2026-04-25T17:46:55Z</time></trkpt><trkpt lat="59.0766406059" lon="30.0106787682"><time>2026-04-25T17:46:57Z</time></trkpt><trkpt lat="59.0766406059" lon="30.0106358528"><time>2026-04-25T17:47:00Z</time></trkpt><trkpt lat="59.0766406059" lon="30.0105929375"><time>2026-04-25T17:47:02Z</time></trkpt><trkpt lat="59.0766406059" lon="30.0105500221"><time>2026-04-25T17:47:05Z</time></trkpt><trkpt lat="59.0766406059" lon="30.0105071068"><time>2026-04-25T17:47:07Z</time></trkpt><trkpt lat="59.0766406059" lon="30.0104427338"><time>2026-04-25T17:47:10Z</time></trkpt><trkpt lat="59.0766406059" lon="30.0104212761"><time>2026-04-25T17:47:12Z</time></trkpt><trkpt lat="59.0766406059" lon="30.0103783607"><time>2026-04-25T17:47:15Z</time></trkpt><trkpt lat="59.0766406059" lon="30.0103783607"><time>2026-04-25T17:47:17Z</time></trkpt><trkpt lat="59.0766406059" lon="30.0103783607"><time>2026-04-25T17:47:20Z</time></trkpt><trkpt lat="59.0766406059" lon="30.0103783607"><time>2026-04-25T17:47:22Z</time></trkpt><trkpt lat="59.0766406059" lon="30.0103783607"><time>2026-04-25T17:47:25Z</time></trkpt><trkpt lat="59.0766406059" lon="30.0103783607"><time>2026-04-25T17:47:27Z</time></trkpt><trkpt lat="59.0766406059" lon="30.0103783607"><time>2026-04-25T17:47:30Z</time></trkpt><trkpt lat="59.0766406059" lon="30.0103783607"><time>2026-04-25T17:47:32Z</time></trkpt><trkpt lat="59.0766406059" lon="30.0103783607"><time>2026-04-25T17:47:35Z</time></trkpt><trkpt lat="59.0766406059" lon="30.0103783607"><time>2026-04-25T17:47:37Z</time></trkpt><trkpt lat="59.0766406059" lon="30.0103354454"><time>2026-04-25T17:47:40Z</time></trkpt><trkpt lat="59.0766406059" lon="30.0102710724"><time>2026-04-25T17:47:42Z</time></trkpt><trkpt lat="59.0766406059" lon="30.0101852417"><time>2026-04-25T17:47:45Z</time></trkpt><trkpt lat="59.0766406059" lon="30.0101423264"><time>2026-04-25T17:47:47Z</time></trkpt><trkpt lat="59.0766406059" lon="30.0100779533"><time>2026-04-25T17:47:50Z</time></trkpt><trkpt lat="59.0766406059" lon="30.0100564957"><time>2026-04-25T17:47:52Z</time></trkpt><trkpt lat="59.0766406059" lon="30.0100350380"><time>2026-04-25T17:47:55Z</time></trkpt><trkpt lat="59.0766406059" lon="30.0100350380"><time>2026-04-25T17:47:57Z</time></trkpt><trkpt lat="59.0766406059" lon="30.0099492073"><time>2026-04-25T17:48:00Z</time></trkpt><trkpt lat="59.0766406059" lon="30.0099062920"><time>2026-04-25T17:48:02Z</time></trkpt><trkpt lat="59.0766406059" lon="30.0098633766"><time>2026-04-25T17:48:05Z</time></trkpt><trkpt lat="59.0766406059" lon="30.0098419189"><time>2026-04-25T17:48:07Z</time></trkpt><trkpt lat="59.0766406059" lon="30.0097775459"><time>2026-04-25T17:48:10Z</time></trkpt><trkpt lat="59.0766406059" lon="30.0097560883"><time>2026-04-25T17:48:12Z</time></trkpt><trkpt lat="59.0766406059" lon="30.0096917152"><time>2026-04-25T17:48:15Z</time></trkpt><trkpt lat="59.0766406059" lon="30.0096487999"><time>2026-04-25T17:48:17Z</time></trkpt><trkpt lat="59.0766406059" lon="30.0096487999"><time>2026-04-25T17:48:20Z</time></trkpt><trkpt lat="59.0766406059" lon="30.0096487999"><time>2026-04-25T17:48:22Z</time></trkpt><trkpt lat="59.0766406059" lon="30.0096487999"><time>2026-04-25T17:48:25Z</time></trkpt><trkpt lat="59.0766406059" lon="30.0096487999"><time>2026-04-25T17:48:27Z</time></trkpt><trkpt lat="59.0766406059" lon="30.0096487999"><time>2026-04-25T17:48:30Z</time></trkpt><trkpt lat="59.0766406059" lon="30.0096487999"><time>2026-04-25T17:48:32Z</time></trkpt><trkpt lat="59.0766406059" lon="30.0096487999"><time>2026-04-25T17:48:35Z</time></trkpt><trkpt lat="59.0766406059" lon="30.0096487999"><time>2026-04-25T17:48:37Z</time></trkpt><trkpt lat="59.0766406059" lon="30.0096487999"><time>2026-04-25T17:48:40Z</time></trkpt><trkpt lat="59.0766406059" lon="30.0096487999"><time>2026-04-25T17:48:42Z</time></trkpt><trkpt lat="59.0766406059" lon="30.0096487999"><time>2026-04-25T17:48:45Z</time></trkpt><trkpt lat="59.0766406059" lon="30.0096487999"><time>2026-04-25T17:48:47Z</time></trkpt><trkpt lat="59.0766406059" lon="30.0096487999"><time>2026-04-25T17:48:50Z</time></trkpt><trkpt lat="59.0766406059" lon="30.0096487999"><time>2026-04-25T17:48:52Z</time></trkpt><trkpt lat="59.0766406059" lon="30.0096487999"><time>2026-04-25T17:48:55Z</time></trkpt><trkpt lat="59.0766406059" lon="30.0096487999"><time>2026-04-25T17:48:57Z</time></trkpt><trkpt lat="59.0766406059" lon="30.0096487999"><time>2026-04-25T17:49:00Z</time></trkpt><trkpt lat="59.0766406059" lon="30.0096487999"><time>2026-04-25T17:49:02Z</time></trkpt><trkpt lat="59.0766406059" lon="30.0096487999"><time>2026-04-25T17:49:05Z</time></trkpt><trkpt lat="59.0766406059" lon="30.0096702576"><time>2026-04-25T17:49:07Z</time></trkpt><trkpt lat="59.0766191483" lon="30.0096917152"><time>2026-04-25T17:49:10Z</time></trkpt><trkpt lat="59.0765976906" lon="30.0097131729"><time>2026-04-25T17:49:12Z</time></trkpt><trkpt lat="59.0765976906" lon="30.0097131729"><time>2026-04-25T17:49:15Z</time></trkpt><trkpt lat="59.0765976906" lon="30.0097131729"><time>2026-04-25T17:49:17Z</time></trkpt><trkpt lat="59.0765976906" lon="30.0097131729"><time>2026-04-25T17:49:20Z</time></trkpt><trkpt lat="59.0765762329" lon="30.0097346306"><time>2026-04-25T17:49:22Z</time></trkpt><trkpt lat="59.0765333176" lon="30.0097560883"><time>2026-04-25T17:49:25Z</time></trkpt><trkpt lat="59.0765118599" lon="30.0097775459"><time>2026-04-25T17:49:27Z</time></trkpt><trkpt lat="59.0764689445" lon="30.0097990036"><time>2026-04-25T17:49:30Z</time></trkpt><trkpt lat="59.0764474869" lon="30.0097990036"><time>2026-04-25T17:49:32Z</time></trkpt><trkpt lat="59.0764474869" lon="30.0097990036"><time>2026-04-25T17:49:35Z</time></trkpt><trkpt lat="59.0764260292" lon="30.0097990036"><time>2026-04-25T17:49:37Z</time></trkpt><trkpt lat="59.0764045715" lon="30.0097990036"><time>2026-04-25T17:49:40Z</time></trkpt><trkpt lat="59.0763831139" lon="30.0098204613"><time>2026-04-25T17:49:42Z</time></trkpt><trkpt lat="59.0763616562" lon="30.0098204613"><time>2026-04-25T17:49:45Z</time></trkpt><trkpt lat="59.0763401985" lon="30.0098204613"><time>2026-04-25T17:49:47Z</time></trkpt><trkpt lat="59.0763187408" lon="30.0098204613"><time>2026-04-25T17:49:50Z</time></trkpt><trkpt lat="59.0762972832" lon="30.0098419189"><time>2026-04-25T17:49:52Z</time></trkpt><trkpt lat="59.0762972832" lon="30.0098419189"><time>2026-04-25T17:49:55Z</time></trkpt><trkpt lat="59.0762758255" lon="30.0098633766"><time>2026-04-25T17:49:57Z</time></trkpt><trkpt lat="59.0762758255" lon="30.0098848343"><time>2026-04-25T17:50:00Z</time></trkpt><trkpt lat="59.0762543678" lon="30.0099062920"><time>2026-04-25T17:50:02Z</time></trkpt><trkpt lat="59.0762329102" lon="30.0099062920"><time>2026-04-25T17:50:05Z</time></trkpt><trkpt lat="59.0762114525" lon="30.0099277496"><time>2026-04-25T17:50:07Z</time></trkpt><trkpt lat="59.0761899948" lon="30.0099062920"><time>2026-04-25T17:50:10Z</time></trkpt><trkpt lat="59.0761899948" lon="30.0099277496"><time>2026-04-25T17:50:12Z</time></trkpt><trkpt lat="59.0761685371" lon="30.0099277496"><time>2026-04-25T17:50:15Z</time></trkpt><trkpt lat="59.0761685371" lon="30.0099277496"><time>2026-04-25T17:50:17Z</time></trkpt><trkpt lat="59.0761685371" lon="30.0099277496"><time>2026-04-25T17:50:20Z</time></trkpt><trkpt lat="59.0761685371" lon="30.0099277496"><time>2026-04-25T17:50:22Z</time></trkpt><trkpt lat="59.0761685371" lon="30.0099277496"><time>2026-04-25T17:50:25Z</time></trkpt><trkpt lat="59.0761685371" lon="30.0099277496"><time>2026-04-25T17:50:27Z</time></trkpt><trkpt lat="59.0761685371" lon="30.0099277496"><time>2026-04-25T17:50:30Z</time></trkpt><trkpt lat="59.0761685371" lon="30.0099277496"><time>2026-04-25T17:50:32Z</time></trkpt><trkpt lat="59.0761685371" lon="30.0099277496"><time>2026-04-25T17:50:35Z</time></trkpt><trkpt lat="59.0761685371" lon="30.0099277496"><time>2026-04-25T17:50:37Z</time></trkpt><trkpt lat="59.0761685371" lon="30.0099277496"><time>2026-04-25T17:50:40Z</time></trkpt><trkpt lat="59.0761685371" lon="30.0099277496"><time>2026-04-25T17:50:42Z</time></trkpt><trkpt lat="59.0761685371" lon="30.0099277496"><time>2026-04-25T17:50:45Z</time></trkpt><trkpt lat="59.0761685371" lon="30.0099277496"><time>2026-04-25T17:50:47Z</time></trkpt><trkpt lat="59.0761685371" lon="30.0099277496"><time>2026-04-25T17:50:50Z</time></trkpt><trkpt lat="59.0761685371" lon="30.0099277496"><time>2026-04-25T17:50:52Z</time></trkpt><trkpt lat="59.0761685371" lon="30.0099277496"><time>2026-04-25T17:50:55Z</time></trkpt><trkpt lat="59.0761685371" lon="30.0099277496"><time>2026-04-25T17:50:57Z</time></trkpt><trkpt lat="59.0761685371" lon="30.0099277496"><time>2026-04-25T17:51:00Z</time></trkpt><trkpt lat="59.0761685371" lon="30.0099277496"><time>2026-04-25T17:51:02Z</time></trkpt><trkpt lat="59.0761685371" lon="30.0099277496"><time>2026-04-25T17:51:05Z</time></trkpt><trkpt lat="59.0761685371" lon="30.0099277496"><time>2026-04-25T17:51:07Z</time></trkpt><trkpt lat="59.0761685371" lon="30.0099277496"><time>2026-04-25T17:51:10Z</time></trkpt><trkpt lat="59.0761685371" lon="30.0099277496"><time>2026-04-25T17:51:12Z</time></trkpt><trkpt lat="59.0761685371" lon="30.0099277496"><time>2026-04-25T17:51:15Z</time></trkpt><trkpt lat="59.0761685371" lon="30.0099277496"><time>2026-04-25T17:51:17Z</time></trkpt><trkpt lat="59.0761685371" lon="30.0099277496"><time>2026-04-25T17:51:20Z</time></trkpt><trkpt lat="59.0761685371" lon="30.0099277496"><time>2026-04-25T17:51:22Z</time></trkpt><trkpt lat="59.0761685371" lon="30.0099277496"><time>2026-04-25T17:51:25Z</time></trkpt><trkpt lat="59.0761685371" lon="30.0099277496"><time>2026-04-25T17:51:27Z</time></trkpt><trkpt lat="59.0761685371" lon="30.0099277496"><time>2026-04-25T17:51:30Z</time></trkpt><trkpt lat="59.0761685371" lon="30.0099277496"><time>2026-04-25T17:51:32Z</time></trkpt><trkpt lat="59.0761685371" lon="30.0099277496"><time>2026-04-25T17:51:35Z</time></trkpt><trkpt lat="59.0761685371" lon="30.0099277496"><time>2026-04-25T17:51:37Z</time></trkpt><trkpt lat="59.0761685371" lon="30.0099277496"><time>2026-04-25T17:51:40Z</time></trkpt><trkpt lat="59.0761685371" lon="30.0099277496"><time>2026-04-25T17:51:42Z</time></trkpt><trkpt lat="59.0761685371" lon="30.0099277496"><time>2026-04-25T17:51:45Z</time></trkpt><trkpt lat="59.0761685371" lon="30.0099277496"><time>2026-04-25T17:51:47Z</time></trkpt><trkpt lat="59.0761685371" lon="30.0099277496"><time>2026-04-25T17:51:50Z</time></trkpt><trkpt lat="59.0761685371" lon="30.0099277496"><time>2026-04-25T17:51:52Z</time></trkpt><trkpt lat="59.0761685371" lon="30.0099277496"><time>2026-04-25T17:51:55Z</time></trkpt><trkpt lat="59.0761685371" lon="30.0099277496"><time>2026-04-25T17:51:57Z</time></trkpt><trkpt lat="59.0761685371" lon="30.0099277496"><time>2026-04-25T17:52:00Z</time></trkpt><trkpt lat="59.0761685371" lon="30.0099277496"><time>2026-04-25T17:52:02Z</time></trkpt><trkpt lat="59.0761685371" lon="30.0099277496"><time>2026-04-25T17:52:05Z</time></trkpt><trkpt lat="59.0761685371" lon="30.0099277496"><time>2026-04-25T17:52:07Z</time></trkpt><trkpt lat="59.0761685371" lon="30.0099277496"><time>2026-04-25T17:52:10Z</time></trkpt><trkpt lat="59.0761685371" lon="30.0099277496"><time>2026-04-25T17:52:12Z</time></trkpt><trkpt lat="59.0761685371" lon="30.0099277496"><time>2026-04-25T17:52:15Z</time></trkpt><trkpt lat="59.0761685371" lon="30.0099277496"><time>2026-04-25T17:52:17Z</time></trkpt><trkpt lat="59.0761685371" lon="30.0099277496"><time>2026-04-25T17:52:20Z</time></trkpt><trkpt lat="59.0761685371" lon="30.0099277496"><time>2026-04-25T17:52:22Z</time></trkpt><trkpt lat="59.0761685371" lon="30.0099277496"><time>2026-04-25T17:52:25Z</time></trkpt><trkpt lat="59.0761685371" lon="30.0099277496"><time>2026-04-25T17:52:27Z</time></trkpt><trkpt lat="59.0761685371" lon="30.0099277496"><time>2026-04-25T17:52:30Z</time></trkpt><trkpt lat="59.0761685371" lon="30.0099277496"><time>2026-04-25T17:52:32Z</time></trkpt><trkpt lat="59.0761685371" lon="30.0099277496"><time>2026-04-25T17:52:35Z</time></trkpt><trkpt lat="59.0761685371" lon="30.0099277496"><time>2026-04-25T17:52:37Z</time></trkpt><trkpt lat="59.0761685371" lon="30.0099277496"><time>2026-04-25T17:52:40Z</time></trkpt><trkpt lat="59.0761685371" lon="30.0099277496"><time>2026-04-25T17:52:42Z</time></trkpt><trkpt lat="59.0761685371" lon="30.0099277496"><time>2026-04-25T17:52:45Z</time></trkpt><trkpt lat="59.0761685371" lon="30.0099277496"><time>2026-04-25T17:52:47Z</time></trkpt><trkpt lat="59.0761685371" lon="30.0099277496"><time>2026-04-25T17:52:50Z</time></trkpt><trkpt lat="59.0761685371" lon="30.0099277496"><time>2026-04-25T17:52:52Z</time></trkpt><trkpt lat="59.0761685371" lon="30.0099277496"><time>2026-04-25T17:52:55Z</time></trkpt><trkpt lat="59.0761685371" lon="30.0099277496"><time>2026-04-25T17:52:57Z</time></trkpt><trkpt lat="59.0761685371" lon="30.0099277496"><time>2026-04-25T17:53:00Z</time></trkpt><trkpt lat="59.0761685371" lon="30.0099277496"><time>2026-04-25T17:53:02Z</time></trkpt><trkpt lat="59.0761685371" lon="30.0099277496"><time>2026-04-25T17:53:05Z</time></trkpt><trkpt lat="59.0761685371" lon="30.0099277496"><time>2026-04-25T17:53:07Z</time></trkpt><trkpt lat="59.0761685371" lon="30.0099277496"><time>2026-04-25T17:53:10Z</time></trkpt><trkpt lat="59.0761685371" lon="30.0099277496"><time>2026-04-25T17:53:12Z</time></trkpt><trkpt lat="59.0761685371" lon="30.0099277496"><time>2026-04-25T17:53:15Z</time></trkpt><trkpt lat="59.0761685371" lon="30.0099277496"><time>2026-04-25T17:53:17Z</time></trkpt><trkpt lat="59.0761685371" lon="30.0099277496"><time>2026-04-25T17:53:20Z</time></trkpt><trkpt lat="59.0761685371" lon="30.0099277496"><time>2026-04-25T17:53:22Z</time></trkpt><trkpt lat="59.0761685371" lon="30.0099277496"><time>2026-04-25T17:53:25Z</time></trkpt><trkpt lat="59.0761685371" lon="30.0099277496"><time>2026-04-25T17:53:27Z</time></trkpt><trkpt lat="59.0761685371" lon="30.0099277496"><time>2026-04-25T17:53:30Z</time></trkpt><trkpt lat="59.0761685371" lon="30.0099277496"><time>2026-04-25T17:53:32Z</time></trkpt><trkpt lat="59.0761685371" lon="30.0099277496"><time>2026-04-25T17:53:35Z</time></trkpt><trkpt lat="59.0761685371" lon="30.0099277496"><time>2026-04-25T17:53:37Z</time></trkpt><trkpt lat="59.0761685371" lon="30.0099277496"><time>2026-04-25T17:53:40Z</time></trkpt><trkpt lat="59.0761685371" lon="30.0099277496"><time>2026-04-25T17:53:42Z</time></trkpt><trkpt lat="59.0761685371" lon="30.0099277496"><time>2026-04-25T17:53:45Z</time></trkpt><trkpt lat="59.0761685371" lon="30.0099277496"><time>2026-04-25T17:53:47Z</time></trkpt><trkpt lat="59.0761685371" lon="30.0099277496"><time>2026-04-25T17:53:50Z</time></trkpt><trkpt lat="59.0761685371" lon="30.0099277496"><time>2026-04-25T17:53:52Z</time></trkpt><trkpt lat="59.0761685371" lon="30.0099277496"><time>2026-04-25T17:53:55Z</time></trkpt><trkpt lat="59.0761685371" lon="30.0099277496"><time>2026-04-25T17:53:57Z</time></trkpt><trkpt lat="59.0761685371" lon="30.0099277496"><time>2026-04-25T17:54:00Z</time></trkpt><trkpt lat="59.0761685371" lon="30.0099277496"><time>2026-04-25T17:54:02Z</time></trkpt><trkpt lat="59.0761685371" lon="30.0099277496"><time>2026-04-25T17:54:05Z</time></trkpt><trkpt lat="59.0761685371" lon="30.0099277496"><time>2026-04-25T17:54:07Z</time></trkpt><trkpt lat="59.0761685371" lon="30.0099277496"><time>2026-04-25T17:54:10Z</time></trkpt><trkpt lat="59.0761685371" lon="30.0099277496"><time>2026-04-25T17:54:12Z</time></trkpt><trkpt lat="59.0761685371" lon="30.0099277496"><time>2026-04-25T17:54:15Z</time></trkpt><trkpt lat="59.0761685371" lon="30.0099277496"><time>2026-04-25T17:54:17Z</time></trkpt><trkpt lat="59.0761685371" lon="30.0099277496"><time>2026-04-25T17:54:20Z</time></trkpt><trkpt lat="59.0761685371" lon="30.0099277496"><time>2026-04-25T17:54:22Z</time></trkpt><trkpt lat="59.0761685371" lon="30.0099277496"><time>2026-04-25T17:54:25Z</time></trkpt><trkpt lat="59.0761685371" lon="30.0099277496"><time>2026-04-25T17:54:27Z</time></trkpt><trkpt lat="59.0761685371" lon="30.0099277496"><time>2026-04-25T17:54:30Z</time></trkpt><trkpt lat="59.0761685371" lon="30.0099277496"><time>2026-04-25T17:54:32Z</time></trkpt><trkpt lat="59.0761685371" lon="30.0099277496"><time>2026-04-25T17:54:35Z</time></trkpt><trkpt lat="59.0761685371" lon="30.0099277496"><time>2026-04-25T17:54:37Z</time></trkpt><trkpt lat="59.0761685371" lon="30.0099277496"><time>2026-04-25T17:54:40Z</time></trkpt><trkpt lat="59.0761685371" lon="30.0099277496"><time>2026-04-25T17:54:42Z</time></trkpt><trkpt lat="59.0761685371" lon="30.0099277496"><time>2026-04-25T17:54:45Z</time></trkpt><trkpt lat="59.0761685371" lon="30.0099277496"><time>2026-04-25T17:54:47Z</time></trkpt><trkpt lat="59.0761685371" lon="30.0099277496"><time>2026-04-25T17:54:50Z</time></trkpt><trkpt lat="59.0761685371" lon="30.0099277496"><time>2026-04-25T17:54:52Z</time></trkpt><trkpt lat="59.0761685371" lon="30.0099277496"><time>2026-04-25T17:54:55Z</time></trkpt><trkpt lat="59.0761685371" lon="30.0099277496"><time>2026-04-25T17:54:57Z</time></trkpt><trkpt lat="59.0761685371" lon="30.0099277496"><time>2026-04-25T17:55:00Z</time></trkpt><trkpt lat="59.0761685371" lon="30.0099277496"><time>2026-04-25T17:55:02Z</time></trkpt><trkpt lat="59.0761685371" lon="30.0099277496"><time>2026-04-25T17:55:05Z</time></trkpt><trkpt lat="59.0761685371" lon="30.0099277496"><time>2026-04-25T17:55:07Z</time></trkpt><trkpt lat="59.0761685371" lon="30.0099277496"><time>2026-04-25T17:55:10Z</time></trkpt><trkpt lat="59.0761685371" lon="30.0099277496"><time>2026-04-25T17:55:12Z</time></trkpt><trkpt lat="59.0761685371" lon="30.0099277496"><time>2026-04-25T17:55:15Z</time></trkpt><trkpt lat="59.0761685371" lon="30.0099277496"><time>2026-04-25T17:55:17Z</time></trkpt><trkpt lat="59.0761685371" lon="30.0099277496"><time>2026-04-25T17:55:20Z</time></trkpt><trkpt lat="59.0761685371" lon="30.0099277496"><time>2026-04-25T17:55:22Z</time></trkpt><trkpt lat="59.0761685371" lon="30.0099277496"><time>2026-04-25T17:55:25Z</time></trkpt><trkpt lat="59.0761685371" lon="30.0099277496"><time>2026-04-25T17:55:27Z</time></trkpt><trkpt lat="59.0761685371" lon="30.0099277496"><time>2026-04-25T17:55:30Z</time></trkpt><trkpt lat="59.0761685371" lon="30.0099277496"><time>2026-04-25T17:55:32Z</time></trkpt><trkpt lat="59.0761685371" lon="30.0099277496"><time>2026-04-25T17:55:35Z</time></trkpt><trkpt lat="59.0761685371" lon="30.0099277496"><time>2026-04-25T17:55:37Z</time></trkpt><trkpt lat="59.0761685371" lon="30.0099277496"><time>2026-04-25T17:55:40Z</time></trkpt><trkpt lat="59.0761685371" lon="30.0099277496"><time>2026-04-25T17:55:42Z</time></trkpt><trkpt lat="59.0761685371" lon="30.0099277496"><time>2026-04-25T17:55:45Z</time></trkpt><trkpt lat="59.0761685371" lon="30.0099277496"><time>2026-04-25T17:55:47Z</time></trkpt><trkpt lat="59.0761685371" lon="30.0099277496"><time>2026-04-25T17:55:50Z</time></trkpt><trkpt lat="59.0761685371" lon="30.0099277496"><time>2026-04-25T17:55:52Z</time></trkpt><trkpt lat="59.0761685371" lon="30.0099277496"><time>2026-04-25T17:55:55Z</time></trkpt><trkpt lat="59.0761685371" lon="30.0099277496"><time>2026-04-25T17:55:57Z</time></trkpt><trkpt lat="59.0761685371" lon="30.0099277496"><time>2026-04-25T17:56:00Z</time></trkpt><trkpt lat="59.0761470795" lon="30.0099706650"><time>2026-04-25T17:56:02Z</time></trkpt><trkpt lat="59.0761256218" lon="30.0100135803"><time>2026-04-25T17:56:05Z</time></trkpt><trkpt lat="59.0761041641" lon="30.0100564957"><time>2026-04-25T17:56:07Z</time></trkpt><trkpt lat="59.0761041641" lon="30.0100564957"><time>2026-04-25T17:56:10Z</time></trkpt><trkpt lat="59.0761041641" lon="30.0100779533"><time>2026-04-25T17:56:12Z</time></trkpt><trkpt lat="59.0761041641" lon="30.0101423264"><time>2026-04-25T17:56:15Z</time></trkpt><trkpt lat="59.0761041641" lon="30.0101852417"><time>2026-04-25T17:56:17Z</time></trkpt><trkpt lat="59.0761041641" lon="30.0102281570"><time>2026-04-25T17:56:20Z</time></trkpt><trkpt lat="59.0760827065" lon="30.0102925301"><time>2026-04-25T17:56:22Z</time></trkpt><trkpt lat="59.0761041641" lon="30.0103354454"><time>2026-04-25T17:56:25Z</time></trkpt><trkpt lat="59.0761041641" lon="30.0103783607"><time>2026-04-25T17:56:27Z</time></trkpt><trkpt lat="59.0761041641" lon="30.0104427338"><time>2026-04-25T17:56:30Z</time></trkpt><trkpt lat="59.0761041641" lon="30.0104641914"><time>2026-04-25T17:56:32Z</time></trkpt><trkpt lat="59.0761041641" lon="30.0105285645"><time>2026-04-25T17:56:35Z</time></trkpt><trkpt lat="59.0761041641" lon="30.0105714798"><time>2026-04-25T17:56:37Z</time></trkpt><trkpt lat="59.0761256218" lon="30.0106143951"><time>2026-04-25T17:56:40Z</time></trkpt><trkpt lat="59.0761256218" lon="30.0106358528"><time>2026-04-25T17:56:42Z</time></trkpt><trkpt lat="59.0761470795" lon="30.0107002258"><time>2026-04-25T17:56:45Z</time></trkpt><trkpt lat="59.0761256218" lon="30.0107002258"><time>2026-04-25T17:56:47Z</time></trkpt><trkpt lat="59.0761256218" lon="30.0107216835"><time>2026-04-25T17:56:50Z</time></trkpt><trkpt lat="59.0761256218" lon="30.0107216835"><time>2026-04-25T17:56:52Z</time></trkpt><trkpt lat="59.0761470795" lon="30.0108075142"><time>2026-04-25T17:56:55Z</time></trkpt><trkpt lat="59.0761470795" lon="30.0108718872"><time>2026-04-25T17:56:57Z</time></trkpt><trkpt lat="59.0761470795" lon="30.0109577179"><time>2026-04-25T17:57:00Z</time></trkpt><trkpt lat="59.0761470795" lon="30.0110006332"><time>2026-04-25T17:57:02Z</time></trkpt><trkpt lat="59.0761685371" lon="30.0110650063"><time>2026-04-25T17:57:05Z</time></trkpt><trkpt lat="59.0761685371" lon="30.0111079216"><time>2026-04-25T17:57:07Z</time></trkpt><trkpt lat="59.0761899948" lon="30.0111722946"><time>2026-04-25T17:57:10Z</time></trkpt><trkpt lat="59.0761899948" lon="30.0112152100"><time>2026-04-25T17:57:12Z</time></trkpt><trkpt lat="59.0761899948" lon="30.0112152100"><time>2026-04-25T17:57:15Z</time></trkpt><trkpt lat="59.0761899948" lon="30.0112152100"><time>2026-04-25T17:57:17Z</time></trkpt><trkpt lat="59.0761899948" lon="30.0112152100"><time>2026-04-25T17:57:20Z</time></trkpt><trkpt lat="59.0761899948" lon="30.0112366676"><time>2026-04-25T17:57:22Z</time></trkpt><trkpt lat="59.0761899948" lon="30.0112795830"><time>2026-04-25T17:57:25Z</time></trkpt><trkpt lat="59.0762114525" lon="30.0113010406"><time>2026-04-25T17:57:27Z</time></trkpt><trkpt lat="59.0762114525" lon="30.0113439560"><time>2026-04-25T17:57:30Z</time></trkpt><trkpt lat="59.0762114525" lon="30.0113868713"><time>2026-04-25T17:57:32Z</time></trkpt><trkpt lat="59.0762114525" lon="30.0114512444"><time>2026-04-25T17:57:35Z</time></trkpt><trkpt lat="59.0762114525" lon="30.0114727020"><time>2026-04-25T17:57:37Z</time></trkpt><trkpt lat="59.0762329102" lon="30.0115156174"><time>2026-04-25T17:57:40Z</time></trkpt><trkpt lat="59.0762329102" lon="30.0115370750"><time>2026-04-25T17:57:42Z</time></trkpt><trkpt lat="59.0762329102" lon="30.0115799904"><time>2026-04-25T17:57:45Z</time></trkpt><trkpt lat="59.0762329102" lon="30.0116014481"><time>2026-04-25T17:57:47Z</time></trkpt><trkpt lat="59.0762543678" lon="30.0116658211"><time>2026-04-25T17:57:50Z</time></trkpt><trkpt lat="59.0762543678" lon="30.0116872787"><time>2026-04-25T17:57:52Z</time></trkpt><trkpt lat="59.0762543678" lon="30.0117301941"><time>2026-04-25T17:57:55Z</time></trkpt><trkpt lat="59.0762329102" lon="30.0117731094"><time>2026-04-25T17:57:57Z</time></trkpt><trkpt lat="59.0762329102" lon="30.0118160248"><time>2026-04-25T17:58:00Z</time></trkpt><trkpt lat="59.0762329102" lon="30.0118589401"><time>2026-04-25T17:58:02Z</time></trkpt><trkpt lat="59.0762543678" lon="30.0119018555"><time>2026-04-25T17:58:05Z</time></trkpt><trkpt lat="59.0762543678" lon="30.0119447708"><time>2026-04-25T17:58:07Z</time></trkpt><trkpt lat="59.0762543678" lon="30.0119876862"><time>2026-04-25T17:58:10Z</time></trkpt><trkpt lat="59.0762543678" lon="30.0120091438"><time>2026-04-25T17:58:12Z</time></trkpt><trkpt lat="59.0762543678" lon="30.0120091438"><time>2026-04-25T17:58:15Z</time></trkpt><trkpt lat="59.0762543678" lon="30.0120091438"><time>2026-04-25T17:58:17Z</time></trkpt><trkpt lat="59.0762758255" lon="30.0120306015"><time>2026-04-25T17:58:20Z</time></trkpt><trkpt lat="59.0762758255" lon="30.0120735168"><time>2026-04-25T17:58:22Z</time></trkpt><trkpt lat="59.0762758255" lon="30.0121164322"><time>2026-04-25T17:58:25Z</time></trkpt><trkpt lat="59.0762972832" lon="30.0121593475"><time>2026-04-25T17:58:27Z</time></trkpt><trkpt lat="59.0762972832" lon="30.0122022629"><time>2026-04-25T17:58:30Z</time></trkpt><trkpt lat="59.0762972832" lon="30.0122237206"><time>2026-04-25T17:58:32Z</time></trkpt><trkpt lat="59.0763187408" lon="30.0122880936"><time>2026-04-25T17:58:35Z</time></trkpt><trkpt lat="59.0763187408" lon="30.0123095512"><time>2026-04-25T17:58:37Z</time></trkpt><trkpt lat="59.0763187408" lon="30.0123524666"><time>2026-04-25T17:58:40Z</time></trkpt><trkpt lat="59.0763187408" lon="30.0123739243"><time>2026-04-25T17:58:42Z</time></trkpt><trkpt lat="59.0763401985" lon="30.0124168396"><time>2026-04-25T17:58:45Z</time></trkpt><trkpt lat="59.0763401985" lon="30.0124597549"><time>2026-04-25T17:58:47Z</time></trkpt><trkpt lat="59.0763401985" lon="30.0124812126"><time>2026-04-25T17:58:50Z</time></trkpt><trkpt lat="59.0763401985" lon="30.0125241280"><time>2026-04-25T17:58:52Z</time></trkpt><trkpt lat="59.0763616562" lon="30.0125885010"><time>2026-04-25T17:58:55Z</time></trkpt><trkpt lat="59.0763616562" lon="30.0126099586"><time>2026-04-25T17:58:57Z</time></trkpt><trkpt lat="59.0763616562" lon="30.0126528740"><time>2026-04-25T17:59:00Z</time></trkpt><trkpt lat="59.0763831139" lon="30.0126957893"><time>2026-04-25T17:59:02Z</time></trkpt><trkpt lat="59.0763831139" lon="30.0127387047"><time>2026-04-25T17:59:05Z</time></trkpt><trkpt lat="59.0764045715" lon="30.0127601624"><time>2026-04-25T17:59:07Z</time></trkpt><trkpt lat="59.0764045715" lon="30.0128030777"><time>2026-04-25T17:59:10Z</time></trkpt><trkpt lat="59.0764045715" lon="30.0128459930"><time>2026-04-25T17:59:12Z</time></trkpt><trkpt lat="59.0764045715" lon="30.0128889084"><time>2026-04-25T17:59:15Z</time></trkpt><trkpt lat="59.0764045715" lon="30.0129103661"><time>2026-04-25T17:59:17Z</time></trkpt><trkpt lat="59.0764045715" lon="30.0129532814"><time>2026-04-25T17:59:20Z</time></trkpt><trkpt lat="59.0764260292" lon="30.0129747391"><time>2026-04-25T17:59:22Z</time></trkpt><trkpt lat="59.0764260292" lon="30.0130391121"><time>2026-04-25T17:59:25Z</time></trkpt><trkpt lat="59.0764474869" lon="30.0130605698"><time>2026-04-25T17:59:27Z</time></trkpt><trkpt lat="59.0764689445" lon="30.0131249428"><time>2026-04-25T17:59:30Z</time></trkpt><trkpt lat="59.0764689445" lon="30.0131678581"><time>2026-04-25T17:59:32Z</time></trkpt><trkpt lat="59.0764689445" lon="30.0132107735"><time>2026-04-25T17:59:35Z</time></trkpt><trkpt lat="59.0764689445" lon="30.0132536888"><time>2026-04-25T17:59:37Z</time></trkpt><trkpt lat="59.0764904022" lon="30.0133180618"><time>2026-04-25T17:59:40Z</time></trkpt><trkpt lat="59.0764904022" lon="30.0133395195"><time>2026-04-25T17:59:42Z</time></trkpt><trkpt lat="59.0764689445" lon="30.0133824348"><time>2026-04-25T17:59:45Z</time></trkpt><trkpt lat="59.0764904022" lon="30.0134253502"><time>2026-04-25T17:59:47Z</time></trkpt><trkpt lat="59.0764689445" lon="30.0134253502"><time>2026-04-25T17:59:50Z</time></trkpt><trkpt lat="59.0764689445" lon="30.0134682655"><time>2026-04-25T17:59:52Z</time></trkpt><trkpt lat="59.0764689445" lon="30.0135111809"><time>2026-04-25T17:59:55Z</time></trkpt><trkpt lat="59.0764689445" lon="30.0135326385"><time>2026-04-25T17:59:57Z</time></trkpt><trkpt lat="59.0764689445" lon="30.0135970116"><time>2026-04-25T18:00:00Z</time></trkpt><trkpt lat="59.0764689445" lon="30.0136399269"><time>2026-04-25T18:00:02Z</time></trkpt><trkpt lat="59.0764689445" lon="30.0136828423"><time>2026-04-25T18:00:05Z</time></trkpt><trkpt lat="59.0764689445" lon="30.0137042999"><time>2026-04-25T18:00:07Z</time></trkpt><trkpt lat="59.0764474869" lon="30.0137472153"><time>2026-04-25T18:00:10Z</time></trkpt><trkpt lat="59.0764474869" lon="30.0137686729"><time>2026-04-25T18:00:12Z</time></trkpt><trkpt lat="59.0764474869" lon="30.0138115883"><time>2026-04-25T18:00:15Z</time></trkpt><trkpt lat="59.0764474869" lon="30.0138330460"><time>2026-04-25T18:00:17Z</time></trkpt><trkpt lat="59.0764689445" lon="30.0138759613"><time>2026-04-25T18:00:20Z</time></trkpt><trkpt lat="59.0764689445" lon="30.0138974190"><time>2026-04-25T18:00:22Z</time></trkpt><trkpt lat="59.0764689445" lon="30.0138974190"><time>2026-04-25T18:00:25Z</time></trkpt><trkpt lat="59.0764689445" lon="30.0138974190"><time>2026-04-25T18:00:27Z</time></trkpt><trkpt lat="59.0764689445" lon="30.0139188766"><time>2026-04-25T18:00:30Z</time></trkpt><trkpt lat="59.0764689445" lon="30.0139832497"><time>2026-04-25T18:00:32Z</time></trkpt><trkpt lat="59.0764689445" lon="30.0140047073"><time>2026-04-25T18:00:35Z</time></trkpt><trkpt lat="59.0764689445" lon="30.0140047073"><time>2026-04-25T18:00:37Z</time></trkpt><trkpt lat="59.0764689445" lon="30.0140047073"><time>2026-04-25T18:00:40Z</time></trkpt><trkpt lat="59.0764689445" lon="30.0140047073"><time>2026-04-25T18:00:42Z</time></trkpt><trkpt lat="59.0764689445" lon="30.0140047073"><time>2026-04-25T18:00:45Z</time></trkpt><trkpt lat="59.0764689445" lon="30.0140476227"><time>2026-04-25T18:00:47Z</time></trkpt><trkpt lat="59.0764689445" lon="30.0141119957"><time>2026-04-25T18:00:50Z</time></trkpt><trkpt lat="59.0764474869" lon="30.0141549110"><time>2026-04-25T18:00:52Z</time></trkpt><trkpt lat="59.0764474869" lon="30.0142192841"><time>2026-04-25T18:00:55Z</time></trkpt><trkpt lat="59.0764474869" lon="30.0142407417"><time>2026-04-25T18:00:57Z</time></trkpt><trkpt lat="59.0764260292" lon="30.0142621994"><time>2026-04-25T18:01:00Z</time></trkpt><trkpt lat="59.0764045715" lon="30.0142621994"><time>2026-04-25T18:01:02Z</time></trkpt><trkpt lat="59.0764045715" lon="30.0142621994"><time>2026-04-25T18:01:05Z</time></trkpt><trkpt lat="59.0764045715" lon="30.0142621994"><time>2026-04-25T18:01:07Z</time></trkpt><trkpt lat="59.0764045715" lon="30.0142621994"><time>2026-04-25T18:01:10Z</time></trkpt><trkpt lat="59.0764045715" lon="30.0142621994"><time>2026-04-25T18:01:12Z</time></trkpt><trkpt lat="59.0764045715" lon="30.0142621994"><time>2026-04-25T18:01:15Z</time></trkpt><trkpt lat="59.0764045715" lon="30.0142621994"><time>2026-04-25T18:01:17Z</time></trkpt><trkpt lat="59.0764045715" lon="30.0142621994"><time>2026-04-25T18:01:20Z</time></trkpt><trkpt lat="59.0764045715" lon="30.0142621994"><time>2026-04-25T18:01:22Z</time></trkpt><trkpt lat="59.0764045715" lon="30.0142621994"><time>2026-04-25T18:01:25Z</time></trkpt><trkpt lat="59.0764045715" lon="30.0142621994"><time>2026-04-25T18:01:27Z</time></trkpt><trkpt lat="59.0764045715" lon="30.0142621994"><time>2026-04-25T18:01:30Z</time></trkpt><trkpt lat="59.0764045715" lon="30.0142621994"><time>2026-04-25T18:01:32Z</time></trkpt><trkpt lat="59.0764045715" lon="30.0142621994"><time>2026-04-25T18:01:35Z</time></trkpt><trkpt lat="59.0764045715" lon="30.0142621994"><time>2026-04-25T18:01:37Z</time></trkpt><trkpt lat="59.0764045715" lon="30.0142621994"><time>2026-04-25T18:01:40Z</time></trkpt><trkpt lat="59.0764045715" lon="30.0142621994"><time>2026-04-25T18:01:42Z</time></trkpt><trkpt lat="59.0764045715" lon="30.0142621994"><time>2026-04-25T18:01:45Z</time></trkpt><trkpt lat="59.0764045715" lon="30.0142621994"><time>2026-04-25T18:01:47Z</time></trkpt><trkpt lat="59.0764045715" lon="30.0142621994"><time>2026-04-25T18:01:50Z</time></trkpt><trkpt lat="59.0764045715" lon="30.0142621994"><time>2026-04-25T18:01:52Z</time></trkpt><trkpt lat="59.0764045715" lon="30.0142621994"><time>2026-04-25T18:01:55Z</time></trkpt><trkpt lat="59.0764045715" lon="30.0142621994"><time>2026-04-25T18:01:57Z</time></trkpt><trkpt lat="59.0764045715" lon="30.0142621994"><time>2026-04-25T18:02:00Z</time></trkpt><trkpt lat="59.0763831139" lon="30.0142621994"><time>2026-04-25T18:02:02Z</time></trkpt><trkpt lat="59.0763401985" lon="30.0142192841"><time>2026-04-25T18:02:05Z</time></trkpt><trkpt lat="59.0763401985" lon="30.0142192841"><time>2026-04-25T18:02:07Z</time></trkpt><trkpt lat="59.0763401985" lon="30.0142192841"><time>2026-04-25T18:02:10Z</time></trkpt><trkpt lat="59.0763401985" lon="30.0142192841"><time>2026-04-25T18:02:12Z</time></trkpt><trkpt lat="59.0763187408" lon="30.0141978264"><time>2026-04-25T18:02:15Z</time></trkpt><trkpt lat="59.0762972832" lon="30.0141763687"><time>2026-04-25T18:02:17Z</time></trkpt><trkpt lat="59.0762972832" lon="30.0141763687"><time>2026-04-25T18:02:20Z</time></trkpt><trkpt lat="59.0762758255" lon="30.0141978264"><time>2026-04-25T18:02:22Z</time></trkpt><trkpt lat="59.0762543678" lon="30.0141978264"><time>2026-04-25T18:02:25Z</time></trkpt><trkpt lat="59.0762329102" lon="30.0141978264"><time>2026-04-25T18:02:27Z</time></trkpt><trkpt lat="59.0762114525" lon="30.0141763687"><time>2026-04-25T18:02:30Z</time></trkpt><trkpt lat="59.0762114525" lon="30.0141763687"><time>2026-04-25T18:02:32Z</time></trkpt><trkpt lat="59.0762114525" lon="30.0141763687"><time>2026-04-25T18:02:35Z</time></trkpt><trkpt lat="59.0762114525" lon="30.0141763687"><time>2026-04-25T18:02:37Z</time></trkpt><trkpt lat="59.0762114525" lon="30.0141763687"><time>2026-04-25T18:02:40Z</time></trkpt><trkpt lat="59.0762114525" lon="30.0141763687"><time>2026-04-25T18:02:42Z</time></trkpt><trkpt lat="59.0762114525" lon="30.0141763687"><time>2026-04-25T18:02:45Z</time></trkpt><trkpt lat="59.0762114525" lon="30.0141763687"><time>2026-04-25T18:02:47Z</time></trkpt><trkpt lat="59.0762114525" lon="30.0141763687"><time>2026-04-25T18:02:50Z</time></trkpt><trkpt lat="59.0762114525" lon="30.0141763687"><time>2026-04-25T18:02:52Z</time></trkpt><trkpt lat="59.0762114525" lon="30.0141763687"><time>2026-04-25T18:02:55Z</time></trkpt><trkpt lat="59.0762114525" lon="30.0141763687"><time>2026-04-25T18:02:57Z</time></trkpt><trkpt lat="59.0762114525" lon="30.0141763687"><time>2026-04-25T18:03:00Z</time></trkpt><trkpt lat="59.0762114525" lon="30.0141763687"><time>2026-04-25T18:03:02Z</time></trkpt><trkpt lat="59.0762114525" lon="30.0141763687"><time>2026-04-25T18:03:07Z</time></trkpt><trkpt lat="59.0762114525" lon="30.0141549110"><time>2026-04-25T18:03:10Z</time></trkpt><trkpt lat="59.0762114525" lon="30.0141549110"><time>2026-04-25T18:03:12Z</time></trkpt><trkpt lat="59.0762114525" lon="30.0141763687"><time>2026-04-25T18:03:15Z</time></trkpt><trkpt lat="59.0762114525" lon="30.0141763687"><time>2026-04-25T18:03:17Z</time></trkpt><trkpt lat="59.0762114525" lon="30.0141763687"><time>2026-04-25T18:03:20Z</time></trkpt><trkpt lat="59.0762114525" lon="30.0141763687"><time>2026-04-25T18:03:22Z</time></trkpt><trkpt lat="59.0762114525" lon="30.0141763687"><time>2026-04-25T18:03:25Z</time></trkpt><trkpt lat="59.0762114525" lon="30.0141763687"><time>2026-04-25T18:03:27Z</time></trkpt><trkpt lat="59.0762114525" lon="30.0141763687"><time>2026-04-25T18:03:30Z</time></trkpt><trkpt lat="59.0762114525" lon="30.0141763687"><time>2026-04-25T18:03:32Z</time></trkpt><trkpt lat="59.0762114525" lon="30.0141763687"><time>2026-04-25T18:03:35Z</time></trkpt><trkpt lat="59.0762114525" lon="30.0141763687"><time>2026-04-25T18:03:37Z</time></trkpt><trkpt lat="59.0762114525" lon="30.0141763687"><time>2026-04-25T18:03:40Z</time></trkpt><trkpt lat="59.0762114525" lon="30.0141763687"><time>2026-04-25T18:03:42Z</time></trkpt><trkpt lat="59.0762114525" lon="30.0141763687"><time>2026-04-25T18:03:45Z</time></trkpt><trkpt lat="59.0762114525" lon="30.0141763687"><time>2026-04-25T18:03:47Z</time></trkpt><trkpt lat="59.0762114525" lon="30.0141763687"><time>2026-04-25T18:03:50Z</time></trkpt><trkpt lat="59.0762114525" lon="30.0141763687"><time>2026-04-25T18:03:52Z</time></trkpt><trkpt lat="59.0762114525" lon="30.0141763687"><time>2026-04-25T18:03:55Z</time></trkpt><trkpt lat="59.0762114525" lon="30.0141763687"><time>2026-04-25T18:03:57Z</time></trkpt><trkpt lat="59.0762114525" lon="30.0141763687"><time>2026-04-25T18:04:00Z</time></trkpt><trkpt lat="59.0762114525" lon="30.0141763687"><time>2026-04-25T18:04:02Z</time></trkpt><trkpt lat="59.0762114525" lon="30.0141763687"><time>2026-04-25T18:04:05Z</time></trkpt><trkpt lat="59.0762114525" lon="30.0141763687"><time>2026-04-25T18:04:07Z</time></trkpt><trkpt lat="59.0762114525" lon="30.0141763687"><time>2026-04-25T18:04:10Z</time></trkpt><trkpt lat="59.0762114525" lon="30.0141763687"><time>2026-04-25T18:04:12Z</time></trkpt><trkpt lat="59.0762114525" lon="30.0141763687"><time>2026-04-25T18:04:15Z</time></trkpt><trkpt lat="59.0762114525" lon="30.0141763687"><time>2026-04-25T18:04:17Z</time></trkpt><trkpt lat="59.0762114525" lon="30.0141763687"><time>2026-04-25T18:04:20Z</time></trkpt><trkpt lat="59.0762114525" lon="30.0141763687"><time>2026-04-25T18:04:22Z</time></trkpt><trkpt lat="59.0762114525" lon="30.0141763687"><time>2026-04-25T18:04:25Z</time></trkpt><trkpt lat="59.0762114525" lon="30.0141763687"><time>2026-04-25T18:04:27Z</time></trkpt><trkpt lat="59.0762114525" lon="30.0141763687"><time>2026-04-25T18:04:30Z</time></trkpt><trkpt lat="59.0762114525" lon="30.0141763687"><time>2026-04-25T18:04:32Z</time></trkpt><trkpt lat="59.0762114525" lon="30.0141763687"><time>2026-04-25T18:04:35Z</time></trkpt><trkpt lat="59.0762114525" lon="30.0141763687"><time>2026-04-25T18:04:37Z</time></trkpt><trkpt lat="59.0762114525" lon="30.0141763687"><time>2026-04-25T18:04:40Z</time></trkpt><trkpt lat="59.0762114525" lon="30.0141763687"><time>2026-04-25T18:04:42Z</time></trkpt><trkpt lat="59.0762114525" lon="30.0141763687"><time>2026-04-25T18:04:45Z</time></trkpt><trkpt lat="59.0762114525" lon="30.0141763687"><time>2026-04-25T18:04:47Z</time></trkpt><trkpt lat="59.0762114525" lon="30.0141763687"><time>2026-04-25T18:04:50Z</time></trkpt><trkpt lat="59.0762114525" lon="30.0141763687"><time>2026-04-25T18:04:52Z</time></trkpt><trkpt lat="59.0762114525" lon="30.0141763687"><time>2026-04-25T18:04:55Z</time></trkpt><trkpt lat="59.0762114525" lon="30.0141763687"><time>2026-04-25T18:04:57Z</time></trkpt><trkpt lat="59.0762114525" lon="30.0141763687"><time>2026-04-25T18:05:00Z</time></trkpt><trkpt lat="59.0762114525" lon="30.0141763687"><time>2026-04-25T18:05:02Z</time></trkpt><trkpt lat="59.0762114525" lon="30.0141763687"><time>2026-04-25T18:05:05Z</time></trkpt><trkpt lat="59.0762114525" lon="30.0141763687"><time>2026-04-25T18:05:07Z</time></trkpt><trkpt lat="59.0762114525" lon="30.0141763687"><time>2026-04-25T18:05:10Z</time></trkpt><trkpt lat="59.0762114525" lon="30.0141763687"><time>2026-04-25T18:05:12Z</time></trkpt><trkpt lat="59.0762114525" lon="30.0141763687"><time>2026-04-25T18:05:15Z</time></trkpt><trkpt lat="59.0762114525" lon="30.0141763687"><time>2026-04-25T18:05:17Z</time></trkpt><trkpt lat="59.0762114525" lon="30.0141763687"><time>2026-04-25T18:05:20Z</time></trkpt><trkpt lat="59.0762114525" lon="30.0141763687"><time>2026-04-25T18:05:22Z</time></trkpt><trkpt lat="59.0762114525" lon="30.0141763687"><time>2026-04-25T18:05:25Z</time></trkpt><trkpt lat="59.0762114525" lon="30.0141763687"><time>2026-04-25T18:05:27Z</time></trkpt><trkpt lat="59.0762114525" lon="30.0141763687"><time>2026-04-25T18:05:30Z</time></trkpt><trkpt lat="59.0762114525" lon="30.0141763687"><time>2026-04-25T18:05:32Z</time></trkpt><trkpt lat="59.0762114525" lon="30.0141763687"><time>2026-04-25T18:05:35Z</time></trkpt><trkpt lat="59.0762114525" lon="30.0141763687"><time>2026-04-25T18:05:37Z</time></trkpt><trkpt lat="59.0762114525" lon="30.0141763687"><time>2026-04-25T18:05:40Z</time></trkpt><trkpt lat="59.0762114525" lon="30.0141763687"><time>2026-04-25T18:05:42Z</time></trkpt><trkpt lat="59.0762114525" lon="30.0141763687"><time>2026-04-25T18:05:45Z</time></trkpt><trkpt lat="59.0762114525" lon="30.0141763687"><time>2026-04-25T18:05:47Z</time></trkpt><trkpt lat="59.0762114525" lon="30.0141763687"><time>2026-04-25T18:05:50Z</time></trkpt><trkpt lat="59.0762114525" lon="30.0141763687"><time>2026-04-25T18:05:52Z</time></trkpt><trkpt lat="59.0762114525" lon="30.0141763687"><time>2026-04-25T18:05:55Z</time></trkpt><trkpt lat="59.0762114525" lon="30.0141763687"><time>2026-04-25T18:05:57Z</time></trkpt><trkpt lat="59.0762114525" lon="30.0141763687"><time>2026-04-25T18:06:00Z</time></trkpt><trkpt lat="59.0761899948" lon="30.0141763687"><time>2026-04-25T18:06:02Z</time></trkpt><trkpt lat="59.0761899948" lon="30.0141763687"><time>2026-04-25T18:06:05Z</time></trkpt><trkpt lat="59.0761899948" lon="30.0141978264"><time>2026-04-25T18:06:07Z</time></trkpt><trkpt lat="59.0761685371" lon="30.0142192841"><time>2026-04-25T18:06:10Z</time></trkpt><trkpt lat="59.0761685371" lon="30.0142192841"><time>2026-04-25T18:06:12Z</time></trkpt><trkpt lat="59.0761470795" lon="30.0142192841"><time>2026-04-25T18:06:15Z</time></trkpt><trkpt lat="59.0761470795" lon="30.0142192841"><time>2026-04-25T18:06:17Z</time></trkpt><trkpt lat="59.0761256218" lon="30.0142407417"><time>2026-04-25T18:06:20Z</time></trkpt><trkpt lat="59.0761041641" lon="30.0142621994"><time>2026-04-25T18:06:22Z</time></trkpt><trkpt lat="59.0761041641" lon="30.0142621994"><time>2026-04-25T18:06:25Z</time></trkpt><trkpt lat="59.0761041641" lon="30.0142621994"><time>2026-04-25T18:06:27Z</time></trkpt><trkpt lat="59.0760827065" lon="30.0142621994"><time>2026-04-25T18:06:30Z</time></trkpt><trkpt lat="59.0760827065" lon="30.0142407417"><time>2026-04-25T18:06:32Z</time></trkpt><trkpt lat="59.0760827065" lon="30.0142621994"><time>2026-04-25T18:06:35Z</time></trkpt><trkpt lat="59.0760612488" lon="30.0142621994"><time>2026-04-25T18:06:37Z</time></trkpt><trkpt lat="59.0760183334" lon="30.0142621994"><time>2026-04-25T18:06:40Z</time></trkpt><trkpt lat="59.0760183334" lon="30.0142836571"><time>2026-04-25T18:06:42Z</time></trkpt><trkpt lat="59.0759968758" lon="30.0142836571"><time>2026-04-25T18:06:45Z</time></trkpt><trkpt lat="59.0759968758" lon="30.0142836571"><time>2026-04-25T18:06:47Z</time></trkpt><trkpt lat="59.0759754181" lon="30.0142836571"><time>2026-04-25T18:06:50Z</time></trkpt><trkpt lat="59.0759754181" lon="30.0142621994"><time>2026-04-25T18:06:52Z</time></trkpt><trkpt lat="59.0759754181" lon="30.0142621994"><time>2026-04-25T18:06:55Z</time></trkpt><trkpt lat="59.0759754181" lon="30.0142621994"><time>2026-04-25T18:06:57Z</time></trkpt><trkpt lat="59.0759754181" lon="30.0142621994"><time>2026-04-25T18:07:00Z</time></trkpt><trkpt lat="59.0759754181" lon="30.0142621994"><time>2026-04-25T18:07:02Z</time></trkpt><trkpt lat="59.0759539604" lon="30.0142836571"><time>2026-04-25T18:07:05Z</time></trkpt><trkpt lat="59.0759539604" lon="30.0142836571"><time>2026-04-25T18:07:07Z</time></trkpt><trkpt lat="59.0759325027" lon="30.0142836571"><time>2026-04-25T18:07:10Z</time></trkpt><trkpt lat="59.0759325027" lon="30.0142836571"><time>2026-04-25T18:07:12Z</time></trkpt><trkpt lat="59.0759325027" lon="30.0142836571"><time>2026-04-25T18:07:15Z</time></trkpt><trkpt lat="59.0759325027" lon="30.0142836571"><time>2026-04-25T18:07:17Z</time></trkpt><trkpt lat="59.0759110451" lon="30.0143051147"><time>2026-04-25T18:07:20Z</time></trkpt><trkpt lat="59.0759110451" lon="30.0143051147"><time>2026-04-25T18:07:22Z</time></trkpt><trkpt lat="59.0759110451" lon="30.0143265724"><time>2026-04-25T18:07:25Z</time></trkpt><trkpt lat="59.0759110451" lon="30.0143265724"><time>2026-04-25T18:07:27Z</time></trkpt><trkpt lat="59.0758895874" lon="30.0143480301"><time>2026-04-25T18:07:30Z</time></trkpt><trkpt lat="59.0758895874" lon="30.0143480301"><time>2026-04-25T18:07:32Z</time></trkpt><trkpt lat="59.0758895874" lon="30.0143480301"><time>2026-04-25T18:07:35Z</time></trkpt><trkpt lat="59.0758895874" lon="30.0143265724"><time>2026-04-25T18:07:37Z</time></trkpt><trkpt lat="59.0758895874" lon="30.0143265724"><time>2026-04-25T18:07:40Z</time></trkpt><trkpt lat="59.0758895874" lon="30.0143265724"><time>2026-04-25T18:07:42Z</time></trkpt><trkpt lat="59.0758895874" lon="30.0143265724"><time>2026-04-25T18:07:45Z</time></trkpt><trkpt lat="59.0758895874" lon="30.0143265724"><time>2026-04-25T18:07:47Z</time></trkpt><trkpt lat="59.0758895874" lon="30.0143265724"><time>2026-04-25T18:07:50Z</time></trkpt><trkpt lat="59.0758895874" lon="30.0143265724"><time>2026-04-25T18:07:52Z</time></trkpt><trkpt lat="59.0758895874" lon="30.0143265724"><time>2026-04-25T18:07:55Z</time></trkpt><trkpt lat="59.0758895874" lon="30.0143265724"><time>2026-04-25T18:07:57Z</time></trkpt><trkpt lat="59.0758895874" lon="30.0143265724"><time>2026-04-25T18:08:00Z</time></trkpt><trkpt lat="59.0758895874" lon="30.0143265724"><time>2026-04-25T18:08:02Z</time></trkpt><trkpt lat="59.0758681297" lon="30.0143265724"><time>2026-04-25T18:08:05Z</time></trkpt><trkpt lat="59.0758681297" lon="30.0143265724"><time>2026-04-25T18:08:07Z</time></trkpt><trkpt lat="59.0758681297" lon="30.0143265724"><time>2026-04-25T18:08:10Z</time></trkpt><trkpt lat="59.0758681297" lon="30.0143265724"><time>2026-04-25T18:08:12Z</time></trkpt><trkpt lat="59.0758681297" lon="30.0143265724"><time>2026-04-25T18:08:15Z</time></trkpt><trkpt lat="59.0758681297" lon="30.0143265724"><time>2026-04-25T18:08:17Z</time></trkpt><trkpt lat="59.0758681297" lon="30.0143265724"><time>2026-04-25T18:08:20Z</time></trkpt><trkpt lat="59.0758681297" lon="30.0143265724"><time>2026-04-25T18:08:22Z</time></trkpt><trkpt lat="59.0758681297" lon="30.0143265724"><time>2026-04-25T18:08:25Z</time></trkpt><trkpt lat="59.0758681297" lon="30.0143265724"><time>2026-04-25T18:08:27Z</time></trkpt><trkpt lat="59.0758681297" lon="30.0142836571"><time>2026-04-25T18:08:30Z</time></trkpt><trkpt lat="59.0758681297" lon="30.0142407417"><time>2026-04-25T18:08:32Z</time></trkpt><trkpt lat="59.0758681297" lon="30.0141978264"><time>2026-04-25T18:08:35Z</time></trkpt><trkpt lat="59.0758681297" lon="30.0141763687"><time>2026-04-25T18:08:37Z</time></trkpt><trkpt lat="59.0758681297" lon="30.0141549110"><time>2026-04-25T18:08:40Z</time></trkpt><trkpt lat="59.0758466721" lon="30.0141334534"><time>2026-04-25T18:08:42Z</time></trkpt><trkpt lat="59.0758681297" lon="30.0140905380"><time>2026-04-25T18:08:45Z</time></trkpt><trkpt lat="59.0758466721" lon="30.0140690804"><time>2026-04-25T18:08:47Z</time></trkpt><trkpt lat="59.0758466721" lon="30.0140476227"><time>2026-04-25T18:08:50Z</time></trkpt><trkpt lat="59.0758466721" lon="30.0140261650"><time>2026-04-25T18:08:52Z</time></trkpt><trkpt lat="59.0758681297" lon="30.0140047073"><time>2026-04-25T18:08:55Z</time></trkpt><trkpt lat="59.0758681297" lon="30.0139832497"><time>2026-04-25T18:08:57Z</time></trkpt><trkpt lat="59.0758681297" lon="30.0139188766"><time>2026-04-25T18:09:00Z</time></trkpt><trkpt lat="59.0758681297" lon="30.0138974190"><time>2026-04-25T18:09:02Z</time></trkpt><trkpt lat="59.0758681297" lon="30.0138759613"><time>2026-04-25T18:09:05Z</time></trkpt><trkpt lat="59.0758681297" lon="30.0138759613"><time>2026-04-25T18:09:07Z</time></trkpt><trkpt lat="59.0758681297" lon="30.0138759613"><time>2026-04-25T18:09:10Z</time></trkpt><trkpt lat="59.0758681297" lon="30.0138759613"><time>2026-04-25T18:09:12Z</time></trkpt><trkpt lat="59.0758466721" lon="30.0138545036"><time>2026-04-25T18:09:15Z</time></trkpt><trkpt lat="59.0758466721" lon="30.0138330460"><time>2026-04-25T18:09:17Z</time></trkpt><trkpt lat="59.0758466721" lon="30.0137901306"><time>2026-04-25T18:09:20Z</time></trkpt><trkpt lat="59.0758466721" lon="30.0137472153"><time>2026-04-25T18:09:22Z</time></trkpt><trkpt lat="59.0758252144" lon="30.0137472153"><time>2026-04-25T18:09:25Z</time></trkpt><trkpt lat="59.0758252144" lon="30.0137257576"><time>2026-04-25T18:09:27Z</time></trkpt><trkpt lat="59.0758252144" lon="30.0136613846"><time>2026-04-25T18:09:30Z</time></trkpt><trkpt lat="59.0758252144" lon="30.0136399269"><time>2026-04-25T18:09:32Z</time></trkpt><trkpt lat="59.0758252144" lon="30.0136184692"><time>2026-04-25T18:09:35Z</time></trkpt><trkpt lat="59.0758252144" lon="30.0135970116"><time>2026-04-25T18:09:37Z</time></trkpt><trkpt lat="59.0758037567" lon="30.0135540962"><time>2026-04-25T18:09:40Z</time></trkpt><trkpt lat="59.0758037567" lon="30.0135326385"><time>2026-04-25T18:09:42Z</time></trkpt><trkpt lat="59.0758037567" lon="30.0134897232"><time>2026-04-25T18:09:45Z</time></trkpt><trkpt lat="59.0758252144" lon="30.0134468079"><time>2026-04-25T18:09:47Z</time></trkpt><trkpt lat="59.0758037567" lon="30.0134253502"><time>2026-04-25T18:09:50Z</time></trkpt><trkpt lat="59.0758037567" lon="30.0134038925"><time>2026-04-25T18:09:52Z</time></trkpt><trkpt lat="59.0757822990" lon="30.0133824348"><time>2026-04-25T18:09:55Z</time></trkpt><trkpt lat="59.0757822990" lon="30.0133824348"><time>2026-04-25T18:09:57Z</time></trkpt><trkpt lat="59.0757822990" lon="30.0133824348"><time>2026-04-25T18:10:00Z</time></trkpt><trkpt lat="59.0757822990" lon="30.0133395195"><time>2026-04-25T18:10:02Z</time></trkpt><trkpt lat="59.0757608414" lon="30.0132966042"><time>2026-04-25T18:10:05Z</time></trkpt><trkpt lat="59.0757608414" lon="30.0132751465"><time>2026-04-25T18:10:07Z</time></trkpt><trkpt lat="59.0757608414" lon="30.0132322311"><time>2026-04-25T18:10:10Z</time></trkpt><trkpt lat="59.0757608414" lon="30.0132322311"><time>2026-04-25T18:10:12Z</time></trkpt><trkpt lat="59.0757608414" lon="30.0132107735"><time>2026-04-25T18:10:15Z</time></trkpt><trkpt lat="59.0757822990" lon="30.0131893158"><time>2026-04-25T18:10:17Z</time></trkpt><trkpt lat="59.0758037567" lon="30.0131678581"><time>2026-04-25T18:10:20Z</time></trkpt><trkpt lat="59.0758252144" lon="30.0131464005"><time>2026-04-25T18:10:22Z</time></trkpt><trkpt lat="59.0758252144" lon="30.0131034851"><time>2026-04-25T18:10:25Z</time></trkpt><trkpt lat="59.0758252144" lon="30.0131249428"><time>2026-04-25T18:10:27Z</time></trkpt><trkpt lat="59.0757822990" lon="30.0131034851"><time>2026-04-25T18:10:30Z</time></trkpt><trkpt lat="59.0757608414" lon="30.0130605698"><time>2026-04-25T18:10:32Z</time></trkpt><trkpt lat="59.0757608414" lon="30.0130176544"><time>2026-04-25T18:10:35Z</time></trkpt><trkpt lat="59.0757393837" lon="30.0129747391"><time>2026-04-25T18:10:37Z</time></trkpt><trkpt lat="59.0756964684" lon="30.0129747391"><time>2026-04-25T18:10:40Z</time></trkpt><trkpt lat="59.0756964684" lon="30.0129318237"><time>2026-04-25T18:10:42Z</time></trkpt><trkpt lat="59.0756964684" lon="30.0129103661"><time>2026-04-25T18:10:45Z</time></trkpt><trkpt lat="59.0756964684" lon="30.0128889084"><time>2026-04-25T18:10:47Z</time></trkpt><trkpt lat="59.0756964684" lon="30.0128459930"><time>2026-04-25T18:10:50Z</time></trkpt><trkpt lat="59.0756964684" lon="30.0128245354"><time>2026-04-25T18:10:52Z</time></trkpt><trkpt lat="59.0756964684" lon="30.0127816200"><time>2026-04-25T18:10:55Z</time></trkpt><trkpt lat="59.0756964684" lon="30.0127387047"><time>2026-04-25T18:10:57Z</time></trkpt><trkpt lat="59.0757179260" lon="30.0126957893"><time>2026-04-25T18:11:00Z</time></trkpt><trkpt lat="59.0756964684" lon="30.0126743317"><time>2026-04-25T18:11:02Z</time></trkpt><trkpt lat="59.0756964684" lon="30.0126743317"><time>2026-04-25T18:11:05Z</time></trkpt><trkpt lat="59.0757179260" lon="30.0126528740"><time>2026-04-25T18:11:07Z</time></trkpt><trkpt lat="59.0757179260" lon="30.0125885010"><time>2026-04-25T18:11:10Z</time></trkpt><trkpt lat="59.0757179260" lon="30.0125455856"><time>2026-04-25T18:11:12Z</time></trkpt><trkpt lat="59.0757179260" lon="30.0125026703"><time>2026-04-25T18:11:15Z</time></trkpt><trkpt lat="59.0757179260" lon="30.0124812126"><time>2026-04-25T18:11:17Z</time></trkpt><trkpt lat="59.0757179260" lon="30.0125026703"><time>2026-04-25T18:11:20Z</time></trkpt><trkpt lat="59.0757179260" lon="30.0124597549"><time>2026-04-25T18:11:22Z</time></trkpt><trkpt lat="59.0757179260" lon="30.0123953819"><time>2026-04-25T18:11:25Z</time></trkpt><trkpt lat="59.0757179260" lon="30.0123953819"><time>2026-04-25T18:11:27Z</time></trkpt><trkpt lat="59.0757393837" lon="30.0123524666"><time>2026-04-25T18:11:30Z</time></trkpt><trkpt lat="59.0757179260" lon="30.0123310089"><time>2026-04-25T18:11:32Z</time></trkpt><trkpt lat="59.0757179260" lon="30.0122880936"><time>2026-04-25T18:11:35Z</time></trkpt><trkpt lat="59.0756964684" lon="30.0122666359"><time>2026-04-25T18:11:37Z</time></trkpt><trkpt lat="59.0756750107" lon="30.0122666359"><time>2026-04-25T18:11:40Z</time></trkpt><trkpt lat="59.0756750107" lon="30.0122451782"><time>2026-04-25T18:11:42Z</time></trkpt><trkpt lat="59.0756750107" lon="30.0122022629"><time>2026-04-25T18:11:45Z</time></trkpt><trkpt lat="59.0756750107" lon="30.0121593475"><time>2026-04-25T18:11:47Z</time></trkpt><trkpt lat="59.0756535530" lon="30.0121378899"><time>2026-04-25T18:11:50Z</time></trkpt><trkpt lat="59.0756535530" lon="30.0121164322"><time>2026-04-25T18:11:52Z</time></trkpt><trkpt lat="59.0756535530" lon="30.0120520592"><time>2026-04-25T18:11:55Z</time></trkpt><trkpt lat="59.0756320953" lon="30.0120306015"><time>2026-04-25T18:11:57Z</time></trkpt><trkpt lat="59.0756320953" lon="30.0119876862"><time>2026-04-25T18:12:00Z</time></trkpt><trkpt lat="59.0756320953" lon="30.0119662285"><time>2026-04-25T18:12:02Z</time></trkpt><trkpt lat="59.0756535530" lon="30.0119018555"><time>2026-04-25T18:12:05Z</time></trkpt><trkpt lat="59.0756535530" lon="30.0118803978"><time>2026-04-25T18:12:07Z</time></trkpt><trkpt lat="59.0756320953" lon="30.0118803978"><time>2026-04-25T18:12:10Z</time></trkpt><trkpt lat="59.0756320953" lon="30.0118374825"><time>2026-04-25T18:12:12Z</time></trkpt><trkpt lat="59.0756320953" lon="30.0117945671"><time>2026-04-25T18:12:15Z</time></trkpt><trkpt lat="59.0756535530" lon="30.0117945671"><time>2026-04-25T18:12:17Z</time></trkpt><trkpt lat="59.0756535530" lon="30.0117516518"><time>2026-04-25T18:12:20Z</time></trkpt><trkpt lat="59.0756535530" lon="30.0117301941"><time>2026-04-25T18:12:22Z</time></trkpt><trkpt lat="59.0756535530" lon="30.0116658211"><time>2026-04-25T18:12:25Z</time></trkpt><trkpt lat="59.0756320953" lon="30.0116443634"><time>2026-04-25T18:12:27Z</time></trkpt><trkpt lat="59.0756320953" lon="30.0116229057"><time>2026-04-25T18:12:30Z</time></trkpt><trkpt lat="59.0756535530" lon="30.0116014481"><time>2026-04-25T18:12:32Z</time></trkpt><trkpt lat="59.0756535530" lon="30.0115585327"><time>2026-04-25T18:12:35Z</time></trkpt><trkpt lat="59.0756535530" lon="30.0115370750"><time>2026-04-25T18:12:37Z</time></trkpt><trkpt lat="59.0756535530" lon="30.0115156174"><time>2026-04-25T18:12:40Z</time></trkpt><trkpt lat="59.0756750107" lon="30.0114941597"><time>2026-04-25T18:12:42Z</time></trkpt><trkpt lat="59.0756750107" lon="30.0115156174"><time>2026-04-25T18:12:45Z</time></trkpt><trkpt lat="59.0756535530" lon="30.0115156174"><time>2026-04-25T18:12:47Z</time></trkpt><trkpt lat="59.0756320953" lon="30.0115585327"><time>2026-04-25T18:12:50Z</time></trkpt><trkpt lat="59.0756320953" lon="30.0115799904"><time>2026-04-25T18:12:52Z</time></trkpt><trkpt lat="59.0756320953" lon="30.0116229057"><time>2026-04-25T18:12:55Z</time></trkpt><trkpt lat="59.0756320953" lon="30.0116229057"><time>2026-04-25T18:12:57Z</time></trkpt><trkpt lat="59.0756320953" lon="30.0116443634"><time>2026-04-25T18:13:00Z</time></trkpt><trkpt lat="59.0756320953" lon="30.0116443634"><time>2026-04-25T18:13:02Z</time></trkpt><trkpt lat="59.0756320953" lon="30.0116443634"><time>2026-04-25T18:13:05Z</time></trkpt><trkpt lat="59.0756320953" lon="30.0116443634"><time>2026-04-25T18:13:07Z</time></trkpt><trkpt lat="59.0756320953" lon="30.0116229057"><time>2026-04-25T18:13:10Z</time></trkpt><trkpt lat="59.0756106377" lon="30.0115585327"><time>2026-04-25T18:13:12Z</time></trkpt><trkpt lat="59.0755891800" lon="30.0114297867"><time>2026-04-25T18:13:15Z</time></trkpt><trkpt lat="59.0755462646" lon="30.0113439560"><time>2026-04-25T18:13:17Z</time></trkpt><trkpt lat="59.0755248070" lon="30.0112581253"><time>2026-04-25T18:13:20Z</time></trkpt><trkpt lat="59.0755248070" lon="30.0112366676"><time>2026-04-25T18:13:22Z</time></trkpt><trkpt lat="59.0755248070" lon="30.0111722946"><time>2026-04-25T18:13:25Z</time></trkpt><trkpt lat="59.0755248070" lon="30.0111508369"><time>2026-04-25T18:13:27Z</time></trkpt><trkpt lat="59.0755248070" lon="30.0110864639"><time>2026-04-25T18:13:30Z</time></trkpt><trkpt lat="59.0755248070" lon="30.0110650063"><time>2026-04-25T18:13:32Z</time></trkpt><trkpt lat="59.0755462646" lon="30.0110220909"><time>2026-04-25T18:13:35Z</time></trkpt><trkpt lat="59.0755248070" lon="30.0109791756"><time>2026-04-25T18:13:37Z</time></trkpt><trkpt lat="59.0755248070" lon="30.0109577179"><time>2026-04-25T18:13:40Z</time></trkpt><trkpt lat="59.0755033493" lon="30.0109362602"><time>2026-04-25T18:13:42Z</time></trkpt><trkpt lat="59.0755248070" lon="30.0108933449"><time>2026-04-25T18:13:45Z</time></trkpt><trkpt lat="59.0755248070" lon="30.0108504295"><time>2026-04-25T18:13:47Z</time></trkpt><trkpt lat="59.0755248070" lon="30.0108289719"><time>2026-04-25T18:13:50Z</time></trkpt><trkpt lat="59.0755248070" lon="30.0108075142"><time>2026-04-25T18:13:52Z</time></trkpt><trkpt lat="59.0755248070" lon="30.0107860565"><time>2026-04-25T18:13:55Z</time></trkpt><trkpt lat="59.0755248070" lon="30.0107645988"><time>2026-04-25T18:13:57Z</time></trkpt><trkpt lat="59.0755248070" lon="30.0107431412"><time>2026-04-25T18:14:00Z</time></trkpt><trkpt lat="59.0755033493" lon="30.0107002258"><time>2026-04-25T18:14:02Z</time></trkpt><trkpt lat="59.0755033493" lon="30.0106573105"><time>2026-04-25T18:14:05Z</time></trkpt><trkpt lat="59.0755248070" lon="30.0106358528"><time>2026-04-25T18:14:07Z</time></trkpt><trkpt lat="59.0755248070" lon="30.0105714798"><time>2026-04-25T18:14:10Z</time></trkpt><trkpt lat="59.0755248070" lon="30.0105500221"><time>2026-04-25T18:14:12Z</time></trkpt><trkpt lat="59.0755033493" lon="30.0105071068"><time>2026-04-25T18:14:15Z</time></trkpt><trkpt lat="59.0755033493" lon="30.0104641914"><time>2026-04-25T18:14:17Z</time></trkpt><trkpt lat="59.0755033493" lon="30.0104427338"><time>2026-04-25T18:14:20Z</time></trkpt><trkpt lat="59.0755033493" lon="30.0104212761"><time>2026-04-25T18:14:22Z</time></trkpt><trkpt lat="59.0755033493" lon="30.0103998184"><time>2026-04-25T18:14:25Z</time></trkpt><trkpt lat="59.0754818916" lon="30.0103783607"><time>2026-04-25T18:14:27Z</time></trkpt><trkpt lat="59.0754818916" lon="30.0103354454"><time>2026-04-25T18:14:30Z</time></trkpt><trkpt lat="59.0754818916" lon="30.0103139877"><time>2026-04-25T18:14:32Z</time></trkpt><trkpt lat="59.0754818916" lon="30.0102925301"><time>2026-04-25T18:14:35Z</time></trkpt><trkpt lat="59.0754818916" lon="30.0102710724"><time>2026-04-25T18:14:37Z</time></trkpt><trkpt lat="59.0754818916" lon="30.0102710724"><time>2026-04-25T18:14:40Z</time></trkpt><trkpt lat="59.0754604340" lon="30.0102281570"><time>2026-04-25T18:14:42Z</time></trkpt><trkpt lat="59.0754389763" lon="30.0101852417"><time>2026-04-25T18:14:45Z</time></trkpt><trkpt lat="59.0754389763" lon="30.0101852417"><time>2026-04-25T18:14:47Z</time></trkpt><trkpt lat="59.0754389763" lon="30.0101852417"><time>2026-04-25T18:14:50Z</time></trkpt><trkpt lat="59.0754389763" lon="30.0101852417"><time>2026-04-25T18:14:52Z</time></trkpt><trkpt lat="59.0754389763" lon="30.0101852417"><time>2026-04-25T18:14:55Z</time></trkpt><trkpt lat="59.0754389763" lon="30.0101852417"><time>2026-04-25T18:14:57Z</time></trkpt><trkpt lat="59.0754389763" lon="30.0101852417"><time>2026-04-25T18:15:00Z</time></trkpt><trkpt lat="59.0754389763" lon="30.0101852417"><time>2026-04-25T18:15:02Z</time></trkpt><trkpt lat="59.0754389763" lon="30.0101852417"><time>2026-04-25T18:15:05Z</time></trkpt><trkpt lat="59.0754389763" lon="30.0101852417"><time>2026-04-25T18:15:07Z</time></trkpt><trkpt lat="59.0754389763" lon="30.0101852417"><time>2026-04-25T18:15:10Z</time></trkpt><trkpt lat="59.0754389763" lon="30.0101852417"><time>2026-04-25T18:15:12Z</time></trkpt><trkpt lat="59.0754389763" lon="30.0101852417"><time>2026-04-25T18:15:15Z</time></trkpt><trkpt lat="59.0754389763" lon="30.0101852417"><time>2026-04-25T18:15:17Z</time></trkpt><trkpt lat="59.0754389763" lon="30.0101852417"><time>2026-04-25T18:15:20Z</time></trkpt><trkpt lat="59.0754389763" lon="30.0101852417"><time>2026-04-25T18:15:22Z</time></trkpt><trkpt lat="59.0754389763" lon="30.0101852417"><time>2026-04-25T18:15:25Z</time></trkpt><trkpt lat="59.0754389763" lon="30.0101852417"><time>2026-04-25T18:15:27Z</time></trkpt><trkpt lat="59.0754389763" lon="30.0101852417"><time>2026-04-25T18:15:30Z</time></trkpt><trkpt lat="59.0754389763" lon="30.0101852417"><time>2026-04-25T18:15:32Z</time></trkpt><trkpt lat="59.0754389763" lon="30.0101852417"><time>2026-04-25T18:15:35Z</time></trkpt><trkpt lat="59.0754389763" lon="30.0101852417"><time>2026-04-25T18:15:37Z</time></trkpt><trkpt lat="59.0754389763" lon="30.0101637840"><time>2026-04-25T18:15:40Z</time></trkpt><trkpt lat="59.0754389763" lon="30.0101637840"><time>2026-04-25T18:15:42Z</time></trkpt><trkpt lat="59.0754389763" lon="30.0101637840"><time>2026-04-25T18:15:45Z</time></trkpt><trkpt lat="59.0754389763" lon="30.0101637840"><time>2026-04-25T18:15:47Z</time></trkpt><trkpt lat="59.0754389763" lon="30.0101637840"><time>2026-04-25T18:15:50Z</time></trkpt><trkpt lat="59.0754389763" lon="30.0101637840"><time>2026-04-25T18:15:52Z</time></trkpt><trkpt lat="59.0754389763" lon="30.0101637840"><time>2026-04-25T18:15:55Z</time></trkpt><trkpt lat="59.0754389763" lon="30.0101637840"><time>2026-04-25T18:15:57Z</time></trkpt><trkpt lat="59.0754389763" lon="30.0101637840"><time>2026-04-25T18:16:00Z</time></trkpt><trkpt lat="59.0754389763" lon="30.0101637840"><time>2026-04-25T18:16:02Z</time></trkpt><trkpt lat="59.0754389763" lon="30.0101637840"><time>2026-04-25T18:16:05Z</time></trkpt><trkpt lat="59.0754389763" lon="30.0101637840"><time>2026-04-25T18:16:07Z</time></trkpt><trkpt lat="59.0754389763" lon="30.0101637840"><time>2026-04-25T18:16:10Z</time></trkpt><trkpt lat="59.0754389763" lon="30.0101637840"><time>2026-04-25T18:16:12Z</time></trkpt><trkpt lat="59.0754389763" lon="30.0101637840"><time>2026-04-25T18:16:15Z</time></trkpt><trkpt lat="59.0754389763" lon="30.0101637840"><time>2026-04-25T18:16:17Z</time></trkpt><trkpt lat="59.0754389763" lon="30.0101637840"><time>2026-04-25T18:16:20Z</time></trkpt><trkpt lat="59.0754389763" lon="30.0101637840"><time>2026-04-25T18:16:22Z</time></trkpt><trkpt lat="59.0754389763" lon="30.0101637840"><time>2026-04-25T18:16:25Z</time></trkpt><trkpt lat="59.0754389763" lon="30.0101637840"><time>2026-04-25T18:16:27Z</time></trkpt><trkpt lat="59.0754389763" lon="30.0101637840"><time>2026-04-25T18:16:30Z</time></trkpt><trkpt lat="59.0754389763" lon="30.0101637840"><time>2026-04-25T18:16:32Z</time></trkpt><trkpt lat="59.0754389763" lon="30.0101637840"><time>2026-04-25T18:16:35Z</time></trkpt><trkpt lat="59.0754389763" lon="30.0101637840"><time>2026-04-25T18:16:37Z</time></trkpt><trkpt lat="59.0754389763" lon="30.0101637840"><time>2026-04-25T18:16:40Z</time></trkpt><trkpt lat="59.0754389763" lon="30.0101637840"><time>2026-04-25T18:16:42Z</time></trkpt><trkpt lat="59.0754389763" lon="30.0101637840"><time>2026-04-25T18:16:45Z</time></trkpt><trkpt lat="59.0754389763" lon="30.0101637840"><time>2026-04-25T18:16:47Z</time></trkpt><trkpt lat="59.0754389763" lon="30.0101637840"><time>2026-04-25T18:16:50Z</time></trkpt><trkpt lat="59.0754389763" lon="30.0101637840"><time>2026-04-25T18:16:52Z</time></trkpt><trkpt lat="59.0754389763" lon="30.0101637840"><time>2026-04-25T18:16:55Z</time></trkpt><trkpt lat="59.0754389763" lon="30.0101637840"><time>2026-04-25T18:16:57Z</time></trkpt><trkpt lat="59.0754389763" lon="30.0101637840"><time>2026-04-25T18:17:00Z</time></trkpt><trkpt lat="59.0754389763" lon="30.0101637840"><time>2026-04-25T18:17:02Z</time></trkpt><trkpt lat="59.0754389763" lon="30.0101637840"><time>2026-04-25T18:17:05Z</time></trkpt><trkpt lat="59.0754389763" lon="30.0101637840"><time>2026-04-25T18:17:07Z</time></trkpt><trkpt lat="59.0754389763" lon="30.0101637840"><time>2026-04-25T18:17:10Z</time></trkpt><trkpt lat="59.0754389763" lon="30.0101637840"><time>2026-04-25T18:17:12Z</time></trkpt><trkpt lat="59.0754389763" lon="30.0101637840"><time>2026-04-25T18:17:15Z</time></trkpt><trkpt lat="59.0754389763" lon="30.0101637840"><time>2026-04-25T18:17:17Z</time></trkpt><trkpt lat="59.0754389763" lon="30.0101637840"><time>2026-04-25T18:17:20Z</time></trkpt><trkpt lat="59.0754389763" lon="30.0101637840"><time>2026-04-25T18:17:22Z</time></trkpt><trkpt lat="59.0754389763" lon="30.0101637840"><time>2026-04-25T18:17:25Z</time></trkpt><trkpt lat="59.0754389763" lon="30.0101637840"><time>2026-04-25T18:17:27Z</time></trkpt><trkpt lat="59.0754389763" lon="30.0101637840"><time>2026-04-25T18:17:30Z</time></trkpt><trkpt lat="59.0754389763" lon="30.0101637840"><time>2026-04-25T18:17:32Z</time></trkpt><trkpt lat="59.0754389763" lon="30.0101637840"><time>2026-04-25T18:17:35Z</time></trkpt><trkpt lat="59.0754389763" lon="30.0101637840"><time>2026-04-25T18:17:37Z</time></trkpt><trkpt lat="59.0754389763" lon="30.0101637840"><time>2026-04-25T18:17:40Z</time></trkpt><trkpt lat="59.0754389763" lon="30.0101637840"><time>2026-04-25T18:17:42Z</time></trkpt><trkpt lat="59.0754389763" lon="30.0101637840"><time>2026-04-25T18:17:45Z</time></trkpt><trkpt lat="59.0754389763" lon="30.0101637840"><time>2026-04-25T18:17:47Z</time></trkpt><trkpt lat="59.0754389763" lon="30.0101637840"><time>2026-04-25T18:17:50Z</time></trkpt><trkpt lat="59.0754389763" lon="30.0101637840"><time>2026-04-25T18:17:52Z</time></trkpt><trkpt lat="59.0754389763" lon="30.0101637840"><time>2026-04-25T18:17:55Z</time></trkpt><trkpt lat="59.0754389763" lon="30.0101637840"><time>2026-04-25T18:17:57Z</time></trkpt><trkpt lat="59.0754389763" lon="30.0101637840"><time>2026-04-25T18:18:00Z</time></trkpt><trkpt lat="59.0754389763" lon="30.0101637840"><time>2026-04-25T18:18:02Z</time></trkpt><trkpt lat="59.0754389763" lon="30.0101637840"><time>2026-04-25T18:18:05Z</time></trkpt><trkpt lat="59.0754389763" lon="30.0101637840"><time>2026-04-25T18:18:07Z</time></trkpt><trkpt lat="59.0754389763" lon="30.0101637840"><time>2026-04-25T18:18:10Z</time></trkpt><trkpt lat="59.0754389763" lon="30.0101637840"><time>2026-04-25T18:18:12Z</time></trkpt><trkpt lat="59.0754389763" lon="30.0101637840"><time>2026-04-25T18:18:15Z</time></trkpt><trkpt lat="59.0754389763" lon="30.0101637840"><time>2026-04-25T18:18:17Z</time></trkpt><trkpt lat="59.0754389763" lon="30.0101637840"><time>2026-04-25T18:18:20Z</time></trkpt><trkpt lat="59.0754389763" lon="30.0101637840"><time>2026-04-25T18:18:22Z</time></trkpt><trkpt lat="59.0754389763" lon="30.0101637840"><time>2026-04-25T18:18:25Z</time></trkpt><trkpt lat="59.0754389763" lon="30.0101637840"><time>2026-04-25T18:18:27Z</time></trkpt><trkpt lat="59.0754389763" lon="30.0101637840"><time>2026-04-25T18:18:30Z</time></trkpt><trkpt lat="59.0754389763" lon="30.0101637840"><time>2026-04-25T18:18:35Z</time></trkpt><trkpt lat="59.0754389763" lon="30.0101637840"><time>2026-04-25T18:18:37Z</time></trkpt><trkpt lat="59.0754389763" lon="30.0101637840"><time>2026-04-25T18:18:40Z</time></trkpt><trkpt lat="59.0754389763" lon="30.0101637840"><time>2026-04-25T18:18:42Z</time></trkpt><trkpt lat="59.0754389763" lon="30.0101637840"><time>2026-04-25T18:18:45Z</time></trkpt><trkpt lat="59.0754389763" lon="30.0101637840"><time>2026-04-25T18:18:47Z</time></trkpt><trkpt lat="59.0754389763" lon="30.0101637840"><time>2026-04-25T18:18:50Z</time></trkpt><trkpt lat="59.0754389763" lon="30.0101637840"><time>2026-04-25T18:18:52Z</time></trkpt><trkpt lat="59.0754389763" lon="30.0101637840"><time>2026-04-25T18:18:55Z</time></trkpt><trkpt lat="59.0754389763" lon="30.0101637840"><time>2026-04-25T18:18:57Z</time></trkpt><trkpt lat="59.0754389763" lon="30.0101637840"><time>2026-04-25T18:19:00Z</time></trkpt><trkpt lat="59.0754389763" lon="30.0101637840"><time>2026-04-25T18:19:02Z</time></trkpt><trkpt lat="59.0754389763" lon="30.0101637840"><time>2026-04-25T18:19:05Z</time></trkpt><trkpt lat="59.0754389763" lon="30.0101637840"><time>2026-04-25T18:19:07Z</time></trkpt><trkpt lat="59.0754389763" lon="30.0101637840"><time>2026-04-25T18:19:10Z</time></trkpt><trkpt lat="59.0754389763" lon="30.0101637840"><time>2026-04-25T18:19:12Z</time></trkpt><trkpt lat="59.0754604340" lon="30.0101423264"><time>2026-04-25T18:19:15Z</time></trkpt><trkpt lat="59.0754604340" lon="30.0101423264"><time>2026-04-25T18:19:17Z</time></trkpt><trkpt lat="59.0754604340" lon="30.0101423264"><time>2026-04-25T18:19:20Z</time></trkpt><trkpt lat="59.0754604340" lon="30.0101423264"><time>2026-04-25T18:19:22Z</time></trkpt><trkpt lat="59.0754604340" lon="30.0101423264"><time>2026-04-25T18:19:25Z</time></trkpt><trkpt lat="59.0754604340" lon="30.0101423264"><time>2026-04-25T18:19:27Z</time></trkpt><trkpt lat="59.0754604340" lon="30.0101423264"><time>2026-04-25T18:19:30Z</time></trkpt><trkpt lat="59.0754604340" lon="30.0101423264"><time>2026-04-25T18:19:32Z</time></trkpt><trkpt lat="59.0754604340" lon="30.0101423264"><time>2026-04-25T18:19:35Z</time></trkpt><trkpt lat="59.0754604340" lon="30.0101423264"><time>2026-04-25T18:19:37Z</time></trkpt><trkpt lat="59.0754604340" lon="30.0101423264"><time>2026-04-25T18:19:40Z</time></trkpt><trkpt lat="59.0754604340" lon="30.0101423264"><time>2026-04-25T18:19:42Z</time></trkpt><trkpt lat="59.0754604340" lon="30.0101423264"><time>2026-04-25T18:19:45Z</time></trkpt><trkpt lat="59.0754604340" lon="30.0101423264"><time>2026-04-25T18:19:47Z</time></trkpt><trkpt lat="59.0754604340" lon="30.0101423264"><time>2026-04-25T18:19:50Z</time></trkpt><trkpt lat="59.0754604340" lon="30.0101423264"><time>2026-04-25T18:19:52Z</time></trkpt><trkpt lat="59.0754604340" lon="30.0101423264"><time>2026-04-25T18:19:55Z</time></trkpt><trkpt lat="59.0754604340" lon="30.0101423264"><time>2026-04-25T18:19:57Z</time></trkpt><trkpt lat="59.0754604340" lon="30.0101423264"><time>2026-04-25T18:20:00Z</time></trkpt><trkpt lat="59.0754604340" lon="30.0101423264"><time>2026-04-25T18:20:02Z</time></trkpt><trkpt lat="59.0754604340" lon="30.0101423264"><time>2026-04-25T18:20:05Z</time></trkpt><trkpt lat="59.0754604340" lon="30.0101423264"><time>2026-04-25T18:20:07Z</time></trkpt><trkpt lat="59.0754604340" lon="30.0101423264"><time>2026-04-25T18:20:10Z</time></trkpt><trkpt lat="59.0754604340" lon="30.0101423264"><time>2026-04-25T18:20:12Z</time></trkpt><trkpt lat="59.0754604340" lon="30.0101423264"><time>2026-04-25T18:20:15Z</time></trkpt><trkpt lat="59.0754604340" lon="30.0101423264"><time>2026-04-25T18:20:17Z</time></trkpt><trkpt lat="59.0754604340" lon="30.0101423264"><time>2026-04-25T18:20:20Z</time></trkpt><trkpt lat="59.0754604340" lon="30.0101423264"><time>2026-04-25T18:20:22Z</time></trkpt><trkpt lat="59.0754604340" lon="30.0101423264"><time>2026-04-25T18:20:25Z</time></trkpt><trkpt lat="59.0754604340" lon="30.0101423264"><time>2026-04-25T18:20:27Z</time></trkpt><trkpt lat="59.0754604340" lon="30.0101423264"><time>2026-04-25T18:20:30Z</time></trkpt><trkpt lat="59.0754604340" lon="30.0101423264"><time>2026-04-25T18:20:32Z</time></trkpt><trkpt lat="59.0754604340" lon="30.0101423264"><time>2026-04-25T18:20:35Z</time></trkpt><trkpt lat="59.0754604340" lon="30.0101423264"><time>2026-04-25T18:20:37Z</time></trkpt><trkpt lat="59.0754604340" lon="30.0101423264"><time>2026-04-25T18:20:40Z</time></trkpt><trkpt lat="59.0754604340" lon="30.0101423264"><time>2026-04-25T18:20:42Z</time></trkpt><trkpt lat="59.0754604340" lon="30.0101423264"><time>2026-04-25T18:20:45Z</time></trkpt><trkpt lat="59.0754604340" lon="30.0101423264"><time>2026-04-25T18:20:47Z</time></trkpt><trkpt lat="59.0754604340" lon="30.0101423264"><time>2026-04-25T18:20:50Z</time></trkpt><trkpt lat="59.0754604340" lon="30.0101423264"><time>2026-04-25T18:20:52Z</time></trkpt><trkpt lat="59.0754604340" lon="30.0101423264"><time>2026-04-25T18:20:55Z</time></trkpt><trkpt lat="59.0754604340" lon="30.0101423264"><time>2026-04-25T18:20:57Z</time></trkpt><trkpt lat="59.0754604340" lon="30.0101423264"><time>2026-04-25T18:21:00Z</time></trkpt><trkpt lat="59.0754604340" lon="30.0101423264"><time>2026-04-25T18:21:02Z</time></trkpt><trkpt lat="59.0754604340" lon="30.0101423264"><time>2026-04-25T18:21:05Z</time></trkpt><trkpt lat="59.0754604340" lon="30.0101423264"><time>2026-04-25T18:21:07Z</time></trkpt><trkpt lat="59.0754604340" lon="30.0101423264"><time>2026-04-25T18:21:10Z</time></trkpt><trkpt lat="59.0754604340" lon="30.0101423264"><time>2026-04-25T18:21:12Z</time></trkpt><trkpt lat="59.0754604340" lon="30.0101423264"><time>2026-04-25T18:21:15Z</time></trkpt><trkpt lat="59.0754604340" lon="30.0101423264"><time>2026-04-25T18:21:17Z</time></trkpt><trkpt lat="59.0754604340" lon="30.0101423264"><time>2026-04-25T18:21:20Z</time></trkpt><trkpt lat="59.0754604340" lon="30.0101423264"><time>2026-04-25T18:21:22Z</time></trkpt><trkpt lat="59.0754604340" lon="30.0101423264"><time>2026-04-25T18:21:25Z</time></trkpt><trkpt lat="59.0754604340" lon="30.0101423264"><time>2026-04-25T18:21:27Z</time></trkpt><trkpt lat="59.0754604340" lon="30.0101423264"><time>2026-04-25T18:21:30Z</time></trkpt><trkpt lat="59.0754604340" lon="30.0101423264"><time>2026-04-25T18:21:32Z</time></trkpt><trkpt lat="59.0754604340" lon="30.0101423264"><time>2026-04-25T18:21:35Z</time></trkpt><trkpt lat="59.0754604340" lon="30.0101423264"><time>2026-04-25T18:21:37Z</time></trkpt><trkpt lat="59.0754604340" lon="30.0101423264"><time>2026-04-25T18:21:40Z</time></trkpt><trkpt lat="59.0754604340" lon="30.0101423264"><time>2026-04-25T18:21:42Z</time></trkpt><trkpt lat="59.0754604340" lon="30.0101423264"><time>2026-04-25T18:21:45Z</time></trkpt><trkpt lat="59.0754604340" lon="30.0101423264"><time>2026-04-25T18:21:47Z</time></trkpt><trkpt lat="59.0754604340" lon="30.0101423264"><time>2026-04-25T18:21:50Z</time></trkpt><trkpt lat="59.0754604340" lon="30.0101423264"><time>2026-04-25T18:21:52Z</time></trkpt><trkpt lat="59.0754604340" lon="30.0101423264"><time>2026-04-25T18:21:55Z</time></trkpt><trkpt lat="59.0754604340" lon="30.0101423264"><time>2026-04-25T18:21:57Z</time></trkpt><trkpt lat="59.0754604340" lon="30.0101423264"><time>2026-04-25T18:22:00Z</time></trkpt><trkpt lat="59.0754604340" lon="30.0101423264"><time>2026-04-25T18:22:02Z</time></trkpt><trkpt lat="59.0754604340" lon="30.0101423264"><time>2026-04-25T18:22:05Z</time></trkpt><trkpt lat="59.0754604340" lon="30.0101423264"><time>2026-04-25T18:22:07Z</time></trkpt><trkpt lat="59.0754604340" lon="30.0101423264"><time>2026-04-25T18:22:10Z</time></trkpt><trkpt lat="59.0754604340" lon="30.0101423264"><time>2026-04-25T18:22:12Z</time></trkpt><trkpt lat="59.0754604340" lon="30.0101423264"><time>2026-04-25T18:22:15Z</time></trkpt><trkpt lat="59.0754604340" lon="30.0101423264"><time>2026-04-25T18:22:17Z</time></trkpt><trkpt lat="59.0754604340" lon="30.0101423264"><time>2026-04-25T18:22:20Z</time></trkpt><trkpt lat="59.0754604340" lon="30.0101423264"><time>2026-04-25T18:22:22Z</time></trkpt><trkpt lat="59.0754604340" lon="30.0101423264"><time>2026-04-25T18:22:25Z</time></trkpt><trkpt lat="59.0754604340" lon="30.0101423264"><time>2026-04-25T18:22:27Z</time></trkpt><trkpt lat="59.0754604340" lon="30.0101423264"><time>2026-04-25T18:22:30Z</time></trkpt><trkpt lat="59.0754604340" lon="30.0101423264"><time>2026-04-25T18:22:32Z</time></trkpt><trkpt lat="59.0754604340" lon="30.0101423264"><time>2026-04-25T18:22:35Z</time></trkpt><trkpt lat="59.0754604340" lon="30.0101423264"><time>2026-04-25T18:22:37Z</time></trkpt><trkpt lat="59.0754604340" lon="30.0101423264"><time>2026-04-25T18:22:40Z</time></trkpt><trkpt lat="59.0754604340" lon="30.0101423264"><time>2026-04-25T18:22:42Z</time></trkpt><trkpt lat="59.0754604340" lon="30.0101423264"><time>2026-04-25T18:22:45Z</time></trkpt><trkpt lat="59.0754604340" lon="30.0101423264"><time>2026-04-25T18:22:47Z</time></trkpt><trkpt lat="59.0754604340" lon="30.0101423264"><time>2026-04-25T18:22:50Z</time></trkpt><trkpt lat="59.0754604340" lon="30.0101423264"><time>2026-04-25T18:22:52Z</time></trkpt><trkpt lat="59.0754604340" lon="30.0101423264"><time>2026-04-25T18:22:55Z</time></trkpt><trkpt lat="59.0754604340" lon="30.0101423264"><time>2026-04-25T18:22:57Z</time></trkpt><trkpt lat="59.0754604340" lon="30.0101423264"><time>2026-04-25T18:23:00Z</time></trkpt><trkpt lat="59.0754604340" lon="30.0101423264"><time>2026-04-25T18:23:02Z</time></trkpt><trkpt lat="59.0754604340" lon="30.0101423264"><time>2026-04-25T18:23:05Z</time></trkpt><trkpt lat="59.0754604340" lon="30.0101423264"><time>2026-04-25T18:23:07Z</time></trkpt><trkpt lat="59.0754604340" lon="30.0101423264"><time>2026-04-25T18:23:10Z</time></trkpt><trkpt lat="59.0754604340" lon="30.0101423264"><time>2026-04-25T18:23:12Z</time></trkpt><trkpt lat="59.0754604340" lon="30.0101208687"><time>2026-04-25T18:23:15Z</time></trkpt><trkpt lat="59.0754604340" lon="30.0101208687"><time>2026-04-25T18:23:17Z</time></trkpt><trkpt lat="59.0754604340" lon="30.0101208687"><time>2026-04-25T18:23:20Z</time></trkpt><trkpt lat="59.0754604340" lon="30.0101208687"><time>2026-04-25T18:23:22Z</time></trkpt><trkpt lat="59.0754604340" lon="30.0101208687"><time>2026-04-25T18:23:25Z</time></trkpt><trkpt lat="59.0754604340" lon="30.0101208687"><time>2026-04-25T18:23:27Z</time></trkpt><trkpt lat="59.0754604340" lon="30.0101208687"><time>2026-04-25T18:23:30Z</time></trkpt><trkpt lat="59.0754604340" lon="30.0101208687"><time>2026-04-25T18:23:32Z</time></trkpt><trkpt lat="59.0754604340" lon="30.0101208687"><time>2026-04-25T18:23:35Z</time></trkpt><trkpt lat="59.0754389763" lon="30.0101423264"><time>2026-04-25T18:23:37Z</time></trkpt><trkpt lat="59.0754175186" lon="30.0101637840"><time>2026-04-25T18:23:40Z</time></trkpt><trkpt lat="59.0754175186" lon="30.0101637840"><time>2026-04-25T18:23:42Z</time></trkpt><trkpt lat="59.0754175186" lon="30.0101637840"><time>2026-04-25T18:23:45Z</time></trkpt><trkpt lat="59.0754175186" lon="30.0101637840"><time>2026-04-25T18:23:47Z</time></trkpt><trkpt lat="59.0754175186" lon="30.0101637840"><time>2026-04-25T18:23:50Z</time></trkpt><trkpt lat="59.0754175186" lon="30.0101637840"><time>2026-04-25T18:23:52Z</time></trkpt><trkpt lat="59.0754175186" lon="30.0101637840"><time>2026-04-25T18:23:55Z</time></trkpt><trkpt lat="59.0753960609" lon="30.0101637840"><time>2026-04-25T18:23:57Z</time></trkpt><trkpt lat="59.0753746033" lon="30.0101637840"><time>2026-04-25T18:24:00Z</time></trkpt><trkpt lat="59.0753746033" lon="30.0101637840"><time>2026-04-25T18:24:02Z</time></trkpt><trkpt lat="59.0753531456" lon="30.0101852417"><time>2026-04-25T18:24:05Z</time></trkpt><trkpt lat="59.0753316879" lon="30.0102066994"><time>2026-04-25T18:24:07Z</time></trkpt><trkpt lat="59.0753316879" lon="30.0102066994"><time>2026-04-25T18:24:10Z</time></trkpt><trkpt lat="59.0753316879" lon="30.0102066994"><time>2026-04-25T18:24:12Z</time></trkpt><trkpt lat="59.0753316879" lon="30.0102066994"><time>2026-04-25T18:24:15Z</time></trkpt><trkpt lat="59.0753102303" lon="30.0102066994"><time>2026-04-25T18:24:17Z</time></trkpt><trkpt lat="59.0752887726" lon="30.0102066994"><time>2026-04-25T18:24:20Z</time></trkpt><trkpt lat="59.0752673149" lon="30.0102066994"><time>2026-04-25T18:24:22Z</time></trkpt><trkpt lat="59.0752458572" lon="30.0102281570"><time>2026-04-25T18:24:25Z</time></trkpt><trkpt lat="59.0752243996" lon="30.0102281570"><time>2026-04-25T18:24:27Z</time></trkpt><trkpt lat="59.0752029419" lon="30.0102281570"><time>2026-04-25T18:24:30Z</time></trkpt><trkpt lat="59.0752029419" lon="30.0102066994"><time>2026-04-25T18:24:32Z</time></trkpt><trkpt lat="59.0751814842" lon="30.0101852417"><time>2026-04-25T18:24:35Z</time></trkpt><trkpt lat="59.0751814842" lon="30.0101852417"><time>2026-04-25T18:24:37Z</time></trkpt><trkpt lat="59.0751600266" lon="30.0102066994"><time>2026-04-25T18:24:40Z</time></trkpt><trkpt lat="59.0751385689" lon="30.0102066994"><time>2026-04-25T18:24:42Z</time></trkpt><trkpt lat="59.0751171112" lon="30.0102281570"><time>2026-04-25T18:24:45Z</time></trkpt><trkpt lat="59.0751171112" lon="30.0102281570"><time>2026-04-25T18:24:47Z</time></trkpt><trkpt lat="59.0751171112" lon="30.0102281570"><time>2026-04-25T18:24:50Z</time></trkpt><trkpt lat="59.0751171112" lon="30.0102281570"><time>2026-04-25T18:24:52Z</time></trkpt><trkpt lat="59.0751171112" lon="30.0102281570"><time>2026-04-25T18:24:55Z</time></trkpt><trkpt lat="59.0751171112" lon="30.0102281570"><time>2026-04-25T18:24:57Z</time></trkpt><trkpt lat="59.0751171112" lon="30.0102281570"><time>2026-04-25T18:25:00Z</time></trkpt><trkpt lat="59.0751171112" lon="30.0102281570"><time>2026-04-25T18:25:02Z</time></trkpt><trkpt lat="59.0751171112" lon="30.0102281570"><time>2026-04-25T18:25:05Z</time></trkpt><trkpt lat="59.0750956535" lon="30.0102496147"><time>2026-04-25T18:25:07Z</time></trkpt><trkpt lat="59.0750741959" lon="30.0102925301"><time>2026-04-25T18:25:10Z</time></trkpt><trkpt lat="59.0750527382" lon="30.0103139877"><time>2026-04-25T18:25:12Z</time></trkpt><trkpt lat="59.0750312805" lon="30.0103354454"><time>2026-04-25T18:25:15Z</time></trkpt><trkpt lat="59.0750098228" lon="30.0103569031"><time>2026-04-25T18:25:17Z</time></trkpt><trkpt lat="59.0749883652" lon="30.0103783607"><time>2026-04-25T18:25:20Z</time></trkpt><trkpt lat="59.0749669075" lon="30.0103783607"><time>2026-04-25T18:25:22Z</time></trkpt><trkpt lat="59.0749454498" lon="30.0103783607"><time>2026-04-25T18:25:25Z</time></trkpt><trkpt lat="59.0749239922" lon="30.0103783607"><time>2026-04-25T18:25:27Z</time></trkpt><trkpt lat="59.0749025345" lon="30.0103998184"><time>2026-04-25T18:25:30Z</time></trkpt><trkpt lat="59.0749025345" lon="30.0103998184"><time>2026-04-25T18:25:32Z</time></trkpt><trkpt lat="59.0749025345" lon="30.0103998184"><time>2026-04-25T18:25:35Z</time></trkpt><trkpt lat="59.0749025345" lon="30.0103998184"><time>2026-04-25T18:25:37Z</time></trkpt><trkpt lat="59.0749025345" lon="30.0103998184"><time>2026-04-25T18:25:40Z</time></trkpt><trkpt lat="59.0749025345" lon="30.0103998184"><time>2026-04-25T18:25:42Z</time></trkpt><trkpt lat="59.0749025345" lon="30.0103998184"><time>2026-04-25T18:25:45Z</time></trkpt><trkpt lat="59.0749025345" lon="30.0103998184"><time>2026-04-25T18:25:47Z</time></trkpt><trkpt lat="59.0749025345" lon="30.0103998184"><time>2026-04-25T18:25:50Z</time></trkpt><trkpt lat="59.0749025345" lon="30.0103998184"><time>2026-04-25T18:25:52Z</time></trkpt><trkpt lat="59.0749025345" lon="30.0103998184"><time>2026-04-25T18:25:55Z</time></trkpt><trkpt lat="59.0749025345" lon="30.0103998184"><time>2026-04-25T18:25:57Z</time></trkpt><trkpt lat="59.0749025345" lon="30.0103998184"><time>2026-04-25T18:26:00Z</time></trkpt><trkpt lat="59.0749025345" lon="30.0103998184"><time>2026-04-25T18:26:02Z</time></trkpt><trkpt lat="59.0749025345" lon="30.0103998184"><time>2026-04-25T18:26:05Z</time></trkpt><trkpt lat="59.0749239922" lon="30.0103998184"><time>2026-04-25T18:26:07Z</time></trkpt><trkpt lat="59.0749239922" lon="30.0104212761"><time>2026-04-25T18:26:10Z</time></trkpt><trkpt lat="59.0749454498" lon="30.0104427338"><time>2026-04-25T18:26:12Z</time></trkpt><trkpt lat="59.0749454498" lon="30.0104856491"><time>2026-04-25T18:26:15Z</time></trkpt><trkpt lat="59.0749454498" lon="30.0105071068"><time>2026-04-25T18:26:17Z</time></trkpt><trkpt lat="59.0749454498" lon="30.0105500221"><time>2026-04-25T18:26:20Z</time></trkpt><trkpt lat="59.0749669075" lon="30.0105714798"><time>2026-04-25T18:26:22Z</time></trkpt><trkpt lat="59.0749669075" lon="30.0106143951"><time>2026-04-25T18:26:25Z</time></trkpt><trkpt lat="59.0749669075" lon="30.0106358528"><time>2026-04-25T18:26:27Z</time></trkpt><trkpt lat="59.0749883652" lon="30.0107002258"><time>2026-04-25T18:26:30Z</time></trkpt><trkpt lat="59.0749883652" lon="30.0107216835"><time>2026-04-25T18:26:32Z</time></trkpt><trkpt lat="59.0750098228" lon="30.0107431412"><time>2026-04-25T18:26:35Z</time></trkpt><trkpt lat="59.0750098228" lon="30.0107860565"><time>2026-04-25T18:26:37Z</time></trkpt><trkpt lat="59.0750312805" lon="30.0107860565"><time>2026-04-25T18:26:40Z</time></trkpt><trkpt lat="59.0750312805" lon="30.0107860565"><time>2026-04-25T18:26:42Z</time></trkpt><trkpt lat="59.0750312805" lon="30.0107860565"><time>2026-04-25T18:26:45Z</time></trkpt><trkpt lat="59.0750312805" lon="30.0107860565"><time>2026-04-25T18:26:47Z</time></trkpt><trkpt lat="59.0750312805" lon="30.0107860565"><time>2026-04-25T18:26:50Z</time></trkpt><trkpt lat="59.0750312805" lon="30.0107860565"><time>2026-04-25T18:26:52Z</time></trkpt><trkpt lat="59.0750312805" lon="30.0107860565"><time>2026-04-25T18:26:55Z</time></trkpt><trkpt lat="59.0750312805" lon="30.0107860565"><time>2026-04-25T18:26:57Z</time></trkpt><trkpt lat="59.0750312805" lon="30.0107860565"><time>2026-04-25T18:27:00Z</time></trkpt><trkpt lat="59.0750312805" lon="30.0107860565"><time>2026-04-25T18:27:02Z</time></trkpt><trkpt lat="59.0750312805" lon="30.0107860565"><time>2026-04-25T18:27:05Z</time></trkpt><trkpt lat="59.0750312805" lon="30.0107860565"><time>2026-04-25T18:27:07Z</time></trkpt><trkpt lat="59.0750312805" lon="30.0108075142"><time>2026-04-25T18:27:10Z</time></trkpt><trkpt lat="59.0750312805" lon="30.0108504295"><time>2026-04-25T18:27:12Z</time></trkpt><trkpt lat="59.0750527382" lon="30.0109148026"><time>2026-04-25T18:27:15Z</time></trkpt><trkpt lat="59.0750312805" lon="30.0109362602"><time>2026-04-25T18:27:17Z</time></trkpt><trkpt lat="59.0750312805" lon="30.0109791756"><time>2026-04-25T18:27:20Z</time></trkpt><trkpt lat="59.0750527382" lon="30.0110006332"><time>2026-04-25T18:27:22Z</time></trkpt><trkpt lat="59.0750527382" lon="30.0110220909"><time>2026-04-25T18:27:25Z</time></trkpt><trkpt lat="59.0750527382" lon="30.0110650063"><time>2026-04-25T18:27:27Z</time></trkpt><trkpt lat="59.0750527382" lon="30.0111079216"><time>2026-04-25T18:27:30Z</time></trkpt><trkpt lat="59.0750527382" lon="30.0111722946"><time>2026-04-25T18:27:32Z</time></trkpt><trkpt lat="59.0750527382" lon="30.0111937523"><time>2026-04-25T18:27:35Z</time></trkpt><trkpt lat="59.0750527382" lon="30.0112366676"><time>2026-04-25T18:27:37Z</time></trkpt><trkpt lat="59.0750527382" lon="30.0112795830"><time>2026-04-25T18:27:40Z</time></trkpt><trkpt lat="59.0750527382" lon="30.0113224983"><time>2026-04-25T18:27:42Z</time></trkpt><trkpt lat="59.0750741959" lon="30.0113654137"><time>2026-04-25T18:27:45Z</time></trkpt><trkpt lat="59.0750741959" lon="30.0113868713"><time>2026-04-25T18:27:47Z</time></trkpt><trkpt lat="59.0750741959" lon="30.0114297867"><time>2026-04-25T18:27:50Z</time></trkpt><trkpt lat="59.0750741959" lon="30.0114727020"><time>2026-04-25T18:27:52Z</time></trkpt><trkpt lat="59.0750741959" lon="30.0115156174"><time>2026-04-25T18:27:55Z</time></trkpt><trkpt lat="59.0750741959" lon="30.0115370750"><time>2026-04-25T18:27:57Z</time></trkpt><trkpt lat="59.0750741959" lon="30.0115799904"><time>2026-04-25T18:28:00Z</time></trkpt><trkpt lat="59.0750741959" lon="30.0116229057"><time>2026-04-25T18:28:02Z</time></trkpt><trkpt lat="59.0750741959" lon="30.0116658211"><time>2026-04-25T18:28:05Z</time></trkpt><trkpt lat="59.0750741959" lon="30.0116872787"><time>2026-04-25T18:28:07Z</time></trkpt><trkpt lat="59.0750741959" lon="30.0117516518"><time>2026-04-25T18:28:10Z</time></trkpt><trkpt lat="59.0750741959" lon="30.0117945671"><time>2026-04-25T18:28:12Z</time></trkpt><trkpt lat="59.0750527382" lon="30.0118374825"><time>2026-04-25T18:28:15Z</time></trkpt><trkpt lat="59.0750527382" lon="30.0118803978"><time>2026-04-25T18:28:17Z</time></trkpt><trkpt lat="59.0750527382" lon="30.0119018555"><time>2026-04-25T18:28:20Z</time></trkpt><trkpt lat="59.0750527382" lon="30.0119233131"><time>2026-04-25T18:28:22Z</time></trkpt><trkpt lat="59.0750741959" lon="30.0119662285"><time>2026-04-25T18:28:25Z</time></trkpt><trkpt lat="59.0750741959" lon="30.0119876862"><time>2026-04-25T18:28:27Z</time></trkpt><trkpt lat="59.0750741959" lon="30.0120520592"><time>2026-04-25T18:28:30Z</time></trkpt><trkpt lat="59.0750741959" lon="30.0120735168"><time>2026-04-25T18:28:32Z</time></trkpt><trkpt lat="59.0750741959" lon="30.0121164322"><time>2026-04-25T18:28:35Z</time></trkpt><trkpt lat="59.0750741959" lon="30.0121164322"><time>2026-04-25T18:28:37Z</time></trkpt><trkpt lat="59.0750741959" lon="30.0121164322"><time>2026-04-25T18:28:40Z</time></trkpt><trkpt lat="59.0750741959" lon="30.0121378899"><time>2026-04-25T18:28:42Z</time></trkpt><trkpt lat="59.0750741959" lon="30.0121593475"><time>2026-04-25T18:28:45Z</time></trkpt><trkpt lat="59.0750956535" lon="30.0121808052"><time>2026-04-25T18:28:47Z</time></trkpt><trkpt lat="59.0750741959" lon="30.0122237206"><time>2026-04-25T18:28:50Z</time></trkpt><trkpt lat="59.0750741959" lon="30.0122666359"><time>2026-04-25T18:28:52Z</time></trkpt><trkpt lat="59.0750741959" lon="30.0122880936"><time>2026-04-25T18:28:55Z</time></trkpt><trkpt lat="59.0750741959" lon="30.0123310089"><time>2026-04-25T18:28:57Z</time></trkpt><trkpt lat="59.0750527382" lon="30.0123953819"><time>2026-04-25T18:29:00Z</time></trkpt><trkpt lat="59.0750527382" lon="30.0124168396"><time>2026-04-25T18:29:02Z</time></trkpt><trkpt lat="59.0750741959" lon="30.0124382973"><time>2026-04-25T18:29:05Z</time></trkpt><trkpt lat="59.0750741959" lon="30.0124597549"><time>2026-04-25T18:29:07Z</time></trkpt><trkpt lat="59.0750956535" lon="30.0125026703"><time>2026-04-25T18:29:10Z</time></trkpt><trkpt lat="59.0750741959" lon="30.0125455856"><time>2026-04-25T18:29:12Z</time></trkpt><trkpt lat="59.0750956535" lon="30.0125670433"><time>2026-04-25T18:29:15Z</time></trkpt><trkpt lat="59.0750956535" lon="30.0126099586"><time>2026-04-25T18:29:17Z</time></trkpt><trkpt lat="59.0750956535" lon="30.0126528740"><time>2026-04-25T18:29:20Z</time></trkpt><trkpt lat="59.0750956535" lon="30.0126743317"><time>2026-04-25T18:29:22Z</time></trkpt><trkpt lat="59.0750956535" lon="30.0126957893"><time>2026-04-25T18:29:25Z</time></trkpt><trkpt lat="59.0751171112" lon="30.0127172470"><time>2026-04-25T18:29:27Z</time></trkpt><trkpt lat="59.0751171112" lon="30.0127601624"><time>2026-04-25T18:29:30Z</time></trkpt><trkpt lat="59.0751171112" lon="30.0127816200"><time>2026-04-25T18:29:32Z</time></trkpt><trkpt lat="59.0751171112" lon="30.0128030777"><time>2026-04-25T18:29:35Z</time></trkpt><trkpt lat="59.0751385689" lon="30.0128245354"><time>2026-04-25T18:29:37Z</time></trkpt><trkpt lat="59.0751171112" lon="30.0128674507"><time>2026-04-25T18:29:40Z</time></trkpt><trkpt lat="59.0751171112" lon="30.0128674507"><time>2026-04-25T18:29:42Z</time></trkpt><trkpt lat="59.0751171112" lon="30.0128889084"><time>2026-04-25T18:29:45Z</time></trkpt><trkpt lat="59.0751385689" lon="30.0129103661"><time>2026-04-25T18:29:47Z</time></trkpt><trkpt lat="59.0751385689" lon="30.0129532814"><time>2026-04-25T18:29:50Z</time></trkpt><trkpt lat="59.0751385689" lon="30.0129747391"><time>2026-04-25T18:29:52Z</time></trkpt><trkpt lat="59.0751385689" lon="30.0130176544"><time>2026-04-25T18:29:55Z</time></trkpt><trkpt lat="59.0751600266" lon="30.0130391121"><time>2026-04-25T18:29:57Z</time></trkpt><trkpt lat="59.0751600266" lon="30.0130820274"><time>2026-04-25T18:30:00Z</time></trkpt><trkpt lat="59.0751600266" lon="30.0131034851"><time>2026-04-25T18:30:02Z</time></trkpt><trkpt lat="59.0751600266" lon="30.0131034851"><time>2026-04-25T18:30:05Z</time></trkpt><trkpt lat="59.0751600266" lon="30.0131249428"><time>2026-04-25T18:30:07Z</time></trkpt><trkpt lat="59.0751814842" lon="30.0131249428"><time>2026-04-25T18:30:10Z</time></trkpt><trkpt lat="59.0751814842" lon="30.0131464005"><time>2026-04-25T18:30:12Z</time></trkpt><trkpt lat="59.0752029419" lon="30.0131678581"><time>2026-04-25T18:30:15Z</time></trkpt><trkpt lat="59.0752029419" lon="30.0131893158"><time>2026-04-25T18:30:17Z</time></trkpt><trkpt lat="59.0752029419" lon="30.0132107735"><time>2026-04-25T18:30:20Z</time></trkpt><trkpt lat="59.0752029419" lon="30.0132107735"><time>2026-04-25T18:30:22Z</time></trkpt><trkpt lat="59.0752029419" lon="30.0132322311"><time>2026-04-25T18:30:25Z</time></trkpt><trkpt lat="59.0752029419" lon="30.0132536888"><time>2026-04-25T18:30:27Z</time></trkpt><trkpt lat="59.0752029419" lon="30.0132966042"><time>2026-04-25T18:30:30Z</time></trkpt><trkpt lat="59.0752029419" lon="30.0132966042"><time>2026-04-25T18:30:32Z</time></trkpt><trkpt lat="59.0752243996" lon="30.0133609772"><time>2026-04-25T18:30:35Z</time></trkpt><trkpt lat="59.0752243996" lon="30.0134038925"><time>2026-04-25T18:30:37Z</time></trkpt><trkpt lat="59.0752243996" lon="30.0134468079"><time>2026-04-25T18:30:40Z</time></trkpt><trkpt lat="59.0752458572" lon="30.0134682655"><time>2026-04-25T18:30:42Z</time></trkpt><trkpt lat="59.0752458572" lon="30.0134897232"><time>2026-04-25T18:30:45Z</time></trkpt><trkpt lat="59.0752458572" lon="30.0135540962"><time>2026-04-25T18:30:47Z</time></trkpt><trkpt lat="59.0752458572" lon="30.0135970116"><time>2026-04-25T18:30:50Z</time></trkpt><trkpt lat="59.0752458572" lon="30.0136399269"><time>2026-04-25T18:30:52Z</time></trkpt><trkpt lat="59.0752458572" lon="30.0136613846"><time>2026-04-25T18:30:55Z</time></trkpt><trkpt lat="59.0752458572" lon="30.0137042999"><time>2026-04-25T18:30:57Z</time></trkpt><trkpt lat="59.0752673149" lon="30.0137472153"><time>2026-04-25T18:31:00Z</time></trkpt><trkpt lat="59.0752673149" lon="30.0137472153"><time>2026-04-25T18:31:02Z</time></trkpt><trkpt lat="59.0752673149" lon="30.0137686729"><time>2026-04-25T18:31:05Z</time></trkpt><trkpt lat="59.0752673149" lon="30.0138115883"><time>2026-04-25T18:31:07Z</time></trkpt><trkpt lat="59.0752887726" lon="30.0138330460"><time>2026-04-25T18:31:10Z</time></trkpt><trkpt lat="59.0752887726" lon="30.0138545036"><time>2026-04-25T18:31:12Z</time></trkpt><trkpt lat="59.0753102303" lon="30.0138759613"><time>2026-04-25T18:31:15Z</time></trkpt><trkpt lat="59.0753102303" lon="30.0138759613"><time>2026-04-25T18:31:17Z</time></trkpt><trkpt lat="59.0753316879" lon="30.0138974190"><time>2026-04-25T18:31:20Z</time></trkpt><trkpt lat="59.0753316879" lon="30.0139188766"><time>2026-04-25T18:31:22Z</time></trkpt><trkpt lat="59.0753316879" lon="30.0139617920"><time>2026-04-25T18:31:25Z</time></trkpt><trkpt lat="59.0753316879" lon="30.0139832497"><time>2026-04-25T18:31:27Z</time></trkpt><trkpt lat="59.0753531456" lon="30.0140261650"><time>2026-04-25T18:31:30Z</time></trkpt><trkpt lat="59.0753531456" lon="30.0140261650"><time>2026-04-25T18:31:32Z</time></trkpt><trkpt lat="59.0753531456" lon="30.0140690804"><time>2026-04-25T18:31:35Z</time></trkpt><trkpt lat="59.0753531456" lon="30.0140690804"><time>2026-04-25T18:31:37Z</time></trkpt><trkpt lat="59.0753531456" lon="30.0140905380"><time>2026-04-25T18:31:40Z</time></trkpt><trkpt lat="59.0753531456" lon="30.0141119957"><time>2026-04-25T18:31:42Z</time></trkpt><trkpt lat="59.0753531456" lon="30.0141334534"><time>2026-04-25T18:31:45Z</time></trkpt><trkpt lat="59.0753531456" lon="30.0141763687"><time>2026-04-25T18:31:47Z</time></trkpt><trkpt lat="59.0753746033" lon="30.0141978264"><time>2026-04-25T18:31:50Z</time></trkpt><trkpt lat="59.0753746033" lon="30.0142192841"><time>2026-04-25T18:31:52Z</time></trkpt><trkpt lat="59.0753960609" lon="30.0142621994"><time>2026-04-25T18:31:55Z</time></trkpt><trkpt lat="59.0753960609" lon="30.0142836571"><time>2026-04-25T18:31:57Z</time></trkpt><trkpt lat="59.0753960609" lon="30.0143051147"><time>2026-04-25T18:32:00Z</time></trkpt><trkpt lat="59.0753960609" lon="30.0143265724"><time>2026-04-25T18:32:02Z</time></trkpt><trkpt lat="59.0753960609" lon="30.0143694878"><time>2026-04-25T18:32:05Z</time></trkpt><trkpt lat="59.0753960609" lon="30.0144124031"><time>2026-04-25T18:32:07Z</time></trkpt><trkpt lat="59.0753960609" lon="30.0144767761"><time>2026-04-25T18:32:10Z</time></trkpt><trkpt lat="59.0753960609" lon="30.0144982338"><time>2026-04-25T18:32:12Z</time></trkpt><trkpt lat="59.0753746033" lon="30.0145626068"><time>2026-04-25T18:32:15Z</time></trkpt><trkpt lat="59.0753746033" lon="30.0145840645"><time>2026-04-25T18:32:17Z</time></trkpt><trkpt lat="59.0753960609" lon="30.0146269798"><time>2026-04-25T18:32:20Z</time></trkpt><trkpt lat="59.0753960609" lon="30.0146269798"><time>2026-04-25T18:32:22Z</time></trkpt><trkpt lat="59.0753960609" lon="30.0146698952"><time>2026-04-25T18:32:25Z</time></trkpt><trkpt lat="59.0753960609" lon="30.0147128105"><time>2026-04-25T18:32:27Z</time></trkpt><trkpt lat="59.0753960609" lon="30.0147557259"><time>2026-04-25T18:32:30Z</time></trkpt><trkpt lat="59.0753960609" lon="30.0147771835"><time>2026-04-25T18:32:32Z</time></trkpt><trkpt lat="59.0753746033" lon="30.0147986412"><time>2026-04-25T18:32:35Z</time></trkpt><trkpt lat="59.0753746033" lon="30.0147986412"><time>2026-04-25T18:32:37Z</time></trkpt><trkpt lat="59.0753746033" lon="30.0147986412"><time>2026-04-25T18:32:40Z</time></trkpt><trkpt lat="59.0753746033" lon="30.0147986412"><time>2026-04-25T18:32:42Z</time></trkpt><trkpt lat="59.0753746033" lon="30.0147986412"><time>2026-04-25T18:32:45Z</time></trkpt><trkpt lat="59.0753746033" lon="30.0147986412"><time>2026-04-25T18:32:47Z</time></trkpt><trkpt lat="59.0753746033" lon="30.0147986412"><time>2026-04-25T18:32:50Z</time></trkpt><trkpt lat="59.0753746033" lon="30.0147986412"><time>2026-04-25T18:32:52Z</time></trkpt><trkpt lat="59.0753746033" lon="30.0147557259"><time>2026-04-25T18:32:55Z</time></trkpt><trkpt lat="59.0753746033" lon="30.0147342682"><time>2026-04-25T18:32:57Z</time></trkpt><trkpt lat="59.0753746033" lon="30.0147771835"><time>2026-04-25T18:33:00Z</time></trkpt><trkpt lat="59.0753746033" lon="30.0147986412"><time>2026-04-25T18:33:02Z</time></trkpt><trkpt lat="59.0753531456" lon="30.0147986412"><time>2026-04-25T18:33:05Z</time></trkpt><trkpt lat="59.0753531456" lon="30.0147986412"><time>2026-04-25T18:33:07Z</time></trkpt><trkpt lat="59.0753531456" lon="30.0147986412"><time>2026-04-25T18:33:10Z</time></trkpt><trkpt lat="59.0753531456" lon="30.0147771835"><time>2026-04-25T18:33:12Z</time></trkpt><trkpt lat="59.0753531456" lon="30.0147771835"><time>2026-04-25T18:33:15Z</time></trkpt><trkpt lat="59.0753531456" lon="30.0147771835"><time>2026-04-25T18:33:17Z</time></trkpt><trkpt lat="59.0753531456" lon="30.0147771835"><time>2026-04-25T18:33:20Z</time></trkpt><trkpt lat="59.0753531456" lon="30.0147771835"><time>2026-04-25T18:33:22Z</time></trkpt><trkpt lat="59.0753531456" lon="30.0147771835"><time>2026-04-25T18:33:25Z</time></trkpt><trkpt lat="59.0753531456" lon="30.0147771835"><time>2026-04-25T18:33:27Z</time></trkpt><trkpt lat="59.0753531456" lon="30.0147771835"><time>2026-04-25T18:33:30Z</time></trkpt><trkpt lat="59.0753531456" lon="30.0147771835"><time>2026-04-25T18:33:32Z</time></trkpt><trkpt lat="59.0753531456" lon="30.0147771835"><time>2026-04-25T18:33:35Z</time></trkpt><trkpt lat="59.0753531456" lon="30.0147771835"><time>2026-04-25T18:33:37Z</time></trkpt><trkpt lat="59.0753531456" lon="30.0147771835"><time>2026-04-25T18:33:40Z</time></trkpt><trkpt lat="59.0753531456" lon="30.0147771835"><time>2026-04-25T18:33:42Z</time></trkpt><trkpt lat="59.0753531456" lon="30.0147771835"><time>2026-04-25T18:33:45Z</time></trkpt><trkpt lat="59.0753531456" lon="30.0147771835"><time>2026-04-25T18:33:47Z</time></trkpt><trkpt lat="59.0753531456" lon="30.0147771835"><time>2026-04-25T18:33:50Z</time></trkpt><trkpt lat="59.0753531456" lon="30.0147771835"><time>2026-04-25T18:33:52Z</time></trkpt><trkpt lat="59.0753531456" lon="30.0147771835"><time>2026-04-25T18:33:55Z</time></trkpt><trkpt lat="59.0753531456" lon="30.0147771835"><time>2026-04-25T18:33:57Z</time></trkpt><trkpt lat="59.0753531456" lon="30.0147771835"><time>2026-04-25T18:34:00Z</time></trkpt><trkpt lat="59.0753531456" lon="30.0147771835"><time>2026-04-25T18:34:02Z</time></trkpt><trkpt lat="59.0753531456" lon="30.0147771835"><time>2026-04-25T18:34:05Z</time></trkpt><trkpt lat="59.0753531456" lon="30.0147771835"><time>2026-04-25T18:34:07Z</time></trkpt><trkpt lat="59.0753531456" lon="30.0147771835"><time>2026-04-25T18:34:10Z</time></trkpt><trkpt lat="59.0753531456" lon="30.0147771835"><time>2026-04-25T18:34:12Z</time></trkpt><trkpt lat="59.0753531456" lon="30.0147771835"><time>2026-04-25T18:34:15Z</time></trkpt><trkpt lat="59.0753531456" lon="30.0147771835"><time>2026-04-25T18:34:17Z</time></trkpt><trkpt lat="59.0753531456" lon="30.0147771835"><time>2026-04-25T18:34:20Z</time></trkpt><trkpt lat="59.0753531456" lon="30.0147771835"><time>2026-04-25T18:34:22Z</time></trkpt><trkpt lat="59.0753531456" lon="30.0147771835"><time>2026-04-25T18:34:25Z</time></trkpt><trkpt lat="59.0753531456" lon="30.0147771835"><time>2026-04-25T18:34:27Z</time></trkpt><trkpt lat="59.0753531456" lon="30.0147771835"><time>2026-04-25T18:34:30Z</time></trkpt><trkpt lat="59.0753531456" lon="30.0147771835"><time>2026-04-25T18:34:32Z</time></trkpt><trkpt lat="59.0753531456" lon="30.0147771835"><time>2026-04-25T18:34:35Z</time></trkpt><trkpt lat="59.0753531456" lon="30.0147771835"><time>2026-04-25T18:34:37Z</time></trkpt><trkpt lat="59.0753531456" lon="30.0147771835"><time>2026-04-25T18:34:40Z</time></trkpt><trkpt lat="59.0753531456" lon="30.0147771835"><time>2026-04-25T18:34:42Z</time></trkpt><trkpt lat="59.0753531456" lon="30.0147771835"><time>2026-04-25T18:34:45Z</time></trkpt><trkpt lat="59.0753531456" lon="30.0147771835"><time>2026-04-25T18:34:47Z</time></trkpt><trkpt lat="59.0753746033" lon="30.0148415565"><time>2026-04-25T18:34:50Z</time></trkpt><trkpt lat="59.0753746033" lon="30.0148630142"><time>2026-04-25T18:34:52Z</time></trkpt><trkpt lat="59.0753746033" lon="30.0148844719"><time>2026-04-25T18:34:55Z</time></trkpt><trkpt lat="59.0753531456" lon="30.0148200989"><time>2026-04-25T18:34:57Z</time></trkpt><trkpt lat="59.0753102303" lon="30.0147986412"><time>2026-04-25T18:35:00Z</time></trkpt><trkpt lat="59.0752887726" lon="30.0147771835"><time>2026-04-25T18:35:02Z</time></trkpt><trkpt lat="59.0752887726" lon="30.0147986412"><time>2026-04-25T18:35:05Z</time></trkpt><trkpt lat="59.0752887726" lon="30.0147986412"><time>2026-04-25T18:35:07Z</time></trkpt><trkpt lat="59.0752887726" lon="30.0147986412"><time>2026-04-25T18:35:10Z</time></trkpt><trkpt lat="59.0752887726" lon="30.0147986412"><time>2026-04-25T18:35:12Z</time></trkpt><trkpt lat="59.0752458572" lon="30.0148200989"><time>2026-04-25T18:35:15Z</time></trkpt><trkpt lat="59.0752243996" lon="30.0148200989"><time>2026-04-25T18:35:17Z</time></trkpt><trkpt lat="59.0752029419" lon="30.0148200989"><time>2026-04-25T18:35:20Z</time></trkpt><trkpt lat="59.0751814842" lon="30.0148415565"><time>2026-04-25T18:35:22Z</time></trkpt><trkpt lat="59.0751600266" lon="30.0148844719"><time>2026-04-25T18:35:25Z</time></trkpt><trkpt lat="59.0751385689" lon="30.0148844719"><time>2026-04-25T18:35:27Z</time></trkpt><trkpt lat="59.0751171112" lon="30.0149059296"><time>2026-04-25T18:35:30Z</time></trkpt><trkpt lat="59.0750956535" lon="30.0149059296"><time>2026-04-25T18:35:32Z</time></trkpt><trkpt lat="59.0750741959" lon="30.0148844719"><time>2026-04-25T18:35:35Z</time></trkpt><trkpt lat="59.0750527382" lon="30.0149059296"><time>2026-04-25T18:35:37Z</time></trkpt><trkpt lat="59.0750312805" lon="30.0149059296"><time>2026-04-25T18:35:40Z</time></trkpt><trkpt lat="59.0750312805" lon="30.0149273872"><time>2026-04-25T18:35:42Z</time></trkpt><trkpt lat="59.0749883652" lon="30.0149059296"><time>2026-04-25T18:35:45Z</time></trkpt><trkpt lat="59.0749669075" lon="30.0149273872"><time>2026-04-25T18:35:47Z</time></trkpt><trkpt lat="59.0749669075" lon="30.0149703026"><time>2026-04-25T18:35:50Z</time></trkpt><trkpt lat="59.0749454498" lon="30.0149917603"><time>2026-04-25T18:35:52Z</time></trkpt><trkpt lat="59.0749454498" lon="30.0150346756"><time>2026-04-25T18:35:55Z</time></trkpt><trkpt lat="59.0749454498" lon="30.0150775909"><time>2026-04-25T18:35:57Z</time></trkpt><trkpt lat="59.0749239922" lon="30.0150775909"><time>2026-04-25T18:36:00Z</time></trkpt><trkpt lat="59.0749025345" lon="30.0150775909"><time>2026-04-25T18:36:02Z</time></trkpt><trkpt lat="59.0748810768" lon="30.0150990486"><time>2026-04-25T18:36:05Z</time></trkpt><trkpt lat="59.0748810768" lon="30.0151205063"><time>2026-04-25T18:36:07Z</time></trkpt><trkpt lat="59.0748596191" lon="30.0151205063"><time>2026-04-25T18:36:10Z</time></trkpt><trkpt lat="59.0748381615" lon="30.0151419640"><time>2026-04-25T18:36:12Z</time></trkpt><trkpt lat="59.0748167038" lon="30.0151419640"><time>2026-04-25T18:36:15Z</time></trkpt><trkpt lat="59.0748167038" lon="30.0151634216"><time>2026-04-25T18:36:17Z</time></trkpt><trkpt lat="59.0748167038" lon="30.0151634216"><time>2026-04-25T18:36:20Z</time></trkpt><trkpt lat="59.0748167038" lon="30.0151634216"><time>2026-04-25T18:36:22Z</time></trkpt><trkpt lat="59.0748167038" lon="30.0151634216"><time>2026-04-25T18:36:25Z</time></trkpt><trkpt lat="59.0748167038" lon="30.0151634216"><time>2026-04-25T18:36:27Z</time></trkpt><trkpt lat="59.0748167038" lon="30.0151419640"><time>2026-04-25T18:36:30Z</time></trkpt><trkpt lat="59.0748167038" lon="30.0151205063"><time>2026-04-25T18:36:32Z</time></trkpt><trkpt lat="59.0748167038" lon="30.0151205063"><time>2026-04-25T18:36:35Z</time></trkpt><trkpt lat="59.0748167038" lon="30.0151205063"><time>2026-04-25T18:36:37Z</time></trkpt><trkpt lat="59.0748167038" lon="30.0151205063"><time>2026-04-25T18:36:40Z</time></trkpt><trkpt lat="59.0748167038" lon="30.0151205063"><time>2026-04-25T18:36:42Z</time></trkpt><trkpt lat="59.0748167038" lon="30.0151419640"><time>2026-04-25T18:36:45Z</time></trkpt><trkpt lat="59.0748167038" lon="30.0150775909"><time>2026-04-25T18:36:47Z</time></trkpt><trkpt lat="59.0748167038" lon="30.0150775909"><time>2026-04-25T18:36:50Z</time></trkpt><trkpt lat="59.0748167038" lon="30.0150775909"><time>2026-04-25T18:36:52Z</time></trkpt><trkpt lat="59.0748167038" lon="30.0150775909"><time>2026-04-25T18:36:55Z</time></trkpt><trkpt lat="59.0748167038" lon="30.0150775909"><time>2026-04-25T18:36:57Z</time></trkpt><trkpt lat="59.0748167038" lon="30.0150775909"><time>2026-04-25T18:37:00Z</time></trkpt><trkpt lat="59.0748167038" lon="30.0150346756"><time>2026-04-25T18:37:02Z</time></trkpt><trkpt lat="59.0747952461" lon="30.0149059296"><time>2026-04-25T18:37:05Z</time></trkpt><trkpt lat="59.0747737885" lon="30.0148415565"><time>2026-04-25T18:37:07Z</time></trkpt><trkpt lat="59.0747737885" lon="30.0148200989"><time>2026-04-25T18:37:10Z</time></trkpt><trkpt lat="59.0747523308" lon="30.0147986412"><time>2026-04-25T18:37:12Z</time></trkpt><trkpt lat="59.0747523308" lon="30.0147557259"><time>2026-04-25T18:37:15Z</time></trkpt><trkpt lat="59.0747308731" lon="30.0147342682"><time>2026-04-25T18:37:17Z</time></trkpt><trkpt lat="59.0747308731" lon="30.0147342682"><time>2026-04-25T18:37:20Z</time></trkpt><trkpt lat="59.0747308731" lon="30.0147342682"><time>2026-04-25T18:37:22Z</time></trkpt><trkpt lat="59.0747308731" lon="30.0147342682"><time>2026-04-25T18:37:25Z</time></trkpt><trkpt lat="59.0747308731" lon="30.0147128105"><time>2026-04-25T18:37:27Z</time></trkpt><trkpt lat="59.0747094154" lon="30.0146055222"><time>2026-04-25T18:37:30Z</time></trkpt><trkpt lat="59.0747094154" lon="30.0145840645"><time>2026-04-25T18:37:32Z</time></trkpt><trkpt lat="59.0746879578" lon="30.0145196915"><time>2026-04-25T18:37:35Z</time></trkpt><trkpt lat="59.0746879578" lon="30.0144767761"><time>2026-04-25T18:37:37Z</time></trkpt><trkpt lat="59.0746879578" lon="30.0144338608"><time>2026-04-25T18:37:40Z</time></trkpt><trkpt lat="59.0746879578" lon="30.0144338608"><time>2026-04-25T18:37:42Z</time></trkpt><trkpt lat="59.0746879578" lon="30.0144338608"><time>2026-04-25T18:37:45Z</time></trkpt><trkpt lat="59.0746879578" lon="30.0143909454"><time>2026-04-25T18:37:47Z</time></trkpt><trkpt lat="59.0746665001" lon="30.0143480301"><time>2026-04-25T18:37:50Z</time></trkpt><trkpt lat="59.0746665001" lon="30.0143265724"><time>2026-04-25T18:37:52Z</time></trkpt><trkpt lat="59.0746450424" lon="30.0142836571"><time>2026-04-25T18:37:55Z</time></trkpt><trkpt lat="59.0746450424" lon="30.0142407417"><time>2026-04-25T18:37:57Z</time></trkpt><trkpt lat="59.0746450424" lon="30.0142192841"><time>2026-04-25T18:38:00Z</time></trkpt><trkpt lat="59.0746235847" lon="30.0141763687"><time>2026-04-25T18:38:02Z</time></trkpt><trkpt lat="59.0746235847" lon="30.0141334534"><time>2026-04-25T18:38:05Z</time></trkpt><trkpt lat="59.0746450424" lon="30.0141119957"><time>2026-04-25T18:38:07Z</time></trkpt><trkpt lat="59.0746450424" lon="30.0140476227"><time>2026-04-25T18:38:10Z</time></trkpt><trkpt lat="59.0746450424" lon="30.0140047073"><time>2026-04-25T18:38:12Z</time></trkpt><trkpt lat="59.0746450424" lon="30.0139617920"><time>2026-04-25T18:38:15Z</time></trkpt><trkpt lat="59.0746450424" lon="30.0139403343"><time>2026-04-25T18:38:17Z</time></trkpt><trkpt lat="59.0746235847" lon="30.0138759613"><time>2026-04-25T18:38:20Z</time></trkpt><trkpt lat="59.0746235847" lon="30.0138545036"><time>2026-04-25T18:38:22Z</time></trkpt><trkpt lat="59.0746021271" lon="30.0138115883"><time>2026-04-25T18:38:25Z</time></trkpt><trkpt lat="59.0746021271" lon="30.0138115883"><time>2026-04-25T18:38:27Z</time></trkpt><trkpt lat="59.0746021271" lon="30.0137901306"><time>2026-04-25T18:38:30Z</time></trkpt><trkpt lat="59.0746021271" lon="30.0137257576"><time>2026-04-25T18:38:32Z</time></trkpt><trkpt lat="59.0746021271" lon="30.0136828423"><time>2026-04-25T18:38:35Z</time></trkpt><trkpt lat="59.0746021271" lon="30.0136399269"><time>2026-04-25T18:38:37Z</time></trkpt><trkpt lat="59.0746235847" lon="30.0135970116"><time>2026-04-25T18:38:40Z</time></trkpt><trkpt lat="59.0746235847" lon="30.0135755539"><time>2026-04-25T18:38:42Z</time></trkpt><trkpt lat="59.0746235847" lon="30.0135755539"><time>2026-04-25T18:38:45Z</time></trkpt><trkpt lat="59.0746235847" lon="30.0135755539"><time>2026-04-25T18:38:47Z</time></trkpt><trkpt lat="59.0746450424" lon="30.0135326385"><time>2026-04-25T18:38:50Z</time></trkpt><trkpt lat="59.0746450424" lon="30.0135111809"><time>2026-04-25T18:38:52Z</time></trkpt><trkpt lat="59.0746450424" lon="30.0134897232"><time>2026-04-25T18:38:55Z</time></trkpt><trkpt lat="59.0746450424" lon="30.0134897232"><time>2026-04-25T18:38:57Z</time></trkpt><trkpt lat="59.0746450424" lon="30.0134897232"><time>2026-04-25T18:39:00Z</time></trkpt><trkpt lat="59.0746450424" lon="30.0134468079"><time>2026-04-25T18:39:02Z</time></trkpt><trkpt lat="59.0746235847" lon="30.0134253502"><time>2026-04-25T18:39:05Z</time></trkpt><trkpt lat="59.0746235847" lon="30.0133824348"><time>2026-04-25T18:39:07Z</time></trkpt><trkpt lat="59.0746021271" lon="30.0133609772"><time>2026-04-25T18:39:10Z</time></trkpt><trkpt lat="59.0746021271" lon="30.0133609772"><time>2026-04-25T18:39:12Z</time></trkpt><trkpt lat="59.0746021271" lon="30.0133180618"><time>2026-04-25T18:39:15Z</time></trkpt><trkpt lat="59.0746021271" lon="30.0133180618"><time>2026-04-25T18:39:17Z</time></trkpt><trkpt lat="59.0746021271" lon="30.0132536888"><time>2026-04-25T18:39:20Z</time></trkpt><trkpt lat="59.0746021271" lon="30.0132322311"><time>2026-04-25T18:39:22Z</time></trkpt><trkpt lat="59.0745806694" lon="30.0132107735"><time>2026-04-25T18:39:25Z</time></trkpt><trkpt lat="59.0745806694" lon="30.0131678581"><time>2026-04-25T18:39:27Z</time></trkpt><trkpt lat="59.0745806694" lon="30.0131034851"><time>2026-04-25T18:39:30Z</time></trkpt><trkpt lat="59.0745806694" lon="30.0131034851"><time>2026-04-25T18:39:32Z</time></trkpt><trkpt lat="59.0745806694" lon="30.0130605698"><time>2026-04-25T18:39:35Z</time></trkpt><trkpt lat="59.0745806694" lon="30.0130391121"><time>2026-04-25T18:39:37Z</time></trkpt><trkpt lat="59.0745592117" lon="30.0130176544"><time>2026-04-25T18:39:40Z</time></trkpt><trkpt lat="59.0745592117" lon="30.0129747391"><time>2026-04-25T18:39:42Z</time></trkpt><trkpt lat="59.0745806694" lon="30.0129532814"><time>2026-04-25T18:39:45Z</time></trkpt><trkpt lat="59.0745592117" lon="30.0129318237"><time>2026-04-25T18:39:47Z</time></trkpt><trkpt lat="59.0745592117" lon="30.0128889084"><time>2026-04-25T18:39:50Z</time></trkpt><trkpt lat="59.0745592117" lon="30.0128674507"><time>2026-04-25T18:39:52Z</time></trkpt><trkpt lat="59.0745377541" lon="30.0128245354"><time>2026-04-25T18:39:55Z</time></trkpt><trkpt lat="59.0745377541" lon="30.0128030777"><time>2026-04-25T18:39:57Z</time></trkpt><trkpt lat="59.0745377541" lon="30.0127601624"><time>2026-04-25T18:40:00Z</time></trkpt><trkpt lat="59.0745377541" lon="30.0127387047"><time>2026-04-25T18:40:02Z</time></trkpt><trkpt lat="59.0745377541" lon="30.0127172470"><time>2026-04-25T18:40:05Z</time></trkpt><trkpt lat="59.0745377541" lon="30.0127172470"><time>2026-04-25T18:40:07Z</time></trkpt><trkpt lat="59.0745162964" lon="30.0126957893"><time>2026-04-25T18:40:10Z</time></trkpt><trkpt lat="59.0745162964" lon="30.0126743317"><time>2026-04-25T18:40:12Z</time></trkpt><trkpt lat="59.0744948387" lon="30.0126528740"><time>2026-04-25T18:40:15Z</time></trkpt><trkpt lat="59.0744948387" lon="30.0126099586"><time>2026-04-25T18:40:17Z</time></trkpt><trkpt lat="59.0744733810" lon="30.0125670433"><time>2026-04-25T18:40:20Z</time></trkpt><trkpt lat="59.0744733810" lon="30.0125455856"><time>2026-04-25T18:40:22Z</time></trkpt><trkpt lat="59.0744519234" lon="30.0125026703"><time>2026-04-25T18:40:25Z</time></trkpt><trkpt lat="59.0744519234" lon="30.0124812126"><time>2026-04-25T18:40:27Z</time></trkpt><trkpt lat="59.0744519234" lon="30.0124597549"><time>2026-04-25T18:40:30Z</time></trkpt><trkpt lat="59.0744519234" lon="30.0124382973"><time>2026-04-25T18:40:32Z</time></trkpt><trkpt lat="59.0744733810" lon="30.0124168396"><time>2026-04-25T18:40:35Z</time></trkpt><trkpt lat="59.0744733810" lon="30.0123739243"><time>2026-04-25T18:40:37Z</time></trkpt><trkpt lat="59.0744519234" lon="30.0123310089"><time>2026-04-25T18:40:40Z</time></trkpt><trkpt lat="59.0744519234" lon="30.0123095512"><time>2026-04-25T18:40:42Z</time></trkpt><trkpt lat="59.0744519234" lon="30.0122666359"><time>2026-04-25T18:40:45Z</time></trkpt><trkpt lat="59.0744519234" lon="30.0122451782"><time>2026-04-25T18:40:47Z</time></trkpt><trkpt lat="59.0744519234" lon="30.0122022629"><time>2026-04-25T18:40:50Z</time></trkpt><trkpt lat="59.0744519234" lon="30.0121808052"><time>2026-04-25T18:40:52Z</time></trkpt><trkpt lat="59.0744519234" lon="30.0121593475"><time>2026-04-25T18:40:55Z</time></trkpt><trkpt lat="59.0744519234" lon="30.0121593475"><time>2026-04-25T18:40:57Z</time></trkpt><trkpt lat="59.0744519234" lon="30.0121164322"><time>2026-04-25T18:41:00Z</time></trkpt><trkpt lat="59.0744519234" lon="30.0120735168"><time>2026-04-25T18:41:02Z</time></trkpt><trkpt lat="59.0744733810" lon="30.0120306015"><time>2026-04-25T18:41:05Z</time></trkpt><trkpt lat="59.0744733810" lon="30.0120091438"><time>2026-04-25T18:41:07Z</time></trkpt><trkpt lat="59.0744948387" lon="30.0119662285"><time>2026-04-25T18:41:10Z</time></trkpt><trkpt lat="59.0744948387" lon="30.0119447708"><time>2026-04-25T18:41:12Z</time></trkpt><trkpt lat="59.0745162964" lon="30.0119018555"><time>2026-04-25T18:41:15Z</time></trkpt><trkpt lat="59.0745162964" lon="30.0118803978"><time>2026-04-25T18:41:17Z</time></trkpt><trkpt lat="59.0745162964" lon="30.0118374825"><time>2026-04-25T18:41:20Z</time></trkpt><trkpt lat="59.0745162964" lon="30.0117945671"><time>2026-04-25T18:41:22Z</time></trkpt><trkpt lat="59.0745162964" lon="30.0117516518"><time>2026-04-25T18:41:25Z</time></trkpt><trkpt lat="59.0745162964" lon="30.0117087364"><time>2026-04-25T18:41:27Z</time></trkpt><trkpt lat="59.0745377541" lon="30.0116658211"><time>2026-04-25T18:41:30Z</time></trkpt><trkpt lat="59.0745377541" lon="30.0116443634"><time>2026-04-25T18:41:32Z</time></trkpt><trkpt lat="59.0745377541" lon="30.0116014481"><time>2026-04-25T18:41:35Z</time></trkpt><trkpt lat="59.0745592117" lon="30.0115799904"><time>2026-04-25T18:41:37Z</time></trkpt><trkpt lat="59.0745592117" lon="30.0115370750"><time>2026-04-25T18:41:40Z</time></trkpt><trkpt lat="59.0745592117" lon="30.0115156174"><time>2026-04-25T18:41:42Z</time></trkpt><trkpt lat="59.0745592117" lon="30.0114941597"><time>2026-04-25T18:41:45Z</time></trkpt><trkpt lat="59.0745592117" lon="30.0114512444"><time>2026-04-25T18:41:47Z</time></trkpt><trkpt lat="59.0745377541" lon="30.0114297867"><time>2026-04-25T18:41:50Z</time></trkpt><trkpt lat="59.0745162964" lon="30.0114083290"><time>2026-04-25T18:41:52Z</time></trkpt><trkpt lat="59.0745162964" lon="30.0113868713"><time>2026-04-25T18:41:55Z</time></trkpt><trkpt lat="59.0745162964" lon="30.0113654137"><time>2026-04-25T18:41:57Z</time></trkpt><trkpt lat="59.0744948387" lon="30.0113224983"><time>2026-04-25T18:42:00Z</time></trkpt><trkpt lat="59.0744948387" lon="30.0112795830"><time>2026-04-25T18:42:02Z</time></trkpt><trkpt lat="59.0744948387" lon="30.0112581253"><time>2026-04-25T18:42:05Z</time></trkpt><trkpt lat="59.0744733810" lon="30.0112366676"><time>2026-04-25T18:42:07Z</time></trkpt><trkpt lat="59.0744733810" lon="30.0111937523"><time>2026-04-25T18:42:10Z</time></trkpt><trkpt lat="59.0744733810" lon="30.0111722946"><time>2026-04-25T18:42:12Z</time></trkpt><trkpt lat="59.0744519234" lon="30.0111293793"><time>2026-04-25T18:42:15Z</time></trkpt><trkpt lat="59.0744519234" lon="30.0111079216"><time>2026-04-25T18:42:17Z</time></trkpt><trkpt lat="59.0744519234" lon="30.0110650063"><time>2026-04-25T18:42:20Z</time></trkpt><trkpt lat="59.0744519234" lon="30.0110435486"><time>2026-04-25T18:42:22Z</time></trkpt><trkpt lat="59.0744304657" lon="30.0110006332"><time>2026-04-25T18:42:25Z</time></trkpt><trkpt lat="59.0744090080" lon="30.0109791756"><time>2026-04-25T18:42:27Z</time></trkpt><trkpt lat="59.0744090080" lon="30.0109577179"><time>2026-04-25T18:42:30Z</time></trkpt><trkpt lat="59.0744090080" lon="30.0109577179"><time>2026-04-25T18:42:32Z</time></trkpt><trkpt lat="59.0744090080" lon="30.0109362602"><time>2026-04-25T18:42:35Z</time></trkpt><trkpt lat="59.0744090080" lon="30.0109362602"><time>2026-04-25T18:42:37Z</time></trkpt><trkpt lat="59.0744090080" lon="30.0109362602"><time>2026-04-25T18:42:40Z</time></trkpt><trkpt lat="59.0744090080" lon="30.0109362602"><time>2026-04-25T18:42:42Z</time></trkpt><trkpt lat="59.0743875504" lon="30.0109362602"><time>2026-04-25T18:42:45Z</time></trkpt><trkpt lat="59.0743875504" lon="30.0109362602"><time>2026-04-25T18:42:47Z</time></trkpt><trkpt lat="59.0743660927" lon="30.0109148026"><time>2026-04-25T18:42:50Z</time></trkpt><trkpt lat="59.0743660927" lon="30.0109148026"><time>2026-04-25T18:42:52Z</time></trkpt><trkpt lat="59.0743660927" lon="30.0109148026"><time>2026-04-25T18:42:55Z</time></trkpt><trkpt lat="59.0743875504" lon="30.0108933449"><time>2026-04-25T18:42:57Z</time></trkpt><trkpt lat="59.0744090080" lon="30.0109148026"><time>2026-04-25T18:43:00Z</time></trkpt><trkpt lat="59.0744304657" lon="30.0109148026"><time>2026-04-25T18:43:02Z</time></trkpt><trkpt lat="59.0744304657" lon="30.0109148026"><time>2026-04-25T18:43:05Z</time></trkpt><trkpt lat="59.0744304657" lon="30.0109148026"><time>2026-04-25T18:43:07Z</time></trkpt><trkpt lat="59.0744304657" lon="30.0109148026"><time>2026-04-25T18:43:10Z</time></trkpt><trkpt lat="59.0744304657" lon="30.0109148026"><time>2026-04-25T18:43:12Z</time></trkpt><trkpt lat="59.0744090080" lon="30.0109148026"><time>2026-04-25T18:43:15Z</time></trkpt><trkpt lat="59.0744090080" lon="30.0109148026"><time>2026-04-25T18:43:17Z</time></trkpt><trkpt lat="59.0744090080" lon="30.0109148026"><time>2026-04-25T18:43:20Z</time></trkpt><trkpt lat="59.0744090080" lon="30.0109148026"><time>2026-04-25T18:43:22Z</time></trkpt><trkpt lat="59.0744090080" lon="30.0109148026"><time>2026-04-25T18:43:25Z</time></trkpt><trkpt lat="59.0744090080" lon="30.0109148026"><time>2026-04-25T18:43:27Z</time></trkpt><trkpt lat="59.0744090080" lon="30.0109148026"><time>2026-04-25T18:43:30Z</time></trkpt><trkpt lat="59.0744090080" lon="30.0109148026"><time>2026-04-25T18:43:32Z</time></trkpt><trkpt lat="59.0744090080" lon="30.0109148026"><time>2026-04-25T18:43:35Z</time></trkpt><trkpt lat="59.0744090080" lon="30.0109148026"><time>2026-04-25T18:43:37Z</time></trkpt><trkpt lat="59.0744090080" lon="30.0109148026"><time>2026-04-25T18:43:40Z</time></trkpt><trkpt lat="59.0744090080" lon="30.0109148026"><time>2026-04-25T18:43:42Z</time></trkpt><trkpt lat="59.0744090080" lon="30.0109148026"><time>2026-04-25T18:43:45Z</time></trkpt><trkpt lat="59.0744090080" lon="30.0109148026"><time>2026-04-25T18:43:47Z</time></trkpt><trkpt lat="59.0744090080" lon="30.0109148026"><time>2026-04-25T18:43:50Z</time></trkpt><trkpt lat="59.0744090080" lon="30.0109148026"><time>2026-04-25T18:43:52Z</time></trkpt><trkpt lat="59.0744090080" lon="30.0109148026"><time>2026-04-25T18:43:55Z</time></trkpt><trkpt lat="59.0743875504" lon="30.0109148026"><time>2026-04-25T18:43:57Z</time></trkpt><trkpt lat="59.0743875504" lon="30.0109148026"><time>2026-04-25T18:44:00Z</time></trkpt><trkpt lat="59.0743875504" lon="30.0109148026"><time>2026-04-25T18:44:02Z</time></trkpt><trkpt lat="59.0743875504" lon="30.0109148026"><time>2026-04-25T18:44:05Z</time></trkpt><trkpt lat="59.0743875504" lon="30.0109148026"><time>2026-04-25T18:44:07Z</time></trkpt><trkpt lat="59.0743875504" lon="30.0109148026"><time>2026-04-25T18:44:10Z</time></trkpt><trkpt lat="59.0743875504" lon="30.0109148026"><time>2026-04-25T18:44:12Z</time></trkpt><trkpt lat="59.0743875504" lon="30.0109148026"><time>2026-04-25T18:44:15Z</time></trkpt><trkpt lat="59.0743875504" lon="30.0109148026"><time>2026-04-25T18:44:17Z</time></trkpt><trkpt lat="59.0743875504" lon="30.0109148026"><time>2026-04-25T18:44:20Z</time></trkpt><trkpt lat="59.0743875504" lon="30.0109148026"><time>2026-04-25T18:44:22Z</time></trkpt><trkpt lat="59.0743875504" lon="30.0109148026"><time>2026-04-25T18:44:25Z</time></trkpt><trkpt lat="59.0743875504" lon="30.0109148026"><time>2026-04-25T18:44:27Z</time></trkpt><trkpt lat="59.0743875504" lon="30.0109148026"><time>2026-04-25T18:44:30Z</time></trkpt><trkpt lat="59.0743875504" lon="30.0109148026"><time>2026-04-25T18:44:32Z</time></trkpt><trkpt lat="59.0743875504" lon="30.0109148026"><time>2026-04-25T18:44:35Z</time></trkpt><trkpt lat="59.0743875504" lon="30.0109148026"><time>2026-04-25T18:44:37Z</time></trkpt><trkpt lat="59.0743875504" lon="30.0109148026"><time>2026-04-25T18:44:40Z</time></trkpt><trkpt lat="59.0743875504" lon="30.0109148026"><time>2026-04-25T18:44:42Z</time></trkpt><trkpt lat="59.0743875504" lon="30.0109148026"><time>2026-04-25T18:44:45Z</time></trkpt><trkpt lat="59.0743875504" lon="30.0109148026"><time>2026-04-25T18:44:47Z</time></trkpt><trkpt lat="59.0743875504" lon="30.0109148026"><time>2026-04-25T18:44:50Z</time></trkpt><trkpt lat="59.0743875504" lon="30.0109148026"><time>2026-04-25T18:44:52Z</time></trkpt><trkpt lat="59.0743875504" lon="30.0109148026"><time>2026-04-25T18:44:55Z</time></trkpt><trkpt lat="59.0743875504" lon="30.0109148026"><time>2026-04-25T18:44:57Z</time></trkpt><trkpt lat="59.0743875504" lon="30.0109148026"><time>2026-04-25T18:45:00Z</time></trkpt><trkpt lat="59.0743875504" lon="30.0109148026"><time>2026-04-25T18:45:02Z</time></trkpt><trkpt lat="59.0743875504" lon="30.0109148026"><time>2026-04-25T18:45:05Z</time></trkpt><trkpt lat="59.0743875504" lon="30.0109148026"><time>2026-04-25T18:45:07Z</time></trkpt><trkpt lat="59.0743875504" lon="30.0109148026"><time>2026-04-25T18:45:10Z</time></trkpt><trkpt lat="59.0743875504" lon="30.0109148026"><time>2026-04-25T18:45:12Z</time></trkpt><trkpt lat="59.0743875504" lon="30.0109148026"><time>2026-04-25T18:45:15Z</time></trkpt><trkpt lat="59.0743875504" lon="30.0109148026"><time>2026-04-25T18:45:17Z</time></trkpt><trkpt lat="59.0743875504" lon="30.0109148026"><time>2026-04-25T18:45:20Z</time></trkpt><trkpt lat="59.0743875504" lon="30.0109148026"><time>2026-04-25T18:45:22Z</time></trkpt><trkpt lat="59.0743875504" lon="30.0109148026"><time>2026-04-25T18:45:25Z</time></trkpt><trkpt lat="59.0743875504" lon="30.0109148026"><time>2026-04-25T18:45:27Z</time></trkpt><trkpt lat="59.0743875504" lon="30.0109148026"><time>2026-04-25T18:45:30Z</time></trkpt><trkpt lat="59.0743875504" lon="30.0109148026"><time>2026-04-25T18:45:32Z</time></trkpt><trkpt lat="59.0743875504" lon="30.0109148026"><time>2026-04-25T18:45:35Z</time></trkpt><trkpt lat="59.0743875504" lon="30.0109148026"><time>2026-04-25T18:45:37Z</time></trkpt><trkpt lat="59.0743875504" lon="30.0109148026"><time>2026-04-25T18:45:40Z</time></trkpt><trkpt lat="59.0743875504" lon="30.0109148026"><time>2026-04-25T18:45:42Z</time></trkpt><trkpt lat="59.0743875504" lon="30.0109148026"><time>2026-04-25T18:45:45Z</time></trkpt><trkpt lat="59.0743875504" lon="30.0109148026"><time>2026-04-25T18:45:47Z</time></trkpt><trkpt lat="59.0743875504" lon="30.0109148026"><time>2026-04-25T18:45:50Z</time></trkpt><trkpt lat="59.0743875504" lon="30.0109148026"><time>2026-04-25T18:45:52Z</time></trkpt><trkpt lat="59.0743875504" lon="30.0109148026"><time>2026-04-25T18:45:55Z</time></trkpt><trkpt lat="59.0743875504" lon="30.0109148026"><time>2026-04-25T18:45:57Z</time></trkpt><trkpt lat="59.0743875504" lon="30.0109148026"><time>2026-04-25T18:46:00Z</time></trkpt><trkpt lat="59.0743875504" lon="30.0109148026"><time>2026-04-25T18:46:02Z</time></trkpt><trkpt lat="59.0743875504" lon="30.0109148026"><time>2026-04-25T18:46:05Z</time></trkpt><trkpt lat="59.0743875504" lon="30.0109362602"><time>2026-04-25T18:46:07Z</time></trkpt><trkpt lat="59.0743875504" lon="30.0108933449"><time>2026-04-25T18:46:10Z</time></trkpt><trkpt lat="59.0743875504" lon="30.0108933449"><time>2026-04-25T18:46:12Z</time></trkpt><trkpt lat="59.0743875504" lon="30.0108933449"><time>2026-04-25T18:46:15Z</time></trkpt><trkpt lat="59.0743875504" lon="30.0108933449"><time>2026-04-25T18:46:17Z</time></trkpt><trkpt lat="59.0743875504" lon="30.0108933449"><time>2026-04-25T18:46:20Z</time></trkpt><trkpt lat="59.0743875504" lon="30.0108933449"><time>2026-04-25T18:46:22Z</time></trkpt><trkpt lat="59.0743875504" lon="30.0108933449"><time>2026-04-25T18:46:25Z</time></trkpt><trkpt lat="59.0743875504" lon="30.0108933449"><time>2026-04-25T18:46:27Z</time></trkpt><trkpt lat="59.0743875504" lon="30.0108933449"><time>2026-04-25T18:46:30Z</time></trkpt><trkpt lat="59.0743875504" lon="30.0108933449"><time>2026-04-25T18:46:32Z</time></trkpt><trkpt lat="59.0743875504" lon="30.0108933449"><time>2026-04-25T18:46:35Z</time></trkpt><trkpt lat="59.0743875504" lon="30.0109148026"><time>2026-04-25T18:46:37Z</time></trkpt><trkpt lat="59.0744090080" lon="30.0109362602"><time>2026-04-25T18:46:40Z</time></trkpt><trkpt lat="59.0743875504" lon="30.0109148026"><time>2026-04-25T18:46:42Z</time></trkpt><trkpt lat="59.0743660927" lon="30.0109148026"><time>2026-04-25T18:46:45Z</time></trkpt><trkpt lat="59.0743660927" lon="30.0109148026"><time>2026-04-25T18:46:47Z</time></trkpt><trkpt lat="59.0743660927" lon="30.0109148026"><time>2026-04-25T18:46:50Z</time></trkpt><trkpt lat="59.0743660927" lon="30.0109362602"><time>2026-04-25T18:46:52Z</time></trkpt><trkpt lat="59.0743446350" lon="30.0109577179"><time>2026-04-25T18:46:55Z</time></trkpt><trkpt lat="59.0743231773" lon="30.0109577179"><time>2026-04-25T18:46:57Z</time></trkpt><trkpt lat="59.0743017197" lon="30.0109791756"><time>2026-04-25T18:47:00Z</time></trkpt><trkpt lat="59.0742802620" lon="30.0109791756"><time>2026-04-25T18:47:02Z</time></trkpt><trkpt lat="59.0742802620" lon="30.0109577179"><time>2026-04-25T18:47:05Z</time></trkpt><trkpt lat="59.0742588043" lon="30.0109148026"><time>2026-04-25T18:47:07Z</time></trkpt><trkpt lat="59.0742588043" lon="30.0109148026"><time>2026-04-25T18:47:10Z</time></trkpt><trkpt lat="59.0742588043" lon="30.0109148026"><time>2026-04-25T18:47:12Z</time></trkpt><trkpt lat="59.0742373466" lon="30.0109148026"><time>2026-04-25T18:47:15Z</time></trkpt><trkpt lat="59.0742158890" lon="30.0109362602"><time>2026-04-25T18:47:17Z</time></trkpt><trkpt lat="59.0741944313" lon="30.0109577179"><time>2026-04-25T18:47:20Z</time></trkpt><trkpt lat="59.0741944313" lon="30.0109791756"><time>2026-04-25T18:47:22Z</time></trkpt><trkpt lat="59.0741515160" lon="30.0109791756"><time>2026-04-25T18:47:25Z</time></trkpt><trkpt lat="59.0741515160" lon="30.0109791756"><time>2026-04-25T18:47:27Z</time></trkpt><trkpt lat="59.0741300583" lon="30.0110006332"><time>2026-04-25T18:47:30Z</time></trkpt><trkpt lat="59.0741086006" lon="30.0110220909"><time>2026-04-25T18:47:32Z</time></trkpt><trkpt lat="59.0740871429" lon="30.0110220909"><time>2026-04-25T18:47:35Z</time></trkpt><trkpt lat="59.0740656853" lon="30.0110220909"><time>2026-04-25T18:47:37Z</time></trkpt><trkpt lat="59.0740656853" lon="30.0110435486"><time>2026-04-25T18:47:40Z</time></trkpt><trkpt lat="59.0740442276" lon="30.0110650063"><time>2026-04-25T18:47:42Z</time></trkpt><trkpt lat="59.0740227699" lon="30.0110650063"><time>2026-04-25T18:47:45Z</time></trkpt><trkpt lat="59.0740013123" lon="30.0110864639"><time>2026-04-25T18:47:47Z</time></trkpt><trkpt lat="59.0739798546" lon="30.0111079216"><time>2026-04-25T18:47:50Z</time></trkpt><trkpt lat="59.0739798546" lon="30.0111079216"><time>2026-04-25T18:47:52Z</time></trkpt><trkpt lat="59.0739583969" lon="30.0111293793"><time>2026-04-25T18:47:55Z</time></trkpt><trkpt lat="59.0739369392" lon="30.0111293793"><time>2026-04-25T18:47:57Z</time></trkpt><trkpt lat="59.0739154816" lon="30.0111293793"><time>2026-04-25T18:48:00Z</time></trkpt><trkpt lat="59.0738940239" lon="30.0111508369"><time>2026-04-25T18:48:02Z</time></trkpt><trkpt lat="59.0738725662" lon="30.0111722946"><time>2026-04-25T18:48:05Z</time></trkpt><trkpt lat="59.0738511086" lon="30.0111722946"><time>2026-04-25T18:48:07Z</time></trkpt><trkpt lat="59.0738296509" lon="30.0111722946"><time>2026-04-25T18:48:10Z</time></trkpt><trkpt lat="59.0738296509" lon="30.0111722946"><time>2026-04-25T18:48:12Z</time></trkpt><trkpt lat="59.0738081932" lon="30.0111722946"><time>2026-04-25T18:48:15Z</time></trkpt><trkpt lat="59.0737867355" lon="30.0111937523"><time>2026-04-25T18:48:17Z</time></trkpt><trkpt lat="59.0737652779" lon="30.0111937523"><time>2026-04-25T18:48:20Z</time></trkpt><trkpt lat="59.0737652779" lon="30.0112152100"><time>2026-04-25T18:48:22Z</time></trkpt><trkpt lat="59.0737867355" lon="30.0112152100"><time>2026-04-25T18:48:25Z</time></trkpt><trkpt lat="59.0737867355" lon="30.0112366676"><time>2026-04-25T18:48:27Z</time></trkpt><trkpt lat="59.0738081932" lon="30.0112795830"><time>2026-04-25T18:48:30Z</time></trkpt><trkpt lat="59.0738081932" lon="30.0113224983"><time>2026-04-25T18:48:32Z</time></trkpt><trkpt lat="59.0738081932" lon="30.0113868713"><time>2026-04-25T18:48:35Z</time></trkpt><trkpt lat="59.0738081932" lon="30.0114083290"><time>2026-04-25T18:48:37Z</time></trkpt><trkpt lat="59.0738081932" lon="30.0114512444"><time>2026-04-25T18:48:40Z</time></trkpt><trkpt lat="59.0738081932" lon="30.0114941597"><time>2026-04-25T18:48:42Z</time></trkpt><trkpt lat="59.0738081932" lon="30.0115370750"><time>2026-04-25T18:48:45Z</time></trkpt><trkpt lat="59.0738081932" lon="30.0115585327"><time>2026-04-25T18:48:47Z</time></trkpt><trkpt lat="59.0738296509" lon="30.0115799904"><time>2026-04-25T18:48:50Z</time></trkpt><trkpt lat="59.0738296509" lon="30.0115799904"><time>2026-04-25T18:48:52Z</time></trkpt><trkpt lat="59.0738296509" lon="30.0115799904"><time>2026-04-25T18:48:55Z</time></trkpt><trkpt lat="59.0738296509" lon="30.0116014481"><time>2026-04-25T18:48:57Z</time></trkpt><trkpt lat="59.0738296509" lon="30.0116658211"><time>2026-04-25T18:49:00Z</time></trkpt><trkpt lat="59.0738296509" lon="30.0116872787"><time>2026-04-25T18:49:02Z</time></trkpt><trkpt lat="59.0738511086" lon="30.0117087364"><time>2026-04-25T18:49:05Z</time></trkpt><trkpt lat="59.0738511086" lon="30.0117516518"><time>2026-04-25T18:49:07Z</time></trkpt><trkpt lat="59.0738511086" lon="30.0117945671"><time>2026-04-25T18:49:10Z</time></trkpt><trkpt lat="59.0738725662" lon="30.0118160248"><time>2026-04-25T18:49:12Z</time></trkpt><trkpt lat="59.0738940239" lon="30.0118374825"><time>2026-04-25T18:49:15Z</time></trkpt><trkpt lat="59.0738940239" lon="30.0118803978"><time>2026-04-25T18:49:17Z</time></trkpt><trkpt lat="59.0738940239" lon="30.0119233131"><time>2026-04-25T18:49:20Z</time></trkpt><trkpt lat="59.0738940239" lon="30.0119662285"><time>2026-04-25T18:49:22Z</time></trkpt><trkpt lat="59.0738940239" lon="30.0120091438"><time>2026-04-25T18:49:25Z</time></trkpt><trkpt lat="59.0739154816" lon="30.0120306015"><time>2026-04-25T18:49:27Z</time></trkpt><trkpt lat="59.0739154816" lon="30.0120949745"><time>2026-04-25T18:49:30Z</time></trkpt><trkpt lat="59.0739154816" lon="30.0121378899"><time>2026-04-25T18:49:32Z</time></trkpt><trkpt lat="59.0738940239" lon="30.0121808052"><time>2026-04-25T18:49:35Z</time></trkpt><trkpt lat="59.0738940239" lon="30.0122022629"><time>2026-04-25T18:49:37Z</time></trkpt><trkpt lat="59.0738940239" lon="30.0122451782"><time>2026-04-25T18:49:40Z</time></trkpt><trkpt lat="59.0739154816" lon="30.0122666359"><time>2026-04-25T18:49:42Z</time></trkpt><trkpt lat="59.0739154816" lon="30.0123095512"><time>2026-04-25T18:49:45Z</time></trkpt><trkpt lat="59.0739369392" lon="30.0123095512"><time>2026-04-25T18:49:47Z</time></trkpt><trkpt lat="59.0739583969" lon="30.0123310089"><time>2026-04-25T18:49:50Z</time></trkpt><trkpt lat="59.0739583969" lon="30.0123739243"><time>2026-04-25T18:49:52Z</time></trkpt><trkpt lat="59.0739583969" lon="30.0124168396"><time>2026-04-25T18:49:55Z</time></trkpt><trkpt lat="59.0739583969" lon="30.0124382973"><time>2026-04-25T18:49:57Z</time></trkpt><trkpt lat="59.0739583969" lon="30.0124812126"><time>2026-04-25T18:50:00Z</time></trkpt><trkpt lat="59.0739583969" lon="30.0125241280"><time>2026-04-25T18:50:02Z</time></trkpt><trkpt lat="59.0739583969" lon="30.0125455856"><time>2026-04-25T18:50:05Z</time></trkpt><trkpt lat="59.0739583969" lon="30.0125670433"><time>2026-04-25T18:50:07Z</time></trkpt><trkpt lat="59.0739798546" lon="30.0125885010"><time>2026-04-25T18:50:10Z</time></trkpt><trkpt lat="59.0739798546" lon="30.0126314163"><time>2026-04-25T18:50:12Z</time></trkpt><trkpt lat="59.0739583969" lon="30.0126743317"><time>2026-04-25T18:50:15Z</time></trkpt><trkpt lat="59.0739798546" lon="30.0126957893"><time>2026-04-25T18:50:17Z</time></trkpt><trkpt lat="59.0739798546" lon="30.0127387047"><time>2026-04-25T18:50:20Z</time></trkpt><trkpt lat="59.0740013123" lon="30.0127601624"><time>2026-04-25T18:50:22Z</time></trkpt><trkpt lat="59.0740013123" lon="30.0128245354"><time>2026-04-25T18:50:25Z</time></trkpt><trkpt lat="59.0740013123" lon="30.0128459930"><time>2026-04-25T18:50:27Z</time></trkpt><trkpt lat="59.0740227699" lon="30.0128889084"><time>2026-04-25T18:50:30Z</time></trkpt><trkpt lat="59.0740227699" lon="30.0129318237"><time>2026-04-25T18:50:32Z</time></trkpt><trkpt lat="59.0740227699" lon="30.0129747391"><time>2026-04-25T18:50:35Z</time></trkpt><trkpt lat="59.0740013123" lon="30.0129961967"><time>2026-04-25T18:50:37Z</time></trkpt><trkpt lat="59.0740013123" lon="30.0130391121"><time>2026-04-25T18:50:40Z</time></trkpt><trkpt lat="59.0740227699" lon="30.0130605698"><time>2026-04-25T18:50:42Z</time></trkpt><trkpt lat="59.0740227699" lon="30.0131034851"><time>2026-04-25T18:50:45Z</time></trkpt><trkpt lat="59.0740227699" lon="30.0131464005"><time>2026-04-25T18:50:47Z</time></trkpt><trkpt lat="59.0740227699" lon="30.0131464005"><time>2026-04-25T18:50:50Z</time></trkpt><trkpt lat="59.0740227699" lon="30.0131893158"><time>2026-04-25T18:50:52Z</time></trkpt><trkpt lat="59.0740442276" lon="30.0132322311"><time>2026-04-25T18:50:55Z</time></trkpt><trkpt lat="59.0740656853" lon="30.0132751465"><time>2026-04-25T18:50:57Z</time></trkpt><trkpt lat="59.0740656853" lon="30.0133180618"><time>2026-04-25T18:51:00Z</time></trkpt><trkpt lat="59.0740656853" lon="30.0133395195"><time>2026-04-25T18:51:02Z</time></trkpt><trkpt lat="59.0740871429" lon="30.0134038925"><time>2026-04-25T18:51:05Z</time></trkpt><trkpt lat="59.0740656853" lon="30.0134468079"><time>2026-04-25T18:51:07Z</time></trkpt><trkpt lat="59.0740871429" lon="30.0134897232"><time>2026-04-25T18:51:10Z</time></trkpt><trkpt lat="59.0740656853" lon="30.0135111809"><time>2026-04-25T18:51:12Z</time></trkpt><trkpt lat="59.0740656853" lon="30.0135540962"><time>2026-04-25T18:51:15Z</time></trkpt><trkpt lat="59.0740656853" lon="30.0135755539"><time>2026-04-25T18:51:17Z</time></trkpt><trkpt lat="59.0740656853" lon="30.0136184692"><time>2026-04-25T18:51:20Z</time></trkpt><trkpt lat="59.0740656853" lon="30.0136613846"><time>2026-04-25T18:51:22Z</time></trkpt><trkpt lat="59.0740656853" lon="30.0137042999"><time>2026-04-25T18:51:25Z</time></trkpt><trkpt lat="59.0740871429" lon="30.0137257576"><time>2026-04-25T18:51:27Z</time></trkpt><trkpt lat="59.0740871429" lon="30.0137686729"><time>2026-04-25T18:51:30Z</time></trkpt><trkpt lat="59.0740871429" lon="30.0137686729"><time>2026-04-25T18:51:32Z</time></trkpt><trkpt lat="59.0740871429" lon="30.0137901306"><time>2026-04-25T18:51:35Z</time></trkpt><trkpt lat="59.0740871429" lon="30.0138330460"><time>2026-04-25T18:51:37Z</time></trkpt><trkpt lat="59.0740871429" lon="30.0138759613"><time>2026-04-25T18:51:40Z</time></trkpt><trkpt lat="59.0740871429" lon="30.0139188766"><time>2026-04-25T18:51:42Z</time></trkpt><trkpt lat="59.0741086006" lon="30.0139403343"><time>2026-04-25T18:51:45Z</time></trkpt><trkpt lat="59.0741086006" lon="30.0139617920"><time>2026-04-25T18:51:47Z</time></trkpt><trkpt lat="59.0741086006" lon="30.0140047073"><time>2026-04-25T18:51:50Z</time></trkpt><trkpt lat="59.0741086006" lon="30.0140261650"><time>2026-04-25T18:51:52Z</time></trkpt><trkpt lat="59.0741300583" lon="30.0140905380"><time>2026-04-25T18:51:55Z</time></trkpt><trkpt lat="59.0741300583" lon="30.0141119957"><time>2026-04-25T18:51:57Z</time></trkpt><trkpt lat="59.0741300583" lon="30.0141763687"><time>2026-04-25T18:52:00Z</time></trkpt><trkpt lat="59.0741300583" lon="30.0141978264"><time>2026-04-25T18:52:02Z</time></trkpt><trkpt lat="59.0741515160" lon="30.0142621994"><time>2026-04-25T18:52:05Z</time></trkpt><trkpt lat="59.0741515160" lon="30.0142836571"><time>2026-04-25T18:52:07Z</time></trkpt><trkpt lat="59.0741515160" lon="30.0142836571"><time>2026-04-25T18:52:10Z</time></trkpt><trkpt lat="59.0741515160" lon="30.0143265724"><time>2026-04-25T18:52:12Z</time></trkpt><trkpt lat="59.0741515160" lon="30.0143909454"><time>2026-04-25T18:52:15Z</time></trkpt><trkpt lat="59.0741515160" lon="30.0144338608"><time>2026-04-25T18:52:17Z</time></trkpt><trkpt lat="59.0741515160" lon="30.0144767761"><time>2026-04-25T18:52:20Z</time></trkpt><trkpt lat="59.0741515160" lon="30.0145196915"><time>2026-04-25T18:52:22Z</time></trkpt><trkpt lat="59.0741300583" lon="30.0145840645"><time>2026-04-25T18:52:25Z</time></trkpt><trkpt lat="59.0741515160" lon="30.0146055222"><time>2026-04-25T18:52:27Z</time></trkpt><trkpt lat="59.0741729736" lon="30.0146269798"><time>2026-04-25T18:52:30Z</time></trkpt><trkpt lat="59.0741515160" lon="30.0146698952"><time>2026-04-25T18:52:32Z</time></trkpt><trkpt lat="59.0741729736" lon="30.0147128105"><time>2026-04-25T18:52:35Z</time></trkpt><trkpt lat="59.0741729736" lon="30.0147342682"><time>2026-04-25T18:52:37Z</time></trkpt><trkpt lat="59.0741729736" lon="30.0147771835"><time>2026-04-25T18:52:40Z</time></trkpt><trkpt lat="59.0741729736" lon="30.0147986412"><time>2026-04-25T18:52:42Z</time></trkpt><trkpt lat="59.0741729736" lon="30.0148415565"><time>2026-04-25T18:52:45Z</time></trkpt><trkpt lat="59.0741944313" lon="30.0148844719"><time>2026-04-25T18:52:47Z</time></trkpt><trkpt lat="59.0741944313" lon="30.0149273872"><time>2026-04-25T18:52:50Z</time></trkpt><trkpt lat="59.0741944313" lon="30.0149488449"><time>2026-04-25T18:52:52Z</time></trkpt><trkpt lat="59.0742158890" lon="30.0150132179"><time>2026-04-25T18:52:55Z</time></trkpt><trkpt lat="59.0742158890" lon="30.0150346756"><time>2026-04-25T18:52:57Z</time></trkpt><trkpt lat="59.0742158890" lon="30.0150775909"><time>2026-04-25T18:53:00Z</time></trkpt><trkpt lat="59.0742158890" lon="30.0150990486"><time>2026-04-25T18:53:02Z</time></trkpt><trkpt lat="59.0742373466" lon="30.0151419640"><time>2026-04-25T18:53:05Z</time></trkpt><trkpt lat="59.0742373466" lon="30.0151634216"><time>2026-04-25T18:53:07Z</time></trkpt><trkpt lat="59.0742373466" lon="30.0151634216"><time>2026-04-25T18:53:10Z</time></trkpt><trkpt lat="59.0742373466" lon="30.0151634216"><time>2026-04-25T18:53:12Z</time></trkpt><trkpt lat="59.0742373466" lon="30.0151634216"><time>2026-04-25T18:53:15Z</time></trkpt><trkpt lat="59.0742373466" lon="30.0151634216"><time>2026-04-25T18:53:17Z</time></trkpt><trkpt lat="59.0742373466" lon="30.0151634216"><time>2026-04-25T18:53:20Z</time></trkpt><trkpt lat="59.0742373466" lon="30.0151634216"><time>2026-04-25T18:53:22Z</time></trkpt><trkpt lat="59.0742373466" lon="30.0151848793"><time>2026-04-25T18:53:25Z</time></trkpt><trkpt lat="59.0742373466" lon="30.0151848793"><time>2026-04-25T18:53:27Z</time></trkpt><trkpt lat="59.0742373466" lon="30.0151848793"><time>2026-04-25T18:53:30Z</time></trkpt><trkpt lat="59.0742373466" lon="30.0151848793"><time>2026-04-25T18:53:32Z</time></trkpt><trkpt lat="59.0742373466" lon="30.0151848793"><time>2026-04-25T18:53:35Z</time></trkpt><trkpt lat="59.0742373466" lon="30.0151848793"><time>2026-04-25T18:53:37Z</time></trkpt><trkpt lat="59.0742373466" lon="30.0151848793"><time>2026-04-25T18:53:40Z</time></trkpt><trkpt lat="59.0742373466" lon="30.0151848793"><time>2026-04-25T18:53:42Z</time></trkpt><trkpt lat="59.0742373466" lon="30.0151848793"><time>2026-04-25T18:53:45Z</time></trkpt><trkpt lat="59.0742373466" lon="30.0151848793"><time>2026-04-25T18:53:47Z</time></trkpt><trkpt lat="59.0742373466" lon="30.0151848793"><time>2026-04-25T18:53:50Z</time></trkpt><trkpt lat="59.0742373466" lon="30.0151848793"><time>2026-04-25T18:53:52Z</time></trkpt><trkpt lat="59.0742373466" lon="30.0151848793"><time>2026-04-25T18:53:55Z</time></trkpt><trkpt lat="59.0742373466" lon="30.0151848793"><time>2026-04-25T18:53:57Z</time></trkpt><trkpt lat="59.0742373466" lon="30.0151848793"><time>2026-04-25T18:54:00Z</time></trkpt><trkpt lat="59.0742373466" lon="30.0151848793"><time>2026-04-25T18:54:02Z</time></trkpt><trkpt lat="59.0742373466" lon="30.0151848793"><time>2026-04-25T18:54:05Z</time></trkpt><trkpt lat="59.0742373466" lon="30.0151848793"><time>2026-04-25T18:54:07Z</time></trkpt><trkpt lat="59.0742373466" lon="30.0151848793"><time>2026-04-25T18:54:10Z</time></trkpt><trkpt lat="59.0742373466" lon="30.0151848793"><time>2026-04-25T18:54:12Z</time></trkpt><trkpt lat="59.0742373466" lon="30.0151848793"><time>2026-04-25T18:54:15Z</time></trkpt><trkpt lat="59.0742373466" lon="30.0151848793"><time>2026-04-25T18:54:17Z</time></trkpt><trkpt lat="59.0742158890" lon="30.0152063370"><time>2026-04-25T18:54:20Z</time></trkpt><trkpt lat="59.0741944313" lon="30.0152063370"><time>2026-04-25T18:54:22Z</time></trkpt><trkpt lat="59.0741729736" lon="30.0152492523"><time>2026-04-25T18:54:25Z</time></trkpt><trkpt lat="59.0741515160" lon="30.0152492523"><time>2026-04-25T18:54:27Z</time></trkpt><trkpt lat="59.0741300583" lon="30.0152707100"><time>2026-04-25T18:54:30Z</time></trkpt><trkpt lat="59.0741086006" lon="30.0152921677"><time>2026-04-25T18:54:32Z</time></trkpt><trkpt lat="59.0741086006" lon="30.0152707100"><time>2026-04-25T18:54:35Z</time></trkpt><trkpt lat="59.0740871429" lon="30.0152492523"><time>2026-04-25T18:54:37Z</time></trkpt><trkpt lat="59.0740656853" lon="30.0152277946"><time>2026-04-25T18:54:40Z</time></trkpt><trkpt lat="59.0740442276" lon="30.0152277946"><time>2026-04-25T18:54:42Z</time></trkpt><trkpt lat="59.0740656853" lon="30.0151848793"><time>2026-04-25T18:54:45Z</time></trkpt><trkpt lat="59.0740442276" lon="30.0151634216"><time>2026-04-25T18:54:47Z</time></trkpt><trkpt lat="59.0740442276" lon="30.0151634216"><time>2026-04-25T18:54:50Z</time></trkpt><trkpt lat="59.0740442276" lon="30.0151634216"><time>2026-04-25T18:54:52Z</time></trkpt><trkpt lat="59.0740442276" lon="30.0151634216"><time>2026-04-25T18:54:55Z</time></trkpt><trkpt lat="59.0740442276" lon="30.0151634216"><time>2026-04-25T18:54:57Z</time></trkpt><trkpt lat="59.0740442276" lon="30.0151848793"><time>2026-04-25T18:55:00Z</time></trkpt><trkpt lat="59.0740442276" lon="30.0152707100"><time>2026-04-25T18:55:02Z</time></trkpt><trkpt lat="59.0740227699" lon="30.0153565407"><time>2026-04-25T18:55:05Z</time></trkpt><trkpt lat="59.0740227699" lon="30.0153565407"><time>2026-04-25T18:55:07Z</time></trkpt><trkpt lat="59.0740227699" lon="30.0153136253"><time>2026-04-25T18:55:10Z</time></trkpt><trkpt lat="59.0740227699" lon="30.0152707100"><time>2026-04-25T18:55:12Z</time></trkpt><trkpt lat="59.0740227699" lon="30.0152492523"><time>2026-04-25T18:55:15Z</time></trkpt><trkpt lat="59.0740227699" lon="30.0152277946"><time>2026-04-25T18:55:17Z</time></trkpt><trkpt lat="59.0740227699" lon="30.0151848793"><time>2026-04-25T18:55:20Z</time></trkpt><trkpt lat="59.0740227699" lon="30.0151634216"><time>2026-04-25T18:55:22Z</time></trkpt><trkpt lat="59.0740227699" lon="30.0151634216"><time>2026-04-25T18:55:25Z</time></trkpt><trkpt lat="59.0740227699" lon="30.0151634216"><time>2026-04-25T18:55:27Z</time></trkpt><trkpt lat="59.0740227699" lon="30.0151634216"><time>2026-04-25T18:55:30Z</time></trkpt><trkpt lat="59.0740227699" lon="30.0152277946"><time>2026-04-25T18:55:32Z</time></trkpt><trkpt lat="59.0740227699" lon="30.0153350830"><time>2026-04-25T18:55:35Z</time></trkpt><trkpt lat="59.0740013123" lon="30.0153779984"><time>2026-04-25T18:55:37Z</time></trkpt><trkpt lat="59.0740013123" lon="30.0153994560"><time>2026-04-25T18:55:40Z</time></trkpt><trkpt lat="59.0739798546" lon="30.0154209137"><time>2026-04-25T18:55:42Z</time></trkpt><trkpt lat="59.0739583969" lon="30.0154638290"><time>2026-04-25T18:55:45Z</time></trkpt><trkpt lat="59.0739369392" lon="30.0154638290"><time>2026-04-25T18:55:47Z</time></trkpt><trkpt lat="59.0739369392" lon="30.0154638290"><time>2026-04-25T18:55:50Z</time></trkpt><trkpt lat="59.0739154816" lon="30.0154638290"><time>2026-04-25T18:55:52Z</time></trkpt><trkpt lat="59.0738940239" lon="30.0154638290"><time>2026-04-25T18:55:55Z</time></trkpt><trkpt lat="59.0738725662" lon="30.0154852867"><time>2026-04-25T18:55:57Z</time></trkpt><trkpt lat="59.0738511086" lon="30.0155067444"><time>2026-04-25T18:56:00Z</time></trkpt><trkpt lat="59.0738296509" lon="30.0155067444"><time>2026-04-25T18:56:02Z</time></trkpt><trkpt lat="59.0738081932" lon="30.0155496597"><time>2026-04-25T18:56:05Z</time></trkpt><trkpt lat="59.0737867355" lon="30.0155711174"><time>2026-04-25T18:56:07Z</time></trkpt><trkpt lat="59.0737652779" lon="30.0155925751"><time>2026-04-25T18:56:10Z</time></trkpt><trkpt lat="59.0737652779" lon="30.0155711174"><time>2026-04-25T18:56:12Z</time></trkpt><trkpt lat="59.0737223625" lon="30.0155711174"><time>2026-04-25T18:56:15Z</time></trkpt><trkpt lat="59.0737009048" lon="30.0155496597"><time>2026-04-25T18:56:17Z</time></trkpt><trkpt lat="59.0737009048" lon="30.0155496597"><time>2026-04-25T18:56:20Z</time></trkpt><trkpt lat="59.0737009048" lon="30.0155496597"><time>2026-04-25T18:56:22Z</time></trkpt><trkpt lat="59.0737009048" lon="30.0155496597"><time>2026-04-25T18:56:25Z</time></trkpt><trkpt lat="59.0737009048" lon="30.0155067444"><time>2026-04-25T18:56:27Z</time></trkpt><trkpt lat="59.0736794472" lon="30.0154209137"><time>2026-04-25T18:56:30Z</time></trkpt><trkpt lat="59.0736794472" lon="30.0153779984"><time>2026-04-25T18:56:32Z</time></trkpt><trkpt lat="59.0736794472" lon="30.0153136253"><time>2026-04-25T18:56:35Z</time></trkpt><trkpt lat="59.0736794472" lon="30.0152707100"><time>2026-04-25T18:56:37Z</time></trkpt><trkpt lat="59.0736794472" lon="30.0152277946"><time>2026-04-25T18:56:40Z</time></trkpt><trkpt lat="59.0736794472" lon="30.0151848793"><time>2026-04-25T18:56:42Z</time></trkpt><trkpt lat="59.0736579895" lon="30.0151205063"><time>2026-04-25T18:56:45Z</time></trkpt><trkpt lat="59.0736579895" lon="30.0150775909"><time>2026-04-25T18:56:47Z</time></trkpt><trkpt lat="59.0736579895" lon="30.0150346756"><time>2026-04-25T18:56:50Z</time></trkpt><trkpt lat="59.0736579895" lon="30.0150346756"><time>2026-04-25T18:56:52Z</time></trkpt><trkpt lat="59.0736579895" lon="30.0150346756"><time>2026-04-25T18:56:55Z</time></trkpt><trkpt lat="59.0736579895" lon="30.0150346756"><time>2026-04-25T18:56:57Z</time></trkpt><trkpt lat="59.0736579895" lon="30.0150346756"><time>2026-04-25T18:57:00Z</time></trkpt><trkpt lat="59.0736365318" lon="30.0149703026"><time>2026-04-25T18:57:02Z</time></trkpt><trkpt lat="59.0736365318" lon="30.0149059296"><time>2026-04-25T18:57:05Z</time></trkpt><trkpt lat="59.0736150742" lon="30.0148844719"><time>2026-04-25T18:57:07Z</time></trkpt><trkpt lat="59.0735936165" lon="30.0148415565"><time>2026-04-25T18:57:10Z</time></trkpt><trkpt lat="59.0735936165" lon="30.0148200989"><time>2026-04-25T18:57:12Z</time></trkpt><trkpt lat="59.0735721588" lon="30.0147557259"><time>2026-04-25T18:57:15Z</time></trkpt><trkpt lat="59.0735507011" lon="30.0147342682"><time>2026-04-25T18:57:17Z</time></trkpt><trkpt lat="59.0735507011" lon="30.0146913528"><time>2026-04-25T18:57:20Z</time></trkpt><trkpt lat="59.0735507011" lon="30.0146484375"><time>2026-04-25T18:57:22Z</time></trkpt><trkpt lat="59.0735292435" lon="30.0146055222"><time>2026-04-25T18:57:25Z</time></trkpt><trkpt lat="59.0735292435" lon="30.0145626068"><time>2026-04-25T18:57:27Z</time></trkpt><trkpt lat="59.0735292435" lon="30.0145196915"><time>2026-04-25T18:57:30Z</time></trkpt><trkpt lat="59.0735507011" lon="30.0144982338"><time>2026-04-25T18:57:32Z</time></trkpt><trkpt lat="59.0735507011" lon="30.0144338608"><time>2026-04-25T18:57:35Z</time></trkpt><trkpt lat="59.0735507011" lon="30.0143909454"><time>2026-04-25T18:57:37Z</time></trkpt><trkpt lat="59.0735507011" lon="30.0143909454"><time>2026-04-25T18:57:40Z</time></trkpt><trkpt lat="59.0735507011" lon="30.0143480301"><time>2026-04-25T18:57:42Z</time></trkpt><trkpt lat="59.0735507011" lon="30.0143051147"><time>2026-04-25T18:57:45Z</time></trkpt><trkpt lat="59.0735507011" lon="30.0142621994"><time>2026-04-25T18:57:47Z</time></trkpt><trkpt lat="59.0735507011" lon="30.0142407417"><time>2026-04-25T18:57:50Z</time></trkpt><trkpt lat="59.0735292435" lon="30.0141978264"><time>2026-04-25T18:57:52Z</time></trkpt><trkpt lat="59.0735507011" lon="30.0141549110"><time>2026-04-25T18:57:55Z</time></trkpt><trkpt lat="59.0735292435" lon="30.0141119957"><time>2026-04-25T18:57:57Z</time></trkpt><trkpt lat="59.0735077858" lon="30.0140690804"><time>2026-04-25T18:58:00Z</time></trkpt><trkpt lat="59.0735077858" lon="30.0140261650"><time>2026-04-25T18:58:02Z</time></trkpt><trkpt lat="59.0735077858" lon="30.0139832497"><time>2026-04-25T18:58:05Z</time></trkpt><trkpt lat="59.0734863281" lon="30.0139832497"><time>2026-04-25T18:58:07Z</time></trkpt><trkpt lat="59.0734863281" lon="30.0139832497"><time>2026-04-25T18:58:10Z</time></trkpt><trkpt lat="59.0734863281" lon="30.0139832497"><time>2026-04-25T18:58:12Z</time></trkpt><trkpt lat="59.0734863281" lon="30.0139832497"><time>2026-04-25T18:58:15Z</time></trkpt><trkpt lat="59.0734863281" lon="30.0139832497"><time>2026-04-25T18:58:17Z</time></trkpt><trkpt lat="59.0734863281" lon="30.0139832497"><time>2026-04-25T18:58:20Z</time></trkpt><trkpt lat="59.0734863281" lon="30.0139832497"><time>2026-04-25T18:58:22Z</time></trkpt><trkpt lat="59.0734863281" lon="30.0139832497"><time>2026-04-25T18:58:25Z</time></trkpt><trkpt lat="59.0734863281" lon="30.0139403343"><time>2026-04-25T18:58:27Z</time></trkpt><trkpt lat="59.0734648705" lon="30.0138974190"><time>2026-04-25T18:58:30Z</time></trkpt><trkpt lat="59.0734648705" lon="30.0138545036"><time>2026-04-25T18:58:32Z</time></trkpt><trkpt lat="59.0734863281" lon="30.0138115883"><time>2026-04-25T18:58:35Z</time></trkpt><trkpt lat="59.0734863281" lon="30.0137686729"><time>2026-04-25T18:58:37Z</time></trkpt><trkpt lat="59.0734863281" lon="30.0137257576"><time>2026-04-25T18:58:40Z</time></trkpt><trkpt lat="59.0734648705" lon="30.0137042999"><time>2026-04-25T18:58:42Z</time></trkpt><trkpt lat="59.0734863281" lon="30.0136613846"><time>2026-04-25T18:58:45Z</time></trkpt><trkpt lat="59.0734863281" lon="30.0136613846"><time>2026-04-25T18:58:47Z</time></trkpt><trkpt lat="59.0734863281" lon="30.0136399269"><time>2026-04-25T18:58:50Z</time></trkpt><trkpt lat="59.0734863281" lon="30.0136184692"><time>2026-04-25T18:58:52Z</time></trkpt><trkpt lat="59.0734863281" lon="30.0135755539"><time>2026-04-25T18:58:55Z</time></trkpt><trkpt lat="59.0734863281" lon="30.0135540962"><time>2026-04-25T18:58:57Z</time></trkpt><trkpt lat="59.0734648705" lon="30.0135111809"><time>2026-04-25T18:59:00Z</time></trkpt><trkpt lat="59.0734648705" lon="30.0134682655"><time>2026-04-25T18:59:02Z</time></trkpt><trkpt lat="59.0734434128" lon="30.0134253502"><time>2026-04-25T18:59:05Z</time></trkpt><trkpt lat="59.0734434128" lon="30.0133824348"><time>2026-04-25T18:59:07Z</time></trkpt><trkpt lat="59.0734434128" lon="30.0133395195"><time>2026-04-25T18:59:10Z</time></trkpt><trkpt lat="59.0734434128" lon="30.0133395195"><time>2026-04-25T18:59:12Z</time></trkpt><trkpt lat="59.0734434128" lon="30.0133180618"><time>2026-04-25T18:59:15Z</time></trkpt><trkpt lat="59.0734219551" lon="30.0132966042"><time>2026-04-25T18:59:17Z</time></trkpt><trkpt lat="59.0734219551" lon="30.0132536888"><time>2026-04-25T18:59:20Z</time></trkpt><trkpt lat="59.0734004974" lon="30.0132107735"><time>2026-04-25T18:59:22Z</time></trkpt><trkpt lat="59.0734004974" lon="30.0131678581"><time>2026-04-25T18:59:25Z</time></trkpt><trkpt lat="59.0734004974" lon="30.0131249428"><time>2026-04-25T18:59:27Z</time></trkpt><trkpt lat="59.0734004974" lon="30.0130820274"><time>2026-04-25T18:59:30Z</time></trkpt><trkpt lat="59.0734004974" lon="30.0130605698"><time>2026-04-25T18:59:32Z</time></trkpt><trkpt lat="59.0734004974" lon="30.0130391121"><time>2026-04-25T18:59:35Z</time></trkpt><trkpt lat="59.0734004974" lon="30.0130176544"><time>2026-04-25T18:59:37Z</time></trkpt><trkpt lat="59.0734004974" lon="30.0129961967"><time>2026-04-25T18:59:40Z</time></trkpt><trkpt lat="59.0733790398" lon="30.0129747391"><time>2026-04-25T18:59:42Z</time></trkpt><trkpt lat="59.0733790398" lon="30.0129318237"><time>2026-04-25T18:59:45Z</time></trkpt><trkpt lat="59.0733790398" lon="30.0129103661"><time>2026-04-25T18:59:47Z</time></trkpt><trkpt lat="59.0734004974" lon="30.0128459930"><time>2026-04-25T18:59:50Z</time></trkpt><trkpt lat="59.0734004974" lon="30.0128245354"><time>2026-04-25T18:59:52Z</time></trkpt><trkpt lat="59.0734004974" lon="30.0127601624"><time>2026-04-25T18:59:55Z</time></trkpt><trkpt lat="59.0733790398" lon="30.0127387047"><time>2026-04-25T18:59:57Z</time></trkpt><trkpt lat="59.0733790398" lon="30.0126957893"><time>2026-04-25T19:00:00Z</time></trkpt><trkpt lat="59.0733790398" lon="30.0126957893"><time>2026-04-25T19:00:02Z</time></trkpt><trkpt lat="59.0733790398" lon="30.0126743317"><time>2026-04-25T19:00:05Z</time></trkpt><trkpt lat="59.0733790398" lon="30.0126743317"><time>2026-04-25T19:00:07Z</time></trkpt><trkpt lat="59.0733790398" lon="30.0126743317"><time>2026-04-25T19:00:10Z</time></trkpt><trkpt lat="59.0733575821" lon="30.0126528740"><time>2026-04-25T19:00:12Z</time></trkpt><trkpt lat="59.0733361244" lon="30.0126099586"><time>2026-04-25T19:00:15Z</time></trkpt><trkpt lat="59.0733361244" lon="30.0125670433"><time>2026-04-25T19:00:17Z</time></trkpt><trkpt lat="59.0733361244" lon="30.0125026703"><time>2026-04-25T19:00:20Z</time></trkpt><trkpt lat="59.0733361244" lon="30.0124812126"><time>2026-04-25T19:00:22Z</time></trkpt><trkpt lat="59.0733361244" lon="30.0124382973"><time>2026-04-25T19:00:25Z</time></trkpt><trkpt lat="59.0733361244" lon="30.0124382973"><time>2026-04-25T19:00:27Z</time></trkpt><trkpt lat="59.0733361244" lon="30.0124382973"><time>2026-04-25T19:00:30Z</time></trkpt><trkpt lat="59.0733361244" lon="30.0124168396"><time>2026-04-25T19:00:32Z</time></trkpt><trkpt lat="59.0733361244" lon="30.0123953819"><time>2026-04-25T19:00:35Z</time></trkpt><trkpt lat="59.0733361244" lon="30.0123953819"><time>2026-04-25T19:00:37Z</time></trkpt><trkpt lat="59.0733361244" lon="30.0123953819"><time>2026-04-25T19:00:40Z</time></trkpt><trkpt lat="59.0733146667" lon="30.0123739243"><time>2026-04-25T19:00:42Z</time></trkpt><trkpt lat="59.0733146667" lon="30.0123310089"><time>2026-04-25T19:00:45Z</time></trkpt><trkpt lat="59.0733146667" lon="30.0123095512"><time>2026-04-25T19:00:47Z</time></trkpt><trkpt lat="59.0733146667" lon="30.0122666359"><time>2026-04-25T19:00:50Z</time></trkpt><trkpt lat="59.0733146667" lon="30.0122451782"><time>2026-04-25T19:00:52Z</time></trkpt><trkpt lat="59.0733146667" lon="30.0122022629"><time>2026-04-25T19:00:55Z</time></trkpt><trkpt lat="59.0733146667" lon="30.0121808052"><time>2026-04-25T19:00:57Z</time></trkpt><trkpt lat="59.0732932091" lon="30.0121164322"><time>2026-04-25T19:01:00Z</time></trkpt><trkpt lat="59.0732932091" lon="30.0120949745"><time>2026-04-25T19:01:02Z</time></trkpt><trkpt lat="59.0732932091" lon="30.0120520592"><time>2026-04-25T19:01:05Z</time></trkpt><trkpt lat="59.0732932091" lon="30.0120091438"><time>2026-04-25T19:01:07Z</time></trkpt><trkpt lat="59.0732932091" lon="30.0119662285"><time>2026-04-25T19:01:10Z</time></trkpt><trkpt lat="59.0732932091" lon="30.0119447708"><time>2026-04-25T19:01:12Z</time></trkpt><trkpt lat="59.0732932091" lon="30.0119018555"><time>2026-04-25T19:01:15Z</time></trkpt><trkpt lat="59.0732932091" lon="30.0118803978"><time>2026-04-25T19:01:17Z</time></trkpt><trkpt lat="59.0732717514" lon="30.0118374825"><time>2026-04-25T19:01:20Z</time></trkpt><trkpt lat="59.0732717514" lon="30.0118160248"><time>2026-04-25T19:01:22Z</time></trkpt><trkpt lat="59.0732717514" lon="30.0117516518"><time>2026-04-25T19:01:25Z</time></trkpt><trkpt lat="59.0732502937" lon="30.0117301941"><time>2026-04-25T19:01:27Z</time></trkpt><trkpt lat="59.0732502937" lon="30.0117087364"><time>2026-04-25T19:01:30Z</time></trkpt><trkpt lat="59.0732502937" lon="30.0116443634"><time>2026-04-25T19:01:32Z</time></trkpt><trkpt lat="59.0732502937" lon="30.0116014481"><time>2026-04-25T19:01:35Z</time></trkpt><trkpt lat="59.0732502937" lon="30.0115585327"><time>2026-04-25T19:01:37Z</time></trkpt><trkpt lat="59.0732288361" lon="30.0114941597"><time>2026-04-25T19:01:40Z</time></trkpt><trkpt lat="59.0732288361" lon="30.0114727020"><time>2026-04-25T19:01:42Z</time></trkpt><trkpt lat="59.0732288361" lon="30.0114297867"><time>2026-04-25T19:01:45Z</time></trkpt><trkpt lat="59.0732288361" lon="30.0114297867"><time>2026-04-25T19:01:47Z</time></trkpt><trkpt lat="59.0732288361" lon="30.0114297867"><time>2026-04-25T19:01:50Z</time></trkpt><trkpt lat="59.0732288361" lon="30.0114297867"><time>2026-04-25T19:01:52Z</time></trkpt><trkpt lat="59.0732288361" lon="30.0114297867"><time>2026-04-25T19:01:55Z</time></trkpt><trkpt lat="59.0732288361" lon="30.0114083290"><time>2026-04-25T19:01:57Z</time></trkpt><trkpt lat="59.0732288361" lon="30.0114083290"><time>2026-04-25T19:02:00Z</time></trkpt><trkpt lat="59.0732288361" lon="30.0114083290"><time>2026-04-25T19:02:02Z</time></trkpt><trkpt lat="59.0732288361" lon="30.0114083290"><time>2026-04-25T19:02:05Z</time></trkpt><trkpt lat="59.0732288361" lon="30.0114083290"><time>2026-04-25T19:02:07Z</time></trkpt><trkpt lat="59.0732288361" lon="30.0114083290"><time>2026-04-25T19:02:10Z</time></trkpt><trkpt lat="59.0732288361" lon="30.0114083290"><time>2026-04-25T19:02:12Z</time></trkpt><trkpt lat="59.0732288361" lon="30.0114083290"><time>2026-04-25T19:02:15Z</time></trkpt><trkpt lat="59.0732288361" lon="30.0114083290"><time>2026-04-25T19:02:17Z</time></trkpt><trkpt lat="59.0732288361" lon="30.0114297867"><time>2026-04-25T19:02:20Z</time></trkpt><trkpt lat="59.0732073784" lon="30.0114297867"><time>2026-04-25T19:02:22Z</time></trkpt><trkpt lat="59.0731859207" lon="30.0114297867"><time>2026-04-25T19:02:25Z</time></trkpt><trkpt lat="59.0731644630" lon="30.0114512444"><time>2026-04-25T19:02:27Z</time></trkpt><trkpt lat="59.0731430054" lon="30.0114512444"><time>2026-04-25T19:02:30Z</time></trkpt><trkpt lat="59.0731430054" lon="30.0114512444"><time>2026-04-25T19:02:32Z</time></trkpt><trkpt lat="59.0731215477" lon="30.0114727020"><time>2026-04-25T19:02:35Z</time></trkpt><trkpt lat="59.0731000900" lon="30.0114727020"><time>2026-04-25T19:02:37Z</time></trkpt><trkpt lat="59.0730786324" lon="30.0114941597"><time>2026-04-25T19:02:40Z</time></trkpt><trkpt lat="59.0730571747" lon="30.0114941597"><time>2026-04-25T19:02:42Z</time></trkpt><trkpt lat="59.0730357170" lon="30.0114941597"><time>2026-04-25T19:02:45Z</time></trkpt><trkpt lat="59.0730357170" lon="30.0115156174"><time>2026-04-25T19:02:47Z</time></trkpt><trkpt lat="59.0730142593" lon="30.0115156174"><time>2026-04-25T19:02:50Z</time></trkpt><trkpt lat="59.0729928017" lon="30.0115156174"><time>2026-04-25T19:02:52Z</time></trkpt><trkpt lat="59.0729713440" lon="30.0115370750"><time>2026-04-25T19:02:55Z</time></trkpt><trkpt lat="59.0729713440" lon="30.0115799904"><time>2026-04-25T19:02:57Z</time></trkpt><trkpt lat="59.0729284286" lon="30.0115799904"><time>2026-04-25T19:03:00Z</time></trkpt><trkpt lat="59.0729284286" lon="30.0116229057"><time>2026-04-25T19:03:02Z</time></trkpt><trkpt lat="59.0729069710" lon="30.0116658211"><time>2026-04-25T19:03:05Z</time></trkpt><trkpt lat="59.0728855133" lon="30.0116658211"><time>2026-04-25T19:03:07Z</time></trkpt><trkpt lat="59.0728640556" lon="30.0116658211"><time>2026-04-25T19:03:10Z</time></trkpt><trkpt lat="59.0728640556" lon="30.0116658211"><time>2026-04-25T19:03:12Z</time></trkpt><trkpt lat="59.0728640556" lon="30.0116658211"><time>2026-04-25T19:03:15Z</time></trkpt><trkpt lat="59.0728640556" lon="30.0116658211"><time>2026-04-25T19:03:17Z</time></trkpt><trkpt lat="59.0728425980" lon="30.0116872787"><time>2026-04-25T19:03:20Z</time></trkpt><trkpt lat="59.0728425980" lon="30.0117087364"><time>2026-04-25T19:03:22Z</time></trkpt><trkpt lat="59.0727996826" lon="30.0117301941"><time>2026-04-25T19:03:25Z</time></trkpt><trkpt lat="59.0727782249" lon="30.0117516518"><time>2026-04-25T19:03:27Z</time></trkpt><trkpt lat="59.0727567673" lon="30.0117731094"><time>2026-04-25T19:03:30Z</time></trkpt><trkpt lat="59.0727353096" lon="30.0117731094"><time>2026-04-25T19:03:32Z</time></trkpt><trkpt lat="59.0727138519" lon="30.0117945671"><time>2026-04-25T19:03:35Z</time></trkpt><trkpt lat="59.0726923943" lon="30.0117945671"><time>2026-04-25T19:03:37Z</time></trkpt><trkpt lat="59.0726923943" lon="30.0117945671"><time>2026-04-25T19:03:40Z</time></trkpt><trkpt lat="59.0726923943" lon="30.0117945671"><time>2026-04-25T19:03:42Z</time></trkpt><trkpt lat="59.0726923943" lon="30.0118160248"><time>2026-04-25T19:03:45Z</time></trkpt><trkpt lat="59.0726923943" lon="30.0118374825"><time>2026-04-25T19:03:47Z</time></trkpt><trkpt lat="59.0727138519" lon="30.0118803978"><time>2026-04-25T19:03:50Z</time></trkpt><trkpt lat="59.0727353096" lon="30.0119018555"><time>2026-04-25T19:03:52Z</time></trkpt><trkpt lat="59.0727353096" lon="30.0119662285"><time>2026-04-25T19:03:55Z</time></trkpt><trkpt lat="59.0727353096" lon="30.0119876862"><time>2026-04-25T19:03:57Z</time></trkpt><trkpt lat="59.0727353096" lon="30.0120306015"><time>2026-04-25T19:04:00Z</time></trkpt><trkpt lat="59.0727353096" lon="30.0120735168"><time>2026-04-25T19:04:02Z</time></trkpt><trkpt lat="59.0727353096" lon="30.0121378899"><time>2026-04-25T19:04:05Z</time></trkpt><trkpt lat="59.0727353096" lon="30.0121593475"><time>2026-04-25T19:04:07Z</time></trkpt><trkpt lat="59.0727567673" lon="30.0122237206"><time>2026-04-25T19:04:10Z</time></trkpt><trkpt lat="59.0727782249" lon="30.0122451782"><time>2026-04-25T19:04:12Z</time></trkpt><trkpt lat="59.0727782249" lon="30.0122880936"><time>2026-04-25T19:04:15Z</time></trkpt><trkpt lat="59.0727996826" lon="30.0123095512"><time>2026-04-25T19:04:20Z</time></trkpt><trkpt lat="59.0727996826" lon="30.0123095512"><time>2026-04-25T19:04:22Z</time></trkpt><trkpt lat="59.0727996826" lon="30.0123095512"><time>2026-04-25T19:04:25Z</time></trkpt><trkpt lat="59.0727996826" lon="30.0123095512"><time>2026-04-25T19:04:27Z</time></trkpt><trkpt lat="59.0727996826" lon="30.0123095512"><time>2026-04-25T19:04:30Z</time></trkpt><trkpt lat="59.0727996826" lon="30.0123095512"><time>2026-04-25T19:04:32Z</time></trkpt><trkpt lat="59.0728211403" lon="30.0123524666"><time>2026-04-25T19:04:35Z</time></trkpt><trkpt lat="59.0728425980" lon="30.0123953819"><time>2026-04-25T19:04:37Z</time></trkpt><trkpt lat="59.0728425980" lon="30.0124382973"><time>2026-04-25T19:04:40Z</time></trkpt><trkpt lat="59.0728425980" lon="30.0124812126"><time>2026-04-25T19:04:42Z</time></trkpt><trkpt lat="59.0728211403" lon="30.0125026703"><time>2026-04-25T19:04:45Z</time></trkpt><trkpt lat="59.0728211403" lon="30.0125026703"><time>2026-04-25T19:04:47Z</time></trkpt><trkpt lat="59.0728211403" lon="30.0125026703"><time>2026-04-25T19:04:50Z</time></trkpt><trkpt lat="59.0728211403" lon="30.0125026703"><time>2026-04-25T19:04:52Z</time></trkpt><trkpt lat="59.0728211403" lon="30.0125455856"><time>2026-04-25T19:04:55Z</time></trkpt><trkpt lat="59.0728211403" lon="30.0125670433"><time>2026-04-25T19:04:57Z</time></trkpt><trkpt lat="59.0727996826" lon="30.0126099586"><time>2026-04-25T19:05:00Z</time></trkpt><trkpt lat="59.0727996826" lon="30.0126528740"><time>2026-04-25T19:05:02Z</time></trkpt><trkpt lat="59.0727996826" lon="30.0127387047"><time>2026-04-25T19:05:05Z</time></trkpt><trkpt lat="59.0727782249" lon="30.0127816200"><time>2026-04-25T19:05:07Z</time></trkpt><trkpt lat="59.0727996826" lon="30.0128245354"><time>2026-04-25T19:05:10Z</time></trkpt><trkpt lat="59.0727996826" lon="30.0128459930"><time>2026-04-25T19:05:12Z</time></trkpt><trkpt lat="59.0728211403" lon="30.0129103661"><time>2026-04-25T19:05:15Z</time></trkpt><trkpt lat="59.0728211403" lon="30.0129318237"><time>2026-04-25T19:05:17Z</time></trkpt><trkpt lat="59.0728425980" lon="30.0129747391"><time>2026-04-25T19:05:20Z</time></trkpt><trkpt lat="59.0728211403" lon="30.0130176544"><time>2026-04-25T19:05:22Z</time></trkpt><trkpt lat="59.0728211403" lon="30.0130605698"><time>2026-04-25T19:05:25Z</time></trkpt><trkpt lat="59.0728211403" lon="30.0131034851"><time>2026-04-25T19:05:27Z</time></trkpt><trkpt lat="59.0728211403" lon="30.0131464005"><time>2026-04-25T19:05:30Z</time></trkpt><trkpt lat="59.0728211403" lon="30.0131893158"><time>2026-04-25T19:05:32Z</time></trkpt><trkpt lat="59.0728211403" lon="30.0132536888"><time>2026-04-25T19:05:35Z</time></trkpt><trkpt lat="59.0728211403" lon="30.0132966042"><time>2026-04-25T19:05:37Z</time></trkpt><trkpt lat="59.0727996826" lon="30.0133609772"><time>2026-04-25T19:05:40Z</time></trkpt><trkpt lat="59.0728211403" lon="30.0134038925"><time>2026-04-25T19:05:42Z</time></trkpt><trkpt lat="59.0728211403" lon="30.0134468079"><time>2026-04-25T19:05:45Z</time></trkpt><trkpt lat="59.0728425980" lon="30.0134897232"><time>2026-04-25T19:05:47Z</time></trkpt><trkpt lat="59.0728425980" lon="30.0135540962"><time>2026-04-25T19:05:50Z</time></trkpt><trkpt lat="59.0728640556" lon="30.0135970116"><time>2026-04-25T19:05:52Z</time></trkpt><trkpt lat="59.0728640556" lon="30.0136399269"><time>2026-04-25T19:05:55Z</time></trkpt><trkpt lat="59.0728425980" lon="30.0136828423"><time>2026-04-25T19:05:57Z</time></trkpt><trkpt lat="59.0728425980" lon="30.0137472153"><time>2026-04-25T19:06:00Z</time></trkpt><trkpt lat="59.0728640556" lon="30.0137901306"><time>2026-04-25T19:06:02Z</time></trkpt><trkpt lat="59.0728855133" lon="30.0138545036"><time>2026-04-25T19:06:05Z</time></trkpt><trkpt lat="59.0728640556" lon="30.0138974190"><time>2026-04-25T19:06:07Z</time></trkpt><trkpt lat="59.0728855133" lon="30.0139617920"><time>2026-04-25T19:06:10Z</time></trkpt><trkpt lat="59.0729069710" lon="30.0139832497"><time>2026-04-25T19:06:12Z</time></trkpt><trkpt lat="59.0729284286" lon="30.0140261650"><time>2026-04-25T19:06:15Z</time></trkpt><trkpt lat="59.0729284286" lon="30.0140476227"><time>2026-04-25T19:06:17Z</time></trkpt><trkpt lat="59.0729284286" lon="30.0140905380"><time>2026-04-25T19:06:20Z</time></trkpt><trkpt lat="59.0729284286" lon="30.0141334534"><time>2026-04-25T19:06:22Z</time></trkpt><trkpt lat="59.0729284286" lon="30.0141763687"><time>2026-04-25T19:06:25Z</time></trkpt><trkpt lat="59.0729284286" lon="30.0142192841"><time>2026-04-25T19:06:27Z</time></trkpt><trkpt lat="59.0729284286" lon="30.0142836571"><time>2026-04-25T19:06:30Z</time></trkpt><trkpt lat="59.0729498863" lon="30.0143480301"><time>2026-04-25T19:06:32Z</time></trkpt><trkpt lat="59.0729284286" lon="30.0144124031"><time>2026-04-25T19:06:35Z</time></trkpt><trkpt lat="59.0729284286" lon="30.0144553185"><time>2026-04-25T19:06:37Z</time></trkpt><trkpt lat="59.0729498863" lon="30.0144982338"><time>2026-04-25T19:06:40Z</time></trkpt><trkpt lat="59.0729498863" lon="30.0145411491"><time>2026-04-25T19:06:42Z</time></trkpt><trkpt lat="59.0729498863" lon="30.0146055222"><time>2026-04-25T19:06:45Z</time></trkpt><trkpt lat="59.0729284286" lon="30.0146269798"><time>2026-04-25T19:06:47Z</time></trkpt><trkpt lat="59.0729284286" lon="30.0146913528"><time>2026-04-25T19:06:50Z</time></trkpt><trkpt lat="59.0729498863" lon="30.0147342682"><time>2026-04-25T19:06:52Z</time></trkpt><trkpt lat="59.0729498863" lon="30.0147986412"><time>2026-04-25T19:06:55Z</time></trkpt><trkpt lat="59.0729498863" lon="30.0148415565"><time>2026-04-25T19:06:57Z</time></trkpt><trkpt lat="59.0729498863" lon="30.0149059296"><time>2026-04-25T19:07:00Z</time></trkpt><trkpt lat="59.0729284286" lon="30.0149488449"><time>2026-04-25T19:07:02Z</time></trkpt><trkpt lat="59.0729498863" lon="30.0150132179"><time>2026-04-25T19:07:05Z</time></trkpt><trkpt lat="59.0729713440" lon="30.0150346756"><time>2026-04-25T19:07:07Z</time></trkpt><trkpt lat="59.0729713440" lon="30.0150775909"><time>2026-04-25T19:07:10Z</time></trkpt><trkpt lat="59.0729713440" lon="30.0150990486"><time>2026-04-25T19:07:12Z</time></trkpt><trkpt lat="59.0729713440" lon="30.0150990486"><time>2026-04-25T19:07:15Z</time></trkpt><trkpt lat="59.0729713440" lon="30.0150990486"><time>2026-04-25T19:07:17Z</time></trkpt><trkpt lat="59.0729713440" lon="30.0150990486"><time>2026-04-25T19:07:20Z</time></trkpt><trkpt lat="59.0729713440" lon="30.0150990486"><time>2026-04-25T19:07:22Z</time></trkpt><trkpt lat="59.0729713440" lon="30.0150990486"><time>2026-04-25T19:07:25Z</time></trkpt><trkpt lat="59.0729713440" lon="30.0150990486"><time>2026-04-25T19:07:27Z</time></trkpt><trkpt lat="59.0729713440" lon="30.0150990486"><time>2026-04-25T19:07:30Z</time></trkpt><trkpt lat="59.0729713440" lon="30.0150990486"><time>2026-04-25T19:07:32Z</time></trkpt><trkpt lat="59.0729713440" lon="30.0151419640"><time>2026-04-25T19:07:35Z</time></trkpt><trkpt lat="59.0729713440" lon="30.0152063370"><time>2026-04-25T19:07:37Z</time></trkpt><trkpt lat="59.0729713440" lon="30.0152707100"><time>2026-04-25T19:07:40Z</time></trkpt><trkpt lat="59.0729928017" lon="30.0153136253"><time>2026-04-25T19:07:42Z</time></trkpt><trkpt lat="59.0729928017" lon="30.0153565407"><time>2026-04-25T19:07:45Z</time></trkpt><trkpt lat="59.0729928017" lon="30.0153779984"><time>2026-04-25T19:07:47Z</time></trkpt><trkpt lat="59.0729928017" lon="30.0154209137"><time>2026-04-25T19:07:50Z</time></trkpt><trkpt lat="59.0729928017" lon="30.0154423714"><time>2026-04-25T19:07:52Z</time></trkpt><trkpt lat="59.0730142593" lon="30.0154852867"><time>2026-04-25T19:07:55Z</time></trkpt><trkpt lat="59.0730357170" lon="30.0155067444"><time>2026-04-25T19:07:57Z</time></trkpt><trkpt lat="59.0730571747" lon="30.0155496597"><time>2026-04-25T19:08:00Z</time></trkpt><trkpt lat="59.0730571747" lon="30.0155711174"><time>2026-04-25T19:08:02Z</time></trkpt><trkpt lat="59.0730786324" lon="30.0156354904"><time>2026-04-25T19:08:05Z</time></trkpt><trkpt lat="59.0730786324" lon="30.0156569481"><time>2026-04-25T19:08:07Z</time></trkpt><trkpt lat="59.0731000900" lon="30.0157213211"><time>2026-04-25T19:08:10Z</time></trkpt><trkpt lat="59.0731000900" lon="30.0157427788"><time>2026-04-25T19:08:12Z</time></trkpt><trkpt lat="59.0731215477" lon="30.0157642365"><time>2026-04-25T19:08:15Z</time></trkpt><trkpt lat="59.0731215477" lon="30.0158071518"><time>2026-04-25T19:08:17Z</time></trkpt><trkpt lat="59.0731215477" lon="30.0158500671"><time>2026-04-25T19:08:20Z</time></trkpt><trkpt lat="59.0731215477" lon="30.0158715248"><time>2026-04-25T19:08:22Z</time></trkpt><trkpt lat="59.0731215477" lon="30.0158715248"><time>2026-04-25T19:08:25Z</time></trkpt><trkpt lat="59.0731215477" lon="30.0158715248"><time>2026-04-25T19:08:27Z</time></trkpt><trkpt lat="59.0731215477" lon="30.0158715248"><time>2026-04-25T19:08:30Z</time></trkpt><trkpt lat="59.0731215477" lon="30.0158715248"><time>2026-04-25T19:08:32Z</time></trkpt><trkpt lat="59.0731215477" lon="30.0158715248"><time>2026-04-25T19:08:35Z</time></trkpt><trkpt lat="59.0731215477" lon="30.0158715248"><time>2026-04-25T19:08:37Z</time></trkpt><trkpt lat="59.0731215477" lon="30.0158715248"><time>2026-04-25T19:08:40Z</time></trkpt><trkpt lat="59.0731215477" lon="30.0158715248"><time>2026-04-25T19:08:42Z</time></trkpt><trkpt lat="59.0731215477" lon="30.0158715248"><time>2026-04-25T19:08:45Z</time></trkpt><trkpt lat="59.0731215477" lon="30.0158715248"><time>2026-04-25T19:08:47Z</time></trkpt><trkpt lat="59.0731215477" lon="30.0158715248"><time>2026-04-25T19:08:50Z</time></trkpt><trkpt lat="59.0731215477" lon="30.0158715248"><time>2026-04-25T19:08:52Z</time></trkpt><trkpt lat="59.0731215477" lon="30.0158715248"><time>2026-04-25T19:08:55Z</time></trkpt><trkpt lat="59.0731215477" lon="30.0158715248"><time>2026-04-25T19:08:57Z</time></trkpt><trkpt lat="59.0731215477" lon="30.0158715248"><time>2026-04-25T19:09:00Z</time></trkpt><trkpt lat="59.0731215477" lon="30.0158715248"><time>2026-04-25T19:09:02Z</time></trkpt><trkpt lat="59.0731215477" lon="30.0158715248"><time>2026-04-25T19:09:05Z</time></trkpt><trkpt lat="59.0731215477" lon="30.0158715248"><time>2026-04-25T19:09:07Z</time></trkpt><trkpt lat="59.0731215477" lon="30.0158715248"><time>2026-04-25T19:09:10Z</time></trkpt><trkpt lat="59.0731215477" lon="30.0158715248"><time>2026-04-25T19:09:12Z</time></trkpt><trkpt lat="59.0731215477" lon="30.0158715248"><time>2026-04-25T19:09:15Z</time></trkpt><trkpt lat="59.0731215477" lon="30.0158715248"><time>2026-04-25T19:09:17Z</time></trkpt><trkpt lat="59.0731215477" lon="30.0158715248"><time>2026-04-25T19:09:20Z</time></trkpt><trkpt lat="59.0731215477" lon="30.0158715248"><time>2026-04-25T19:09:22Z</time></trkpt><trkpt lat="59.0731215477" lon="30.0158715248"><time>2026-04-25T19:09:25Z</time></trkpt><trkpt lat="59.0730786324" lon="30.0158929825"><time>2026-04-25T19:09:27Z</time></trkpt><trkpt lat="59.0730786324" lon="30.0158715248"><time>2026-04-25T19:09:30Z</time></trkpt><trkpt lat="59.0730357170" lon="30.0158715248"><time>2026-04-25T19:09:32Z</time></trkpt><trkpt lat="59.0729928017" lon="30.0158929825"><time>2026-04-25T19:09:35Z</time></trkpt><trkpt lat="59.0729713440" lon="30.0158715248"><time>2026-04-25T19:09:37Z</time></trkpt><trkpt lat="59.0729713440" lon="30.0158286095"><time>2026-04-25T19:09:40Z</time></trkpt><trkpt lat="59.0729713440" lon="30.0158286095"><time>2026-04-25T19:09:42Z</time></trkpt><trkpt lat="59.0729713440" lon="30.0158286095"><time>2026-04-25T19:09:45Z</time></trkpt><trkpt lat="59.0729713440" lon="30.0158286095"><time>2026-04-25T19:09:47Z</time></trkpt><trkpt lat="59.0729713440" lon="30.0158286095"><time>2026-04-25T19:09:50Z</time></trkpt><trkpt lat="59.0729713440" lon="30.0158071518"><time>2026-04-25T19:09:52Z</time></trkpt><trkpt lat="59.0729713440" lon="30.0158071518"><time>2026-04-25T19:09:55Z</time></trkpt><trkpt lat="59.0729713440" lon="30.0158071518"><time>2026-04-25T19:09:57Z</time></trkpt><trkpt lat="59.0729713440" lon="30.0158071518"><time>2026-04-25T19:10:00Z</time></trkpt><trkpt lat="59.0729713440" lon="30.0158071518"><time>2026-04-25T19:10:02Z</time></trkpt><trkpt lat="59.0729713440" lon="30.0158071518"><time>2026-04-25T19:10:05Z</time></trkpt><trkpt lat="59.0729713440" lon="30.0158071518"><time>2026-04-25T19:10:07Z</time></trkpt><trkpt lat="59.0729713440" lon="30.0158071518"><time>2026-04-25T19:10:10Z</time></trkpt><trkpt lat="59.0729713440" lon="30.0158071518"><time>2026-04-25T19:10:12Z</time></trkpt><trkpt lat="59.0729713440" lon="30.0158071518"><time>2026-04-25T19:10:15Z</time></trkpt><trkpt lat="59.0729713440" lon="30.0158071518"><time>2026-04-25T19:10:17Z</time></trkpt><trkpt lat="59.0729713440" lon="30.0158071518"><time>2026-04-25T19:10:20Z</time></trkpt><trkpt lat="59.0729713440" lon="30.0158071518"><time>2026-04-25T19:10:22Z</time></trkpt><trkpt lat="59.0729713440" lon="30.0158071518"><time>2026-04-25T19:10:25Z</time></trkpt><trkpt lat="59.0729713440" lon="30.0158071518"><time>2026-04-25T19:10:27Z</time></trkpt><trkpt lat="59.0729713440" lon="30.0158071518"><time>2026-04-25T19:10:30Z</time></trkpt><trkpt lat="59.0729713440" lon="30.0158071518"><time>2026-04-25T19:10:32Z</time></trkpt><trkpt lat="59.0729713440" lon="30.0158071518"><time>2026-04-25T19:10:35Z</time></trkpt><trkpt lat="59.0729713440" lon="30.0158071518"><time>2026-04-25T19:10:37Z</time></trkpt><trkpt lat="59.0729498863" lon="30.0157856941"><time>2026-04-25T19:10:40Z</time></trkpt><trkpt lat="59.0729498863" lon="30.0157642365"><time>2026-04-25T19:10:42Z</time></trkpt><trkpt lat="59.0729498863" lon="30.0157642365"><time>2026-04-25T19:10:45Z</time></trkpt><trkpt lat="59.0729284286" lon="30.0157427788"><time>2026-04-25T19:10:47Z</time></trkpt><trkpt lat="59.0729284286" lon="30.0157427788"><time>2026-04-25T19:10:50Z</time></trkpt><trkpt lat="59.0729284286" lon="30.0157427788"><time>2026-04-25T19:10:52Z</time></trkpt><trkpt lat="59.0729284286" lon="30.0157642365"><time>2026-04-25T19:10:55Z</time></trkpt><trkpt lat="59.0729069710" lon="30.0157427788"><time>2026-04-25T19:10:57Z</time></trkpt><trkpt lat="59.0729069710" lon="30.0157213211"><time>2026-04-25T19:11:00Z</time></trkpt><trkpt lat="59.0729069710" lon="30.0157213211"><time>2026-04-25T19:11:02Z</time></trkpt><trkpt lat="59.0729069710" lon="30.0157213211"><time>2026-04-25T19:11:05Z</time></trkpt><trkpt lat="59.0729069710" lon="30.0157213211"><time>2026-04-25T19:11:07Z</time></trkpt><trkpt lat="59.0728855133" lon="30.0157213211"><time>2026-04-25T19:11:10Z</time></trkpt><trkpt lat="59.0728425980" lon="30.0157427788"><time>2026-04-25T19:11:12Z</time></trkpt><trkpt lat="59.0728211403" lon="30.0157642365"><time>2026-04-25T19:11:15Z</time></trkpt><trkpt lat="59.0727996826" lon="30.0157427788"><time>2026-04-25T19:11:17Z</time></trkpt><trkpt lat="59.0727567673" lon="30.0157213211"><time>2026-04-25T19:11:20Z</time></trkpt><trkpt lat="59.0727567673" lon="30.0156998634"><time>2026-04-25T19:11:22Z</time></trkpt><trkpt lat="59.0727353096" lon="30.0156998634"><time>2026-04-25T19:11:25Z</time></trkpt><trkpt lat="59.0727138519" lon="30.0156998634"><time>2026-04-25T19:11:27Z</time></trkpt><trkpt lat="59.0726923943" lon="30.0156998634"><time>2026-04-25T19:11:30Z</time></trkpt><trkpt lat="59.0726709366" lon="30.0157213211"><time>2026-04-25T19:11:32Z</time></trkpt><trkpt lat="59.0726494789" lon="30.0157427788"><time>2026-04-25T19:11:35Z</time></trkpt><trkpt lat="59.0726280212" lon="30.0157427788"><time>2026-04-25T19:11:37Z</time></trkpt><trkpt lat="59.0726065636" lon="30.0157213211"><time>2026-04-25T19:11:40Z</time></trkpt><trkpt lat="59.0726065636" lon="30.0157427788"><time>2026-04-25T19:11:42Z</time></trkpt><trkpt lat="59.0725851059" lon="30.0157427788"><time>2026-04-25T19:11:45Z</time></trkpt><trkpt lat="59.0725636482" lon="30.0157213211"><time>2026-04-25T19:11:47Z</time></trkpt><trkpt lat="59.0725421906" lon="30.0157213211"><time>2026-04-25T19:11:50Z</time></trkpt><trkpt lat="59.0725207329" lon="30.0156998634"><time>2026-04-25T19:11:52Z</time></trkpt><trkpt lat="59.0725207329" lon="30.0156998634"><time>2026-04-25T19:11:55Z</time></trkpt><trkpt lat="59.0725207329" lon="30.0156998634"><time>2026-04-25T19:11:57Z</time></trkpt><trkpt lat="59.0724992752" lon="30.0156998634"><time>2026-04-25T19:12:00Z</time></trkpt><trkpt lat="59.0724778175" lon="30.0156998634"><time>2026-04-25T19:12:02Z</time></trkpt><trkpt lat="59.0724778175" lon="30.0157213211"><time>2026-04-25T19:12:05Z</time></trkpt><trkpt lat="59.0724563599" lon="30.0157213211"><time>2026-04-25T19:12:07Z</time></trkpt><trkpt lat="59.0724349022" lon="30.0157213211"><time>2026-04-25T19:12:10Z</time></trkpt><trkpt lat="59.0724134445" lon="30.0157213211"><time>2026-04-25T19:12:12Z</time></trkpt><trkpt lat="59.0723919868" lon="30.0157427788"><time>2026-04-25T19:12:15Z</time></trkpt><trkpt lat="59.0723705292" lon="30.0157213211"><time>2026-04-25T19:12:17Z</time></trkpt><trkpt lat="59.0723705292" lon="30.0156998634"><time>2026-04-25T19:12:20Z</time></trkpt><trkpt lat="59.0723705292" lon="30.0156998634"><time>2026-04-25T19:12:22Z</time></trkpt><trkpt lat="59.0723705292" lon="30.0156998634"><time>2026-04-25T19:12:25Z</time></trkpt><trkpt lat="59.0723705292" lon="30.0156998634"><time>2026-04-25T19:12:27Z</time></trkpt><trkpt lat="59.0723705292" lon="30.0156998634"><time>2026-04-25T19:12:30Z</time></trkpt><trkpt lat="59.0723705292" lon="30.0156998634"><time>2026-04-25T19:12:32Z</time></trkpt><trkpt lat="59.0723705292" lon="30.0156998634"><time>2026-04-25T19:12:35Z</time></trkpt><trkpt lat="59.0723705292" lon="30.0156998634"><time>2026-04-25T19:12:37Z</time></trkpt><trkpt lat="59.0723705292" lon="30.0156998634"><time>2026-04-25T19:12:40Z</time></trkpt><trkpt lat="59.0723705292" lon="30.0156998634"><time>2026-04-25T19:12:42Z</time></trkpt><trkpt lat="59.0723705292" lon="30.0156998634"><time>2026-04-25T19:12:45Z</time></trkpt><trkpt lat="59.0723705292" lon="30.0156998634"><time>2026-04-25T19:12:47Z</time></trkpt><trkpt lat="59.0723705292" lon="30.0156998634"><time>2026-04-25T19:12:50Z</time></trkpt><trkpt lat="59.0723705292" lon="30.0156998634"><time>2026-04-25T19:12:52Z</time></trkpt><trkpt lat="59.0723705292" lon="30.0156998634"><time>2026-04-25T19:12:55Z</time></trkpt><trkpt lat="59.0723705292" lon="30.0156998634"><time>2026-04-25T19:12:57Z</time></trkpt><trkpt lat="59.0723705292" lon="30.0156998634"><time>2026-04-25T19:13:00Z</time></trkpt><trkpt lat="59.0723705292" lon="30.0156998634"><time>2026-04-25T19:13:02Z</time></trkpt><trkpt lat="59.0723705292" lon="30.0156998634"><time>2026-04-25T19:13:05Z</time></trkpt><trkpt lat="59.0723705292" lon="30.0156998634"><time>2026-04-25T19:13:07Z</time></trkpt><trkpt lat="59.0723705292" lon="30.0156998634"><time>2026-04-25T19:13:10Z</time></trkpt><trkpt lat="59.0723705292" lon="30.0156998634"><time>2026-04-25T19:13:12Z</time></trkpt><trkpt lat="59.0723705292" lon="30.0156998634"><time>2026-04-25T19:13:15Z</time></trkpt><trkpt lat="59.0723705292" lon="30.0156998634"><time>2026-04-25T19:13:17Z</time></trkpt><trkpt lat="59.0723705292" lon="30.0156998634"><time>2026-04-25T19:13:20Z</time></trkpt><trkpt lat="59.0723705292" lon="30.0156998634"><time>2026-04-25T19:13:22Z</time></trkpt><trkpt lat="59.0723705292" lon="30.0156998634"><time>2026-04-25T19:13:25Z</time></trkpt><trkpt lat="59.0723705292" lon="30.0156998634"><time>2026-04-25T19:13:27Z</time></trkpt><trkpt lat="59.0723705292" lon="30.0156998634"><time>2026-04-25T19:13:30Z</time></trkpt><trkpt lat="59.0723705292" lon="30.0156998634"><time>2026-04-25T19:13:32Z</time></trkpt><trkpt lat="59.0723705292" lon="30.0156998634"><time>2026-04-25T19:13:35Z</time></trkpt><trkpt lat="59.0723705292" lon="30.0156998634"><time>2026-04-25T19:13:37Z</time></trkpt><trkpt lat="59.0723705292" lon="30.0156998634"><time>2026-04-25T19:13:40Z</time></trkpt><trkpt lat="59.0723705292" lon="30.0156998634"><time>2026-04-25T19:13:42Z</time></trkpt><trkpt lat="59.0723705292" lon="30.0156998634"><time>2026-04-25T19:13:45Z</time></trkpt><trkpt lat="59.0723705292" lon="30.0156998634"><time>2026-04-25T19:13:47Z</time></trkpt><trkpt lat="59.0723705292" lon="30.0156998634"><time>2026-04-25T19:13:50Z</time></trkpt><trkpt lat="59.0723705292" lon="30.0156998634"><time>2026-04-25T19:13:52Z</time></trkpt><trkpt lat="59.0723705292" lon="30.0156998634"><time>2026-04-25T19:13:55Z</time></trkpt><trkpt lat="59.0723705292" lon="30.0156998634"><time>2026-04-25T19:13:57Z</time></trkpt><trkpt lat="59.0723705292" lon="30.0156998634"><time>2026-04-25T19:14:00Z</time></trkpt><trkpt lat="59.0723705292" lon="30.0156998634"><time>2026-04-25T19:14:02Z</time></trkpt><trkpt lat="59.0723705292" lon="30.0156998634"><time>2026-04-25T19:14:05Z</time></trkpt><trkpt lat="59.0723705292" lon="30.0156998634"><time>2026-04-25T19:14:07Z</time></trkpt><trkpt lat="59.0723705292" lon="30.0156998634"><time>2026-04-25T19:14:10Z</time></trkpt><trkpt lat="59.0723705292" lon="30.0156998634"><time>2026-04-25T19:14:12Z</time></trkpt><trkpt lat="59.0723705292" lon="30.0156998634"><time>2026-04-25T19:14:15Z</time></trkpt><trkpt lat="59.0723705292" lon="30.0156998634"><time>2026-04-25T19:14:17Z</time></trkpt><trkpt lat="59.0723705292" lon="30.0156998634"><time>2026-04-25T19:14:20Z</time></trkpt><trkpt lat="59.0723705292" lon="30.0156998634"><time>2026-04-25T19:14:22Z</time></trkpt><trkpt lat="59.0723705292" lon="30.0156998634"><time>2026-04-25T19:14:25Z</time></trkpt><trkpt lat="59.0723705292" lon="30.0156998634"><time>2026-04-25T19:14:27Z</time></trkpt><trkpt lat="59.0723705292" lon="30.0156784058"><time>2026-04-25T19:14:30Z</time></trkpt><trkpt lat="59.0723705292" lon="30.0156784058"><time>2026-04-25T19:14:32Z</time></trkpt><trkpt lat="59.0723705292" lon="30.0156784058"><time>2026-04-25T19:14:35Z</time></trkpt><trkpt lat="59.0723705292" lon="30.0156784058"><time>2026-04-25T19:14:37Z</time></trkpt><trkpt lat="59.0723705292" lon="30.0156784058"><time>2026-04-25T19:14:40Z</time></trkpt><trkpt lat="59.0723705292" lon="30.0156354904"><time>2026-04-25T19:14:42Z</time></trkpt><trkpt lat="59.0723705292" lon="30.0155496597"><time>2026-04-25T19:14:45Z</time></trkpt><trkpt lat="59.0723705292" lon="30.0155282021"><time>2026-04-25T19:14:47Z</time></trkpt><trkpt lat="59.0723919868" lon="30.0154638290"><time>2026-04-25T19:14:50Z</time></trkpt><trkpt lat="59.0723919868" lon="30.0154209137"><time>2026-04-25T19:14:52Z</time></trkpt><trkpt lat="59.0723919868" lon="30.0153994560"><time>2026-04-25T19:14:55Z</time></trkpt><trkpt lat="59.0723919868" lon="30.0153994560"><time>2026-04-25T19:14:57Z</time></trkpt><trkpt lat="59.0723919868" lon="30.0153994560"><time>2026-04-25T19:15:00Z</time></trkpt><trkpt lat="59.0723919868" lon="30.0154209137"><time>2026-04-25T19:15:02Z</time></trkpt><trkpt lat="59.0723705292" lon="30.0153994560"><time>2026-04-25T19:15:05Z</time></trkpt><trkpt lat="59.0723705292" lon="30.0153779984"><time>2026-04-25T19:15:07Z</time></trkpt><trkpt lat="59.0723705292" lon="30.0153350830"><time>2026-04-25T19:15:10Z</time></trkpt><trkpt lat="59.0723705292" lon="30.0153136253"><time>2026-04-25T19:15:12Z</time></trkpt><trkpt lat="59.0723705292" lon="30.0152492523"><time>2026-04-25T19:15:15Z</time></trkpt><trkpt lat="59.0723705292" lon="30.0152063370"><time>2026-04-25T19:15:17Z</time></trkpt><trkpt lat="59.0723490715" lon="30.0151634216"><time>2026-04-25T19:15:20Z</time></trkpt><trkpt lat="59.0723490715" lon="30.0151205063"><time>2026-04-25T19:15:22Z</time></trkpt><trkpt lat="59.0723490715" lon="30.0150775909"><time>2026-04-25T19:15:25Z</time></trkpt><trkpt lat="59.0723490715" lon="30.0150561333"><time>2026-04-25T19:15:27Z</time></trkpt><trkpt lat="59.0723705292" lon="30.0150132179"><time>2026-04-25T19:15:30Z</time></trkpt><trkpt lat="59.0723705292" lon="30.0149917603"><time>2026-04-25T19:15:32Z</time></trkpt><trkpt lat="59.0723490715" lon="30.0149488449"><time>2026-04-25T19:15:35Z</time></trkpt><trkpt lat="59.0723490715" lon="30.0149059296"><time>2026-04-25T19:15:37Z</time></trkpt><trkpt lat="59.0723490715" lon="30.0148630142"><time>2026-04-25T19:15:40Z</time></trkpt><trkpt lat="59.0723490715" lon="30.0147986412"><time>2026-04-25T19:15:42Z</time></trkpt><trkpt lat="59.0723490715" lon="30.0147557259"><time>2026-04-25T19:15:45Z</time></trkpt><trkpt lat="59.0723490715" lon="30.0147128105"><time>2026-04-25T19:15:47Z</time></trkpt><trkpt lat="59.0723490715" lon="30.0146913528"><time>2026-04-25T19:15:50Z</time></trkpt><trkpt lat="59.0723490715" lon="30.0146484375"><time>2026-04-25T19:15:52Z</time></trkpt><trkpt lat="59.0723490715" lon="30.0146055222"><time>2026-04-25T19:15:55Z</time></trkpt><trkpt lat="59.0723490715" lon="30.0145840645"><time>2026-04-25T19:15:57Z</time></trkpt><trkpt lat="59.0723276138" lon="30.0145411491"><time>2026-04-25T19:16:00Z</time></trkpt><trkpt lat="59.0723276138" lon="30.0144982338"><time>2026-04-25T19:16:02Z</time></trkpt><trkpt lat="59.0723276138" lon="30.0144767761"><time>2026-04-25T19:16:05Z</time></trkpt><trkpt lat="59.0723276138" lon="30.0144767761"><time>2026-04-25T19:16:07Z</time></trkpt><trkpt lat="59.0723276138" lon="30.0144767761"><time>2026-04-25T19:16:10Z</time></trkpt><trkpt lat="59.0723276138" lon="30.0144767761"><time>2026-04-25T19:16:12Z</time></trkpt><trkpt lat="59.0723276138" lon="30.0144767761"><time>2026-04-25T19:16:15Z</time></trkpt><trkpt lat="59.0723276138" lon="30.0144767761"><time>2026-04-25T19:16:17Z</time></trkpt><trkpt lat="59.0723276138" lon="30.0144767761"><time>2026-04-25T19:16:20Z</time></trkpt><trkpt lat="59.0723276138" lon="30.0144767761"><time>2026-04-25T19:16:22Z</time></trkpt><trkpt lat="59.0723276138" lon="30.0144767761"><time>2026-04-25T19:16:25Z</time></trkpt><trkpt lat="59.0723276138" lon="30.0144767761"><time>2026-04-25T19:16:27Z</time></trkpt><trkpt lat="59.0723276138" lon="30.0144767761"><time>2026-04-25T19:16:30Z</time></trkpt><trkpt lat="59.0723276138" lon="30.0144767761"><time>2026-04-25T19:16:32Z</time></trkpt><trkpt lat="59.0723276138" lon="30.0144767761"><time>2026-04-25T19:16:35Z</time></trkpt><trkpt lat="59.0723276138" lon="30.0144767761"><time>2026-04-25T19:16:37Z</time></trkpt><trkpt lat="59.0723276138" lon="30.0144767761"><time>2026-04-25T19:16:40Z</time></trkpt><trkpt lat="59.0723276138" lon="30.0144767761"><time>2026-04-25T19:16:42Z</time></trkpt><trkpt lat="59.0723276138" lon="30.0144767761"><time>2026-04-25T19:16:45Z</time></trkpt><trkpt lat="59.0723276138" lon="30.0144767761"><time>2026-04-25T19:16:47Z</time></trkpt><trkpt lat="59.0723276138" lon="30.0144767761"><time>2026-04-25T19:16:50Z</time></trkpt><trkpt lat="59.0723276138" lon="30.0144767761"><time>2026-04-25T19:16:52Z</time></trkpt><trkpt lat="59.0723276138" lon="30.0144767761"><time>2026-04-25T19:16:55Z</time></trkpt><trkpt lat="59.0723276138" lon="30.0144767761"><time>2026-04-25T19:16:57Z</time></trkpt><trkpt lat="59.0723276138" lon="30.0144338608"><time>2026-04-25T19:17:00Z</time></trkpt><trkpt lat="59.0723276138" lon="30.0143909454"><time>2026-04-25T19:17:02Z</time></trkpt><trkpt lat="59.0723490715" lon="30.0143265724"><time>2026-04-25T19:17:05Z</time></trkpt><trkpt lat="59.0723490715" lon="30.0142621994"><time>2026-04-25T19:17:07Z</time></trkpt><trkpt lat="59.0723490715" lon="30.0142192841"><time>2026-04-25T19:17:10Z</time></trkpt><trkpt lat="59.0723490715" lon="30.0141978264"><time>2026-04-25T19:17:12Z</time></trkpt><trkpt lat="59.0723705292" lon="30.0141549110"><time>2026-04-25T19:17:15Z</time></trkpt><trkpt lat="59.0723705292" lon="30.0141334534"><time>2026-04-25T19:17:17Z</time></trkpt><trkpt lat="59.0723490715" lon="30.0140905380"><time>2026-04-25T19:17:20Z</time></trkpt><trkpt lat="59.0723276138" lon="30.0140690804"><time>2026-04-25T19:17:22Z</time></trkpt><trkpt lat="59.0723276138" lon="30.0140261650"><time>2026-04-25T19:17:25Z</time></trkpt><trkpt lat="59.0723061562" lon="30.0139832497"><time>2026-04-25T19:17:27Z</time></trkpt><trkpt lat="59.0722846985" lon="30.0139617920"><time>2026-04-25T19:17:30Z</time></trkpt><trkpt lat="59.0722632408" lon="30.0139403343"><time>2026-04-25T19:17:32Z</time></trkpt><trkpt lat="59.0722417831" lon="30.0139188766"><time>2026-04-25T19:17:35Z</time></trkpt><trkpt lat="59.0722417831" lon="30.0139188766"><time>2026-04-25T19:17:37Z</time></trkpt><trkpt lat="59.0722417831" lon="30.0139188766"><time>2026-04-25T19:17:40Z</time></trkpt><trkpt lat="59.0722203255" lon="30.0138759613"><time>2026-04-25T19:17:42Z</time></trkpt><trkpt lat="59.0721988678" lon="30.0138330460"><time>2026-04-25T19:17:45Z</time></trkpt><trkpt lat="59.0721988678" lon="30.0137901306"><time>2026-04-25T19:17:47Z</time></trkpt><trkpt lat="59.0721774101" lon="30.0137472153"><time>2026-04-25T19:17:50Z</time></trkpt><trkpt lat="59.0721774101" lon="30.0137257576"><time>2026-04-25T19:17:52Z</time></trkpt><trkpt lat="59.0721774101" lon="30.0137257576"><time>2026-04-25T19:17:55Z</time></trkpt><trkpt lat="59.0721774101" lon="30.0137257576"><time>2026-04-25T19:17:57Z</time></trkpt><trkpt lat="59.0721774101" lon="30.0137257576"><time>2026-04-25T19:18:00Z</time></trkpt><trkpt lat="59.0721774101" lon="30.0137257576"><time>2026-04-25T19:18:02Z</time></trkpt><trkpt lat="59.0721774101" lon="30.0137257576"><time>2026-04-25T19:18:05Z</time></trkpt><trkpt lat="59.0721774101" lon="30.0137257576"><time>2026-04-25T19:18:07Z</time></trkpt><trkpt lat="59.0721774101" lon="30.0137257576"><time>2026-04-25T19:18:10Z</time></trkpt><trkpt lat="59.0721774101" lon="30.0137257576"><time>2026-04-25T19:18:12Z</time></trkpt><trkpt lat="59.0721774101" lon="30.0137257576"><time>2026-04-25T19:18:15Z</time></trkpt><trkpt lat="59.0721774101" lon="30.0137257576"><time>2026-04-25T19:18:17Z</time></trkpt><trkpt lat="59.0721774101" lon="30.0137257576"><time>2026-04-25T19:18:20Z</time></trkpt><trkpt lat="59.0721774101" lon="30.0137257576"><time>2026-04-25T19:18:22Z</time></trkpt><trkpt lat="59.0721774101" lon="30.0137257576"><time>2026-04-25T19:18:25Z</time></trkpt><trkpt lat="59.0721774101" lon="30.0137257576"><time>2026-04-25T19:18:27Z</time></trkpt><trkpt lat="59.0721774101" lon="30.0136828423"><time>2026-04-25T19:18:30Z</time></trkpt><trkpt lat="59.0721774101" lon="30.0136399269"><time>2026-04-25T19:18:32Z</time></trkpt><trkpt lat="59.0721559525" lon="30.0135970116"><time>2026-04-25T19:18:35Z</time></trkpt><trkpt lat="59.0721559525" lon="30.0135755539"><time>2026-04-25T19:18:37Z</time></trkpt><trkpt lat="59.0721344948" lon="30.0135111809"><time>2026-04-25T19:18:40Z</time></trkpt><trkpt lat="59.0721130371" lon="30.0134897232"><time>2026-04-25T19:18:42Z</time></trkpt><trkpt lat="59.0721130371" lon="30.0134253502"><time>2026-04-25T19:18:45Z</time></trkpt><trkpt lat="59.0721130371" lon="30.0134038925"><time>2026-04-25T19:18:47Z</time></trkpt><trkpt lat="59.0721130371" lon="30.0133824348"><time>2026-04-25T19:18:50Z</time></trkpt><trkpt lat="59.0721130371" lon="30.0133395195"><time>2026-04-25T19:18:52Z</time></trkpt><trkpt lat="59.0720915794" lon="30.0132966042"><time>2026-04-25T19:18:55Z</time></trkpt><trkpt lat="59.0720915794" lon="30.0132751465"><time>2026-04-25T19:18:57Z</time></trkpt><trkpt lat="59.0720701218" lon="30.0132107735"><time>2026-04-25T19:19:00Z</time></trkpt><trkpt lat="59.0720701218" lon="30.0131893158"><time>2026-04-25T19:19:02Z</time></trkpt><trkpt lat="59.0720701218" lon="30.0131249428"><time>2026-04-25T19:19:05Z</time></trkpt><trkpt lat="59.0720701218" lon="30.0130820274"><time>2026-04-25T19:19:07Z</time></trkpt><trkpt lat="59.0720915794" lon="30.0130176544"><time>2026-04-25T19:19:10Z</time></trkpt><trkpt lat="59.0720915794" lon="30.0129961967"><time>2026-04-25T19:19:12Z</time></trkpt><trkpt lat="59.0720915794" lon="30.0129532814"><time>2026-04-25T19:19:15Z</time></trkpt><trkpt lat="59.0720915794" lon="30.0129318237"><time>2026-04-25T19:19:17Z</time></trkpt><trkpt lat="59.0720915794" lon="30.0129103661"><time>2026-04-25T19:19:20Z</time></trkpt><trkpt lat="59.0721130371" lon="30.0128889084"><time>2026-04-25T19:19:22Z</time></trkpt><trkpt lat="59.0720915794" lon="30.0128459930"><time>2026-04-25T19:19:25Z</time></trkpt><trkpt lat="59.0720915794" lon="30.0128245354"><time>2026-04-25T19:19:27Z</time></trkpt><trkpt lat="59.0720915794" lon="30.0127601624"><time>2026-04-25T19:19:30Z</time></trkpt><trkpt lat="59.0720915794" lon="30.0127172470"><time>2026-04-25T19:19:32Z</time></trkpt><trkpt lat="59.0721130371" lon="30.0126957893"><time>2026-04-25T19:19:35Z</time></trkpt><trkpt lat="59.0721130371" lon="30.0126528740"><time>2026-04-25T19:19:37Z</time></trkpt><trkpt lat="59.0721130371" lon="30.0125885010"><time>2026-04-25T19:19:40Z</time></trkpt><trkpt lat="59.0720915794" lon="30.0125670433"><time>2026-04-25T19:19:42Z</time></trkpt><trkpt lat="59.0720915794" lon="30.0125026703"><time>2026-04-25T19:19:45Z</time></trkpt><trkpt lat="59.0720915794" lon="30.0124597549"><time>2026-04-25T19:19:47Z</time></trkpt><trkpt lat="59.0721130371" lon="30.0124168396"><time>2026-04-25T19:19:50Z</time></trkpt><trkpt lat="59.0721130371" lon="30.0123953819"><time>2026-04-25T19:19:52Z</time></trkpt><trkpt lat="59.0720915794" lon="30.0123310089"><time>2026-04-25T19:19:55Z</time></trkpt><trkpt lat="59.0720915794" lon="30.0122880936"><time>2026-04-25T19:19:57Z</time></trkpt><trkpt lat="59.0720915794" lon="30.0122237206"><time>2026-04-25T19:20:00Z</time></trkpt><trkpt lat="59.0720915794" lon="30.0122022629"><time>2026-04-25T19:20:02Z</time></trkpt><trkpt lat="59.0720701218" lon="30.0121378899"><time>2026-04-25T19:20:05Z</time></trkpt><trkpt lat="59.0720701218" lon="30.0121164322"><time>2026-04-25T19:20:07Z</time></trkpt><trkpt lat="59.0720701218" lon="30.0120735168"><time>2026-04-25T19:20:10Z</time></trkpt><trkpt lat="59.0720701218" lon="30.0120306015"><time>2026-04-25T19:20:12Z</time></trkpt><trkpt lat="59.0720701218" lon="30.0119876862"><time>2026-04-25T19:20:15Z</time></trkpt><trkpt lat="59.0720701218" lon="30.0119662285"><time>2026-04-25T19:20:17Z</time></trkpt><trkpt lat="59.0720701218" lon="30.0119447708"><time>2026-04-25T19:20:20Z</time></trkpt><trkpt lat="59.0720701218" lon="30.0119447708"><time>2026-04-25T19:20:22Z</time></trkpt><trkpt lat="59.0720701218" lon="30.0119447708"><time>2026-04-25T19:20:25Z</time></trkpt><trkpt lat="59.0720701218" lon="30.0119447708"><time>2026-04-25T19:20:27Z</time></trkpt><trkpt lat="59.0720701218" lon="30.0119447708"><time>2026-04-25T19:20:30Z</time></trkpt><trkpt lat="59.0720701218" lon="30.0119447708"><time>2026-04-25T19:20:32Z</time></trkpt><trkpt lat="59.0720701218" lon="30.0119447708"><time>2026-04-25T19:20:35Z</time></trkpt><trkpt lat="59.0720701218" lon="30.0119447708"><time>2026-04-25T19:20:37Z</time></trkpt><trkpt lat="59.0720701218" lon="30.0119447708"><time>2026-04-25T19:20:40Z</time></trkpt><trkpt lat="59.0720701218" lon="30.0119447708"><time>2026-04-25T19:20:42Z</time></trkpt><trkpt lat="59.0720701218" lon="30.0119447708"><time>2026-04-25T19:20:45Z</time></trkpt><trkpt lat="59.0720701218" lon="30.0119447708"><time>2026-04-25T19:20:47Z</time></trkpt><trkpt lat="59.0720701218" lon="30.0119447708"><time>2026-04-25T19:20:50Z</time></trkpt><trkpt lat="59.0720701218" lon="30.0119447708"><time>2026-04-25T19:20:52Z</time></trkpt><trkpt lat="59.0720701218" lon="30.0119018555"><time>2026-04-25T19:20:55Z</time></trkpt><trkpt lat="59.0720486641" lon="30.0118589401"><time>2026-04-25T19:20:57Z</time></trkpt><trkpt lat="59.0720486641" lon="30.0118589401"><time>2026-04-25T19:21:00Z</time></trkpt><trkpt lat="59.0720486641" lon="30.0118589401"><time>2026-04-25T19:21:02Z</time></trkpt><trkpt lat="59.0720486641" lon="30.0118589401"><time>2026-04-25T19:21:05Z</time></trkpt><trkpt lat="59.0720486641" lon="30.0118589401"><time>2026-04-25T19:21:07Z</time></trkpt><trkpt lat="59.0720486641" lon="30.0118589401"><time>2026-04-25T19:21:10Z</time></trkpt><trkpt lat="59.0720486641" lon="30.0118589401"><time>2026-04-25T19:21:12Z</time></trkpt><trkpt lat="59.0720486641" lon="30.0118589401"><time>2026-04-25T19:21:15Z</time></trkpt><trkpt lat="59.0720486641" lon="30.0118589401"><time>2026-04-25T19:21:17Z</time></trkpt><trkpt lat="59.0720486641" lon="30.0118589401"><time>2026-04-25T19:21:20Z</time></trkpt><trkpt lat="59.0720486641" lon="30.0118589401"><time>2026-04-25T19:21:22Z</time></trkpt><trkpt lat="59.0720486641" lon="30.0118589401"><time>2026-04-25T19:21:25Z</time></trkpt><trkpt lat="59.0720486641" lon="30.0118589401"><time>2026-04-25T19:21:27Z</time></trkpt><trkpt lat="59.0720486641" lon="30.0118589401"><time>2026-04-25T19:21:30Z</time></trkpt><trkpt lat="59.0720486641" lon="30.0118589401"><time>2026-04-25T19:21:32Z</time></trkpt><trkpt lat="59.0720486641" lon="30.0118589401"><time>2026-04-25T19:21:35Z</time></trkpt><trkpt lat="59.0720486641" lon="30.0118589401"><time>2026-04-25T19:21:37Z</time></trkpt><trkpt lat="59.0720272064" lon="30.0118803978"><time>2026-04-25T19:21:40Z</time></trkpt><trkpt lat="59.0720057487" lon="30.0118803978"><time>2026-04-25T19:21:42Z</time></trkpt><trkpt lat="59.0719628334" lon="30.0119018555"><time>2026-04-25T19:21:45Z</time></trkpt><trkpt lat="59.0719628334" lon="30.0119018555"><time>2026-04-25T19:21:47Z</time></trkpt><trkpt lat="59.0719413757" lon="30.0119233131"><time>2026-04-25T19:21:50Z</time></trkpt><trkpt lat="59.0719199181" lon="30.0119447708"><time>2026-04-25T19:21:52Z</time></trkpt><trkpt lat="59.0718770027" lon="30.0119447708"><time>2026-04-25T19:21:55Z</time></trkpt><trkpt lat="59.0718555450" lon="30.0119447708"><time>2026-04-25T19:21:57Z</time></trkpt><trkpt lat="59.0718340874" lon="30.0119662285"><time>2026-04-25T19:22:00Z</time></trkpt><trkpt lat="59.0718126297" lon="30.0119876862"><time>2026-04-25T19:22:02Z</time></trkpt><trkpt lat="59.0717911720" lon="30.0120091438"><time>2026-04-25T19:22:05Z</time></trkpt><trkpt lat="59.0717697144" lon="30.0120306015"><time>2026-04-25T19:22:07Z</time></trkpt><trkpt lat="59.0717482567" lon="30.0120735168"><time>2026-04-25T19:22:10Z</time></trkpt><trkpt lat="59.0717267990" lon="30.0120949745"><time>2026-04-25T19:22:12Z</time></trkpt><trkpt lat="59.0717053413" lon="30.0121164322"><time>2026-04-25T19:22:15Z</time></trkpt><trkpt lat="59.0717053413" lon="30.0121378899"><time>2026-04-25T19:22:17Z</time></trkpt><trkpt lat="59.0716838837" lon="30.0121164322"><time>2026-04-25T19:22:20Z</time></trkpt><trkpt lat="59.0716838837" lon="30.0120949745"><time>2026-04-25T19:22:22Z</time></trkpt><trkpt lat="59.0716838837" lon="30.0120735168"><time>2026-04-25T19:22:25Z</time></trkpt><trkpt lat="59.0716624260" lon="30.0120306015"><time>2026-04-25T19:22:27Z</time></trkpt><trkpt lat="59.0716624260" lon="30.0119447708"><time>2026-04-25T19:22:30Z</time></trkpt><trkpt lat="59.0716624260" lon="30.0118803978"><time>2026-04-25T19:22:32Z</time></trkpt><trkpt lat="59.0716624260" lon="30.0118374825"><time>2026-04-25T19:22:35Z</time></trkpt><trkpt lat="59.0716409683" lon="30.0117945671"><time>2026-04-25T19:22:37Z</time></trkpt><trkpt lat="59.0716195107" lon="30.0117087364"><time>2026-04-25T19:22:40Z</time></trkpt><trkpt lat="59.0716195107" lon="30.0116443634"><time>2026-04-25T19:22:42Z</time></trkpt><trkpt lat="59.0715980530" lon="30.0116014481"><time>2026-04-25T19:22:45Z</time></trkpt><trkpt lat="59.0715765953" lon="30.0116014481"><time>2026-04-25T19:22:47Z</time></trkpt><trkpt lat="59.0715765953" lon="30.0116014481"><time>2026-04-25T19:22:50Z</time></trkpt><trkpt lat="59.0715765953" lon="30.0116014481"><time>2026-04-25T19:22:52Z</time></trkpt><trkpt lat="59.0715980530" lon="30.0116014481"><time>2026-04-25T19:22:55Z</time></trkpt><trkpt lat="59.0715980530" lon="30.0115585327"><time>2026-04-25T19:22:57Z</time></trkpt><trkpt lat="59.0715980530" lon="30.0115156174"><time>2026-04-25T19:23:00Z</time></trkpt><trkpt lat="59.0715980530" lon="30.0114512444"><time>2026-04-25T19:23:02Z</time></trkpt><trkpt lat="59.0715980530" lon="30.0114083290"><time>2026-04-25T19:23:05Z</time></trkpt><trkpt lat="59.0715765953" lon="30.0113868713"><time>2026-04-25T19:23:07Z</time></trkpt><trkpt lat="59.0715765953" lon="30.0113224983"><time>2026-04-25T19:23:10Z</time></trkpt><trkpt lat="59.0715551376" lon="30.0113010406"><time>2026-04-25T19:23:12Z</time></trkpt><trkpt lat="59.0715336800" lon="30.0112795830"><time>2026-04-25T19:23:15Z</time></trkpt><trkpt lat="59.0715336800" lon="30.0112366676"><time>2026-04-25T19:23:17Z</time></trkpt><trkpt lat="59.0715336800" lon="30.0111508369"><time>2026-04-25T19:23:20Z</time></trkpt><trkpt lat="59.0715551376" lon="30.0111079216"><time>2026-04-25T19:23:22Z</time></trkpt><trkpt lat="59.0715336800" lon="30.0111079216"><time>2026-04-25T19:23:25Z</time></trkpt><trkpt lat="59.0715336800" lon="30.0110864639"><time>2026-04-25T19:23:27Z</time></trkpt><trkpt lat="59.0715336800" lon="30.0110435486"><time>2026-04-25T19:23:30Z</time></trkpt><trkpt lat="59.0715336800" lon="30.0110006332"><time>2026-04-25T19:23:32Z</time></trkpt><trkpt lat="59.0715122223" lon="30.0109577179"><time>2026-04-25T19:23:35Z</time></trkpt><trkpt lat="59.0715122223" lon="30.0109148026"><time>2026-04-25T19:23:37Z</time></trkpt><trkpt lat="59.0715122223" lon="30.0109148026"><time>2026-04-25T19:23:40Z</time></trkpt><trkpt lat="59.0715122223" lon="30.0109148026"><time>2026-04-25T19:23:42Z</time></trkpt><trkpt lat="59.0715122223" lon="30.0109148026"><time>2026-04-25T19:23:45Z</time></trkpt><trkpt lat="59.0715122223" lon="30.0109148026"><time>2026-04-25T19:23:47Z</time></trkpt><trkpt lat="59.0715122223" lon="30.0108718872"><time>2026-04-25T19:23:50Z</time></trkpt><trkpt lat="59.0715122223" lon="30.0107860565"><time>2026-04-25T19:23:52Z</time></trkpt><trkpt lat="59.0715122223" lon="30.0106787682"><time>2026-04-25T19:23:55Z</time></trkpt><trkpt lat="59.0715122223" lon="30.0106358528"><time>2026-04-25T19:23:57Z</time></trkpt><trkpt lat="59.0714907646" lon="30.0105929375"><time>2026-04-25T19:24:00Z</time></trkpt><trkpt lat="59.0714907646" lon="30.0105714798"><time>2026-04-25T19:24:02Z</time></trkpt><trkpt lat="59.0714907646" lon="30.0105714798"><time>2026-04-25T19:24:05Z</time></trkpt><trkpt lat="59.0714907646" lon="30.0105714798"><time>2026-04-25T19:24:07Z</time></trkpt><trkpt lat="59.0715122223" lon="30.0105500221"><time>2026-04-25T19:24:10Z</time></trkpt><trkpt lat="59.0715122223" lon="30.0104427338"><time>2026-04-25T19:24:12Z</time></trkpt><trkpt lat="59.0714907646" lon="30.0102925301"><time>2026-04-25T19:24:15Z</time></trkpt><trkpt lat="59.0714693069" lon="30.0102066994"><time>2026-04-25T19:24:17Z</time></trkpt><trkpt lat="59.0714478493" lon="30.0101423264"><time>2026-04-25T19:24:20Z</time></trkpt><trkpt lat="59.0714263916" lon="30.0100994110"><time>2026-04-25T19:24:22Z</time></trkpt><trkpt lat="59.0714263916" lon="30.0100135803"><time>2026-04-25T19:24:25Z</time></trkpt><trkpt lat="59.0714049339" lon="30.0099492073"><time>2026-04-25T19:24:27Z</time></trkpt><trkpt lat="59.0714049339" lon="30.0098848343"><time>2026-04-25T19:24:30Z</time></trkpt><trkpt lat="59.0714263916" lon="30.0098204613"><time>2026-04-25T19:24:32Z</time></trkpt><trkpt lat="59.0714263916" lon="30.0097560883"><time>2026-04-25T19:24:35Z</time></trkpt><trkpt lat="59.0714263916" lon="30.0097131729"><time>2026-04-25T19:24:37Z</time></trkpt><trkpt lat="59.0714263916" lon="30.0096273422"><time>2026-04-25T19:24:40Z</time></trkpt><trkpt lat="59.0714049339" lon="30.0095844269"><time>2026-04-25T19:24:42Z</time></trkpt><trkpt lat="59.0714049339" lon="30.0095200539"><time>2026-04-25T19:24:45Z</time></trkpt><trkpt lat="59.0713834763" lon="30.0094771385"><time>2026-04-25T19:24:47Z</time></trkpt><trkpt lat="59.0713834763" lon="30.0094342232"><time>2026-04-25T19:24:50Z</time></trkpt><trkpt lat="59.0713620186" lon="30.0093913078"><time>2026-04-25T19:24:52Z</time></trkpt><trkpt lat="59.0713405609" lon="30.0093483925"><time>2026-04-25T19:24:55Z</time></trkpt><trkpt lat="59.0713191032" lon="30.0092840195"><time>2026-04-25T19:24:57Z</time></trkpt><trkpt lat="59.0713191032" lon="30.0092196465"><time>2026-04-25T19:25:00Z</time></trkpt><trkpt lat="59.0713191032" lon="30.0091767311"><time>2026-04-25T19:25:02Z</time></trkpt><trkpt lat="59.0713191032" lon="30.0090909004"><time>2026-04-25T19:25:05Z</time></trkpt><trkpt lat="59.0713191032" lon="30.0090479851"><time>2026-04-25T19:25:07Z</time></trkpt><trkpt lat="59.0712976456" lon="30.0089621544"><time>2026-04-25T19:25:10Z</time></trkpt><trkpt lat="59.0712976456" lon="30.0089192390"><time>2026-04-25T19:25:12Z</time></trkpt><trkpt lat="59.0712976456" lon="30.0088334084"><time>2026-04-25T19:25:15Z</time></trkpt><trkpt lat="59.0712761879" lon="30.0087904930"><time>2026-04-25T19:25:17Z</time></trkpt><trkpt lat="59.0712547302" lon="30.0087475777"><time>2026-04-25T19:25:20Z</time></trkpt><trkpt lat="59.0712547302" lon="30.0087046623"><time>2026-04-25T19:25:22Z</time></trkpt><trkpt lat="59.0712547302" lon="30.0086617470"><time>2026-04-25T19:25:25Z</time></trkpt><trkpt lat="59.0712547302" lon="30.0086617470"><time>2026-04-25T19:25:27Z</time></trkpt><trkpt lat="59.0712547302" lon="30.0086617470"><time>2026-04-25T19:25:30Z</time></trkpt><trkpt lat="59.0712547302" lon="30.0086617470"><time>2026-04-25T19:25:32Z</time></trkpt><trkpt lat="59.0712547302" lon="30.0086617470"><time>2026-04-25T19:25:35Z</time></trkpt><trkpt lat="59.0712547302" lon="30.0086617470"><time>2026-04-25T19:25:37Z</time></trkpt><trkpt lat="59.0712547302" lon="30.0086617470"><time>2026-04-25T19:25:40Z</time></trkpt><trkpt lat="59.0712547302" lon="30.0086617470"><time>2026-04-25T19:25:42Z</time></trkpt><trkpt lat="59.0712547302" lon="30.0086617470"><time>2026-04-25T19:25:45Z</time></trkpt><trkpt lat="59.0712547302" lon="30.0086617470"><time>2026-04-25T19:25:47Z</time></trkpt><trkpt lat="59.0712547302" lon="30.0086617470"><time>2026-04-25T19:25:50Z</time></trkpt><trkpt lat="59.0712547302" lon="30.0086617470"><time>2026-04-25T19:25:52Z</time></trkpt><trkpt lat="59.0712332726" lon="30.0086188316"><time>2026-04-25T19:25:55Z</time></trkpt><trkpt lat="59.0712332726" lon="30.0085973740"><time>2026-04-25T19:25:57Z</time></trkpt><trkpt lat="59.0712332726" lon="30.0085330009"><time>2026-04-25T19:26:00Z</time></trkpt><trkpt lat="59.0712332726" lon="30.0085330009"><time>2026-04-25T19:26:02Z</time></trkpt><trkpt lat="59.0712332726" lon="30.0085330009"><time>2026-04-25T19:26:05Z</time></trkpt><trkpt lat="59.0712332726" lon="30.0085330009"><time>2026-04-25T19:26:07Z</time></trkpt><trkpt lat="59.0712332726" lon="30.0085330009"><time>2026-04-25T19:26:10Z</time></trkpt><trkpt lat="59.0712332726" lon="30.0085330009"><time>2026-04-25T19:26:12Z</time></trkpt><trkpt lat="59.0712332726" lon="30.0085330009"><time>2026-04-25T19:26:15Z</time></trkpt><trkpt lat="59.0712332726" lon="30.0085330009"><time>2026-04-25T19:26:17Z</time></trkpt><trkpt lat="59.0712332726" lon="30.0085330009"><time>2026-04-25T19:26:20Z</time></trkpt><trkpt lat="59.0712332726" lon="30.0085330009"><time>2026-04-25T19:26:22Z</time></trkpt><trkpt lat="59.0712332726" lon="30.0085330009"><time>2026-04-25T19:26:25Z</time></trkpt><trkpt lat="59.0712332726" lon="30.0085330009"><time>2026-04-25T19:26:27Z</time></trkpt><trkpt lat="59.0712332726" lon="30.0085330009"><time>2026-04-25T19:26:30Z</time></trkpt><trkpt lat="59.0712332726" lon="30.0085330009"><time>2026-04-25T19:26:32Z</time></trkpt><trkpt lat="59.0712332726" lon="30.0085330009"><time>2026-04-25T19:26:35Z</time></trkpt><trkpt lat="59.0712332726" lon="30.0085330009"><time>2026-04-25T19:26:37Z</time></trkpt><trkpt lat="59.0712332726" lon="30.0085330009"><time>2026-04-25T19:26:40Z</time></trkpt><trkpt lat="59.0712332726" lon="30.0085330009"><time>2026-04-25T19:26:42Z</time></trkpt><trkpt lat="59.0712332726" lon="30.0085330009"><time>2026-04-25T19:26:45Z</time></trkpt><trkpt lat="59.0712118149" lon="30.0085115433"><time>2026-04-25T19:26:47Z</time></trkpt><trkpt lat="59.0711903572" lon="30.0084686279"><time>2026-04-25T19:26:50Z</time></trkpt><trkpt lat="59.0711903572" lon="30.0084686279"><time>2026-04-25T19:26:52Z</time></trkpt><trkpt lat="59.0711903572" lon="30.0084686279"><time>2026-04-25T19:26:55Z</time></trkpt><trkpt lat="59.0711903572" lon="30.0084686279"><time>2026-04-25T19:26:57Z</time></trkpt><trkpt lat="59.0712118149" lon="30.0084900856"><time>2026-04-25T19:27:00Z</time></trkpt><trkpt lat="59.0712118149" lon="30.0084900856"><time>2026-04-25T19:27:02Z</time></trkpt><trkpt lat="59.0712118149" lon="30.0084900856"><time>2026-04-25T19:27:05Z</time></trkpt><trkpt lat="59.0712118149" lon="30.0084900856"><time>2026-04-25T19:27:07Z</time></trkpt><trkpt lat="59.0712118149" lon="30.0084900856"><time>2026-04-25T19:27:10Z</time></trkpt><trkpt lat="59.0712118149" lon="30.0084900856"><time>2026-04-25T19:27:12Z</time></trkpt><trkpt lat="59.0712118149" lon="30.0084900856"><time>2026-04-25T19:27:15Z</time></trkpt><trkpt lat="59.0712118149" lon="30.0084900856"><time>2026-04-25T19:27:17Z</time></trkpt><trkpt lat="59.0712118149" lon="30.0084900856"><time>2026-04-25T19:27:20Z</time></trkpt><trkpt lat="59.0712118149" lon="30.0084900856"><time>2026-04-25T19:27:22Z</time></trkpt><trkpt lat="59.0712118149" lon="30.0084900856"><time>2026-04-25T19:27:25Z</time></trkpt><trkpt lat="59.0712118149" lon="30.0084900856"><time>2026-04-25T19:27:27Z</time></trkpt><trkpt lat="59.0712118149" lon="30.0084900856"><time>2026-04-25T19:27:30Z</time></trkpt><trkpt lat="59.0712118149" lon="30.0084900856"><time>2026-04-25T19:27:32Z</time></trkpt><trkpt lat="59.0712118149" lon="30.0084900856"><time>2026-04-25T19:27:35Z</time></trkpt><trkpt lat="59.0712118149" lon="30.0084900856"><time>2026-04-25T19:27:37Z</time></trkpt><trkpt lat="59.0712118149" lon="30.0084900856"><time>2026-04-25T19:27:40Z</time></trkpt><trkpt lat="59.0712118149" lon="30.0084900856"><time>2026-04-25T19:27:42Z</time></trkpt><trkpt lat="59.0712118149" lon="30.0084900856"><time>2026-04-25T19:27:45Z</time></trkpt><trkpt lat="59.0712118149" lon="30.0084900856"><time>2026-04-25T19:27:47Z</time></trkpt><trkpt lat="59.0712118149" lon="30.0084900856"><time>2026-04-25T19:27:50Z</time></trkpt><trkpt lat="59.0712118149" lon="30.0084900856"><time>2026-04-25T19:27:52Z</time></trkpt><trkpt lat="59.0712118149" lon="30.0084686279"><time>2026-04-25T19:27:55Z</time></trkpt><trkpt lat="59.0712118149" lon="30.0084686279"><time>2026-04-25T19:27:57Z</time></trkpt><trkpt lat="59.0712118149" lon="30.0084686279"><time>2026-04-25T19:28:00Z</time></trkpt><trkpt lat="59.0712118149" lon="30.0084686279"><time>2026-04-25T19:28:02Z</time></trkpt><trkpt lat="59.0712118149" lon="30.0084257126"><time>2026-04-25T19:28:05Z</time></trkpt><trkpt lat="59.0711903572" lon="30.0084042549"><time>2026-04-25T19:28:07Z</time></trkpt><trkpt lat="59.0711903572" lon="30.0084257126"><time>2026-04-25T19:28:10Z</time></trkpt><trkpt lat="59.0712118149" lon="30.0084042549"><time>2026-04-25T19:28:12Z</time></trkpt><trkpt lat="59.0712332726" lon="30.0084471703"><time>2026-04-25T19:28:15Z</time></trkpt><trkpt lat="59.0712547302" lon="30.0084900856"><time>2026-04-25T19:28:17Z</time></trkpt><trkpt lat="59.0712332726" lon="30.0085115433"><time>2026-04-25T19:28:20Z</time></trkpt><trkpt lat="59.0712332726" lon="30.0084900856"><time>2026-04-25T19:28:22Z</time></trkpt><trkpt lat="59.0712332726" lon="30.0084900856"><time>2026-04-25T19:28:25Z</time></trkpt><trkpt lat="59.0712118149" lon="30.0084900856"><time>2026-04-25T19:28:27Z</time></trkpt><trkpt lat="59.0712118149" lon="30.0084900856"><time>2026-04-25T19:28:30Z</time></trkpt><trkpt lat="59.0712118149" lon="30.0084900856"><time>2026-04-25T19:28:32Z</time></trkpt><trkpt lat="59.0712118149" lon="30.0084900856"><time>2026-04-25T19:28:35Z</time></trkpt><trkpt lat="59.0712118149" lon="30.0084900856"><time>2026-04-25T19:28:37Z</time></trkpt><trkpt lat="59.0712118149" lon="30.0084900856"><time>2026-04-25T19:28:40Z</time></trkpt><trkpt lat="59.0712118149" lon="30.0084900856"><time>2026-04-25T19:28:42Z</time></trkpt><trkpt lat="59.0712118149" lon="30.0084900856"><time>2026-04-25T19:28:45Z</time></trkpt><trkpt lat="59.0712118149" lon="30.0084900856"><time>2026-04-25T19:28:47Z</time></trkpt><trkpt lat="59.0712118149" lon="30.0084900856"><time>2026-04-25T19:28:50Z</time></trkpt><trkpt lat="59.0712118149" lon="30.0084900856"><time>2026-04-25T19:28:52Z</time></trkpt><trkpt lat="59.0712118149" lon="30.0084900856"><time>2026-04-25T19:28:55Z</time></trkpt><trkpt lat="59.0712118149" lon="30.0084900856"><time>2026-04-25T19:28:57Z</time></trkpt><trkpt lat="59.0712118149" lon="30.0084900856"><time>2026-04-25T19:29:00Z</time></trkpt><trkpt lat="59.0712118149" lon="30.0084900856"><time>2026-04-25T19:29:02Z</time></trkpt><trkpt lat="59.0712118149" lon="30.0084900856"><time>2026-04-25T19:29:05Z</time></trkpt><trkpt lat="59.0712118149" lon="30.0084900856"><time>2026-04-25T19:29:07Z</time></trkpt><trkpt lat="59.0712118149" lon="30.0084900856"><time>2026-04-25T19:29:10Z</time></trkpt><trkpt lat="59.0712332726" lon="30.0084686279"><time>2026-04-25T19:29:15Z</time></trkpt><trkpt lat="59.0712332726" lon="30.0084686279"><time>2026-04-25T19:29:17Z</time></trkpt><trkpt lat="59.0712332726" lon="30.0084686279"><time>2026-04-25T19:29:20Z</time></trkpt><trkpt lat="59.0712332726" lon="30.0084686279"><time>2026-04-25T19:29:22Z</time></trkpt><trkpt lat="59.0712332726" lon="30.0084686279"><time>2026-04-25T19:29:25Z</time></trkpt><trkpt lat="59.0712332726" lon="30.0084686279"><time>2026-04-25T19:29:27Z</time></trkpt><trkpt lat="59.0712332726" lon="30.0084686279"><time>2026-04-25T19:29:30Z</time></trkpt><trkpt lat="59.0712332726" lon="30.0084686279"><time>2026-04-25T19:29:32Z</time></trkpt><trkpt lat="59.0712332726" lon="30.0084686279"><time>2026-04-25T19:29:35Z</time></trkpt><trkpt lat="59.0712332726" lon="30.0084686279"><time>2026-04-25T19:29:37Z</time></trkpt><trkpt lat="59.0712332726" lon="30.0084686279"><time>2026-04-25T19:29:40Z</time></trkpt><trkpt lat="59.0712332726" lon="30.0084686279"><time>2026-04-25T19:29:42Z</time></trkpt><trkpt lat="59.0712332726" lon="30.0084686279"><time>2026-04-25T19:29:45Z</time></trkpt><trkpt lat="59.0712332726" lon="30.0084686279"><time>2026-04-25T19:29:47Z</time></trkpt><trkpt lat="59.0712332726" lon="30.0084686279"><time>2026-04-25T19:29:50Z</time></trkpt><trkpt lat="59.0712332726" lon="30.0084686279"><time>2026-04-25T19:29:52Z</time></trkpt><trkpt lat="59.0712332726" lon="30.0084686279"><time>2026-04-25T19:29:55Z</time></trkpt><trkpt lat="59.0712332726" lon="30.0084686279"><time>2026-04-25T19:29:57Z</time></trkpt><trkpt lat="59.0712332726" lon="30.0084686279"><time>2026-04-25T19:30:00Z</time></trkpt><trkpt lat="59.0712332726" lon="30.0084686279"><time>2026-04-25T19:30:02Z</time></trkpt><trkpt lat="59.0712332726" lon="30.0084686279"><time>2026-04-25T19:30:05Z</time></trkpt><trkpt lat="59.0712332726" lon="30.0084686279"><time>2026-04-25T19:30:07Z</time></trkpt><trkpt lat="59.0712332726" lon="30.0084686279"><time>2026-04-25T19:30:10Z</time></trkpt><trkpt lat="59.0712332726" lon="30.0084686279"><time>2026-04-25T19:30:12Z</time></trkpt><trkpt lat="59.0712332726" lon="30.0084686279"><time>2026-04-25T19:30:15Z</time></trkpt><trkpt lat="59.0712332726" lon="30.0084686279"><time>2026-04-25T19:30:17Z</time></trkpt><trkpt lat="59.0712332726" lon="30.0084686279"><time>2026-04-25T19:30:20Z</time></trkpt><trkpt lat="59.0712332726" lon="30.0084686279"><time>2026-04-25T19:30:22Z</time></trkpt><trkpt lat="59.0712332726" lon="30.0084686279"><time>2026-04-25T19:30:25Z</time></trkpt><trkpt lat="59.0712332726" lon="30.0084686279"><time>2026-04-25T19:30:27Z</time></trkpt><trkpt lat="59.0712332726" lon="30.0084686279"><time>2026-04-25T19:30:30Z</time></trkpt><trkpt lat="59.0712332726" lon="30.0084686279"><time>2026-04-25T19:30:32Z</time></trkpt><trkpt lat="59.0712332726" lon="30.0084686279"><time>2026-04-25T19:30:35Z</time></trkpt><trkpt lat="59.0712332726" lon="30.0084686279"><time>2026-04-25T19:30:37Z</time></trkpt><trkpt lat="59.0712332726" lon="30.0084686279"><time>2026-04-25T19:30:40Z</time></trkpt><trkpt lat="59.0712332726" lon="30.0084686279"><time>2026-04-25T19:30:42Z</time></trkpt><trkpt lat="59.0712332726" lon="30.0084686279"><time>2026-04-25T19:30:45Z</time></trkpt><trkpt lat="59.0712332726" lon="30.0084686279"><time>2026-04-25T19:30:47Z</time></trkpt><trkpt lat="59.0712332726" lon="30.0084686279"><time>2026-04-25T19:30:50Z</time></trkpt><trkpt lat="59.0712332726" lon="30.0084686279"><time>2026-04-25T19:30:52Z</time></trkpt><trkpt lat="59.0712332726" lon="30.0084900856"><time>2026-04-25T19:30:55Z</time></trkpt><trkpt lat="59.0712118149" lon="30.0084686279"><time>2026-04-25T19:30:57Z</time></trkpt><trkpt lat="59.0712118149" lon="30.0084471703"><time>2026-04-25T19:31:00Z</time></trkpt><trkpt lat="59.0712118149" lon="30.0084471703"><time>2026-04-25T19:31:02Z</time></trkpt><trkpt lat="59.0712118149" lon="30.0084471703"><time>2026-04-25T19:31:05Z</time></trkpt><trkpt lat="59.0712118149" lon="30.0084471703"><time>2026-04-25T19:31:07Z</time></trkpt><trkpt lat="59.0711903572" lon="30.0084257126"><time>2026-04-25T19:31:10Z</time></trkpt><trkpt lat="59.0711903572" lon="30.0084257126"><time>2026-04-25T19:31:12Z</time></trkpt><trkpt lat="59.0711903572" lon="30.0084257126"><time>2026-04-25T19:31:15Z</time></trkpt><trkpt lat="59.0711903572" lon="30.0084257126"><time>2026-04-25T19:31:17Z</time></trkpt><trkpt lat="59.0711903572" lon="30.0084257126"><time>2026-04-25T19:31:22Z</time></trkpt><trkpt lat="59.0711903572" lon="30.0084257126"><time>2026-04-25T19:31:25Z</time></trkpt><trkpt lat="59.0711903572" lon="30.0084257126"><time>2026-04-25T19:31:27Z</time></trkpt><trkpt lat="59.0711903572" lon="30.0084257126"><time>2026-04-25T19:31:30Z</time></trkpt><trkpt lat="59.0711903572" lon="30.0084257126"><time>2026-04-25T19:31:32Z</time></trkpt><trkpt lat="59.0711903572" lon="30.0084257126"><time>2026-04-25T19:31:35Z</time></trkpt><trkpt lat="59.0711903572" lon="30.0084257126"><time>2026-04-25T19:31:37Z</time></trkpt><trkpt lat="59.0711903572" lon="30.0084257126"><time>2026-04-25T19:31:40Z</time></trkpt><trkpt lat="59.0711903572" lon="30.0084257126"><time>2026-04-25T19:31:42Z</time></trkpt><trkpt lat="59.0711903572" lon="30.0084257126"><time>2026-04-25T19:31:45Z</time></trkpt><trkpt lat="59.0711903572" lon="30.0084257126"><time>2026-04-25T19:31:47Z</time></trkpt><trkpt lat="59.0711903572" lon="30.0084471703"><time>2026-04-25T19:31:50Z</time></trkpt><trkpt lat="59.0711903572" lon="30.0084686279"><time>2026-04-25T19:31:52Z</time></trkpt><trkpt lat="59.0711903572" lon="30.0084686279"><time>2026-04-25T19:31:55Z</time></trkpt><trkpt lat="59.0711903572" lon="30.0084686279"><time>2026-04-25T19:31:57Z</time></trkpt><trkpt lat="59.0711903572" lon="30.0084686279"><time>2026-04-25T19:32:00Z</time></trkpt><trkpt lat="59.0711903572" lon="30.0084686279"><time>2026-04-25T19:32:02Z</time></trkpt><trkpt lat="59.0711903572" lon="30.0084686279"><time>2026-04-25T19:32:05Z</time></trkpt><trkpt lat="59.0711903572" lon="30.0084686279"><time>2026-04-25T19:32:07Z</time></trkpt><trkpt lat="59.0711903572" lon="30.0084686279"><time>2026-04-25T19:32:10Z</time></trkpt><trkpt lat="59.0711903572" lon="30.0084686279"><time>2026-04-25T19:32:12Z</time></trkpt><trkpt lat="59.0711903572" lon="30.0084686279"><time>2026-04-25T19:32:15Z</time></trkpt><trkpt lat="59.0711903572" lon="30.0084686279"><time>2026-04-25T19:32:17Z</time></trkpt><trkpt lat="59.0711903572" lon="30.0084686279"><time>2026-04-25T19:32:20Z</time></trkpt><trkpt lat="59.0711903572" lon="30.0084686279"><time>2026-04-25T19:32:22Z</time></trkpt><trkpt lat="59.0711903572" lon="30.0084686279"><time>2026-04-25T19:32:25Z</time></trkpt><trkpt lat="59.0711903572" lon="30.0084686279"><time>2026-04-25T19:32:27Z</time></trkpt><trkpt lat="59.0711903572" lon="30.0084686279"><time>2026-04-25T19:32:30Z</time></trkpt><trkpt lat="59.0711903572" lon="30.0084686279"><time>2026-04-25T19:32:32Z</time></trkpt><trkpt lat="59.0711903572" lon="30.0084686279"><time>2026-04-25T19:32:35Z</time></trkpt><trkpt lat="59.0711903572" lon="30.0084686279"><time>2026-04-25T19:32:37Z</time></trkpt><trkpt lat="59.0711903572" lon="30.0084686279"><time>2026-04-25T19:32:40Z</time></trkpt><trkpt lat="59.0711903572" lon="30.0084686279"><time>2026-04-25T19:32:42Z</time></trkpt><trkpt lat="59.0711903572" lon="30.0084686279"><time>2026-04-25T19:32:45Z</time></trkpt><trkpt lat="59.0711903572" lon="30.0084686279"><time>2026-04-25T19:32:47Z</time></trkpt><trkpt lat="59.0711903572" lon="30.0084686279"><time>2026-04-25T19:32:50Z</time></trkpt><trkpt lat="59.0711903572" lon="30.0084686279"><time>2026-04-25T19:32:52Z</time></trkpt><trkpt lat="59.0711903572" lon="30.0084686279"><time>2026-04-25T19:32:55Z</time></trkpt><trkpt lat="59.0711903572" lon="30.0084686279"><time>2026-04-25T19:32:57Z</time></trkpt><trkpt lat="59.0711903572" lon="30.0084686279"><time>2026-04-25T19:33:00Z</time></trkpt><trkpt lat="59.0711903572" lon="30.0084686279"><time>2026-04-25T19:33:02Z</time></trkpt><trkpt lat="59.0711903572" lon="30.0084686279"><time>2026-04-25T19:33:05Z</time></trkpt><trkpt lat="59.0711903572" lon="30.0084686279"><time>2026-04-25T19:33:07Z</time></trkpt><trkpt lat="59.0711903572" lon="30.0084686279"><time>2026-04-25T19:33:10Z</time></trkpt><trkpt lat="59.0711903572" lon="30.0084686279"><time>2026-04-25T19:33:12Z</time></trkpt><trkpt lat="59.0711903572" lon="30.0084686279"><time>2026-04-25T19:33:15Z</time></trkpt><trkpt lat="59.0711903572" lon="30.0084686279"><time>2026-04-25T19:33:17Z</time></trkpt><trkpt lat="59.0711903572" lon="30.0084686279"><time>2026-04-25T19:33:20Z</time></trkpt><trkpt lat="59.0711903572" lon="30.0084686279"><time>2026-04-25T19:33:22Z</time></trkpt><trkpt lat="59.0711903572" lon="30.0084686279"><time>2026-04-25T19:33:25Z</time></trkpt><trkpt lat="59.0711903572" lon="30.0084686279"><time>2026-04-25T19:33:27Z</time></trkpt><trkpt lat="59.0711903572" lon="30.0084686279"><time>2026-04-25T19:33:30Z</time></trkpt><trkpt lat="59.0711903572" lon="30.0084686279"><time>2026-04-25T19:33:32Z</time></trkpt><trkpt lat="59.0711903572" lon="30.0084686279"><time>2026-04-25T19:33:35Z</time></trkpt><trkpt lat="59.0711903572" lon="30.0084686279"><time>2026-04-25T19:33:37Z</time></trkpt><trkpt lat="59.0711903572" lon="30.0084686279"><time>2026-04-25T19:33:40Z</time></trkpt><trkpt lat="59.0711903572" lon="30.0084686279"><time>2026-04-25T19:33:42Z</time></trkpt><trkpt lat="59.0711903572" lon="30.0084686279"><time>2026-04-25T19:33:45Z</time></trkpt><trkpt lat="59.0711903572" lon="30.0084686279"><time>2026-04-25T19:33:47Z</time></trkpt><trkpt lat="59.0711903572" lon="30.0084686279"><time>2026-04-25T19:33:50Z</time></trkpt><trkpt lat="59.0711903572" lon="30.0084686279"><time>2026-04-25T19:33:52Z</time></trkpt><trkpt lat="59.0711903572" lon="30.0084686279"><time>2026-04-25T19:33:55Z</time></trkpt><trkpt lat="59.0711903572" lon="30.0084686279"><time>2026-04-25T19:33:57Z</time></trkpt><trkpt lat="59.0711903572" lon="30.0084686279"><time>2026-04-25T19:34:00Z</time></trkpt><trkpt lat="59.0711903572" lon="30.0084686279"><time>2026-04-25T19:34:02Z</time></trkpt><trkpt lat="59.0712118149" lon="30.0084686279"><time>2026-04-25T19:34:05Z</time></trkpt><trkpt lat="59.0712118149" lon="30.0084686279"><time>2026-04-25T19:34:07Z</time></trkpt><trkpt lat="59.0712118149" lon="30.0084686279"><time>2026-04-25T19:34:10Z</time></trkpt><trkpt lat="59.0712118149" lon="30.0084686279"><time>2026-04-25T19:34:12Z</time></trkpt><trkpt lat="59.0712118149" lon="30.0084686279"><time>2026-04-25T19:34:15Z</time></trkpt><trkpt lat="59.0712118149" lon="30.0084686279"><time>2026-04-25T19:34:17Z</time></trkpt><trkpt lat="59.0712118149" lon="30.0084686279"><time>2026-04-25T19:34:20Z</time></trkpt><trkpt lat="59.0712118149" lon="30.0084686279"><time>2026-04-25T19:34:22Z</time></trkpt><trkpt lat="59.0712118149" lon="30.0084686279"><time>2026-04-25T19:34:25Z</time></trkpt><trkpt lat="59.0712118149" lon="30.0084686279"><time>2026-04-25T19:34:27Z</time></trkpt><trkpt lat="59.0712118149" lon="30.0084686279"><time>2026-04-25T19:34:30Z</time></trkpt><trkpt lat="59.0712118149" lon="30.0084686279"><time>2026-04-25T19:34:32Z</time></trkpt><trkpt lat="59.0712118149" lon="30.0084686279"><time>2026-04-25T19:34:35Z</time></trkpt><trkpt lat="59.0712118149" lon="30.0084686279"><time>2026-04-25T19:34:37Z</time></trkpt><trkpt lat="59.0712118149" lon="30.0084686279"><time>2026-04-25T19:34:40Z</time></trkpt><trkpt lat="59.0712118149" lon="30.0084686279"><time>2026-04-25T19:34:42Z</time></trkpt><trkpt lat="59.0712118149" lon="30.0084686279"><time>2026-04-25T19:34:45Z</time></trkpt><trkpt lat="59.0712118149" lon="30.0084686279"><time>2026-04-25T19:34:47Z</time></trkpt><trkpt lat="59.0712118149" lon="30.0084686279"><time>2026-04-25T19:34:50Z</time></trkpt><trkpt lat="59.0712118149" lon="30.0084686279"><time>2026-04-25T19:34:52Z</time></trkpt><trkpt lat="59.0712118149" lon="30.0084686279"><time>2026-04-25T19:34:55Z</time></trkpt><trkpt lat="59.0712118149" lon="30.0084686279"><time>2026-04-25T19:34:57Z</time></trkpt><trkpt lat="59.0712118149" lon="30.0084686279"><time>2026-04-25T19:35:00Z</time></trkpt><trkpt lat="59.0712118149" lon="30.0084686279"><time>2026-04-25T19:35:02Z</time></trkpt><trkpt lat="59.0712118149" lon="30.0084686279"><time>2026-04-25T19:35:05Z</time></trkpt><trkpt lat="59.0712118149" lon="30.0084686279"><time>2026-04-25T19:35:07Z</time></trkpt><trkpt lat="59.0712118149" lon="30.0084686279"><time>2026-04-25T19:35:10Z</time></trkpt><trkpt lat="59.0712118149" lon="30.0084686279"><time>2026-04-25T19:35:12Z</time></trkpt><trkpt lat="59.0712118149" lon="30.0084686279"><time>2026-04-25T19:35:15Z</time></trkpt><trkpt lat="59.0712118149" lon="30.0084686279"><time>2026-04-25T19:35:17Z</time></trkpt><trkpt lat="59.0712118149" lon="30.0084686279"><time>2026-04-25T19:35:20Z</time></trkpt><trkpt lat="59.0712118149" lon="30.0084686279"><time>2026-04-25T19:35:22Z</time></trkpt><trkpt lat="59.0712118149" lon="30.0084686279"><time>2026-04-25T19:35:25Z</time></trkpt><trkpt lat="59.0712118149" lon="30.0084686279"><time>2026-04-25T19:35:27Z</time></trkpt><trkpt lat="59.0712118149" lon="30.0084686279"><time>2026-04-25T19:35:30Z</time></trkpt><trkpt lat="59.0712118149" lon="30.0084686279"><time>2026-04-25T19:35:32Z</time></trkpt><trkpt lat="59.0712118149" lon="30.0084686279"><time>2026-04-25T19:35:35Z</time></trkpt><trkpt lat="59.0712118149" lon="30.0084686279"><time>2026-04-25T19:35:37Z</time></trkpt><trkpt lat="59.0712118149" lon="30.0084686279"><time>2026-04-25T19:35:40Z</time></trkpt><trkpt lat="59.0712118149" lon="30.0084686279"><time>2026-04-25T19:35:42Z</time></trkpt><trkpt lat="59.0712118149" lon="30.0084686279"><time>2026-04-25T19:35:45Z</time></trkpt><trkpt lat="59.0712118149" lon="30.0084686279"><time>2026-04-25T19:35:47Z</time></trkpt><trkpt lat="59.0712332726" lon="30.0084686279"><time>2026-04-25T19:35:50Z</time></trkpt><trkpt lat="59.0712547302" lon="30.0084686279"><time>2026-04-25T19:35:52Z</time></trkpt><trkpt lat="59.0712547302" lon="30.0084686279"><time>2026-04-25T19:35:55Z</time></trkpt><trkpt lat="59.0712761879" lon="30.0084471703"><time>2026-04-25T19:35:57Z</time></trkpt><trkpt lat="59.0712976456" lon="30.0084257126"><time>2026-04-25T19:36:00Z</time></trkpt><trkpt lat="59.0713191032" lon="30.0084042549"><time>2026-04-25T19:36:02Z</time></trkpt><trkpt lat="59.0713834763" lon="30.0083827972"><time>2026-04-25T19:36:05Z</time></trkpt><trkpt lat="59.0713834763" lon="30.0083613396"><time>2026-04-25T19:36:07Z</time></trkpt><trkpt lat="59.0713834763" lon="30.0083613396"><time>2026-04-25T19:36:10Z</time></trkpt><trkpt lat="59.0713834763" lon="30.0083613396"><time>2026-04-25T19:36:12Z</time></trkpt><trkpt lat="59.0714049339" lon="30.0083398819"><time>2026-04-25T19:36:15Z</time></trkpt><trkpt lat="59.0714049339" lon="30.0083398819"><time>2026-04-25T19:36:17Z</time></trkpt><trkpt lat="59.0714049339" lon="30.0082755089"><time>2026-04-25T19:36:20Z</time></trkpt><trkpt lat="59.0714263916" lon="30.0082540512"><time>2026-04-25T19:36:22Z</time></trkpt><trkpt lat="59.0714263916" lon="30.0082540512"><time>2026-04-25T19:36:25Z</time></trkpt><trkpt lat="59.0714478493" lon="30.0082325935"><time>2026-04-25T19:36:27Z</time></trkpt><trkpt lat="59.0714693069" lon="30.0082540512"><time>2026-04-25T19:36:30Z</time></trkpt><trkpt lat="59.0714693069" lon="30.0082540512"><time>2026-04-25T19:36:32Z</time></trkpt><trkpt lat="59.0714693069" lon="30.0082540512"><time>2026-04-25T19:36:35Z</time></trkpt><trkpt lat="59.0714693069" lon="30.0082540512"><time>2026-04-25T19:36:37Z</time></trkpt><trkpt lat="59.0714907646" lon="30.0082540512"><time>2026-04-25T19:36:40Z</time></trkpt><trkpt lat="59.0715122223" lon="30.0082540512"><time>2026-04-25T19:36:42Z</time></trkpt><trkpt lat="59.0715336800" lon="30.0082540512"><time>2026-04-25T19:36:45Z</time></trkpt><trkpt lat="59.0715765953" lon="30.0082540512"><time>2026-04-25T19:36:47Z</time></trkpt><trkpt lat="59.0715765953" lon="30.0082755089"><time>2026-04-25T19:36:50Z</time></trkpt><trkpt lat="59.0715980530" lon="30.0082755089"><time>2026-04-25T19:36:52Z</time></trkpt><trkpt lat="59.0716195107" lon="30.0082969666"><time>2026-04-25T19:36:55Z</time></trkpt><trkpt lat="59.0716409683" lon="30.0082969666"><time>2026-04-25T19:36:57Z</time></trkpt><trkpt lat="59.0716838837" lon="30.0082755089"><time>2026-04-25T19:37:00Z</time></trkpt><trkpt lat="59.0716838837" lon="30.0082755089"><time>2026-04-25T19:37:02Z</time></trkpt><trkpt lat="59.0716838837" lon="30.0082755089"><time>2026-04-25T19:37:05Z</time></trkpt><trkpt lat="59.0716838837" lon="30.0082969666"><time>2026-04-25T19:37:07Z</time></trkpt><trkpt lat="59.0717053413" lon="30.0082969666"><time>2026-04-25T19:37:10Z</time></trkpt><trkpt lat="59.0717053413" lon="30.0083184242"><time>2026-04-25T19:37:12Z</time></trkpt><trkpt lat="59.0717267990" lon="30.0083398819"><time>2026-04-25T19:37:15Z</time></trkpt><trkpt lat="59.0717482567" lon="30.0083398819"><time>2026-04-25T19:37:17Z</time></trkpt><trkpt lat="59.0717482567" lon="30.0083398819"><time>2026-04-25T19:37:20Z</time></trkpt><trkpt lat="59.0717697144" lon="30.0083398819"><time>2026-04-25T19:37:22Z</time></trkpt><trkpt lat="59.0717911720" lon="30.0083398819"><time>2026-04-25T19:37:25Z</time></trkpt><trkpt lat="59.0718340874" lon="30.0083398819"><time>2026-04-25T19:37:27Z</time></trkpt><trkpt lat="59.0718555450" lon="30.0083398819"><time>2026-04-25T19:37:30Z</time></trkpt><trkpt lat="59.0718770027" lon="30.0083184242"><time>2026-04-25T19:37:32Z</time></trkpt><trkpt lat="59.0718984604" lon="30.0083184242"><time>2026-04-25T19:37:35Z</time></trkpt><trkpt lat="59.0718984604" lon="30.0083184242"><time>2026-04-25T19:37:37Z</time></trkpt><trkpt lat="59.0718984604" lon="30.0083184242"><time>2026-04-25T19:37:40Z</time></trkpt><trkpt lat="59.0718984604" lon="30.0083184242"><time>2026-04-25T19:37:42Z</time></trkpt><trkpt lat="59.0718984604" lon="30.0083184242"><time>2026-04-25T19:37:45Z</time></trkpt><trkpt lat="59.0718984604" lon="30.0083184242"><time>2026-04-25T19:37:47Z</time></trkpt><trkpt lat="59.0718984604" lon="30.0083184242"><time>2026-04-25T19:37:50Z</time></trkpt><trkpt lat="59.0719199181" lon="30.0083184242"><time>2026-04-25T19:37:52Z</time></trkpt><trkpt lat="59.0719628334" lon="30.0082969666"><time>2026-04-25T19:37:55Z</time></trkpt><trkpt lat="59.0719628334" lon="30.0082755089"><time>2026-04-25T19:37:57Z</time></trkpt><trkpt lat="59.0719628334" lon="30.0082755089"><time>2026-04-25T19:38:00Z</time></trkpt><trkpt lat="59.0720057487" lon="30.0082755089"><time>2026-04-25T19:38:02Z</time></trkpt><trkpt lat="59.0720272064" lon="30.0082540512"><time>2026-04-25T19:38:05Z</time></trkpt><trkpt lat="59.0720701218" lon="30.0082540512"><time>2026-04-25T19:38:07Z</time></trkpt><trkpt lat="59.0720915794" lon="30.0082325935"><time>2026-04-25T19:38:10Z</time></trkpt><trkpt lat="59.0721130371" lon="30.0082325935"><time>2026-04-25T19:38:12Z</time></trkpt><trkpt lat="59.0721559525" lon="30.0082111359"><time>2026-04-25T19:38:15Z</time></trkpt><trkpt lat="59.0721774101" lon="30.0081896782"><time>2026-04-25T19:38:17Z</time></trkpt><trkpt lat="59.0722203255" lon="30.0081682205"><time>2026-04-25T19:38:20Z</time></trkpt><trkpt lat="59.0722417831" lon="30.0081467628"><time>2026-04-25T19:38:22Z</time></trkpt><trkpt lat="59.0722632408" lon="30.0081467628"><time>2026-04-25T19:38:25Z</time></trkpt><trkpt lat="59.0722846985" lon="30.0081253052"><time>2026-04-25T19:38:27Z</time></trkpt><trkpt lat="59.0723061562" lon="30.0080823898"><time>2026-04-25T19:38:30Z</time></trkpt><trkpt lat="59.0723276138" lon="30.0080609322"><time>2026-04-25T19:38:32Z</time></trkpt><trkpt lat="59.0723490715" lon="30.0080394745"><time>2026-04-25T19:38:35Z</time></trkpt><trkpt lat="59.0723490715" lon="30.0080394745"><time>2026-04-25T19:38:37Z</time></trkpt><trkpt lat="59.0723705292" lon="30.0080394745"><time>2026-04-25T19:38:40Z</time></trkpt><trkpt lat="59.0723919868" lon="30.0080394745"><time>2026-04-25T19:38:42Z</time></trkpt><trkpt lat="59.0724349022" lon="30.0079965591"><time>2026-04-25T19:38:45Z</time></trkpt><trkpt lat="59.0724563599" lon="30.0079751015"><time>2026-04-25T19:38:47Z</time></trkpt><trkpt lat="59.0724563599" lon="30.0079751015"><time>2026-04-25T19:38:50Z</time></trkpt><trkpt lat="59.0724563599" lon="30.0079751015"><time>2026-04-25T19:38:52Z</time></trkpt><trkpt lat="59.0724563599" lon="30.0079751015"><time>2026-04-25T19:38:55Z</time></trkpt><trkpt lat="59.0724563599" lon="30.0079536438"><time>2026-04-25T19:38:57Z</time></trkpt><trkpt lat="59.0724992752" lon="30.0079107285"><time>2026-04-25T19:39:00Z</time></trkpt><trkpt lat="59.0725207329" lon="30.0079107285"><time>2026-04-25T19:39:02Z</time></trkpt><trkpt lat="59.0725636482" lon="30.0078892708"><time>2026-04-25T19:39:05Z</time></trkpt><trkpt lat="59.0725851059" lon="30.0078678131"><time>2026-04-25T19:39:07Z</time></trkpt><trkpt lat="59.0726065636" lon="30.0078463554"><time>2026-04-25T19:39:10Z</time></trkpt><trkpt lat="59.0726065636" lon="30.0078463554"><time>2026-04-25T19:39:12Z</time></trkpt><trkpt lat="59.0726065636" lon="30.0078463554"><time>2026-04-25T19:39:15Z</time></trkpt><trkpt lat="59.0726280212" lon="30.0078248978"><time>2026-04-25T19:39:17Z</time></trkpt><trkpt lat="59.0726923943" lon="30.0078248978"><time>2026-04-25T19:39:20Z</time></trkpt><trkpt lat="59.0727138519" lon="30.0078034401"><time>2026-04-25T19:39:22Z</time></trkpt><trkpt lat="59.0727567673" lon="30.0078034401"><time>2026-04-25T19:39:25Z</time></trkpt><trkpt lat="59.0727782249" lon="30.0077819824"><time>2026-04-25T19:39:27Z</time></trkpt><trkpt lat="59.0727996826" lon="30.0077390671"><time>2026-04-25T19:39:30Z</time></trkpt><trkpt lat="59.0728211403" lon="30.0077390671"><time>2026-04-25T19:39:32Z</time></trkpt><trkpt lat="59.0728640556" lon="30.0077176094"><time>2026-04-25T19:39:35Z</time></trkpt><trkpt lat="59.0728855133" lon="30.0076961517"><time>2026-04-25T19:39:37Z</time></trkpt><trkpt lat="59.0729069710" lon="30.0076746941"><time>2026-04-25T19:39:40Z</time></trkpt><trkpt lat="59.0729284286" lon="30.0076746941"><time>2026-04-25T19:39:42Z</time></trkpt><trkpt lat="59.0729498863" lon="30.0076746941"><time>2026-04-25T19:39:45Z</time></trkpt><trkpt lat="59.0729498863" lon="30.0076746941"><time>2026-04-25T19:39:47Z</time></trkpt><trkpt lat="59.0729498863" lon="30.0076746941"><time>2026-04-25T19:39:50Z</time></trkpt><trkpt lat="59.0729498863" lon="30.0076532364"><time>2026-04-25T19:39:52Z</time></trkpt><trkpt lat="59.0729713440" lon="30.0076532364"><time>2026-04-25T19:39:55Z</time></trkpt><trkpt lat="59.0729713440" lon="30.0076532364"><time>2026-04-25T19:39:57Z</time></trkpt><trkpt lat="59.0729928017" lon="30.0076746941"><time>2026-04-25T19:40:00Z</time></trkpt><trkpt lat="59.0730357170" lon="30.0076746941"><time>2026-04-25T19:40:02Z</time></trkpt><trkpt lat="59.0730571747" lon="30.0076746941"><time>2026-04-25T19:40:05Z</time></trkpt><trkpt lat="59.0731000900" lon="30.0076746941"><time>2026-04-25T19:40:07Z</time></trkpt><trkpt lat="59.0731215477" lon="30.0076317787"><time>2026-04-25T19:40:10Z</time></trkpt><trkpt lat="59.0731215477" lon="30.0076103210"><time>2026-04-25T19:40:12Z</time></trkpt><trkpt lat="59.0731430054" lon="30.0076103210"><time>2026-04-25T19:40:15Z</time></trkpt><trkpt lat="59.0731430054" lon="30.0076103210"><time>2026-04-25T19:40:17Z</time></trkpt><trkpt lat="59.0731644630" lon="30.0076103210"><time>2026-04-25T19:40:20Z</time></trkpt><trkpt lat="59.0731859207" lon="30.0076103210"><time>2026-04-25T19:40:22Z</time></trkpt><trkpt lat="59.0732073784" lon="30.0075888634"><time>2026-04-25T19:40:25Z</time></trkpt><trkpt lat="59.0732288361" lon="30.0075674057"><time>2026-04-25T19:40:27Z</time></trkpt><trkpt lat="59.0732502937" lon="30.0075244904"><time>2026-04-25T19:40:30Z</time></trkpt><trkpt lat="59.0732502937" lon="30.0075244904"><time>2026-04-25T19:40:32Z</time></trkpt><trkpt lat="59.0732932091" lon="30.0075030327"><time>2026-04-25T19:40:35Z</time></trkpt><trkpt lat="59.0732932091" lon="30.0075030327"><time>2026-04-25T19:40:37Z</time></trkpt><trkpt lat="59.0733361244" lon="30.0074815750"><time>2026-04-25T19:40:40Z</time></trkpt><trkpt lat="59.0733361244" lon="30.0074815750"><time>2026-04-25T19:40:42Z</time></trkpt><trkpt lat="59.0733575821" lon="30.0074386597"><time>2026-04-25T19:40:45Z</time></trkpt><trkpt lat="59.0733790398" lon="30.0074172020"><time>2026-04-25T19:40:47Z</time></trkpt><trkpt lat="59.0734004974" lon="30.0073957443"><time>2026-04-25T19:40:50Z</time></trkpt><trkpt lat="59.0734219551" lon="30.0073742867"><time>2026-04-25T19:40:52Z</time></trkpt><trkpt lat="59.0734434128" lon="30.0073528290"><time>2026-04-25T19:40:55Z</time></trkpt><trkpt lat="59.0734648705" lon="30.0073313713"><time>2026-04-25T19:40:57Z</time></trkpt><trkpt lat="59.0734863281" lon="30.0072884560"><time>2026-04-25T19:41:00Z</time></trkpt><trkpt lat="59.0735077858" lon="30.0072884560"><time>2026-04-25T19:41:02Z</time></trkpt><trkpt lat="59.0735292435" lon="30.0072669983"><time>2026-04-25T19:41:05Z</time></trkpt><trkpt lat="59.0735292435" lon="30.0072240829"><time>2026-04-25T19:41:07Z</time></trkpt><trkpt lat="59.0735721588" lon="30.0072026253"><time>2026-04-25T19:41:10Z</time></trkpt><trkpt lat="59.0735721588" lon="30.0072026253"><time>2026-04-25T19:41:12Z</time></trkpt><trkpt lat="59.0735936165" lon="30.0072026253"><time>2026-04-25T19:41:15Z</time></trkpt><trkpt lat="59.0736150742" lon="30.0071811676"><time>2026-04-25T19:41:17Z</time></trkpt><trkpt lat="59.0736365318" lon="30.0071382523"><time>2026-04-25T19:41:20Z</time></trkpt><trkpt lat="59.0736579895" lon="30.0071382523"><time>2026-04-25T19:41:22Z</time></trkpt><trkpt lat="59.0736794472" lon="30.0070953369"><time>2026-04-25T19:41:25Z</time></trkpt><trkpt lat="59.0736794472" lon="30.0070524216"><time>2026-04-25T19:41:27Z</time></trkpt><trkpt lat="59.0737009048" lon="30.0070524216"><time>2026-04-25T19:41:30Z</time></trkpt><trkpt lat="59.0737009048" lon="30.0070524216"><time>2026-04-25T19:41:32Z</time></trkpt><trkpt lat="59.0737009048" lon="30.0070524216"><time>2026-04-25T19:41:35Z</time></trkpt><trkpt lat="59.0737009048" lon="30.0070524216"><time>2026-04-25T19:41:37Z</time></trkpt><trkpt lat="59.0737009048" lon="30.0070524216"><time>2026-04-25T19:41:40Z</time></trkpt><trkpt lat="59.0737009048" lon="30.0070524216"><time>2026-04-25T19:41:42Z</time></trkpt><trkpt lat="59.0737009048" lon="30.0070524216"><time>2026-04-25T19:41:45Z</time></trkpt><trkpt lat="59.0737009048" lon="30.0070524216"><time>2026-04-25T19:41:47Z</time></trkpt><trkpt lat="59.0737009048" lon="30.0070524216"><time>2026-04-25T19:41:50Z</time></trkpt><trkpt lat="59.0737009048" lon="30.0070524216"><time>2026-04-25T19:41:52Z</time></trkpt><trkpt lat="59.0737009048" lon="30.0070524216"><time>2026-04-25T19:41:55Z</time></trkpt><trkpt lat="59.0737009048" lon="30.0070524216"><time>2026-04-25T19:41:57Z</time></trkpt><trkpt lat="59.0737009048" lon="30.0070524216"><time>2026-04-25T19:42:00Z</time></trkpt><trkpt lat="59.0737009048" lon="30.0070524216"><time>2026-04-25T19:42:02Z</time></trkpt><trkpt lat="59.0737009048" lon="30.0070524216"><time>2026-04-25T19:42:05Z</time></trkpt><trkpt lat="59.0737009048" lon="30.0070524216"><time>2026-04-25T19:42:07Z</time></trkpt><trkpt lat="59.0737009048" lon="30.0070524216"><time>2026-04-25T19:42:10Z</time></trkpt><trkpt lat="59.0737009048" lon="30.0070524216"><time>2026-04-25T19:42:12Z</time></trkpt><trkpt lat="59.0737009048" lon="30.0070524216"><time>2026-04-25T19:42:15Z</time></trkpt><trkpt lat="59.0737009048" lon="30.0070524216"><time>2026-04-25T19:42:17Z</time></trkpt><trkpt lat="59.0737009048" lon="30.0070524216"><time>2026-04-25T19:42:20Z</time></trkpt><trkpt lat="59.0737009048" lon="30.0070524216"><time>2026-04-25T19:42:22Z</time></trkpt><trkpt lat="59.0737223625" lon="30.0070738792"><time>2026-04-25T19:42:25Z</time></trkpt><trkpt lat="59.0737652779" lon="30.0070953369"><time>2026-04-25T19:42:27Z</time></trkpt><trkpt lat="59.0737867355" lon="30.0071382523"><time>2026-04-25T19:42:30Z</time></trkpt><trkpt lat="59.0737867355" lon="30.0071382523"><time>2026-04-25T19:42:32Z</time></trkpt><trkpt lat="59.0738081932" lon="30.0071382523"><time>2026-04-25T19:42:35Z</time></trkpt><trkpt lat="59.0738296509" lon="30.0071382523"><time>2026-04-25T19:42:37Z</time></trkpt><trkpt lat="59.0738511086" lon="30.0071167946"><time>2026-04-25T19:42:40Z</time></trkpt><trkpt lat="59.0738725662" lon="30.0071167946"><time>2026-04-25T19:42:42Z</time></trkpt><trkpt lat="59.0738725662" lon="30.0071167946"><time>2026-04-25T19:42:45Z</time></trkpt><trkpt lat="59.0738725662" lon="30.0071167946"><time>2026-04-25T19:42:47Z</time></trkpt><trkpt lat="59.0738725662" lon="30.0071167946"><time>2026-04-25T19:42:50Z</time></trkpt><trkpt lat="59.0738725662" lon="30.0071167946"><time>2026-04-25T19:42:52Z</time></trkpt><trkpt lat="59.0738725662" lon="30.0071167946"><time>2026-04-25T19:42:55Z</time></trkpt><trkpt lat="59.0738725662" lon="30.0071167946"><time>2026-04-25T19:42:57Z</time></trkpt><trkpt lat="59.0738725662" lon="30.0071382523"><time>2026-04-25T19:43:00Z</time></trkpt><trkpt lat="59.0738940239" lon="30.0071597099"><time>2026-04-25T19:43:02Z</time></trkpt><trkpt lat="59.0739369392" lon="30.0072026253"><time>2026-04-25T19:43:05Z</time></trkpt><trkpt lat="59.0739583969" lon="30.0072026253"><time>2026-04-25T19:43:07Z</time></trkpt><trkpt lat="59.0739798546" lon="30.0072240829"><time>2026-04-25T19:43:10Z</time></trkpt><trkpt lat="59.0740013123" lon="30.0072240829"><time>2026-04-25T19:43:12Z</time></trkpt><trkpt lat="59.0740013123" lon="30.0072026253"><time>2026-04-25T19:43:15Z</time></trkpt><trkpt lat="59.0740013123" lon="30.0072026253"><time>2026-04-25T19:43:17Z</time></trkpt><trkpt lat="59.0740013123" lon="30.0072026253"><time>2026-04-25T19:43:20Z</time></trkpt><trkpt lat="59.0740013123" lon="30.0072026253"><time>2026-04-25T19:43:22Z</time></trkpt><trkpt lat="59.0740013123" lon="30.0072026253"><time>2026-04-25T19:43:25Z</time></trkpt><trkpt lat="59.0740013123" lon="30.0072026253"><time>2026-04-25T19:43:27Z</time></trkpt><trkpt lat="59.0740013123" lon="30.0072026253"><time>2026-04-25T19:43:30Z</time></trkpt><trkpt lat="59.0740013123" lon="30.0072026253"><time>2026-04-25T19:43:32Z</time></trkpt><trkpt lat="59.0740013123" lon="30.0072026253"><time>2026-04-25T19:43:35Z</time></trkpt><trkpt lat="59.0740013123" lon="30.0072026253"><time>2026-04-25T19:43:37Z</time></trkpt><trkpt lat="59.0740013123" lon="30.0072026253"><time>2026-04-25T19:43:40Z</time></trkpt><trkpt lat="59.0740013123" lon="30.0072026253"><time>2026-04-25T19:43:42Z</time></trkpt><trkpt lat="59.0740227699" lon="30.0072026253"><time>2026-04-25T19:43:45Z</time></trkpt><trkpt lat="59.0740442276" lon="30.0071811676"><time>2026-04-25T19:43:47Z</time></trkpt><trkpt lat="59.0740656853" lon="30.0072026253"><time>2026-04-25T19:43:50Z</time></trkpt><trkpt lat="59.0740871429" lon="30.0072026253"><time>2026-04-25T19:43:52Z</time></trkpt><trkpt lat="59.0741086006" lon="30.0072026253"><time>2026-04-25T19:43:55Z</time></trkpt><trkpt lat="59.0741300583" lon="30.0072026253"><time>2026-04-25T19:43:57Z</time></trkpt><trkpt lat="59.0741729736" lon="30.0072026253"><time>2026-04-25T19:44:00Z</time></trkpt><trkpt lat="59.0741944313" lon="30.0072026253"><time>2026-04-25T19:44:02Z</time></trkpt><trkpt lat="59.0742158890" lon="30.0072026253"><time>2026-04-25T19:44:05Z</time></trkpt><trkpt lat="59.0742373466" lon="30.0072240829"><time>2026-04-25T19:44:07Z</time></trkpt><trkpt lat="59.0742588043" lon="30.0072240829"><time>2026-04-25T19:44:10Z</time></trkpt><trkpt lat="59.0742802620" lon="30.0072455406"><time>2026-04-25T19:44:12Z</time></trkpt><trkpt lat="59.0742802620" lon="30.0072240829"><time>2026-04-25T19:44:15Z</time></trkpt><trkpt lat="59.0742802620" lon="30.0072240829"><time>2026-04-25T19:44:17Z</time></trkpt><trkpt lat="59.0742802620" lon="30.0072240829"><time>2026-04-25T19:44:20Z</time></trkpt><trkpt lat="59.0742802620" lon="30.0072240829"><time>2026-04-25T19:44:22Z</time></trkpt><trkpt lat="59.0743446350" lon="30.0072669983"><time>2026-04-25T19:44:25Z</time></trkpt><trkpt lat="59.0743446350" lon="30.0072884560"><time>2026-04-25T19:44:27Z</time></trkpt><trkpt lat="59.0743660927" lon="30.0073099136"><time>2026-04-25T19:44:30Z</time></trkpt><trkpt lat="59.0743875504" lon="30.0073528290"><time>2026-04-25T19:44:32Z</time></trkpt><trkpt lat="59.0744090080" lon="30.0073742867"><time>2026-04-25T19:44:35Z</time></trkpt><trkpt lat="59.0744304657" lon="30.0073957443"><time>2026-04-25T19:44:37Z</time></trkpt><trkpt lat="59.0744733810" lon="30.0074386597"><time>2026-04-25T19:44:40Z</time></trkpt><trkpt lat="59.0744948387" lon="30.0074601173"><time>2026-04-25T19:44:42Z</time></trkpt><trkpt lat="59.0745162964" lon="30.0075030327"><time>2026-04-25T19:44:45Z</time></trkpt><trkpt lat="59.0745162964" lon="30.0075244904"><time>2026-04-25T19:44:47Z</time></trkpt><trkpt lat="59.0745377541" lon="30.0075459480"><time>2026-04-25T19:44:50Z</time></trkpt><trkpt lat="59.0745377541" lon="30.0075459480"><time>2026-04-25T19:44:52Z</time></trkpt><trkpt lat="59.0745592117" lon="30.0075459480"><time>2026-04-25T19:44:55Z</time></trkpt><trkpt lat="59.0745806694" lon="30.0075674057"><time>2026-04-25T19:44:57Z</time></trkpt><trkpt lat="59.0746021271" lon="30.0075888634"><time>2026-04-25T19:45:00Z</time></trkpt><trkpt lat="59.0746235847" lon="30.0076103210"><time>2026-04-25T19:45:02Z</time></trkpt><trkpt lat="59.0746450424" lon="30.0076532364"><time>2026-04-25T19:45:05Z</time></trkpt><trkpt lat="59.0746450424" lon="30.0076532364"><time>2026-04-25T19:45:07Z</time></trkpt><trkpt lat="59.0746665001" lon="30.0076532364"><time>2026-04-25T19:45:10Z</time></trkpt><trkpt lat="59.0746879578" lon="30.0076746941"><time>2026-04-25T19:45:12Z</time></trkpt><trkpt lat="59.0747094154" lon="30.0076746941"><time>2026-04-25T19:45:15Z</time></trkpt><trkpt lat="59.0747308731" lon="30.0076961517"><time>2026-04-25T19:45:17Z</time></trkpt><trkpt lat="59.0747523308" lon="30.0076961517"><time>2026-04-25T19:45:20Z</time></trkpt><trkpt lat="59.0747737885" lon="30.0076961517"><time>2026-04-25T19:45:22Z</time></trkpt><trkpt lat="59.0747737885" lon="30.0076961517"><time>2026-04-25T19:45:25Z</time></trkpt><trkpt lat="59.0747737885" lon="30.0076961517"><time>2026-04-25T19:45:27Z</time></trkpt><trkpt lat="59.0747737885" lon="30.0076961517"><time>2026-04-25T19:45:30Z</time></trkpt><trkpt lat="59.0747952461" lon="30.0076532364"><time>2026-04-25T19:45:32Z</time></trkpt><trkpt lat="59.0748167038" lon="30.0076317787"><time>2026-04-25T19:45:35Z</time></trkpt><trkpt lat="59.0748167038" lon="30.0076317787"><time>2026-04-25T19:45:37Z</time></trkpt><trkpt lat="59.0748167038" lon="30.0076317787"><time>2026-04-25T19:45:40Z</time></trkpt><trkpt lat="59.0748167038" lon="30.0076317787"><time>2026-04-25T19:45:42Z</time></trkpt><trkpt lat="59.0748167038" lon="30.0076317787"><time>2026-04-25T19:45:45Z</time></trkpt><trkpt lat="59.0748167038" lon="30.0076317787"><time>2026-04-25T19:45:47Z</time></trkpt><trkpt lat="59.0748167038" lon="30.0076317787"><time>2026-04-25T19:45:50Z</time></trkpt><trkpt lat="59.0748167038" lon="30.0076317787"><time>2026-04-25T19:45:52Z</time></trkpt><trkpt lat="59.0748810768" lon="30.0075674057"><time>2026-04-25T19:45:55Z</time></trkpt><trkpt lat="59.0749025345" lon="30.0075674057"><time>2026-04-25T19:45:57Z</time></trkpt><trkpt lat="59.0749454498" lon="30.0075674057"><time>2026-04-25T19:46:00Z</time></trkpt><trkpt lat="59.0749669075" lon="30.0075459480"><time>2026-04-25T19:46:02Z</time></trkpt><trkpt lat="59.0749883652" lon="30.0075459480"><time>2026-04-25T19:46:05Z</time></trkpt><trkpt lat="59.0750098228" lon="30.0075244904"><time>2026-04-25T19:46:07Z</time></trkpt><trkpt lat="59.0750312805" lon="30.0075244904"><time>2026-04-25T19:46:10Z</time></trkpt><trkpt lat="59.0750527382" lon="30.0075030327"><time>2026-04-25T19:46:12Z</time></trkpt><trkpt lat="59.0750741959" lon="30.0075030327"><time>2026-04-25T19:46:15Z</time></trkpt><trkpt lat="59.0750741959" lon="30.0075030327"><time>2026-04-25T19:46:17Z</time></trkpt><trkpt lat="59.0750741959" lon="30.0075030327"><time>2026-04-25T19:46:20Z</time></trkpt><trkpt lat="59.0750956535" lon="30.0075030327"><time>2026-04-25T19:46:22Z</time></trkpt><trkpt lat="59.0750956535" lon="30.0074815750"><time>2026-04-25T19:46:25Z</time></trkpt><trkpt lat="59.0751171112" lon="30.0074815750"><time>2026-04-25T19:46:27Z</time></trkpt><trkpt lat="59.0751385689" lon="30.0074601173"><time>2026-04-25T19:46:30Z</time></trkpt><trkpt lat="59.0751385689" lon="30.0074601173"><time>2026-04-25T19:46:32Z</time></trkpt><trkpt lat="59.0751600266" lon="30.0074386597"><time>2026-04-25T19:46:35Z</time></trkpt><trkpt lat="59.0751814842" lon="30.0074386597"><time>2026-04-25T19:46:37Z</time></trkpt><trkpt lat="59.0751814842" lon="30.0074386597"><time>2026-04-25T19:46:40Z</time></trkpt><trkpt lat="59.0752029419" lon="30.0074172020"><time>2026-04-25T19:46:42Z</time></trkpt><trkpt lat="59.0752243996" lon="30.0074172020"><time>2026-04-25T19:46:45Z</time></trkpt><trkpt lat="59.0752243996" lon="30.0073957443"><time>2026-04-25T19:46:47Z</time></trkpt><trkpt lat="59.0752243996" lon="30.0073742867"><time>2026-04-25T19:46:50Z</time></trkpt><trkpt lat="59.0752458572" lon="30.0073742867"><time>2026-04-25T19:46:52Z</time></trkpt><trkpt lat="59.0752673149" lon="30.0073528290"><time>2026-04-25T19:46:55Z</time></trkpt><trkpt lat="59.0752673149" lon="30.0073528290"><time>2026-04-25T19:46:57Z</time></trkpt><trkpt lat="59.0752673149" lon="30.0073528290"><time>2026-04-25T19:47:00Z</time></trkpt><trkpt lat="59.0752673149" lon="30.0073528290"><time>2026-04-25T19:47:02Z</time></trkpt><trkpt lat="59.0752673149" lon="30.0073313713"><time>2026-04-25T19:47:05Z</time></trkpt><trkpt lat="59.0752673149" lon="30.0073099136"><time>2026-04-25T19:47:07Z</time></trkpt><trkpt lat="59.0752887726" lon="30.0072669983"><time>2026-04-25T19:47:10Z</time></trkpt><trkpt lat="59.0752887726" lon="30.0072669983"><time>2026-04-25T19:47:12Z</time></trkpt><trkpt lat="59.0753102303" lon="30.0072455406"><time>2026-04-25T19:47:15Z</time></trkpt><trkpt lat="59.0753102303" lon="30.0072240829"><time>2026-04-25T19:47:17Z</time></trkpt><trkpt lat="59.0753102303" lon="30.0071811676"><time>2026-04-25T19:47:20Z</time></trkpt><trkpt lat="59.0753316879" lon="30.0071597099"><time>2026-04-25T19:47:22Z</time></trkpt><trkpt lat="59.0753316879" lon="30.0071382523"><time>2026-04-25T19:47:25Z</time></trkpt><trkpt lat="59.0753531456" lon="30.0071167946"><time>2026-04-25T19:47:27Z</time></trkpt><trkpt lat="59.0753531456" lon="30.0070953369"><time>2026-04-25T19:47:30Z</time></trkpt><trkpt lat="59.0753531456" lon="30.0070524216"><time>2026-04-25T19:47:32Z</time></trkpt><trkpt lat="59.0753746033" lon="30.0070524216"><time>2026-04-25T19:47:35Z</time></trkpt><trkpt lat="59.0753746033" lon="30.0070524216"><time>2026-04-25T19:47:37Z</time></trkpt><trkpt lat="59.0753746033" lon="30.0070524216"><time>2026-04-25T19:47:40Z</time></trkpt><trkpt lat="59.0753746033" lon="30.0070309639"><time>2026-04-25T19:47:42Z</time></trkpt><trkpt lat="59.0753960609" lon="30.0069880486"><time>2026-04-25T19:47:45Z</time></trkpt><trkpt lat="59.0753960609" lon="30.0069665909"><time>2026-04-25T19:47:47Z</time></trkpt><trkpt lat="59.0754175186" lon="30.0069451332"><time>2026-04-25T19:47:50Z</time></trkpt><trkpt lat="59.0754389763" lon="30.0069022179"><time>2026-04-25T19:47:52Z</time></trkpt><trkpt lat="59.0754389763" lon="30.0068807602"><time>2026-04-25T19:47:55Z</time></trkpt><trkpt lat="59.0754604340" lon="30.0068378448"><time>2026-04-25T19:47:57Z</time></trkpt><trkpt lat="59.0754604340" lon="30.0068378448"><time>2026-04-25T19:48:00Z</time></trkpt><trkpt lat="59.0754604340" lon="30.0068378448"><time>2026-04-25T19:48:02Z</time></trkpt><trkpt lat="59.0754604340" lon="30.0068378448"><time>2026-04-25T19:48:05Z</time></trkpt><trkpt lat="59.0754604340" lon="30.0068378448"><time>2026-04-25T19:48:07Z</time></trkpt><trkpt lat="59.0754604340" lon="30.0068378448"><time>2026-04-25T19:48:10Z</time></trkpt><trkpt lat="59.0755033493" lon="30.0068163872"><time>2026-04-25T19:48:12Z</time></trkpt><trkpt lat="59.0755248070" lon="30.0067949295"><time>2026-04-25T19:48:15Z</time></trkpt><trkpt lat="59.0755248070" lon="30.0067949295"><time>2026-04-25T19:48:17Z</time></trkpt><trkpt lat="59.0755462646" lon="30.0067949295"><time>2026-04-25T19:48:20Z</time></trkpt><trkpt lat="59.0755677223" lon="30.0067949295"><time>2026-04-25T19:48:22Z</time></trkpt><trkpt lat="59.0755677223" lon="30.0067734718"><time>2026-04-25T19:48:25Z</time></trkpt><trkpt lat="59.0755891800" lon="30.0067520142"><time>2026-04-25T19:48:27Z</time></trkpt><trkpt lat="59.0756106377" lon="30.0067520142"><time>2026-04-25T19:48:30Z</time></trkpt><trkpt lat="59.0756106377" lon="30.0067305565"><time>2026-04-25T19:48:32Z</time></trkpt><trkpt lat="59.0756320953" lon="30.0067090988"><time>2026-04-25T19:48:35Z</time></trkpt><trkpt lat="59.0756535530" lon="30.0066876411"><time>2026-04-25T19:48:37Z</time></trkpt><trkpt lat="59.0756535530" lon="30.0066876411"><time>2026-04-25T19:48:40Z</time></trkpt><trkpt lat="59.0756535530" lon="30.0066876411"><time>2026-04-25T19:48:42Z</time></trkpt><trkpt lat="59.0756535530" lon="30.0066876411"><time>2026-04-25T19:48:45Z</time></trkpt><trkpt lat="59.0756750107" lon="30.0066876411"><time>2026-04-25T19:48:47Z</time></trkpt><trkpt lat="59.0756964684" lon="30.0066661835"><time>2026-04-25T19:48:50Z</time></trkpt><trkpt lat="59.0757179260" lon="30.0066447258"><time>2026-04-25T19:48:52Z</time></trkpt><trkpt lat="59.0757393837" lon="30.0066232681"><time>2026-04-25T19:48:55Z</time></trkpt><trkpt lat="59.0757608414" lon="30.0066018105"><time>2026-04-25T19:48:57Z</time></trkpt><trkpt lat="59.0757822990" lon="30.0065803528"><time>2026-04-25T19:49:00Z</time></trkpt><trkpt lat="59.0757822990" lon="30.0065588951"><time>2026-04-25T19:49:02Z</time></trkpt><trkpt lat="59.0758037567" lon="30.0065159798"><time>2026-04-25T19:49:05Z</time></trkpt><trkpt lat="59.0758037567" lon="30.0064945221"><time>2026-04-25T19:49:07Z</time></trkpt><trkpt lat="59.0758252144" lon="30.0064516068"><time>2026-04-25T19:49:10Z</time></trkpt><trkpt lat="59.0758466721" lon="30.0064516068"><time>2026-04-25T19:49:12Z</time></trkpt><trkpt lat="59.0758466721" lon="30.0064086914"><time>2026-04-25T19:49:15Z</time></trkpt><trkpt lat="59.0758681297" lon="30.0063872337"><time>2026-04-25T19:49:17Z</time></trkpt><trkpt lat="59.0758681297" lon="30.0063872337"><time>2026-04-25T19:49:20Z</time></trkpt><trkpt lat="59.0758681297" lon="30.0063657761"><time>2026-04-25T19:49:22Z</time></trkpt><trkpt lat="59.0758681297" lon="30.0063657761"><time>2026-04-25T19:49:25Z</time></trkpt><trkpt lat="59.0758681297" lon="30.0063657761"><time>2026-04-25T19:49:27Z</time></trkpt><trkpt lat="59.0758681297" lon="30.0063657761"><time>2026-04-25T19:49:30Z</time></trkpt><trkpt lat="59.0758681297" lon="30.0063657761"><time>2026-04-25T19:49:32Z</time></trkpt><trkpt lat="59.0758681297" lon="30.0063657761"><time>2026-04-25T19:49:35Z</time></trkpt><trkpt lat="59.0758681297" lon="30.0063657761"><time>2026-04-25T19:49:37Z</time></trkpt><trkpt lat="59.0758681297" lon="30.0063657761"><time>2026-04-25T19:49:40Z</time></trkpt><trkpt lat="59.0758681297" lon="30.0063657761"><time>2026-04-25T19:49:42Z</time></trkpt><trkpt lat="59.0758681297" lon="30.0063657761"><time>2026-04-25T19:49:45Z</time></trkpt><trkpt lat="59.0758681297" lon="30.0063657761"><time>2026-04-25T19:49:47Z</time></trkpt><trkpt lat="59.0758681297" lon="30.0063657761"><time>2026-04-25T19:49:50Z</time></trkpt><trkpt lat="59.0758681297" lon="30.0063657761"><time>2026-04-25T19:49:52Z</time></trkpt><trkpt lat="59.0758895874" lon="30.0063657761"><time>2026-04-25T19:49:55Z</time></trkpt><trkpt lat="59.0759110451" lon="30.0063657761"><time>2026-04-25T19:49:57Z</time></trkpt><trkpt lat="59.0759325027" lon="30.0063443184"><time>2026-04-25T19:50:00Z</time></trkpt><trkpt lat="59.0759539604" lon="30.0063443184"><time>2026-04-25T19:50:02Z</time></trkpt><trkpt lat="59.0759968758" lon="30.0063657761"><time>2026-04-25T19:50:05Z</time></trkpt><trkpt lat="59.0759968758" lon="30.0063443184"><time>2026-04-25T19:50:07Z</time></trkpt><trkpt lat="59.0760183334" lon="30.0063443184"><time>2026-04-25T19:50:10Z</time></trkpt><trkpt lat="59.0760397911" lon="30.0063443184"><time>2026-04-25T19:50:12Z</time></trkpt><trkpt lat="59.0760612488" lon="30.0063443184"><time>2026-04-25T19:50:15Z</time></trkpt><trkpt lat="59.0760612488" lon="30.0063443184"><time>2026-04-25T19:50:17Z</time></trkpt><trkpt lat="59.0760827065" lon="30.0063228607"><time>2026-04-25T19:50:20Z</time></trkpt><trkpt lat="59.0761041641" lon="30.0063228607"><time>2026-04-25T19:50:22Z</time></trkpt><trkpt lat="59.0761256218" lon="30.0063443184"><time>2026-04-25T19:50:25Z</time></trkpt><trkpt lat="59.0761256218" lon="30.0063443184"><time>2026-04-25T19:50:27Z</time></trkpt><trkpt lat="59.0761470795" lon="30.0063443184"><time>2026-04-25T19:50:30Z</time></trkpt><trkpt lat="59.0761470795" lon="30.0063657761"><time>2026-04-25T19:50:32Z</time></trkpt><trkpt lat="59.0761685371" lon="30.0063872337"><time>2026-04-25T19:50:35Z</time></trkpt><trkpt lat="59.0761899948" lon="30.0063872337"><time>2026-04-25T19:50:37Z</time></trkpt><trkpt lat="59.0761899948" lon="30.0063872337"><time>2026-04-25T19:50:40Z</time></trkpt><trkpt lat="59.0762114525" lon="30.0064086914"><time>2026-04-25T19:50:42Z</time></trkpt><trkpt lat="59.0762329102" lon="30.0064516068"><time>2026-04-25T19:50:45Z</time></trkpt><trkpt lat="59.0762329102" lon="30.0064516068"><time>2026-04-25T19:50:47Z</time></trkpt><trkpt lat="59.0762543678" lon="30.0064730644"><time>2026-04-25T19:50:50Z</time></trkpt><trkpt lat="59.0762758255" lon="30.0064730644"><time>2026-04-25T19:50:52Z</time></trkpt><trkpt lat="59.0762972832" lon="30.0064945221"><time>2026-04-25T19:50:55Z</time></trkpt><trkpt lat="59.0762972832" lon="30.0065159798"><time>2026-04-25T19:50:57Z</time></trkpt><trkpt lat="59.0763187408" lon="30.0065159798"><time>2026-04-25T19:51:00Z</time></trkpt><trkpt lat="59.0763401985" lon="30.0065159798"><time>2026-04-25T19:51:02Z</time></trkpt><trkpt lat="59.0763616562" lon="30.0065159798"><time>2026-04-25T19:51:05Z</time></trkpt><trkpt lat="59.0763831139" lon="30.0064945221"><time>2026-04-25T19:51:07Z</time></trkpt><trkpt lat="59.0764045715" lon="30.0064945221"><time>2026-04-25T19:51:10Z</time></trkpt><trkpt lat="59.0764045715" lon="30.0064945221"><time>2026-04-25T19:51:12Z</time></trkpt><trkpt lat="59.0764260292" lon="30.0064945221"><time>2026-04-25T19:51:15Z</time></trkpt><trkpt lat="59.0764474869" lon="30.0065159798"><time>2026-04-25T19:51:17Z</time></trkpt><trkpt lat="59.0764689445" lon="30.0065159798"><time>2026-04-25T19:51:20Z</time></trkpt><trkpt lat="59.0764904022" lon="30.0065159798"><time>2026-04-25T19:51:22Z</time></trkpt><trkpt lat="59.0765118599" lon="30.0065159798"><time>2026-04-25T19:51:25Z</time></trkpt><trkpt lat="59.0765118599" lon="30.0064945221"><time>2026-04-25T19:51:27Z</time></trkpt><trkpt lat="59.0765333176" lon="30.0064945221"><time>2026-04-25T19:51:30Z</time></trkpt><trkpt lat="59.0765547752" lon="30.0064945221"><time>2026-04-25T19:51:32Z</time></trkpt><trkpt lat="59.0765762329" lon="30.0064945221"><time>2026-04-25T19:51:35Z</time></trkpt><trkpt lat="59.0765762329" lon="30.0064945221"><time>2026-04-25T19:51:37Z</time></trkpt><trkpt lat="59.0766191483" lon="30.0064945221"><time>2026-04-25T19:51:40Z</time></trkpt><trkpt lat="59.0766191483" lon="30.0064730644"><time>2026-04-25T19:51:42Z</time></trkpt><trkpt lat="59.0766406059" lon="30.0064730644"><time>2026-04-25T19:51:45Z</time></trkpt><trkpt lat="59.0766620636" lon="30.0064730644"><time>2026-04-25T19:51:47Z</time></trkpt><trkpt lat="59.0766620636" lon="30.0064730644"><time>2026-04-25T19:51:50Z</time></trkpt><trkpt lat="59.0766835213" lon="30.0064516068"><time>2026-04-25T19:51:52Z</time></trkpt><trkpt lat="59.0767049789" lon="30.0064301491"><time>2026-04-25T19:51:55Z</time></trkpt><trkpt lat="59.0767049789" lon="30.0064086914"><time>2026-04-25T19:51:57Z</time></trkpt><trkpt lat="59.0767264366" lon="30.0064086914"><time>2026-04-25T19:52:00Z</time></trkpt><trkpt lat="59.0767478943" lon="30.0064086914"><time>2026-04-25T19:52:02Z</time></trkpt><trkpt lat="59.0767693520" lon="30.0064086914"><time>2026-04-25T19:52:05Z</time></trkpt><trkpt lat="59.0767908096" lon="30.0063872337"><time>2026-04-25T19:52:07Z</time></trkpt><trkpt lat="59.0768122673" lon="30.0063872337"><time>2026-04-25T19:52:10Z</time></trkpt><trkpt lat="59.0768122673" lon="30.0063872337"><time>2026-04-25T19:52:12Z</time></trkpt><trkpt lat="59.0768337250" lon="30.0064086914"><time>2026-04-25T19:52:15Z</time></trkpt><trkpt lat="59.0768551826" lon="30.0063872337"><time>2026-04-25T19:52:17Z</time></trkpt><trkpt lat="59.0768551826" lon="30.0063872337"><time>2026-04-25T19:52:20Z</time></trkpt><trkpt lat="59.0768551826" lon="30.0063872337"><time>2026-04-25T19:52:22Z</time></trkpt><trkpt lat="59.0768551826" lon="30.0063657761"><time>2026-04-25T19:52:25Z</time></trkpt><trkpt lat="59.0768551826" lon="30.0063443184"><time>2026-04-25T19:52:27Z</time></trkpt><trkpt lat="59.0768766403" lon="30.0063228607"><time>2026-04-25T19:52:30Z</time></trkpt><trkpt lat="59.0768766403" lon="30.0063014030"><time>2026-04-25T19:52:32Z</time></trkpt><trkpt lat="59.0768980980" lon="30.0062799454"><time>2026-04-25T19:52:35Z</time></trkpt><trkpt lat="59.0769195557" lon="30.0062799454"><time>2026-04-25T19:52:37Z</time></trkpt><trkpt lat="59.0769195557" lon="30.0062799454"><time>2026-04-25T19:52:40Z</time></trkpt><trkpt lat="59.0769195557" lon="30.0062584877"><time>2026-04-25T19:52:42Z</time></trkpt><trkpt lat="59.0769410133" lon="30.0062799454"><time>2026-04-25T19:52:45Z</time></trkpt><trkpt lat="59.0769624710" lon="30.0062584877"><time>2026-04-25T19:52:47Z</time></trkpt><trkpt lat="59.0769624710" lon="30.0062584877"><time>2026-04-25T19:52:50Z</time></trkpt><trkpt lat="59.0769839287" lon="30.0062799454"><time>2026-04-25T19:52:52Z</time></trkpt><trkpt lat="59.0769839287" lon="30.0063228607"><time>2026-04-25T19:52:55Z</time></trkpt><trkpt lat="59.0770053864" lon="30.0063443184"><time>2026-04-25T19:52:57Z</time></trkpt><trkpt lat="59.0770268440" lon="30.0063443184"><time>2026-04-25T19:53:00Z</time></trkpt><trkpt lat="59.0770483017" lon="30.0063443184"><time>2026-04-25T19:53:02Z</time></trkpt><trkpt lat="59.0770483017" lon="30.0063443184"><time>2026-04-25T19:53:05Z</time></trkpt><trkpt lat="59.0770483017" lon="30.0063443184"><time>2026-04-25T19:53:07Z</time></trkpt><trkpt lat="59.0770483017" lon="30.0063443184"><time>2026-04-25T19:53:10Z</time></trkpt><trkpt lat="59.0770483017" lon="30.0063443184"><time>2026-04-25T19:53:12Z</time></trkpt><trkpt lat="59.0770483017" lon="30.0063443184"><time>2026-04-25T19:53:15Z</time></trkpt><trkpt lat="59.0770483017" lon="30.0063443184"><time>2026-04-25T19:53:17Z</time></trkpt><trkpt lat="59.0770483017" lon="30.0063443184"><time>2026-04-25T19:53:20Z</time></trkpt><trkpt lat="59.0770483017" lon="30.0063443184"><time>2026-04-25T19:53:22Z</time></trkpt><trkpt lat="59.0770483017" lon="30.0063443184"><time>2026-04-25T19:53:25Z</time></trkpt><trkpt lat="59.0770483017" lon="30.0063443184"><time>2026-04-25T19:53:27Z</time></trkpt><trkpt lat="59.0770483017" lon="30.0063443184"><time>2026-04-25T19:53:30Z</time></trkpt><trkpt lat="59.0770483017" lon="30.0063443184"><time>2026-04-25T19:53:32Z</time></trkpt><trkpt lat="59.0770483017" lon="30.0063443184"><time>2026-04-25T19:53:35Z</time></trkpt><trkpt lat="59.0770483017" lon="30.0063443184"><time>2026-04-25T19:53:37Z</time></trkpt><trkpt lat="59.0770483017" lon="30.0063443184"><time>2026-04-25T19:53:40Z</time></trkpt><trkpt lat="59.0770483017" lon="30.0063443184"><time>2026-04-25T19:53:42Z</time></trkpt><trkpt lat="59.0770483017" lon="30.0063443184"><time>2026-04-25T19:53:45Z</time></trkpt><trkpt lat="59.0770483017" lon="30.0063443184"><time>2026-04-25T19:53:47Z</time></trkpt><trkpt lat="59.0770483017" lon="30.0063443184"><time>2026-04-25T19:53:50Z</time></trkpt><trkpt lat="59.0770483017" lon="30.0063443184"><time>2026-04-25T19:53:52Z</time></trkpt><trkpt lat="59.0770483017" lon="30.0063443184"><time>2026-04-25T19:53:55Z</time></trkpt><trkpt lat="59.0770483017" lon="30.0063443184"><time>2026-04-25T19:53:57Z</time></trkpt><trkpt lat="59.0770483017" lon="30.0063443184"><time>2026-04-25T19:54:00Z</time></trkpt><trkpt lat="59.0770483017" lon="30.0063443184"><time>2026-04-25T19:54:02Z</time></trkpt><trkpt lat="59.0770483017" lon="30.0063443184"><time>2026-04-25T19:54:05Z</time></trkpt><trkpt lat="59.0770483017" lon="30.0063443184"><time>2026-04-25T19:54:07Z</time></trkpt><trkpt lat="59.0770483017" lon="30.0063443184"><time>2026-04-25T19:54:10Z</time></trkpt><trkpt lat="59.0770483017" lon="30.0063443184"><time>2026-04-25T19:54:12Z</time></trkpt><trkpt lat="59.0770483017" lon="30.0063443184"><time>2026-04-25T19:54:15Z</time></trkpt><trkpt lat="59.0770483017" lon="30.0063443184"><time>2026-04-25T19:54:17Z</time></trkpt><trkpt lat="59.0770483017" lon="30.0063443184"><time>2026-04-25T19:54:20Z</time></trkpt><trkpt lat="59.0770483017" lon="30.0063443184"><time>2026-04-25T19:54:22Z</time></trkpt><trkpt lat="59.0770483017" lon="30.0063443184"><time>2026-04-25T19:54:25Z</time></trkpt><trkpt lat="59.0770483017" lon="30.0063443184"><time>2026-04-25T19:54:27Z</time></trkpt><trkpt lat="59.0770483017" lon="30.0063443184"><time>2026-04-25T19:54:30Z</time></trkpt><trkpt lat="59.0770483017" lon="30.0063443184"><time>2026-04-25T19:54:32Z</time></trkpt><trkpt lat="59.0770483017" lon="30.0063443184"><time>2026-04-25T19:54:35Z</time></trkpt><trkpt lat="59.0770483017" lon="30.0063443184"><time>2026-04-25T19:54:37Z</time></trkpt><trkpt lat="59.0770483017" lon="30.0063443184"><time>2026-04-25T19:54:40Z</time></trkpt><trkpt lat="59.0770483017" lon="30.0063443184"><time>2026-04-25T19:54:42Z</time></trkpt><trkpt lat="59.0770483017" lon="30.0063443184"><time>2026-04-25T19:54:45Z</time></trkpt><trkpt lat="59.0770483017" lon="30.0063443184"><time>2026-04-25T19:54:47Z</time></trkpt><trkpt lat="59.0770483017" lon="30.0063443184"><time>2026-04-25T19:54:50Z</time></trkpt><trkpt lat="59.0770483017" lon="30.0063443184"><time>2026-04-25T19:54:52Z</time></trkpt><trkpt lat="59.0770483017" lon="30.0063443184"><time>2026-04-25T19:54:55Z</time></trkpt><trkpt lat="59.0770483017" lon="30.0063443184"><time>2026-04-25T19:54:57Z</time></trkpt><trkpt lat="59.0770483017" lon="30.0063443184"><time>2026-04-25T19:55:00Z</time></trkpt><trkpt lat="59.0770483017" lon="30.0063443184"><time>2026-04-25T19:55:02Z</time></trkpt><trkpt lat="59.0770483017" lon="30.0063443184"><time>2026-04-25T19:55:05Z</time></trkpt><trkpt lat="59.0770483017" lon="30.0063443184"><time>2026-04-25T19:55:07Z</time></trkpt><trkpt lat="59.0770483017" lon="30.0063443184"><time>2026-04-25T19:55:10Z</time></trkpt><trkpt lat="59.0770483017" lon="30.0063443184"><time>2026-04-25T19:55:12Z</time></trkpt><trkpt lat="59.0770697594" lon="30.0063228607"><time>2026-04-25T19:55:15Z</time></trkpt><trkpt lat="59.0770483017" lon="30.0063014030"><time>2026-04-25T19:55:17Z</time></trkpt><trkpt lat="59.0770483017" lon="30.0062584877"><time>2026-04-25T19:55:20Z</time></trkpt><trkpt lat="59.0770483017" lon="30.0062370300"><time>2026-04-25T19:55:22Z</time></trkpt><trkpt lat="59.0770268440" lon="30.0061726570"><time>2026-04-25T19:55:25Z</time></trkpt><trkpt lat="59.0770268440" lon="30.0061297417"><time>2026-04-25T19:55:27Z</time></trkpt><trkpt lat="59.0770483017" lon="30.0061082840"><time>2026-04-25T19:55:30Z</time></trkpt><trkpt lat="59.0770483017" lon="30.0060868263"><time>2026-04-25T19:55:32Z</time></trkpt><trkpt lat="59.0770697594" lon="30.0060439110"><time>2026-04-25T19:55:35Z</time></trkpt><trkpt lat="59.0770697594" lon="30.0060439110"><time>2026-04-25T19:55:37Z</time></trkpt><trkpt lat="59.0770697594" lon="30.0060439110"><time>2026-04-25T19:55:40Z</time></trkpt><trkpt lat="59.0770697594" lon="30.0060439110"><time>2026-04-25T19:55:42Z</time></trkpt><trkpt lat="59.0770697594" lon="30.0060439110"><time>2026-04-25T19:55:45Z</time></trkpt><trkpt lat="59.0770697594" lon="30.0060439110"><time>2026-04-25T19:55:47Z</time></trkpt><trkpt lat="59.0770697594" lon="30.0060224533"><time>2026-04-25T19:55:50Z</time></trkpt><trkpt lat="59.0770697594" lon="30.0060224533"><time>2026-04-25T19:55:52Z</time></trkpt><trkpt lat="59.0770697594" lon="30.0060224533"><time>2026-04-25T19:55:55Z</time></trkpt><trkpt lat="59.0770697594" lon="30.0060224533"><time>2026-04-25T19:55:57Z</time></trkpt><trkpt lat="59.0770697594" lon="30.0060224533"><time>2026-04-25T19:56:00Z</time></trkpt><trkpt lat="59.0770697594" lon="30.0060224533"><time>2026-04-25T19:56:02Z</time></trkpt><trkpt lat="59.0770697594" lon="30.0060224533"><time>2026-04-25T19:56:05Z</time></trkpt><trkpt lat="59.0770697594" lon="30.0060224533"><time>2026-04-25T19:56:07Z</time></trkpt><trkpt lat="59.0770697594" lon="30.0059580803"><time>2026-04-25T19:56:10Z</time></trkpt><trkpt lat="59.0770912170" lon="30.0059580803"><time>2026-04-25T19:56:12Z</time></trkpt><trkpt lat="59.0771126747" lon="30.0059151649"><time>2026-04-25T19:56:15Z</time></trkpt><trkpt lat="59.0771126747" lon="30.0058937073"><time>2026-04-25T19:56:17Z</time></trkpt><trkpt lat="59.0771126747" lon="30.0058507919"><time>2026-04-25T19:56:20Z</time></trkpt><trkpt lat="59.0771126747" lon="30.0058507919"><time>2026-04-25T19:56:22Z</time></trkpt><trkpt lat="59.0770912170" lon="30.0058293343"><time>2026-04-25T19:56:25Z</time></trkpt><trkpt lat="59.0770697594" lon="30.0058293343"><time>2026-04-25T19:56:27Z</time></trkpt><trkpt lat="59.0770483017" lon="30.0058293343"><time>2026-04-25T19:56:30Z</time></trkpt><trkpt lat="59.0770483017" lon="30.0058293343"><time>2026-04-25T19:56:32Z</time></trkpt><trkpt lat="59.0770483017" lon="30.0058293343"><time>2026-04-25T19:56:35Z</time></trkpt><trkpt lat="59.0770483017" lon="30.0058078766"><time>2026-04-25T19:56:37Z</time></trkpt><trkpt lat="59.0770483017" lon="30.0058078766"><time>2026-04-25T19:56:40Z</time></trkpt><trkpt lat="59.0770483017" lon="30.0058078766"><time>2026-04-25T19:56:42Z</time></trkpt><trkpt lat="59.0770483017" lon="30.0057864189"><time>2026-04-25T19:56:45Z</time></trkpt><trkpt lat="59.0770483017" lon="30.0057864189"><time>2026-04-25T19:56:47Z</time></trkpt><trkpt lat="59.0770483017" lon="30.0057864189"><time>2026-04-25T19:56:50Z</time></trkpt><trkpt lat="59.0770483017" lon="30.0057864189"><time>2026-04-25T19:56:52Z</time></trkpt><trkpt lat="59.0770483017" lon="30.0057864189"><time>2026-04-25T19:56:55Z</time></trkpt><trkpt lat="59.0770483017" lon="30.0057864189"><time>2026-04-25T19:56:57Z</time></trkpt><trkpt lat="59.0770483017" lon="30.0057864189"><time>2026-04-25T19:57:00Z</time></trkpt><trkpt lat="59.0770483017" lon="30.0057864189"><time>2026-04-25T19:57:02Z</time></trkpt><trkpt lat="59.0770483017" lon="30.0057864189"><time>2026-04-25T19:57:05Z</time></trkpt><trkpt lat="59.0770483017" lon="30.0057864189"><time>2026-04-25T19:57:07Z</time></trkpt><trkpt lat="59.0770483017" lon="30.0057864189"><time>2026-04-25T19:57:10Z</time></trkpt><trkpt lat="59.0770483017" lon="30.0057864189"><time>2026-04-25T19:57:12Z</time></trkpt><trkpt lat="59.0770483017" lon="30.0057864189"><time>2026-04-25T19:57:15Z</time></trkpt><trkpt lat="59.0770483017" lon="30.0057864189"><time>2026-04-25T19:57:17Z</time></trkpt><trkpt lat="59.0770268440" lon="30.0057649612"><time>2026-04-25T19:57:20Z</time></trkpt><trkpt lat="59.0770268440" lon="30.0057435036"><time>2026-04-25T19:57:22Z</time></trkpt><trkpt lat="59.0770268440" lon="30.0057005882"><time>2026-04-25T19:57:25Z</time></trkpt><trkpt lat="59.0770268440" lon="30.0057005882"><time>2026-04-25T19:57:27Z</time></trkpt><trkpt lat="59.0770268440" lon="30.0056791306"><time>2026-04-25T19:57:30Z</time></trkpt><trkpt lat="59.0770268440" lon="30.0056791306"><time>2026-04-25T19:57:32Z</time></trkpt><trkpt lat="59.0770053864" lon="30.0056362152"><time>2026-04-25T19:57:35Z</time></trkpt><trkpt lat="59.0770053864" lon="30.0056362152"><time>2026-04-25T19:57:37Z</time></trkpt><trkpt lat="59.0770053864" lon="30.0056147575"><time>2026-04-25T19:57:40Z</time></trkpt><trkpt lat="59.0770053864" lon="30.0056147575"><time>2026-04-25T19:57:42Z</time></trkpt><trkpt lat="59.0770053864" lon="30.0056147575"><time>2026-04-25T19:57:45Z</time></trkpt><trkpt lat="59.0770053864" lon="30.0055503845"><time>2026-04-25T19:57:47Z</time></trkpt><trkpt lat="59.0769839287" lon="30.0055074692"><time>2026-04-25T19:57:52Z</time></trkpt><trkpt lat="59.0769839287" lon="30.0055074692"><time>2026-04-25T19:57:55Z</time></trkpt><trkpt lat="59.0769839287" lon="30.0055074692"><time>2026-04-25T19:57:57Z</time></trkpt><trkpt lat="59.0769839287" lon="30.0055074692"><time>2026-04-25T19:58:00Z</time></trkpt><trkpt lat="59.0769839287" lon="30.0055074692"><time>2026-04-25T19:58:02Z</time></trkpt><trkpt lat="59.0769839287" lon="30.0054860115"><time>2026-04-25T19:58:05Z</time></trkpt><trkpt lat="59.0769839287" lon="30.0054860115"><time>2026-04-25T19:58:07Z</time></trkpt><trkpt lat="59.0769839287" lon="30.0054860115"><time>2026-04-25T19:58:10Z</time></trkpt><trkpt lat="59.0769839287" lon="30.0055074692"><time>2026-04-25T19:58:12Z</time></trkpt><trkpt lat="59.0769624710" lon="30.0055074692"><time>2026-04-25T19:58:15Z</time></trkpt><trkpt lat="59.0769624710" lon="30.0054860115"><time>2026-04-25T19:58:17Z</time></trkpt><trkpt lat="59.0769624710" lon="30.0054860115"><time>2026-04-25T19:58:20Z</time></trkpt><trkpt lat="59.0769624710" lon="30.0054860115"><time>2026-04-25T19:58:22Z</time></trkpt><trkpt lat="59.0769624710" lon="30.0054860115"><time>2026-04-25T19:58:25Z</time></trkpt><trkpt lat="59.0769624710" lon="30.0054860115"><time>2026-04-25T19:58:27Z</time></trkpt><trkpt lat="59.0769624710" lon="30.0054860115"><time>2026-04-25T19:58:30Z</time></trkpt><trkpt lat="59.0769624710" lon="30.0054860115"><time>2026-04-25T19:58:32Z</time></trkpt><trkpt lat="59.0769624710" lon="30.0054860115"><time>2026-04-25T19:58:35Z</time></trkpt><trkpt lat="59.0769624710" lon="30.0055074692"><time>2026-04-25T19:58:37Z</time></trkpt><trkpt lat="59.0769624710" lon="30.0055074692"><time>2026-04-25T19:58:40Z</time></trkpt><trkpt lat="59.0769624710" lon="30.0055074692"><time>2026-04-25T19:58:42Z</time></trkpt><trkpt lat="59.0769624710" lon="30.0055074692"><time>2026-04-25T19:58:45Z</time></trkpt><trkpt lat="59.0769624710" lon="30.0055074692"><time>2026-04-25T19:58:47Z</time></trkpt><trkpt lat="59.0769410133" lon="30.0054860115"><time>2026-04-25T19:58:50Z</time></trkpt><trkpt lat="59.0769410133" lon="30.0054645538"><time>2026-04-25T19:58:52Z</time></trkpt><trkpt lat="59.0769195557" lon="30.0054860115"><time>2026-04-25T19:58:55Z</time></trkpt><trkpt lat="59.0769195557" lon="30.0054645538"><time>2026-04-25T19:58:57Z</time></trkpt><trkpt lat="59.0768980980" lon="30.0054645538"><time>2026-04-25T19:59:00Z</time></trkpt><trkpt lat="59.0768980980" lon="30.0054645538"><time>2026-04-25T19:59:02Z</time></trkpt><trkpt lat="59.0768980980" lon="30.0054645538"><time>2026-04-25T19:59:05Z</time></trkpt><trkpt lat="59.0768980980" lon="30.0054645538"><time>2026-04-25T19:59:07Z</time></trkpt><trkpt lat="59.0768980980" lon="30.0054645538"><time>2026-04-25T19:59:10Z</time></trkpt><trkpt lat="59.0768766403" lon="30.0054645538"><time>2026-04-25T19:59:12Z</time></trkpt><trkpt lat="59.0768766403" lon="30.0054645538"><time>2026-04-25T19:59:15Z</time></trkpt><trkpt lat="59.0768766403" lon="30.0054645538"><time>2026-04-25T19:59:17Z</time></trkpt><trkpt lat="59.0768766403" lon="30.0054645538"><time>2026-04-25T19:59:20Z</time></trkpt><trkpt lat="59.0768766403" lon="30.0054645538"><time>2026-04-25T19:59:22Z</time></trkpt><trkpt lat="59.0768551826" lon="30.0054645538"><time>2026-04-25T19:59:25Z</time></trkpt><trkpt lat="59.0768551826" lon="30.0054645538"><time>2026-04-25T19:59:27Z</time></trkpt><trkpt lat="59.0768337250" lon="30.0054645538"><time>2026-04-25T19:59:30Z</time></trkpt><trkpt lat="59.0768122673" lon="30.0054645538"><time>2026-04-25T19:59:32Z</time></trkpt><trkpt lat="59.0768122673" lon="30.0054645538"><time>2026-04-25T19:59:35Z</time></trkpt><trkpt lat="59.0768122673" lon="30.0054645538"><time>2026-04-25T19:59:37Z</time></trkpt><trkpt lat="59.0768122673" lon="30.0054645538"><time>2026-04-25T19:59:40Z</time></trkpt><trkpt lat="59.0768122673" lon="30.0054645538"><time>2026-04-25T19:59:42Z</time></trkpt><trkpt lat="59.0768122673" lon="30.0054645538"><time>2026-04-25T19:59:45Z</time></trkpt><trkpt lat="59.0768122673" lon="30.0054645538"><time>2026-04-25T19:59:47Z</time></trkpt><trkpt lat="59.0768122673" lon="30.0054645538"><time>2026-04-25T19:59:50Z</time></trkpt><trkpt lat="59.0768122673" lon="30.0054430962"><time>2026-04-25T19:59:52Z</time></trkpt><trkpt lat="59.0768122673" lon="30.0054430962"><time>2026-04-25T19:59:55Z</time></trkpt><trkpt lat="59.0768122673" lon="30.0054430962"><time>2026-04-25T19:59:57Z</time></trkpt><trkpt lat="59.0768122673" lon="30.0054430962"><time>2026-04-25T20:00:00Z</time></trkpt><trkpt lat="59.0768122673" lon="30.0054430962"><time>2026-04-25T20:00:02Z</time></trkpt><trkpt lat="59.0767908096" lon="30.0054645538"><time>2026-04-25T20:00:05Z</time></trkpt><trkpt lat="59.0767908096" lon="30.0054645538"><time>2026-04-25T20:00:07Z</time></trkpt><trkpt lat="59.0767908096" lon="30.0054645538"><time>2026-04-25T20:00:10Z</time></trkpt><trkpt lat="59.0767908096" lon="30.0054645538"><time>2026-04-25T20:00:12Z</time></trkpt><trkpt lat="59.0767908096" lon="30.0054645538"><time>2026-04-25T20:00:15Z</time></trkpt><trkpt lat="59.0767908096" lon="30.0054645538"><time>2026-04-25T20:00:17Z</time></trkpt><trkpt lat="59.0767693520" lon="30.0054645538"><time>2026-04-25T20:00:20Z</time></trkpt><trkpt lat="59.0767693520" lon="30.0054645538"><time>2026-04-25T20:00:22Z</time></trkpt><trkpt lat="59.0767693520" lon="30.0054860115"><time>2026-04-25T20:00:25Z</time></trkpt><trkpt lat="59.0767693520" lon="30.0054860115"><time>2026-04-25T20:00:27Z</time></trkpt><trkpt lat="59.0767693520" lon="30.0054860115"><time>2026-04-25T20:00:30Z</time></trkpt><trkpt lat="59.0767478943" lon="30.0054860115"><time>2026-04-25T20:00:32Z</time></trkpt><trkpt lat="59.0767478943" lon="30.0054860115"><time>2026-04-25T20:00:35Z</time></trkpt><trkpt lat="59.0767478943" lon="30.0055074692"><time>2026-04-25T20:00:37Z</time></trkpt><trkpt lat="59.0767264366" lon="30.0055074692"><time>2026-04-25T20:00:40Z</time></trkpt><trkpt lat="59.0767264366" lon="30.0055074692"><time>2026-04-25T20:00:42Z</time></trkpt><trkpt lat="59.0767264366" lon="30.0055074692"><time>2026-04-25T20:00:45Z</time></trkpt><trkpt lat="59.0767049789" lon="30.0055074692"><time>2026-04-25T20:00:47Z</time></trkpt><trkpt lat="59.0767049789" lon="30.0055074692"><time>2026-04-25T20:00:50Z</time></trkpt><trkpt lat="59.0767049789" lon="30.0055074692"><time>2026-04-25T20:00:52Z</time></trkpt><trkpt lat="59.0766835213" lon="30.0055289268"><time>2026-04-25T20:00:55Z</time></trkpt><trkpt lat="59.0766620636" lon="30.0055289268"><time>2026-04-25T20:00:57Z</time></trkpt><trkpt lat="59.0766406059" lon="30.0055289268"><time>2026-04-25T20:01:00Z</time></trkpt><trkpt lat="59.0766406059" lon="30.0055289268"><time>2026-04-25T20:01:02Z</time></trkpt><trkpt lat="59.0766406059" lon="30.0055289268"><time>2026-04-25T20:01:05Z</time></trkpt><trkpt lat="59.0766406059" lon="30.0055289268"><time>2026-04-25T20:01:07Z</time></trkpt><trkpt lat="59.0766406059" lon="30.0055289268"><time>2026-04-25T20:01:10Z</time></trkpt><trkpt lat="59.0766191483" lon="30.0055289268"><time>2026-04-25T20:01:12Z</time></trkpt><trkpt lat="59.0765976906" lon="30.0055289268"><time>2026-04-25T20:01:15Z</time></trkpt><trkpt lat="59.0765976906" lon="30.0055289268"><time>2026-04-25T20:01:17Z</time></trkpt><trkpt lat="59.0765976906" lon="30.0055289268"><time>2026-04-25T20:01:20Z</time></trkpt><trkpt lat="59.0765762329" lon="30.0055503845"><time>2026-04-25T20:01:22Z</time></trkpt><trkpt lat="59.0765547752" lon="30.0055503845"><time>2026-04-25T20:01:25Z</time></trkpt><trkpt lat="59.0765547752" lon="30.0055503845"><time>2026-04-25T20:01:27Z</time></trkpt><trkpt lat="59.0765333176" lon="30.0055074692"><time>2026-04-25T20:01:30Z</time></trkpt><trkpt lat="59.0765333176" lon="30.0055074692"><time>2026-04-25T20:01:32Z</time></trkpt><trkpt lat="59.0765118599" lon="30.0055289268"><time>2026-04-25T20:01:35Z</time></trkpt><trkpt lat="59.0765118599" lon="30.0055289268"><time>2026-04-25T20:01:37Z</time></trkpt><trkpt lat="59.0765333176" lon="30.0055074692"><time>2026-04-25T20:01:40Z</time></trkpt><trkpt lat="59.0765333176" lon="30.0055289268"><time>2026-04-25T20:01:42Z</time></trkpt><trkpt lat="59.0765333176" lon="30.0055503845"><time>2026-04-25T20:01:45Z</time></trkpt><trkpt lat="59.0765333176" lon="30.0055289268"><time>2026-04-25T20:01:47Z</time></trkpt><trkpt lat="59.0765333176" lon="30.0054860115"><time>2026-04-25T20:01:50Z</time></trkpt><trkpt lat="59.0765333176" lon="30.0054860115"><time>2026-04-25T20:01:52Z</time></trkpt><trkpt lat="59.0765118599" lon="30.0055074692"><time>2026-04-25T20:01:55Z</time></trkpt><trkpt lat="59.0765118599" lon="30.0055074692"><time>2026-04-25T20:01:57Z</time></trkpt><trkpt lat="59.0765118599" lon="30.0055074692"><time>2026-04-25T20:02:00Z</time></trkpt><trkpt lat="59.0765118599" lon="30.0055074692"><time>2026-04-25T20:02:02Z</time></trkpt><trkpt lat="59.0764904022" lon="30.0055074692"><time>2026-04-25T20:02:05Z</time></trkpt><trkpt lat="59.0764689445" lon="30.0055074692"><time>2026-04-25T20:02:07Z</time></trkpt><trkpt lat="59.0764474869" lon="30.0055289268"><time>2026-04-25T20:02:10Z</time></trkpt><trkpt lat="59.0764474869" lon="30.0055289268"><time>2026-04-25T20:02:12Z</time></trkpt><trkpt lat="59.0764474869" lon="30.0055074692"><time>2026-04-25T20:02:15Z</time></trkpt><trkpt lat="59.0764474869" lon="30.0055074692"><time>2026-04-25T20:02:17Z</time></trkpt><trkpt lat="59.0764474869" lon="30.0055074692"><time>2026-04-25T20:02:20Z</time></trkpt><trkpt lat="59.0764260292" lon="30.0055074692"><time>2026-04-25T20:02:22Z</time></trkpt><trkpt lat="59.0764260292" lon="30.0054860115"><time>2026-04-25T20:02:25Z</time></trkpt><trkpt lat="59.0764260292" lon="30.0054860115"><time>2026-04-25T20:02:27Z</time></trkpt><trkpt lat="59.0764045715" lon="30.0054645538"><time>2026-04-25T20:02:30Z</time></trkpt><trkpt lat="59.0764260292" lon="30.0054430962"><time>2026-04-25T20:02:32Z</time></trkpt><trkpt lat="59.0764260292" lon="30.0054645538"><time>2026-04-25T20:02:35Z</time></trkpt><trkpt lat="59.0764260292" lon="30.0054430962"><time>2026-04-25T20:02:37Z</time></trkpt><trkpt lat="59.0764045715" lon="30.0054216385"><time>2026-04-25T20:02:40Z</time></trkpt><trkpt lat="59.0764045715" lon="30.0054216385"><time>2026-04-25T20:02:42Z</time></trkpt><trkpt lat="59.0763831139" lon="30.0054216385"><time>2026-04-25T20:02:45Z</time></trkpt><trkpt lat="59.0763831139" lon="30.0054216385"><time>2026-04-25T20:02:47Z</time></trkpt><trkpt lat="59.0763616562" lon="30.0054430962"><time>2026-04-25T20:02:50Z</time></trkpt><trkpt lat="59.0763616562" lon="30.0054430962"><time>2026-04-25T20:02:52Z</time></trkpt><trkpt lat="59.0763616562" lon="30.0054430962"><time>2026-04-25T20:02:55Z</time></trkpt><trkpt lat="59.0763616562" lon="30.0054430962"><time>2026-04-25T20:02:57Z</time></trkpt><trkpt lat="59.0763616562" lon="30.0054430962"><time>2026-04-25T20:03:00Z</time></trkpt><trkpt lat="59.0763401985" lon="30.0054645538"><time>2026-04-25T20:03:02Z</time></trkpt><trkpt lat="59.0763401985" lon="30.0054645538"><time>2026-04-25T20:03:05Z</time></trkpt><trkpt lat="59.0763187408" lon="30.0054645538"><time>2026-04-25T20:03:07Z</time></trkpt><trkpt lat="59.0763187408" lon="30.0054860115"><time>2026-04-25T20:03:10Z</time></trkpt><trkpt lat="59.0763187408" lon="30.0054860115"><time>2026-04-25T20:03:12Z</time></trkpt><trkpt lat="59.0762972832" lon="30.0054860115"><time>2026-04-25T20:03:15Z</time></trkpt><trkpt lat="59.0762972832" lon="30.0054645538"><time>2026-04-25T20:03:17Z</time></trkpt><trkpt lat="59.0762758255" lon="30.0054645538"><time>2026-04-25T20:03:20Z</time></trkpt><trkpt lat="59.0762758255" lon="30.0054645538"><time>2026-04-25T20:03:22Z</time></trkpt><trkpt lat="59.0762543678" lon="30.0054430962"><time>2026-04-25T20:03:25Z</time></trkpt><trkpt lat="59.0762329102" lon="30.0054430962"><time>2026-04-25T20:03:27Z</time></trkpt><trkpt lat="59.0762114525" lon="30.0054430962"><time>2026-04-25T20:03:30Z</time></trkpt><trkpt lat="59.0762114525" lon="30.0054645538"><time>2026-04-25T20:03:32Z</time></trkpt><trkpt lat="59.0761899948" lon="30.0054645538"><time>2026-04-25T20:03:35Z</time></trkpt><trkpt lat="59.0761899948" lon="30.0054645538"><time>2026-04-25T20:03:37Z</time></trkpt><trkpt lat="59.0761899948" lon="30.0055074692"><time>2026-04-25T20:03:40Z</time></trkpt><trkpt lat="59.0761899948" lon="30.0055289268"><time>2026-04-25T20:03:42Z</time></trkpt><trkpt lat="59.0761685371" lon="30.0055503845"><time>2026-04-25T20:03:45Z</time></trkpt><trkpt lat="59.0761685371" lon="30.0055503845"><time>2026-04-25T20:03:47Z</time></trkpt><trkpt lat="59.0761470795" lon="30.0055503845"><time>2026-04-25T20:03:50Z</time></trkpt><trkpt lat="59.0761470795" lon="30.0055503845"><time>2026-04-25T20:03:52Z</time></trkpt><trkpt lat="59.0761256218" lon="30.0055503845"><time>2026-04-25T20:03:55Z</time></trkpt><trkpt lat="59.0761041641" lon="30.0055503845"><time>2026-04-25T20:03:57Z</time></trkpt><trkpt lat="59.0760827065" lon="30.0055289268"><time>2026-04-25T20:04:00Z</time></trkpt><trkpt lat="59.0760827065" lon="30.0055503845"><time>2026-04-25T20:04:02Z</time></trkpt><trkpt lat="59.0760827065" lon="30.0055289268"><time>2026-04-25T20:04:05Z</time></trkpt><trkpt lat="59.0760612488" lon="30.0055289268"><time>2026-04-25T20:04:07Z</time></trkpt><trkpt lat="59.0760612488" lon="30.0055289268"><time>2026-04-25T20:04:10Z</time></trkpt><trkpt lat="59.0760612488" lon="30.0055074692"><time>2026-04-25T20:04:15Z</time></trkpt><trkpt lat="59.0760612488" lon="30.0055074692"><time>2026-04-25T20:04:17Z</time></trkpt><trkpt lat="59.0760397911" lon="30.0055074692"><time>2026-04-25T20:04:20Z</time></trkpt><trkpt lat="59.0760183334" lon="30.0055074692"><time>2026-04-25T20:04:22Z</time></trkpt><trkpt lat="59.0760183334" lon="30.0055074692"><time>2026-04-25T20:04:25Z</time></trkpt><trkpt lat="59.0759968758" lon="30.0055289268"><time>2026-04-25T20:04:27Z</time></trkpt><trkpt lat="59.0759968758" lon="30.0055289268"><time>2026-04-25T20:04:30Z</time></trkpt><trkpt lat="59.0759754181" lon="30.0055503845"><time>2026-04-25T20:04:32Z</time></trkpt><trkpt lat="59.0759754181" lon="30.0055503845"><time>2026-04-25T20:04:35Z</time></trkpt><trkpt lat="59.0759754181" lon="30.0055718422"><time>2026-04-25T20:04:37Z</time></trkpt><trkpt lat="59.0759539604" lon="30.0055718422"><time>2026-04-25T20:04:40Z</time></trkpt><trkpt lat="59.0759325027" lon="30.0055932999"><time>2026-04-25T20:04:42Z</time></trkpt><trkpt lat="59.0759110451" lon="30.0055932999"><time>2026-04-25T20:04:45Z</time></trkpt><trkpt lat="59.0759110451" lon="30.0055932999"><time>2026-04-25T20:04:47Z</time></trkpt><trkpt lat="59.0758895874" lon="30.0055932999"><time>2026-04-25T20:04:50Z</time></trkpt><trkpt lat="59.0758681297" lon="30.0055932999"><time>2026-04-25T20:04:52Z</time></trkpt><trkpt lat="59.0758681297" lon="30.0055932999"><time>2026-04-25T20:04:55Z</time></trkpt><trkpt lat="59.0758466721" lon="30.0056147575"><time>2026-04-25T20:04:57Z</time></trkpt><trkpt lat="59.0758466721" lon="30.0056147575"><time>2026-04-25T20:05:00Z</time></trkpt><trkpt lat="59.0758466721" lon="30.0056147575"><time>2026-04-25T20:05:02Z</time></trkpt><trkpt lat="59.0758252144" lon="30.0055932999"><time>2026-04-25T20:05:05Z</time></trkpt><trkpt lat="59.0758252144" lon="30.0055932999"><time>2026-04-25T20:05:07Z</time></trkpt><trkpt lat="59.0757822990" lon="30.0055718422"><time>2026-04-25T20:05:10Z</time></trkpt><trkpt lat="59.0757822990" lon="30.0055718422"><time>2026-04-25T20:05:12Z</time></trkpt><trkpt lat="59.0757608414" lon="30.0055932999"><time>2026-04-25T20:05:15Z</time></trkpt><trkpt lat="59.0757608414" lon="30.0055718422"><time>2026-04-25T20:05:17Z</time></trkpt><trkpt lat="59.0757393837" lon="30.0055718422"><time>2026-04-25T20:05:20Z</time></trkpt><trkpt lat="59.0757393837" lon="30.0055503845"><time>2026-04-25T20:05:22Z</time></trkpt><trkpt lat="59.0757179260" lon="30.0055718422"><time>2026-04-25T20:05:25Z</time></trkpt><trkpt lat="59.0756964684" lon="30.0055718422"><time>2026-04-25T20:05:27Z</time></trkpt><trkpt lat="59.0756964684" lon="30.0055718422"><time>2026-04-25T20:05:30Z</time></trkpt><trkpt lat="59.0756750107" lon="30.0055718422"><time>2026-04-25T20:05:32Z</time></trkpt><trkpt lat="59.0756535530" lon="30.0055932999"><time>2026-04-25T20:05:35Z</time></trkpt><trkpt lat="59.0756535530" lon="30.0055932999"><time>2026-04-25T20:05:37Z</time></trkpt><trkpt lat="59.0756535530" lon="30.0056147575"><time>2026-04-25T20:05:40Z</time></trkpt><trkpt lat="59.0756535530" lon="30.0056147575"><time>2026-04-25T20:05:42Z</time></trkpt><trkpt lat="59.0756535530" lon="30.0056147575"><time>2026-04-25T20:05:45Z</time></trkpt><trkpt lat="59.0756535530" lon="30.0056147575"><time>2026-04-25T20:05:47Z</time></trkpt><trkpt lat="59.0756320953" lon="30.0056147575"><time>2026-04-25T20:05:50Z</time></trkpt><trkpt lat="59.0756320953" lon="30.0056362152"><time>2026-04-25T20:05:52Z</time></trkpt><trkpt lat="59.0756106377" lon="30.0056362152"><time>2026-04-25T20:05:55Z</time></trkpt><trkpt lat="59.0756106377" lon="30.0056362152"><time>2026-04-25T20:05:57Z</time></trkpt><trkpt lat="59.0755891800" lon="30.0056362152"><time>2026-04-25T20:06:00Z</time></trkpt><trkpt lat="59.0755677223" lon="30.0056576729"><time>2026-04-25T20:06:02Z</time></trkpt><trkpt lat="59.0755677223" lon="30.0056576729"><time>2026-04-25T20:06:05Z</time></trkpt><trkpt lat="59.0755462646" lon="30.0056791306"><time>2026-04-25T20:06:07Z</time></trkpt><trkpt lat="59.0755462646" lon="30.0056791306"><time>2026-04-25T20:06:10Z</time></trkpt><trkpt lat="59.0755462646" lon="30.0056791306"><time>2026-04-25T20:06:12Z</time></trkpt><trkpt lat="59.0755248070" lon="30.0056791306"><time>2026-04-25T20:06:15Z</time></trkpt><trkpt lat="59.0755033493" lon="30.0057005882"><time>2026-04-25T20:06:17Z</time></trkpt><trkpt lat="59.0755033493" lon="30.0057220459"><time>2026-04-25T20:06:20Z</time></trkpt><trkpt lat="59.0754818916" lon="30.0057220459"><time>2026-04-25T20:06:22Z</time></trkpt><trkpt lat="59.0754604340" lon="30.0057435036"><time>2026-04-25T20:06:25Z</time></trkpt><trkpt lat="59.0754604340" lon="30.0057435036"><time>2026-04-25T20:06:27Z</time></trkpt><trkpt lat="59.0754604340" lon="30.0057435036"><time>2026-04-25T20:06:30Z</time></trkpt><trkpt lat="59.0754604340" lon="30.0057435036"><time>2026-04-25T20:06:32Z</time></trkpt><trkpt lat="59.0754389763" lon="30.0057435036"><time>2026-04-25T20:06:35Z</time></trkpt><trkpt lat="59.0754389763" lon="30.0057649612"><time>2026-04-25T20:06:37Z</time></trkpt><trkpt lat="59.0754175186" lon="30.0057649612"><time>2026-04-25T20:06:40Z</time></trkpt><trkpt lat="59.0754175186" lon="30.0057649612"><time>2026-04-25T20:06:42Z</time></trkpt><trkpt lat="59.0753960609" lon="30.0057435036"><time>2026-04-25T20:06:45Z</time></trkpt><trkpt lat="59.0753960609" lon="30.0057435036"><time>2026-04-25T20:06:47Z</time></trkpt><trkpt lat="59.0753746033" lon="30.0057435036"><time>2026-04-25T20:06:50Z</time></trkpt><trkpt lat="59.0753531456" lon="30.0057435036"><time>2026-04-25T20:06:52Z</time></trkpt><trkpt lat="59.0753531456" lon="30.0057435036"><time>2026-04-25T20:06:55Z</time></trkpt><trkpt lat="59.0753316879" lon="30.0057649612"><time>2026-04-25T20:06:57Z</time></trkpt><trkpt lat="59.0753316879" lon="30.0057864189"><time>2026-04-25T20:07:00Z</time></trkpt><trkpt lat="59.0753316879" lon="30.0057864189"><time>2026-04-25T20:07:02Z</time></trkpt><trkpt lat="59.0753102303" lon="30.0058078766"><time>2026-04-25T20:07:05Z</time></trkpt><trkpt lat="59.0753102303" lon="30.0058507919"><time>2026-04-25T20:07:07Z</time></trkpt><trkpt lat="59.0752887726" lon="30.0058722496"><time>2026-04-25T20:07:10Z</time></trkpt><trkpt lat="59.0752887726" lon="30.0058937073"><time>2026-04-25T20:07:12Z</time></trkpt><trkpt lat="59.0752887726" lon="30.0059151649"><time>2026-04-25T20:07:15Z</time></trkpt><trkpt lat="59.0752887726" lon="30.0059366226"><time>2026-04-25T20:07:17Z</time></trkpt><trkpt lat="59.0752887726" lon="30.0059580803"><time>2026-04-25T20:07:20Z</time></trkpt><trkpt lat="59.0752887726" lon="30.0059795380"><time>2026-04-25T20:07:22Z</time></trkpt><trkpt lat="59.0752673149" lon="30.0060224533"><time>2026-04-25T20:07:25Z</time></trkpt><trkpt lat="59.0752458572" lon="30.0060224533"><time>2026-04-25T20:07:27Z</time></trkpt><trkpt lat="59.0752243996" lon="30.0060439110"><time>2026-04-25T20:07:30Z</time></trkpt><trkpt lat="59.0752029419" lon="30.0060653687"><time>2026-04-25T20:07:32Z</time></trkpt><trkpt lat="59.0752029419" lon="30.0060868263"><time>2026-04-25T20:07:35Z</time></trkpt><trkpt lat="59.0751814842" lon="30.0061082840"><time>2026-04-25T20:07:37Z</time></trkpt><trkpt lat="59.0751814842" lon="30.0061511993"><time>2026-04-25T20:07:40Z</time></trkpt><trkpt lat="59.0751600266" lon="30.0061726570"><time>2026-04-25T20:07:42Z</time></trkpt><trkpt lat="59.0751600266" lon="30.0061726570"><time>2026-04-25T20:07:45Z</time></trkpt><trkpt lat="59.0751600266" lon="30.0061941147"><time>2026-04-25T20:07:47Z</time></trkpt><trkpt lat="59.0751600266" lon="30.0062155724"><time>2026-04-25T20:07:50Z</time></trkpt><trkpt lat="59.0751385689" lon="30.0062370300"><time>2026-04-25T20:07:52Z</time></trkpt><trkpt lat="59.0751171112" lon="30.0062584877"><time>2026-04-25T20:07:55Z</time></trkpt><trkpt lat="59.0751171112" lon="30.0063014030"><time>2026-04-25T20:07:57Z</time></trkpt><trkpt lat="59.0750956535" lon="30.0063014030"><time>2026-04-25T20:08:00Z</time></trkpt><trkpt lat="59.0750741959" lon="30.0063014030"><time>2026-04-25T20:08:02Z</time></trkpt><trkpt lat="59.0750527382" lon="30.0063014030"><time>2026-04-25T20:08:05Z</time></trkpt><trkpt lat="59.0750527382" lon="30.0063014030"><time>2026-04-25T20:08:07Z</time></trkpt><trkpt lat="59.0750312805" lon="30.0063014030"><time>2026-04-25T20:08:10Z</time></trkpt><trkpt lat="59.0750312805" lon="30.0063228607"><time>2026-04-25T20:08:12Z</time></trkpt><trkpt lat="59.0750098228" lon="30.0063228607"><time>2026-04-25T20:08:15Z</time></trkpt><trkpt lat="59.0749883652" lon="30.0063443184"><time>2026-04-25T20:08:17Z</time></trkpt><trkpt lat="59.0749669075" lon="30.0063657761"><time>2026-04-25T20:08:20Z</time></trkpt><trkpt lat="59.0749669075" lon="30.0063657761"><time>2026-04-25T20:08:22Z</time></trkpt><trkpt lat="59.0749454498" lon="30.0063443184"><time>2026-04-25T20:08:25Z</time></trkpt><trkpt lat="59.0749239922" lon="30.0063657761"><time>2026-04-25T20:08:27Z</time></trkpt><trkpt lat="59.0749025345" lon="30.0063443184"><time>2026-04-25T20:08:30Z</time></trkpt><trkpt lat="59.0748810768" lon="30.0063228607"><time>2026-04-25T20:08:32Z</time></trkpt><trkpt lat="59.0748596191" lon="30.0063228607"><time>2026-04-25T20:08:35Z</time></trkpt><trkpt lat="59.0748596191" lon="30.0063014030"><time>2026-04-25T20:08:37Z</time></trkpt><trkpt lat="59.0748381615" lon="30.0063014030"><time>2026-04-25T20:08:40Z</time></trkpt><trkpt lat="59.0748381615" lon="30.0063228607"><time>2026-04-25T20:08:42Z</time></trkpt><trkpt lat="59.0748167038" lon="30.0063228607"><time>2026-04-25T20:08:45Z</time></trkpt><trkpt lat="59.0748167038" lon="30.0063228607"><time>2026-04-25T20:08:47Z</time></trkpt><trkpt lat="59.0747952461" lon="30.0063014030"><time>2026-04-25T20:08:50Z</time></trkpt><trkpt lat="59.0747737885" lon="30.0063014030"><time>2026-04-25T20:08:52Z</time></trkpt><trkpt lat="59.0747523308" lon="30.0063014030"><time>2026-04-25T20:08:55Z</time></trkpt><trkpt lat="59.0747308731" lon="30.0063014030"><time>2026-04-25T20:08:57Z</time></trkpt><trkpt lat="59.0747094154" lon="30.0062799454"><time>2026-04-25T20:09:00Z</time></trkpt><trkpt lat="59.0746879578" lon="30.0062370300"><time>2026-04-25T20:09:02Z</time></trkpt><trkpt lat="59.0746879578" lon="30.0062370300"><time>2026-04-25T20:09:05Z</time></trkpt><trkpt lat="59.0746665001" lon="30.0062155724"><time>2026-04-25T20:09:07Z</time></trkpt><trkpt lat="59.0746665001" lon="30.0062155724"><time>2026-04-25T20:09:10Z</time></trkpt><trkpt lat="59.0746665001" lon="30.0062155724"><time>2026-04-25T20:09:12Z</time></trkpt><trkpt lat="59.0746665001" lon="30.0062155724"><time>2026-04-25T20:09:15Z</time></trkpt><trkpt lat="59.0746665001" lon="30.0062155724"><time>2026-04-25T20:09:17Z</time></trkpt><trkpt lat="59.0746665001" lon="30.0062155724"><time>2026-04-25T20:09:20Z</time></trkpt><trkpt lat="59.0746665001" lon="30.0062155724"><time>2026-04-25T20:09:22Z</time></trkpt><trkpt lat="59.0746665001" lon="30.0062155724"><time>2026-04-25T20:09:25Z</time></trkpt><trkpt lat="59.0746665001" lon="30.0062155724"><time>2026-04-25T20:09:27Z</time></trkpt><trkpt lat="59.0746665001" lon="30.0062155724"><time>2026-04-25T20:09:30Z</time></trkpt><trkpt lat="59.0746665001" lon="30.0062155724"><time>2026-04-25T20:09:32Z</time></trkpt><trkpt lat="59.0746665001" lon="30.0062155724"><time>2026-04-25T20:09:35Z</time></trkpt><trkpt lat="59.0746665001" lon="30.0062155724"><time>2026-04-25T20:09:37Z</time></trkpt><trkpt lat="59.0746665001" lon="30.0062155724"><time>2026-04-25T20:09:40Z</time></trkpt><trkpt lat="59.0746665001" lon="30.0062155724"><time>2026-04-25T20:09:42Z</time></trkpt><trkpt lat="59.0746665001" lon="30.0062155724"><time>2026-04-25T20:09:45Z</time></trkpt><trkpt lat="59.0746665001" lon="30.0062155724"><time>2026-04-25T20:09:47Z</time></trkpt><trkpt lat="59.0746665001" lon="30.0062155724"><time>2026-04-25T20:09:50Z</time></trkpt><trkpt lat="59.0746665001" lon="30.0062155724"><time>2026-04-25T20:09:52Z</time></trkpt><trkpt lat="59.0746665001" lon="30.0062155724"><time>2026-04-25T20:09:55Z</time></trkpt><trkpt lat="59.0746450424" lon="30.0061941147"><time>2026-04-25T20:09:57Z</time></trkpt><trkpt lat="59.0746450424" lon="30.0061941147"><time>2026-04-25T20:10:00Z</time></trkpt><trkpt lat="59.0746450424" lon="30.0061726570"><time>2026-04-25T20:10:02Z</time></trkpt><trkpt lat="59.0746235847" lon="30.0061511993"><time>2026-04-25T20:10:05Z</time></trkpt><trkpt lat="59.0746235847" lon="30.0061297417"><time>2026-04-25T20:10:07Z</time></trkpt><trkpt lat="59.0746235847" lon="30.0061297417"><time>2026-04-25T20:10:10Z</time></trkpt><trkpt lat="59.0746235847" lon="30.0061297417"><time>2026-04-25T20:10:12Z</time></trkpt><trkpt lat="59.0746021271" lon="30.0061297417"><time>2026-04-25T20:10:15Z</time></trkpt><trkpt lat="59.0746021271" lon="30.0061297417"><time>2026-04-25T20:10:17Z</time></trkpt><trkpt lat="59.0745806694" lon="30.0061082840"><time>2026-04-25T20:10:20Z</time></trkpt><trkpt lat="59.0745592117" lon="30.0060868263"><time>2026-04-25T20:10:22Z</time></trkpt><trkpt lat="59.0745377541" lon="30.0060868263"><time>2026-04-25T20:10:25Z</time></trkpt><trkpt lat="59.0745162964" lon="30.0060868263"><time>2026-04-25T20:10:27Z</time></trkpt><trkpt lat="59.0744948387" lon="30.0060868263"><time>2026-04-25T20:10:30Z</time></trkpt><trkpt lat="59.0744733810" lon="30.0060868263"><time>2026-04-25T20:10:32Z</time></trkpt><trkpt lat="59.0744519234" lon="30.0060868263"><time>2026-04-25T20:10:35Z</time></trkpt><trkpt lat="59.0744304657" lon="30.0060868263"><time>2026-04-25T20:10:37Z</time></trkpt><trkpt lat="59.0744090080" lon="30.0060868263"><time>2026-04-25T20:10:40Z</time></trkpt><trkpt lat="59.0744090080" lon="30.0060868263"><time>2026-04-25T20:10:42Z</time></trkpt><trkpt lat="59.0743875504" lon="30.0060868263"><time>2026-04-25T20:10:45Z</time></trkpt><trkpt lat="59.0743660927" lon="30.0060868263"><time>2026-04-25T20:10:47Z</time></trkpt><trkpt lat="59.0743446350" lon="30.0060868263"><time>2026-04-25T20:10:50Z</time></trkpt><trkpt lat="59.0743231773" lon="30.0060868263"><time>2026-04-25T20:10:52Z</time></trkpt><trkpt lat="59.0743017197" lon="30.0061082840"><time>2026-04-25T20:10:55Z</time></trkpt><trkpt lat="59.0743017197" lon="30.0061297417"><time>2026-04-25T20:10:57Z</time></trkpt><trkpt lat="59.0742802620" lon="30.0061297417"><time>2026-04-25T20:11:00Z</time></trkpt><trkpt lat="59.0742588043" lon="30.0061511993"><time>2026-04-25T20:11:02Z</time></trkpt><trkpt lat="59.0742373466" lon="30.0061726570"><time>2026-04-25T20:11:05Z</time></trkpt><trkpt lat="59.0742373466" lon="30.0061941147"><time>2026-04-25T20:11:07Z</time></trkpt><trkpt lat="59.0742158890" lon="30.0062370300"><time>2026-04-25T20:11:10Z</time></trkpt><trkpt lat="59.0741944313" lon="30.0062370300"><time>2026-04-25T20:11:12Z</time></trkpt><trkpt lat="59.0741729736" lon="30.0062155724"><time>2026-04-25T20:11:15Z</time></trkpt><trkpt lat="59.0741729736" lon="30.0062155724"><time>2026-04-25T20:11:17Z</time></trkpt><trkpt lat="59.0741515160" lon="30.0062584877"><time>2026-04-25T20:11:20Z</time></trkpt><trkpt lat="59.0741515160" lon="30.0062799454"><time>2026-04-25T20:11:22Z</time></trkpt><trkpt lat="59.0741515160" lon="30.0063228607"><time>2026-04-25T20:11:25Z</time></trkpt><trkpt lat="59.0741300583" lon="30.0063443184"><time>2026-04-25T20:11:27Z</time></trkpt><trkpt lat="59.0741086006" lon="30.0063657761"><time>2026-04-25T20:11:30Z</time></trkpt><trkpt lat="59.0740871429" lon="30.0063657761"><time>2026-04-25T20:11:32Z</time></trkpt><trkpt lat="59.0740656853" lon="30.0063228607"><time>2026-04-25T20:11:35Z</time></trkpt><trkpt lat="59.0740656853" lon="30.0063228607"><time>2026-04-25T20:11:37Z</time></trkpt><trkpt lat="59.0740442276" lon="30.0063228607"><time>2026-04-25T20:11:40Z</time></trkpt><trkpt lat="59.0740227699" lon="30.0063014030"><time>2026-04-25T20:11:42Z</time></trkpt><trkpt lat="59.0740013123" lon="30.0062799454"><time>2026-04-25T20:11:45Z</time></trkpt><trkpt lat="59.0740013123" lon="30.0063014030"><time>2026-04-25T20:11:47Z</time></trkpt><trkpt lat="59.0739798546" lon="30.0063014030"><time>2026-04-25T20:11:50Z</time></trkpt><trkpt lat="59.0739583969" lon="30.0062799454"><time>2026-04-25T20:11:52Z</time></trkpt><trkpt lat="59.0739369392" lon="30.0062584877"><time>2026-04-25T20:11:55Z</time></trkpt><trkpt lat="59.0739369392" lon="30.0062584877"><time>2026-04-25T20:11:57Z</time></trkpt><trkpt lat="59.0739154816" lon="30.0062584877"><time>2026-04-25T20:12:00Z</time></trkpt><trkpt lat="59.0739154816" lon="30.0062584877"><time>2026-04-25T20:12:02Z</time></trkpt><trkpt lat="59.0738940239" lon="30.0062370300"><time>2026-04-25T20:12:05Z</time></trkpt><trkpt lat="59.0738725662" lon="30.0062155724"><time>2026-04-25T20:12:07Z</time></trkpt><trkpt lat="59.0738725662" lon="30.0061941147"><time>2026-04-25T20:12:10Z</time></trkpt><trkpt lat="59.0738511086" lon="30.0061941147"><time>2026-04-25T20:12:12Z</time></trkpt><trkpt lat="59.0738296509" lon="30.0061941147"><time>2026-04-25T20:12:15Z</time></trkpt><trkpt lat="59.0738296509" lon="30.0062155724"><time>2026-04-25T20:12:17Z</time></trkpt><trkpt lat="59.0737867355" lon="30.0062370300"><time>2026-04-25T20:12:20Z</time></trkpt><trkpt lat="59.0737867355" lon="30.0062584877"><time>2026-04-25T20:12:22Z</time></trkpt><trkpt lat="59.0737652779" lon="30.0062584877"><time>2026-04-25T20:12:25Z</time></trkpt><trkpt lat="59.0737438202" lon="30.0062584877"><time>2026-04-25T20:12:27Z</time></trkpt><trkpt lat="59.0737438202" lon="30.0062799454"><time>2026-04-25T20:12:30Z</time></trkpt><trkpt lat="59.0737438202" lon="30.0062799454"><time>2026-04-25T20:12:32Z</time></trkpt><trkpt lat="59.0737438202" lon="30.0062799454"><time>2026-04-25T20:12:35Z</time></trkpt><trkpt lat="59.0737223625" lon="30.0062799454"><time>2026-04-25T20:12:37Z</time></trkpt><trkpt lat="59.0737009048" lon="30.0063014030"><time>2026-04-25T20:12:40Z</time></trkpt><trkpt lat="59.0737009048" lon="30.0063014030"><time>2026-04-25T20:12:42Z</time></trkpt><trkpt lat="59.0736794472" lon="30.0063228607"><time>2026-04-25T20:12:45Z</time></trkpt><trkpt lat="59.0736579895" lon="30.0063228607"><time>2026-04-25T20:12:47Z</time></trkpt><trkpt lat="59.0736365318" lon="30.0063228607"><time>2026-04-25T20:12:50Z</time></trkpt><trkpt lat="59.0736365318" lon="30.0063228607"><time>2026-04-25T20:12:52Z</time></trkpt><trkpt lat="59.0736150742" lon="30.0063228607"><time>2026-04-25T20:12:55Z</time></trkpt><trkpt lat="59.0735936165" lon="30.0063228607"><time>2026-04-25T20:12:57Z</time></trkpt><trkpt lat="59.0735936165" lon="30.0063228607"><time>2026-04-25T20:13:00Z</time></trkpt><trkpt lat="59.0735936165" lon="30.0063228607"><time>2026-04-25T20:13:02Z</time></trkpt><trkpt lat="59.0735721588" lon="30.0063228607"><time>2026-04-25T20:13:05Z</time></trkpt><trkpt lat="59.0735721588" lon="30.0063228607"><time>2026-04-25T20:13:07Z</time></trkpt><trkpt lat="59.0735721588" lon="30.0063228607"><time>2026-04-25T20:13:10Z</time></trkpt><trkpt lat="59.0735721588" lon="30.0063228607"><time>2026-04-25T20:13:12Z</time></trkpt><trkpt lat="59.0735507011" lon="30.0063657761"><time>2026-04-25T20:13:15Z</time></trkpt><trkpt lat="59.0735507011" lon="30.0063872337"><time>2026-04-25T20:13:17Z</time></trkpt><trkpt lat="59.0735292435" lon="30.0063872337"><time>2026-04-25T20:13:20Z</time></trkpt><trkpt lat="59.0735077858" lon="30.0063872337"><time>2026-04-25T20:13:22Z</time></trkpt><trkpt lat="59.0734863281" lon="30.0063872337"><time>2026-04-25T20:13:25Z</time></trkpt><trkpt lat="59.0734863281" lon="30.0064086914"><time>2026-04-25T20:13:27Z</time></trkpt><trkpt lat="59.0734648705" lon="30.0064301491"><time>2026-04-25T20:13:30Z</time></trkpt><trkpt lat="59.0734434128" lon="30.0064516068"><time>2026-04-25T20:13:32Z</time></trkpt><trkpt lat="59.0734434128" lon="30.0064730644"><time>2026-04-25T20:13:35Z</time></trkpt><trkpt lat="59.0734219551" lon="30.0065159798"><time>2026-04-25T20:13:37Z</time></trkpt><trkpt lat="59.0734219551" lon="30.0065374374"><time>2026-04-25T20:13:40Z</time></trkpt><trkpt lat="59.0734219551" lon="30.0065588951"><time>2026-04-25T20:13:42Z</time></trkpt><trkpt lat="59.0734219551" lon="30.0065803528"><time>2026-04-25T20:13:45Z</time></trkpt><trkpt lat="59.0734004974" lon="30.0066018105"><time>2026-04-25T20:13:47Z</time></trkpt><trkpt lat="59.0734004974" lon="30.0066447258"><time>2026-04-25T20:13:50Z</time></trkpt><trkpt lat="59.0733790398" lon="30.0066661835"><time>2026-04-25T20:13:52Z</time></trkpt><trkpt lat="59.0733575821" lon="30.0066661835"><time>2026-04-25T20:13:55Z</time></trkpt><trkpt lat="59.0733361244" lon="30.0066876411"><time>2026-04-25T20:13:57Z</time></trkpt><trkpt lat="59.0733361244" lon="30.0067090988"><time>2026-04-25T20:14:00Z</time></trkpt><trkpt lat="59.0733146667" lon="30.0067090988"><time>2026-04-25T20:14:02Z</time></trkpt><trkpt lat="59.0732932091" lon="30.0067090988"><time>2026-04-25T20:14:05Z</time></trkpt><trkpt lat="59.0732717514" lon="30.0067090988"><time>2026-04-25T20:14:07Z</time></trkpt><trkpt lat="59.0732502937" lon="30.0067090988"><time>2026-04-25T20:14:10Z</time></trkpt><trkpt lat="59.0732502937" lon="30.0067090988"><time>2026-04-25T20:14:12Z</time></trkpt><trkpt lat="59.0732288361" lon="30.0066876411"><time>2026-04-25T20:14:15Z</time></trkpt><trkpt lat="59.0732288361" lon="30.0066876411"><time>2026-04-25T20:14:17Z</time></trkpt><trkpt lat="59.0732073784" lon="30.0066876411"><time>2026-04-25T20:14:20Z</time></trkpt><trkpt lat="59.0731859207" lon="30.0066876411"><time>2026-04-25T20:14:22Z</time></trkpt><trkpt lat="59.0731859207" lon="30.0066876411"><time>2026-04-25T20:14:25Z</time></trkpt><trkpt lat="59.0731644630" lon="30.0066876411"><time>2026-04-25T20:14:27Z</time></trkpt><trkpt lat="59.0731430054" lon="30.0066661835"><time>2026-04-25T20:14:30Z</time></trkpt><trkpt lat="59.0731430054" lon="30.0066876411"><time>2026-04-25T20:14:32Z</time></trkpt><trkpt lat="59.0731215477" lon="30.0067090988"><time>2026-04-25T20:14:35Z</time></trkpt><trkpt lat="59.0731215477" lon="30.0067090988"><time>2026-04-25T20:14:37Z</time></trkpt><trkpt lat="59.0731215477" lon="30.0067090988"><time>2026-04-25T20:14:40Z</time></trkpt><trkpt lat="59.0731215477" lon="30.0067090988"><time>2026-04-25T20:14:42Z</time></trkpt><trkpt lat="59.0731215477" lon="30.0067090988"><time>2026-04-25T20:14:45Z</time></trkpt><trkpt lat="59.0731215477" lon="30.0067090988"><time>2026-04-25T20:14:47Z</time></trkpt><trkpt lat="59.0731000900" lon="30.0067090988"><time>2026-04-25T20:14:50Z</time></trkpt><trkpt lat="59.0730786324" lon="30.0067090988"><time>2026-04-25T20:14:52Z</time></trkpt><trkpt lat="59.0730571747" lon="30.0067090988"><time>2026-04-25T20:14:55Z</time></trkpt><trkpt lat="59.0730571747" lon="30.0066876411"><time>2026-04-25T20:14:57Z</time></trkpt><trkpt lat="59.0730357170" lon="30.0066876411"><time>2026-04-25T20:15:00Z</time></trkpt><trkpt lat="59.0730357170" lon="30.0066876411"><time>2026-04-25T20:15:02Z</time></trkpt><trkpt lat="59.0730357170" lon="30.0066876411"><time>2026-04-25T20:15:05Z</time></trkpt><trkpt lat="59.0730357170" lon="30.0066876411"><time>2026-04-25T20:15:07Z</time></trkpt><trkpt lat="59.0730142593" lon="30.0066876411"><time>2026-04-25T20:15:10Z</time></trkpt><trkpt lat="59.0729928017" lon="30.0066876411"><time>2026-04-25T20:15:12Z</time></trkpt><trkpt lat="59.0729713440" lon="30.0066661835"><time>2026-04-25T20:15:15Z</time></trkpt><trkpt lat="59.0729713440" lon="30.0066661835"><time>2026-04-25T20:15:17Z</time></trkpt><trkpt lat="59.0729713440" lon="30.0066876411"><time>2026-04-25T20:15:20Z</time></trkpt><trkpt lat="59.0729498863" lon="30.0067090988"><time>2026-04-25T20:15:22Z</time></trkpt><trkpt lat="59.0729284286" lon="30.0067090988"><time>2026-04-25T20:15:25Z</time></trkpt><trkpt lat="59.0729284286" lon="30.0066876411"><time>2026-04-25T20:15:27Z</time></trkpt><trkpt lat="59.0729069710" lon="30.0066876411"><time>2026-04-25T20:15:30Z</time></trkpt><trkpt lat="59.0728855133" lon="30.0067090988"><time>2026-04-25T20:15:32Z</time></trkpt><trkpt lat="59.0728640556" lon="30.0067305565"><time>2026-04-25T20:15:35Z</time></trkpt><trkpt lat="59.0728640556" lon="30.0067305565"><time>2026-04-25T20:15:37Z</time></trkpt><trkpt lat="59.0728640556" lon="30.0067305565"><time>2026-04-25T20:15:40Z</time></trkpt><trkpt lat="59.0728640556" lon="30.0067520142"><time>2026-04-25T20:15:42Z</time></trkpt><trkpt lat="59.0728425980" lon="30.0067520142"><time>2026-04-25T20:15:45Z</time></trkpt><trkpt lat="59.0728211403" lon="30.0067520142"><time>2026-04-25T20:15:47Z</time></trkpt><trkpt lat="59.0728211403" lon="30.0067734718"><time>2026-04-25T20:15:50Z</time></trkpt><trkpt lat="59.0727996826" lon="30.0067734718"><time>2026-04-25T20:15:52Z</time></trkpt><trkpt lat="59.0727782249" lon="30.0067734718"><time>2026-04-25T20:15:55Z</time></trkpt><trkpt lat="59.0727782249" lon="30.0067949295"><time>2026-04-25T20:15:57Z</time></trkpt><trkpt lat="59.0727567673" lon="30.0068378448"><time>2026-04-25T20:16:00Z</time></trkpt><trkpt lat="59.0727567673" lon="30.0068378448"><time>2026-04-25T20:16:02Z</time></trkpt><trkpt lat="59.0727353096" lon="30.0068593025"><time>2026-04-25T20:16:05Z</time></trkpt><trkpt lat="59.0727353096" lon="30.0068807602"><time>2026-04-25T20:16:07Z</time></trkpt><trkpt lat="59.0727138519" lon="30.0069236755"><time>2026-04-25T20:16:10Z</time></trkpt><trkpt lat="59.0727138519" lon="30.0069451332"><time>2026-04-25T20:16:12Z</time></trkpt><trkpt lat="59.0726923943" lon="30.0069665909"><time>2026-04-25T20:16:15Z</time></trkpt><trkpt lat="59.0726709366" lon="30.0069665909"><time>2026-04-25T20:16:17Z</time></trkpt><trkpt lat="59.0726709366" lon="30.0069665909"><time>2026-04-25T20:16:20Z</time></trkpt><trkpt lat="59.0726494789" lon="30.0069880486"><time>2026-04-25T20:16:22Z</time></trkpt><trkpt lat="59.0726494789" lon="30.0070095062"><time>2026-04-25T20:16:25Z</time></trkpt><trkpt lat="59.0726280212" lon="30.0070309639"><time>2026-04-25T20:16:27Z</time></trkpt><trkpt lat="59.0726065636" lon="30.0070309639"><time>2026-04-25T20:16:30Z</time></trkpt><trkpt lat="59.0725851059" lon="30.0070524216"><time>2026-04-25T20:16:32Z</time></trkpt><trkpt lat="59.0725636482" lon="30.0070738792"><time>2026-04-25T20:16:35Z</time></trkpt><trkpt lat="59.0725636482" lon="30.0070953369"><time>2026-04-25T20:16:37Z</time></trkpt><trkpt lat="59.0725636482" lon="30.0070953369"><time>2026-04-25T20:16:40Z</time></trkpt><trkpt lat="59.0725851059" lon="30.0070953369"><time>2026-04-25T20:16:42Z</time></trkpt><trkpt lat="59.0726065636" lon="30.0070524216"><time>2026-04-25T20:16:45Z</time></trkpt><trkpt lat="59.0725851059" lon="30.0070309639"><time>2026-04-25T20:16:47Z</time></trkpt><trkpt lat="59.0725636482" lon="30.0070309639"><time>2026-04-25T20:16:50Z</time></trkpt><trkpt lat="59.0725636482" lon="30.0070309639"><time>2026-04-25T20:16:52Z</time></trkpt><trkpt lat="59.0725636482" lon="30.0070309639"><time>2026-04-25T20:16:55Z</time></trkpt><trkpt lat="59.0725636482" lon="30.0070095062"><time>2026-04-25T20:16:57Z</time></trkpt><trkpt lat="59.0725421906" lon="30.0069880486"><time>2026-04-25T20:17:00Z</time></trkpt><trkpt lat="59.0725421906" lon="30.0069665909"><time>2026-04-25T20:17:02Z</time></trkpt><trkpt lat="59.0725207329" lon="30.0069665909"><time>2026-04-25T20:17:05Z</time></trkpt><trkpt lat="59.0724992752" lon="30.0069665909"><time>2026-04-25T20:17:07Z</time></trkpt><trkpt lat="59.0724992752" lon="30.0069665909"><time>2026-04-25T20:17:10Z</time></trkpt><trkpt lat="59.0724778175" lon="30.0069665909"><time>2026-04-25T20:17:12Z</time></trkpt><trkpt lat="59.0724778175" lon="30.0069665909"><time>2026-04-25T20:17:15Z</time></trkpt><trkpt lat="59.0724563599" lon="30.0069665909"><time>2026-04-25T20:17:17Z</time></trkpt><trkpt lat="59.0724349022" lon="30.0069665909"><time>2026-04-25T20:17:20Z</time></trkpt><trkpt lat="59.0724134445" lon="30.0069665909"><time>2026-04-25T20:17:22Z</time></trkpt><trkpt lat="59.0723919868" lon="30.0069880486"><time>2026-04-25T20:17:25Z</time></trkpt><trkpt lat="59.0723919868" lon="30.0069880486"><time>2026-04-25T20:17:27Z</time></trkpt><trkpt lat="59.0723705292" lon="30.0070095062"><time>2026-04-25T20:17:30Z</time></trkpt><trkpt lat="59.0723490715" lon="30.0069880486"><time>2026-04-25T20:17:32Z</time></trkpt><trkpt lat="59.0723276138" lon="30.0069880486"><time>2026-04-25T20:17:35Z</time></trkpt><trkpt lat="59.0723276138" lon="30.0070095062"><time>2026-04-25T20:17:37Z</time></trkpt><trkpt lat="59.0723061562" lon="30.0070095062"><time>2026-04-25T20:17:40Z</time></trkpt><trkpt lat="59.0722846985" lon="30.0070095062"><time>2026-04-25T20:17:42Z</time></trkpt><trkpt lat="59.0722632408" lon="30.0070095062"><time>2026-04-25T20:17:45Z</time></trkpt><trkpt lat="59.0722417831" lon="30.0070309639"><time>2026-04-25T20:17:47Z</time></trkpt><trkpt lat="59.0722203255" lon="30.0070309639"><time>2026-04-25T20:17:50Z</time></trkpt><trkpt lat="59.0722203255" lon="30.0070309639"><time>2026-04-25T20:17:52Z</time></trkpt><trkpt lat="59.0722203255" lon="30.0070309639"><time>2026-04-25T20:17:55Z</time></trkpt><trkpt lat="59.0721988678" lon="30.0070309639"><time>2026-04-25T20:17:57Z</time></trkpt><trkpt lat="59.0721774101" lon="30.0070524216"><time>2026-04-25T20:18:00Z</time></trkpt><trkpt lat="59.0721774101" lon="30.0070524216"><time>2026-04-25T20:18:02Z</time></trkpt><trkpt lat="59.0721344948" lon="30.0070524216"><time>2026-04-25T20:18:05Z</time></trkpt><trkpt lat="59.0721344948" lon="30.0070738792"><time>2026-04-25T20:18:07Z</time></trkpt><trkpt lat="59.0721344948" lon="30.0070738792"><time>2026-04-25T20:18:10Z</time></trkpt><trkpt lat="59.0721344948" lon="30.0070524216"><time>2026-04-25T20:18:12Z</time></trkpt><trkpt lat="59.0721344948" lon="30.0070524216"><time>2026-04-25T20:18:15Z</time></trkpt><trkpt lat="59.0721130371" lon="30.0070524216"><time>2026-04-25T20:18:17Z</time></trkpt><trkpt lat="59.0720915794" lon="30.0070524216"><time>2026-04-25T20:18:20Z</time></trkpt><trkpt lat="59.0720701218" lon="30.0070738792"><time>2026-04-25T20:18:22Z</time></trkpt><trkpt lat="59.0720486641" lon="30.0070953369"><time>2026-04-25T20:18:25Z</time></trkpt><trkpt lat="59.0720486641" lon="30.0070953369"><time>2026-04-25T20:18:27Z</time></trkpt><trkpt lat="59.0720486641" lon="30.0071167946"><time>2026-04-25T20:18:30Z</time></trkpt><trkpt lat="59.0720272064" lon="30.0071167946"><time>2026-04-25T20:18:32Z</time></trkpt><trkpt lat="59.0720057487" lon="30.0071167946"><time>2026-04-25T20:18:35Z</time></trkpt><trkpt lat="59.0719842911" lon="30.0071167946"><time>2026-04-25T20:18:37Z</time></trkpt><trkpt lat="59.0719413757" lon="30.0071382523"><time>2026-04-25T20:18:40Z</time></trkpt><trkpt lat="59.0719199181" lon="30.0071382523"><time>2026-04-25T20:18:42Z</time></trkpt><trkpt lat="59.0718770027" lon="30.0071382523"><time>2026-04-25T20:18:45Z</time></trkpt><trkpt lat="59.0718555450" lon="30.0071382523"><time>2026-04-25T20:18:47Z</time></trkpt><trkpt lat="59.0718340874" lon="30.0071597099"><time>2026-04-25T20:18:50Z</time></trkpt><trkpt lat="59.0718340874" lon="30.0071597099"><time>2026-04-25T20:18:52Z</time></trkpt><trkpt lat="59.0717911720" lon="30.0071597099"><time>2026-04-25T20:18:55Z</time></trkpt><trkpt lat="59.0717911720" lon="30.0071811676"><time>2026-04-25T20:18:57Z</time></trkpt><trkpt lat="59.0717697144" lon="30.0072026253"><time>2026-04-25T20:19:00Z</time></trkpt><trkpt lat="59.0717697144" lon="30.0072240829"><time>2026-04-25T20:19:02Z</time></trkpt><trkpt lat="59.0717697144" lon="30.0072240829"><time>2026-04-25T20:19:05Z</time></trkpt><trkpt lat="59.0717267990" lon="30.0072455406"><time>2026-04-25T20:19:07Z</time></trkpt><trkpt lat="59.0717053413" lon="30.0072455406"><time>2026-04-25T20:19:10Z</time></trkpt><trkpt lat="59.0716624260" lon="30.0072455406"><time>2026-04-25T20:19:12Z</time></trkpt><trkpt lat="59.0716409683" lon="30.0072240829"><time>2026-04-25T20:19:15Z</time></trkpt><trkpt lat="59.0716195107" lon="30.0071811676"><time>2026-04-25T20:19:17Z</time></trkpt><trkpt lat="59.0715765953" lon="30.0071811676"><time>2026-04-25T20:19:20Z</time></trkpt><trkpt lat="59.0715551376" lon="30.0071811676"><time>2026-04-25T20:19:22Z</time></trkpt><trkpt lat="59.0715336800" lon="30.0071597099"><time>2026-04-25T20:19:25Z</time></trkpt><trkpt lat="59.0715122223" lon="30.0071597099"><time>2026-04-25T20:19:27Z</time></trkpt><trkpt lat="59.0714907646" lon="30.0071382523"><time>2026-04-25T20:19:30Z</time></trkpt><trkpt lat="59.0714693069" lon="30.0071597099"><time>2026-04-25T20:19:32Z</time></trkpt><trkpt lat="59.0714478493" lon="30.0071382523"><time>2026-04-25T20:19:35Z</time></trkpt><trkpt lat="59.0714263916" lon="30.0071382523"><time>2026-04-25T20:19:37Z</time></trkpt><trkpt lat="59.0714263916" lon="30.0071167946"><time>2026-04-25T20:19:40Z</time></trkpt><trkpt lat="59.0714049339" lon="30.0071382523"><time>2026-04-25T20:19:42Z</time></trkpt><trkpt lat="59.0713834763" lon="30.0071382523"><time>2026-04-25T20:19:45Z</time></trkpt><trkpt lat="59.0713834763" lon="30.0071597099"><time>2026-04-25T20:19:47Z</time></trkpt><trkpt lat="59.0713620186" lon="30.0071811676"><time>2026-04-25T20:19:50Z</time></trkpt><trkpt lat="59.0713405609" lon="30.0072026253"><time>2026-04-25T20:19:52Z</time></trkpt><trkpt lat="59.0713191032" lon="30.0071811676"><time>2026-04-25T20:19:55Z</time></trkpt><trkpt lat="59.0712976456" lon="30.0071811676"><time>2026-04-25T20:19:57Z</time></trkpt><trkpt lat="59.0712547302" lon="30.0071382523"><time>2026-04-25T20:20:00Z</time></trkpt><trkpt lat="59.0712547302" lon="30.0071382523"><time>2026-04-25T20:20:02Z</time></trkpt><trkpt lat="59.0712332726" lon="30.0071167946"><time>2026-04-25T20:20:05Z</time></trkpt><trkpt lat="59.0712118149" lon="30.0071167946"><time>2026-04-25T20:20:07Z</time></trkpt><trkpt lat="59.0712118149" lon="30.0071167946"><time>2026-04-25T20:20:10Z</time></trkpt><trkpt lat="59.0711903572" lon="30.0071382523"><time>2026-04-25T20:20:12Z</time></trkpt><trkpt lat="59.0711688995" lon="30.0071597099"><time>2026-04-25T20:20:15Z</time></trkpt><trkpt lat="59.0711688995" lon="30.0071811676"><time>2026-04-25T20:20:17Z</time></trkpt><trkpt lat="59.0711474419" lon="30.0071597099"><time>2026-04-25T20:20:20Z</time></trkpt><trkpt lat="59.0711474419" lon="30.0071811676"><time>2026-04-25T20:20:22Z</time></trkpt><trkpt lat="59.0711259842" lon="30.0071382523"><time>2026-04-25T20:20:25Z</time></trkpt><trkpt lat="59.0711259842" lon="30.0071167946"><time>2026-04-25T20:20:27Z</time></trkpt><trkpt lat="59.0711259842" lon="30.0071167946"><time>2026-04-25T20:20:30Z</time></trkpt><trkpt lat="59.0711259842" lon="30.0071167946"><time>2026-04-25T20:20:32Z</time></trkpt><trkpt lat="59.0711259842" lon="30.0071167946"><time>2026-04-25T20:20:35Z</time></trkpt><trkpt lat="59.0711259842" lon="30.0071167946"><time>2026-04-25T20:20:37Z</time></trkpt><trkpt lat="59.0711259842" lon="30.0071167946"><time>2026-04-25T20:20:40Z</time></trkpt><trkpt lat="59.0711259842" lon="30.0071167946"><time>2026-04-25T20:20:42Z</time></trkpt><trkpt lat="59.0711259842" lon="30.0071597099"><time>2026-04-25T20:20:45Z</time></trkpt><trkpt lat="59.0711259842" lon="30.0071597099"><time>2026-04-25T20:20:47Z</time></trkpt><trkpt lat="59.0711259842" lon="30.0071597099"><time>2026-04-25T20:20:50Z</time></trkpt><trkpt lat="59.0711259842" lon="30.0071597099"><time>2026-04-25T20:20:52Z</time></trkpt><trkpt lat="59.0711259842" lon="30.0071597099"><time>2026-04-25T20:20:55Z</time></trkpt><trkpt lat="59.0711259842" lon="30.0071597099"><time>2026-04-25T20:20:57Z</time></trkpt><trkpt lat="59.0711259842" lon="30.0071597099"><time>2026-04-25T20:21:00Z</time></trkpt><trkpt lat="59.0711259842" lon="30.0071597099"><time>2026-04-25T20:21:02Z</time></trkpt><trkpt lat="59.0711259842" lon="30.0071597099"><time>2026-04-25T20:21:05Z</time></trkpt><trkpt lat="59.0711259842" lon="30.0071597099"><time>2026-04-25T20:21:07Z</time></trkpt><trkpt lat="59.0711259842" lon="30.0071597099"><time>2026-04-25T20:21:10Z</time></trkpt><trkpt lat="59.0711259842" lon="30.0071811676"><time>2026-04-25T20:21:12Z</time></trkpt><trkpt lat="59.0711259842" lon="30.0071811676"><time>2026-04-25T20:21:15Z</time></trkpt><trkpt lat="59.0711259842" lon="30.0071811676"><time>2026-04-25T20:21:17Z</time></trkpt><trkpt lat="59.0711259842" lon="30.0071811676"><time>2026-04-25T20:21:20Z</time></trkpt><trkpt lat="59.0711259842" lon="30.0071811676"><time>2026-04-25T20:21:22Z</time></trkpt><trkpt lat="59.0711259842" lon="30.0071811676"><time>2026-04-25T20:21:25Z</time></trkpt><trkpt lat="59.0711259842" lon="30.0071811676"><time>2026-04-25T20:21:27Z</time></trkpt><trkpt lat="59.0711259842" lon="30.0071811676"><time>2026-04-25T20:21:30Z</time></trkpt><trkpt lat="59.0711259842" lon="30.0071811676"><time>2026-04-25T20:21:32Z</time></trkpt><trkpt lat="59.0711259842" lon="30.0071811676"><time>2026-04-25T20:21:35Z</time></trkpt><trkpt lat="59.0711259842" lon="30.0072026253"><time>2026-04-25T20:21:37Z</time></trkpt><trkpt lat="59.0711259842" lon="30.0072026253"><time>2026-04-25T20:21:40Z</time></trkpt><trkpt lat="59.0711259842" lon="30.0072026253"><time>2026-04-25T20:21:42Z</time></trkpt><trkpt lat="59.0711259842" lon="30.0072026253"><time>2026-04-25T20:21:45Z</time></trkpt><trkpt lat="59.0711259842" lon="30.0072026253"><time>2026-04-25T20:21:47Z</time></trkpt><trkpt lat="59.0711259842" lon="30.0072026253"><time>2026-04-25T20:21:50Z</time></trkpt><trkpt lat="59.0711259842" lon="30.0072026253"><time>2026-04-25T20:21:52Z</time></trkpt><trkpt lat="59.0711259842" lon="30.0072026253"><time>2026-04-25T20:21:55Z</time></trkpt><trkpt lat="59.0711259842" lon="30.0072026253"><time>2026-04-25T20:21:57Z</time></trkpt><trkpt lat="59.0711259842" lon="30.0072026253"><time>2026-04-25T20:22:00Z</time></trkpt><trkpt lat="59.0711259842" lon="30.0072026253"><time>2026-04-25T20:22:02Z</time></trkpt><trkpt lat="59.0711259842" lon="30.0072026253"><time>2026-04-25T20:22:05Z</time></trkpt><trkpt lat="59.0711259842" lon="30.0072026253"><time>2026-04-25T20:22:07Z</time></trkpt><trkpt lat="59.0711259842" lon="30.0072026253"><time>2026-04-25T20:22:10Z</time></trkpt><trkpt lat="59.0711259842" lon="30.0072026253"><time>2026-04-25T20:22:12Z</time></trkpt><trkpt lat="59.0711259842" lon="30.0072026253"><time>2026-04-25T20:22:15Z</time></trkpt><trkpt lat="59.0711259842" lon="30.0072026253"><time>2026-04-25T20:22:17Z</time></trkpt><trkpt lat="59.0711259842" lon="30.0072026253"><time>2026-04-25T20:22:20Z</time></trkpt><trkpt lat="59.0711259842" lon="30.0072240829"><time>2026-04-25T20:22:22Z</time></trkpt><trkpt lat="59.0711259842" lon="30.0072669983"><time>2026-04-25T20:22:25Z</time></trkpt><trkpt lat="59.0711259842" lon="30.0072669983"><time>2026-04-25T20:22:27Z</time></trkpt><trkpt lat="59.0711259842" lon="30.0072669983"><time>2026-04-25T20:22:30Z</time></trkpt><trkpt lat="59.0711259842" lon="30.0072669983"><time>2026-04-25T20:22:32Z</time></trkpt><trkpt lat="59.0711259842" lon="30.0072669983"><time>2026-04-25T20:22:35Z</time></trkpt><trkpt lat="59.0711259842" lon="30.0072669983"><time>2026-04-25T20:22:37Z</time></trkpt><trkpt lat="59.0711259842" lon="30.0072669983"><time>2026-04-25T20:22:40Z</time></trkpt><trkpt lat="59.0711259842" lon="30.0072669983"><time>2026-04-25T20:22:42Z</time></trkpt><trkpt lat="59.0711259842" lon="30.0072669983"><time>2026-04-25T20:22:45Z</time></trkpt><trkpt lat="59.0711259842" lon="30.0072669983"><time>2026-04-25T20:22:47Z</time></trkpt><trkpt lat="59.0711259842" lon="30.0072669983"><time>2026-04-25T20:22:50Z</time></trkpt><trkpt lat="59.0711259842" lon="30.0072669983"><time>2026-04-25T20:22:52Z</time></trkpt><trkpt lat="59.0711259842" lon="30.0072669983"><time>2026-04-25T20:22:55Z</time></trkpt><trkpt lat="59.0711259842" lon="30.0072669983"><time>2026-04-25T20:22:57Z</time></trkpt><trkpt lat="59.0711259842" lon="30.0072669983"><time>2026-04-25T20:23:00Z</time></trkpt><trkpt lat="59.0711474419" lon="30.0073099136"><time>2026-04-25T20:23:02Z</time></trkpt><trkpt lat="59.0711474419" lon="30.0073528290"><time>2026-04-25T20:23:05Z</time></trkpt><trkpt lat="59.0711474419" lon="30.0073957443"><time>2026-04-25T20:23:07Z</time></trkpt><trkpt lat="59.0711474419" lon="30.0074386597"><time>2026-04-25T20:23:10Z</time></trkpt><trkpt lat="59.0711474419" lon="30.0074601173"><time>2026-04-25T20:23:12Z</time></trkpt><trkpt lat="59.0711474419" lon="30.0075244904"><time>2026-04-25T20:23:15Z</time></trkpt><trkpt lat="59.0711474419" lon="30.0075674057"><time>2026-04-25T20:23:17Z</time></trkpt><trkpt lat="59.0711688995" lon="30.0076317787"><time>2026-04-25T20:23:20Z</time></trkpt><trkpt lat="59.0711688995" lon="30.0076532364"><time>2026-04-25T20:23:22Z</time></trkpt><trkpt lat="59.0711688995" lon="30.0077176094"><time>2026-04-25T20:23:25Z</time></trkpt><trkpt lat="59.0711688995" lon="30.0077390671"><time>2026-04-25T20:23:27Z</time></trkpt><trkpt lat="59.0711903572" lon="30.0078248978"><time>2026-04-25T20:23:30Z</time></trkpt><trkpt lat="59.0711903572" lon="30.0078678131"><time>2026-04-25T20:23:32Z</time></trkpt><trkpt lat="59.0711903572" lon="30.0079536438"><time>2026-04-25T20:23:35Z</time></trkpt><trkpt lat="59.0711903572" lon="30.0079965591"><time>2026-04-25T20:23:37Z</time></trkpt><trkpt lat="59.0712118149" lon="30.0080609322"><time>2026-04-25T20:23:40Z</time></trkpt><trkpt lat="59.0712118149" lon="30.0081038475"><time>2026-04-25T20:23:42Z</time></trkpt><trkpt lat="59.0712118149" lon="30.0081253052"><time>2026-04-25T20:23:45Z</time></trkpt><trkpt lat="59.0712118149" lon="30.0081467628"><time>2026-04-25T20:23:47Z</time></trkpt><trkpt lat="59.0712118149" lon="30.0081038475"><time>2026-04-25T20:23:50Z</time></trkpt><trkpt lat="59.0711903572" lon="30.0081038475"><time>2026-04-25T20:23:52Z</time></trkpt><trkpt lat="59.0711903572" lon="30.0080394745"><time>2026-04-25T20:23:55Z</time></trkpt><trkpt lat="59.0711903572" lon="30.0080180168"><time>2026-04-25T20:23:57Z</time></trkpt><trkpt lat="59.0711903572" lon="30.0080180168"><time>2026-04-25T20:24:00Z</time></trkpt><trkpt lat="59.0711903572" lon="30.0080180168"><time>2026-04-25T20:24:02Z</time></trkpt><trkpt lat="59.0711903572" lon="30.0080180168"><time>2026-04-25T20:24:05Z</time></trkpt><trkpt lat="59.0711903572" lon="30.0080180168"><time>2026-04-25T20:24:07Z</time></trkpt><trkpt lat="59.0711903572" lon="30.0080180168"><time>2026-04-25T20:24:10Z</time></trkpt><trkpt lat="59.0711903572" lon="30.0080180168"><time>2026-04-25T20:24:12Z</time></trkpt><trkpt lat="59.0711903572" lon="30.0080180168"><time>2026-04-25T20:24:15Z</time></trkpt><trkpt lat="59.0711903572" lon="30.0080180168"><time>2026-04-25T20:24:17Z</time></trkpt><trkpt lat="59.0711903572" lon="30.0080180168"><time>2026-04-25T20:24:20Z</time></trkpt><trkpt lat="59.0711903572" lon="30.0080180168"><time>2026-04-25T20:24:22Z</time></trkpt><trkpt lat="59.0711903572" lon="30.0080609322"><time>2026-04-25T20:24:25Z</time></trkpt><trkpt lat="59.0712118149" lon="30.0081038475"><time>2026-04-25T20:24:27Z</time></trkpt><trkpt lat="59.0712118149" lon="30.0081682205"><time>2026-04-25T20:24:30Z</time></trkpt><trkpt lat="59.0712118149" lon="30.0082111359"><time>2026-04-25T20:24:32Z</time></trkpt><trkpt lat="59.0712332726" lon="30.0082540512"><time>2026-04-25T20:24:35Z</time></trkpt><trkpt lat="59.0712332726" lon="30.0082969666"><time>2026-04-25T20:24:37Z</time></trkpt><trkpt lat="59.0712118149" lon="30.0083613396"><time>2026-04-25T20:24:40Z</time></trkpt><trkpt lat="59.0712118149" lon="30.0084042549"><time>2026-04-25T20:24:42Z</time></trkpt><trkpt lat="59.0712118149" lon="30.0084900856"><time>2026-04-25T20:24:45Z</time></trkpt><trkpt lat="59.0712118149" lon="30.0085330009"><time>2026-04-25T20:24:47Z</time></trkpt><trkpt lat="59.0712118149" lon="30.0085330009"><time>2026-04-25T20:24:50Z</time></trkpt><trkpt lat="59.0712118149" lon="30.0085330009"><time>2026-04-25T20:24:52Z</time></trkpt><trkpt lat="59.0712332726" lon="30.0085973740"><time>2026-04-25T20:24:55Z</time></trkpt><trkpt lat="59.0712547302" lon="30.0086402893"><time>2026-04-25T20:24:57Z</time></trkpt><trkpt lat="59.0712547302" lon="30.0087046623"><time>2026-04-25T20:25:00Z</time></trkpt><trkpt lat="59.0712761879" lon="30.0087475777"><time>2026-04-25T20:25:02Z</time></trkpt><trkpt lat="59.0712761879" lon="30.0088119507"><time>2026-04-25T20:25:05Z</time></trkpt><trkpt lat="59.0712976456" lon="30.0088334084"><time>2026-04-25T20:25:07Z</time></trkpt><trkpt lat="59.0713191032" lon="30.0088977814"><time>2026-04-25T20:25:10Z</time></trkpt><trkpt lat="59.0713191032" lon="30.0089406967"><time>2026-04-25T20:25:12Z</time></trkpt><trkpt lat="59.0713191032" lon="30.0090050697"><time>2026-04-25T20:25:15Z</time></trkpt><trkpt lat="59.0713191032" lon="30.0090479851"><time>2026-04-25T20:25:17Z</time></trkpt><trkpt lat="59.0713405609" lon="30.0091123581"><time>2026-04-25T20:25:20Z</time></trkpt><trkpt lat="59.0713191032" lon="30.0091767311"><time>2026-04-25T20:25:22Z</time></trkpt><trkpt lat="59.0713191032" lon="30.0092411041"><time>2026-04-25T20:25:25Z</time></trkpt><trkpt lat="59.0713405609" lon="30.0093054771"><time>2026-04-25T20:25:27Z</time></trkpt><trkpt lat="59.0713405609" lon="30.0093698502"><time>2026-04-25T20:25:30Z</time></trkpt><trkpt lat="59.0713405609" lon="30.0094127655"><time>2026-04-25T20:25:32Z</time></trkpt><trkpt lat="59.0713405609" lon="30.0095415115"><time>2026-04-25T20:25:35Z</time></trkpt><trkpt lat="59.0713405609" lon="30.0096058846"><time>2026-04-25T20:25:37Z</time></trkpt><trkpt lat="59.0713405609" lon="30.0096702576"><time>2026-04-25T20:25:40Z</time></trkpt><trkpt lat="59.0713405609" lon="30.0097131729"><time>2026-04-25T20:25:42Z</time></trkpt><trkpt lat="59.0713405609" lon="30.0097775459"><time>2026-04-25T20:25:45Z</time></trkpt><trkpt lat="59.0713405609" lon="30.0098204613"><time>2026-04-25T20:25:47Z</time></trkpt><trkpt lat="59.0713620186" lon="30.0099062920"><time>2026-04-25T20:25:50Z</time></trkpt><trkpt lat="59.0713620186" lon="30.0099492073"><time>2026-04-25T20:25:52Z</time></trkpt><trkpt lat="59.0713620186" lon="30.0100135803"><time>2026-04-25T20:25:55Z</time></trkpt><trkpt lat="59.0713620186" lon="30.0100564957"><time>2026-04-25T20:25:57Z</time></trkpt><trkpt lat="59.0713834763" lon="30.0101423264"><time>2026-04-25T20:26:00Z</time></trkpt><trkpt lat="59.0713834763" lon="30.0101852417"><time>2026-04-25T20:26:02Z</time></trkpt><trkpt lat="59.0713834763" lon="30.0102496147"><time>2026-04-25T20:26:05Z</time></trkpt><trkpt lat="59.0714049339" lon="30.0102710724"><time>2026-04-25T20:26:07Z</time></trkpt><trkpt lat="59.0714049339" lon="30.0103354454"><time>2026-04-25T20:26:10Z</time></trkpt><trkpt lat="59.0714049339" lon="30.0103783607"><time>2026-04-25T20:26:12Z</time></trkpt><trkpt lat="59.0714263916" lon="30.0104641914"><time>2026-04-25T20:26:15Z</time></trkpt><trkpt lat="59.0714263916" lon="30.0105071068"><time>2026-04-25T20:26:17Z</time></trkpt><trkpt lat="59.0714263916" lon="30.0105714798"><time>2026-04-25T20:26:20Z</time></trkpt><trkpt lat="59.0714263916" lon="30.0106143951"><time>2026-04-25T20:26:22Z</time></trkpt><trkpt lat="59.0714263916" lon="30.0106787682"><time>2026-04-25T20:26:25Z</time></trkpt><trkpt lat="59.0714263916" lon="30.0107216835"><time>2026-04-25T20:26:27Z</time></trkpt><trkpt lat="59.0714263916" lon="30.0108075142"><time>2026-04-25T20:26:30Z</time></trkpt><trkpt lat="59.0714263916" lon="30.0108718872"><time>2026-04-25T20:26:32Z</time></trkpt><trkpt lat="59.0714263916" lon="30.0109362602"><time>2026-04-25T20:26:35Z</time></trkpt><trkpt lat="59.0714263916" lon="30.0110006332"><time>2026-04-25T20:26:37Z</time></trkpt><trkpt lat="59.0714263916" lon="30.0110650063"><time>2026-04-25T20:26:40Z</time></trkpt><trkpt lat="59.0714263916" lon="30.0111079216"><time>2026-04-25T20:26:42Z</time></trkpt><trkpt lat="59.0714263916" lon="30.0111937523"><time>2026-04-25T20:26:45Z</time></trkpt><trkpt lat="59.0714263916" lon="30.0112366676"><time>2026-04-25T20:26:47Z</time></trkpt><trkpt lat="59.0714263916" lon="30.0113010406"><time>2026-04-25T20:26:50Z</time></trkpt><trkpt lat="59.0714478493" lon="30.0113654137"><time>2026-04-25T20:26:52Z</time></trkpt><trkpt lat="59.0714478493" lon="30.0114297867"><time>2026-04-25T20:26:55Z</time></trkpt><trkpt lat="59.0714693069" lon="30.0114727020"><time>2026-04-25T20:26:57Z</time></trkpt><trkpt lat="59.0714907646" lon="30.0115370750"><time>2026-04-25T20:27:00Z</time></trkpt><trkpt lat="59.0714907646" lon="30.0116014481"><time>2026-04-25T20:27:02Z</time></trkpt><trkpt lat="59.0715122223" lon="30.0116872787"><time>2026-04-25T20:27:05Z</time></trkpt><trkpt lat="59.0715122223" lon="30.0117301941"><time>2026-04-25T20:27:07Z</time></trkpt><trkpt lat="59.0715336800" lon="30.0118374825"><time>2026-04-25T20:27:10Z</time></trkpt><trkpt lat="59.0715551376" lon="30.0119018555"><time>2026-04-25T20:27:12Z</time></trkpt><trkpt lat="59.0715551376" lon="30.0119662285"><time>2026-04-25T20:27:15Z</time></trkpt><trkpt lat="59.0715765953" lon="30.0120735168"><time>2026-04-25T20:27:20Z</time></trkpt><trkpt lat="59.0715980530" lon="30.0121164322"><time>2026-04-25T20:27:22Z</time></trkpt><trkpt lat="59.0716195107" lon="30.0121808052"><time>2026-04-25T20:27:25Z</time></trkpt><trkpt lat="59.0716195107" lon="30.0122451782"><time>2026-04-25T20:27:27Z</time></trkpt><trkpt lat="59.0716195107" lon="30.0123095512"><time>2026-04-25T20:27:30Z</time></trkpt><trkpt lat="59.0716409683" lon="30.0123310089"><time>2026-04-25T20:27:32Z</time></trkpt><trkpt lat="59.0716409683" lon="30.0123739243"><time>2026-04-25T20:27:35Z</time></trkpt><trkpt lat="59.0716409683" lon="30.0123739243"><time>2026-04-25T20:27:37Z</time></trkpt><trkpt lat="59.0716624260" lon="30.0124812126"><time>2026-04-25T20:27:40Z</time></trkpt><trkpt lat="59.0716624260" lon="30.0125455856"><time>2026-04-25T20:27:42Z</time></trkpt><trkpt lat="59.0716838837" lon="30.0126314163"><time>2026-04-25T20:27:45Z</time></trkpt><trkpt lat="59.0716838837" lon="30.0126528740"><time>2026-04-25T20:27:47Z</time></trkpt><trkpt lat="59.0716838837" lon="30.0127172470"><time>2026-04-25T20:27:50Z</time></trkpt><trkpt lat="59.0716838837" lon="30.0127816200"><time>2026-04-25T20:27:52Z</time></trkpt><trkpt lat="59.0716838837" lon="30.0128889084"><time>2026-04-25T20:27:55Z</time></trkpt><trkpt lat="59.0717053413" lon="30.0129532814"><time>2026-04-25T20:27:57Z</time></trkpt><trkpt lat="59.0717267990" lon="30.0130391121"><time>2026-04-25T20:28:00Z</time></trkpt><trkpt lat="59.0717267990" lon="30.0130820274"><time>2026-04-25T20:28:02Z</time></trkpt><trkpt lat="59.0717482567" lon="30.0131464005"><time>2026-04-25T20:28:05Z</time></trkpt><trkpt lat="59.0717482567" lon="30.0131893158"><time>2026-04-25T20:28:07Z</time></trkpt><trkpt lat="59.0717697144" lon="30.0132322311"><time>2026-04-25T20:28:10Z</time></trkpt><trkpt lat="59.0717697144" lon="30.0132322311"><time>2026-04-25T20:28:12Z</time></trkpt><trkpt lat="59.0717697144" lon="30.0132322311"><time>2026-04-25T20:28:15Z</time></trkpt><trkpt lat="59.0717697144" lon="30.0132322311"><time>2026-04-25T20:28:17Z</time></trkpt><trkpt lat="59.0717697144" lon="30.0132322311"><time>2026-04-25T20:28:20Z</time></trkpt><trkpt lat="59.0717697144" lon="30.0132322311"><time>2026-04-25T20:28:22Z</time></trkpt><trkpt lat="59.0717697144" lon="30.0132322311"><time>2026-04-25T20:28:25Z</time></trkpt><trkpt lat="59.0717697144" lon="30.0132322311"><time>2026-04-25T20:28:27Z</time></trkpt><trkpt lat="59.0717697144" lon="30.0132322311"><time>2026-04-25T20:28:30Z</time></trkpt><trkpt lat="59.0717697144" lon="30.0132322311"><time>2026-04-25T20:28:32Z</time></trkpt><trkpt lat="59.0717697144" lon="30.0132322311"><time>2026-04-25T20:28:35Z</time></trkpt><trkpt lat="59.0717697144" lon="30.0132751465"><time>2026-04-25T20:28:37Z</time></trkpt><trkpt lat="59.0717911720" lon="30.0134468079"><time>2026-04-25T20:28:40Z</time></trkpt><trkpt lat="59.0718126297" lon="30.0135755539"><time>2026-04-25T20:28:42Z</time></trkpt><trkpt lat="59.0718555450" lon="30.0137257576"><time>2026-04-25T20:28:45Z</time></trkpt><trkpt lat="59.0718770027" lon="30.0137901306"><time>2026-04-25T20:28:47Z</time></trkpt><trkpt lat="59.0718770027" lon="30.0138759613"><time>2026-04-25T20:28:50Z</time></trkpt><trkpt lat="59.0718770027" lon="30.0139188766"><time>2026-04-25T20:28:52Z</time></trkpt><trkpt lat="59.0718555450" lon="30.0140047073"><time>2026-04-25T20:28:55Z</time></trkpt><trkpt lat="59.0718555450" lon="30.0140690804"><time>2026-04-25T20:28:57Z</time></trkpt><trkpt lat="59.0718555450" lon="30.0141549110"><time>2026-04-25T20:29:00Z</time></trkpt><trkpt lat="59.0718555450" lon="30.0142192841"><time>2026-04-25T20:29:02Z</time></trkpt><trkpt lat="59.0718555450" lon="30.0143051147"><time>2026-04-25T20:29:05Z</time></trkpt><trkpt lat="59.0718770027" lon="30.0143694878"><time>2026-04-25T20:29:07Z</time></trkpt><trkpt lat="59.0718770027" lon="30.0144338608"><time>2026-04-25T20:29:10Z</time></trkpt><trkpt lat="59.0718770027" lon="30.0144767761"><time>2026-04-25T20:29:12Z</time></trkpt><trkpt lat="59.0718984604" lon="30.0145626068"><time>2026-04-25T20:29:15Z</time></trkpt><trkpt lat="59.0718984604" lon="30.0146055222"><time>2026-04-25T20:29:17Z</time></trkpt><trkpt lat="59.0718984604" lon="30.0146913528"><time>2026-04-25T20:29:20Z</time></trkpt><trkpt lat="59.0718984604" lon="30.0147342682"><time>2026-04-25T20:29:22Z</time></trkpt><trkpt lat="59.0719199181" lon="30.0147986412"><time>2026-04-25T20:29:25Z</time></trkpt><trkpt lat="59.0719199181" lon="30.0148415565"><time>2026-04-25T20:29:27Z</time></trkpt><trkpt lat="59.0719199181" lon="30.0149059296"><time>2026-04-25T20:29:30Z</time></trkpt><trkpt lat="59.0719199181" lon="30.0149273872"><time>2026-04-25T20:29:32Z</time></trkpt><trkpt lat="59.0719199181" lon="30.0150132179"><time>2026-04-25T20:29:35Z</time></trkpt><trkpt lat="59.0719413757" lon="30.0150561333"><time>2026-04-25T20:29:37Z</time></trkpt><trkpt lat="59.0719413757" lon="30.0151419640"><time>2026-04-25T20:29:40Z</time></trkpt><trkpt lat="59.0719413757" lon="30.0152063370"><time>2026-04-25T20:29:42Z</time></trkpt><trkpt lat="59.0719413757" lon="30.0152707100"><time>2026-04-25T20:29:45Z</time></trkpt><trkpt lat="59.0719413757" lon="30.0153136253"><time>2026-04-25T20:29:47Z</time></trkpt><trkpt lat="59.0719628334" lon="30.0153994560"><time>2026-04-25T20:29:50Z</time></trkpt><trkpt lat="59.0719628334" lon="30.0154423714"><time>2026-04-25T20:29:52Z</time></trkpt><trkpt lat="59.0719628334" lon="30.0155067444"><time>2026-04-25T20:29:55Z</time></trkpt><trkpt lat="59.0719842911" lon="30.0155711174"><time>2026-04-25T20:29:57Z</time></trkpt><trkpt lat="59.0719842911" lon="30.0156354904"><time>2026-04-25T20:30:00Z</time></trkpt><trkpt lat="59.0720057487" lon="30.0156569481"><time>2026-04-25T20:30:02Z</time></trkpt><trkpt lat="59.0720057487" lon="30.0157213211"><time>2026-04-25T20:30:05Z</time></trkpt><trkpt lat="59.0720272064" lon="30.0157642365"><time>2026-04-25T20:30:07Z</time></trkpt><trkpt lat="59.0720272064" lon="30.0158286095"><time>2026-04-25T20:30:10Z</time></trkpt><trkpt lat="59.0720272064" lon="30.0158929825"><time>2026-04-25T20:30:12Z</time></trkpt><trkpt lat="59.0720486641" lon="30.0159573555"><time>2026-04-25T20:30:15Z</time></trkpt><trkpt lat="59.0720701218" lon="30.0160002708"><time>2026-04-25T20:30:17Z</time></trkpt><trkpt lat="59.0720701218" lon="30.0160861015"><time>2026-04-25T20:30:20Z</time></trkpt><trkpt lat="59.0720701218" lon="30.0161504745"><time>2026-04-25T20:30:22Z</time></trkpt><trkpt lat="59.0720915794" lon="30.0162148476"><time>2026-04-25T20:30:25Z</time></trkpt><trkpt lat="59.0720915794" lon="30.0162577629"><time>2026-04-25T20:30:27Z</time></trkpt><trkpt lat="59.0720915794" lon="30.0163221359"><time>2026-04-25T20:30:30Z</time></trkpt><trkpt lat="59.0721130371" lon="30.0163650513"><time>2026-04-25T20:30:32Z</time></trkpt><trkpt lat="59.0721130371" lon="30.0164508820"><time>2026-04-25T20:30:35Z</time></trkpt><trkpt lat="59.0721130371" lon="30.0165152550"><time>2026-04-25T20:30:37Z</time></trkpt><trkpt lat="59.0721130371" lon="30.0165796280"><time>2026-04-25T20:30:40Z</time></trkpt><trkpt lat="59.0721344948" lon="30.0166225433"><time>2026-04-25T20:30:42Z</time></trkpt><trkpt lat="59.0721344948" lon="30.0166869164"><time>2026-04-25T20:30:45Z</time></trkpt><trkpt lat="59.0721344948" lon="30.0167298317"><time>2026-04-25T20:30:47Z</time></trkpt><trkpt lat="59.0721344948" lon="30.0167942047"><time>2026-04-25T20:30:50Z</time></trkpt><trkpt lat="59.0721344948" lon="30.0168585777"><time>2026-04-25T20:30:52Z</time></trkpt><trkpt lat="59.0721559525" lon="30.0169229507"><time>2026-04-25T20:30:55Z</time></trkpt><trkpt lat="59.0721559525" lon="30.0169658661"><time>2026-04-25T20:30:57Z</time></trkpt><trkpt lat="59.0721344948" lon="30.0170731544"><time>2026-04-25T20:31:00Z</time></trkpt><trkpt lat="59.0721344948" lon="30.0171160698"><time>2026-04-25T20:31:02Z</time></trkpt><trkpt lat="59.0721344948" lon="30.0171804428"><time>2026-04-25T20:31:05Z</time></trkpt><trkpt lat="59.0721344948" lon="30.0172448158"><time>2026-04-25T20:31:07Z</time></trkpt><trkpt lat="59.0721130371" lon="30.0173306465"><time>2026-04-25T20:31:10Z</time></trkpt><trkpt lat="59.0721344948" lon="30.0173735619"><time>2026-04-25T20:31:12Z</time></trkpt><trkpt lat="59.0721344948" lon="30.0174593925"><time>2026-04-25T20:31:15Z</time></trkpt><trkpt lat="59.0721130371" lon="30.0175237656"><time>2026-04-25T20:31:17Z</time></trkpt><trkpt lat="59.0721344948" lon="30.0175881386"><time>2026-04-25T20:31:20Z</time></trkpt><trkpt lat="59.0721344948" lon="30.0176525116"><time>2026-04-25T20:31:22Z</time></trkpt><trkpt lat="59.0721344948" lon="30.0177383423"><time>2026-04-25T20:31:25Z</time></trkpt><trkpt lat="59.0721344948" lon="30.0177812576"><time>2026-04-25T20:31:27Z</time></trkpt><trkpt lat="59.0721344948" lon="30.0178670883"><time>2026-04-25T20:31:30Z</time></trkpt><trkpt lat="59.0721559525" lon="30.0179100037"><time>2026-04-25T20:31:32Z</time></trkpt><trkpt lat="59.0721559525" lon="30.0179743767"><time>2026-04-25T20:31:35Z</time></trkpt><trkpt lat="59.0721344948" lon="30.0180387497"><time>2026-04-25T20:31:37Z</time></trkpt><trkpt lat="59.0721559525" lon="30.0180816650"><time>2026-04-25T20:31:40Z</time></trkpt><trkpt lat="59.0721559525" lon="30.0181245804"><time>2026-04-25T20:31:42Z</time></trkpt><trkpt lat="59.0721774101" lon="30.0182318687"><time>2026-04-25T20:31:45Z</time></trkpt><trkpt lat="59.0721774101" lon="30.0182962418"><time>2026-04-25T20:31:47Z</time></trkpt><trkpt lat="59.0721774101" lon="30.0183820724"><time>2026-04-25T20:31:50Z</time></trkpt><trkpt lat="59.0721774101" lon="30.0184249878"><time>2026-04-25T20:31:52Z</time></trkpt><trkpt lat="59.0721774101" lon="30.0184893608"><time>2026-04-25T20:31:55Z</time></trkpt><trkpt lat="59.0721988678" lon="30.0185322762"><time>2026-04-25T20:31:57Z</time></trkpt><trkpt lat="59.0721988678" lon="30.0186181068"><time>2026-04-25T20:32:00Z</time></trkpt><trkpt lat="59.0721988678" lon="30.0186610222"><time>2026-04-25T20:32:02Z</time></trkpt><trkpt lat="59.0722203255" lon="30.0187253952"><time>2026-04-25T20:32:05Z</time></trkpt><trkpt lat="59.0722203255" lon="30.0187683105"><time>2026-04-25T20:32:07Z</time></trkpt><trkpt lat="59.0722203255" lon="30.0188541412"><time>2026-04-25T20:32:10Z</time></trkpt><trkpt lat="59.0722417831" lon="30.0188970566"><time>2026-04-25T20:32:12Z</time></trkpt><trkpt lat="59.0722632408" lon="30.0189614296"><time>2026-04-25T20:32:15Z</time></trkpt><trkpt lat="59.0722632408" lon="30.0190043449"><time>2026-04-25T20:32:17Z</time></trkpt><trkpt lat="59.0723061562" lon="30.0190687180"><time>2026-04-25T20:32:20Z</time></trkpt><trkpt lat="59.0723061562" lon="30.0191116333"><time>2026-04-25T20:32:22Z</time></trkpt><trkpt lat="59.0723276138" lon="30.0191760063"><time>2026-04-25T20:32:25Z</time></trkpt><trkpt lat="59.0723276138" lon="30.0192189217"><time>2026-04-25T20:32:27Z</time></trkpt><trkpt lat="59.0723490715" lon="30.0192832947"><time>2026-04-25T20:32:30Z</time></trkpt><trkpt lat="59.0723705292" lon="30.0193262100"><time>2026-04-25T20:32:32Z</time></trkpt><trkpt lat="59.0723919868" lon="30.0193905830"><time>2026-04-25T20:32:35Z</time></trkpt><trkpt lat="59.0723919868" lon="30.0194334984"><time>2026-04-25T20:32:37Z</time></trkpt><trkpt lat="59.0724134445" lon="30.0194978714"><time>2026-04-25T20:32:40Z</time></trkpt><trkpt lat="59.0724134445" lon="30.0195407867"><time>2026-04-25T20:32:42Z</time></trkpt><trkpt lat="59.0724349022" lon="30.0196051598"><time>2026-04-25T20:32:45Z</time></trkpt><trkpt lat="59.0724349022" lon="30.0196480751"><time>2026-04-25T20:32:47Z</time></trkpt><trkpt lat="59.0724563599" lon="30.0197339058"><time>2026-04-25T20:32:50Z</time></trkpt><trkpt lat="59.0724778175" lon="30.0197768211"><time>2026-04-25T20:32:52Z</time></trkpt><trkpt lat="59.0724778175" lon="30.0198411942"><time>2026-04-25T20:32:55Z</time></trkpt><trkpt lat="59.0724778175" lon="30.0198841095"><time>2026-04-25T20:32:57Z</time></trkpt><trkpt lat="59.0724992752" lon="30.0199484825"><time>2026-04-25T20:33:00Z</time></trkpt><trkpt lat="59.0724992752" lon="30.0199913979"><time>2026-04-25T20:33:02Z</time></trkpt><trkpt lat="59.0724992752" lon="30.0200557709"><time>2026-04-25T20:33:05Z</time></trkpt><trkpt lat="59.0725207329" lon="30.0201201439"><time>2026-04-25T20:33:07Z</time></trkpt><trkpt lat="59.0725207329" lon="30.0201845169"><time>2026-04-25T20:33:10Z</time></trkpt><trkpt lat="59.0725421906" lon="30.0202059746"><time>2026-04-25T20:33:12Z</time></trkpt><trkpt lat="59.0725421906" lon="30.0202488899"><time>2026-04-25T20:33:15Z</time></trkpt><trkpt lat="59.0725421906" lon="30.0202918053"><time>2026-04-25T20:33:17Z</time></trkpt><trkpt lat="59.0725636482" lon="30.0203561783"><time>2026-04-25T20:33:20Z</time></trkpt><trkpt lat="59.0725636482" lon="30.0203990936"><time>2026-04-25T20:33:22Z</time></trkpt><trkpt lat="59.0725851059" lon="30.0204849243"><time>2026-04-25T20:33:25Z</time></trkpt><trkpt lat="59.0726065636" lon="30.0205278397"><time>2026-04-25T20:33:27Z</time></trkpt><trkpt lat="59.0726065636" lon="30.0205922127"><time>2026-04-25T20:33:30Z</time></trkpt><trkpt lat="59.0726065636" lon="30.0206565857"><time>2026-04-25T20:33:32Z</time></trkpt><trkpt lat="59.0726280212" lon="30.0207424164"><time>2026-04-25T20:33:35Z</time></trkpt><trkpt lat="59.0726280212" lon="30.0208067894"><time>2026-04-25T20:33:37Z</time></trkpt><trkpt lat="59.0726280212" lon="30.0208711624"><time>2026-04-25T20:33:40Z</time></trkpt><trkpt lat="59.0726280212" lon="30.0209140778"><time>2026-04-25T20:33:42Z</time></trkpt><trkpt lat="59.0726065636" lon="30.0209784508"><time>2026-04-25T20:33:45Z</time></trkpt><trkpt lat="59.0726065636" lon="30.0210213661"><time>2026-04-25T20:33:47Z</time></trkpt><trkpt lat="59.0726065636" lon="30.0210857391"><time>2026-04-25T20:33:50Z</time></trkpt><trkpt lat="59.0726065636" lon="30.0211501122"><time>2026-04-25T20:33:52Z</time></trkpt><trkpt lat="59.0726065636" lon="30.0211930275"><time>2026-04-25T20:33:55Z</time></trkpt><trkpt lat="59.0726065636" lon="30.0212359428"><time>2026-04-25T20:33:57Z</time></trkpt><trkpt lat="59.0726065636" lon="30.0213003159"><time>2026-04-25T20:34:00Z</time></trkpt><trkpt lat="59.0726065636" lon="30.0213003159"><time>2026-04-25T20:34:02Z</time></trkpt><trkpt lat="59.0726065636" lon="30.0213217735"><time>2026-04-25T20:34:05Z</time></trkpt><trkpt lat="59.0726065636" lon="30.0214076042"><time>2026-04-25T20:34:07Z</time></trkpt><trkpt lat="59.0726065636" lon="30.0215363503"><time>2026-04-25T20:34:10Z</time></trkpt><trkpt lat="59.0726065636" lon="30.0215792656"><time>2026-04-25T20:34:12Z</time></trkpt><trkpt lat="59.0726065636" lon="30.0216436386"><time>2026-04-25T20:34:15Z</time></trkpt><trkpt lat="59.0726065636" lon="30.0216865540"><time>2026-04-25T20:34:17Z</time></trkpt><trkpt lat="59.0726065636" lon="30.0217509270"><time>2026-04-25T20:34:20Z</time></trkpt><trkpt lat="59.0726065636" lon="30.0218153000"><time>2026-04-25T20:34:22Z</time></trkpt><trkpt lat="59.0725851059" lon="30.0219011307"><time>2026-04-25T20:34:25Z</time></trkpt><trkpt lat="59.0725851059" lon="30.0219440460"><time>2026-04-25T20:34:27Z</time></trkpt><trkpt lat="59.0725851059" lon="30.0220298767"><time>2026-04-25T20:34:30Z</time></trkpt><trkpt lat="59.0725851059" lon="30.0220727921"><time>2026-04-25T20:34:32Z</time></trkpt><trkpt lat="59.0725851059" lon="30.0221586227"><time>2026-04-25T20:34:35Z</time></trkpt><trkpt lat="59.0725851059" lon="30.0221800804"><time>2026-04-25T20:34:37Z</time></trkpt><trkpt lat="59.0725636482" lon="30.0222659111"><time>2026-04-25T20:34:40Z</time></trkpt><trkpt lat="59.0725636482" lon="30.0223088264"><time>2026-04-25T20:34:42Z</time></trkpt><trkpt lat="59.0725636482" lon="30.0223517418"><time>2026-04-25T20:34:45Z</time></trkpt><trkpt lat="59.0725636482" lon="30.0223731995"><time>2026-04-25T20:34:47Z</time></trkpt><trkpt lat="59.0725636482" lon="30.0223731995"><time>2026-04-25T20:34:50Z</time></trkpt><trkpt lat="59.0725636482" lon="30.0223731995"><time>2026-04-25T20:34:52Z</time></trkpt><trkpt lat="59.0725636482" lon="30.0224804878"><time>2026-04-25T20:34:55Z</time></trkpt><trkpt lat="59.0725636482" lon="30.0226092339"><time>2026-04-25T20:34:57Z</time></trkpt><trkpt lat="59.0725636482" lon="30.0227379799"><time>2026-04-25T20:35:00Z</time></trkpt><trkpt lat="59.0725636482" lon="30.0227808952"><time>2026-04-25T20:35:02Z</time></trkpt><trkpt lat="59.0725636482" lon="30.0228452682"><time>2026-04-25T20:35:05Z</time></trkpt><trkpt lat="59.0725636482" lon="30.0229096413"><time>2026-04-25T20:35:07Z</time></trkpt><trkpt lat="59.0725636482" lon="30.0229740143"><time>2026-04-25T20:35:10Z</time></trkpt><trkpt lat="59.0725421906" lon="30.0230169296"><time>2026-04-25T20:35:12Z</time></trkpt><trkpt lat="59.0725421906" lon="30.0230813026"><time>2026-04-25T20:35:15Z</time></trkpt><trkpt lat="59.0725421906" lon="30.0231242180"><time>2026-04-25T20:35:17Z</time></trkpt><trkpt lat="59.0725421906" lon="30.0231885910"><time>2026-04-25T20:35:20Z</time></trkpt><trkpt lat="59.0725421906" lon="30.0232529640"><time>2026-04-25T20:35:22Z</time></trkpt><trkpt lat="59.0725421906" lon="30.0233173370"><time>2026-04-25T20:35:25Z</time></trkpt><trkpt lat="59.0725636482" lon="30.0233602524"><time>2026-04-25T20:35:27Z</time></trkpt><trkpt lat="59.0725636482" lon="30.0234460831"><time>2026-04-25T20:35:30Z</time></trkpt><trkpt lat="59.0725851059" lon="30.0234889984"><time>2026-04-25T20:35:32Z</time></trkpt><trkpt lat="59.0725851059" lon="30.0235533714"><time>2026-04-25T20:35:35Z</time></trkpt><trkpt lat="59.0725851059" lon="30.0235962868"><time>2026-04-25T20:35:37Z</time></trkpt><trkpt lat="59.0726065636" lon="30.0236821175"><time>2026-04-25T20:35:40Z</time></trkpt><trkpt lat="59.0726065636" lon="30.0237250328"><time>2026-04-25T20:35:42Z</time></trkpt><trkpt lat="59.0726280212" lon="30.0237894058"><time>2026-04-25T20:35:45Z</time></trkpt><trkpt lat="59.0726280212" lon="30.0238108635"><time>2026-04-25T20:35:47Z</time></trkpt><trkpt lat="59.0726280212" lon="30.0238966942"><time>2026-04-25T20:35:50Z</time></trkpt><trkpt lat="59.0726494789" lon="30.0239396095"><time>2026-04-25T20:35:52Z</time></trkpt><trkpt lat="59.0726494789" lon="30.0240254402"><time>2026-04-25T20:35:55Z</time></trkpt><trkpt lat="59.0726709366" lon="30.0240683556"><time>2026-04-25T20:35:57Z</time></trkpt><trkpt lat="59.0726709366" lon="30.0241327286"><time>2026-04-25T20:36:00Z</time></trkpt><trkpt lat="59.0726709366" lon="30.0241756439"><time>2026-04-25T20:36:02Z</time></trkpt><trkpt lat="59.0726709366" lon="30.0242400169"><time>2026-04-25T20:36:05Z</time></trkpt><trkpt lat="59.0726709366" lon="30.0243043900"><time>2026-04-25T20:36:07Z</time></trkpt><trkpt lat="59.0726923943" lon="30.0243687630"><time>2026-04-25T20:36:10Z</time></trkpt><trkpt lat="59.0726923943" lon="30.0243902206"><time>2026-04-25T20:36:12Z</time></trkpt><trkpt lat="59.0726923943" lon="30.0244545937"><time>2026-04-25T20:36:15Z</time></trkpt><trkpt lat="59.0726923943" lon="30.0244760513"><time>2026-04-25T20:36:17Z</time></trkpt><trkpt lat="59.0726923943" lon="30.0245404243"><time>2026-04-25T20:36:20Z</time></trkpt><trkpt lat="59.0726923943" lon="30.0245833397"><time>2026-04-25T20:36:22Z</time></trkpt><trkpt lat="59.0726923943" lon="30.0246262550"><time>2026-04-25T20:36:25Z</time></trkpt><trkpt lat="59.0727138519" lon="30.0246477127"><time>2026-04-25T20:36:27Z</time></trkpt><trkpt lat="59.0727138519" lon="30.0246477127"><time>2026-04-25T20:36:30Z</time></trkpt><trkpt lat="59.0727138519" lon="30.0246477127"><time>2026-04-25T20:36:32Z</time></trkpt><trkpt lat="59.0727138519" lon="30.0246477127"><time>2026-04-25T20:36:35Z</time></trkpt><trkpt lat="59.0727138519" lon="30.0246906281"><time>2026-04-25T20:36:37Z</time></trkpt><trkpt lat="59.0727138519" lon="30.0247550011"><time>2026-04-25T20:36:40Z</time></trkpt><trkpt lat="59.0727138519" lon="30.0248193741"><time>2026-04-25T20:36:42Z</time></trkpt><trkpt lat="59.0727138519" lon="30.0248837471"><time>2026-04-25T20:36:45Z</time></trkpt><trkpt lat="59.0727138519" lon="30.0249266624"><time>2026-04-25T20:36:47Z</time></trkpt><trkpt lat="59.0727353096" lon="30.0249910355"><time>2026-04-25T20:36:50Z</time></trkpt><trkpt lat="59.0727353096" lon="30.0250339508"><time>2026-04-25T20:36:52Z</time></trkpt><trkpt lat="59.0727353096" lon="30.0250768661"><time>2026-04-25T20:36:55Z</time></trkpt><trkpt lat="59.0727567673" lon="30.0250983238"><time>2026-04-25T20:36:57Z</time></trkpt><trkpt lat="59.0727567673" lon="30.0251841545"><time>2026-04-25T20:37:00Z</time></trkpt><trkpt lat="59.0727567673" lon="30.0252270699"><time>2026-04-25T20:37:02Z</time></trkpt><trkpt lat="59.0727782249" lon="30.0252699852"><time>2026-04-25T20:37:05Z</time></trkpt><trkpt lat="59.0727782249" lon="30.0253129005"><time>2026-04-25T20:37:07Z</time></trkpt><trkpt lat="59.0727996826" lon="30.0253987312"><time>2026-04-25T20:37:10Z</time></trkpt><trkpt lat="59.0727996826" lon="30.0254631042"><time>2026-04-25T20:37:12Z</time></trkpt><trkpt lat="59.0727996826" lon="30.0255489349"><time>2026-04-25T20:37:15Z</time></trkpt><trkpt lat="59.0727996826" lon="30.0255918503"><time>2026-04-25T20:37:17Z</time></trkpt><trkpt lat="59.0727996826" lon="30.0256347656"><time>2026-04-25T20:37:20Z</time></trkpt><trkpt lat="59.0727996826" lon="30.0256991386"><time>2026-04-25T20:37:22Z</time></trkpt><trkpt lat="59.0728211403" lon="30.0257420540"><time>2026-04-25T20:37:25Z</time></trkpt><trkpt lat="59.0728211403" lon="30.0257849693"><time>2026-04-25T20:37:27Z</time></trkpt><trkpt lat="59.0728211403" lon="30.0258278847"><time>2026-04-25T20:37:30Z</time></trkpt><trkpt lat="59.0728425980" lon="30.0258493423"><time>2026-04-25T20:37:32Z</time></trkpt><trkpt lat="59.0728640556" lon="30.0259351730"><time>2026-04-25T20:37:35Z</time></trkpt><trkpt lat="59.0728640556" lon="30.0259566307"><time>2026-04-25T20:37:37Z</time></trkpt><trkpt lat="59.0728640556" lon="30.0260210037"><time>2026-04-25T20:37:40Z</time></trkpt><trkpt lat="59.0728640556" lon="30.0260639191"><time>2026-04-25T20:37:42Z</time></trkpt><trkpt lat="59.0728855133" lon="30.0261497498"><time>2026-04-25T20:37:45Z</time></trkpt><trkpt lat="59.0728855133" lon="30.0261926651"><time>2026-04-25T20:37:47Z</time></trkpt><trkpt lat="59.0728855133" lon="30.0262784958"><time>2026-04-25T20:37:50Z</time></trkpt><trkpt lat="59.0728855133" lon="30.0263214111"><time>2026-04-25T20:37:52Z</time></trkpt><trkpt lat="59.0729069710" lon="30.0264072418"><time>2026-04-25T20:37:55Z</time></trkpt><trkpt lat="59.0729284286" lon="30.0264501572"><time>2026-04-25T20:37:57Z</time></trkpt><trkpt lat="59.0729498863" lon="30.0265359879"><time>2026-04-25T20:38:00Z</time></trkpt><trkpt lat="59.0729713440" lon="30.0265574455"><time>2026-04-25T20:38:02Z</time></trkpt><trkpt lat="59.0729928017" lon="30.0266647339"><time>2026-04-25T20:38:05Z</time></trkpt><trkpt lat="59.0729928017" lon="30.0267291069"><time>2026-04-25T20:38:07Z</time></trkpt><trkpt lat="59.0729928017" lon="30.0267934799"><time>2026-04-25T20:38:10Z</time></trkpt><trkpt lat="59.0730142593" lon="30.0268363953"><time>2026-04-25T20:38:12Z</time></trkpt><trkpt lat="59.0730142593" lon="30.0269007683"><time>2026-04-25T20:38:15Z</time></trkpt><trkpt lat="59.0730142593" lon="30.0269436836"><time>2026-04-25T20:38:17Z</time></trkpt><trkpt lat="59.0730357170" lon="30.0270080566"><time>2026-04-25T20:38:20Z</time></trkpt><trkpt lat="59.0730357170" lon="30.0270509720"><time>2026-04-25T20:38:22Z</time></trkpt><trkpt lat="59.0730786324" lon="30.0271368027"><time>2026-04-25T20:38:25Z</time></trkpt><trkpt lat="59.0730786324" lon="30.0271797180"><time>2026-04-25T20:38:27Z</time></trkpt><trkpt lat="59.0730786324" lon="30.0272655487"><time>2026-04-25T20:38:30Z</time></trkpt><trkpt lat="59.0731000900" lon="30.0273299217"><time>2026-04-25T20:38:32Z</time></trkpt><trkpt lat="59.0731000900" lon="30.0273728371"><time>2026-04-25T20:38:35Z</time></trkpt><trkpt lat="59.0731000900" lon="30.0274372101"><time>2026-04-25T20:38:37Z</time></trkpt><trkpt lat="59.0731000900" lon="30.0275444984"><time>2026-04-25T20:38:40Z</time></trkpt><trkpt lat="59.0730786324" lon="30.0275659561"><time>2026-04-25T20:38:42Z</time></trkpt><trkpt lat="59.0730571747" lon="30.0275874138"><time>2026-04-25T20:38:45Z</time></trkpt><trkpt lat="59.0730357170" lon="30.0276088715"><time>2026-04-25T20:38:47Z</time></trkpt><trkpt lat="59.0729928017" lon="30.0276303291"><time>2026-04-25T20:38:50Z</time></trkpt><trkpt lat="59.0729713440" lon="30.0276517868"><time>2026-04-25T20:38:52Z</time></trkpt><trkpt lat="59.0729284286" lon="30.0276732445"><time>2026-04-25T20:38:55Z</time></trkpt><trkpt lat="59.0728855133" lon="30.0277161598"><time>2026-04-25T20:38:57Z</time></trkpt><trkpt lat="59.0728425980" lon="30.0277590752"><time>2026-04-25T20:39:00Z</time></trkpt><trkpt lat="59.0728211403" lon="30.0278019905"><time>2026-04-25T20:39:02Z</time></trkpt><trkpt lat="59.0727782249" lon="30.0278019905"><time>2026-04-25T20:39:05Z</time></trkpt><trkpt lat="59.0727567673" lon="30.0278234482"><time>2026-04-25T20:39:07Z</time></trkpt><trkpt lat="59.0727138519" lon="30.0278234482"><time>2026-04-25T20:39:10Z</time></trkpt><trkpt lat="59.0726923943" lon="30.0278234482"><time>2026-04-25T20:39:12Z</time></trkpt><trkpt lat="59.0726494789" lon="30.0278449059"><time>2026-04-25T20:39:15Z</time></trkpt><trkpt lat="59.0726280212" lon="30.0278663635"><time>2026-04-25T20:39:17Z</time></trkpt><trkpt lat="59.0725851059" lon="30.0278449059"><time>2026-04-25T20:39:20Z</time></trkpt><trkpt lat="59.0725636482" lon="30.0278449059"><time>2026-04-25T20:39:22Z</time></trkpt><trkpt lat="59.0725421906" lon="30.0278449059"><time>2026-04-25T20:39:25Z</time></trkpt><trkpt lat="59.0725207329" lon="30.0278234482"><time>2026-04-25T20:39:27Z</time></trkpt><trkpt lat="59.0724992752" lon="30.0278019905"><time>2026-04-25T20:39:30Z</time></trkpt><trkpt lat="59.0724992752" lon="30.0278234482"><time>2026-04-25T20:39:32Z</time></trkpt><trkpt lat="59.0724992752" lon="30.0278234482"><time>2026-04-25T20:39:35Z</time></trkpt><trkpt lat="59.0724992752" lon="30.0278234482"><time>2026-04-25T20:39:37Z</time></trkpt><trkpt lat="59.0724992752" lon="30.0278449059"><time>2026-04-25T20:39:40Z</time></trkpt><trkpt lat="59.0724778175" lon="30.0278449059"><time>2026-04-25T20:39:42Z</time></trkpt><trkpt lat="59.0724563599" lon="30.0278449059"><time>2026-04-25T20:39:45Z</time></trkpt><trkpt lat="59.0724349022" lon="30.0278663635"><time>2026-04-25T20:39:47Z</time></trkpt><trkpt lat="59.0724134445" lon="30.0278878212"><time>2026-04-25T20:39:50Z</time></trkpt><trkpt lat="59.0723919868" lon="30.0279092789"><time>2026-04-25T20:39:52Z</time></trkpt><trkpt lat="59.0723705292" lon="30.0279092789"><time>2026-04-25T20:39:55Z</time></trkpt><trkpt lat="59.0723490715" lon="30.0279092789"><time>2026-04-25T20:39:57Z</time></trkpt><trkpt lat="59.0723061562" lon="30.0279092789"><time>2026-04-25T20:40:00Z</time></trkpt><trkpt lat="59.0723061562" lon="30.0279307365"><time>2026-04-25T20:40:02Z</time></trkpt><trkpt lat="59.0722846985" lon="30.0279092789"><time>2026-04-25T20:40:05Z</time></trkpt><trkpt lat="59.0722632408" lon="30.0278878212"><time>2026-04-25T20:40:07Z</time></trkpt><trkpt lat="59.0722417831" lon="30.0279307365"><time>2026-04-25T20:40:10Z</time></trkpt><trkpt lat="59.0722203255" lon="30.0279521942"><time>2026-04-25T20:40:12Z</time></trkpt><trkpt lat="59.0721988678" lon="30.0279307365"><time>2026-04-25T20:40:17Z</time></trkpt><trkpt lat="59.0721774101" lon="30.0279307365"><time>2026-04-25T20:40:20Z</time></trkpt><trkpt lat="59.0721774101" lon="30.0279307365"><time>2026-04-25T20:40:22Z</time></trkpt><trkpt lat="59.0721344948" lon="30.0279521942"><time>2026-04-25T20:40:25Z</time></trkpt><trkpt lat="59.0721130371" lon="30.0279736519"><time>2026-04-25T20:40:27Z</time></trkpt><trkpt lat="59.0721130371" lon="30.0279951096"><time>2026-04-25T20:40:30Z</time></trkpt><trkpt lat="59.0721130371" lon="30.0279951096"><time>2026-04-25T20:40:32Z</time></trkpt><trkpt lat="59.0721130371" lon="30.0279951096"><time>2026-04-25T20:40:35Z</time></trkpt><trkpt lat="59.0721130371" lon="30.0279951096"><time>2026-04-25T20:40:37Z</time></trkpt><trkpt lat="59.0720915794" lon="30.0280380249"><time>2026-04-25T20:40:40Z</time></trkpt><trkpt lat="59.0720701218" lon="30.0280380249"><time>2026-04-25T20:40:42Z</time></trkpt><trkpt lat="59.0720272064" lon="30.0280165672"><time>2026-04-25T20:40:45Z</time></trkpt><trkpt lat="59.0720057487" lon="30.0280380249"><time>2026-04-25T20:40:47Z</time></trkpt><trkpt lat="59.0719628334" lon="30.0280809402"><time>2026-04-25T20:40:50Z</time></trkpt><trkpt lat="59.0719413757" lon="30.0281023979"><time>2026-04-25T20:40:52Z</time></trkpt><trkpt lat="59.0719199181" lon="30.0281238556"><time>2026-04-25T20:40:55Z</time></trkpt><trkpt lat="59.0718984604" lon="30.0281453133"><time>2026-04-25T20:40:57Z</time></trkpt><trkpt lat="59.0718770027" lon="30.0281453133"><time>2026-04-25T20:41:00Z</time></trkpt><trkpt lat="59.0718555450" lon="30.0281453133"><time>2026-04-25T20:41:02Z</time></trkpt><trkpt lat="59.0718126297" lon="30.0281453133"><time>2026-04-25T20:41:05Z</time></trkpt><trkpt lat="59.0718126297" lon="30.0281453133"><time>2026-04-25T20:41:07Z</time></trkpt><trkpt lat="59.0717697144" lon="30.0281453133"><time>2026-04-25T20:41:10Z</time></trkpt><trkpt lat="59.0717482567" lon="30.0281453133"><time>2026-04-25T20:41:12Z</time></trkpt><trkpt lat="59.0717267990" lon="30.0281667709"><time>2026-04-25T20:41:15Z</time></trkpt><trkpt lat="59.0717053413" lon="30.0281667709"><time>2026-04-25T20:41:17Z</time></trkpt><trkpt lat="59.0716838837" lon="30.0281882286"><time>2026-04-25T20:41:20Z</time></trkpt><trkpt lat="59.0716624260" lon="30.0281882286"><time>2026-04-25T20:41:22Z</time></trkpt><trkpt lat="59.0716195107" lon="30.0281882286"><time>2026-04-25T20:41:25Z</time></trkpt><trkpt lat="59.0715980530" lon="30.0281882286"><time>2026-04-25T20:41:27Z</time></trkpt><trkpt lat="59.0715765953" lon="30.0281882286"><time>2026-04-25T20:41:30Z</time></trkpt><trkpt lat="59.0715765953" lon="30.0281882286"><time>2026-04-25T20:41:32Z</time></trkpt><trkpt lat="59.0715336800" lon="30.0281882286"><time>2026-04-25T20:41:35Z</time></trkpt><trkpt lat="59.0715336800" lon="30.0282096863"><time>2026-04-25T20:41:37Z</time></trkpt><trkpt lat="59.0714907646" lon="30.0282311440"><time>2026-04-25T20:41:40Z</time></trkpt><trkpt lat="59.0714693069" lon="30.0282311440"><time>2026-04-25T20:41:42Z</time></trkpt><trkpt lat="59.0714049339" lon="30.0282311440"><time>2026-04-25T20:41:45Z</time></trkpt><trkpt lat="59.0713834763" lon="30.0282526016"><time>2026-04-25T20:41:47Z</time></trkpt><trkpt lat="59.0713620186" lon="30.0282526016"><time>2026-04-25T20:41:50Z</time></trkpt><trkpt lat="59.0713405609" lon="30.0282740593"><time>2026-04-25T20:41:52Z</time></trkpt><trkpt lat="59.0713191032" lon="30.0282740593"><time>2026-04-25T20:41:55Z</time></trkpt><trkpt lat="59.0712976456" lon="30.0282740593"><time>2026-04-25T20:41:57Z</time></trkpt><trkpt lat="59.0712547302" lon="30.0282740593"><time>2026-04-25T20:42:00Z</time></trkpt><trkpt lat="59.0712332726" lon="30.0282955170"><time>2026-04-25T20:42:02Z</time></trkpt><trkpt lat="59.0711903572" lon="30.0283169746"><time>2026-04-25T20:42:05Z</time></trkpt><trkpt lat="59.0711688995" lon="30.0283169746"><time>2026-04-25T20:42:07Z</time></trkpt><trkpt lat="59.0711474419" lon="30.0283169746"><time>2026-04-25T20:42:10Z</time></trkpt><trkpt lat="59.0711259842" lon="30.0283384323"><time>2026-04-25T20:42:12Z</time></trkpt><trkpt lat="59.0710830688" lon="30.0283384323"><time>2026-04-25T20:42:15Z</time></trkpt><trkpt lat="59.0710616112" lon="30.0283598900"><time>2026-04-25T20:42:17Z</time></trkpt><trkpt lat="59.0710186958" lon="30.0283813477"><time>2026-04-25T20:42:20Z</time></trkpt><trkpt lat="59.0709972382" lon="30.0284242630"><time>2026-04-25T20:42:22Z</time></trkpt><trkpt lat="59.0709757805" lon="30.0284242630"><time>2026-04-25T20:42:25Z</time></trkpt><trkpt lat="59.0709328651" lon="30.0284457207"><time>2026-04-25T20:42:27Z</time></trkpt><trkpt lat="59.0709328651" lon="30.0284671783"><time>2026-04-25T20:42:30Z</time></trkpt><trkpt lat="59.0709328651" lon="30.0284671783"><time>2026-04-25T20:42:32Z</time></trkpt><trkpt lat="59.0708684921" lon="30.0284886360"><time>2026-04-25T20:42:35Z</time></trkpt><trkpt lat="59.0708470345" lon="30.0284886360"><time>2026-04-25T20:42:37Z</time></trkpt><trkpt lat="59.0708041191" lon="30.0285100937"><time>2026-04-25T20:42:40Z</time></trkpt><trkpt lat="59.0708041191" lon="30.0285100937"><time>2026-04-25T20:42:42Z</time></trkpt><trkpt lat="59.0707612038" lon="30.0285315514"><time>2026-04-25T20:42:45Z</time></trkpt><trkpt lat="59.0707397461" lon="30.0285315514"><time>2026-04-25T20:42:47Z</time></trkpt><trkpt lat="59.0706753731" lon="30.0285530090"><time>2026-04-25T20:42:50Z</time></trkpt><trkpt lat="59.0706539154" lon="30.0285744667"><time>2026-04-25T20:42:52Z</time></trkpt><trkpt lat="59.0706110001" lon="30.0285744667"><time>2026-04-25T20:42:55Z</time></trkpt><trkpt lat="59.0705895424" lon="30.0285959244"><time>2026-04-25T20:42:57Z</time></trkpt><trkpt lat="59.0705466270" lon="30.0285959244"><time>2026-04-25T20:43:00Z</time></trkpt><trkpt lat="59.0705037117" lon="30.0286173820"><time>2026-04-25T20:43:02Z</time></trkpt><trkpt lat="59.0704607964" lon="30.0286388397"><time>2026-04-25T20:43:05Z</time></trkpt><trkpt lat="59.0704393387" lon="30.0286173820"><time>2026-04-25T20:43:07Z</time></trkpt><trkpt lat="59.0704178810" lon="30.0286173820"><time>2026-04-25T20:43:10Z</time></trkpt><trkpt lat="59.0703964233" lon="30.0286173820"><time>2026-04-25T20:43:12Z</time></trkpt><trkpt lat="59.0703749657" lon="30.0286173820"><time>2026-04-25T20:43:15Z</time></trkpt><trkpt lat="59.0703535080" lon="30.0285959244"><time>2026-04-25T20:43:17Z</time></trkpt><trkpt lat="59.0703105927" lon="30.0285959244"><time>2026-04-25T20:43:20Z</time></trkpt><trkpt lat="59.0702891350" lon="30.0285959244"><time>2026-04-25T20:43:22Z</time></trkpt><trkpt lat="59.0702462196" lon="30.0286173820"><time>2026-04-25T20:43:25Z</time></trkpt><trkpt lat="59.0702247620" lon="30.0286388397"><time>2026-04-25T20:43:27Z</time></trkpt><trkpt lat="59.0702247620" lon="30.0286388397"><time>2026-04-25T20:43:30Z</time></trkpt><trkpt lat="59.0701818466" lon="30.0286602974"><time>2026-04-25T20:43:32Z</time></trkpt><trkpt lat="59.0701174736" lon="30.0286817551"><time>2026-04-25T20:43:35Z</time></trkpt><trkpt lat="59.0700960159" lon="30.0287032127"><time>2026-04-25T20:43:37Z</time></trkpt><trkpt lat="59.0700316429" lon="30.0287032127"><time>2026-04-25T20:43:40Z</time></trkpt><trkpt lat="59.0700101852" lon="30.0287246704"><time>2026-04-25T20:43:42Z</time></trkpt><trkpt lat="59.0699672699" lon="30.0287032127"><time>2026-04-25T20:43:45Z</time></trkpt><trkpt lat="59.0699458122" lon="30.0287032127"><time>2026-04-25T20:43:47Z</time></trkpt><trkpt lat="59.0699243546" lon="30.0287246704"><time>2026-04-25T20:43:50Z</time></trkpt><trkpt lat="59.0699028969" lon="30.0287246704"><time>2026-04-25T20:43:52Z</time></trkpt><trkpt lat="59.0698814392" lon="30.0286817551"><time>2026-04-25T20:43:55Z</time></trkpt><trkpt lat="59.0698599815" lon="30.0286602974"><time>2026-04-25T20:43:57Z</time></trkpt><trkpt lat="59.0698385239" lon="30.0286602974"><time>2026-04-25T20:44:00Z</time></trkpt><trkpt lat="59.0698385239" lon="30.0286817551"><time>2026-04-25T20:44:02Z</time></trkpt><trkpt lat="59.0698170662" lon="30.0287246704"><time>2026-04-25T20:44:05Z</time></trkpt><trkpt lat="59.0697956085" lon="30.0287461281"><time>2026-04-25T20:44:07Z</time></trkpt><trkpt lat="59.0697526932" lon="30.0287675858"><time>2026-04-25T20:44:10Z</time></trkpt><trkpt lat="59.0697312355" lon="30.0287890434"><time>2026-04-25T20:44:12Z</time></trkpt><trkpt lat="59.0696883202" lon="30.0288105011"><time>2026-04-25T20:44:15Z</time></trkpt><trkpt lat="59.0696668625" lon="30.0288105011"><time>2026-04-25T20:44:17Z</time></trkpt><trkpt lat="59.0696454048" lon="30.0288534164"><time>2026-04-25T20:44:20Z</time></trkpt><trkpt lat="59.0696239471" lon="30.0288534164"><time>2026-04-25T20:44:22Z</time></trkpt><trkpt lat="59.0695810318" lon="30.0288748741"><time>2026-04-25T20:44:25Z</time></trkpt><trkpt lat="59.0695595741" lon="30.0288748741"><time>2026-04-25T20:44:27Z</time></trkpt><trkpt lat="59.0695166588" lon="30.0288963318"><time>2026-04-25T20:44:30Z</time></trkpt><trkpt lat="59.0694952011" lon="30.0288963318"><time>2026-04-25T20:44:32Z</time></trkpt><trkpt lat="59.0694737434" lon="30.0289177895"><time>2026-04-25T20:44:35Z</time></trkpt><trkpt lat="59.0694737434" lon="30.0289177895"><time>2026-04-25T20:44:37Z</time></trkpt><trkpt lat="59.0694093704" lon="30.0289177895"><time>2026-04-25T20:44:40Z</time></trkpt><trkpt lat="59.0693879128" lon="30.0289177895"><time>2026-04-25T20:44:42Z</time></trkpt><trkpt lat="59.0693449974" lon="30.0289177895"><time>2026-04-25T20:44:45Z</time></trkpt><trkpt lat="59.0693235397" lon="30.0289392471"><time>2026-04-25T20:44:47Z</time></trkpt><trkpt lat="59.0692806244" lon="30.0289821625"><time>2026-04-25T20:44:50Z</time></trkpt><trkpt lat="59.0692806244" lon="30.0290036201"><time>2026-04-25T20:44:52Z</time></trkpt><trkpt lat="59.0692377090" lon="30.0290250778"><time>2026-04-25T20:44:55Z</time></trkpt><trkpt lat="59.0692162514" lon="30.0290250778"><time>2026-04-25T20:44:57Z</time></trkpt><trkpt lat="59.0691733360" lon="30.0290465355"><time>2026-04-25T20:45:00Z</time></trkpt><trkpt lat="59.0691733360" lon="30.0290465355"><time>2026-04-25T20:45:02Z</time></trkpt><trkpt lat="59.0691304207" lon="30.0290465355"><time>2026-04-25T20:45:05Z</time></trkpt><trkpt lat="59.0691089630" lon="30.0290465355"><time>2026-04-25T20:45:07Z</time></trkpt><trkpt lat="59.0690875053" lon="30.0290250778"><time>2026-04-25T20:45:10Z</time></trkpt><trkpt lat="59.0690660477" lon="30.0290465355"><time>2026-04-25T20:45:12Z</time></trkpt><trkpt lat="59.0690445900" lon="30.0290679932"><time>2026-04-25T20:45:15Z</time></trkpt><trkpt lat="59.0690445900" lon="30.0290679932"><time>2026-04-25T20:45:17Z</time></trkpt><trkpt lat="59.0690016747" lon="30.0290894508"><time>2026-04-25T20:45:20Z</time></trkpt><trkpt lat="59.0689802170" lon="30.0290894508"><time>2026-04-25T20:45:22Z</time></trkpt><trkpt lat="59.0689373016" lon="30.0290894508"><time>2026-04-25T20:45:25Z</time></trkpt><trkpt lat="59.0688943863" lon="30.0291109085"><time>2026-04-25T20:45:27Z</time></trkpt><trkpt lat="59.0688514709" lon="30.0291109085"><time>2026-04-25T20:45:30Z</time></trkpt><trkpt lat="59.0688300133" lon="30.0291109085"><time>2026-04-25T20:45:32Z</time></trkpt><trkpt lat="59.0687656403" lon="30.0291323662"><time>2026-04-25T20:45:35Z</time></trkpt><trkpt lat="59.0687227249" lon="30.0291323662"><time>2026-04-25T20:45:37Z</time></trkpt><trkpt lat="59.0687012672" lon="30.0291323662"><time>2026-04-25T20:45:40Z</time></trkpt><trkpt lat="59.0686798096" lon="30.0291538239"><time>2026-04-25T20:45:42Z</time></trkpt><trkpt lat="59.0686368942" lon="30.0291967392"><time>2026-04-25T20:45:45Z</time></trkpt><trkpt lat="59.0686154366" lon="30.0292181969"><time>2026-04-25T20:45:47Z</time></trkpt><trkpt lat="59.0685939789" lon="30.0292396545"><time>2026-04-25T20:45:50Z</time></trkpt><trkpt lat="59.0685725212" lon="30.0292611122"><time>2026-04-25T20:45:52Z</time></trkpt><trkpt lat="59.0685510635" lon="30.0292825699"><time>2026-04-25T20:45:55Z</time></trkpt><trkpt lat="59.0685296059" lon="30.0292825699"><time>2026-04-25T20:45:57Z</time></trkpt><trkpt lat="59.0684866905" lon="30.0292825699"><time>2026-04-25T20:46:00Z</time></trkpt><trkpt lat="59.0684652328" lon="30.0292825699"><time>2026-04-25T20:46:02Z</time></trkpt><trkpt lat="59.0684223175" lon="30.0292611122"><time>2026-04-25T20:46:05Z</time></trkpt><trkpt lat="59.0684223175" lon="30.0292611122"><time>2026-04-25T20:46:07Z</time></trkpt><trkpt lat="59.0684437752" lon="30.0292611122"><time>2026-04-25T20:46:10Z</time></trkpt><trkpt lat="59.0684223175" lon="30.0292825699"><time>2026-04-25T20:46:12Z</time></trkpt><trkpt lat="59.0684008598" lon="30.0293254852"><time>2026-04-25T20:46:15Z</time></trkpt><trkpt lat="59.0683794022" lon="30.0293254852"><time>2026-04-25T20:46:17Z</time></trkpt><trkpt lat="59.0683794022" lon="30.0293254852"><time>2026-04-25T20:46:20Z</time></trkpt><trkpt lat="59.0683794022" lon="30.0293254852"><time>2026-04-25T20:46:22Z</time></trkpt><trkpt lat="59.0683794022" lon="30.0293254852"><time>2026-04-25T20:46:25Z</time></trkpt><trkpt lat="59.0683579445" lon="30.0293040276"><time>2026-04-25T20:46:27Z</time></trkpt><trkpt lat="59.0683150291" lon="30.0293040276"><time>2026-04-25T20:46:30Z</time></trkpt><trkpt lat="59.0682935715" lon="30.0293254852"><time>2026-04-25T20:46:32Z</time></trkpt><trkpt lat="59.0682721138" lon="30.0293469429"><time>2026-04-25T20:46:35Z</time></trkpt><trkpt lat="59.0682506561" lon="30.0293254852"><time>2026-04-25T20:46:37Z</time></trkpt><trkpt lat="59.0682291985" lon="30.0293040276"><time>2026-04-25T20:46:40Z</time></trkpt><trkpt lat="59.0681862831" lon="30.0293040276"><time>2026-04-25T20:46:42Z</time></trkpt><trkpt lat="59.0681648254" lon="30.0293254852"><time>2026-04-25T20:46:45Z</time></trkpt><trkpt lat="59.0681433678" lon="30.0293254852"><time>2026-04-25T20:46:47Z</time></trkpt><trkpt lat="59.0681004524" lon="30.0293469429"><time>2026-04-25T20:46:50Z</time></trkpt><trkpt lat="59.0680789948" lon="30.0293898582"><time>2026-04-25T20:46:52Z</time></trkpt><trkpt lat="59.0680575371" lon="30.0294113159"><time>2026-04-25T20:46:55Z</time></trkpt><trkpt lat="59.0680360794" lon="30.0293898582"><time>2026-04-25T20:46:57Z</time></trkpt><trkpt lat="59.0679931641" lon="30.0294327736"><time>2026-04-25T20:47:00Z</time></trkpt><trkpt lat="59.0679717064" lon="30.0294542313"><time>2026-04-25T20:47:02Z</time></trkpt><trkpt lat="59.0679502487" lon="30.0294542313"><time>2026-04-25T20:47:05Z</time></trkpt><trkpt lat="59.0679287910" lon="30.0294327736"><time>2026-04-25T20:47:07Z</time></trkpt><trkpt lat="59.0678858757" lon="30.0294113159"><time>2026-04-25T20:47:10Z</time></trkpt><trkpt lat="59.0678644180" lon="30.0294113159"><time>2026-04-25T20:47:12Z</time></trkpt><trkpt lat="59.0678429604" lon="30.0294542313"><time>2026-04-25T20:47:15Z</time></trkpt><trkpt lat="59.0678215027" lon="30.0294542313"><time>2026-04-25T20:47:17Z</time></trkpt><trkpt lat="59.0678000450" lon="30.0294327736"><time>2026-04-25T20:47:20Z</time></trkpt><trkpt lat="59.0677785873" lon="30.0294327736"><time>2026-04-25T20:47:22Z</time></trkpt><trkpt lat="59.0677356720" lon="30.0294327736"><time>2026-04-25T20:47:25Z</time></trkpt><trkpt lat="59.0677142143" lon="30.0294327736"><time>2026-04-25T20:47:27Z</time></trkpt><trkpt lat="59.0677142143" lon="30.0294542313"><time>2026-04-25T20:47:30Z</time></trkpt><trkpt lat="59.0676927567" lon="30.0294542313"><time>2026-04-25T20:47:32Z</time></trkpt><trkpt lat="59.0676712990" lon="30.0294756889"><time>2026-04-25T20:47:35Z</time></trkpt><trkpt lat="59.0676498413" lon="30.0294971466"><time>2026-04-25T20:47:37Z</time></trkpt><trkpt lat="59.0676283836" lon="30.0295186043"><time>2026-04-25T20:47:40Z</time></trkpt><trkpt lat="59.0676069260" lon="30.0295400620"><time>2026-04-25T20:47:42Z</time></trkpt><trkpt lat="59.0675854683" lon="30.0295186043"><time>2026-04-25T20:47:45Z</time></trkpt><trkpt lat="59.0675425529" lon="30.0295186043"><time>2026-04-25T20:47:47Z</time></trkpt><trkpt lat="59.0675210953" lon="30.0295400620"><time>2026-04-25T20:47:50Z</time></trkpt><trkpt lat="59.0674996376" lon="30.0295615196"><time>2026-04-25T20:47:52Z</time></trkpt><trkpt lat="59.0674567223" lon="30.0295615196"><time>2026-04-25T20:47:55Z</time></trkpt><trkpt lat="59.0674352646" lon="30.0295829773"><time>2026-04-25T20:47:57Z</time></trkpt><trkpt lat="59.0674138069" lon="30.0295829773"><time>2026-04-25T20:48:00Z</time></trkpt><trkpt lat="59.0673923492" lon="30.0296044350"><time>2026-04-25T20:48:02Z</time></trkpt><trkpt lat="59.0673494339" lon="30.0296044350"><time>2026-04-25T20:48:05Z</time></trkpt><trkpt lat="59.0673279762" lon="30.0296258926"><time>2026-04-25T20:48:07Z</time></trkpt><trkpt lat="59.0672850609" lon="30.0296258926"><time>2026-04-25T20:48:10Z</time></trkpt><trkpt lat="59.0672850609" lon="30.0296258926"><time>2026-04-25T20:48:12Z</time></trkpt><trkpt lat="59.0672636032" lon="30.0296258926"><time>2026-04-25T20:48:15Z</time></trkpt><trkpt lat="59.0672636032" lon="30.0296258926"><time>2026-04-25T20:48:17Z</time></trkpt><trkpt lat="59.0672421455" lon="30.0296473503"><time>2026-04-25T20:48:20Z</time></trkpt><trkpt lat="59.0672206879" lon="30.0296473503"><time>2026-04-25T20:48:22Z</time></trkpt><trkpt lat="59.0672206879" lon="30.0296473503"><time>2026-04-25T20:48:25Z</time></trkpt><trkpt lat="59.0671777725" lon="30.0296473503"><time>2026-04-25T20:48:27Z</time></trkpt><trkpt lat="59.0671563148" lon="30.0297117233"><time>2026-04-25T20:48:30Z</time></trkpt><trkpt lat="59.0671348572" lon="30.0297331810"><time>2026-04-25T20:48:32Z</time></trkpt><trkpt lat="59.0670919418" lon="30.0297117233"><time>2026-04-25T20:48:35Z</time></trkpt><trkpt lat="59.0670919418" lon="30.0297117233"><time>2026-04-25T20:48:37Z</time></trkpt><trkpt lat="59.0670704842" lon="30.0297117233"><time>2026-04-25T20:48:40Z</time></trkpt><trkpt lat="59.0670275688" lon="30.0297331810"><time>2026-04-25T20:48:42Z</time></trkpt><trkpt lat="59.0670061111" lon="30.0297331810"><time>2026-04-25T20:48:45Z</time></trkpt><trkpt lat="59.0669846535" lon="30.0297117233"><time>2026-04-25T20:48:47Z</time></trkpt><trkpt lat="59.0669417381" lon="30.0296902657"><time>2026-04-25T20:48:50Z</time></trkpt><trkpt lat="59.0669202805" lon="30.0297117233"><time>2026-04-25T20:48:52Z</time></trkpt><trkpt lat="59.0668988228" lon="30.0297331810"><time>2026-04-25T20:48:55Z</time></trkpt><trkpt lat="59.0668773651" lon="30.0297331810"><time>2026-04-25T20:48:57Z</time></trkpt><trkpt lat="59.0668559074" lon="30.0297546387"><time>2026-04-25T20:49:00Z</time></trkpt><trkpt lat="59.0668129921" lon="30.0297760963"><time>2026-04-25T20:49:02Z</time></trkpt><trkpt lat="59.0667915344" lon="30.0297975540"><time>2026-04-25T20:49:05Z</time></trkpt><trkpt lat="59.0667915344" lon="30.0298190117"><time>2026-04-25T20:49:07Z</time></trkpt><trkpt lat="59.0667700768" lon="30.0298404694"><time>2026-04-25T20:49:10Z</time></trkpt><trkpt lat="59.0667486191" lon="30.0298404694"><time>2026-04-25T20:49:12Z</time></trkpt><trkpt lat="59.0667271614" lon="30.0298404694"><time>2026-04-25T20:49:15Z</time></trkpt><trkpt lat="59.0667057037" lon="30.0298404694"><time>2026-04-25T20:49:17Z</time></trkpt><trkpt lat="59.0667057037" lon="30.0298619270"><time>2026-04-25T20:49:20Z</time></trkpt><trkpt lat="59.0666842461" lon="30.0298619270"><time>2026-04-25T20:49:22Z</time></trkpt><trkpt lat="59.0666842461" lon="30.0298619270"><time>2026-04-25T20:49:25Z</time></trkpt><trkpt lat="59.0666627884" lon="30.0298833847"><time>2026-04-25T20:49:27Z</time></trkpt><trkpt lat="59.0666627884" lon="30.0298833847"><time>2026-04-25T20:49:30Z</time></trkpt><trkpt lat="59.0666413307" lon="30.0299048424"><time>2026-04-25T20:49:32Z</time></trkpt><trkpt lat="59.0666198730" lon="30.0299048424"><time>2026-04-25T20:49:35Z</time></trkpt><trkpt lat="59.0665769577" lon="30.0298833847"><time>2026-04-25T20:49:37Z</time></trkpt><trkpt lat="59.0665555000" lon="30.0299048424"><time>2026-04-25T20:49:40Z</time></trkpt><trkpt lat="59.0665340424" lon="30.0299048424"><time>2026-04-25T20:49:42Z</time></trkpt><trkpt lat="59.0665125847" lon="30.0299048424"><time>2026-04-25T20:49:45Z</time></trkpt><trkpt lat="59.0665125847" lon="30.0299263000"><time>2026-04-25T20:49:47Z</time></trkpt><trkpt lat="59.0664696693" lon="30.0299477577"><time>2026-04-25T20:49:50Z</time></trkpt><trkpt lat="59.0664696693" lon="30.0299477577"><time>2026-04-25T20:49:52Z</time></trkpt><trkpt lat="59.0664482117" lon="30.0299692154"><time>2026-04-25T20:49:55Z</time></trkpt><trkpt lat="59.0664267540" lon="30.0299692154"><time>2026-04-25T20:49:57Z</time></trkpt><trkpt lat="59.0664052963" lon="30.0299906731"><time>2026-04-25T20:50:00Z</time></trkpt><trkpt lat="59.0663838387" lon="30.0299692154"><time>2026-04-25T20:50:02Z</time></trkpt><trkpt lat="59.0663838387" lon="30.0299906731"><time>2026-04-25T20:50:05Z</time></trkpt><trkpt lat="59.0663623810" lon="30.0299906731"><time>2026-04-25T20:50:07Z</time></trkpt><trkpt lat="59.0663409233" lon="30.0299906731"><time>2026-04-25T20:50:10Z</time></trkpt><trkpt lat="59.0663409233" lon="30.0300121307"><time>2026-04-25T20:50:12Z</time></trkpt><trkpt lat="59.0663409233" lon="30.0300121307"><time>2026-04-25T20:50:15Z</time></trkpt><trkpt lat="59.0663409233" lon="30.0300335884"><time>2026-04-25T20:50:17Z</time></trkpt><trkpt lat="59.0663409233" lon="30.0300335884"><time>2026-04-25T20:50:20Z</time></trkpt><trkpt lat="59.0663194656" lon="30.0300335884"><time>2026-04-25T20:50:22Z</time></trkpt><trkpt lat="59.0663194656" lon="30.0300335884"><time>2026-04-25T20:50:25Z</time></trkpt><trkpt lat="59.0663194656" lon="30.0300335884"><time>2026-04-25T20:50:27Z</time></trkpt><trkpt lat="59.0663194656" lon="30.0300335884"><time>2026-04-25T20:50:30Z</time></trkpt><trkpt lat="59.0662765503" lon="30.0300121307"><time>2026-04-25T20:50:32Z</time></trkpt><trkpt lat="59.0662550926" lon="30.0299692154"><time>2026-04-25T20:50:35Z</time></trkpt><trkpt lat="59.0662336349" lon="30.0299692154"><time>2026-04-25T20:50:37Z</time></trkpt><trkpt lat="59.0661907196" lon="30.0300121307"><time>2026-04-25T20:50:40Z</time></trkpt><trkpt lat="59.0661692619" lon="30.0300121307"><time>2026-04-25T20:50:42Z</time></trkpt><trkpt lat="59.0661478043" lon="30.0300121307"><time>2026-04-25T20:50:45Z</time></trkpt><trkpt lat="59.0661478043" lon="30.0300121307"><time>2026-04-25T20:50:47Z</time></trkpt><trkpt lat="59.0661478043" lon="30.0300121307"><time>2026-04-25T20:50:50Z</time></trkpt><trkpt lat="59.0661263466" lon="30.0300335884"><time>2026-04-25T20:50:52Z</time></trkpt><trkpt lat="59.0661048889" lon="30.0300765038"><time>2026-04-25T20:50:55Z</time></trkpt><trkpt lat="59.0660834312" lon="30.0300765038"><time>2026-04-25T20:50:57Z</time></trkpt><trkpt lat="59.0660619736" lon="30.0300765038"><time>2026-04-25T20:51:00Z</time></trkpt><trkpt lat="59.0660405159" lon="30.0300550461"><time>2026-04-25T20:51:02Z</time></trkpt><trkpt lat="59.0660405159" lon="30.0300550461"><time>2026-04-25T20:51:05Z</time></trkpt><trkpt lat="59.0660405159" lon="30.0300550461"><time>2026-04-25T20:51:07Z</time></trkpt><trkpt lat="59.0660190582" lon="30.0300765038"><time>2026-04-25T20:51:10Z</time></trkpt><trkpt lat="59.0660190582" lon="30.0300765038"><time>2026-04-25T20:51:12Z</time></trkpt><trkpt lat="59.0659976006" lon="30.0300979614"><time>2026-04-25T20:51:15Z</time></trkpt><trkpt lat="59.0659976006" lon="30.0300979614"><time>2026-04-25T20:51:17Z</time></trkpt><trkpt lat="59.0659976006" lon="30.0301194191"><time>2026-04-25T20:51:20Z</time></trkpt><trkpt lat="59.0659761429" lon="30.0301194191"><time>2026-04-25T20:51:22Z</time></trkpt><trkpt lat="59.0659332275" lon="30.0301194191"><time>2026-04-25T20:51:25Z</time></trkpt><trkpt lat="59.0659117699" lon="30.0301194191"><time>2026-04-25T20:51:27Z</time></trkpt><trkpt lat="59.0658903122" lon="30.0300979614"><time>2026-04-25T20:51:30Z</time></trkpt><trkpt lat="59.0658688545" lon="30.0300979614"><time>2026-04-25T20:51:32Z</time></trkpt><trkpt lat="59.0658688545" lon="30.0301194191"><time>2026-04-25T20:51:35Z</time></trkpt><trkpt lat="59.0658688545" lon="30.0301194191"><time>2026-04-25T20:51:37Z</time></trkpt><trkpt lat="59.0658688545" lon="30.0301623344"><time>2026-04-25T20:51:40Z</time></trkpt><trkpt lat="59.0658473969" lon="30.0302052498"><time>2026-04-25T20:51:42Z</time></trkpt><trkpt lat="59.0658473969" lon="30.0302481651"><time>2026-04-25T20:51:45Z</time></trkpt><trkpt lat="59.0658259392" lon="30.0302696228"><time>2026-04-25T20:51:47Z</time></trkpt><trkpt lat="59.0658044815" lon="30.0302910805"><time>2026-04-25T20:51:50Z</time></trkpt><trkpt lat="59.0657830238" lon="30.0302910805"><time>2026-04-25T20:51:52Z</time></trkpt><trkpt lat="59.0657615662" lon="30.0302696228"><time>2026-04-25T20:51:55Z</time></trkpt><trkpt lat="59.0657401085" lon="30.0302696228"><time>2026-04-25T20:51:57Z</time></trkpt><trkpt lat="59.0656971931" lon="30.0302696228"><time>2026-04-25T20:52:00Z</time></trkpt><trkpt lat="59.0656971931" lon="30.0302910805"><time>2026-04-25T20:52:02Z</time></trkpt><trkpt lat="59.0656757355" lon="30.0303125381"><time>2026-04-25T20:52:05Z</time></trkpt><trkpt lat="59.0656757355" lon="30.0303125381"><time>2026-04-25T20:52:07Z</time></trkpt><trkpt lat="59.0656328201" lon="30.0302910805"><time>2026-04-25T20:52:10Z</time></trkpt><trkpt lat="59.0656328201" lon="30.0302910805"><time>2026-04-25T20:52:12Z</time></trkpt><trkpt lat="59.0656113625" lon="30.0302696228"><time>2026-04-25T20:52:15Z</time></trkpt><trkpt lat="59.0655899048" lon="30.0302696228"><time>2026-04-25T20:52:17Z</time></trkpt><trkpt lat="59.0655684471" lon="30.0302481651"><time>2026-04-25T20:52:20Z</time></trkpt><trkpt lat="59.0655469894" lon="30.0302481651"><time>2026-04-25T20:52:22Z</time></trkpt><trkpt lat="59.0655255318" lon="30.0302696228"><time>2026-04-25T20:52:25Z</time></trkpt><trkpt lat="59.0655040741" lon="30.0302910805"><time>2026-04-25T20:52:27Z</time></trkpt><trkpt lat="59.0654611588" lon="30.0303339958"><time>2026-04-25T20:52:30Z</time></trkpt><trkpt lat="59.0654397011" lon="30.0303339958"><time>2026-04-25T20:52:32Z</time></trkpt><trkpt lat="59.0654397011" lon="30.0303339958"><time>2026-04-25T20:52:35Z</time></trkpt><trkpt lat="59.0653967857" lon="30.0303339958"><time>2026-04-25T20:52:37Z</time></trkpt><trkpt lat="59.0653538704" lon="30.0303339958"><time>2026-04-25T20:52:40Z</time></trkpt><trkpt lat="59.0653324127" lon="30.0303339958"><time>2026-04-25T20:52:42Z</time></trkpt><trkpt lat="59.0652894974" lon="30.0303339958"><time>2026-04-25T20:52:45Z</time></trkpt><trkpt lat="59.0652680397" lon="30.0303339958"><time>2026-04-25T20:52:47Z</time></trkpt><trkpt lat="59.0652680397" lon="30.0303339958"><time>2026-04-25T20:52:50Z</time></trkpt><trkpt lat="59.0652251244" lon="30.0303554535"><time>2026-04-25T20:52:52Z</time></trkpt><trkpt lat="59.0652036667" lon="30.0303554535"><time>2026-04-25T20:52:55Z</time></trkpt><trkpt lat="59.0651607513" lon="30.0303339958"><time>2026-04-25T20:52:57Z</time></trkpt><trkpt lat="59.0651392937" lon="30.0303554535"><time>2026-04-25T20:53:00Z</time></trkpt><trkpt lat="59.0650963783" lon="30.0303554535"><time>2026-04-25T20:53:02Z</time></trkpt><trkpt lat="59.0650749207" lon="30.0303983688"><time>2026-04-25T20:53:05Z</time></trkpt><trkpt lat="59.0650534630" lon="30.0304198265"><time>2026-04-25T20:53:07Z</time></trkpt><trkpt lat="59.0650105476" lon="30.0304198265"><time>2026-04-25T20:53:10Z</time></trkpt><trkpt lat="59.0649676323" lon="30.0304198265"><time>2026-04-25T20:53:12Z</time></trkpt><trkpt lat="59.0649247169" lon="30.0304198265"><time>2026-04-25T20:53:15Z</time></trkpt><trkpt lat="59.0649032593" lon="30.0304412842"><time>2026-04-25T20:53:17Z</time></trkpt><trkpt lat="59.0648818016" lon="30.0304627419"><time>2026-04-25T20:53:20Z</time></trkpt><trkpt lat="59.0648603439" lon="30.0304627419"><time>2026-04-25T20:53:22Z</time></trkpt><trkpt lat="59.0648174286" lon="30.0304627419"><time>2026-04-25T20:53:25Z</time></trkpt><trkpt lat="59.0648174286" lon="30.0304841995"><time>2026-04-25T20:53:27Z</time></trkpt><trkpt lat="59.0647959709" lon="30.0304841995"><time>2026-04-25T20:53:30Z</time></trkpt><trkpt lat="59.0647745132" lon="30.0304841995"><time>2026-04-25T20:53:32Z</time></trkpt><trkpt lat="59.0647315979" lon="30.0305271149"><time>2026-04-25T20:53:35Z</time></trkpt><trkpt lat="59.0647101402" lon="30.0305485725"><time>2026-04-25T20:53:37Z</time></trkpt><trkpt lat="59.0646886826" lon="30.0305056572"><time>2026-04-25T20:53:40Z</time></trkpt><trkpt lat="59.0646457672" lon="30.0305056572"><time>2026-04-25T20:53:42Z</time></trkpt><trkpt lat="59.0646028519" lon="30.0305056572"><time>2026-04-25T20:53:45Z</time></trkpt><trkpt lat="59.0646028519" lon="30.0305271149"><time>2026-04-25T20:53:47Z</time></trkpt><trkpt lat="59.0645599365" lon="30.0305485725"><time>2026-04-25T20:53:50Z</time></trkpt><trkpt lat="59.0645384789" lon="30.0305485725"><time>2026-04-25T20:53:52Z</time></trkpt><trkpt lat="59.0644955635" lon="30.0305485725"><time>2026-04-25T20:53:55Z</time></trkpt><trkpt lat="59.0644741058" lon="30.0305485725"><time>2026-04-25T20:53:57Z</time></trkpt><trkpt lat="59.0644311905" lon="30.0305485725"><time>2026-04-25T20:54:00Z</time></trkpt><trkpt lat="59.0644311905" lon="30.0305485725"><time>2026-04-25T20:54:02Z</time></trkpt><trkpt lat="59.0644097328" lon="30.0305271149"><time>2026-04-25T20:54:05Z</time></trkpt><trkpt lat="59.0644097328" lon="30.0305271149"><time>2026-04-25T20:54:07Z</time></trkpt><trkpt lat="59.0643882751" lon="30.0305700302"><time>2026-04-25T20:54:10Z</time></trkpt><trkpt lat="59.0643668175" lon="30.0305700302"><time>2026-04-25T20:54:12Z</time></trkpt><trkpt lat="59.0643668175" lon="30.0305700302"><time>2026-04-25T20:54:15Z</time></trkpt><trkpt lat="59.0643668175" lon="30.0305700302"><time>2026-04-25T20:54:17Z</time></trkpt><trkpt lat="59.0643453598" lon="30.0305700302"><time>2026-04-25T20:54:20Z</time></trkpt><trkpt lat="59.0643239021" lon="30.0305700302"><time>2026-04-25T20:54:22Z</time></trkpt><trkpt lat="59.0642809868" lon="30.0305914879"><time>2026-04-25T20:54:25Z</time></trkpt><trkpt lat="59.0642595291" lon="30.0306129456"><time>2026-04-25T20:54:27Z</time></trkpt><trkpt lat="59.0642380714" lon="30.0306129456"><time>2026-04-25T20:54:30Z</time></trkpt><trkpt lat="59.0642166138" lon="30.0306344032"><time>2026-04-25T20:54:32Z</time></trkpt><trkpt lat="59.0641951561" lon="30.0306773186"><time>2026-04-25T20:54:35Z</time></trkpt><trkpt lat="59.0641951561" lon="30.0306987762"><time>2026-04-25T20:54:37Z</time></trkpt><trkpt lat="59.0641522408" lon="30.0306987762"><time>2026-04-25T20:54:40Z</time></trkpt><trkpt lat="59.0641307831" lon="30.0306987762"><time>2026-04-25T20:54:42Z</time></trkpt><trkpt lat="59.0640878677" lon="30.0306987762"><time>2026-04-25T20:54:45Z</time></trkpt><trkpt lat="59.0640664101" lon="30.0307202339"><time>2026-04-25T20:54:47Z</time></trkpt><trkpt lat="59.0640234947" lon="30.0307202339"><time>2026-04-25T20:54:50Z</time></trkpt><trkpt lat="59.0640020370" lon="30.0307202339"><time>2026-04-25T20:54:52Z</time></trkpt><trkpt lat="59.0640020370" lon="30.0307202339"><time>2026-04-25T20:54:55Z</time></trkpt><trkpt lat="59.0639805794" lon="30.0307202339"><time>2026-04-25T20:54:57Z</time></trkpt><trkpt lat="59.0639805794" lon="30.0307202339"><time>2026-04-25T20:55:00Z</time></trkpt><trkpt lat="59.0639805794" lon="30.0307416916"><time>2026-04-25T20:55:02Z</time></trkpt><trkpt lat="59.0639591217" lon="30.0307631493"><time>2026-04-25T20:55:05Z</time></trkpt><trkpt lat="59.0639591217" lon="30.0307631493"><time>2026-04-25T20:55:07Z</time></trkpt><trkpt lat="59.0639591217" lon="30.0307846069"><time>2026-04-25T20:55:10Z</time></trkpt><trkpt lat="59.0639162064" lon="30.0307846069"><time>2026-04-25T20:55:12Z</time></trkpt><trkpt lat="59.0639162064" lon="30.0307846069"><time>2026-04-25T20:55:15Z</time></trkpt><trkpt lat="59.0639162064" lon="30.0307631493"><time>2026-04-25T20:55:17Z</time></trkpt><trkpt lat="59.0638947487" lon="30.0307631493"><time>2026-04-25T20:55:20Z</time></trkpt><trkpt lat="59.0638947487" lon="30.0307631493"><time>2026-04-25T20:55:22Z</time></trkpt><trkpt lat="59.0638732910" lon="30.0307416916"><time>2026-04-25T20:55:25Z</time></trkpt><trkpt lat="59.0638732910" lon="30.0307202339"><time>2026-04-25T20:55:27Z</time></trkpt><trkpt lat="59.0638732910" lon="30.0307202339"><time>2026-04-25T20:55:30Z</time></trkpt><trkpt lat="59.0638518333" lon="30.0306987762"><time>2026-04-25T20:55:32Z</time></trkpt><trkpt lat="59.0638518333" lon="30.0306987762"><time>2026-04-25T20:55:35Z</time></trkpt><trkpt lat="59.0638518333" lon="30.0306987762"><time>2026-04-25T20:55:37Z</time></trkpt><trkpt lat="59.0638518333" lon="30.0306987762"><time>2026-04-25T20:55:40Z</time></trkpt><trkpt lat="59.0638303757" lon="30.0306773186"><time>2026-04-25T20:55:42Z</time></trkpt><trkpt lat="59.0638089180" lon="30.0306344032"><time>2026-04-25T20:55:45Z</time></trkpt><trkpt lat="59.0638089180" lon="30.0306129456"><time>2026-04-25T20:55:47Z</time></trkpt><trkpt lat="59.0638089180" lon="30.0306129456"><time>2026-04-25T20:55:50Z</time></trkpt><trkpt lat="59.0638089180" lon="30.0306129456"><time>2026-04-25T20:55:52Z</time></trkpt><trkpt lat="59.0638089180" lon="30.0306344032"><time>2026-04-25T20:55:55Z</time></trkpt><trkpt lat="59.0638089180" lon="30.0306344032"><time>2026-04-25T20:55:57Z</time></trkpt><trkpt lat="59.0638089180" lon="30.0306344032"><time>2026-04-25T20:56:00Z</time></trkpt><trkpt lat="59.0637874603" lon="30.0306558609"><time>2026-04-25T20:56:02Z</time></trkpt><trkpt lat="59.0637874603" lon="30.0306344032"><time>2026-04-25T20:56:05Z</time></trkpt><trkpt lat="59.0637660027" lon="30.0306344032"><time>2026-04-25T20:56:07Z</time></trkpt><trkpt lat="59.0637660027" lon="30.0306344032"><time>2026-04-25T20:56:10Z</time></trkpt><trkpt lat="59.0637660027" lon="30.0306344032"><time>2026-04-25T20:56:12Z</time></trkpt><trkpt lat="59.0637445450" lon="30.0306344032"><time>2026-04-25T20:56:15Z</time></trkpt><trkpt lat="59.0637230873" lon="30.0306344032"><time>2026-04-25T20:56:17Z</time></trkpt><trkpt lat="59.0637230873" lon="30.0306558609"><time>2026-04-25T20:56:20Z</time></trkpt><trkpt lat="59.0637016296" lon="30.0306558609"><time>2026-04-25T20:56:22Z</time></trkpt><trkpt lat="59.0637016296" lon="30.0306558609"><time>2026-04-25T20:56:25Z</time></trkpt><trkpt lat="59.0637016296" lon="30.0306558609"><time>2026-04-25T20:56:27Z</time></trkpt><trkpt lat="59.0636801720" lon="30.0306558609"><time>2026-04-25T20:56:30Z</time></trkpt><trkpt lat="59.0636587143" lon="30.0306344032"><time>2026-04-25T20:56:32Z</time></trkpt><trkpt lat="59.0636372566" lon="30.0305914879"><time>2026-04-25T20:56:35Z</time></trkpt><trkpt lat="59.0636372566" lon="30.0305914879"><time>2026-04-25T20:56:37Z</time></trkpt><trkpt lat="59.0636372566" lon="30.0305914879"><time>2026-04-25T20:56:40Z</time></trkpt><trkpt lat="59.0636372566" lon="30.0305914879"><time>2026-04-25T20:56:42Z</time></trkpt><trkpt lat="59.0636372566" lon="30.0306129456"><time>2026-04-25T20:56:45Z</time></trkpt><trkpt lat="59.0636157990" lon="30.0306129456"><time>2026-04-25T20:56:47Z</time></trkpt><trkpt lat="59.0635943413" lon="30.0306344032"><time>2026-04-25T20:56:50Z</time></trkpt><trkpt lat="59.0635943413" lon="30.0306344032"><time>2026-04-25T20:56:52Z</time></trkpt><trkpt lat="59.0635728836" lon="30.0306344032"><time>2026-04-25T20:56:55Z</time></trkpt><trkpt lat="59.0635728836" lon="30.0306344032"><time>2026-04-25T20:56:57Z</time></trkpt><trkpt lat="59.0635514259" lon="30.0306773186"><time>2026-04-25T20:57:00Z</time></trkpt><trkpt lat="59.0635299683" lon="30.0307202339"><time>2026-04-25T20:57:02Z</time></trkpt><trkpt lat="59.0634870529" lon="30.0307631493"><time>2026-04-25T20:57:05Z</time></trkpt><trkpt lat="59.0634870529" lon="30.0308060646"><time>2026-04-25T20:57:07Z</time></trkpt><trkpt lat="59.0634655952" lon="30.0308275223"><time>2026-04-25T20:57:10Z</time></trkpt><trkpt lat="59.0634441376" lon="30.0308489799"><time>2026-04-25T20:57:12Z</time></trkpt><trkpt lat="59.0634226799" lon="30.0308918953"><time>2026-04-25T20:57:15Z</time></trkpt><trkpt lat="59.0634226799" lon="30.0309133530"><time>2026-04-25T20:57:17Z</time></trkpt><trkpt lat="59.0633797646" lon="30.0309348106"><time>2026-04-25T20:57:20Z</time></trkpt><trkpt lat="59.0633583069" lon="30.0309562683"><time>2026-04-25T20:57:22Z</time></trkpt><trkpt lat="59.0633368492" lon="30.0309991837"><time>2026-04-25T20:57:25Z</time></trkpt><trkpt lat="59.0633153915" lon="30.0309991837"><time>2026-04-25T20:57:27Z</time></trkpt><trkpt lat="59.0632939339" lon="30.0310206413"><time>2026-04-25T20:57:30Z</time></trkpt><trkpt lat="59.0632939339" lon="30.0310635567"><time>2026-04-25T20:57:32Z</time></trkpt><trkpt lat="59.0632939339" lon="30.0310850143"><time>2026-04-25T20:57:35Z</time></trkpt><trkpt lat="59.0632939339" lon="30.0310850143"><time>2026-04-25T20:57:37Z</time></trkpt><trkpt lat="59.0632724762" lon="30.0310850143"><time>2026-04-25T20:57:40Z</time></trkpt><trkpt lat="59.0632724762" lon="30.0311064720"><time>2026-04-25T20:57:42Z</time></trkpt><trkpt lat="59.0632724762" lon="30.0311064720"><time>2026-04-25T20:57:45Z</time></trkpt><trkpt lat="59.0632724762" lon="30.0311064720"><time>2026-04-25T20:57:47Z</time></trkpt><trkpt lat="59.0632724762" lon="30.0311064720"><time>2026-04-25T20:57:50Z</time></trkpt><trkpt lat="59.0632724762" lon="30.0311064720"><time>2026-04-25T20:57:52Z</time></trkpt><trkpt lat="59.0632724762" lon="30.0311064720"><time>2026-04-25T20:57:55Z</time></trkpt><trkpt lat="59.0632724762" lon="30.0311064720"><time>2026-04-25T20:57:57Z</time></trkpt><trkpt lat="59.0632510185" lon="30.0310850143"><time>2026-04-25T20:58:00Z</time></trkpt><trkpt lat="59.0632510185" lon="30.0310850143"><time>2026-04-25T20:58:02Z</time></trkpt><trkpt lat="59.0632724762" lon="30.0311064720"><time>2026-04-25T20:58:05Z</time></trkpt><trkpt lat="59.0632724762" lon="30.0311064720"><time>2026-04-25T20:58:07Z</time></trkpt><trkpt lat="59.0632510185" lon="30.0311064720"><time>2026-04-25T20:58:10Z</time></trkpt><trkpt lat="59.0632724762" lon="30.0311064720"><time>2026-04-25T20:58:12Z</time></trkpt><trkpt lat="59.0632724762" lon="30.0311064720"><time>2026-04-25T20:58:15Z</time></trkpt><trkpt lat="59.0632724762" lon="30.0311064720"><time>2026-04-25T20:58:17Z</time></trkpt><trkpt lat="59.0632724762" lon="30.0311064720"><time>2026-04-25T20:58:20Z</time></trkpt><trkpt lat="59.0632724762" lon="30.0311064720"><time>2026-04-25T20:58:22Z</time></trkpt><trkpt lat="59.0632724762" lon="30.0311064720"><time>2026-04-25T20:58:25Z</time></trkpt><trkpt lat="59.0632724762" lon="30.0311064720"><time>2026-04-25T20:58:27Z</time></trkpt><trkpt lat="59.0632724762" lon="30.0311064720"><time>2026-04-25T20:58:30Z</time></trkpt><trkpt lat="59.0632724762" lon="30.0311064720"><time>2026-04-25T20:58:32Z</time></trkpt><trkpt lat="59.0632510185" lon="30.0311279297"><time>2026-04-25T20:58:35Z</time></trkpt><trkpt lat="59.0632510185" lon="30.0311279297"><time>2026-04-25T20:58:37Z</time></trkpt><trkpt lat="59.0632510185" lon="30.0311064720"><time>2026-04-25T20:58:40Z</time></trkpt><trkpt lat="59.0632510185" lon="30.0311064720"><time>2026-04-25T20:58:42Z</time></trkpt><trkpt lat="59.0632510185" lon="30.0311064720"><time>2026-04-25T20:58:45Z</time></trkpt><trkpt lat="59.0632510185" lon="30.0311064720"><time>2026-04-25T20:58:47Z</time></trkpt><trkpt lat="59.0632510185" lon="30.0311064720"><time>2026-04-25T20:58:50Z</time></trkpt><trkpt lat="59.0632510185" lon="30.0311064720"><time>2026-04-25T20:58:52Z</time></trkpt><trkpt lat="59.0632510185" lon="30.0311064720"><time>2026-04-25T20:58:55Z</time></trkpt><trkpt lat="59.0632510185" lon="30.0311064720"><time>2026-04-25T20:58:57Z</time></trkpt><trkpt lat="59.0632510185" lon="30.0311279297"><time>2026-04-25T20:59:00Z</time></trkpt><trkpt lat="59.0632510185" lon="30.0311279297"><time>2026-04-25T20:59:02Z</time></trkpt><trkpt lat="59.0632510185" lon="30.0311279297"><time>2026-04-25T20:59:05Z</time></trkpt><trkpt lat="59.0632510185" lon="30.0311279297"><time>2026-04-25T20:59:07Z</time></trkpt><trkpt lat="59.0632510185" lon="30.0311279297"><time>2026-04-25T20:59:10Z</time></trkpt><trkpt lat="59.0632510185" lon="30.0311279297"><time>2026-04-25T20:59:12Z</time></trkpt><trkpt lat="59.0632510185" lon="30.0311279297"><time>2026-04-25T20:59:15Z</time></trkpt><trkpt lat="59.0632510185" lon="30.0311279297"><time>2026-04-25T20:59:17Z</time></trkpt><trkpt lat="59.0632510185" lon="30.0311279297"><time>2026-04-25T20:59:20Z</time></trkpt><trkpt lat="59.0632510185" lon="30.0311279297"><time>2026-04-25T20:59:22Z</time></trkpt><trkpt lat="59.0632510185" lon="30.0311279297"><time>2026-04-25T20:59:25Z</time></trkpt><trkpt lat="59.0632510185" lon="30.0311279297"><time>2026-04-25T20:59:27Z</time></trkpt><trkpt lat="59.0632510185" lon="30.0311279297"><time>2026-04-25T20:59:30Z</time></trkpt><trkpt lat="59.0632510185" lon="30.0311279297"><time>2026-04-25T20:59:32Z</time></trkpt><trkpt lat="59.0632510185" lon="30.0311279297"><time>2026-04-25T20:59:35Z</time></trkpt><trkpt lat="59.0632510185" lon="30.0311279297"><time>2026-04-25T20:59:37Z</time></trkpt><trkpt lat="59.0632510185" lon="30.0311279297"><time>2026-04-25T20:59:40Z</time></trkpt><trkpt lat="59.0632510185" lon="30.0311279297"><time>2026-04-25T20:59:42Z</time></trkpt><trkpt lat="59.0632510185" lon="30.0311279297"><time>2026-04-25T20:59:45Z</time></trkpt><trkpt lat="59.0632510185" lon="30.0311279297"><time>2026-04-25T20:59:47Z</time></trkpt><trkpt lat="59.0632510185" lon="30.0311064720"><time>2026-04-25T20:59:50Z</time></trkpt><trkpt lat="59.0632510185" lon="30.0310850143"><time>2026-04-25T20:59:52Z</time></trkpt><trkpt lat="59.0632510185" lon="30.0311064720"><time>2026-04-25T20:59:55Z</time></trkpt><trkpt lat="59.0632510185" lon="30.0311064720"><time>2026-04-25T20:59:57Z</time></trkpt><trkpt lat="59.0632295609" lon="30.0311279297"><time>2026-04-25T21:00:00Z</time></trkpt><trkpt lat="59.0632295609" lon="30.0311493874"><time>2026-04-25T21:00:02Z</time></trkpt><trkpt lat="59.0632295609" lon="30.0311279297"><time>2026-04-25T21:00:05Z</time></trkpt><trkpt lat="59.0632295609" lon="30.0311279297"><time>2026-04-25T21:00:07Z</time></trkpt><trkpt lat="59.0632295609" lon="30.0311279297"><time>2026-04-25T21:00:10Z</time></trkpt><trkpt lat="59.0632295609" lon="30.0310850143"><time>2026-04-25T21:00:12Z</time></trkpt><trkpt lat="59.0632295609" lon="30.0310850143"><time>2026-04-25T21:00:15Z</time></trkpt><trkpt lat="59.0632295609" lon="30.0310420990"><time>2026-04-25T21:00:17Z</time></trkpt><trkpt lat="59.0632295609" lon="30.0310635567"><time>2026-04-25T21:00:20Z</time></trkpt><trkpt lat="59.0632510185" lon="30.0310635567"><time>2026-04-25T21:00:22Z</time></trkpt><trkpt lat="59.0632510185" lon="30.0310635567"><time>2026-04-25T21:00:25Z</time></trkpt><trkpt lat="59.0632510185" lon="30.0310635567"><time>2026-04-25T21:00:27Z</time></trkpt><trkpt lat="59.0632510185" lon="30.0310635567"><time>2026-04-25T21:00:30Z</time></trkpt><trkpt lat="59.0632510185" lon="30.0310635567"><time>2026-04-25T21:00:32Z</time></trkpt><trkpt lat="59.0632510185" lon="30.0310635567"><time>2026-04-25T21:00:35Z</time></trkpt><trkpt lat="59.0632510185" lon="30.0310635567"><time>2026-04-25T21:00:37Z</time></trkpt><trkpt lat="59.0632510185" lon="30.0310635567"><time>2026-04-25T21:00:40Z</time></trkpt><trkpt lat="59.0632295609" lon="30.0310850143"><time>2026-04-25T21:00:42Z</time></trkpt><trkpt lat="59.0632295609" lon="30.0310850143"><time>2026-04-25T21:00:45Z</time></trkpt><trkpt lat="59.0632295609" lon="30.0310850143"><time>2026-04-25T21:00:47Z</time></trkpt><trkpt lat="59.0632510185" lon="30.0310850143"><time>2026-04-25T21:00:50Z</time></trkpt><trkpt lat="59.0632510185" lon="30.0311064720"><time>2026-04-25T21:00:52Z</time></trkpt><trkpt lat="59.0632510185" lon="30.0311064720"><time>2026-04-25T21:00:55Z</time></trkpt><trkpt lat="59.0632510185" lon="30.0311064720"><time>2026-04-25T21:00:57Z</time></trkpt><trkpt lat="59.0632510185" lon="30.0311064720"><time>2026-04-25T21:01:00Z</time></trkpt><trkpt lat="59.0632510185" lon="30.0311064720"><time>2026-04-25T21:01:02Z</time></trkpt><trkpt lat="59.0632510185" lon="30.0311064720"><time>2026-04-25T21:01:05Z</time></trkpt><trkpt lat="59.0632510185" lon="30.0311064720"><time>2026-04-25T21:01:07Z</time></trkpt><trkpt lat="59.0632510185" lon="30.0311064720"><time>2026-04-25T21:01:10Z</time></trkpt><trkpt lat="59.0632510185" lon="30.0311064720"><time>2026-04-25T21:01:12Z</time></trkpt><trkpt lat="59.0632510185" lon="30.0311064720"><time>2026-04-25T21:01:15Z</time></trkpt><trkpt lat="59.0632295609" lon="30.0311064720"><time>2026-04-25T21:01:17Z</time></trkpt><trkpt lat="59.0632510185" lon="30.0311279297"><time>2026-04-25T21:01:20Z</time></trkpt><trkpt lat="59.0632510185" lon="30.0311279297"><time>2026-04-25T21:01:22Z</time></trkpt><trkpt lat="59.0632510185" lon="30.0311279297"><time>2026-04-25T21:01:25Z</time></trkpt><trkpt lat="59.0632510185" lon="30.0311279297"><time>2026-04-25T21:01:27Z</time></trkpt><trkpt lat="59.0632510185" lon="30.0311279297"><time>2026-04-25T21:01:30Z</time></trkpt><trkpt lat="59.0632510185" lon="30.0311279297"><time>2026-04-25T21:01:32Z</time></trkpt><trkpt lat="59.0632510185" lon="30.0311279297"><time>2026-04-25T21:01:35Z</time></trkpt><trkpt lat="59.0632510185" lon="30.0311279297"><time>2026-04-25T21:01:37Z</time></trkpt><trkpt lat="59.0632510185" lon="30.0311279297"><time>2026-04-25T21:01:40Z</time></trkpt><trkpt lat="59.0632510185" lon="30.0311064720"><time>2026-04-25T21:01:42Z</time></trkpt><trkpt lat="59.0632295609" lon="30.0311279297"><time>2026-04-25T21:01:45Z</time></trkpt><trkpt lat="59.0632295609" lon="30.0311279297"><time>2026-04-25T21:01:47Z</time></trkpt><trkpt lat="59.0632510185" lon="30.0311279297"><time>2026-04-25T21:01:50Z</time></trkpt><trkpt lat="59.0632510185" lon="30.0311279297"><time>2026-04-25T21:01:52Z</time></trkpt><trkpt lat="59.0632510185" lon="30.0311493874"><time>2026-04-25T21:01:55Z</time></trkpt><trkpt lat="59.0632510185" lon="30.0311493874"><time>2026-04-25T21:01:57Z</time></trkpt><trkpt lat="59.0632510185" lon="30.0311493874"><time>2026-04-25T21:02:00Z</time></trkpt><trkpt lat="59.0632510185" lon="30.0311279297"><time>2026-04-25T21:02:02Z</time></trkpt><trkpt lat="59.0632510185" lon="30.0311279297"><time>2026-04-25T21:02:05Z</time></trkpt><trkpt lat="59.0632510185" lon="30.0311279297"><time>2026-04-25T21:02:07Z</time></trkpt><trkpt lat="59.0632510185" lon="30.0311279297"><time>2026-04-25T21:02:10Z</time></trkpt><trkpt lat="59.0632510185" lon="30.0311279297"><time>2026-04-25T21:02:12Z</time></trkpt><trkpt lat="59.0632510185" lon="30.0311279297"><time>2026-04-25T21:02:15Z</time></trkpt><trkpt lat="59.0632510185" lon="30.0311279297"><time>2026-04-25T21:02:17Z</time></trkpt><trkpt lat="59.0632510185" lon="30.0311279297"><time>2026-04-25T21:02:20Z</time></trkpt><trkpt lat="59.0632510185" lon="30.0311279297"><time>2026-04-25T21:02:22Z</time></trkpt><trkpt lat="59.0632510185" lon="30.0311279297"><time>2026-04-25T21:02:25Z</time></trkpt><trkpt lat="59.0632510185" lon="30.0311279297"><time>2026-04-25T21:02:27Z</time></trkpt><trkpt lat="59.0632510185" lon="30.0311279297"><time>2026-04-25T21:02:30Z</time></trkpt><trkpt lat="59.0632510185" lon="30.0311279297"><time>2026-04-25T21:02:32Z</time></trkpt><trkpt lat="59.0632510185" lon="30.0311279297"><time>2026-04-25T21:02:35Z</time></trkpt><trkpt lat="59.0632510185" lon="30.0311279297"><time>2026-04-25T21:02:37Z</time></trkpt><trkpt lat="59.0632510185" lon="30.0311279297"><time>2026-04-25T21:02:40Z</time></trkpt><trkpt lat="59.0632510185" lon="30.0311279297"><time>2026-04-25T21:02:42Z</time></trkpt><trkpt lat="59.0632510185" lon="30.0311279297"><time>2026-04-25T21:02:45Z</time></trkpt><trkpt lat="59.0632510185" lon="30.0311279297"><time>2026-04-25T21:02:47Z</time></trkpt><trkpt lat="59.0632510185" lon="30.0311279297"><time>2026-04-25T21:02:50Z</time></trkpt><trkpt lat="59.0632510185" lon="30.0311279297"><time>2026-04-25T21:02:52Z</time></trkpt><trkpt lat="59.0632510185" lon="30.0311279297"><time>2026-04-25T21:02:55Z</time></trkpt><trkpt lat="59.0632510185" lon="30.0311279297"><time>2026-04-25T21:02:57Z</time></trkpt><trkpt lat="59.0632295609" lon="30.0311279297"><time>2026-04-25T21:03:00Z</time></trkpt><trkpt lat="59.0632295609" lon="30.0311279297"><time>2026-04-25T21:03:02Z</time></trkpt><trkpt lat="59.0632295609" lon="30.0311493874"><time>2026-04-25T21:03:05Z</time></trkpt><trkpt lat="59.0632295609" lon="30.0311493874"><time>2026-04-25T21:03:07Z</time></trkpt><trkpt lat="59.0632295609" lon="30.0311493874"><time>2026-04-25T21:03:10Z</time></trkpt><trkpt lat="59.0632295609" lon="30.0311279297"><time>2026-04-25T21:03:12Z</time></trkpt><trkpt lat="59.0632295609" lon="30.0311493874"><time>2026-04-25T21:03:15Z</time></trkpt><trkpt lat="59.0632295609" lon="30.0311493874"><time>2026-04-25T21:03:17Z</time></trkpt><trkpt lat="59.0632295609" lon="30.0311493874"><time>2026-04-25T21:03:20Z</time></trkpt><trkpt lat="59.0632295609" lon="30.0311279297"><time>2026-04-25T21:03:22Z</time></trkpt><trkpt lat="59.0632295609" lon="30.0311279297"><time>2026-04-25T21:03:25Z</time></trkpt><trkpt lat="59.0632295609" lon="30.0311279297"><time>2026-04-25T21:03:27Z</time></trkpt><trkpt lat="59.0632510185" lon="30.0311279297"><time>2026-04-25T21:03:30Z</time></trkpt><trkpt lat="59.0632510185" lon="30.0311279297"><time>2026-04-25T21:03:32Z</time></trkpt><trkpt lat="59.0632510185" lon="30.0311279297"><time>2026-04-25T21:03:35Z</time></trkpt><trkpt lat="59.0632510185" lon="30.0311064720"><time>2026-04-25T21:03:37Z</time></trkpt><trkpt lat="59.0632510185" lon="30.0311064720"><time>2026-04-25T21:03:40Z</time></trkpt><trkpt lat="59.0632510185" lon="30.0311064720"><time>2026-04-25T21:03:42Z</time></trkpt><trkpt lat="59.0632510185" lon="30.0311064720"><time>2026-04-25T21:03:45Z</time></trkpt><trkpt lat="59.0632510185" lon="30.0311064720"><time>2026-04-25T21:03:47Z</time></trkpt><trkpt lat="59.0632510185" lon="30.0311064720"><time>2026-04-25T21:03:50Z</time></trkpt><trkpt lat="59.0632510185" lon="30.0311064720"><time>2026-04-25T21:03:52Z</time></trkpt><trkpt lat="59.0632510185" lon="30.0311064720"><time>2026-04-25T21:03:55Z</time></trkpt><trkpt lat="59.0632510185" lon="30.0311064720"><time>2026-04-25T21:03:57Z</time></trkpt><trkpt lat="59.0632510185" lon="30.0311064720"><time>2026-04-25T21:04:00Z</time></trkpt><trkpt lat="59.0632510185" lon="30.0311064720"><time>2026-04-25T21:04:02Z</time></trkpt><trkpt lat="59.0632510185" lon="30.0311064720"><time>2026-04-25T21:04:05Z</time></trkpt><trkpt lat="59.0632510185" lon="30.0311064720"><time>2026-04-25T21:04:07Z</time></trkpt><trkpt lat="59.0632510185" lon="30.0311064720"><time>2026-04-25T21:04:10Z</time></trkpt><trkpt lat="59.0632510185" lon="30.0311064720"><time>2026-04-25T21:04:12Z</time></trkpt><trkpt lat="59.0632510185" lon="30.0311064720"><time>2026-04-25T21:04:15Z</time></trkpt><trkpt lat="59.0632510185" lon="30.0311064720"><time>2026-04-25T21:04:17Z</time></trkpt><trkpt lat="59.0632510185" lon="30.0311064720"><time>2026-04-25T21:04:20Z</time></trkpt><trkpt lat="59.0632510185" lon="30.0311064720"><time>2026-04-25T21:04:22Z</time></trkpt><trkpt lat="59.0632510185" lon="30.0311279297"><time>2026-04-25T21:04:25Z</time></trkpt><trkpt lat="59.0632510185" lon="30.0311064720"><time>2026-04-25T21:04:27Z</time></trkpt><trkpt lat="59.0632510185" lon="30.0311064720"><time>2026-04-25T21:04:30Z</time></trkpt><trkpt lat="59.0632510185" lon="30.0311064720"><time>2026-04-25T21:04:32Z</time></trkpt><trkpt lat="59.0632510185" lon="30.0311064720"><time>2026-04-25T21:04:35Z</time></trkpt><trkpt lat="59.0632510185" lon="30.0311064720"><time>2026-04-25T21:04:37Z</time></trkpt><trkpt lat="59.0632510185" lon="30.0311064720"><time>2026-04-25T21:04:40Z</time></trkpt><trkpt lat="59.0632510185" lon="30.0311064720"><time>2026-04-25T21:04:42Z</time></trkpt><trkpt lat="59.0632510185" lon="30.0311064720"><time>2026-04-25T21:04:45Z</time></trkpt><trkpt lat="59.0632510185" lon="30.0311064720"><time>2026-04-25T21:04:47Z</time></trkpt><trkpt lat="59.0632510185" lon="30.0311064720"><time>2026-04-25T21:04:50Z</time></trkpt><trkpt lat="59.0632510185" lon="30.0311064720"><time>2026-04-25T21:04:52Z</time></trkpt><trkpt lat="59.0632510185" lon="30.0311064720"><time>2026-04-25T21:04:55Z</time></trkpt><trkpt lat="59.0632510185" lon="30.0311064720"><time>2026-04-25T21:04:57Z</time></trkpt><trkpt lat="59.0632510185" lon="30.0311064720"><time>2026-04-25T21:05:00Z</time></trkpt><trkpt lat="59.0632510185" lon="30.0311279297"><time>2026-04-25T21:05:02Z</time></trkpt><trkpt lat="59.0632510185" lon="30.0311064720"><time>2026-04-25T21:05:05Z</time></trkpt><trkpt lat="59.0632510185" lon="30.0311064720"><time>2026-04-25T21:05:07Z</time></trkpt><trkpt lat="59.0632510185" lon="30.0310850143"><time>2026-04-25T21:05:10Z</time></trkpt><trkpt lat="59.0632510185" lon="30.0310850143"><time>2026-04-25T21:05:12Z</time></trkpt></trkseg></trk></gpx>